<?xml version="1.0" encoding="UTF-8" standalone="no" ?>
<gpx xmlns="http://www.topografix.com/GPX/1/1" xmlns:xsi="http://www.w3.org/2001/XMLSchema-instance" xsi:schemaLocation="http://www.topografix.com/GPX/1/1 http://www.topografix.com/GPX/1/1/gpx.xsd" version="1.1" creator="VisuGPX - https://www.visugpx.com">
  <metadata>
    <name>montaclier</name>
  </metadata>
  <trk>
    <name><![CDATA[montaclier_1]]></name>
    <extensions>
      <line xmlns="http://www.topografix.com/GPX/gpx_style/0/2">
        <color>0000FF</color>
        <width>4</width>
      </line>
    </extensions>
    <trkseg>
      <trkpt lat="45.90563" lon="3.05931">
        <ele>452</ele>
        <time>2021-07-27T06:03:04Z</time>
      </trkpt>
      <trkpt lat="45.90563" lon="3.05931">
        <ele>452</ele>
        <time>2021-07-27T06:03:05Z</time>
      </trkpt>
      <trkpt lat="45.90563" lon="3.0593">
        <ele>452</ele>
        <time>2021-07-27T06:03:06Z</time>
      </trkpt>
      <trkpt lat="45.90563" lon="3.05929">
        <ele>452</ele>
        <time>2021-07-27T06:03:07Z</time>
      </trkpt>
      <trkpt lat="45.90563" lon="3.05928">
        <ele>452</ele>
        <time>2021-07-27T06:03:08Z</time>
      </trkpt>
      <trkpt lat="45.90563" lon="3.05926">
        <ele>452</ele>
        <time>2021-07-27T06:03:09Z</time>
      </trkpt>
      <trkpt lat="45.90563" lon="3.05925">
        <ele>452</ele>
        <time>2021-07-27T06:03:10Z</time>
      </trkpt>
      <trkpt lat="45.90563" lon="3.05923">
        <ele>452</ele>
        <time>2021-07-27T06:03:11Z</time>
      </trkpt>
      <trkpt lat="45.90563" lon="3.05921">
        <ele>452</ele>
        <time>2021-07-27T06:03:12Z</time>
      </trkpt>
      <trkpt lat="45.90563" lon="3.0592">
        <ele>452</ele>
        <time>2021-07-27T06:03:13Z</time>
      </trkpt>
      <trkpt lat="45.90563" lon="3.05918">
        <ele>452</ele>
        <time>2021-07-27T06:03:14Z</time>
      </trkpt>
      <trkpt lat="45.90564" lon="3.05917">
        <ele>452</ele>
        <time>2021-07-27T06:03:15Z</time>
      </trkpt>
      <trkpt lat="45.90564" lon="3.05915">
        <ele>452</ele>
        <time>2021-07-27T06:03:16Z</time>
      </trkpt>
      <trkpt lat="45.90564" lon="3.05914">
        <ele>452</ele>
        <time>2021-07-27T06:03:17Z</time>
      </trkpt>
      <trkpt lat="45.90564" lon="3.05912">
        <ele>452</ele>
        <time>2021-07-27T06:03:18Z</time>
      </trkpt>
      <trkpt lat="45.90565" lon="3.05911">
        <ele>452</ele>
        <time>2021-07-27T06:03:19Z</time>
      </trkpt>
      <trkpt lat="45.90566" lon="3.05909">
        <ele>452</ele>
        <time>2021-07-27T06:03:20Z</time>
      </trkpt>
      <trkpt lat="45.90566" lon="3.05908">
        <ele>452</ele>
        <time>2021-07-27T06:03:21Z</time>
      </trkpt>
      <trkpt lat="45.90567" lon="3.05907">
        <ele>452</ele>
        <time>2021-07-27T06:03:22Z</time>
      </trkpt>
      <trkpt lat="45.90567" lon="3.05906">
        <ele>452</ele>
        <time>2021-07-27T06:03:23Z</time>
      </trkpt>
      <trkpt lat="45.90569" lon="3.05905">
        <ele>452</ele>
        <time>2021-07-27T06:03:24Z</time>
      </trkpt>
      <trkpt lat="45.90569" lon="3.05904">
        <ele>452</ele>
        <time>2021-07-27T06:03:25Z</time>
      </trkpt>
      <trkpt lat="45.9057" lon="3.05903">
        <ele>452</ele>
        <time>2021-07-27T06:03:26Z</time>
      </trkpt>
      <trkpt lat="45.90572" lon="3.05903">
        <ele>452</ele>
        <time>2021-07-27T06:03:27Z</time>
      </trkpt>
      <trkpt lat="45.90573" lon="3.05902">
        <ele>452</ele>
        <time>2021-07-27T06:03:28Z</time>
      </trkpt>
      <trkpt lat="45.90574" lon="3.05902">
        <ele>452</ele>
        <time>2021-07-27T06:03:29Z</time>
      </trkpt>
      <trkpt lat="45.90575" lon="3.05901">
        <ele>452</ele>
        <time>2021-07-27T06:03:30Z</time>
      </trkpt>
      <trkpt lat="45.90577" lon="3.05901">
        <ele>452</ele>
        <time>2021-07-27T06:03:31Z</time>
      </trkpt>
      <trkpt lat="45.90578" lon="3.05901">
        <ele>452</ele>
        <time>2021-07-27T06:03:32Z</time>
      </trkpt>
      <trkpt lat="45.90579" lon="3.059">
        <ele>452</ele>
        <time>2021-07-27T06:03:33Z</time>
      </trkpt>
      <trkpt lat="45.90581" lon="3.059">
        <ele>452</ele>
        <time>2021-07-27T06:03:34Z</time>
      </trkpt>
      <trkpt lat="45.90582" lon="3.05899">
        <ele>452</ele>
        <time>2021-07-27T06:03:35Z</time>
      </trkpt>
      <trkpt lat="45.90583" lon="3.05898">
        <ele>452</ele>
        <time>2021-07-27T06:03:36Z</time>
      </trkpt>
      <trkpt lat="45.90584" lon="3.05897">
        <ele>452</ele>
        <time>2021-07-27T06:03:37Z</time>
      </trkpt>
      <trkpt lat="45.90585" lon="3.05896">
        <ele>452</ele>
        <time>2021-07-27T06:03:38Z</time>
      </trkpt>
      <trkpt lat="45.90585" lon="3.05894">
        <ele>452</ele>
        <time>2021-07-27T06:03:39Z</time>
      </trkpt>
      <trkpt lat="45.90586" lon="3.05893">
        <ele>452</ele>
        <time>2021-07-27T06:03:40Z</time>
      </trkpt>
      <trkpt lat="45.90587" lon="3.05891">
        <ele>452</ele>
        <time>2021-07-27T06:03:41Z</time>
      </trkpt>
      <trkpt lat="45.90587" lon="3.0589">
        <ele>452</ele>
        <time>2021-07-27T06:03:42Z</time>
      </trkpt>
      <trkpt lat="45.90587" lon="3.05888">
        <ele>452</ele>
        <time>2021-07-27T06:03:43Z</time>
      </trkpt>
      <trkpt lat="45.90587" lon="3.05886">
        <ele>452</ele>
        <time>2021-07-27T06:03:44Z</time>
      </trkpt>
      <trkpt lat="45.90587" lon="3.05884">
        <ele>452</ele>
        <time>2021-07-27T06:03:45Z</time>
      </trkpt>
      <trkpt lat="45.90587" lon="3.05882">
        <ele>452</ele>
        <time>2021-07-27T06:03:46Z</time>
      </trkpt>
      <trkpt lat="45.90587" lon="3.0588">
        <ele>452</ele>
        <time>2021-07-27T06:03:47Z</time>
      </trkpt>
      <trkpt lat="45.90586" lon="3.05878">
        <ele>452</ele>
        <time>2021-07-27T06:03:48Z</time>
      </trkpt>
      <trkpt lat="45.90586" lon="3.05876">
        <ele>452</ele>
        <time>2021-07-27T06:03:49Z</time>
      </trkpt>
      <trkpt lat="45.90585" lon="3.05875">
        <ele>452</ele>
        <time>2021-07-27T06:03:50Z</time>
      </trkpt>
      <trkpt lat="45.90585" lon="3.05874">
        <ele>452</ele>
        <time>2021-07-27T06:03:51Z</time>
      </trkpt>
      <trkpt lat="45.90585" lon="3.05873">
        <ele>452</ele>
        <time>2021-07-27T06:03:52Z</time>
      </trkpt>
      <trkpt lat="45.90585" lon="3.05871">
        <ele>452</ele>
        <time>2021-07-27T06:03:53Z</time>
      </trkpt>
      <trkpt lat="45.90584" lon="3.0587">
        <ele>452</ele>
        <time>2021-07-27T06:03:54Z</time>
      </trkpt>
      <trkpt lat="45.90584" lon="3.05868">
        <ele>452</ele>
        <time>2021-07-27T06:03:55Z</time>
      </trkpt>
      <trkpt lat="45.90584" lon="3.05867">
        <ele>452</ele>
        <time>2021-07-27T06:03:56Z</time>
      </trkpt>
      <trkpt lat="45.90584" lon="3.05865">
        <ele>452</ele>
        <time>2021-07-27T06:03:57Z</time>
      </trkpt>
      <trkpt lat="45.90584" lon="3.05863">
        <ele>452</ele>
        <time>2021-07-27T06:03:58Z</time>
      </trkpt>
      <trkpt lat="45.90584" lon="3.05861">
        <ele>452</ele>
        <time>2021-07-27T06:03:59Z</time>
      </trkpt>
      <trkpt lat="45.90584" lon="3.05859">
        <ele>452</ele>
        <time>2021-07-27T06:04:00Z</time>
      </trkpt>
      <trkpt lat="45.90584" lon="3.05857">
        <ele>452</ele>
        <time>2021-07-27T06:04:01Z</time>
      </trkpt>
      <trkpt lat="45.90584" lon="3.05856">
        <ele>452</ele>
        <time>2021-07-27T06:04:02Z</time>
      </trkpt>
      <trkpt lat="45.90584" lon="3.05854">
        <ele>452</ele>
        <time>2021-07-27T06:04:03Z</time>
      </trkpt>
      <trkpt lat="45.90584" lon="3.05852">
        <ele>452</ele>
        <time>2021-07-27T06:04:04Z</time>
      </trkpt>
      <trkpt lat="45.90585" lon="3.0585">
        <ele>452</ele>
        <time>2021-07-27T06:04:05Z</time>
      </trkpt>
      <trkpt lat="45.90585" lon="3.05848">
        <ele>452</ele>
        <time>2021-07-27T06:04:06Z</time>
      </trkpt>
      <trkpt lat="45.90585" lon="3.05846">
        <ele>452</ele>
        <time>2021-07-27T06:04:07Z</time>
      </trkpt>
      <trkpt lat="45.90585" lon="3.05844">
        <ele>452</ele>
        <time>2021-07-27T06:04:08Z</time>
      </trkpt>
      <trkpt lat="45.90585" lon="3.05841">
        <ele>452</ele>
        <time>2021-07-27T06:04:09Z</time>
      </trkpt>
      <trkpt lat="45.90585" lon="3.05839">
        <ele>452</ele>
        <time>2021-07-27T06:04:10Z</time>
      </trkpt>
      <trkpt lat="45.90585" lon="3.05837">
        <ele>452</ele>
        <time>2021-07-27T06:04:11Z</time>
      </trkpt>
      <trkpt lat="45.90585" lon="3.05835">
        <ele>452</ele>
        <time>2021-07-27T06:04:12Z</time>
      </trkpt>
      <trkpt lat="45.90585" lon="3.05833">
        <ele>452</ele>
        <time>2021-07-27T06:04:13Z</time>
      </trkpt>
      <trkpt lat="45.90585" lon="3.05831">
        <ele>452</ele>
        <time>2021-07-27T06:04:14Z</time>
      </trkpt>
      <trkpt lat="45.90585" lon="3.05829">
        <ele>452</ele>
        <time>2021-07-27T06:04:15Z</time>
      </trkpt>
      <trkpt lat="45.90586" lon="3.05828">
        <ele>452</ele>
        <time>2021-07-27T06:04:16Z</time>
      </trkpt>
      <trkpt lat="45.90587" lon="3.05826">
        <ele>452</ele>
        <time>2021-07-27T06:04:17Z</time>
      </trkpt>
      <trkpt lat="45.90587" lon="3.05824">
        <ele>452</ele>
        <time>2021-07-27T06:04:18Z</time>
      </trkpt>
      <trkpt lat="45.90587" lon="3.05823">
        <ele>452</ele>
        <time>2021-07-27T06:04:19Z</time>
      </trkpt>
      <trkpt lat="45.90587" lon="3.05821">
        <ele>452</ele>
        <time>2021-07-27T06:04:20Z</time>
      </trkpt>
      <trkpt lat="45.90588" lon="3.05818">
        <ele>452</ele>
        <time>2021-07-27T06:04:21Z</time>
      </trkpt>
      <trkpt lat="45.90588" lon="3.05816">
        <ele>452</ele>
        <time>2021-07-27T06:04:22Z</time>
      </trkpt>
      <trkpt lat="45.90588" lon="3.05814">
        <ele>452</ele>
        <time>2021-07-27T06:04:23Z</time>
      </trkpt>
      <trkpt lat="45.90589" lon="3.05812">
        <ele>452</ele>
        <time>2021-07-27T06:04:24Z</time>
      </trkpt>
      <trkpt lat="45.9059" lon="3.0581">
        <ele>452</ele>
        <time>2021-07-27T06:04:25Z</time>
      </trkpt>
      <trkpt lat="45.9059" lon="3.05809">
        <ele>452</ele>
        <time>2021-07-27T06:04:26Z</time>
      </trkpt>
      <trkpt lat="45.90591" lon="3.05807">
        <ele>452</ele>
        <time>2021-07-27T06:04:27Z</time>
      </trkpt>
      <trkpt lat="45.90592" lon="3.05806">
        <ele>452</ele>
        <time>2021-07-27T06:04:28Z</time>
      </trkpt>
      <trkpt lat="45.90593" lon="3.05804">
        <ele>452</ele>
        <time>2021-07-27T06:04:29Z</time>
      </trkpt>
      <trkpt lat="45.90594" lon="3.05803">
        <ele>452</ele>
        <time>2021-07-27T06:04:30Z</time>
      </trkpt>
      <trkpt lat="45.90595" lon="3.05801">
        <ele>452</ele>
        <time>2021-07-27T06:04:31Z</time>
      </trkpt>
      <trkpt lat="45.90595" lon="3.058">
        <ele>452</ele>
        <time>2021-07-27T06:04:32Z</time>
      </trkpt>
      <trkpt lat="45.90596" lon="3.05798">
        <ele>452</ele>
        <time>2021-07-27T06:04:33Z</time>
      </trkpt>
      <trkpt lat="45.90596" lon="3.05796">
        <ele>452</ele>
        <time>2021-07-27T06:04:34Z</time>
      </trkpt>
      <trkpt lat="45.90596" lon="3.05794">
        <ele>452</ele>
        <time>2021-07-27T06:04:35Z</time>
      </trkpt>
      <trkpt lat="45.90596" lon="3.05793">
        <ele>452</ele>
        <time>2021-07-27T06:04:36Z</time>
      </trkpt>
      <trkpt lat="45.90596" lon="3.05791">
        <ele>452</ele>
        <time>2021-07-27T06:04:37Z</time>
      </trkpt>
      <trkpt lat="45.90596" lon="3.0579">
        <ele>452</ele>
        <time>2021-07-27T06:04:38Z</time>
      </trkpt>
      <trkpt lat="45.90596" lon="3.05789">
        <ele>452</ele>
        <time>2021-07-27T06:04:39Z</time>
      </trkpt>
      <trkpt lat="45.90595" lon="3.05787">
        <ele>452</ele>
        <time>2021-07-27T06:04:40Z</time>
      </trkpt>
      <trkpt lat="45.90594" lon="3.05786">
        <ele>452</ele>
        <time>2021-07-27T06:04:41Z</time>
      </trkpt>
      <trkpt lat="45.90594" lon="3.05785">
        <ele>452</ele>
        <time>2021-07-27T06:04:42Z</time>
      </trkpt>
      <trkpt lat="45.90593" lon="3.05784">
        <ele>452</ele>
        <time>2021-07-27T06:04:43Z</time>
      </trkpt>
      <trkpt lat="45.90591" lon="3.05783">
        <ele>452</ele>
        <time>2021-07-27T06:04:44Z</time>
      </trkpt>
      <trkpt lat="45.9059" lon="3.05782">
        <ele>452</ele>
        <time>2021-07-27T06:04:45Z</time>
      </trkpt>
      <trkpt lat="45.90589" lon="3.05781">
        <ele>452</ele>
        <time>2021-07-27T06:04:46Z</time>
      </trkpt>
      <trkpt lat="45.90588" lon="3.0578">
        <ele>452</ele>
        <time>2021-07-27T06:04:47Z</time>
      </trkpt>
      <trkpt lat="45.90587" lon="3.05779">
        <ele>452</ele>
        <time>2021-07-27T06:04:48Z</time>
      </trkpt>
      <trkpt lat="45.90585" lon="3.05778">
        <ele>452</ele>
        <time>2021-07-27T06:04:49Z</time>
      </trkpt>
      <trkpt lat="45.90584" lon="3.05776">
        <ele>452</ele>
        <time>2021-07-27T06:04:50Z</time>
      </trkpt>
      <trkpt lat="45.90583" lon="3.05774">
        <ele>452</ele>
        <time>2021-07-27T06:04:51Z</time>
      </trkpt>
      <trkpt lat="45.90582" lon="3.05772">
        <ele>452</ele>
        <time>2021-07-27T06:04:52Z</time>
      </trkpt>
      <trkpt lat="45.90582" lon="3.0577">
        <ele>452</ele>
        <time>2021-07-27T06:04:53Z</time>
      </trkpt>
      <trkpt lat="45.90581" lon="3.05768">
        <ele>452</ele>
        <time>2021-07-27T06:04:54Z</time>
      </trkpt>
      <trkpt lat="45.9058" lon="3.05766">
        <ele>452</ele>
        <time>2021-07-27T06:04:55Z</time>
      </trkpt>
      <trkpt lat="45.90579" lon="3.05764">
        <ele>452</ele>
        <time>2021-07-27T06:04:56Z</time>
      </trkpt>
      <trkpt lat="45.90579" lon="3.05762">
        <ele>452</ele>
        <time>2021-07-27T06:04:57Z</time>
      </trkpt>
      <trkpt lat="45.90579" lon="3.0576">
        <ele>452</ele>
        <time>2021-07-27T06:04:59Z</time>
      </trkpt>
      <trkpt lat="45.90579" lon="3.05758">
        <ele>452</ele>
        <time>2021-07-27T06:05:00Z</time>
      </trkpt>
      <trkpt lat="45.90582" lon="3.05751">
        <ele>452</ele>
        <time>2021-07-27T06:05:01Z</time>
      </trkpt>
      <trkpt lat="45.90582" lon="3.05751">
        <ele>452</ele>
        <time>2021-07-27T06:05:02Z</time>
      </trkpt>
      <trkpt lat="45.90583" lon="3.0575">
        <ele>452</ele>
        <time>2021-07-27T06:05:03Z</time>
      </trkpt>
      <trkpt lat="45.90583" lon="3.0575">
        <ele>452</ele>
        <time>2021-07-27T06:05:04Z</time>
      </trkpt>
      <trkpt lat="45.90584" lon="3.05749">
        <ele>452</ele>
        <time>2021-07-27T06:05:05Z</time>
      </trkpt>
      <trkpt lat="45.90585" lon="3.05748">
        <ele>452</ele>
        <time>2021-07-27T06:05:06Z</time>
      </trkpt>
      <trkpt lat="45.90587" lon="3.05747">
        <ele>452</ele>
        <time>2021-07-27T06:05:07Z</time>
      </trkpt>
      <trkpt lat="45.90587" lon="3.05746">
        <ele>452</ele>
        <time>2021-07-27T06:05:08Z</time>
      </trkpt>
      <trkpt lat="45.90588" lon="3.05745">
        <ele>452</ele>
        <time>2021-07-27T06:05:09Z</time>
      </trkpt>
      <trkpt lat="45.90589" lon="3.05744">
        <ele>452</ele>
        <time>2021-07-27T06:05:10Z</time>
      </trkpt>
      <trkpt lat="45.9059" lon="3.05742">
        <ele>452</ele>
        <time>2021-07-27T06:05:11Z</time>
      </trkpt>
      <trkpt lat="45.90591" lon="3.05741">
        <ele>452</ele>
        <time>2021-07-27T06:05:12Z</time>
      </trkpt>
      <trkpt lat="45.90592" lon="3.0574">
        <ele>452</ele>
        <time>2021-07-27T06:05:13Z</time>
      </trkpt>
      <trkpt lat="45.90593" lon="3.05738">
        <ele>452</ele>
        <time>2021-07-27T06:05:14Z</time>
      </trkpt>
      <trkpt lat="45.90594" lon="3.05737">
        <ele>452</ele>
        <time>2021-07-27T06:05:15Z</time>
      </trkpt>
      <trkpt lat="45.90595" lon="3.05736">
        <ele>452</ele>
        <time>2021-07-27T06:05:16Z</time>
      </trkpt>
      <trkpt lat="45.90596" lon="3.05735">
        <ele>452</ele>
        <time>2021-07-27T06:05:17Z</time>
      </trkpt>
      <trkpt lat="45.90597" lon="3.05734">
        <ele>452</ele>
        <time>2021-07-27T06:05:18Z</time>
      </trkpt>
      <trkpt lat="45.90598" lon="3.05733">
        <ele>452</ele>
        <time>2021-07-27T06:05:19Z</time>
      </trkpt>
      <trkpt lat="45.90599" lon="3.05732">
        <ele>452</ele>
        <time>2021-07-27T06:05:20Z</time>
      </trkpt>
      <trkpt lat="45.906" lon="3.05731">
        <ele>452</ele>
        <time>2021-07-27T06:05:21Z</time>
      </trkpt>
      <trkpt lat="45.90602" lon="3.05729">
        <ele>452</ele>
        <time>2021-07-27T06:05:22Z</time>
      </trkpt>
      <trkpt lat="45.90603" lon="3.05728">
        <ele>452</ele>
        <time>2021-07-27T06:05:23Z</time>
      </trkpt>
      <trkpt lat="45.90604" lon="3.05727">
        <ele>452</ele>
        <time>2021-07-27T06:05:24Z</time>
      </trkpt>
      <trkpt lat="45.90605" lon="3.05725">
        <ele>452</ele>
        <time>2021-07-27T06:05:25Z</time>
      </trkpt>
      <trkpt lat="45.90606" lon="3.05724">
        <ele>452</ele>
        <time>2021-07-27T06:05:26Z</time>
      </trkpt>
      <trkpt lat="45.90608" lon="3.05722">
        <ele>452</ele>
        <time>2021-07-27T06:05:27Z</time>
      </trkpt>
      <trkpt lat="45.90608" lon="3.05721">
        <ele>452</ele>
        <time>2021-07-27T06:05:28Z</time>
      </trkpt>
      <trkpt lat="45.90609" lon="3.0572">
        <ele>452</ele>
        <time>2021-07-27T06:05:29Z</time>
      </trkpt>
      <trkpt lat="45.90611" lon="3.05718">
        <ele>452</ele>
        <time>2021-07-27T06:05:30Z</time>
      </trkpt>
      <trkpt lat="45.90612" lon="3.05717">
        <ele>452</ele>
        <time>2021-07-27T06:05:31Z</time>
      </trkpt>
      <trkpt lat="45.90613" lon="3.05715">
        <ele>452</ele>
        <time>2021-07-27T06:05:32Z</time>
      </trkpt>
      <trkpt lat="45.90615" lon="3.05714">
        <ele>452</ele>
        <time>2021-07-27T06:05:33Z</time>
      </trkpt>
      <trkpt lat="45.90616" lon="3.05712">
        <ele>452</ele>
        <time>2021-07-27T06:05:34Z</time>
      </trkpt>
      <trkpt lat="45.90616" lon="3.05711">
        <ele>452</ele>
        <time>2021-07-27T06:05:35Z</time>
      </trkpt>
      <trkpt lat="45.90617" lon="3.05709">
        <ele>452</ele>
        <time>2021-07-27T06:05:36Z</time>
      </trkpt>
      <trkpt lat="45.90618" lon="3.05708">
        <ele>452</ele>
        <time>2021-07-27T06:05:37Z</time>
      </trkpt>
      <trkpt lat="45.90619" lon="3.05706">
        <ele>452</ele>
        <time>2021-07-27T06:05:38Z</time>
      </trkpt>
      <trkpt lat="45.90619" lon="3.05704">
        <ele>452</ele>
        <time>2021-07-27T06:05:39Z</time>
      </trkpt>
      <trkpt lat="45.9062" lon="3.05702">
        <ele>452</ele>
        <time>2021-07-27T06:05:40Z</time>
      </trkpt>
      <trkpt lat="45.9062" lon="3.057">
        <ele>452</ele>
        <time>2021-07-27T06:05:41Z</time>
      </trkpt>
      <trkpt lat="45.90621" lon="3.05698">
        <ele>452</ele>
        <time>2021-07-27T06:05:42Z</time>
      </trkpt>
      <trkpt lat="45.90622" lon="3.05696">
        <ele>452</ele>
        <time>2021-07-27T06:05:43Z</time>
      </trkpt>
      <trkpt lat="45.90623" lon="3.05694">
        <ele>452</ele>
        <time>2021-07-27T06:05:44Z</time>
      </trkpt>
      <trkpt lat="45.90624" lon="3.05692">
        <ele>452</ele>
        <time>2021-07-27T06:05:45Z</time>
      </trkpt>
      <trkpt lat="45.90625" lon="3.0569">
        <ele>452</ele>
        <time>2021-07-27T06:05:46Z</time>
      </trkpt>
      <trkpt lat="45.90626" lon="3.05688">
        <ele>452</ele>
        <time>2021-07-27T06:05:47Z</time>
      </trkpt>
      <trkpt lat="45.90627" lon="3.05686">
        <ele>452</ele>
        <time>2021-07-27T06:05:48Z</time>
      </trkpt>
      <trkpt lat="45.90627" lon="3.05684">
        <ele>452</ele>
        <time>2021-07-27T06:05:49Z</time>
      </trkpt>
      <trkpt lat="45.90628" lon="3.05682">
        <ele>452</ele>
        <time>2021-07-27T06:05:50Z</time>
      </trkpt>
      <trkpt lat="45.90629" lon="3.05681">
        <ele>452</ele>
        <time>2021-07-27T06:05:51Z</time>
      </trkpt>
      <trkpt lat="45.9063" lon="3.05679">
        <ele>452</ele>
        <time>2021-07-27T06:05:52Z</time>
      </trkpt>
      <trkpt lat="45.90631" lon="3.05677">
        <ele>452</ele>
        <time>2021-07-27T06:05:53Z</time>
      </trkpt>
      <trkpt lat="45.90632" lon="3.05676">
        <ele>452</ele>
        <time>2021-07-27T06:05:54Z</time>
      </trkpt>
      <trkpt lat="45.90633" lon="3.05674">
        <ele>452</ele>
        <time>2021-07-27T06:05:55Z</time>
      </trkpt>
      <trkpt lat="45.90633" lon="3.05673">
        <ele>452</ele>
        <time>2021-07-27T06:05:56Z</time>
      </trkpt>
      <trkpt lat="45.90633" lon="3.05671">
        <ele>452</ele>
        <time>2021-07-27T06:05:57Z</time>
      </trkpt>
      <trkpt lat="45.90633" lon="3.05669">
        <ele>452</ele>
        <time>2021-07-27T06:05:58Z</time>
      </trkpt>
      <trkpt lat="45.90633" lon="3.05667">
        <ele>452</ele>
        <time>2021-07-27T06:06:00Z</time>
      </trkpt>
      <trkpt lat="45.90634" lon="3.05658">
        <ele>452</ele>
        <time>2021-07-27T06:06:01Z</time>
      </trkpt>
      <trkpt lat="45.90634" lon="3.05657">
        <ele>452</ele>
        <time>2021-07-27T06:06:02Z</time>
      </trkpt>
      <trkpt lat="45.90634" lon="3.05656">
        <ele>452</ele>
        <time>2021-07-27T06:06:03Z</time>
      </trkpt>
      <trkpt lat="45.90634" lon="3.05654">
        <ele>452</ele>
        <time>2021-07-27T06:06:04Z</time>
      </trkpt>
      <trkpt lat="45.90634" lon="3.05652">
        <ele>452</ele>
        <time>2021-07-27T06:06:05Z</time>
      </trkpt>
      <trkpt lat="45.90634" lon="3.0565">
        <ele>452</ele>
        <time>2021-07-27T06:06:06Z</time>
      </trkpt>
      <trkpt lat="45.90635" lon="3.05648">
        <ele>452</ele>
        <time>2021-07-27T06:06:07Z</time>
      </trkpt>
      <trkpt lat="45.90635" lon="3.05646">
        <ele>452</ele>
        <time>2021-07-27T06:06:08Z</time>
      </trkpt>
      <trkpt lat="45.90635" lon="3.05643">
        <ele>452</ele>
        <time>2021-07-27T06:06:09Z</time>
      </trkpt>
      <trkpt lat="45.90635" lon="3.05641">
        <ele>452</ele>
        <time>2021-07-27T06:06:10Z</time>
      </trkpt>
      <trkpt lat="45.90635" lon="3.05639">
        <ele>452</ele>
        <time>2021-07-27T06:06:11Z</time>
      </trkpt>
      <trkpt lat="45.90636" lon="3.05637">
        <ele>452</ele>
        <time>2021-07-27T06:06:12Z</time>
      </trkpt>
      <trkpt lat="45.90636" lon="3.05635">
        <ele>452</ele>
        <time>2021-07-27T06:06:13Z</time>
      </trkpt>
      <trkpt lat="45.90636" lon="3.05632">
        <ele>452</ele>
        <time>2021-07-27T06:06:14Z</time>
      </trkpt>
      <trkpt lat="45.90636" lon="3.05629">
        <ele>452</ele>
        <time>2021-07-27T06:06:15Z</time>
      </trkpt>
      <trkpt lat="45.90637" lon="3.05627">
        <ele>452</ele>
        <time>2021-07-27T06:06:16Z</time>
      </trkpt>
      <trkpt lat="45.90637" lon="3.05625">
        <ele>452</ele>
        <time>2021-07-27T06:06:17Z</time>
      </trkpt>
      <trkpt lat="45.90638" lon="3.05623">
        <ele>452</ele>
        <time>2021-07-27T06:06:18Z</time>
      </trkpt>
      <trkpt lat="45.90638" lon="3.05621">
        <ele>452</ele>
        <time>2021-07-27T06:06:19Z</time>
      </trkpt>
      <trkpt lat="45.90639" lon="3.05619">
        <ele>452</ele>
        <time>2021-07-27T06:06:20Z</time>
      </trkpt>
      <trkpt lat="45.90639" lon="3.05618">
        <ele>452</ele>
        <time>2021-07-27T06:06:21Z</time>
      </trkpt>
      <trkpt lat="45.9064" lon="3.05616">
        <ele>452</ele>
        <time>2021-07-27T06:06:22Z</time>
      </trkpt>
      <trkpt lat="45.9064" lon="3.05615">
        <ele>452</ele>
        <time>2021-07-27T06:06:23Z</time>
      </trkpt>
      <trkpt lat="45.90641" lon="3.05613">
        <ele>452</ele>
        <time>2021-07-27T06:06:24Z</time>
      </trkpt>
      <trkpt lat="45.90641" lon="3.05611">
        <ele>452</ele>
        <time>2021-07-27T06:06:25Z</time>
      </trkpt>
      <trkpt lat="45.90642" lon="3.0561">
        <ele>452</ele>
        <time>2021-07-27T06:06:26Z</time>
      </trkpt>
      <trkpt lat="45.90642" lon="3.05608">
        <ele>452</ele>
        <time>2021-07-27T06:06:27Z</time>
      </trkpt>
      <trkpt lat="45.90643" lon="3.05606">
        <ele>452</ele>
        <time>2021-07-27T06:06:28Z</time>
      </trkpt>
      <trkpt lat="45.90644" lon="3.05604">
        <ele>452</ele>
        <time>2021-07-27T06:06:29Z</time>
      </trkpt>
      <trkpt lat="45.90645" lon="3.05601">
        <ele>452</ele>
        <time>2021-07-27T06:06:30Z</time>
      </trkpt>
      <trkpt lat="45.90646" lon="3.05599">
        <ele>452</ele>
        <time>2021-07-27T06:06:31Z</time>
      </trkpt>
      <trkpt lat="45.90647" lon="3.05597">
        <ele>452</ele>
        <time>2021-07-27T06:06:32Z</time>
      </trkpt>
      <trkpt lat="45.90648" lon="3.05595">
        <ele>452</ele>
        <time>2021-07-27T06:06:33Z</time>
      </trkpt>
      <trkpt lat="45.90649" lon="3.05593">
        <ele>452</ele>
        <time>2021-07-27T06:06:34Z</time>
      </trkpt>
      <trkpt lat="45.9065" lon="3.05592">
        <ele>452</ele>
        <time>2021-07-27T06:06:35Z</time>
      </trkpt>
      <trkpt lat="45.90651" lon="3.0559">
        <ele>452</ele>
        <time>2021-07-27T06:06:36Z</time>
      </trkpt>
      <trkpt lat="45.90652" lon="3.05588">
        <ele>452</ele>
        <time>2021-07-27T06:06:37Z</time>
      </trkpt>
      <trkpt lat="45.90653" lon="3.05587">
        <ele>452</ele>
        <time>2021-07-27T06:06:38Z</time>
      </trkpt>
      <trkpt lat="45.90654" lon="3.05585">
        <ele>452</ele>
        <time>2021-07-27T06:06:39Z</time>
      </trkpt>
      <trkpt lat="45.90656" lon="3.05584">
        <ele>452</ele>
        <time>2021-07-27T06:06:40Z</time>
      </trkpt>
      <trkpt lat="45.90657" lon="3.05582">
        <ele>452</ele>
        <time>2021-07-27T06:06:41Z</time>
      </trkpt>
      <trkpt lat="45.90657" lon="3.0558">
        <ele>452</ele>
        <time>2021-07-27T06:06:42Z</time>
      </trkpt>
      <trkpt lat="45.90658" lon="3.05579">
        <ele>452</ele>
        <time>2021-07-27T06:06:43Z</time>
      </trkpt>
      <trkpt lat="45.90659" lon="3.05577">
        <ele>452</ele>
        <time>2021-07-27T06:06:44Z</time>
      </trkpt>
      <trkpt lat="45.9066" lon="3.05575">
        <ele>452</ele>
        <time>2021-07-27T06:06:45Z</time>
      </trkpt>
      <trkpt lat="45.9066" lon="3.05574">
        <ele>452</ele>
        <time>2021-07-27T06:06:46Z</time>
      </trkpt>
      <trkpt lat="45.90661" lon="3.05572">
        <ele>452</ele>
        <time>2021-07-27T06:06:47Z</time>
      </trkpt>
      <trkpt lat="45.90662" lon="3.05571">
        <ele>452</ele>
        <time>2021-07-27T06:06:48Z</time>
      </trkpt>
      <trkpt lat="45.90663" lon="3.0557">
        <ele>452</ele>
        <time>2021-07-27T06:06:49Z</time>
      </trkpt>
      <trkpt lat="45.90664" lon="3.05569">
        <ele>452</ele>
        <time>2021-07-27T06:06:50Z</time>
      </trkpt>
      <trkpt lat="45.90665" lon="3.05568">
        <ele>452</ele>
        <time>2021-07-27T06:06:51Z</time>
      </trkpt>
      <trkpt lat="45.90667" lon="3.05566">
        <ele>452</ele>
        <time>2021-07-27T06:06:52Z</time>
      </trkpt>
      <trkpt lat="45.90668" lon="3.05565">
        <ele>452</ele>
        <time>2021-07-27T06:06:53Z</time>
      </trkpt>
      <trkpt lat="45.90669" lon="3.05564">
        <ele>452</ele>
        <time>2021-07-27T06:06:54Z</time>
      </trkpt>
      <trkpt lat="45.9067" lon="3.05563">
        <ele>452</ele>
        <time>2021-07-27T06:06:55Z</time>
      </trkpt>
      <trkpt lat="45.90672" lon="3.05562">
        <ele>452</ele>
        <time>2021-07-27T06:06:56Z</time>
      </trkpt>
      <trkpt lat="45.90672" lon="3.05561">
        <ele>452</ele>
        <time>2021-07-27T06:06:57Z</time>
      </trkpt>
      <trkpt lat="45.90673" lon="3.0556">
        <ele>452</ele>
        <time>2021-07-27T06:06:58Z</time>
      </trkpt>
      <trkpt lat="45.90675" lon="3.05559">
        <ele>452</ele>
        <time>2021-07-27T06:06:59Z</time>
      </trkpt>
      <trkpt lat="45.90676" lon="3.05558">
        <ele>452</ele>
        <time>2021-07-27T06:07:01Z</time>
      </trkpt>
      <trkpt lat="45.90682" lon="3.05554">
        <ele>452</ele>
        <time>2021-07-27T06:07:02Z</time>
      </trkpt>
      <trkpt lat="45.90682" lon="3.05554">
        <ele>452</ele>
        <time>2021-07-27T06:07:03Z</time>
      </trkpt>
      <trkpt lat="45.90683" lon="3.05554">
        <ele>452</ele>
        <time>2021-07-27T06:07:04Z</time>
      </trkpt>
      <trkpt lat="45.90684" lon="3.05553">
        <ele>452</ele>
        <time>2021-07-27T06:07:05Z</time>
      </trkpt>
      <trkpt lat="45.90685" lon="3.05553">
        <ele>452</ele>
        <time>2021-07-27T06:07:06Z</time>
      </trkpt>
      <trkpt lat="45.90686" lon="3.05552">
        <ele>452</ele>
        <time>2021-07-27T06:07:07Z</time>
      </trkpt>
      <trkpt lat="45.90687" lon="3.05552">
        <ele>452</ele>
        <time>2021-07-27T06:07:08Z</time>
      </trkpt>
      <trkpt lat="45.90689" lon="3.05551">
        <ele>452</ele>
        <time>2021-07-27T06:07:09Z</time>
      </trkpt>
      <trkpt lat="45.9069" lon="3.0555">
        <ele>452</ele>
        <time>2021-07-27T06:07:10Z</time>
      </trkpt>
      <trkpt lat="45.90691" lon="3.0555">
        <ele>452</ele>
        <time>2021-07-27T06:07:11Z</time>
      </trkpt>
      <trkpt lat="45.90693" lon="3.05549">
        <ele>452</ele>
        <time>2021-07-27T06:07:12Z</time>
      </trkpt>
      <trkpt lat="45.90693" lon="3.05549">
        <ele>452</ele>
        <time>2021-07-27T06:07:13Z</time>
      </trkpt>
      <trkpt lat="45.90695" lon="3.05548">
        <ele>452</ele>
        <time>2021-07-27T06:07:14Z</time>
      </trkpt>
      <trkpt lat="45.90696" lon="3.05548">
        <ele>452</ele>
        <time>2021-07-27T06:07:15Z</time>
      </trkpt>
      <trkpt lat="45.90698" lon="3.05548">
        <ele>452</ele>
        <time>2021-07-27T06:07:16Z</time>
      </trkpt>
      <trkpt lat="45.90699" lon="3.05548">
        <ele>452</ele>
        <time>2021-07-27T06:07:17Z</time>
      </trkpt>
      <trkpt lat="45.90701" lon="3.05548">
        <ele>452</ele>
        <time>2021-07-27T06:07:17Z</time>
      </trkpt>
      <trkpt lat="45.90702" lon="3.05547">
        <ele>452</ele>
        <time>2021-07-27T06:07:18Z</time>
      </trkpt>
      <trkpt lat="45.90704" lon="3.05547">
        <ele>452</ele>
        <time>2021-07-27T06:07:19Z</time>
      </trkpt>
      <trkpt lat="45.90705" lon="3.05547">
        <ele>452</ele>
        <time>2021-07-27T06:07:20Z</time>
      </trkpt>
      <trkpt lat="45.90707" lon="3.05547">
        <ele>452</ele>
        <time>2021-07-27T06:07:21Z</time>
      </trkpt>
      <trkpt lat="45.90708" lon="3.05547">
        <ele>452</ele>
        <time>2021-07-27T06:07:22Z</time>
      </trkpt>
      <trkpt lat="45.9071" lon="3.05547">
        <ele>452</ele>
        <time>2021-07-27T06:07:23Z</time>
      </trkpt>
      <trkpt lat="45.90712" lon="3.05547">
        <ele>452</ele>
        <time>2021-07-27T06:07:24Z</time>
      </trkpt>
      <trkpt lat="45.90714" lon="3.05547">
        <ele>452</ele>
        <time>2021-07-27T06:07:25Z</time>
      </trkpt>
      <trkpt lat="45.90715" lon="3.05547">
        <ele>452</ele>
        <time>2021-07-27T06:07:26Z</time>
      </trkpt>
      <trkpt lat="45.90717" lon="3.05547">
        <ele>452</ele>
        <time>2021-07-27T06:07:27Z</time>
      </trkpt>
      <trkpt lat="45.90718" lon="3.05547">
        <ele>452</ele>
        <time>2021-07-27T06:07:28Z</time>
      </trkpt>
      <trkpt lat="45.9072" lon="3.05547">
        <ele>452</ele>
        <time>2021-07-27T06:07:29Z</time>
      </trkpt>
      <trkpt lat="45.90721" lon="3.05547">
        <ele>452</ele>
        <time>2021-07-27T06:07:30Z</time>
      </trkpt>
      <trkpt lat="45.90722" lon="3.05548">
        <ele>452</ele>
        <time>2021-07-27T06:07:31Z</time>
      </trkpt>
      <trkpt lat="45.90723" lon="3.05548">
        <ele>452</ele>
        <time>2021-07-27T06:07:32Z</time>
      </trkpt>
      <trkpt lat="45.90725" lon="3.05548">
        <ele>452</ele>
        <time>2021-07-27T06:07:33Z</time>
      </trkpt>
      <trkpt lat="45.90726" lon="3.05549">
        <ele>452</ele>
        <time>2021-07-27T06:07:34Z</time>
      </trkpt>
      <trkpt lat="45.90727" lon="3.05549">
        <ele>452</ele>
        <time>2021-07-27T06:07:35Z</time>
      </trkpt>
      <trkpt lat="45.90728" lon="3.05549">
        <ele>452</ele>
        <time>2021-07-27T06:07:36Z</time>
      </trkpt>
      <trkpt lat="45.90729" lon="3.05549">
        <ele>452</ele>
        <time>2021-07-27T06:07:37Z</time>
      </trkpt>
      <trkpt lat="45.90731" lon="3.05549">
        <ele>452</ele>
        <time>2021-07-27T06:07:38Z</time>
      </trkpt>
      <trkpt lat="45.90732" lon="3.05549">
        <ele>452</ele>
        <time>2021-07-27T06:07:39Z</time>
      </trkpt>
      <trkpt lat="45.90734" lon="3.05548">
        <ele>452</ele>
        <time>2021-07-27T06:07:40Z</time>
      </trkpt>
      <trkpt lat="45.90735" lon="3.05548">
        <ele>452</ele>
        <time>2021-07-27T06:07:41Z</time>
      </trkpt>
      <trkpt lat="45.90736" lon="3.05548">
        <ele>452</ele>
        <time>2021-07-27T06:07:42Z</time>
      </trkpt>
      <trkpt lat="45.90738" lon="3.05547">
        <ele>452</ele>
        <time>2021-07-27T06:07:43Z</time>
      </trkpt>
      <trkpt lat="45.90739" lon="3.05547">
        <ele>452</ele>
        <time>2021-07-27T06:07:44Z</time>
      </trkpt>
      <trkpt lat="45.9074" lon="3.05547">
        <ele>452</ele>
        <time>2021-07-27T06:07:45Z</time>
      </trkpt>
      <trkpt lat="45.90741" lon="3.05547">
        <ele>452</ele>
        <time>2021-07-27T06:07:46Z</time>
      </trkpt>
      <trkpt lat="45.90743" lon="3.05546">
        <ele>452</ele>
        <time>2021-07-27T06:07:47Z</time>
      </trkpt>
      <trkpt lat="45.90744" lon="3.05546">
        <ele>452</ele>
        <time>2021-07-27T06:07:48Z</time>
      </trkpt>
      <trkpt lat="45.90746" lon="3.05545">
        <ele>452</ele>
        <time>2021-07-27T06:07:49Z</time>
      </trkpt>
      <trkpt lat="45.90747" lon="3.05545">
        <ele>452</ele>
        <time>2021-07-27T06:07:50Z</time>
      </trkpt>
      <trkpt lat="45.90748" lon="3.05545">
        <ele>452</ele>
        <time>2021-07-27T06:07:51Z</time>
      </trkpt>
      <trkpt lat="45.90749" lon="3.05545">
        <ele>452</ele>
        <time>2021-07-27T06:07:52Z</time>
      </trkpt>
      <trkpt lat="45.90751" lon="3.05544">
        <ele>452</ele>
        <time>2021-07-27T06:07:53Z</time>
      </trkpt>
      <trkpt lat="45.90752" lon="3.05544">
        <ele>452</ele>
        <time>2021-07-27T06:07:54Z</time>
      </trkpt>
      <trkpt lat="45.90754" lon="3.05544">
        <ele>452</ele>
        <time>2021-07-27T06:07:55Z</time>
      </trkpt>
      <trkpt lat="45.90756" lon="3.05543">
        <ele>452</ele>
        <time>2021-07-27T06:07:56Z</time>
      </trkpt>
      <trkpt lat="45.90756" lon="3.05543">
        <ele>452</ele>
        <time>2021-07-27T06:07:57Z</time>
      </trkpt>
      <trkpt lat="45.90758" lon="3.05543">
        <ele>452</ele>
        <time>2021-07-27T06:07:58Z</time>
      </trkpt>
      <trkpt lat="45.90759" lon="3.05542">
        <ele>452</ele>
        <time>2021-07-27T06:08:00Z</time>
      </trkpt>
      <trkpt lat="45.90767" lon="3.05544">
        <ele>452</ele>
        <time>2021-07-27T06:08:01Z</time>
      </trkpt>
      <trkpt lat="45.90767" lon="3.05544">
        <ele>452</ele>
        <time>2021-07-27T06:08:02Z</time>
      </trkpt>
      <trkpt lat="45.90767" lon="3.05544">
        <ele>452</ele>
        <time>2021-07-27T06:08:03Z</time>
      </trkpt>
      <trkpt lat="45.90768" lon="3.05544">
        <ele>452</ele>
        <time>2021-07-27T06:08:04Z</time>
      </trkpt>
      <trkpt lat="45.90769" lon="3.05544">
        <ele>452</ele>
        <time>2021-07-27T06:08:05Z</time>
      </trkpt>
      <trkpt lat="45.90771" lon="3.05543">
        <ele>452</ele>
        <time>2021-07-27T06:08:06Z</time>
      </trkpt>
      <trkpt lat="45.90772" lon="3.05543">
        <ele>452</ele>
        <time>2021-07-27T06:08:07Z</time>
      </trkpt>
      <trkpt lat="45.90774" lon="3.05543">
        <ele>452</ele>
        <time>2021-07-27T06:08:08Z</time>
      </trkpt>
      <trkpt lat="45.90775" lon="3.05542">
        <ele>452</ele>
        <time>2021-07-27T06:08:09Z</time>
      </trkpt>
      <trkpt lat="45.90777" lon="3.05542">
        <ele>452</ele>
        <time>2021-07-27T06:08:10Z</time>
      </trkpt>
      <trkpt lat="45.90778" lon="3.05541">
        <ele>452</ele>
        <time>2021-07-27T06:08:11Z</time>
      </trkpt>
      <trkpt lat="45.9078" lon="3.05541">
        <ele>452</ele>
        <time>2021-07-27T06:08:12Z</time>
      </trkpt>
      <trkpt lat="45.90781" lon="3.05541">
        <ele>452</ele>
        <time>2021-07-27T06:08:13Z</time>
      </trkpt>
      <trkpt lat="45.90783" lon="3.0554">
        <ele>452</ele>
        <time>2021-07-27T06:08:14Z</time>
      </trkpt>
      <trkpt lat="45.90784" lon="3.0554">
        <ele>452</ele>
        <time>2021-07-27T06:08:15Z</time>
      </trkpt>
      <trkpt lat="45.90786" lon="3.0554">
        <ele>452</ele>
        <time>2021-07-27T06:08:16Z</time>
      </trkpt>
      <trkpt lat="45.90787" lon="3.05539">
        <ele>452</ele>
        <time>2021-07-27T06:08:17Z</time>
      </trkpt>
      <trkpt lat="45.90789" lon="3.05539">
        <ele>452</ele>
        <time>2021-07-27T06:08:18Z</time>
      </trkpt>
      <trkpt lat="45.9079" lon="3.05539">
        <ele>452</ele>
        <time>2021-07-27T06:08:19Z</time>
      </trkpt>
      <trkpt lat="45.90791" lon="3.05538">
        <ele>452</ele>
        <time>2021-07-27T06:08:20Z</time>
      </trkpt>
      <trkpt lat="45.90792" lon="3.05538">
        <ele>452</ele>
        <time>2021-07-27T06:08:21Z</time>
      </trkpt>
      <trkpt lat="45.90793" lon="3.05539">
        <ele>452</ele>
        <time>2021-07-27T06:08:22Z</time>
      </trkpt>
      <trkpt lat="45.90793" lon="3.05539">
        <ele>452</ele>
        <time>2021-07-27T06:08:23Z</time>
      </trkpt>
      <trkpt lat="45.90794" lon="3.0554">
        <ele>452</ele>
        <time>2021-07-27T06:08:24Z</time>
      </trkpt>
      <trkpt lat="45.90795" lon="3.05541">
        <ele>452</ele>
        <time>2021-07-27T06:08:25Z</time>
      </trkpt>
      <trkpt lat="45.90796" lon="3.05541">
        <ele>452</ele>
        <time>2021-07-27T06:08:26Z</time>
      </trkpt>
      <trkpt lat="45.90797" lon="3.05541">
        <ele>452</ele>
        <time>2021-07-27T06:08:27Z</time>
      </trkpt>
      <trkpt lat="45.90797" lon="3.05541">
        <ele>452</ele>
        <time>2021-07-27T06:08:28Z</time>
      </trkpt>
      <trkpt lat="45.90798" lon="3.05541">
        <ele>452</ele>
        <time>2021-07-27T06:08:29Z</time>
      </trkpt>
      <trkpt lat="45.90799" lon="3.0554">
        <ele>452</ele>
        <time>2021-07-27T06:08:30Z</time>
      </trkpt>
      <trkpt lat="45.908" lon="3.0554">
        <ele>452</ele>
        <time>2021-07-27T06:08:31Z</time>
      </trkpt>
      <trkpt lat="45.90801" lon="3.05539">
        <ele>452</ele>
        <time>2021-07-27T06:08:32Z</time>
      </trkpt>
      <trkpt lat="45.90802" lon="3.05538">
        <ele>452</ele>
        <time>2021-07-27T06:08:33Z</time>
      </trkpt>
      <trkpt lat="45.90803" lon="3.05536">
        <ele>452</ele>
        <time>2021-07-27T06:08:34Z</time>
      </trkpt>
      <trkpt lat="45.90804" lon="3.05535">
        <ele>452</ele>
        <time>2021-07-27T06:08:35Z</time>
      </trkpt>
      <trkpt lat="45.90804" lon="3.05533">
        <ele>452</ele>
        <time>2021-07-27T06:08:36Z</time>
      </trkpt>
      <trkpt lat="45.90805" lon="3.05532">
        <ele>452</ele>
        <time>2021-07-27T06:08:37Z</time>
      </trkpt>
      <trkpt lat="45.90806" lon="3.0553">
        <ele>452</ele>
        <time>2021-07-27T06:08:38Z</time>
      </trkpt>
      <trkpt lat="45.90807" lon="3.05529">
        <ele>452</ele>
        <time>2021-07-27T06:08:39Z</time>
      </trkpt>
      <trkpt lat="45.90808" lon="3.05527">
        <ele>452</ele>
        <time>2021-07-27T06:08:40Z</time>
      </trkpt>
      <trkpt lat="45.90808" lon="3.05526">
        <ele>452</ele>
        <time>2021-07-27T06:08:41Z</time>
      </trkpt>
      <trkpt lat="45.90809" lon="3.05524">
        <ele>452</ele>
        <time>2021-07-27T06:08:42Z</time>
      </trkpt>
      <trkpt lat="45.9081" lon="3.05523">
        <ele>452</ele>
        <time>2021-07-27T06:08:43Z</time>
      </trkpt>
      <trkpt lat="45.90811" lon="3.05522">
        <ele>452</ele>
        <time>2021-07-27T06:08:44Z</time>
      </trkpt>
      <trkpt lat="45.90812" lon="3.05521">
        <ele>452</ele>
        <time>2021-07-27T06:08:45Z</time>
      </trkpt>
      <trkpt lat="45.90813" lon="3.0552">
        <ele>452</ele>
        <time>2021-07-27T06:08:46Z</time>
      </trkpt>
      <trkpt lat="45.90814" lon="3.05519">
        <ele>452</ele>
        <time>2021-07-27T06:08:47Z</time>
      </trkpt>
      <trkpt lat="45.90815" lon="3.05518">
        <ele>452</ele>
        <time>2021-07-27T06:08:48Z</time>
      </trkpt>
      <trkpt lat="45.90817" lon="3.05518">
        <ele>452</ele>
        <time>2021-07-27T06:08:49Z</time>
      </trkpt>
      <trkpt lat="45.90818" lon="3.05518">
        <ele>452</ele>
        <time>2021-07-27T06:08:50Z</time>
      </trkpt>
      <trkpt lat="45.9082" lon="3.05518">
        <ele>452</ele>
        <time>2021-07-27T06:08:51Z</time>
      </trkpt>
      <trkpt lat="45.90822" lon="3.05518">
        <ele>452</ele>
        <time>2021-07-27T06:08:52Z</time>
      </trkpt>
      <trkpt lat="45.90823" lon="3.05518">
        <ele>452</ele>
        <time>2021-07-27T06:08:53Z</time>
      </trkpt>
      <trkpt lat="45.90825" lon="3.05517">
        <ele>452</ele>
        <time>2021-07-27T06:08:54Z</time>
      </trkpt>
      <trkpt lat="45.90826" lon="3.05517">
        <ele>452</ele>
        <time>2021-07-27T06:08:55Z</time>
      </trkpt>
      <trkpt lat="45.90827" lon="3.05517">
        <ele>452</ele>
        <time>2021-07-27T06:08:56Z</time>
      </trkpt>
      <trkpt lat="45.90829" lon="3.05517">
        <ele>452</ele>
        <time>2021-07-27T06:08:57Z</time>
      </trkpt>
      <trkpt lat="45.9083" lon="3.05517">
        <ele>452</ele>
        <time>2021-07-27T06:08:59Z</time>
      </trkpt>
      <trkpt lat="45.90836" lon="3.05519">
        <ele>452</ele>
        <time>2021-07-27T06:09:00Z</time>
      </trkpt>
      <trkpt lat="45.90836" lon="3.05519">
        <ele>452</ele>
        <time>2021-07-27T06:09:01Z</time>
      </trkpt>
      <trkpt lat="45.90837" lon="3.05519">
        <ele>452</ele>
        <time>2021-07-27T06:09:02Z</time>
      </trkpt>
      <trkpt lat="45.90838" lon="3.0552">
        <ele>452</ele>
        <time>2021-07-27T06:09:03Z</time>
      </trkpt>
      <trkpt lat="45.90839" lon="3.05521">
        <ele>452</ele>
        <time>2021-07-27T06:09:04Z</time>
      </trkpt>
      <trkpt lat="45.9084" lon="3.05522">
        <ele>452</ele>
        <time>2021-07-27T06:09:05Z</time>
      </trkpt>
      <trkpt lat="45.90841" lon="3.05523">
        <ele>452</ele>
        <time>2021-07-27T06:09:06Z</time>
      </trkpt>
      <trkpt lat="45.90842" lon="3.05523">
        <ele>452</ele>
        <time>2021-07-27T06:09:07Z</time>
      </trkpt>
      <trkpt lat="45.90844" lon="3.05524">
        <ele>452</ele>
        <time>2021-07-27T06:09:08Z</time>
      </trkpt>
      <trkpt lat="45.90846" lon="3.05524">
        <ele>452</ele>
        <time>2021-07-27T06:09:09Z</time>
      </trkpt>
      <trkpt lat="45.90847" lon="3.05524">
        <ele>452</ele>
        <time>2021-07-27T06:09:10Z</time>
      </trkpt>
      <trkpt lat="45.90848" lon="3.05525">
        <ele>452</ele>
        <time>2021-07-27T06:09:11Z</time>
      </trkpt>
      <trkpt lat="45.90849" lon="3.05524">
        <ele>452</ele>
        <time>2021-07-27T06:09:12Z</time>
      </trkpt>
      <trkpt lat="45.9085" lon="3.05524">
        <ele>452</ele>
        <time>2021-07-27T06:09:13Z</time>
      </trkpt>
      <trkpt lat="45.90852" lon="3.05524">
        <ele>452</ele>
        <time>2021-07-27T06:09:14Z</time>
      </trkpt>
      <trkpt lat="45.90853" lon="3.05524">
        <ele>452</ele>
        <time>2021-07-27T06:09:15Z</time>
      </trkpt>
      <trkpt lat="45.90854" lon="3.05523">
        <ele>452</ele>
        <time>2021-07-27T06:09:16Z</time>
      </trkpt>
      <trkpt lat="45.90856" lon="3.05523">
        <ele>452</ele>
        <time>2021-07-27T06:09:17Z</time>
      </trkpt>
      <trkpt lat="45.90857" lon="3.05523">
        <ele>452</ele>
        <time>2021-07-27T06:09:18Z</time>
      </trkpt>
      <trkpt lat="45.90859" lon="3.05523">
        <ele>452</ele>
        <time>2021-07-27T06:09:19Z</time>
      </trkpt>
      <trkpt lat="45.9086" lon="3.05523">
        <ele>452</ele>
        <time>2021-07-27T06:09:20Z</time>
      </trkpt>
      <trkpt lat="45.90862" lon="3.05523">
        <ele>452</ele>
        <time>2021-07-27T06:09:21Z</time>
      </trkpt>
      <trkpt lat="45.90863" lon="3.05523">
        <ele>452</ele>
        <time>2021-07-27T06:09:22Z</time>
      </trkpt>
      <trkpt lat="45.90865" lon="3.05524">
        <ele>452</ele>
        <time>2021-07-27T06:09:23Z</time>
      </trkpt>
      <trkpt lat="45.90865" lon="3.05524">
        <ele>452</ele>
        <time>2021-07-27T06:09:24Z</time>
      </trkpt>
      <trkpt lat="45.90867" lon="3.05525">
        <ele>452</ele>
        <time>2021-07-27T06:09:25Z</time>
      </trkpt>
      <trkpt lat="45.90868" lon="3.05525">
        <ele>452</ele>
        <time>2021-07-27T06:09:26Z</time>
      </trkpt>
      <trkpt lat="45.90868" lon="3.05526">
        <ele>452</ele>
        <time>2021-07-27T06:09:27Z</time>
      </trkpt>
      <trkpt lat="45.9087" lon="3.05526">
        <ele>452</ele>
        <time>2021-07-27T06:09:28Z</time>
      </trkpt>
      <trkpt lat="45.90871" lon="3.05526">
        <ele>452</ele>
        <time>2021-07-27T06:09:29Z</time>
      </trkpt>
      <trkpt lat="45.90871" lon="3.05526">
        <ele>452</ele>
        <time>2021-07-27T06:09:30Z</time>
      </trkpt>
      <trkpt lat="45.90873" lon="3.05526">
        <ele>452</ele>
        <time>2021-07-27T06:09:31Z</time>
      </trkpt>
      <trkpt lat="45.90875" lon="3.05527">
        <ele>452</ele>
        <time>2021-07-27T06:09:32Z</time>
      </trkpt>
      <trkpt lat="45.90877" lon="3.05527">
        <ele>452</ele>
        <time>2021-07-27T06:09:33Z</time>
      </trkpt>
      <trkpt lat="45.90878" lon="3.05528">
        <ele>452</ele>
        <time>2021-07-27T06:09:34Z</time>
      </trkpt>
      <trkpt lat="45.9088" lon="3.05528">
        <ele>452</ele>
        <time>2021-07-27T06:09:35Z</time>
      </trkpt>
      <trkpt lat="45.90881" lon="3.05528">
        <ele>452</ele>
        <time>2021-07-27T06:09:36Z</time>
      </trkpt>
      <trkpt lat="45.90883" lon="3.05529">
        <ele>452</ele>
        <time>2021-07-27T06:09:37Z</time>
      </trkpt>
      <trkpt lat="45.90884" lon="3.05529">
        <ele>452</ele>
        <time>2021-07-27T06:09:38Z</time>
      </trkpt>
      <trkpt lat="45.90886" lon="3.05529">
        <ele>452</ele>
        <time>2021-07-27T06:09:39Z</time>
      </trkpt>
      <trkpt lat="45.90888" lon="3.05529">
        <ele>452</ele>
        <time>2021-07-27T06:09:40Z</time>
      </trkpt>
      <trkpt lat="45.90889" lon="3.05529">
        <ele>452</ele>
        <time>2021-07-27T06:09:41Z</time>
      </trkpt>
      <trkpt lat="45.90891" lon="3.05529">
        <ele>452</ele>
        <time>2021-07-27T06:09:42Z</time>
      </trkpt>
      <trkpt lat="45.90892" lon="3.05528">
        <ele>452</ele>
        <time>2021-07-27T06:09:43Z</time>
      </trkpt>
      <trkpt lat="45.90893" lon="3.05528">
        <ele>452</ele>
        <time>2021-07-27T06:09:44Z</time>
      </trkpt>
      <trkpt lat="45.90895" lon="3.05528">
        <ele>452</ele>
        <time>2021-07-27T06:09:45Z</time>
      </trkpt>
      <trkpt lat="45.90896" lon="3.05527">
        <ele>452</ele>
        <time>2021-07-27T06:09:46Z</time>
      </trkpt>
      <trkpt lat="45.90897" lon="3.05527">
        <ele>452</ele>
        <time>2021-07-27T06:09:47Z</time>
      </trkpt>
      <trkpt lat="45.90898" lon="3.05527">
        <ele>452</ele>
        <time>2021-07-27T06:09:48Z</time>
      </trkpt>
      <trkpt lat="45.909" lon="3.05527">
        <ele>452</ele>
        <time>2021-07-27T06:09:49Z</time>
      </trkpt>
      <trkpt lat="45.90901" lon="3.05526">
        <ele>452</ele>
        <time>2021-07-27T06:09:50Z</time>
      </trkpt>
      <trkpt lat="45.90902" lon="3.05526">
        <ele>452</ele>
        <time>2021-07-27T06:09:51Z</time>
      </trkpt>
      <trkpt lat="45.90904" lon="3.05526">
        <ele>452</ele>
        <time>2021-07-27T06:09:52Z</time>
      </trkpt>
      <trkpt lat="45.90905" lon="3.05526">
        <ele>452</ele>
        <time>2021-07-27T06:09:53Z</time>
      </trkpt>
      <trkpt lat="45.90907" lon="3.05525">
        <ele>452</ele>
        <time>2021-07-27T06:09:54Z</time>
      </trkpt>
      <trkpt lat="45.90908" lon="3.05525">
        <ele>452</ele>
        <time>2021-07-27T06:09:55Z</time>
      </trkpt>
      <trkpt lat="45.9091" lon="3.05525">
        <ele>452</ele>
        <time>2021-07-27T06:09:56Z</time>
      </trkpt>
      <trkpt lat="45.90911" lon="3.05525">
        <ele>452</ele>
        <time>2021-07-27T06:09:58Z</time>
      </trkpt>
      <trkpt lat="45.90917" lon="3.05524">
        <ele>452</ele>
        <time>2021-07-27T06:10:00Z</time>
      </trkpt>
      <trkpt lat="45.9092" lon="3.05522">
        <ele>452</ele>
        <time>2021-07-27T06:10:01Z</time>
      </trkpt>
      <trkpt lat="45.9092" lon="3.05522">
        <ele>452</ele>
        <time>2021-07-27T06:10:02Z</time>
      </trkpt>
      <trkpt lat="45.90921" lon="3.05522">
        <ele>452</ele>
        <time>2021-07-27T06:10:03Z</time>
      </trkpt>
      <trkpt lat="45.90922" lon="3.05522">
        <ele>452</ele>
        <time>2021-07-27T06:10:04Z</time>
      </trkpt>
      <trkpt lat="45.90923" lon="3.05522">
        <ele>452</ele>
        <time>2021-07-27T06:10:05Z</time>
      </trkpt>
      <trkpt lat="45.90925" lon="3.05521">
        <ele>452</ele>
        <time>2021-07-27T06:10:06Z</time>
      </trkpt>
      <trkpt lat="45.90926" lon="3.05521">
        <ele>452</ele>
        <time>2021-07-27T06:10:07Z</time>
      </trkpt>
      <trkpt lat="45.90928" lon="3.0552">
        <ele>452</ele>
        <time>2021-07-27T06:10:08Z</time>
      </trkpt>
      <trkpt lat="45.90928" lon="3.05519">
        <ele>452</ele>
        <time>2021-07-27T06:10:09Z</time>
      </trkpt>
      <trkpt lat="45.9093" lon="3.05519">
        <ele>452</ele>
        <time>2021-07-27T06:10:10Z</time>
      </trkpt>
      <trkpt lat="45.90931" lon="3.05518">
        <ele>452</ele>
        <time>2021-07-27T06:10:11Z</time>
      </trkpt>
      <trkpt lat="45.90933" lon="3.05517">
        <ele>452</ele>
        <time>2021-07-27T06:10:12Z</time>
      </trkpt>
      <trkpt lat="45.90934" lon="3.05516">
        <ele>452</ele>
        <time>2021-07-27T06:10:13Z</time>
      </trkpt>
      <trkpt lat="45.90936" lon="3.05515">
        <ele>452</ele>
        <time>2021-07-27T06:10:14Z</time>
      </trkpt>
      <trkpt lat="45.90937" lon="3.05513">
        <ele>452</ele>
        <time>2021-07-27T06:10:15Z</time>
      </trkpt>
      <trkpt lat="45.90937" lon="3.05512">
        <ele>452</ele>
        <time>2021-07-27T06:10:16Z</time>
      </trkpt>
      <trkpt lat="45.90939" lon="3.05511">
        <ele>452</ele>
        <time>2021-07-27T06:10:17Z</time>
      </trkpt>
      <trkpt lat="45.9094" lon="3.0551">
        <ele>452</ele>
        <time>2021-07-27T06:10:18Z</time>
      </trkpt>
      <trkpt lat="45.90941" lon="3.05509">
        <ele>452</ele>
        <time>2021-07-27T06:10:19Z</time>
      </trkpt>
      <trkpt lat="45.90942" lon="3.05508">
        <ele>452</ele>
        <time>2021-07-27T06:10:20Z</time>
      </trkpt>
      <trkpt lat="45.90943" lon="3.05507">
        <ele>452</ele>
        <time>2021-07-27T06:10:21Z</time>
      </trkpt>
      <trkpt lat="45.90944" lon="3.05505">
        <ele>452</ele>
        <time>2021-07-27T06:10:22Z</time>
      </trkpt>
      <trkpt lat="45.90945" lon="3.05504">
        <ele>452</ele>
        <time>2021-07-27T06:10:23Z</time>
      </trkpt>
      <trkpt lat="45.90946" lon="3.05502">
        <ele>452</ele>
        <time>2021-07-27T06:10:24Z</time>
      </trkpt>
      <trkpt lat="45.90947" lon="3.05501">
        <ele>452</ele>
        <time>2021-07-27T06:10:25Z</time>
      </trkpt>
      <trkpt lat="45.90947" lon="3.055">
        <ele>452</ele>
        <time>2021-07-27T06:10:26Z</time>
      </trkpt>
      <trkpt lat="45.90948" lon="3.05498">
        <ele>452</ele>
        <time>2021-07-27T06:10:27Z</time>
      </trkpt>
      <trkpt lat="45.90949" lon="3.05497">
        <ele>452</ele>
        <time>2021-07-27T06:10:28Z</time>
      </trkpt>
      <trkpt lat="45.90949" lon="3.05495">
        <ele>452</ele>
        <time>2021-07-27T06:10:29Z</time>
      </trkpt>
      <trkpt lat="45.90949" lon="3.05493">
        <ele>452</ele>
        <time>2021-07-27T06:10:30Z</time>
      </trkpt>
      <trkpt lat="45.90949" lon="3.05491">
        <ele>452</ele>
        <time>2021-07-27T06:10:31Z</time>
      </trkpt>
      <trkpt lat="45.90949" lon="3.05489">
        <ele>452</ele>
        <time>2021-07-27T06:10:32Z</time>
      </trkpt>
      <trkpt lat="45.90949" lon="3.05488">
        <ele>452</ele>
        <time>2021-07-27T06:10:33Z</time>
      </trkpt>
      <trkpt lat="45.90949" lon="3.05486">
        <ele>452</ele>
        <time>2021-07-27T06:10:34Z</time>
      </trkpt>
      <trkpt lat="45.90949" lon="3.05484">
        <ele>452</ele>
        <time>2021-07-27T06:10:35Z</time>
      </trkpt>
      <trkpt lat="45.90949" lon="3.05482">
        <ele>452</ele>
        <time>2021-07-27T06:10:36Z</time>
      </trkpt>
      <trkpt lat="45.9095" lon="3.0548">
        <ele>452</ele>
        <time>2021-07-27T06:10:37Z</time>
      </trkpt>
      <trkpt lat="45.9095" lon="3.05478">
        <ele>452</ele>
        <time>2021-07-27T06:10:38Z</time>
      </trkpt>
      <trkpt lat="45.9095" lon="3.05476">
        <ele>452</ele>
        <time>2021-07-27T06:10:39Z</time>
      </trkpt>
      <trkpt lat="45.90951" lon="3.05474">
        <ele>452</ele>
        <time>2021-07-27T06:10:40Z</time>
      </trkpt>
      <trkpt lat="45.90951" lon="3.05472">
        <ele>452</ele>
        <time>2021-07-27T06:10:41Z</time>
      </trkpt>
      <trkpt lat="45.90952" lon="3.05471">
        <ele>452</ele>
        <time>2021-07-27T06:10:42Z</time>
      </trkpt>
      <trkpt lat="45.90952" lon="3.05469">
        <ele>452</ele>
        <time>2021-07-27T06:10:43Z</time>
      </trkpt>
      <trkpt lat="45.90952" lon="3.05467">
        <ele>452</ele>
        <time>2021-07-27T06:10:44Z</time>
      </trkpt>
      <trkpt lat="45.90953" lon="3.05466">
        <ele>452</ele>
        <time>2021-07-27T06:10:45Z</time>
      </trkpt>
      <trkpt lat="45.90954" lon="3.05464">
        <ele>452</ele>
        <time>2021-07-27T06:10:46Z</time>
      </trkpt>
      <trkpt lat="45.90955" lon="3.05463">
        <ele>452</ele>
        <time>2021-07-27T06:10:47Z</time>
      </trkpt>
      <trkpt lat="45.90955" lon="3.05461">
        <ele>452</ele>
        <time>2021-07-27T06:10:48Z</time>
      </trkpt>
      <trkpt lat="45.90955" lon="3.05459">
        <ele>452</ele>
        <time>2021-07-27T06:10:49Z</time>
      </trkpt>
      <trkpt lat="45.90956" lon="3.05457">
        <ele>452</ele>
        <time>2021-07-27T06:10:50Z</time>
      </trkpt>
      <trkpt lat="45.90956" lon="3.05455">
        <ele>452</ele>
        <time>2021-07-27T06:10:51Z</time>
      </trkpt>
      <trkpt lat="45.90956" lon="3.05454">
        <ele>452</ele>
        <time>2021-07-27T06:10:52Z</time>
      </trkpt>
      <trkpt lat="45.90956" lon="3.05453">
        <ele>452</ele>
        <time>2021-07-27T06:10:53Z</time>
      </trkpt>
      <trkpt lat="45.90956" lon="3.05452">
        <ele>452</ele>
        <time>2021-07-27T06:10:54Z</time>
      </trkpt>
      <trkpt lat="45.90957" lon="3.05451">
        <ele>452</ele>
        <time>2021-07-27T06:10:55Z</time>
      </trkpt>
      <trkpt lat="45.90957" lon="3.0545">
        <ele>452</ele>
        <time>2021-07-27T06:10:56Z</time>
      </trkpt>
      <trkpt lat="45.90957" lon="3.05449">
        <ele>452</ele>
        <time>2021-07-27T06:10:57Z</time>
      </trkpt>
      <trkpt lat="45.90957" lon="3.05448">
        <ele>452</ele>
        <time>2021-07-27T06:10:59Z</time>
      </trkpt>
      <trkpt lat="45.90958" lon="3.05444">
        <ele>452</ele>
        <time>2021-07-27T06:11:00Z</time>
      </trkpt>
      <trkpt lat="45.90958" lon="3.05443">
        <ele>452</ele>
        <time>2021-07-27T06:11:01Z</time>
      </trkpt>
      <trkpt lat="45.90958" lon="3.05443">
        <ele>452</ele>
        <time>2021-07-27T06:11:02Z</time>
      </trkpt>
      <trkpt lat="45.90958" lon="3.05442">
        <ele>452</ele>
        <time>2021-07-27T06:11:03Z</time>
      </trkpt>
      <trkpt lat="45.90959" lon="3.05441">
        <ele>452</ele>
        <time>2021-07-27T06:11:04Z</time>
      </trkpt>
      <trkpt lat="45.90959" lon="3.0544">
        <ele>452</ele>
        <time>2021-07-27T06:11:05Z</time>
      </trkpt>
      <trkpt lat="45.9096" lon="3.05438">
        <ele>452</ele>
        <time>2021-07-27T06:11:06Z</time>
      </trkpt>
      <trkpt lat="45.9096" lon="3.05437">
        <ele>452</ele>
        <time>2021-07-27T06:11:07Z</time>
      </trkpt>
      <trkpt lat="45.90961" lon="3.05436">
        <ele>452</ele>
        <time>2021-07-27T06:11:08Z</time>
      </trkpt>
      <trkpt lat="45.90961" lon="3.05435">
        <ele>452</ele>
        <time>2021-07-27T06:11:09Z</time>
      </trkpt>
      <trkpt lat="45.90962" lon="3.05434">
        <ele>452</ele>
        <time>2021-07-27T06:11:10Z</time>
      </trkpt>
      <trkpt lat="45.90962" lon="3.05432">
        <ele>452</ele>
        <time>2021-07-27T06:11:11Z</time>
      </trkpt>
      <trkpt lat="45.90962" lon="3.05432">
        <ele>452</ele>
        <time>2021-07-27T06:11:12Z</time>
      </trkpt>
      <trkpt lat="45.90963" lon="3.0543">
        <ele>452</ele>
        <time>2021-07-27T06:11:13Z</time>
      </trkpt>
      <trkpt lat="45.90963" lon="3.05429">
        <ele>452</ele>
        <time>2021-07-27T06:11:14Z</time>
      </trkpt>
      <trkpt lat="45.90963" lon="3.05427">
        <ele>452</ele>
        <time>2021-07-27T06:11:15Z</time>
      </trkpt>
      <trkpt lat="45.90964" lon="3.05426">
        <ele>452</ele>
        <time>2021-07-27T06:11:16Z</time>
      </trkpt>
      <trkpt lat="45.90964" lon="3.05424">
        <ele>452</ele>
        <time>2021-07-27T06:11:17Z</time>
      </trkpt>
      <trkpt lat="45.90965" lon="3.05423">
        <ele>452</ele>
        <time>2021-07-27T06:11:18Z</time>
      </trkpt>
      <trkpt lat="45.90966" lon="3.05421">
        <ele>452</ele>
        <time>2021-07-27T06:11:19Z</time>
      </trkpt>
      <trkpt lat="45.90966" lon="3.05419">
        <ele>452</ele>
        <time>2021-07-27T06:11:20Z</time>
      </trkpt>
      <trkpt lat="45.90966" lon="3.05418">
        <ele>452</ele>
        <time>2021-07-27T06:11:21Z</time>
      </trkpt>
      <trkpt lat="45.90966" lon="3.05417">
        <ele>452</ele>
        <time>2021-07-27T06:11:22Z</time>
      </trkpt>
      <trkpt lat="45.90966" lon="3.05416">
        <ele>452</ele>
        <time>2021-07-27T06:11:23Z</time>
      </trkpt>
      <trkpt lat="45.90966" lon="3.05415">
        <ele>452</ele>
        <time>2021-07-27T06:11:24Z</time>
      </trkpt>
      <trkpt lat="45.90966" lon="3.05414">
        <ele>452</ele>
        <time>2021-07-27T06:11:25Z</time>
      </trkpt>
      <trkpt lat="45.90965" lon="3.05413">
        <ele>452</ele>
        <time>2021-07-27T06:11:26Z</time>
      </trkpt>
      <trkpt lat="45.90965" lon="3.05412">
        <ele>452</ele>
        <time>2021-07-27T06:11:27Z</time>
      </trkpt>
      <trkpt lat="45.90964" lon="3.05411">
        <ele>452</ele>
        <time>2021-07-27T06:11:28Z</time>
      </trkpt>
      <trkpt lat="45.90964" lon="3.0541">
        <ele>452</ele>
        <time>2021-07-27T06:11:29Z</time>
      </trkpt>
      <trkpt lat="45.90963" lon="3.0541">
        <ele>452</ele>
        <time>2021-07-27T06:11:30Z</time>
      </trkpt>
      <trkpt lat="45.90963" lon="3.05409">
        <ele>452</ele>
        <time>2021-07-27T06:11:31Z</time>
      </trkpt>
      <trkpt lat="45.90963" lon="3.05409">
        <ele>452</ele>
        <time>2021-07-27T06:11:32Z</time>
      </trkpt>
      <trkpt lat="45.90962" lon="3.05409">
        <ele>452</ele>
        <time>2021-07-27T06:11:32Z</time>
      </trkpt>
      <trkpt lat="45.90962" lon="3.05409">
        <ele>452</ele>
        <time>2021-07-27T06:11:33Z</time>
      </trkpt>
      <trkpt lat="45.90961" lon="3.05409">
        <ele>452</ele>
        <time>2021-07-27T06:11:34Z</time>
      </trkpt>
      <trkpt lat="45.90961" lon="3.05408">
        <ele>452</ele>
        <time>2021-07-27T06:11:35Z</time>
      </trkpt>
      <trkpt lat="45.9096" lon="3.05408">
        <ele>452</ele>
        <time>2021-07-27T06:11:36Z</time>
      </trkpt>
      <trkpt lat="45.9096" lon="3.05408">
        <ele>452</ele>
        <time>2021-07-27T06:11:37Z</time>
      </trkpt>
      <trkpt lat="45.90959" lon="3.05407">
        <ele>452</ele>
        <time>2021-07-27T06:11:38Z</time>
      </trkpt>
      <trkpt lat="45.90958" lon="3.05406">
        <ele>452</ele>
        <time>2021-07-27T06:11:39Z</time>
      </trkpt>
      <trkpt lat="45.90958" lon="3.05406">
        <ele>452</ele>
        <time>2021-07-27T06:11:40Z</time>
      </trkpt>
      <trkpt lat="45.90958" lon="3.05405">
        <ele>452</ele>
        <time>2021-07-27T06:11:41Z</time>
      </trkpt>
      <trkpt lat="45.90958" lon="3.05405">
        <ele>452</ele>
        <time>2021-07-27T06:11:42Z</time>
      </trkpt>
      <trkpt lat="45.90958" lon="3.05404">
        <ele>452</ele>
        <time>2021-07-27T06:11:43Z</time>
      </trkpt>
      <trkpt lat="45.90957" lon="3.05403">
        <ele>452</ele>
        <time>2021-07-27T06:11:44Z</time>
      </trkpt>
      <trkpt lat="45.90957" lon="3.05403">
        <ele>452</ele>
        <time>2021-07-27T06:11:45Z</time>
      </trkpt>
      <trkpt lat="45.90957" lon="3.05402">
        <ele>452</ele>
        <time>2021-07-27T06:11:46Z</time>
      </trkpt>
      <trkpt lat="45.90957" lon="3.05401">
        <ele>452</ele>
        <time>2021-07-27T06:11:47Z</time>
      </trkpt>
      <trkpt lat="45.90958" lon="3.05399">
        <ele>452</ele>
        <time>2021-07-27T06:11:49Z</time>
      </trkpt>
      <trkpt lat="45.90958" lon="3.05399">
        <ele>452</ele>
        <time>2021-07-27T06:11:50Z</time>
      </trkpt>
      <trkpt lat="45.90958" lon="3.05399">
        <ele>452</ele>
        <time>2021-07-27T06:11:51Z</time>
      </trkpt>
      <trkpt lat="45.90958" lon="3.05398">
        <ele>452</ele>
        <time>2021-07-27T06:11:52Z</time>
      </trkpt>
      <trkpt lat="45.90958" lon="3.05398">
        <ele>452</ele>
        <time>2021-07-27T06:11:53Z</time>
      </trkpt>
      <trkpt lat="45.9096" lon="3.05397">
        <ele>452</ele>
        <time>2021-07-27T06:11:54Z</time>
      </trkpt>
      <trkpt lat="45.9096" lon="3.05397">
        <ele>452</ele>
        <time>2021-07-27T06:11:55Z</time>
      </trkpt>
      <trkpt lat="45.90961" lon="3.05396">
        <ele>452</ele>
        <time>2021-07-27T06:11:56Z</time>
      </trkpt>
      <trkpt lat="45.90962" lon="3.05396">
        <ele>452</ele>
        <time>2021-07-27T06:11:58Z</time>
      </trkpt>
      <trkpt lat="45.90965" lon="3.05396">
        <ele>452</ele>
        <time>2021-07-27T06:11:59Z</time>
      </trkpt>
      <trkpt lat="45.90965" lon="3.05396">
        <ele>452</ele>
        <time>2021-07-27T06:12:00Z</time>
      </trkpt>
      <trkpt lat="45.90965" lon="3.05396">
        <ele>452</ele>
        <time>2021-07-27T06:12:01Z</time>
      </trkpt>
      <trkpt lat="45.90966" lon="3.05396">
        <ele>452</ele>
        <time>2021-07-27T06:12:02Z</time>
      </trkpt>
      <trkpt lat="45.90967" lon="3.05396">
        <ele>452</ele>
        <time>2021-07-27T06:12:03Z</time>
      </trkpt>
      <trkpt lat="45.90968" lon="3.05396">
        <ele>452</ele>
        <time>2021-07-27T06:12:04Z</time>
      </trkpt>
      <trkpt lat="45.90969" lon="3.05396">
        <ele>452</ele>
        <time>2021-07-27T06:12:05Z</time>
      </trkpt>
      <trkpt lat="45.9097" lon="3.05397">
        <ele>452</ele>
        <time>2021-07-27T06:12:06Z</time>
      </trkpt>
      <trkpt lat="45.90972" lon="3.05397">
        <ele>452</ele>
        <time>2021-07-27T06:12:07Z</time>
      </trkpt>
      <trkpt lat="45.90973" lon="3.05397">
        <ele>452</ele>
        <time>2021-07-27T06:12:08Z</time>
      </trkpt>
      <trkpt lat="45.90975" lon="3.05397">
        <ele>452</ele>
        <time>2021-07-27T06:12:09Z</time>
      </trkpt>
      <trkpt lat="45.90977" lon="3.05397">
        <ele>452</ele>
        <time>2021-07-27T06:12:10Z</time>
      </trkpt>
      <trkpt lat="45.90979" lon="3.05396">
        <ele>452</ele>
        <time>2021-07-27T06:12:11Z</time>
      </trkpt>
      <trkpt lat="45.90981" lon="3.05396">
        <ele>452</ele>
        <time>2021-07-27T06:12:12Z</time>
      </trkpt>
      <trkpt lat="45.90983" lon="3.05396">
        <ele>452</ele>
        <time>2021-07-27T06:12:13Z</time>
      </trkpt>
      <trkpt lat="45.90985" lon="3.05395">
        <ele>452</ele>
        <time>2021-07-27T06:12:14Z</time>
      </trkpt>
      <trkpt lat="45.90986" lon="3.05395">
        <ele>452</ele>
        <time>2021-07-27T06:12:15Z</time>
      </trkpt>
      <trkpt lat="45.90988" lon="3.05395">
        <ele>452</ele>
        <time>2021-07-27T06:12:16Z</time>
      </trkpt>
      <trkpt lat="45.90989" lon="3.05395">
        <ele>452</ele>
        <time>2021-07-27T06:12:17Z</time>
      </trkpt>
      <trkpt lat="45.90991" lon="3.05395">
        <ele>452</ele>
        <time>2021-07-27T06:12:18Z</time>
      </trkpt>
      <trkpt lat="45.90992" lon="3.05396">
        <ele>452</ele>
        <time>2021-07-27T06:12:19Z</time>
      </trkpt>
      <trkpt lat="45.90994" lon="3.05397">
        <ele>452</ele>
        <time>2021-07-27T06:12:20Z</time>
      </trkpt>
      <trkpt lat="45.90994" lon="3.05398">
        <ele>452</ele>
        <time>2021-07-27T06:12:21Z</time>
      </trkpt>
      <trkpt lat="45.90995" lon="3.05398">
        <ele>452</ele>
        <time>2021-07-27T06:12:22Z</time>
      </trkpt>
      <trkpt lat="45.90997" lon="3.05399">
        <ele>452</ele>
        <time>2021-07-27T06:12:23Z</time>
      </trkpt>
      <trkpt lat="45.90998" lon="3.054">
        <ele>452</ele>
        <time>2021-07-27T06:12:24Z</time>
      </trkpt>
      <trkpt lat="45.90999" lon="3.05401">
        <ele>452</ele>
        <time>2021-07-27T06:12:25Z</time>
      </trkpt>
      <trkpt lat="45.91" lon="3.05401">
        <ele>452</ele>
        <time>2021-07-27T06:12:26Z</time>
      </trkpt>
      <trkpt lat="45.91001" lon="3.05402">
        <ele>452</ele>
        <time>2021-07-27T06:12:27Z</time>
      </trkpt>
      <trkpt lat="45.91001" lon="3.05403">
        <ele>452</ele>
        <time>2021-07-27T06:12:28Z</time>
      </trkpt>
      <trkpt lat="45.91002" lon="3.05404">
        <ele>452</ele>
        <time>2021-07-27T06:12:29Z</time>
      </trkpt>
      <trkpt lat="45.91002" lon="3.05405">
        <ele>452</ele>
        <time>2021-07-27T06:12:30Z</time>
      </trkpt>
      <trkpt lat="45.91003" lon="3.05406">
        <ele>452</ele>
        <time>2021-07-27T06:12:31Z</time>
      </trkpt>
      <trkpt lat="45.91004" lon="3.05408">
        <ele>452</ele>
        <time>2021-07-27T06:12:32Z</time>
      </trkpt>
      <trkpt lat="45.91005" lon="3.05409">
        <ele>452</ele>
        <time>2021-07-27T06:12:33Z</time>
      </trkpt>
      <trkpt lat="45.91006" lon="3.0541">
        <ele>452</ele>
        <time>2021-07-27T06:12:34Z</time>
      </trkpt>
      <trkpt lat="45.91007" lon="3.05411">
        <ele>452</ele>
        <time>2021-07-27T06:12:35Z</time>
      </trkpt>
      <trkpt lat="45.91008" lon="3.05412">
        <ele>452</ele>
        <time>2021-07-27T06:12:36Z</time>
      </trkpt>
      <trkpt lat="45.91009" lon="3.05413">
        <ele>452</ele>
        <time>2021-07-27T06:12:37Z</time>
      </trkpt>
      <trkpt lat="45.9101" lon="3.05414">
        <ele>452</ele>
        <time>2021-07-27T06:12:38Z</time>
      </trkpt>
      <trkpt lat="45.91011" lon="3.05415">
        <ele>452</ele>
        <time>2021-07-27T06:12:39Z</time>
      </trkpt>
      <trkpt lat="45.91012" lon="3.05416">
        <ele>452</ele>
        <time>2021-07-27T06:12:40Z</time>
      </trkpt>
      <trkpt lat="45.91013" lon="3.05417">
        <ele>452</ele>
        <time>2021-07-27T06:12:41Z</time>
      </trkpt>
      <trkpt lat="45.91014" lon="3.05418">
        <ele>452</ele>
        <time>2021-07-27T06:12:42Z</time>
      </trkpt>
      <trkpt lat="45.91015" lon="3.05419">
        <ele>452</ele>
        <time>2021-07-27T06:12:43Z</time>
      </trkpt>
      <trkpt lat="45.91017" lon="3.0542">
        <ele>452</ele>
        <time>2021-07-27T06:12:44Z</time>
      </trkpt>
      <trkpt lat="45.91019" lon="3.05421">
        <ele>452</ele>
        <time>2021-07-27T06:12:45Z</time>
      </trkpt>
      <trkpt lat="45.9102" lon="3.05423">
        <ele>452</ele>
        <time>2021-07-27T06:12:46Z</time>
      </trkpt>
      <trkpt lat="45.91022" lon="3.05424">
        <ele>452</ele>
        <time>2021-07-27T06:12:47Z</time>
      </trkpt>
      <trkpt lat="45.91024" lon="3.05425">
        <ele>452</ele>
        <time>2021-07-27T06:12:48Z</time>
      </trkpt>
      <trkpt lat="45.91025" lon="3.05426">
        <ele>452</ele>
        <time>2021-07-27T06:12:49Z</time>
      </trkpt>
      <trkpt lat="45.91026" lon="3.05427">
        <ele>452</ele>
        <time>2021-07-27T06:12:50Z</time>
      </trkpt>
      <trkpt lat="45.91028" lon="3.05428">
        <ele>452</ele>
        <time>2021-07-27T06:12:51Z</time>
      </trkpt>
      <trkpt lat="45.91029" lon="3.05428">
        <ele>452</ele>
        <time>2021-07-27T06:12:52Z</time>
      </trkpt>
      <trkpt lat="45.9103" lon="3.05429">
        <ele>452</ele>
        <time>2021-07-27T06:12:53Z</time>
      </trkpt>
      <trkpt lat="45.91032" lon="3.05429">
        <ele>452</ele>
        <time>2021-07-27T06:12:54Z</time>
      </trkpt>
      <trkpt lat="45.91033" lon="3.0543">
        <ele>452</ele>
        <time>2021-07-27T06:12:55Z</time>
      </trkpt>
      <trkpt lat="45.91034" lon="3.05431">
        <ele>452</ele>
        <time>2021-07-27T06:12:56Z</time>
      </trkpt>
      <trkpt lat="45.91036" lon="3.05431">
        <ele>452</ele>
        <time>2021-07-27T06:12:57Z</time>
      </trkpt>
      <trkpt lat="45.91037" lon="3.05432">
        <ele>452</ele>
        <time>2021-07-27T06:12:59Z</time>
      </trkpt>
      <trkpt lat="45.91041" lon="3.05434">
        <ele>452</ele>
        <time>2021-07-27T06:13:00Z</time>
      </trkpt>
      <trkpt lat="45.91041" lon="3.05434">
        <ele>452</ele>
        <time>2021-07-27T06:13:01Z</time>
      </trkpt>
      <trkpt lat="45.91041" lon="3.05435">
        <ele>452</ele>
        <time>2021-07-27T06:13:02Z</time>
      </trkpt>
      <trkpt lat="45.91041" lon="3.05436">
        <ele>452</ele>
        <time>2021-07-27T06:13:03Z</time>
      </trkpt>
      <trkpt lat="45.91042" lon="3.05436">
        <ele>452</ele>
        <time>2021-07-27T06:13:04Z</time>
      </trkpt>
      <trkpt lat="45.91042" lon="3.05437">
        <ele>452</ele>
        <time>2021-07-27T06:13:05Z</time>
      </trkpt>
      <trkpt lat="45.91043" lon="3.05438">
        <ele>452</ele>
        <time>2021-07-27T06:13:06Z</time>
      </trkpt>
      <trkpt lat="45.91044" lon="3.05439">
        <ele>452</ele>
        <time>2021-07-27T06:13:07Z</time>
      </trkpt>
      <trkpt lat="45.91044" lon="3.0544">
        <ele>452</ele>
        <time>2021-07-27T06:13:08Z</time>
      </trkpt>
      <trkpt lat="45.91045" lon="3.0544">
        <ele>452</ele>
        <time>2021-07-27T06:13:09Z</time>
      </trkpt>
      <trkpt lat="45.91046" lon="3.05441">
        <ele>452</ele>
        <time>2021-07-27T06:13:10Z</time>
      </trkpt>
      <trkpt lat="45.91047" lon="3.05441">
        <ele>452</ele>
        <time>2021-07-27T06:13:11Z</time>
      </trkpt>
      <trkpt lat="45.91048" lon="3.05442">
        <ele>452</ele>
        <time>2021-07-27T06:13:12Z</time>
      </trkpt>
      <trkpt lat="45.91048" lon="3.05443">
        <ele>452</ele>
        <time>2021-07-27T06:13:13Z</time>
      </trkpt>
      <trkpt lat="45.91049" lon="3.05444">
        <ele>452</ele>
        <time>2021-07-27T06:13:14Z</time>
      </trkpt>
      <trkpt lat="45.91051" lon="3.05445">
        <ele>452</ele>
        <time>2021-07-27T06:13:15Z</time>
      </trkpt>
      <trkpt lat="45.91052" lon="3.05445">
        <ele>452</ele>
        <time>2021-07-27T06:13:16Z</time>
      </trkpt>
      <trkpt lat="45.91053" lon="3.05445">
        <ele>452</ele>
        <time>2021-07-27T06:13:17Z</time>
      </trkpt>
      <trkpt lat="45.91055" lon="3.05446">
        <ele>452</ele>
        <time>2021-07-27T06:13:18Z</time>
      </trkpt>
      <trkpt lat="45.91056" lon="3.05446">
        <ele>452</ele>
        <time>2021-07-27T06:13:19Z</time>
      </trkpt>
      <trkpt lat="45.91057" lon="3.05447">
        <ele>452</ele>
        <time>2021-07-27T06:13:20Z</time>
      </trkpt>
      <trkpt lat="45.91058" lon="3.05448">
        <ele>452</ele>
        <time>2021-07-27T06:13:21Z</time>
      </trkpt>
      <trkpt lat="45.91058" lon="3.05448">
        <ele>452</ele>
        <time>2021-07-27T06:13:22Z</time>
      </trkpt>
      <trkpt lat="45.9106" lon="3.05449">
        <ele>452</ele>
        <time>2021-07-27T06:13:23Z</time>
      </trkpt>
      <trkpt lat="45.9106" lon="3.0545">
        <ele>452</ele>
        <time>2021-07-27T06:13:24Z</time>
      </trkpt>
      <trkpt lat="45.91061" lon="3.05451">
        <ele>452</ele>
        <time>2021-07-27T06:13:25Z</time>
      </trkpt>
      <trkpt lat="45.91062" lon="3.05452">
        <ele>452</ele>
        <time>2021-07-27T06:13:26Z</time>
      </trkpt>
      <trkpt lat="45.91063" lon="3.05453">
        <ele>452</ele>
        <time>2021-07-27T06:13:27Z</time>
      </trkpt>
      <trkpt lat="45.91065" lon="3.05455">
        <ele>452</ele>
        <time>2021-07-27T06:13:28Z</time>
      </trkpt>
      <trkpt lat="45.91066" lon="3.05456">
        <ele>452</ele>
        <time>2021-07-27T06:13:29Z</time>
      </trkpt>
      <trkpt lat="45.91067" lon="3.05457">
        <ele>452</ele>
        <time>2021-07-27T06:13:30Z</time>
      </trkpt>
      <trkpt lat="45.91068" lon="3.05458">
        <ele>452</ele>
        <time>2021-07-27T06:13:31Z</time>
      </trkpt>
      <trkpt lat="45.91069" lon="3.05459">
        <ele>452</ele>
        <time>2021-07-27T06:13:32Z</time>
      </trkpt>
      <trkpt lat="45.91071" lon="3.0546">
        <ele>452</ele>
        <time>2021-07-27T06:13:33Z</time>
      </trkpt>
      <trkpt lat="45.91071" lon="3.05462">
        <ele>452</ele>
        <time>2021-07-27T06:13:34Z</time>
      </trkpt>
      <trkpt lat="45.91073" lon="3.05463">
        <ele>452</ele>
        <time>2021-07-27T06:13:35Z</time>
      </trkpt>
      <trkpt lat="45.91074" lon="3.05465">
        <ele>452</ele>
        <time>2021-07-27T06:13:36Z</time>
      </trkpt>
      <trkpt lat="45.91075" lon="3.05467">
        <ele>452</ele>
        <time>2021-07-27T06:13:37Z</time>
      </trkpt>
      <trkpt lat="45.91076" lon="3.05469">
        <ele>452</ele>
        <time>2021-07-27T06:13:38Z</time>
      </trkpt>
      <trkpt lat="45.91077" lon="3.0547">
        <ele>452</ele>
        <time>2021-07-27T06:13:39Z</time>
      </trkpt>
      <trkpt lat="45.91079" lon="3.05472">
        <ele>452</ele>
        <time>2021-07-27T06:13:40Z</time>
      </trkpt>
      <trkpt lat="45.9108" lon="3.05473">
        <ele>452</ele>
        <time>2021-07-27T06:13:41Z</time>
      </trkpt>
      <trkpt lat="45.91081" lon="3.05475">
        <ele>452</ele>
        <time>2021-07-27T06:13:42Z</time>
      </trkpt>
      <trkpt lat="45.91082" lon="3.05476">
        <ele>452</ele>
        <time>2021-07-27T06:13:43Z</time>
      </trkpt>
      <trkpt lat="45.91083" lon="3.05477">
        <ele>452</ele>
        <time>2021-07-27T06:13:44Z</time>
      </trkpt>
      <trkpt lat="45.91085" lon="3.05479">
        <ele>452</ele>
        <time>2021-07-27T06:13:45Z</time>
      </trkpt>
      <trkpt lat="45.91085" lon="3.0548">
        <ele>452</ele>
        <time>2021-07-27T06:13:46Z</time>
      </trkpt>
      <trkpt lat="45.91087" lon="3.05481">
        <ele>452</ele>
        <time>2021-07-27T06:13:47Z</time>
      </trkpt>
      <trkpt lat="45.91088" lon="3.05482">
        <ele>452</ele>
        <time>2021-07-27T06:13:48Z</time>
      </trkpt>
      <trkpt lat="45.91089" lon="3.05484">
        <ele>452</ele>
        <time>2021-07-27T06:13:49Z</time>
      </trkpt>
      <trkpt lat="45.9109" lon="3.05485">
        <ele>452</ele>
        <time>2021-07-27T06:13:50Z</time>
      </trkpt>
      <trkpt lat="45.91091" lon="3.05486">
        <ele>452</ele>
        <time>2021-07-27T06:13:51Z</time>
      </trkpt>
      <trkpt lat="45.91092" lon="3.05487">
        <ele>452</ele>
        <time>2021-07-27T06:13:52Z</time>
      </trkpt>
      <trkpt lat="45.91093" lon="3.05488">
        <ele>452</ele>
        <time>2021-07-27T06:13:53Z</time>
      </trkpt>
      <trkpt lat="45.91094" lon="3.05489">
        <ele>452</ele>
        <time>2021-07-27T06:13:54Z</time>
      </trkpt>
      <trkpt lat="45.91095" lon="3.0549">
        <ele>452</ele>
        <time>2021-07-27T06:13:55Z</time>
      </trkpt>
      <trkpt lat="45.91096" lon="3.0549">
        <ele>452</ele>
        <time>2021-07-27T06:13:56Z</time>
      </trkpt>
      <trkpt lat="45.91096" lon="3.0549">
        <ele>452</ele>
        <time>2021-07-27T06:13:58Z</time>
      </trkpt>
      <trkpt lat="45.91097" lon="3.05488">
        <ele>452</ele>
        <time>2021-07-27T06:13:59Z</time>
      </trkpt>
      <trkpt lat="45.91097" lon="3.05488">
        <ele>452</ele>
        <time>2021-07-27T06:14:00Z</time>
      </trkpt>
      <trkpt lat="45.91097" lon="3.05487">
        <ele>452</ele>
        <time>2021-07-27T06:14:01Z</time>
      </trkpt>
      <trkpt lat="45.91097" lon="3.05486">
        <ele>452</ele>
        <time>2021-07-27T06:14:02Z</time>
      </trkpt>
      <trkpt lat="45.91098" lon="3.05485">
        <ele>452</ele>
        <time>2021-07-27T06:14:03Z</time>
      </trkpt>
      <trkpt lat="45.91098" lon="3.05484">
        <ele>452</ele>
        <time>2021-07-27T06:14:04Z</time>
      </trkpt>
      <trkpt lat="45.91098" lon="3.05483">
        <ele>452</ele>
        <time>2021-07-27T06:14:05Z</time>
      </trkpt>
      <trkpt lat="45.91098" lon="3.05481">
        <ele>452</ele>
        <time>2021-07-27T06:14:06Z</time>
      </trkpt>
      <trkpt lat="45.91098" lon="3.0548">
        <ele>452</ele>
        <time>2021-07-27T06:14:07Z</time>
      </trkpt>
      <trkpt lat="45.91098" lon="3.05478">
        <ele>452</ele>
        <time>2021-07-27T06:14:08Z</time>
      </trkpt>
      <trkpt lat="45.91098" lon="3.05476">
        <ele>452</ele>
        <time>2021-07-27T06:14:09Z</time>
      </trkpt>
      <trkpt lat="45.91097" lon="3.05474">
        <ele>452</ele>
        <time>2021-07-27T06:14:10Z</time>
      </trkpt>
      <trkpt lat="45.91097" lon="3.05472">
        <ele>452</ele>
        <time>2021-07-27T06:14:11Z</time>
      </trkpt>
      <trkpt lat="45.91095" lon="3.05471">
        <ele>452</ele>
        <time>2021-07-27T06:14:12Z</time>
      </trkpt>
      <trkpt lat="45.91094" lon="3.05469">
        <ele>452</ele>
        <time>2021-07-27T06:14:13Z</time>
      </trkpt>
      <trkpt lat="45.91093" lon="3.05468">
        <ele>452</ele>
        <time>2021-07-27T06:14:14Z</time>
      </trkpt>
      <trkpt lat="45.91092" lon="3.05467">
        <ele>452</ele>
        <time>2021-07-27T06:14:15Z</time>
      </trkpt>
      <trkpt lat="45.91091" lon="3.05465">
        <ele>452</ele>
        <time>2021-07-27T06:14:16Z</time>
      </trkpt>
      <trkpt lat="45.9109" lon="3.05464">
        <ele>452</ele>
        <time>2021-07-27T06:14:17Z</time>
      </trkpt>
      <trkpt lat="45.91089" lon="3.05463">
        <ele>452</ele>
        <time>2021-07-27T06:14:18Z</time>
      </trkpt>
      <trkpt lat="45.91087" lon="3.05463">
        <ele>452</ele>
        <time>2021-07-27T06:14:19Z</time>
      </trkpt>
      <trkpt lat="45.91086" lon="3.05462">
        <ele>452</ele>
        <time>2021-07-27T06:14:20Z</time>
      </trkpt>
      <trkpt lat="45.91085" lon="3.05461">
        <ele>452</ele>
        <time>2021-07-27T06:14:21Z</time>
      </trkpt>
      <trkpt lat="45.91084" lon="3.05459">
        <ele>452</ele>
        <time>2021-07-27T06:14:22Z</time>
      </trkpt>
      <trkpt lat="45.91082" lon="3.05458">
        <ele>452</ele>
        <time>2021-07-27T06:14:23Z</time>
      </trkpt>
      <trkpt lat="45.91081" lon="3.05457">
        <ele>452</ele>
        <time>2021-07-27T06:14:24Z</time>
      </trkpt>
      <trkpt lat="45.91079" lon="3.05456">
        <ele>452</ele>
        <time>2021-07-27T06:14:25Z</time>
      </trkpt>
      <trkpt lat="45.91079" lon="3.05455">
        <ele>452</ele>
        <time>2021-07-27T06:14:26Z</time>
      </trkpt>
      <trkpt lat="45.91077" lon="3.05454">
        <ele>452</ele>
        <time>2021-07-27T06:14:27Z</time>
      </trkpt>
      <trkpt lat="45.91076" lon="3.05452">
        <ele>452</ele>
        <time>2021-07-27T06:14:28Z</time>
      </trkpt>
      <trkpt lat="45.91076" lon="3.05451">
        <ele>452</ele>
        <time>2021-07-27T06:14:29Z</time>
      </trkpt>
      <trkpt lat="45.91075" lon="3.05449">
        <ele>452</ele>
        <time>2021-07-27T06:14:30Z</time>
      </trkpt>
      <trkpt lat="45.91074" lon="3.05448">
        <ele>452</ele>
        <time>2021-07-27T06:14:31Z</time>
      </trkpt>
      <trkpt lat="45.91073" lon="3.05446">
        <ele>452</ele>
        <time>2021-07-27T06:14:32Z</time>
      </trkpt>
      <trkpt lat="45.91073" lon="3.05445">
        <ele>452</ele>
        <time>2021-07-27T06:14:33Z</time>
      </trkpt>
      <trkpt lat="45.91073" lon="3.05444">
        <ele>452</ele>
        <time>2021-07-27T06:14:34Z</time>
      </trkpt>
      <trkpt lat="45.91073" lon="3.05443">
        <ele>452</ele>
        <time>2021-07-27T06:14:35Z</time>
      </trkpt>
      <trkpt lat="45.91074" lon="3.05442">
        <ele>452</ele>
        <time>2021-07-27T06:14:36Z</time>
      </trkpt>
      <trkpt lat="45.91075" lon="3.05441">
        <ele>452</ele>
        <time>2021-07-27T06:14:37Z</time>
      </trkpt>
      <trkpt lat="45.91076" lon="3.0544">
        <ele>452</ele>
        <time>2021-07-27T06:14:38Z</time>
      </trkpt>
      <trkpt lat="45.91077" lon="3.05439">
        <ele>452</ele>
        <time>2021-07-27T06:14:39Z</time>
      </trkpt>
      <trkpt lat="45.91078" lon="3.05438">
        <ele>452</ele>
        <time>2021-07-27T06:14:40Z</time>
      </trkpt>
      <trkpt lat="45.91079" lon="3.05436">
        <ele>452</ele>
        <time>2021-07-27T06:14:41Z</time>
      </trkpt>
      <trkpt lat="45.91079" lon="3.05435">
        <ele>452</ele>
        <time>2021-07-27T06:14:42Z</time>
      </trkpt>
      <trkpt lat="45.91081" lon="3.05434">
        <ele>452</ele>
        <time>2021-07-27T06:14:43Z</time>
      </trkpt>
      <trkpt lat="45.91082" lon="3.05433">
        <ele>452</ele>
        <time>2021-07-27T06:14:44Z</time>
      </trkpt>
      <trkpt lat="45.91082" lon="3.05431">
        <ele>452</ele>
        <time>2021-07-27T06:14:45Z</time>
      </trkpt>
      <trkpt lat="45.91083" lon="3.0543">
        <ele>452</ele>
        <time>2021-07-27T06:14:46Z</time>
      </trkpt>
      <trkpt lat="45.91085" lon="3.05429">
        <ele>452</ele>
        <time>2021-07-27T06:14:47Z</time>
      </trkpt>
      <trkpt lat="45.91085" lon="3.05428">
        <ele>452</ele>
        <time>2021-07-27T06:14:48Z</time>
      </trkpt>
      <trkpt lat="45.91087" lon="3.05427">
        <ele>452</ele>
        <time>2021-07-27T06:14:49Z</time>
      </trkpt>
      <trkpt lat="45.91088" lon="3.05425">
        <ele>452</ele>
        <time>2021-07-27T06:14:50Z</time>
      </trkpt>
      <trkpt lat="45.91089" lon="3.05423">
        <ele>452</ele>
        <time>2021-07-27T06:14:51Z</time>
      </trkpt>
      <trkpt lat="45.91089" lon="3.05422">
        <ele>452</ele>
        <time>2021-07-27T06:14:52Z</time>
      </trkpt>
      <trkpt lat="45.9109" lon="3.0542">
        <ele>452</ele>
        <time>2021-07-27T06:14:53Z</time>
      </trkpt>
      <trkpt lat="45.91091" lon="3.05418">
        <ele>452</ele>
        <time>2021-07-27T06:14:54Z</time>
      </trkpt>
      <trkpt lat="45.91091" lon="3.05417">
        <ele>452</ele>
        <time>2021-07-27T06:14:55Z</time>
      </trkpt>
      <trkpt lat="45.91092" lon="3.05415">
        <ele>452</ele>
        <time>2021-07-27T06:14:56Z</time>
      </trkpt>
      <trkpt lat="45.91093" lon="3.05413">
        <ele>452</ele>
        <time>2021-07-27T06:14:58Z</time>
      </trkpt>
      <trkpt lat="45.91093" lon="3.05411">
        <ele>452</ele>
        <time>2021-07-27T06:14:59Z</time>
      </trkpt>
      <trkpt lat="45.91097" lon="3.05405">
        <ele>452</ele>
        <time>2021-07-27T06:15:00Z</time>
      </trkpt>
      <trkpt lat="45.91097" lon="3.05404">
        <ele>452</ele>
        <time>2021-07-27T06:15:01Z</time>
      </trkpt>
      <trkpt lat="45.91097" lon="3.05404">
        <ele>452</ele>
        <time>2021-07-27T06:15:02Z</time>
      </trkpt>
      <trkpt lat="45.91097" lon="3.05403">
        <ele>452</ele>
        <time>2021-07-27T06:15:03Z</time>
      </trkpt>
      <trkpt lat="45.91098" lon="3.05401">
        <ele>452</ele>
        <time>2021-07-27T06:15:04Z</time>
      </trkpt>
      <trkpt lat="45.91098" lon="3.054">
        <ele>452</ele>
        <time>2021-07-27T06:15:05Z</time>
      </trkpt>
      <trkpt lat="45.911" lon="3.05398">
        <ele>452</ele>
        <time>2021-07-27T06:15:06Z</time>
      </trkpt>
      <trkpt lat="45.911" lon="3.05396">
        <ele>452</ele>
        <time>2021-07-27T06:15:07Z</time>
      </trkpt>
      <trkpt lat="45.911" lon="3.05395">
        <ele>452</ele>
        <time>2021-07-27T06:15:08Z</time>
      </trkpt>
      <trkpt lat="45.91101" lon="3.05393">
        <ele>452</ele>
        <time>2021-07-27T06:15:09Z</time>
      </trkpt>
      <trkpt lat="45.91102" lon="3.05391">
        <ele>452</ele>
        <time>2021-07-27T06:15:10Z</time>
      </trkpt>
      <trkpt lat="45.91102" lon="3.05389">
        <ele>452</ele>
        <time>2021-07-27T06:15:11Z</time>
      </trkpt>
      <trkpt lat="45.91102" lon="3.05387">
        <ele>452</ele>
        <time>2021-07-27T06:15:12Z</time>
      </trkpt>
      <trkpt lat="45.91101" lon="3.05385">
        <ele>452</ele>
        <time>2021-07-27T06:15:13Z</time>
      </trkpt>
      <trkpt lat="45.911" lon="3.05383">
        <ele>452</ele>
        <time>2021-07-27T06:15:14Z</time>
      </trkpt>
      <trkpt lat="45.911" lon="3.0538">
        <ele>452</ele>
        <time>2021-07-27T06:15:15Z</time>
      </trkpt>
      <trkpt lat="45.911" lon="3.05378">
        <ele>452</ele>
        <time>2021-07-27T06:15:16Z</time>
      </trkpt>
      <trkpt lat="45.911" lon="3.05376">
        <ele>452</ele>
        <time>2021-07-27T06:15:17Z</time>
      </trkpt>
      <trkpt lat="45.91099" lon="3.05374">
        <ele>452</ele>
        <time>2021-07-27T06:15:18Z</time>
      </trkpt>
      <trkpt lat="45.91098" lon="3.05373">
        <ele>452</ele>
        <time>2021-07-27T06:15:19Z</time>
      </trkpt>
      <trkpt lat="45.91098" lon="3.05371">
        <ele>452</ele>
        <time>2021-07-27T06:15:20Z</time>
      </trkpt>
      <trkpt lat="45.91097" lon="3.0537">
        <ele>452</ele>
        <time>2021-07-27T06:15:21Z</time>
      </trkpt>
      <trkpt lat="45.91097" lon="3.05368">
        <ele>452</ele>
        <time>2021-07-27T06:15:22Z</time>
      </trkpt>
      <trkpt lat="45.91096" lon="3.05366">
        <ele>452</ele>
        <time>2021-07-27T06:15:23Z</time>
      </trkpt>
      <trkpt lat="45.91095" lon="3.05364">
        <ele>452</ele>
        <time>2021-07-27T06:15:24Z</time>
      </trkpt>
      <trkpt lat="45.91095" lon="3.05362">
        <ele>452</ele>
        <time>2021-07-27T06:15:25Z</time>
      </trkpt>
      <trkpt lat="45.91094" lon="3.0536">
        <ele>452</ele>
        <time>2021-07-27T06:15:26Z</time>
      </trkpt>
      <trkpt lat="45.91093" lon="3.05359">
        <ele>452</ele>
        <time>2021-07-27T06:15:27Z</time>
      </trkpt>
      <trkpt lat="45.91093" lon="3.05357">
        <ele>452</ele>
        <time>2021-07-27T06:15:28Z</time>
      </trkpt>
      <trkpt lat="45.91092" lon="3.05355">
        <ele>452</ele>
        <time>2021-07-27T06:15:29Z</time>
      </trkpt>
      <trkpt lat="45.91091" lon="3.05353">
        <ele>452</ele>
        <time>2021-07-27T06:15:30Z</time>
      </trkpt>
      <trkpt lat="45.9109" lon="3.05352">
        <ele>452</ele>
        <time>2021-07-27T06:15:31Z</time>
      </trkpt>
      <trkpt lat="45.91089" lon="3.05351">
        <ele>452</ele>
        <time>2021-07-27T06:15:32Z</time>
      </trkpt>
      <trkpt lat="45.91088" lon="3.0535">
        <ele>452</ele>
        <time>2021-07-27T06:15:33Z</time>
      </trkpt>
      <trkpt lat="45.91088" lon="3.05349">
        <ele>452</ele>
        <time>2021-07-27T06:15:34Z</time>
      </trkpt>
      <trkpt lat="45.91087" lon="3.05348">
        <ele>452</ele>
        <time>2021-07-27T06:15:35Z</time>
      </trkpt>
      <trkpt lat="45.91087" lon="3.05347">
        <ele>452</ele>
        <time>2021-07-27T06:15:36Z</time>
      </trkpt>
      <trkpt lat="45.91086" lon="3.05345">
        <ele>452</ele>
        <time>2021-07-27T06:15:37Z</time>
      </trkpt>
      <trkpt lat="45.91085" lon="3.05343">
        <ele>452</ele>
        <time>2021-07-27T06:15:38Z</time>
      </trkpt>
      <trkpt lat="45.91085" lon="3.05342">
        <ele>452</ele>
        <time>2021-07-27T06:15:39Z</time>
      </trkpt>
      <trkpt lat="45.91084" lon="3.0534">
        <ele>452</ele>
        <time>2021-07-27T06:15:40Z</time>
      </trkpt>
      <trkpt lat="45.91083" lon="3.05338">
        <ele>452</ele>
        <time>2021-07-27T06:15:41Z</time>
      </trkpt>
      <trkpt lat="45.91082" lon="3.05336">
        <ele>452</ele>
        <time>2021-07-27T06:15:42Z</time>
      </trkpt>
      <trkpt lat="45.91081" lon="3.05335">
        <ele>452</ele>
        <time>2021-07-27T06:15:43Z</time>
      </trkpt>
      <trkpt lat="45.9108" lon="3.05334">
        <ele>452</ele>
        <time>2021-07-27T06:15:44Z</time>
      </trkpt>
      <trkpt lat="45.91079" lon="3.05332">
        <ele>452</ele>
        <time>2021-07-27T06:15:45Z</time>
      </trkpt>
      <trkpt lat="45.91079" lon="3.05331">
        <ele>452</ele>
        <time>2021-07-27T06:15:46Z</time>
      </trkpt>
      <trkpt lat="45.91078" lon="3.05329">
        <ele>452</ele>
        <time>2021-07-27T06:15:47Z</time>
      </trkpt>
      <trkpt lat="45.91077" lon="3.05327">
        <ele>452</ele>
        <time>2021-07-27T06:15:47Z</time>
      </trkpt>
      <trkpt lat="45.91076" lon="3.05326">
        <ele>452</ele>
        <time>2021-07-27T06:15:48Z</time>
      </trkpt>
      <trkpt lat="45.91076" lon="3.05324">
        <ele>452</ele>
        <time>2021-07-27T06:15:49Z</time>
      </trkpt>
      <trkpt lat="45.91075" lon="3.05322">
        <ele>452</ele>
        <time>2021-07-27T06:15:50Z</time>
      </trkpt>
      <trkpt lat="45.91074" lon="3.05321">
        <ele>452</ele>
        <time>2021-07-27T06:15:51Z</time>
      </trkpt>
      <trkpt lat="45.91073" lon="3.0532">
        <ele>452</ele>
        <time>2021-07-27T06:15:52Z</time>
      </trkpt>
      <trkpt lat="45.91072" lon="3.05318">
        <ele>452</ele>
        <time>2021-07-27T06:15:53Z</time>
      </trkpt>
      <trkpt lat="45.91072" lon="3.05317">
        <ele>452</ele>
        <time>2021-07-27T06:15:54Z</time>
      </trkpt>
      <trkpt lat="45.91071" lon="3.05316">
        <ele>452</ele>
        <time>2021-07-27T06:15:55Z</time>
      </trkpt>
      <trkpt lat="45.9107" lon="3.05314">
        <ele>452</ele>
        <time>2021-07-27T06:15:56Z</time>
      </trkpt>
      <trkpt lat="45.91069" lon="3.05313">
        <ele>452</ele>
        <time>2021-07-27T06:15:58Z</time>
      </trkpt>
      <trkpt lat="45.91066" lon="3.05307">
        <ele>452</ele>
        <time>2021-07-27T06:15:59Z</time>
      </trkpt>
      <trkpt lat="45.91066" lon="3.05306">
        <ele>452</ele>
        <time>2021-07-27T06:16:00Z</time>
      </trkpt>
      <trkpt lat="45.91066" lon="3.05306">
        <ele>452</ele>
        <time>2021-07-27T06:16:01Z</time>
      </trkpt>
      <trkpt lat="45.91065" lon="3.05304">
        <ele>452</ele>
        <time>2021-07-27T06:16:02Z</time>
      </trkpt>
      <trkpt lat="45.91064" lon="3.05302">
        <ele>452</ele>
        <time>2021-07-27T06:16:03Z</time>
      </trkpt>
      <trkpt lat="45.91063" lon="3.05301">
        <ele>452</ele>
        <time>2021-07-27T06:16:04Z</time>
      </trkpt>
      <trkpt lat="45.91063" lon="3.05299">
        <ele>452</ele>
        <time>2021-07-27T06:16:05Z</time>
      </trkpt>
      <trkpt lat="45.91061" lon="3.05297">
        <ele>452</ele>
        <time>2021-07-27T06:16:06Z</time>
      </trkpt>
      <trkpt lat="45.91061" lon="3.05295">
        <ele>452</ele>
        <time>2021-07-27T06:16:07Z</time>
      </trkpt>
      <trkpt lat="45.91061" lon="3.05293">
        <ele>452</ele>
        <time>2021-07-27T06:16:08Z</time>
      </trkpt>
      <trkpt lat="45.9106" lon="3.05291">
        <ele>452</ele>
        <time>2021-07-27T06:16:09Z</time>
      </trkpt>
      <trkpt lat="45.9106" lon="3.05289">
        <ele>452</ele>
        <time>2021-07-27T06:16:10Z</time>
      </trkpt>
      <trkpt lat="45.91059" lon="3.05287">
        <ele>452</ele>
        <time>2021-07-27T06:16:11Z</time>
      </trkpt>
      <trkpt lat="45.91059" lon="3.05285">
        <ele>452</ele>
        <time>2021-07-27T06:16:12Z</time>
      </trkpt>
      <trkpt lat="45.91058" lon="3.05283">
        <ele>452</ele>
        <time>2021-07-27T06:16:13Z</time>
      </trkpt>
      <trkpt lat="45.91058" lon="3.05281">
        <ele>452</ele>
        <time>2021-07-27T06:16:14Z</time>
      </trkpt>
      <trkpt lat="45.91058" lon="3.05279">
        <ele>452</ele>
        <time>2021-07-27T06:16:15Z</time>
      </trkpt>
      <trkpt lat="45.91058" lon="3.05277">
        <ele>452</ele>
        <time>2021-07-27T06:16:16Z</time>
      </trkpt>
      <trkpt lat="45.91056" lon="3.05275">
        <ele>452</ele>
        <time>2021-07-27T06:16:17Z</time>
      </trkpt>
      <trkpt lat="45.91056" lon="3.05273">
        <ele>452</ele>
        <time>2021-07-27T06:16:18Z</time>
      </trkpt>
      <trkpt lat="45.91055" lon="3.05271">
        <ele>452</ele>
        <time>2021-07-27T06:16:19Z</time>
      </trkpt>
      <trkpt lat="45.91054" lon="3.05269">
        <ele>452</ele>
        <time>2021-07-27T06:16:20Z</time>
      </trkpt>
      <trkpt lat="45.91053" lon="3.05267">
        <ele>452</ele>
        <time>2021-07-27T06:16:21Z</time>
      </trkpt>
      <trkpt lat="45.91053" lon="3.05265">
        <ele>452</ele>
        <time>2021-07-27T06:16:22Z</time>
      </trkpt>
      <trkpt lat="45.91052" lon="3.05263">
        <ele>452</ele>
        <time>2021-07-27T06:16:23Z</time>
      </trkpt>
      <trkpt lat="45.91052" lon="3.05261">
        <ele>452</ele>
        <time>2021-07-27T06:16:24Z</time>
      </trkpt>
      <trkpt lat="45.91053" lon="3.0526">
        <ele>452</ele>
        <time>2021-07-27T06:16:25Z</time>
      </trkpt>
      <trkpt lat="45.91054" lon="3.05259">
        <ele>452</ele>
        <time>2021-07-27T06:16:26Z</time>
      </trkpt>
      <trkpt lat="45.91055" lon="3.05258">
        <ele>452</ele>
        <time>2021-07-27T06:16:27Z</time>
      </trkpt>
      <trkpt lat="45.91056" lon="3.05257">
        <ele>452</ele>
        <time>2021-07-27T06:16:28Z</time>
      </trkpt>
      <trkpt lat="45.91058" lon="3.05256">
        <ele>452</ele>
        <time>2021-07-27T06:16:29Z</time>
      </trkpt>
      <trkpt lat="45.91058" lon="3.05256">
        <ele>452</ele>
        <time>2021-07-27T06:16:30Z</time>
      </trkpt>
      <trkpt lat="45.9106" lon="3.05256">
        <ele>452</ele>
        <time>2021-07-27T06:16:31Z</time>
      </trkpt>
      <trkpt lat="45.91061" lon="3.05255">
        <ele>452</ele>
        <time>2021-07-27T06:16:32Z</time>
      </trkpt>
      <trkpt lat="45.91063" lon="3.05256">
        <ele>452</ele>
        <time>2021-07-27T06:16:33Z</time>
      </trkpt>
      <trkpt lat="45.91064" lon="3.05256">
        <ele>452</ele>
        <time>2021-07-27T06:16:34Z</time>
      </trkpt>
      <trkpt lat="45.91065" lon="3.05256">
        <ele>452</ele>
        <time>2021-07-27T06:16:35Z</time>
      </trkpt>
      <trkpt lat="45.91066" lon="3.05255">
        <ele>452</ele>
        <time>2021-07-27T06:16:36Z</time>
      </trkpt>
      <trkpt lat="45.91067" lon="3.05255">
        <ele>452</ele>
        <time>2021-07-27T06:16:37Z</time>
      </trkpt>
      <trkpt lat="45.91068" lon="3.05254">
        <ele>452</ele>
        <time>2021-07-27T06:16:38Z</time>
      </trkpt>
      <trkpt lat="45.91068" lon="3.05253">
        <ele>452</ele>
        <time>2021-07-27T06:16:39Z</time>
      </trkpt>
      <trkpt lat="45.91069" lon="3.05252">
        <ele>452</ele>
        <time>2021-07-27T06:16:40Z</time>
      </trkpt>
      <trkpt lat="45.9107" lon="3.05252">
        <ele>452</ele>
        <time>2021-07-27T06:16:41Z</time>
      </trkpt>
      <trkpt lat="45.91071" lon="3.05251">
        <ele>452</ele>
        <time>2021-07-27T06:16:42Z</time>
      </trkpt>
      <trkpt lat="45.91072" lon="3.0525">
        <ele>452</ele>
        <time>2021-07-27T06:16:43Z</time>
      </trkpt>
      <trkpt lat="45.91072" lon="3.0525">
        <ele>452</ele>
        <time>2021-07-27T06:16:44Z</time>
      </trkpt>
      <trkpt lat="45.91073" lon="3.05249">
        <ele>452</ele>
        <time>2021-07-27T06:16:45Z</time>
      </trkpt>
      <trkpt lat="45.91073" lon="3.05249">
        <ele>452</ele>
        <time>2021-07-27T06:16:46Z</time>
      </trkpt>
      <trkpt lat="45.91074" lon="3.05248">
        <ele>452</ele>
        <time>2021-07-27T06:16:47Z</time>
      </trkpt>
      <trkpt lat="45.91074" lon="3.05248">
        <ele>452</ele>
        <time>2021-07-27T06:16:48Z</time>
      </trkpt>
      <trkpt lat="45.91075" lon="3.05247">
        <ele>452</ele>
        <time>2021-07-27T06:16:49Z</time>
      </trkpt>
      <trkpt lat="45.91076" lon="3.05247">
        <ele>452</ele>
        <time>2021-07-27T06:16:50Z</time>
      </trkpt>
      <trkpt lat="45.91076" lon="3.05247">
        <ele>452</ele>
        <time>2021-07-27T06:16:51Z</time>
      </trkpt>
      <trkpt lat="45.91076" lon="3.05247">
        <ele>452</ele>
        <time>2021-07-27T06:16:52Z</time>
      </trkpt>
      <trkpt lat="45.91077" lon="3.05246">
        <ele>452</ele>
        <time>2021-07-27T06:16:53Z</time>
      </trkpt>
      <trkpt lat="45.91078" lon="3.05246">
        <ele>452</ele>
        <time>2021-07-27T06:16:54Z</time>
      </trkpt>
      <trkpt lat="45.91079" lon="3.05246">
        <ele>452</ele>
        <time>2021-07-27T06:16:55Z</time>
      </trkpt>
      <trkpt lat="45.91079" lon="3.05246">
        <ele>452</ele>
        <time>2021-07-27T06:16:57Z</time>
      </trkpt>
      <trkpt lat="45.91081" lon="3.05245">
        <ele>452</ele>
        <time>2021-07-27T06:16:58Z</time>
      </trkpt>
      <trkpt lat="45.91081" lon="3.05245">
        <ele>452</ele>
        <time>2021-07-27T06:16:59Z</time>
      </trkpt>
      <trkpt lat="45.91082" lon="3.05245">
        <ele>452</ele>
        <time>2021-07-27T06:17:00Z</time>
      </trkpt>
      <trkpt lat="45.91082" lon="3.05244">
        <ele>452</ele>
        <time>2021-07-27T06:17:01Z</time>
      </trkpt>
      <trkpt lat="45.91082" lon="3.05244">
        <ele>452</ele>
        <time>2021-07-27T06:17:02Z</time>
      </trkpt>
      <trkpt lat="45.91082" lon="3.05244">
        <ele>452</ele>
        <time>2021-07-27T06:17:03Z</time>
      </trkpt>
      <trkpt lat="45.91083" lon="3.05243">
        <ele>452</ele>
        <time>2021-07-27T06:17:04Z</time>
      </trkpt>
      <trkpt lat="45.91084" lon="3.05243">
        <ele>452</ele>
        <time>2021-07-27T06:17:05Z</time>
      </trkpt>
      <trkpt lat="45.91084" lon="3.05243">
        <ele>452</ele>
        <time>2021-07-27T06:17:06Z</time>
      </trkpt>
      <trkpt lat="45.91084" lon="3.05242">
        <ele>452</ele>
        <time>2021-07-27T06:17:07Z</time>
      </trkpt>
      <trkpt lat="45.91084" lon="3.05242">
        <ele>452</ele>
        <time>2021-07-27T06:17:08Z</time>
      </trkpt>
      <trkpt lat="45.91085" lon="3.05242">
        <ele>452</ele>
        <time>2021-07-27T06:17:09Z</time>
      </trkpt>
      <trkpt lat="45.91085" lon="3.05241">
        <ele>452</ele>
        <time>2021-07-27T06:17:10Z</time>
      </trkpt>
      <trkpt lat="45.91085" lon="3.05241">
        <ele>452</ele>
        <time>2021-07-27T06:17:11Z</time>
      </trkpt>
      <trkpt lat="45.91085" lon="3.05241">
        <ele>452</ele>
        <time>2021-07-27T06:17:12Z</time>
      </trkpt>
      <trkpt lat="45.91085" lon="3.0524">
        <ele>452</ele>
        <time>2021-07-27T06:17:13Z</time>
      </trkpt>
      <trkpt lat="45.91086" lon="3.0524">
        <ele>452</ele>
        <time>2021-07-27T06:17:14Z</time>
      </trkpt>
      <trkpt lat="45.91086" lon="3.0524">
        <ele>452</ele>
        <time>2021-07-27T06:17:15Z</time>
      </trkpt>
      <trkpt lat="45.91089" lon="3.05237">
        <ele>452</ele>
        <time>2021-07-27T06:17:18Z</time>
      </trkpt>
      <trkpt lat="45.91089" lon="3.05237">
        <ele>452</ele>
        <time>2021-07-27T06:17:19Z</time>
      </trkpt>
      <trkpt lat="45.91089" lon="3.05236">
        <ele>452</ele>
        <time>2021-07-27T06:17:20Z</time>
      </trkpt>
      <trkpt lat="45.91089" lon="3.05235">
        <ele>452</ele>
        <time>2021-07-27T06:17:21Z</time>
      </trkpt>
      <trkpt lat="45.9109" lon="3.05235">
        <ele>452</ele>
        <time>2021-07-27T06:17:22Z</time>
      </trkpt>
      <trkpt lat="45.9109" lon="3.05234">
        <ele>452</ele>
        <time>2021-07-27T06:17:23Z</time>
      </trkpt>
      <trkpt lat="45.9109" lon="3.05233">
        <ele>452</ele>
        <time>2021-07-27T06:17:24Z</time>
      </trkpt>
      <trkpt lat="45.9109" lon="3.05233">
        <ele>452</ele>
        <time>2021-07-27T06:17:25Z</time>
      </trkpt>
      <trkpt lat="45.91091" lon="3.05232">
        <ele>452</ele>
        <time>2021-07-27T06:17:26Z</time>
      </trkpt>
      <trkpt lat="45.91091" lon="3.05232">
        <ele>452</ele>
        <time>2021-07-27T06:17:27Z</time>
      </trkpt>
      <trkpt lat="45.91092" lon="3.05231">
        <ele>452</ele>
        <time>2021-07-27T06:17:28Z</time>
      </trkpt>
      <trkpt lat="45.91092" lon="3.0523">
        <ele>452</ele>
        <time>2021-07-27T06:17:29Z</time>
      </trkpt>
      <trkpt lat="45.91092" lon="3.05229">
        <ele>452</ele>
        <time>2021-07-27T06:17:30Z</time>
      </trkpt>
      <trkpt lat="45.91093" lon="3.05228">
        <ele>452</ele>
        <time>2021-07-27T06:17:31Z</time>
      </trkpt>
      <trkpt lat="45.91093" lon="3.05227">
        <ele>452</ele>
        <time>2021-07-27T06:17:32Z</time>
      </trkpt>
      <trkpt lat="45.91094" lon="3.05227">
        <ele>452</ele>
        <time>2021-07-27T06:17:33Z</time>
      </trkpt>
      <trkpt lat="45.91094" lon="3.05226">
        <ele>452</ele>
        <time>2021-07-27T06:17:34Z</time>
      </trkpt>
      <trkpt lat="45.91094" lon="3.05225">
        <ele>452</ele>
        <time>2021-07-27T06:17:35Z</time>
      </trkpt>
      <trkpt lat="45.91095" lon="3.05224">
        <ele>452</ele>
        <time>2021-07-27T06:17:36Z</time>
      </trkpt>
      <trkpt lat="45.91095" lon="3.05224">
        <ele>452</ele>
        <time>2021-07-27T06:17:37Z</time>
      </trkpt>
      <trkpt lat="45.91095" lon="3.05223">
        <ele>452</ele>
        <time>2021-07-27T06:17:38Z</time>
      </trkpt>
      <trkpt lat="45.91095" lon="3.05222">
        <ele>452</ele>
        <time>2021-07-27T06:17:39Z</time>
      </trkpt>
      <trkpt lat="45.91096" lon="3.05222">
        <ele>452</ele>
        <time>2021-07-27T06:17:40Z</time>
      </trkpt>
      <trkpt lat="45.91097" lon="3.05221">
        <ele>452</ele>
        <time>2021-07-27T06:17:41Z</time>
      </trkpt>
      <trkpt lat="45.91097" lon="3.0522">
        <ele>452</ele>
        <time>2021-07-27T06:17:42Z</time>
      </trkpt>
      <trkpt lat="45.91098" lon="3.05219">
        <ele>452</ele>
        <time>2021-07-27T06:17:43Z</time>
      </trkpt>
      <trkpt lat="45.91099" lon="3.05218">
        <ele>452</ele>
        <time>2021-07-27T06:17:44Z</time>
      </trkpt>
      <trkpt lat="45.911" lon="3.05217">
        <ele>452</ele>
        <time>2021-07-27T06:17:45Z</time>
      </trkpt>
      <trkpt lat="45.911" lon="3.05216">
        <ele>452</ele>
        <time>2021-07-27T06:17:46Z</time>
      </trkpt>
      <trkpt lat="45.91101" lon="3.05215">
        <ele>452</ele>
        <time>2021-07-27T06:17:47Z</time>
      </trkpt>
      <trkpt lat="45.91102" lon="3.05214">
        <ele>452</ele>
        <time>2021-07-27T06:17:48Z</time>
      </trkpt>
      <trkpt lat="45.91103" lon="3.05213">
        <ele>452</ele>
        <time>2021-07-27T06:17:49Z</time>
      </trkpt>
      <trkpt lat="45.91103" lon="3.05212">
        <ele>452</ele>
        <time>2021-07-27T06:17:50Z</time>
      </trkpt>
      <trkpt lat="45.91104" lon="3.0521">
        <ele>452</ele>
        <time>2021-07-27T06:17:51Z</time>
      </trkpt>
      <trkpt lat="45.91105" lon="3.05209">
        <ele>452</ele>
        <time>2021-07-27T06:17:52Z</time>
      </trkpt>
      <trkpt lat="45.91105" lon="3.05208">
        <ele>452</ele>
        <time>2021-07-27T06:17:53Z</time>
      </trkpt>
      <trkpt lat="45.91106" lon="3.05207">
        <ele>452</ele>
        <time>2021-07-27T06:17:54Z</time>
      </trkpt>
      <trkpt lat="45.91107" lon="3.05206">
        <ele>452</ele>
        <time>2021-07-27T06:17:56Z</time>
      </trkpt>
      <trkpt lat="45.9111" lon="3.05203">
        <ele>452</ele>
        <time>2021-07-27T06:17:57Z</time>
      </trkpt>
      <trkpt lat="45.9111" lon="3.05203">
        <ele>452</ele>
        <time>2021-07-27T06:17:58Z</time>
      </trkpt>
      <trkpt lat="45.91111" lon="3.05203">
        <ele>452</ele>
        <time>2021-07-27T06:17:59Z</time>
      </trkpt>
      <trkpt lat="45.91111" lon="3.05203">
        <ele>452</ele>
        <time>2021-07-27T06:18:00Z</time>
      </trkpt>
      <trkpt lat="45.91112" lon="3.05202">
        <ele>452</ele>
        <time>2021-07-27T06:18:01Z</time>
      </trkpt>
      <trkpt lat="45.91112" lon="3.05202">
        <ele>452</ele>
        <time>2021-07-27T06:18:02Z</time>
      </trkpt>
      <trkpt lat="45.91113" lon="3.05201">
        <ele>452</ele>
        <time>2021-07-27T06:18:03Z</time>
      </trkpt>
      <trkpt lat="45.91114" lon="3.05201">
        <ele>452</ele>
        <time>2021-07-27T06:18:04Z</time>
      </trkpt>
      <trkpt lat="45.91114" lon="3.052">
        <ele>452</ele>
        <time>2021-07-27T06:18:05Z</time>
      </trkpt>
      <trkpt lat="45.91115" lon="3.05199">
        <ele>452</ele>
        <time>2021-07-27T06:18:06Z</time>
      </trkpt>
      <trkpt lat="45.91115" lon="3.05199">
        <ele>452</ele>
        <time>2021-07-27T06:18:07Z</time>
      </trkpt>
      <trkpt lat="45.91116" lon="3.05198">
        <ele>452</ele>
        <time>2021-07-27T06:18:08Z</time>
      </trkpt>
      <trkpt lat="45.91116" lon="3.05197">
        <ele>452</ele>
        <time>2021-07-27T06:18:09Z</time>
      </trkpt>
      <trkpt lat="45.91118" lon="3.05197">
        <ele>452</ele>
        <time>2021-07-27T06:18:10Z</time>
      </trkpt>
      <trkpt lat="45.91118" lon="3.05197">
        <ele>452</ele>
        <time>2021-07-27T06:18:11Z</time>
      </trkpt>
      <trkpt lat="45.91118" lon="3.05196">
        <ele>452</ele>
        <time>2021-07-27T06:18:12Z</time>
      </trkpt>
      <trkpt lat="45.91118" lon="3.05195">
        <ele>452</ele>
        <time>2021-07-27T06:18:13Z</time>
      </trkpt>
      <trkpt lat="45.91119" lon="3.05195">
        <ele>452</ele>
        <time>2021-07-27T06:18:14Z</time>
      </trkpt>
      <trkpt lat="45.91119" lon="3.05194">
        <ele>452</ele>
        <time>2021-07-27T06:18:15Z</time>
      </trkpt>
      <trkpt lat="45.9112" lon="3.05194">
        <ele>452</ele>
        <time>2021-07-27T06:18:16Z</time>
      </trkpt>
      <trkpt lat="45.91121" lon="3.05193">
        <ele>452</ele>
        <time>2021-07-27T06:18:17Z</time>
      </trkpt>
      <trkpt lat="45.91121" lon="3.05193">
        <ele>452</ele>
        <time>2021-07-27T06:18:18Z</time>
      </trkpt>
      <trkpt lat="45.91121" lon="3.05192">
        <ele>452</ele>
        <time>2021-07-27T06:18:19Z</time>
      </trkpt>
      <trkpt lat="45.91121" lon="3.05191">
        <ele>452</ele>
        <time>2021-07-27T06:18:20Z</time>
      </trkpt>
      <trkpt lat="45.91122" lon="3.0519">
        <ele>452</ele>
        <time>2021-07-27T06:18:21Z</time>
      </trkpt>
      <trkpt lat="45.91123" lon="3.05189">
        <ele>452</ele>
        <time>2021-07-27T06:18:22Z</time>
      </trkpt>
      <trkpt lat="45.91124" lon="3.05189">
        <ele>452</ele>
        <time>2021-07-27T06:18:23Z</time>
      </trkpt>
      <trkpt lat="45.91124" lon="3.05188">
        <ele>452</ele>
        <time>2021-07-27T06:18:24Z</time>
      </trkpt>
      <trkpt lat="45.91126" lon="3.05187">
        <ele>452</ele>
        <time>2021-07-27T06:18:25Z</time>
      </trkpt>
      <trkpt lat="45.91127" lon="3.05187">
        <ele>452</ele>
        <time>2021-07-27T06:18:26Z</time>
      </trkpt>
      <trkpt lat="45.91127" lon="3.05186">
        <ele>452</ele>
        <time>2021-07-27T06:18:27Z</time>
      </trkpt>
      <trkpt lat="45.91129" lon="3.05186">
        <ele>452</ele>
        <time>2021-07-27T06:18:28Z</time>
      </trkpt>
      <trkpt lat="45.9113" lon="3.05185">
        <ele>452</ele>
        <time>2021-07-27T06:18:29Z</time>
      </trkpt>
      <trkpt lat="45.9113" lon="3.05184">
        <ele>452</ele>
        <time>2021-07-27T06:18:30Z</time>
      </trkpt>
      <trkpt lat="45.91131" lon="3.05184">
        <ele>452</ele>
        <time>2021-07-27T06:18:31Z</time>
      </trkpt>
      <trkpt lat="45.91132" lon="3.05183">
        <ele>452</ele>
        <time>2021-07-27T06:18:32Z</time>
      </trkpt>
      <trkpt lat="45.91133" lon="3.05182">
        <ele>452</ele>
        <time>2021-07-27T06:18:33Z</time>
      </trkpt>
      <trkpt lat="45.91134" lon="3.05181">
        <ele>452</ele>
        <time>2021-07-27T06:18:34Z</time>
      </trkpt>
      <trkpt lat="45.91134" lon="3.05181">
        <ele>452</ele>
        <time>2021-07-27T06:18:35Z</time>
      </trkpt>
      <trkpt lat="45.91135" lon="3.05179">
        <ele>452</ele>
        <time>2021-07-27T06:18:36Z</time>
      </trkpt>
      <trkpt lat="45.91136" lon="3.05178">
        <ele>452</ele>
        <time>2021-07-27T06:18:37Z</time>
      </trkpt>
      <trkpt lat="45.91137" lon="3.05177">
        <ele>452</ele>
        <time>2021-07-27T06:18:38Z</time>
      </trkpt>
      <trkpt lat="45.91137" lon="3.05175">
        <ele>452</ele>
        <time>2021-07-27T06:18:39Z</time>
      </trkpt>
      <trkpt lat="45.91138" lon="3.05174">
        <ele>452</ele>
        <time>2021-07-27T06:18:40Z</time>
      </trkpt>
      <trkpt lat="45.91139" lon="3.05173">
        <ele>452</ele>
        <time>2021-07-27T06:18:41Z</time>
      </trkpt>
      <trkpt lat="45.9114" lon="3.05171">
        <ele>452</ele>
        <time>2021-07-27T06:18:42Z</time>
      </trkpt>
      <trkpt lat="45.9114" lon="3.05169">
        <ele>452</ele>
        <time>2021-07-27T06:18:43Z</time>
      </trkpt>
      <trkpt lat="45.91142" lon="3.05168">
        <ele>452</ele>
        <time>2021-07-27T06:18:44Z</time>
      </trkpt>
      <trkpt lat="45.91142" lon="3.05166">
        <ele>452</ele>
        <time>2021-07-27T06:18:45Z</time>
      </trkpt>
      <trkpt lat="45.91143" lon="3.05165">
        <ele>452</ele>
        <time>2021-07-27T06:18:46Z</time>
      </trkpt>
      <trkpt lat="45.91144" lon="3.05163">
        <ele>452</ele>
        <time>2021-07-27T06:18:47Z</time>
      </trkpt>
      <trkpt lat="45.91145" lon="3.05162">
        <ele>452</ele>
        <time>2021-07-27T06:18:48Z</time>
      </trkpt>
      <trkpt lat="45.91145" lon="3.05161">
        <ele>452</ele>
        <time>2021-07-27T06:18:49Z</time>
      </trkpt>
      <trkpt lat="45.91146" lon="3.05159">
        <ele>452</ele>
        <time>2021-07-27T06:18:50Z</time>
      </trkpt>
      <trkpt lat="45.91147" lon="3.05157">
        <ele>452</ele>
        <time>2021-07-27T06:18:51Z</time>
      </trkpt>
      <trkpt lat="45.91147" lon="3.05156">
        <ele>452</ele>
        <time>2021-07-27T06:18:52Z</time>
      </trkpt>
      <trkpt lat="45.91148" lon="3.05154">
        <ele>452</ele>
        <time>2021-07-27T06:18:53Z</time>
      </trkpt>
      <trkpt lat="45.91148" lon="3.05152">
        <ele>452</ele>
        <time>2021-07-27T06:18:54Z</time>
      </trkpt>
      <trkpt lat="45.91149" lon="3.05151">
        <ele>452</ele>
        <time>2021-07-27T06:18:55Z</time>
      </trkpt>
      <trkpt lat="45.9115" lon="3.05149">
        <ele>452</ele>
        <time>2021-07-27T06:18:57Z</time>
      </trkpt>
      <trkpt lat="45.91153" lon="3.05142">
        <ele>452</ele>
        <time>2021-07-27T06:18:58Z</time>
      </trkpt>
      <trkpt lat="45.91153" lon="3.05142">
        <ele>452</ele>
        <time>2021-07-27T06:18:59Z</time>
      </trkpt>
      <trkpt lat="45.91154" lon="3.05141">
        <ele>452</ele>
        <time>2021-07-27T06:19:00Z</time>
      </trkpt>
      <trkpt lat="45.91154" lon="3.0514">
        <ele>452</ele>
        <time>2021-07-27T06:19:01Z</time>
      </trkpt>
      <trkpt lat="45.91155" lon="3.05139">
        <ele>452</ele>
        <time>2021-07-27T06:19:02Z</time>
      </trkpt>
      <trkpt lat="45.91156" lon="3.05138">
        <ele>452</ele>
        <time>2021-07-27T06:19:03Z</time>
      </trkpt>
      <trkpt lat="45.91157" lon="3.05137">
        <ele>452</ele>
        <time>2021-07-27T06:19:04Z</time>
      </trkpt>
      <trkpt lat="45.91158" lon="3.05135">
        <ele>452</ele>
        <time>2021-07-27T06:19:05Z</time>
      </trkpt>
      <trkpt lat="45.91159" lon="3.05134">
        <ele>452</ele>
        <time>2021-07-27T06:19:06Z</time>
      </trkpt>
      <trkpt lat="45.9116" lon="3.05133">
        <ele>452</ele>
        <time>2021-07-27T06:19:07Z</time>
      </trkpt>
      <trkpt lat="45.91162" lon="3.05132">
        <ele>452</ele>
        <time>2021-07-27T06:19:08Z</time>
      </trkpt>
      <trkpt lat="45.91163" lon="3.05131">
        <ele>452</ele>
        <time>2021-07-27T06:19:09Z</time>
      </trkpt>
      <trkpt lat="45.91164" lon="3.0513">
        <ele>452</ele>
        <time>2021-07-27T06:19:10Z</time>
      </trkpt>
      <trkpt lat="45.91166" lon="3.0513">
        <ele>452</ele>
        <time>2021-07-27T06:19:11Z</time>
      </trkpt>
      <trkpt lat="45.91167" lon="3.0513">
        <ele>452</ele>
        <time>2021-07-27T06:19:12Z</time>
      </trkpt>
      <trkpt lat="45.91169" lon="3.05129">
        <ele>452</ele>
        <time>2021-07-27T06:19:13Z</time>
      </trkpt>
      <trkpt lat="45.9117" lon="3.05129">
        <ele>452</ele>
        <time>2021-07-27T06:19:14Z</time>
      </trkpt>
      <trkpt lat="45.91172" lon="3.05128">
        <ele>452</ele>
        <time>2021-07-27T06:19:15Z</time>
      </trkpt>
      <trkpt lat="45.91173" lon="3.05127">
        <ele>452</ele>
        <time>2021-07-27T06:19:16Z</time>
      </trkpt>
      <trkpt lat="45.91174" lon="3.05126">
        <ele>452</ele>
        <time>2021-07-27T06:19:17Z</time>
      </trkpt>
      <trkpt lat="45.91175" lon="3.05125">
        <ele>452</ele>
        <time>2021-07-27T06:19:18Z</time>
      </trkpt>
      <trkpt lat="45.91176" lon="3.05123">
        <ele>452</ele>
        <time>2021-07-27T06:19:19Z</time>
      </trkpt>
      <trkpt lat="45.91177" lon="3.05122">
        <ele>452</ele>
        <time>2021-07-27T06:19:20Z</time>
      </trkpt>
      <trkpt lat="45.91178" lon="3.0512">
        <ele>452</ele>
        <time>2021-07-27T06:19:21Z</time>
      </trkpt>
      <trkpt lat="45.91179" lon="3.05119">
        <ele>452</ele>
        <time>2021-07-27T06:19:22Z</time>
      </trkpt>
      <trkpt lat="45.9118" lon="3.05117">
        <ele>452</ele>
        <time>2021-07-27T06:19:23Z</time>
      </trkpt>
      <trkpt lat="45.91181" lon="3.05116">
        <ele>452</ele>
        <time>2021-07-27T06:19:24Z</time>
      </trkpt>
      <trkpt lat="45.91182" lon="3.05114">
        <ele>452</ele>
        <time>2021-07-27T06:19:25Z</time>
      </trkpt>
      <trkpt lat="45.91183" lon="3.05113">
        <ele>452</ele>
        <time>2021-07-27T06:19:26Z</time>
      </trkpt>
      <trkpt lat="45.91184" lon="3.05112">
        <ele>452</ele>
        <time>2021-07-27T06:19:27Z</time>
      </trkpt>
      <trkpt lat="45.91185" lon="3.0511">
        <ele>452</ele>
        <time>2021-07-27T06:19:28Z</time>
      </trkpt>
      <trkpt lat="45.91187" lon="3.05109">
        <ele>452</ele>
        <time>2021-07-27T06:19:29Z</time>
      </trkpt>
      <trkpt lat="45.91187" lon="3.05108">
        <ele>452</ele>
        <time>2021-07-27T06:19:30Z</time>
      </trkpt>
      <trkpt lat="45.91188" lon="3.05107">
        <ele>452</ele>
        <time>2021-07-27T06:19:31Z</time>
      </trkpt>
      <trkpt lat="45.91189" lon="3.05106">
        <ele>452</ele>
        <time>2021-07-27T06:19:32Z</time>
      </trkpt>
      <trkpt lat="45.9119" lon="3.05104">
        <ele>452</ele>
        <time>2021-07-27T06:19:33Z</time>
      </trkpt>
      <trkpt lat="45.9119" lon="3.05103">
        <ele>452</ele>
        <time>2021-07-27T06:19:34Z</time>
      </trkpt>
      <trkpt lat="45.91192" lon="3.05102">
        <ele>452</ele>
        <time>2021-07-27T06:19:35Z</time>
      </trkpt>
      <trkpt lat="45.91193" lon="3.05102">
        <ele>452</ele>
        <time>2021-07-27T06:19:36Z</time>
      </trkpt>
      <trkpt lat="45.91193" lon="3.05101">
        <ele>452</ele>
        <time>2021-07-27T06:19:37Z</time>
      </trkpt>
      <trkpt lat="45.91194" lon="3.05101">
        <ele>452</ele>
        <time>2021-07-27T06:19:38Z</time>
      </trkpt>
      <trkpt lat="45.91195" lon="3.051">
        <ele>452</ele>
        <time>2021-07-27T06:19:39Z</time>
      </trkpt>
      <trkpt lat="45.91196" lon="3.05099">
        <ele>452</ele>
        <time>2021-07-27T06:19:40Z</time>
      </trkpt>
      <trkpt lat="45.91197" lon="3.05098">
        <ele>452</ele>
        <time>2021-07-27T06:19:41Z</time>
      </trkpt>
      <trkpt lat="45.91198" lon="3.05097">
        <ele>452</ele>
        <time>2021-07-27T06:19:42Z</time>
      </trkpt>
      <trkpt lat="45.912" lon="3.05096">
        <ele>452</ele>
        <time>2021-07-27T06:19:43Z</time>
      </trkpt>
      <trkpt lat="45.91201" lon="3.05095">
        <ele>452</ele>
        <time>2021-07-27T06:19:44Z</time>
      </trkpt>
      <trkpt lat="45.91202" lon="3.05093">
        <ele>452</ele>
        <time>2021-07-27T06:19:45Z</time>
      </trkpt>
      <trkpt lat="45.91203" lon="3.05092">
        <ele>452</ele>
        <time>2021-07-27T06:19:46Z</time>
      </trkpt>
      <trkpt lat="45.91204" lon="3.05091">
        <ele>452</ele>
        <time>2021-07-27T06:19:47Z</time>
      </trkpt>
      <trkpt lat="45.91205" lon="3.05089">
        <ele>452</ele>
        <time>2021-07-27T06:19:48Z</time>
      </trkpt>
      <trkpt lat="45.91206" lon="3.05088">
        <ele>452</ele>
        <time>2021-07-27T06:19:49Z</time>
      </trkpt>
      <trkpt lat="45.91207" lon="3.05087">
        <ele>452</ele>
        <time>2021-07-27T06:19:50Z</time>
      </trkpt>
      <trkpt lat="45.91208" lon="3.05086">
        <ele>452</ele>
        <time>2021-07-27T06:19:51Z</time>
      </trkpt>
      <trkpt lat="45.91209" lon="3.05085">
        <ele>452</ele>
        <time>2021-07-27T06:19:52Z</time>
      </trkpt>
      <trkpt lat="45.91211" lon="3.05084">
        <ele>452</ele>
        <time>2021-07-27T06:19:53Z</time>
      </trkpt>
      <trkpt lat="45.91212" lon="3.05083">
        <ele>452</ele>
        <time>2021-07-27T06:19:54Z</time>
      </trkpt>
      <trkpt lat="45.91213" lon="3.05082">
        <ele>452</ele>
        <time>2021-07-27T06:19:55Z</time>
      </trkpt>
      <trkpt lat="45.91214" lon="3.05082">
        <ele>452</ele>
        <time>2021-07-27T06:19:57Z</time>
      </trkpt>
      <trkpt lat="45.91219" lon="3.05078">
        <ele>452</ele>
        <time>2021-07-27T06:19:58Z</time>
      </trkpt>
      <trkpt lat="45.91219" lon="3.05078">
        <ele>452</ele>
        <time>2021-07-27T06:19:59Z</time>
      </trkpt>
      <trkpt lat="45.9122" lon="3.05077">
        <ele>452</ele>
        <time>2021-07-27T06:20:00Z</time>
      </trkpt>
      <trkpt lat="45.9122" lon="3.05076">
        <ele>452</ele>
        <time>2021-07-27T06:20:01Z</time>
      </trkpt>
      <trkpt lat="45.91221" lon="3.05074">
        <ele>452</ele>
        <time>2021-07-27T06:20:02Z</time>
      </trkpt>
      <trkpt lat="45.91221" lon="3.05072">
        <ele>452</ele>
        <time>2021-07-27T06:20:02Z</time>
      </trkpt>
      <trkpt lat="45.91222" lon="3.05071">
        <ele>452</ele>
        <time>2021-07-27T06:20:03Z</time>
      </trkpt>
      <trkpt lat="45.91222" lon="3.0507">
        <ele>452</ele>
        <time>2021-07-27T06:20:04Z</time>
      </trkpt>
      <trkpt lat="45.91223" lon="3.05069">
        <ele>452</ele>
        <time>2021-07-27T06:20:05Z</time>
      </trkpt>
      <trkpt lat="45.91224" lon="3.05068">
        <ele>452</ele>
        <time>2021-07-27T06:20:06Z</time>
      </trkpt>
      <trkpt lat="45.91224" lon="3.05067">
        <ele>452</ele>
        <time>2021-07-27T06:20:07Z</time>
      </trkpt>
      <trkpt lat="45.91225" lon="3.05067">
        <ele>452</ele>
        <time>2021-07-27T06:20:08Z</time>
      </trkpt>
      <trkpt lat="45.91226" lon="3.05066">
        <ele>452</ele>
        <time>2021-07-27T06:20:09Z</time>
      </trkpt>
      <trkpt lat="45.91227" lon="3.05065">
        <ele>452</ele>
        <time>2021-07-27T06:20:10Z</time>
      </trkpt>
      <trkpt lat="45.91229" lon="3.05064">
        <ele>452</ele>
        <time>2021-07-27T06:20:11Z</time>
      </trkpt>
      <trkpt lat="45.9123" lon="3.05063">
        <ele>452</ele>
        <time>2021-07-27T06:20:12Z</time>
      </trkpt>
      <trkpt lat="45.91232" lon="3.05062">
        <ele>452</ele>
        <time>2021-07-27T06:20:13Z</time>
      </trkpt>
      <trkpt lat="45.91233" lon="3.05061">
        <ele>452</ele>
        <time>2021-07-27T06:20:14Z</time>
      </trkpt>
      <trkpt lat="45.91233" lon="3.0506">
        <ele>452</ele>
        <time>2021-07-27T06:20:15Z</time>
      </trkpt>
      <trkpt lat="45.91235" lon="3.05059">
        <ele>452</ele>
        <time>2021-07-27T06:20:16Z</time>
      </trkpt>
      <trkpt lat="45.91236" lon="3.05057">
        <ele>452</ele>
        <time>2021-07-27T06:20:17Z</time>
      </trkpt>
      <trkpt lat="45.91237" lon="3.05056">
        <ele>452</ele>
        <time>2021-07-27T06:20:18Z</time>
      </trkpt>
      <trkpt lat="45.91237" lon="3.05055">
        <ele>452</ele>
        <time>2021-07-27T06:20:19Z</time>
      </trkpt>
      <trkpt lat="45.91238" lon="3.05054">
        <ele>452</ele>
        <time>2021-07-27T06:20:20Z</time>
      </trkpt>
      <trkpt lat="45.91239" lon="3.05052">
        <ele>452</ele>
        <time>2021-07-27T06:20:21Z</time>
      </trkpt>
      <trkpt lat="45.9124" lon="3.05051">
        <ele>452</ele>
        <time>2021-07-27T06:20:22Z</time>
      </trkpt>
      <trkpt lat="45.91241" lon="3.0505">
        <ele>452</ele>
        <time>2021-07-27T06:20:23Z</time>
      </trkpt>
      <trkpt lat="45.91242" lon="3.05048">
        <ele>452</ele>
        <time>2021-07-27T06:20:24Z</time>
      </trkpt>
      <trkpt lat="45.91243" lon="3.05047">
        <ele>452</ele>
        <time>2021-07-27T06:20:25Z</time>
      </trkpt>
      <trkpt lat="45.91244" lon="3.05045">
        <ele>452</ele>
        <time>2021-07-27T06:20:26Z</time>
      </trkpt>
      <trkpt lat="45.91245" lon="3.05044">
        <ele>452</ele>
        <time>2021-07-27T06:20:27Z</time>
      </trkpt>
      <trkpt lat="45.91246" lon="3.05042">
        <ele>452</ele>
        <time>2021-07-27T06:20:28Z</time>
      </trkpt>
      <trkpt lat="45.91246" lon="3.05041">
        <ele>452</ele>
        <time>2021-07-27T06:20:29Z</time>
      </trkpt>
      <trkpt lat="45.91247" lon="3.0504">
        <ele>452</ele>
        <time>2021-07-27T06:20:30Z</time>
      </trkpt>
      <trkpt lat="45.91248" lon="3.05039">
        <ele>452</ele>
        <time>2021-07-27T06:20:31Z</time>
      </trkpt>
      <trkpt lat="45.9125" lon="3.05038">
        <ele>452</ele>
        <time>2021-07-27T06:20:32Z</time>
      </trkpt>
      <trkpt lat="45.91251" lon="3.05037">
        <ele>452</ele>
        <time>2021-07-27T06:20:33Z</time>
      </trkpt>
      <trkpt lat="45.91251" lon="3.05037">
        <ele>452</ele>
        <time>2021-07-27T06:20:34Z</time>
      </trkpt>
      <trkpt lat="45.91253" lon="3.05036">
        <ele>452</ele>
        <time>2021-07-27T06:20:35Z</time>
      </trkpt>
      <trkpt lat="45.91254" lon="3.05035">
        <ele>452</ele>
        <time>2021-07-27T06:20:36Z</time>
      </trkpt>
      <trkpt lat="45.91254" lon="3.05034">
        <ele>452</ele>
        <time>2021-07-27T06:20:37Z</time>
      </trkpt>
      <trkpt lat="45.91256" lon="3.05033">
        <ele>452</ele>
        <time>2021-07-27T06:20:38Z</time>
      </trkpt>
      <trkpt lat="45.91257" lon="3.05032">
        <ele>452</ele>
        <time>2021-07-27T06:20:39Z</time>
      </trkpt>
      <trkpt lat="45.91258" lon="3.0503">
        <ele>452</ele>
        <time>2021-07-27T06:20:40Z</time>
      </trkpt>
      <trkpt lat="45.91259" lon="3.05029">
        <ele>452</ele>
        <time>2021-07-27T06:20:41Z</time>
      </trkpt>
      <trkpt lat="45.91261" lon="3.05027">
        <ele>452</ele>
        <time>2021-07-27T06:20:42Z</time>
      </trkpt>
      <trkpt lat="45.91262" lon="3.05026">
        <ele>452</ele>
        <time>2021-07-27T06:20:43Z</time>
      </trkpt>
      <trkpt lat="45.91263" lon="3.05025">
        <ele>452</ele>
        <time>2021-07-27T06:20:44Z</time>
      </trkpt>
      <trkpt lat="45.91264" lon="3.05023">
        <ele>452</ele>
        <time>2021-07-27T06:20:45Z</time>
      </trkpt>
      <trkpt lat="45.91265" lon="3.05022">
        <ele>452</ele>
        <time>2021-07-27T06:20:46Z</time>
      </trkpt>
      <trkpt lat="45.91265" lon="3.0502">
        <ele>452</ele>
        <time>2021-07-27T06:20:47Z</time>
      </trkpt>
      <trkpt lat="45.91266" lon="3.05019">
        <ele>452</ele>
        <time>2021-07-27T06:20:48Z</time>
      </trkpt>
      <trkpt lat="45.91267" lon="3.05018">
        <ele>452</ele>
        <time>2021-07-27T06:20:49Z</time>
      </trkpt>
      <trkpt lat="45.91268" lon="3.05017">
        <ele>452</ele>
        <time>2021-07-27T06:20:50Z</time>
      </trkpt>
      <trkpt lat="45.91269" lon="3.05016">
        <ele>452</ele>
        <time>2021-07-27T06:20:51Z</time>
      </trkpt>
      <trkpt lat="45.91269" lon="3.05014">
        <ele>452</ele>
        <time>2021-07-27T06:20:52Z</time>
      </trkpt>
      <trkpt lat="45.9127" lon="3.05013">
        <ele>452</ele>
        <time>2021-07-27T06:20:53Z</time>
      </trkpt>
      <trkpt lat="45.9127" lon="3.05011">
        <ele>452</ele>
        <time>2021-07-27T06:20:54Z</time>
      </trkpt>
      <trkpt lat="45.91272" lon="3.05009">
        <ele>452</ele>
        <time>2021-07-27T06:20:55Z</time>
      </trkpt>
      <trkpt lat="45.91272" lon="3.05008">
        <ele>452</ele>
        <time>2021-07-27T06:20:57Z</time>
      </trkpt>
      <trkpt lat="45.91275" lon="3.05001">
        <ele>452</ele>
        <time>2021-07-27T06:20:58Z</time>
      </trkpt>
      <trkpt lat="45.91275" lon="3.05001">
        <ele>452</ele>
        <time>2021-07-27T06:20:59Z</time>
      </trkpt>
      <trkpt lat="45.91275" lon="3.05">
        <ele>452</ele>
        <time>2021-07-27T06:21:00Z</time>
      </trkpt>
      <trkpt lat="45.91275" lon="3.04998">
        <ele>452</ele>
        <time>2021-07-27T06:21:01Z</time>
      </trkpt>
      <trkpt lat="45.91275" lon="3.04997">
        <ele>452</ele>
        <time>2021-07-27T06:21:02Z</time>
      </trkpt>
      <trkpt lat="45.91275" lon="3.04995">
        <ele>452</ele>
        <time>2021-07-27T06:21:03Z</time>
      </trkpt>
      <trkpt lat="45.91275" lon="3.04994">
        <ele>452</ele>
        <time>2021-07-27T06:21:04Z</time>
      </trkpt>
      <trkpt lat="45.91275" lon="3.04992">
        <ele>452</ele>
        <time>2021-07-27T06:21:05Z</time>
      </trkpt>
      <trkpt lat="45.91275" lon="3.0499">
        <ele>452</ele>
        <time>2021-07-27T06:21:06Z</time>
      </trkpt>
      <trkpt lat="45.91275" lon="3.04988">
        <ele>452</ele>
        <time>2021-07-27T06:21:07Z</time>
      </trkpt>
      <trkpt lat="45.91275" lon="3.04987">
        <ele>452</ele>
        <time>2021-07-27T06:21:08Z</time>
      </trkpt>
      <trkpt lat="45.91274" lon="3.04985">
        <ele>452</ele>
        <time>2021-07-27T06:21:09Z</time>
      </trkpt>
      <trkpt lat="45.91274" lon="3.04983">
        <ele>452</ele>
        <time>2021-07-27T06:21:10Z</time>
      </trkpt>
      <trkpt lat="45.91274" lon="3.04982">
        <ele>452</ele>
        <time>2021-07-27T06:21:11Z</time>
      </trkpt>
      <trkpt lat="45.91274" lon="3.0498">
        <ele>452</ele>
        <time>2021-07-27T06:21:12Z</time>
      </trkpt>
      <trkpt lat="45.91274" lon="3.04978">
        <ele>452</ele>
        <time>2021-07-27T06:21:13Z</time>
      </trkpt>
      <trkpt lat="45.91274" lon="3.04976">
        <ele>452</ele>
        <time>2021-07-27T06:21:14Z</time>
      </trkpt>
      <trkpt lat="45.91274" lon="3.04974">
        <ele>452</ele>
        <time>2021-07-27T06:21:15Z</time>
      </trkpt>
      <trkpt lat="45.91275" lon="3.04972">
        <ele>452</ele>
        <time>2021-07-27T06:21:16Z</time>
      </trkpt>
      <trkpt lat="45.91275" lon="3.04969">
        <ele>452</ele>
        <time>2021-07-27T06:21:17Z</time>
      </trkpt>
      <trkpt lat="45.91275" lon="3.04967">
        <ele>452</ele>
        <time>2021-07-27T06:21:18Z</time>
      </trkpt>
      <trkpt lat="45.91275" lon="3.04965">
        <ele>452</ele>
        <time>2021-07-27T06:21:19Z</time>
      </trkpt>
      <trkpt lat="45.91276" lon="3.04963">
        <ele>452</ele>
        <time>2021-07-27T06:21:20Z</time>
      </trkpt>
      <trkpt lat="45.91277" lon="3.04961">
        <ele>452</ele>
        <time>2021-07-27T06:21:21Z</time>
      </trkpt>
      <trkpt lat="45.91278" lon="3.04959">
        <ele>452</ele>
        <time>2021-07-27T06:21:22Z</time>
      </trkpt>
      <trkpt lat="45.91278" lon="3.04958">
        <ele>452</ele>
        <time>2021-07-27T06:21:23Z</time>
      </trkpt>
      <trkpt lat="45.91279" lon="3.04956">
        <ele>452</ele>
        <time>2021-07-27T06:21:24Z</time>
      </trkpt>
      <trkpt lat="45.9128" lon="3.04954">
        <ele>452</ele>
        <time>2021-07-27T06:21:25Z</time>
      </trkpt>
      <trkpt lat="45.91281" lon="3.04953">
        <ele>452</ele>
        <time>2021-07-27T06:21:26Z</time>
      </trkpt>
      <trkpt lat="45.91282" lon="3.04952">
        <ele>452</ele>
        <time>2021-07-27T06:21:27Z</time>
      </trkpt>
      <trkpt lat="45.91283" lon="3.0495">
        <ele>452</ele>
        <time>2021-07-27T06:21:28Z</time>
      </trkpt>
      <trkpt lat="45.91283" lon="3.04949">
        <ele>452</ele>
        <time>2021-07-27T06:21:29Z</time>
      </trkpt>
      <trkpt lat="45.91284" lon="3.04947">
        <ele>452</ele>
        <time>2021-07-27T06:21:30Z</time>
      </trkpt>
      <trkpt lat="45.91285" lon="3.04946">
        <ele>452</ele>
        <time>2021-07-27T06:21:31Z</time>
      </trkpt>
      <trkpt lat="45.91286" lon="3.04945">
        <ele>452</ele>
        <time>2021-07-27T06:21:32Z</time>
      </trkpt>
      <trkpt lat="45.91287" lon="3.04943">
        <ele>452</ele>
        <time>2021-07-27T06:21:33Z</time>
      </trkpt>
      <trkpt lat="45.91288" lon="3.04942">
        <ele>452</ele>
        <time>2021-07-27T06:21:34Z</time>
      </trkpt>
      <trkpt lat="45.91289" lon="3.04941">
        <ele>452</ele>
        <time>2021-07-27T06:21:35Z</time>
      </trkpt>
      <trkpt lat="45.9129" lon="3.0494">
        <ele>452</ele>
        <time>2021-07-27T06:21:36Z</time>
      </trkpt>
      <trkpt lat="45.9129" lon="3.04939">
        <ele>452</ele>
        <time>2021-07-27T06:21:37Z</time>
      </trkpt>
      <trkpt lat="45.91291" lon="3.04938">
        <ele>452</ele>
        <time>2021-07-27T06:21:38Z</time>
      </trkpt>
      <trkpt lat="45.91292" lon="3.04936">
        <ele>452</ele>
        <time>2021-07-27T06:21:39Z</time>
      </trkpt>
      <trkpt lat="45.91293" lon="3.04935">
        <ele>452</ele>
        <time>2021-07-27T06:21:40Z</time>
      </trkpt>
      <trkpt lat="45.91295" lon="3.04934">
        <ele>452</ele>
        <time>2021-07-27T06:21:41Z</time>
      </trkpt>
      <trkpt lat="45.91296" lon="3.04932">
        <ele>452</ele>
        <time>2021-07-27T06:21:42Z</time>
      </trkpt>
      <trkpt lat="45.91297" lon="3.0493">
        <ele>452</ele>
        <time>2021-07-27T06:21:43Z</time>
      </trkpt>
      <trkpt lat="45.91299" lon="3.04929">
        <ele>452</ele>
        <time>2021-07-27T06:21:44Z</time>
      </trkpt>
      <trkpt lat="45.91299" lon="3.04927">
        <ele>452</ele>
        <time>2021-07-27T06:21:45Z</time>
      </trkpt>
      <trkpt lat="45.91301" lon="3.04926">
        <ele>452</ele>
        <time>2021-07-27T06:21:46Z</time>
      </trkpt>
      <trkpt lat="45.91302" lon="3.04924">
        <ele>452</ele>
        <time>2021-07-27T06:21:47Z</time>
      </trkpt>
      <trkpt lat="45.91303" lon="3.04922">
        <ele>452</ele>
        <time>2021-07-27T06:21:48Z</time>
      </trkpt>
      <trkpt lat="45.91304" lon="3.0492">
        <ele>452</ele>
        <time>2021-07-27T06:21:49Z</time>
      </trkpt>
      <trkpt lat="45.91305" lon="3.04919">
        <ele>452</ele>
        <time>2021-07-27T06:21:50Z</time>
      </trkpt>
      <trkpt lat="45.91306" lon="3.04917">
        <ele>452</ele>
        <time>2021-07-27T06:21:51Z</time>
      </trkpt>
      <trkpt lat="45.91307" lon="3.04916">
        <ele>452</ele>
        <time>2021-07-27T06:21:52Z</time>
      </trkpt>
      <trkpt lat="45.91308" lon="3.04915">
        <ele>452</ele>
        <time>2021-07-27T06:21:53Z</time>
      </trkpt>
      <trkpt lat="45.91309" lon="3.04913">
        <ele>452</ele>
        <time>2021-07-27T06:21:54Z</time>
      </trkpt>
      <trkpt lat="45.9131" lon="3.04912">
        <ele>452</ele>
        <time>2021-07-27T06:21:56Z</time>
      </trkpt>
      <trkpt lat="45.91311" lon="3.04911">
        <ele>452</ele>
        <time>2021-07-27T06:21:57Z</time>
      </trkpt>
      <trkpt lat="45.91314" lon="3.04908">
        <ele>452</ele>
        <time>2021-07-27T06:21:58Z</time>
      </trkpt>
      <trkpt lat="45.91314" lon="3.04908">
        <ele>452</ele>
        <time>2021-07-27T06:21:59Z</time>
      </trkpt>
      <trkpt lat="45.91314" lon="3.04907">
        <ele>452</ele>
        <time>2021-07-27T06:22:00Z</time>
      </trkpt>
      <trkpt lat="45.91314" lon="3.04907">
        <ele>452</ele>
        <time>2021-07-27T06:22:01Z</time>
      </trkpt>
      <trkpt lat="45.91315" lon="3.04906">
        <ele>452</ele>
        <time>2021-07-27T06:22:02Z</time>
      </trkpt>
      <trkpt lat="45.91316" lon="3.04905">
        <ele>452</ele>
        <time>2021-07-27T06:22:03Z</time>
      </trkpt>
      <trkpt lat="45.91317" lon="3.04905">
        <ele>452</ele>
        <time>2021-07-27T06:22:04Z</time>
      </trkpt>
      <trkpt lat="45.91317" lon="3.04904">
        <ele>452</ele>
        <time>2021-07-27T06:22:05Z</time>
      </trkpt>
      <trkpt lat="45.91318" lon="3.04903">
        <ele>452</ele>
        <time>2021-07-27T06:22:06Z</time>
      </trkpt>
      <trkpt lat="45.91319" lon="3.04903">
        <ele>452</ele>
        <time>2021-07-27T06:22:07Z</time>
      </trkpt>
      <trkpt lat="45.9132" lon="3.04904">
        <ele>452</ele>
        <time>2021-07-27T06:22:08Z</time>
      </trkpt>
      <trkpt lat="45.91321" lon="3.04905">
        <ele>452</ele>
        <time>2021-07-27T06:22:09Z</time>
      </trkpt>
      <trkpt lat="45.91322" lon="3.04906">
        <ele>452</ele>
        <time>2021-07-27T06:22:10Z</time>
      </trkpt>
      <trkpt lat="45.91323" lon="3.04907">
        <ele>452</ele>
        <time>2021-07-27T06:22:11Z</time>
      </trkpt>
      <trkpt lat="45.91323" lon="3.04909">
        <ele>452</ele>
        <time>2021-07-27T06:22:12Z</time>
      </trkpt>
      <trkpt lat="45.91324" lon="3.0491">
        <ele>452</ele>
        <time>2021-07-27T06:22:13Z</time>
      </trkpt>
      <trkpt lat="45.91325" lon="3.04912">
        <ele>452</ele>
        <time>2021-07-27T06:22:14Z</time>
      </trkpt>
      <trkpt lat="45.91326" lon="3.04914">
        <ele>452</ele>
        <time>2021-07-27T06:22:15Z</time>
      </trkpt>
      <trkpt lat="45.91326" lon="3.04916">
        <ele>452</ele>
        <time>2021-07-27T06:22:16Z</time>
      </trkpt>
      <trkpt lat="45.91327" lon="3.04918">
        <ele>452</ele>
        <time>2021-07-27T06:22:17Z</time>
      </trkpt>
      <trkpt lat="45.91328" lon="3.0492">
        <ele>452</ele>
        <time>2021-07-27T06:22:18Z</time>
      </trkpt>
      <trkpt lat="45.91328" lon="3.04922">
        <ele>452</ele>
        <time>2021-07-27T06:22:19Z</time>
      </trkpt>
      <trkpt lat="45.91329" lon="3.04924">
        <ele>452</ele>
        <time>2021-07-27T06:22:20Z</time>
      </trkpt>
      <trkpt lat="45.9133" lon="3.04925">
        <ele>452</ele>
        <time>2021-07-27T06:22:21Z</time>
      </trkpt>
      <trkpt lat="45.91332" lon="3.04927">
        <ele>452</ele>
        <time>2021-07-27T06:22:22Z</time>
      </trkpt>
      <trkpt lat="45.91332" lon="3.04928">
        <ele>452</ele>
        <time>2021-07-27T06:22:23Z</time>
      </trkpt>
      <trkpt lat="45.91334" lon="3.04929">
        <ele>452</ele>
        <time>2021-07-27T06:22:24Z</time>
      </trkpt>
      <trkpt lat="45.91335" lon="3.0493">
        <ele>452</ele>
        <time>2021-07-27T06:22:25Z</time>
      </trkpt>
      <trkpt lat="45.91337" lon="3.0493">
        <ele>452</ele>
        <time>2021-07-27T06:22:26Z</time>
      </trkpt>
      <trkpt lat="45.91338" lon="3.04929">
        <ele>452</ele>
        <time>2021-07-27T06:22:27Z</time>
      </trkpt>
      <trkpt lat="45.9134" lon="3.04929">
        <ele>452</ele>
        <time>2021-07-27T06:22:28Z</time>
      </trkpt>
      <trkpt lat="45.91341" lon="3.04928">
        <ele>452</ele>
        <time>2021-07-27T06:22:29Z</time>
      </trkpt>
      <trkpt lat="45.91343" lon="3.04927">
        <ele>452</ele>
        <time>2021-07-27T06:22:30Z</time>
      </trkpt>
      <trkpt lat="45.91344" lon="3.04926">
        <ele>452</ele>
        <time>2021-07-27T06:22:31Z</time>
      </trkpt>
      <trkpt lat="45.91345" lon="3.04925">
        <ele>452</ele>
        <time>2021-07-27T06:22:32Z</time>
      </trkpt>
      <trkpt lat="45.91346" lon="3.04924">
        <ele>452</ele>
        <time>2021-07-27T06:22:33Z</time>
      </trkpt>
      <trkpt lat="45.91347" lon="3.04923">
        <ele>452</ele>
        <time>2021-07-27T06:22:34Z</time>
      </trkpt>
      <trkpt lat="45.91348" lon="3.04922">
        <ele>452</ele>
        <time>2021-07-27T06:22:35Z</time>
      </trkpt>
      <trkpt lat="45.91349" lon="3.0492">
        <ele>452</ele>
        <time>2021-07-27T06:22:36Z</time>
      </trkpt>
      <trkpt lat="45.9135" lon="3.04919">
        <ele>452</ele>
        <time>2021-07-27T06:22:37Z</time>
      </trkpt>
      <trkpt lat="45.91351" lon="3.04917">
        <ele>452</ele>
        <time>2021-07-27T06:22:38Z</time>
      </trkpt>
      <trkpt lat="45.91353" lon="3.04916">
        <ele>452</ele>
        <time>2021-07-27T06:22:39Z</time>
      </trkpt>
      <trkpt lat="45.91353" lon="3.04914">
        <ele>452</ele>
        <time>2021-07-27T06:22:40Z</time>
      </trkpt>
      <trkpt lat="45.91354" lon="3.04913">
        <ele>452</ele>
        <time>2021-07-27T06:22:41Z</time>
      </trkpt>
      <trkpt lat="45.91356" lon="3.04911">
        <ele>452</ele>
        <time>2021-07-27T06:22:42Z</time>
      </trkpt>
      <trkpt lat="45.91357" lon="3.0491">
        <ele>452</ele>
        <time>2021-07-27T06:22:43Z</time>
      </trkpt>
      <trkpt lat="45.91358" lon="3.04908">
        <ele>452</ele>
        <time>2021-07-27T06:22:44Z</time>
      </trkpt>
      <trkpt lat="45.91359" lon="3.04907">
        <ele>452</ele>
        <time>2021-07-27T06:22:45Z</time>
      </trkpt>
      <trkpt lat="45.9136" lon="3.04905">
        <ele>452</ele>
        <time>2021-07-27T06:22:46Z</time>
      </trkpt>
      <trkpt lat="45.91361" lon="3.04903">
        <ele>452</ele>
        <time>2021-07-27T06:22:47Z</time>
      </trkpt>
      <trkpt lat="45.91362" lon="3.04901">
        <ele>452</ele>
        <time>2021-07-27T06:22:48Z</time>
      </trkpt>
      <trkpt lat="45.91363" lon="3.049">
        <ele>452</ele>
        <time>2021-07-27T06:22:49Z</time>
      </trkpt>
      <trkpt lat="45.91364" lon="3.04898">
        <ele>452</ele>
        <time>2021-07-27T06:22:50Z</time>
      </trkpt>
      <trkpt lat="45.91364" lon="3.04896">
        <ele>452</ele>
        <time>2021-07-27T06:22:51Z</time>
      </trkpt>
      <trkpt lat="45.91365" lon="3.04894">
        <ele>452</ele>
        <time>2021-07-27T06:22:52Z</time>
      </trkpt>
      <trkpt lat="45.91365" lon="3.04892">
        <ele>452</ele>
        <time>2021-07-27T06:22:53Z</time>
      </trkpt>
      <trkpt lat="45.91365" lon="3.0489">
        <ele>452</ele>
        <time>2021-07-27T06:22:55Z</time>
      </trkpt>
      <trkpt lat="45.91362" lon="3.04883">
        <ele>452</ele>
        <time>2021-07-27T06:22:57Z</time>
      </trkpt>
      <trkpt lat="45.9136" lon="3.04879">
        <ele>452</ele>
        <time>2021-07-27T06:22:58Z</time>
      </trkpt>
      <trkpt lat="45.9136" lon="3.04878">
        <ele>452</ele>
        <time>2021-07-27T06:22:59Z</time>
      </trkpt>
      <trkpt lat="45.91359" lon="3.04877">
        <ele>452</ele>
        <time>2021-07-27T06:23:00Z</time>
      </trkpt>
      <trkpt lat="45.91359" lon="3.04876">
        <ele>452</ele>
        <time>2021-07-27T06:23:01Z</time>
      </trkpt>
      <trkpt lat="45.91358" lon="3.04875">
        <ele>452</ele>
        <time>2021-07-27T06:23:02Z</time>
      </trkpt>
      <trkpt lat="45.91357" lon="3.04873">
        <ele>452</ele>
        <time>2021-07-27T06:23:03Z</time>
      </trkpt>
      <trkpt lat="45.91356" lon="3.04871">
        <ele>452</ele>
        <time>2021-07-27T06:23:04Z</time>
      </trkpt>
      <trkpt lat="45.91356" lon="3.0487">
        <ele>452</ele>
        <time>2021-07-27T06:23:05Z</time>
      </trkpt>
      <trkpt lat="45.91356" lon="3.04868">
        <ele>452</ele>
        <time>2021-07-27T06:23:06Z</time>
      </trkpt>
      <trkpt lat="45.91355" lon="3.04867">
        <ele>452</ele>
        <time>2021-07-27T06:23:07Z</time>
      </trkpt>
      <trkpt lat="45.91354" lon="3.04865">
        <ele>452</ele>
        <time>2021-07-27T06:23:08Z</time>
      </trkpt>
      <trkpt lat="45.91354" lon="3.04863">
        <ele>452</ele>
        <time>2021-07-27T06:23:09Z</time>
      </trkpt>
      <trkpt lat="45.91353" lon="3.04861">
        <ele>452</ele>
        <time>2021-07-27T06:23:10Z</time>
      </trkpt>
      <trkpt lat="45.91353" lon="3.04859">
        <ele>452</ele>
        <time>2021-07-27T06:23:11Z</time>
      </trkpt>
      <trkpt lat="45.91353" lon="3.04857">
        <ele>452</ele>
        <time>2021-07-27T06:23:12Z</time>
      </trkpt>
      <trkpt lat="45.91352" lon="3.04855">
        <ele>452</ele>
        <time>2021-07-27T06:23:13Z</time>
      </trkpt>
      <trkpt lat="45.91351" lon="3.04854">
        <ele>452</ele>
        <time>2021-07-27T06:23:14Z</time>
      </trkpt>
      <trkpt lat="45.9135" lon="3.04852">
        <ele>452</ele>
        <time>2021-07-27T06:23:15Z</time>
      </trkpt>
      <trkpt lat="45.9135" lon="3.0485">
        <ele>452</ele>
        <time>2021-07-27T06:23:16Z</time>
      </trkpt>
      <trkpt lat="45.91349" lon="3.04848">
        <ele>452</ele>
        <time>2021-07-27T06:23:17Z</time>
      </trkpt>
      <trkpt lat="45.91349" lon="3.04846">
        <ele>452</ele>
        <time>2021-07-27T06:23:18Z</time>
      </trkpt>
      <trkpt lat="45.91348" lon="3.04845">
        <ele>452</ele>
        <time>2021-07-27T06:23:19Z</time>
      </trkpt>
      <trkpt lat="45.91348" lon="3.04843">
        <ele>452</ele>
        <time>2021-07-27T06:23:20Z</time>
      </trkpt>
      <trkpt lat="45.91347" lon="3.04841">
        <ele>452</ele>
        <time>2021-07-27T06:23:21Z</time>
      </trkpt>
      <trkpt lat="45.91346" lon="3.0484">
        <ele>452</ele>
        <time>2021-07-27T06:23:22Z</time>
      </trkpt>
      <trkpt lat="45.91345" lon="3.04838">
        <ele>452</ele>
        <time>2021-07-27T06:23:23Z</time>
      </trkpt>
      <trkpt lat="45.91345" lon="3.04837">
        <ele>452</ele>
        <time>2021-07-27T06:23:24Z</time>
      </trkpt>
      <trkpt lat="45.91344" lon="3.04835">
        <ele>452</ele>
        <time>2021-07-27T06:23:25Z</time>
      </trkpt>
      <trkpt lat="45.91343" lon="3.04834">
        <ele>452</ele>
        <time>2021-07-27T06:23:26Z</time>
      </trkpt>
      <trkpt lat="45.91343" lon="3.04833">
        <ele>452</ele>
        <time>2021-07-27T06:23:27Z</time>
      </trkpt>
      <trkpt lat="45.91342" lon="3.04831">
        <ele>452</ele>
        <time>2021-07-27T06:23:28Z</time>
      </trkpt>
      <trkpt lat="45.91341" lon="3.0483">
        <ele>452</ele>
        <time>2021-07-27T06:23:29Z</time>
      </trkpt>
      <trkpt lat="45.91341" lon="3.04828">
        <ele>452</ele>
        <time>2021-07-27T06:23:30Z</time>
      </trkpt>
      <trkpt lat="45.91341" lon="3.04826">
        <ele>452</ele>
        <time>2021-07-27T06:23:31Z</time>
      </trkpt>
      <trkpt lat="45.91341" lon="3.04825">
        <ele>452</ele>
        <time>2021-07-27T06:23:32Z</time>
      </trkpt>
      <trkpt lat="45.9134" lon="3.04823">
        <ele>452</ele>
        <time>2021-07-27T06:23:33Z</time>
      </trkpt>
      <trkpt lat="45.91339" lon="3.04821">
        <ele>452</ele>
        <time>2021-07-27T06:23:34Z</time>
      </trkpt>
      <trkpt lat="45.91338" lon="3.0482">
        <ele>452</ele>
        <time>2021-07-27T06:23:35Z</time>
      </trkpt>
      <trkpt lat="45.91338" lon="3.04818">
        <ele>452</ele>
        <time>2021-07-27T06:23:36Z</time>
      </trkpt>
      <trkpt lat="45.91338" lon="3.04816">
        <ele>452</ele>
        <time>2021-07-27T06:23:37Z</time>
      </trkpt>
      <trkpt lat="45.91337" lon="3.04815">
        <ele>452</ele>
        <time>2021-07-27T06:23:38Z</time>
      </trkpt>
      <trkpt lat="45.91336" lon="3.04813">
        <ele>452</ele>
        <time>2021-07-27T06:23:39Z</time>
      </trkpt>
      <trkpt lat="45.91335" lon="3.04811">
        <ele>452</ele>
        <time>2021-07-27T06:23:40Z</time>
      </trkpt>
      <trkpt lat="45.91335" lon="3.04809">
        <ele>452</ele>
        <time>2021-07-27T06:23:41Z</time>
      </trkpt>
      <trkpt lat="45.91335" lon="3.04808">
        <ele>452</ele>
        <time>2021-07-27T06:23:42Z</time>
      </trkpt>
      <trkpt lat="45.91334" lon="3.04806">
        <ele>452</ele>
        <time>2021-07-27T06:23:43Z</time>
      </trkpt>
      <trkpt lat="45.91333" lon="3.04805">
        <ele>452</ele>
        <time>2021-07-27T06:23:44Z</time>
      </trkpt>
      <trkpt lat="45.91333" lon="3.04804">
        <ele>452</ele>
        <time>2021-07-27T06:23:45Z</time>
      </trkpt>
      <trkpt lat="45.91332" lon="3.04802">
        <ele>452</ele>
        <time>2021-07-27T06:23:46Z</time>
      </trkpt>
      <trkpt lat="45.91332" lon="3.048">
        <ele>452</ele>
        <time>2021-07-27T06:23:47Z</time>
      </trkpt>
      <trkpt lat="45.91332" lon="3.04798">
        <ele>452</ele>
        <time>2021-07-27T06:23:48Z</time>
      </trkpt>
      <trkpt lat="45.91331" lon="3.04796">
        <ele>452</ele>
        <time>2021-07-27T06:23:49Z</time>
      </trkpt>
      <trkpt lat="45.9133" lon="3.04794">
        <ele>452</ele>
        <time>2021-07-27T06:23:50Z</time>
      </trkpt>
      <trkpt lat="45.91329" lon="3.04792">
        <ele>452</ele>
        <time>2021-07-27T06:23:51Z</time>
      </trkpt>
      <trkpt lat="45.91329" lon="3.0479">
        <ele>452</ele>
        <time>2021-07-27T06:23:52Z</time>
      </trkpt>
      <trkpt lat="45.91328" lon="3.04788">
        <ele>452</ele>
        <time>2021-07-27T06:23:53Z</time>
      </trkpt>
      <trkpt lat="45.91328" lon="3.04786">
        <ele>452</ele>
        <time>2021-07-27T06:23:55Z</time>
      </trkpt>
      <trkpt lat="45.91327" lon="3.04785">
        <ele>452</ele>
        <time>2021-07-27T06:23:56Z</time>
      </trkpt>
      <trkpt lat="45.91325" lon="3.04779">
        <ele>452</ele>
        <time>2021-07-27T06:23:57Z</time>
      </trkpt>
      <trkpt lat="45.91325" lon="3.04778">
        <ele>452</ele>
        <time>2021-07-27T06:23:58Z</time>
      </trkpt>
      <trkpt lat="45.91324" lon="3.04778">
        <ele>452</ele>
        <time>2021-07-27T06:23:59Z</time>
      </trkpt>
      <trkpt lat="45.91324" lon="3.04777">
        <ele>452</ele>
        <time>2021-07-27T06:24:00Z</time>
      </trkpt>
      <trkpt lat="45.91323" lon="3.04775">
        <ele>452</ele>
        <time>2021-07-27T06:24:01Z</time>
      </trkpt>
      <trkpt lat="45.91322" lon="3.04774">
        <ele>452</ele>
        <time>2021-07-27T06:24:02Z</time>
      </trkpt>
      <trkpt lat="45.91322" lon="3.04772">
        <ele>452</ele>
        <time>2021-07-27T06:24:03Z</time>
      </trkpt>
      <trkpt lat="45.91321" lon="3.0477">
        <ele>452</ele>
        <time>2021-07-27T06:24:04Z</time>
      </trkpt>
      <trkpt lat="45.9132" lon="3.04768">
        <ele>452</ele>
        <time>2021-07-27T06:24:05Z</time>
      </trkpt>
      <trkpt lat="45.9132" lon="3.04766">
        <ele>452</ele>
        <time>2021-07-27T06:24:06Z</time>
      </trkpt>
      <trkpt lat="45.91319" lon="3.04765">
        <ele>452</ele>
        <time>2021-07-27T06:24:07Z</time>
      </trkpt>
      <trkpt lat="45.91318" lon="3.04763">
        <ele>452</ele>
        <time>2021-07-27T06:24:08Z</time>
      </trkpt>
      <trkpt lat="45.91317" lon="3.04761">
        <ele>452</ele>
        <time>2021-07-27T06:24:09Z</time>
      </trkpt>
      <trkpt lat="45.91317" lon="3.04759">
        <ele>452</ele>
        <time>2021-07-27T06:24:10Z</time>
      </trkpt>
      <trkpt lat="45.91316" lon="3.04757">
        <ele>452</ele>
        <time>2021-07-27T06:24:11Z</time>
      </trkpt>
      <trkpt lat="45.91315" lon="3.04755">
        <ele>452</ele>
        <time>2021-07-27T06:24:12Z</time>
      </trkpt>
      <trkpt lat="45.91314" lon="3.04753">
        <ele>452</ele>
        <time>2021-07-27T06:24:13Z</time>
      </trkpt>
      <trkpt lat="45.91313" lon="3.04751">
        <ele>452</ele>
        <time>2021-07-27T06:24:14Z</time>
      </trkpt>
      <trkpt lat="45.91312" lon="3.04749">
        <ele>452</ele>
        <time>2021-07-27T06:24:15Z</time>
      </trkpt>
      <trkpt lat="45.91311" lon="3.04747">
        <ele>452</ele>
        <time>2021-07-27T06:24:16Z</time>
      </trkpt>
      <trkpt lat="45.91311" lon="3.04745">
        <ele>452</ele>
        <time>2021-07-27T06:24:17Z</time>
      </trkpt>
      <trkpt lat="45.91309" lon="3.04743">
        <ele>452</ele>
        <time>2021-07-27T06:24:17Z</time>
      </trkpt>
      <trkpt lat="45.91309" lon="3.04741">
        <ele>452</ele>
        <time>2021-07-27T06:24:18Z</time>
      </trkpt>
      <trkpt lat="45.91308" lon="3.04739">
        <ele>452</ele>
        <time>2021-07-27T06:24:19Z</time>
      </trkpt>
      <trkpt lat="45.91307" lon="3.04737">
        <ele>452</ele>
        <time>2021-07-27T06:24:20Z</time>
      </trkpt>
      <trkpt lat="45.91306" lon="3.04735">
        <ele>452</ele>
        <time>2021-07-27T06:24:21Z</time>
      </trkpt>
      <trkpt lat="45.91306" lon="3.04733">
        <ele>452</ele>
        <time>2021-07-27T06:24:22Z</time>
      </trkpt>
      <trkpt lat="45.91305" lon="3.04732">
        <ele>452</ele>
        <time>2021-07-27T06:24:23Z</time>
      </trkpt>
      <trkpt lat="45.91305" lon="3.0473">
        <ele>452</ele>
        <time>2021-07-27T06:24:24Z</time>
      </trkpt>
      <trkpt lat="45.91304" lon="3.04728">
        <ele>452</ele>
        <time>2021-07-27T06:24:25Z</time>
      </trkpt>
      <trkpt lat="45.91303" lon="3.04726">
        <ele>452</ele>
        <time>2021-07-27T06:24:26Z</time>
      </trkpt>
      <trkpt lat="45.91303" lon="3.04724">
        <ele>452</ele>
        <time>2021-07-27T06:24:27Z</time>
      </trkpt>
      <trkpt lat="45.91302" lon="3.04722">
        <ele>452</ele>
        <time>2021-07-27T06:24:28Z</time>
      </trkpt>
      <trkpt lat="45.91301" lon="3.0472">
        <ele>452</ele>
        <time>2021-07-27T06:24:29Z</time>
      </trkpt>
      <trkpt lat="45.91301" lon="3.04718">
        <ele>452</ele>
        <time>2021-07-27T06:24:30Z</time>
      </trkpt>
      <trkpt lat="45.91299" lon="3.04716">
        <ele>452</ele>
        <time>2021-07-27T06:24:31Z</time>
      </trkpt>
      <trkpt lat="45.91299" lon="3.04715">
        <ele>452</ele>
        <time>2021-07-27T06:24:32Z</time>
      </trkpt>
      <trkpt lat="45.91299" lon="3.04713">
        <ele>452</ele>
        <time>2021-07-27T06:24:33Z</time>
      </trkpt>
      <trkpt lat="45.91298" lon="3.04712">
        <ele>452</ele>
        <time>2021-07-27T06:24:34Z</time>
      </trkpt>
      <trkpt lat="45.91297" lon="3.04711">
        <ele>452</ele>
        <time>2021-07-27T06:24:35Z</time>
      </trkpt>
      <trkpt lat="45.91296" lon="3.04709">
        <ele>452</ele>
        <time>2021-07-27T06:24:36Z</time>
      </trkpt>
      <trkpt lat="45.91296" lon="3.04708">
        <ele>452</ele>
        <time>2021-07-27T06:24:37Z</time>
      </trkpt>
      <trkpt lat="45.91296" lon="3.04706">
        <ele>452</ele>
        <time>2021-07-27T06:24:38Z</time>
      </trkpt>
      <trkpt lat="45.91295" lon="3.04705">
        <ele>452</ele>
        <time>2021-07-27T06:24:39Z</time>
      </trkpt>
      <trkpt lat="45.91295" lon="3.04703">
        <ele>452</ele>
        <time>2021-07-27T06:24:40Z</time>
      </trkpt>
      <trkpt lat="45.91293" lon="3.04702">
        <ele>452</ele>
        <time>2021-07-27T06:24:41Z</time>
      </trkpt>
      <trkpt lat="45.91293" lon="3.047">
        <ele>452</ele>
        <time>2021-07-27T06:24:42Z</time>
      </trkpt>
      <trkpt lat="45.91293" lon="3.04699">
        <ele>452</ele>
        <time>2021-07-27T06:24:43Z</time>
      </trkpt>
      <trkpt lat="45.91292" lon="3.04698">
        <ele>452</ele>
        <time>2021-07-27T06:24:44Z</time>
      </trkpt>
      <trkpt lat="45.91291" lon="3.04696">
        <ele>452</ele>
        <time>2021-07-27T06:24:45Z</time>
      </trkpt>
      <trkpt lat="45.91291" lon="3.04695">
        <ele>452</ele>
        <time>2021-07-27T06:24:46Z</time>
      </trkpt>
      <trkpt lat="45.91291" lon="3.04694">
        <ele>452</ele>
        <time>2021-07-27T06:24:47Z</time>
      </trkpt>
      <trkpt lat="45.9129" lon="3.04692">
        <ele>452</ele>
        <time>2021-07-27T06:24:48Z</time>
      </trkpt>
      <trkpt lat="45.9129" lon="3.0469">
        <ele>452</ele>
        <time>2021-07-27T06:24:49Z</time>
      </trkpt>
      <trkpt lat="45.9129" lon="3.04688">
        <ele>452</ele>
        <time>2021-07-27T06:24:50Z</time>
      </trkpt>
      <trkpt lat="45.91288" lon="3.04686">
        <ele>452</ele>
        <time>2021-07-27T06:24:51Z</time>
      </trkpt>
      <trkpt lat="45.91288" lon="3.04683">
        <ele>452</ele>
        <time>2021-07-27T06:24:52Z</time>
      </trkpt>
      <trkpt lat="45.91287" lon="3.04681">
        <ele>452</ele>
        <time>2021-07-27T06:24:53Z</time>
      </trkpt>
      <trkpt lat="45.91286" lon="3.04679">
        <ele>452</ele>
        <time>2021-07-27T06:24:55Z</time>
      </trkpt>
      <trkpt lat="45.91285" lon="3.04671">
        <ele>452</ele>
        <time>2021-07-27T06:24:56Z</time>
      </trkpt>
      <trkpt lat="45.91285" lon="3.04671">
        <ele>452</ele>
        <time>2021-07-27T06:24:57Z</time>
      </trkpt>
      <trkpt lat="45.91285" lon="3.0467">
        <ele>452</ele>
        <time>2021-07-27T06:24:58Z</time>
      </trkpt>
      <trkpt lat="45.91284" lon="3.04668">
        <ele>452</ele>
        <time>2021-07-27T06:24:59Z</time>
      </trkpt>
      <trkpt lat="45.91284" lon="3.04667">
        <ele>452</ele>
        <time>2021-07-27T06:25:00Z</time>
      </trkpt>
      <trkpt lat="45.91284" lon="3.04665">
        <ele>452</ele>
        <time>2021-07-27T06:25:01Z</time>
      </trkpt>
      <trkpt lat="45.91283" lon="3.04663">
        <ele>452</ele>
        <time>2021-07-27T06:25:02Z</time>
      </trkpt>
      <trkpt lat="45.91283" lon="3.04661">
        <ele>452</ele>
        <time>2021-07-27T06:25:03Z</time>
      </trkpt>
      <trkpt lat="45.91282" lon="3.04659">
        <ele>452</ele>
        <time>2021-07-27T06:25:04Z</time>
      </trkpt>
      <trkpt lat="45.91282" lon="3.04657">
        <ele>452</ele>
        <time>2021-07-27T06:25:05Z</time>
      </trkpt>
      <trkpt lat="45.91281" lon="3.04655">
        <ele>452</ele>
        <time>2021-07-27T06:25:06Z</time>
      </trkpt>
      <trkpt lat="45.91281" lon="3.04652">
        <ele>452</ele>
        <time>2021-07-27T06:25:07Z</time>
      </trkpt>
      <trkpt lat="45.9128" lon="3.0465">
        <ele>452</ele>
        <time>2021-07-27T06:25:08Z</time>
      </trkpt>
      <trkpt lat="45.9128" lon="3.04647">
        <ele>452</ele>
        <time>2021-07-27T06:25:09Z</time>
      </trkpt>
      <trkpt lat="45.91279" lon="3.04645">
        <ele>452</ele>
        <time>2021-07-27T06:25:10Z</time>
      </trkpt>
      <trkpt lat="45.91278" lon="3.04642">
        <ele>452</ele>
        <time>2021-07-27T06:25:11Z</time>
      </trkpt>
      <trkpt lat="45.91278" lon="3.0464">
        <ele>452</ele>
        <time>2021-07-27T06:25:12Z</time>
      </trkpt>
      <trkpt lat="45.91277" lon="3.04637">
        <ele>452</ele>
        <time>2021-07-27T06:25:13Z</time>
      </trkpt>
      <trkpt lat="45.91277" lon="3.04635">
        <ele>452</ele>
        <time>2021-07-27T06:25:14Z</time>
      </trkpt>
      <trkpt lat="45.91276" lon="3.04632">
        <ele>452</ele>
        <time>2021-07-27T06:25:15Z</time>
      </trkpt>
      <trkpt lat="45.91275" lon="3.0463">
        <ele>452</ele>
        <time>2021-07-27T06:25:16Z</time>
      </trkpt>
      <trkpt lat="45.91275" lon="3.04628">
        <ele>452</ele>
        <time>2021-07-27T06:25:17Z</time>
      </trkpt>
      <trkpt lat="45.91275" lon="3.04626">
        <ele>452</ele>
        <time>2021-07-27T06:25:18Z</time>
      </trkpt>
      <trkpt lat="45.91275" lon="3.04624">
        <ele>452</ele>
        <time>2021-07-27T06:25:19Z</time>
      </trkpt>
      <trkpt lat="45.91275" lon="3.04623">
        <ele>452</ele>
        <time>2021-07-27T06:25:20Z</time>
      </trkpt>
      <trkpt lat="45.91275" lon="3.04621">
        <ele>452</ele>
        <time>2021-07-27T06:25:21Z</time>
      </trkpt>
      <trkpt lat="45.91275" lon="3.04619">
        <ele>452</ele>
        <time>2021-07-27T06:25:22Z</time>
      </trkpt>
      <trkpt lat="45.91275" lon="3.04617">
        <ele>452</ele>
        <time>2021-07-27T06:25:23Z</time>
      </trkpt>
      <trkpt lat="45.91275" lon="3.04615">
        <ele>452</ele>
        <time>2021-07-27T06:25:24Z</time>
      </trkpt>
      <trkpt lat="45.91274" lon="3.04613">
        <ele>452</ele>
        <time>2021-07-27T06:25:25Z</time>
      </trkpt>
      <trkpt lat="45.91274" lon="3.04611">
        <ele>452</ele>
        <time>2021-07-27T06:25:26Z</time>
      </trkpt>
      <trkpt lat="45.91273" lon="3.04609">
        <ele>452</ele>
        <time>2021-07-27T06:25:27Z</time>
      </trkpt>
      <trkpt lat="45.91272" lon="3.04608">
        <ele>452</ele>
        <time>2021-07-27T06:25:28Z</time>
      </trkpt>
      <trkpt lat="45.91272" lon="3.04606">
        <ele>452</ele>
        <time>2021-07-27T06:25:29Z</time>
      </trkpt>
      <trkpt lat="45.9127" lon="3.04605">
        <ele>452</ele>
        <time>2021-07-27T06:25:30Z</time>
      </trkpt>
      <trkpt lat="45.91269" lon="3.04603">
        <ele>452</ele>
        <time>2021-07-27T06:25:31Z</time>
      </trkpt>
      <trkpt lat="45.91269" lon="3.04601">
        <ele>452</ele>
        <time>2021-07-27T06:25:32Z</time>
      </trkpt>
      <trkpt lat="45.91268" lon="3.04599">
        <ele>452</ele>
        <time>2021-07-27T06:25:33Z</time>
      </trkpt>
      <trkpt lat="45.91267" lon="3.04598">
        <ele>452</ele>
        <time>2021-07-27T06:25:34Z</time>
      </trkpt>
      <trkpt lat="45.91266" lon="3.04596">
        <ele>452</ele>
        <time>2021-07-27T06:25:35Z</time>
      </trkpt>
      <trkpt lat="45.91265" lon="3.04594">
        <ele>452</ele>
        <time>2021-07-27T06:25:36Z</time>
      </trkpt>
      <trkpt lat="45.91264" lon="3.04591">
        <ele>452</ele>
        <time>2021-07-27T06:25:37Z</time>
      </trkpt>
      <trkpt lat="45.91264" lon="3.04589">
        <ele>452</ele>
        <time>2021-07-27T06:25:38Z</time>
      </trkpt>
      <trkpt lat="45.91263" lon="3.04587">
        <ele>452</ele>
        <time>2021-07-27T06:25:39Z</time>
      </trkpt>
      <trkpt lat="45.91262" lon="3.04585">
        <ele>452</ele>
        <time>2021-07-27T06:25:40Z</time>
      </trkpt>
      <trkpt lat="45.91262" lon="3.04582">
        <ele>452</ele>
        <time>2021-07-27T06:25:41Z</time>
      </trkpt>
      <trkpt lat="45.91261" lon="3.0458">
        <ele>452</ele>
        <time>2021-07-27T06:25:42Z</time>
      </trkpt>
      <trkpt lat="45.91261" lon="3.04578">
        <ele>452</ele>
        <time>2021-07-27T06:25:43Z</time>
      </trkpt>
      <trkpt lat="45.91261" lon="3.04575">
        <ele>452</ele>
        <time>2021-07-27T06:25:44Z</time>
      </trkpt>
      <trkpt lat="45.91261" lon="3.04573">
        <ele>452</ele>
        <time>2021-07-27T06:25:45Z</time>
      </trkpt>
      <trkpt lat="45.91261" lon="3.04571">
        <ele>452</ele>
        <time>2021-07-27T06:25:46Z</time>
      </trkpt>
      <trkpt lat="45.91261" lon="3.04569">
        <ele>452</ele>
        <time>2021-07-27T06:25:47Z</time>
      </trkpt>
      <trkpt lat="45.91261" lon="3.04567">
        <ele>452</ele>
        <time>2021-07-27T06:25:48Z</time>
      </trkpt>
      <trkpt lat="45.91261" lon="3.04565">
        <ele>452</ele>
        <time>2021-07-27T06:25:49Z</time>
      </trkpt>
      <trkpt lat="45.91261" lon="3.04564">
        <ele>452</ele>
        <time>2021-07-27T06:25:50Z</time>
      </trkpt>
      <trkpt lat="45.91261" lon="3.04562">
        <ele>452</ele>
        <time>2021-07-27T06:25:51Z</time>
      </trkpt>
      <trkpt lat="45.91261" lon="3.0456">
        <ele>452</ele>
        <time>2021-07-27T06:25:52Z</time>
      </trkpt>
      <trkpt lat="45.9126" lon="3.04558">
        <ele>452</ele>
        <time>2021-07-27T06:25:53Z</time>
      </trkpt>
      <trkpt lat="45.9126" lon="3.04556">
        <ele>452</ele>
        <time>2021-07-27T06:25:54Z</time>
      </trkpt>
      <trkpt lat="45.9126" lon="3.04555">
        <ele>452</ele>
        <time>2021-07-27T06:25:56Z</time>
      </trkpt>
      <trkpt lat="45.9126" lon="3.04547">
        <ele>452</ele>
        <time>2021-07-27T06:25:57Z</time>
      </trkpt>
      <trkpt lat="45.9126" lon="3.04546">
        <ele>452</ele>
        <time>2021-07-27T06:25:58Z</time>
      </trkpt>
      <trkpt lat="45.9126" lon="3.04545">
        <ele>452</ele>
        <time>2021-07-27T06:25:59Z</time>
      </trkpt>
      <trkpt lat="45.91259" lon="3.04544">
        <ele>452</ele>
        <time>2021-07-27T06:26:00Z</time>
      </trkpt>
      <trkpt lat="45.91259" lon="3.04543">
        <ele>452</ele>
        <time>2021-07-27T06:26:01Z</time>
      </trkpt>
      <trkpt lat="45.91259" lon="3.04541">
        <ele>452</ele>
        <time>2021-07-27T06:26:02Z</time>
      </trkpt>
      <trkpt lat="45.91259" lon="3.0454">
        <ele>452</ele>
        <time>2021-07-27T06:26:03Z</time>
      </trkpt>
      <trkpt lat="45.91259" lon="3.04538">
        <ele>452</ele>
        <time>2021-07-27T06:26:04Z</time>
      </trkpt>
      <trkpt lat="45.91259" lon="3.04536">
        <ele>452</ele>
        <time>2021-07-27T06:26:05Z</time>
      </trkpt>
      <trkpt lat="45.91259" lon="3.04534">
        <ele>452</ele>
        <time>2021-07-27T06:26:06Z</time>
      </trkpt>
      <trkpt lat="45.91259" lon="3.04532">
        <ele>452</ele>
        <time>2021-07-27T06:26:07Z</time>
      </trkpt>
      <trkpt lat="45.91259" lon="3.0453">
        <ele>452</ele>
        <time>2021-07-27T06:26:08Z</time>
      </trkpt>
      <trkpt lat="45.91259" lon="3.04528">
        <ele>452</ele>
        <time>2021-07-27T06:26:09Z</time>
      </trkpt>
      <trkpt lat="45.91259" lon="3.04526">
        <ele>452</ele>
        <time>2021-07-27T06:26:10Z</time>
      </trkpt>
      <trkpt lat="45.91259" lon="3.04524">
        <ele>452</ele>
        <time>2021-07-27T06:26:11Z</time>
      </trkpt>
      <trkpt lat="45.91259" lon="3.04523">
        <ele>452</ele>
        <time>2021-07-27T06:26:12Z</time>
      </trkpt>
      <trkpt lat="45.91259" lon="3.04521">
        <ele>452</ele>
        <time>2021-07-27T06:26:13Z</time>
      </trkpt>
      <trkpt lat="45.9126" lon="3.0452">
        <ele>452</ele>
        <time>2021-07-27T06:26:14Z</time>
      </trkpt>
      <trkpt lat="45.9126" lon="3.04518">
        <ele>452</ele>
        <time>2021-07-27T06:26:15Z</time>
      </trkpt>
      <trkpt lat="45.9126" lon="3.04516">
        <ele>452</ele>
        <time>2021-07-27T06:26:16Z</time>
      </trkpt>
      <trkpt lat="45.9126" lon="3.04514">
        <ele>452</ele>
        <time>2021-07-27T06:26:17Z</time>
      </trkpt>
      <trkpt lat="45.9126" lon="3.04512">
        <ele>452</ele>
        <time>2021-07-27T06:26:18Z</time>
      </trkpt>
      <trkpt lat="45.91259" lon="3.04509">
        <ele>452</ele>
        <time>2021-07-27T06:26:19Z</time>
      </trkpt>
      <trkpt lat="45.91259" lon="3.04507">
        <ele>452</ele>
        <time>2021-07-27T06:26:20Z</time>
      </trkpt>
      <trkpt lat="45.91259" lon="3.04504">
        <ele>452</ele>
        <time>2021-07-27T06:26:21Z</time>
      </trkpt>
      <trkpt lat="45.91259" lon="3.04502">
        <ele>452</ele>
        <time>2021-07-27T06:26:22Z</time>
      </trkpt>
      <trkpt lat="45.91259" lon="3.045">
        <ele>452</ele>
        <time>2021-07-27T06:26:23Z</time>
      </trkpt>
      <trkpt lat="45.91259" lon="3.04498">
        <ele>452</ele>
        <time>2021-07-27T06:26:24Z</time>
      </trkpt>
      <trkpt lat="45.91259" lon="3.04496">
        <ele>452</ele>
        <time>2021-07-27T06:26:25Z</time>
      </trkpt>
      <trkpt lat="45.91259" lon="3.04494">
        <ele>452</ele>
        <time>2021-07-27T06:26:26Z</time>
      </trkpt>
      <trkpt lat="45.91259" lon="3.04492">
        <ele>452</ele>
        <time>2021-07-27T06:26:27Z</time>
      </trkpt>
      <trkpt lat="45.91259" lon="3.04491">
        <ele>452</ele>
        <time>2021-07-27T06:26:28Z</time>
      </trkpt>
      <trkpt lat="45.91259" lon="3.04489">
        <ele>452</ele>
        <time>2021-07-27T06:26:29Z</time>
      </trkpt>
      <trkpt lat="45.9126" lon="3.04488">
        <ele>452</ele>
        <time>2021-07-27T06:26:30Z</time>
      </trkpt>
      <trkpt lat="45.9126" lon="3.04486">
        <ele>452</ele>
        <time>2021-07-27T06:26:31Z</time>
      </trkpt>
      <trkpt lat="45.91259" lon="3.04485">
        <ele>452</ele>
        <time>2021-07-27T06:26:32Z</time>
      </trkpt>
      <trkpt lat="45.91259" lon="3.04483">
        <ele>452</ele>
        <time>2021-07-27T06:26:33Z</time>
      </trkpt>
      <trkpt lat="45.9126" lon="3.04481">
        <ele>452</ele>
        <time>2021-07-27T06:26:34Z</time>
      </trkpt>
      <trkpt lat="45.9126" lon="3.04479">
        <ele>452</ele>
        <time>2021-07-27T06:26:35Z</time>
      </trkpt>
      <trkpt lat="45.91261" lon="3.04476">
        <ele>452</ele>
        <time>2021-07-27T06:26:36Z</time>
      </trkpt>
      <trkpt lat="45.91261" lon="3.04474">
        <ele>452</ele>
        <time>2021-07-27T06:26:37Z</time>
      </trkpt>
      <trkpt lat="45.91262" lon="3.04471">
        <ele>452</ele>
        <time>2021-07-27T06:26:38Z</time>
      </trkpt>
      <trkpt lat="45.91263" lon="3.04469">
        <ele>452</ele>
        <time>2021-07-27T06:26:39Z</time>
      </trkpt>
      <trkpt lat="45.91264" lon="3.04467">
        <ele>452</ele>
        <time>2021-07-27T06:26:40Z</time>
      </trkpt>
      <trkpt lat="45.91265" lon="3.04464">
        <ele>452</ele>
        <time>2021-07-27T06:26:41Z</time>
      </trkpt>
      <trkpt lat="45.91266" lon="3.04461">
        <ele>452</ele>
        <time>2021-07-27T06:26:42Z</time>
      </trkpt>
      <trkpt lat="45.91267" lon="3.04459">
        <ele>452</ele>
        <time>2021-07-27T06:26:43Z</time>
      </trkpt>
      <trkpt lat="45.91268" lon="3.04457">
        <ele>452</ele>
        <time>2021-07-27T06:26:44Z</time>
      </trkpt>
      <trkpt lat="45.91269" lon="3.04455">
        <ele>452</ele>
        <time>2021-07-27T06:26:45Z</time>
      </trkpt>
      <trkpt lat="45.91269" lon="3.04455">
        <ele>452</ele>
        <time>2021-07-27T06:26:46Z</time>
      </trkpt>
      <trkpt lat="45.9127" lon="3.04454">
        <ele>452</ele>
        <time>2021-07-27T06:26:47Z</time>
      </trkpt>
      <trkpt lat="45.91272" lon="3.04453">
        <ele>452</ele>
        <time>2021-07-27T06:26:48Z</time>
      </trkpt>
      <trkpt lat="45.91272" lon="3.04452">
        <ele>452</ele>
        <time>2021-07-27T06:26:49Z</time>
      </trkpt>
      <trkpt lat="45.91274" lon="3.04451">
        <ele>452</ele>
        <time>2021-07-27T06:26:50Z</time>
      </trkpt>
      <trkpt lat="45.91275" lon="3.04449">
        <ele>452</ele>
        <time>2021-07-27T06:26:51Z</time>
      </trkpt>
      <trkpt lat="45.91275" lon="3.04448">
        <ele>452</ele>
        <time>2021-07-27T06:26:52Z</time>
      </trkpt>
      <trkpt lat="45.91277" lon="3.04446">
        <ele>452</ele>
        <time>2021-07-27T06:26:53Z</time>
      </trkpt>
      <trkpt lat="45.91277" lon="3.04445">
        <ele>452</ele>
        <time>2021-07-27T06:26:56Z</time>
      </trkpt>
      <trkpt lat="45.91283" lon="3.04439">
        <ele>452</ele>
        <time>2021-07-27T06:26:57Z</time>
      </trkpt>
      <trkpt lat="45.91283" lon="3.04439">
        <ele>452</ele>
        <time>2021-07-27T06:26:58Z</time>
      </trkpt>
      <trkpt lat="45.91284" lon="3.04438">
        <ele>452</ele>
        <time>2021-07-27T06:26:59Z</time>
      </trkpt>
      <trkpt lat="45.91284" lon="3.04437">
        <ele>452</ele>
        <time>2021-07-27T06:27:00Z</time>
      </trkpt>
      <trkpt lat="45.91286" lon="3.04436">
        <ele>452</ele>
        <time>2021-07-27T06:27:01Z</time>
      </trkpt>
      <trkpt lat="45.91287" lon="3.04434">
        <ele>452</ele>
        <time>2021-07-27T06:27:02Z</time>
      </trkpt>
      <trkpt lat="45.91288" lon="3.04433">
        <ele>452</ele>
        <time>2021-07-27T06:27:03Z</time>
      </trkpt>
      <trkpt lat="45.9129" lon="3.04431">
        <ele>452</ele>
        <time>2021-07-27T06:27:04Z</time>
      </trkpt>
      <trkpt lat="45.9129" lon="3.0443">
        <ele>452</ele>
        <time>2021-07-27T06:27:05Z</time>
      </trkpt>
      <trkpt lat="45.91291" lon="3.04428">
        <ele>452</ele>
        <time>2021-07-27T06:27:06Z</time>
      </trkpt>
      <trkpt lat="45.91293" lon="3.04426">
        <ele>452</ele>
        <time>2021-07-27T06:27:07Z</time>
      </trkpt>
      <trkpt lat="45.91293" lon="3.04425">
        <ele>452</ele>
        <time>2021-07-27T06:27:08Z</time>
      </trkpt>
      <trkpt lat="45.91295" lon="3.04423">
        <ele>452</ele>
        <time>2021-07-27T06:27:09Z</time>
      </trkpt>
      <trkpt lat="45.91295" lon="3.04421">
        <ele>452</ele>
        <time>2021-07-27T06:27:10Z</time>
      </trkpt>
      <trkpt lat="45.91296" lon="3.04419">
        <ele>452</ele>
        <time>2021-07-27T06:27:11Z</time>
      </trkpt>
      <trkpt lat="45.91296" lon="3.04417">
        <ele>452</ele>
        <time>2021-07-27T06:27:12Z</time>
      </trkpt>
      <trkpt lat="45.91297" lon="3.04416">
        <ele>452</ele>
        <time>2021-07-27T06:27:13Z</time>
      </trkpt>
      <trkpt lat="45.91298" lon="3.04414">
        <ele>452</ele>
        <time>2021-07-27T06:27:14Z</time>
      </trkpt>
      <trkpt lat="45.91298" lon="3.04412">
        <ele>452</ele>
        <time>2021-07-27T06:27:15Z</time>
      </trkpt>
      <trkpt lat="45.91299" lon="3.0441">
        <ele>452</ele>
        <time>2021-07-27T06:27:16Z</time>
      </trkpt>
      <trkpt lat="45.91299" lon="3.04408">
        <ele>452</ele>
        <time>2021-07-27T06:27:17Z</time>
      </trkpt>
      <trkpt lat="45.913" lon="3.04407">
        <ele>452</ele>
        <time>2021-07-27T06:27:18Z</time>
      </trkpt>
      <trkpt lat="45.91301" lon="3.04405">
        <ele>452</ele>
        <time>2021-07-27T06:27:19Z</time>
      </trkpt>
      <trkpt lat="45.91302" lon="3.04403">
        <ele>452</ele>
        <time>2021-07-27T06:27:20Z</time>
      </trkpt>
      <trkpt lat="45.91303" lon="3.04402">
        <ele>452</ele>
        <time>2021-07-27T06:27:21Z</time>
      </trkpt>
      <trkpt lat="45.91304" lon="3.044">
        <ele>452</ele>
        <time>2021-07-27T06:27:22Z</time>
      </trkpt>
      <trkpt lat="45.91305" lon="3.04399">
        <ele>452</ele>
        <time>2021-07-27T06:27:23Z</time>
      </trkpt>
      <trkpt lat="45.91306" lon="3.04397">
        <ele>452</ele>
        <time>2021-07-27T06:27:24Z</time>
      </trkpt>
      <trkpt lat="45.91307" lon="3.04396">
        <ele>452</ele>
        <time>2021-07-27T06:27:25Z</time>
      </trkpt>
      <trkpt lat="45.91308" lon="3.04395">
        <ele>452</ele>
        <time>2021-07-27T06:27:26Z</time>
      </trkpt>
      <trkpt lat="45.91309" lon="3.04394">
        <ele>452</ele>
        <time>2021-07-27T06:27:27Z</time>
      </trkpt>
      <trkpt lat="45.91311" lon="3.04393">
        <ele>452</ele>
        <time>2021-07-27T06:27:28Z</time>
      </trkpt>
      <trkpt lat="45.91311" lon="3.04392">
        <ele>452</ele>
        <time>2021-07-27T06:27:29Z</time>
      </trkpt>
      <trkpt lat="45.91312" lon="3.04391">
        <ele>452</ele>
        <time>2021-07-27T06:27:30Z</time>
      </trkpt>
      <trkpt lat="45.91313" lon="3.04389">
        <ele>452</ele>
        <time>2021-07-27T06:27:31Z</time>
      </trkpt>
      <trkpt lat="45.91314" lon="3.04388">
        <ele>452</ele>
        <time>2021-07-27T06:27:32Z</time>
      </trkpt>
      <trkpt lat="45.91314" lon="3.04386">
        <ele>452</ele>
        <time>2021-07-27T06:27:33Z</time>
      </trkpt>
      <trkpt lat="45.91314" lon="3.04385">
        <ele>452</ele>
        <time>2021-07-27T06:27:34Z</time>
      </trkpt>
      <trkpt lat="45.91315" lon="3.04384">
        <ele>452</ele>
        <time>2021-07-27T06:27:35Z</time>
      </trkpt>
      <trkpt lat="45.91316" lon="3.04382">
        <ele>452</ele>
        <time>2021-07-27T06:27:36Z</time>
      </trkpt>
      <trkpt lat="45.91316" lon="3.04381">
        <ele>452</ele>
        <time>2021-07-27T06:27:37Z</time>
      </trkpt>
      <trkpt lat="45.91317" lon="3.04379">
        <ele>452</ele>
        <time>2021-07-27T06:27:38Z</time>
      </trkpt>
      <trkpt lat="45.91317" lon="3.04377">
        <ele>452</ele>
        <time>2021-07-27T06:27:39Z</time>
      </trkpt>
      <trkpt lat="45.91317" lon="3.04375">
        <ele>452</ele>
        <time>2021-07-27T06:27:40Z</time>
      </trkpt>
      <trkpt lat="45.91317" lon="3.04373">
        <ele>452</ele>
        <time>2021-07-27T06:27:41Z</time>
      </trkpt>
      <trkpt lat="45.91317" lon="3.0437">
        <ele>452</ele>
        <time>2021-07-27T06:27:42Z</time>
      </trkpt>
      <trkpt lat="45.91317" lon="3.04368">
        <ele>452</ele>
        <time>2021-07-27T06:27:43Z</time>
      </trkpt>
      <trkpt lat="45.91317" lon="3.04366">
        <ele>452</ele>
        <time>2021-07-27T06:27:44Z</time>
      </trkpt>
      <trkpt lat="45.91318" lon="3.04364">
        <ele>452</ele>
        <time>2021-07-27T06:27:45Z</time>
      </trkpt>
      <trkpt lat="45.91319" lon="3.04362">
        <ele>452</ele>
        <time>2021-07-27T06:27:46Z</time>
      </trkpt>
      <trkpt lat="45.91319" lon="3.0436">
        <ele>452</ele>
        <time>2021-07-27T06:27:47Z</time>
      </trkpt>
      <trkpt lat="45.91319" lon="3.04358">
        <ele>452</ele>
        <time>2021-07-27T06:27:48Z</time>
      </trkpt>
      <trkpt lat="45.9132" lon="3.04356">
        <ele>452</ele>
        <time>2021-07-27T06:27:49Z</time>
      </trkpt>
      <trkpt lat="45.9132" lon="3.04354">
        <ele>452</ele>
        <time>2021-07-27T06:27:50Z</time>
      </trkpt>
      <trkpt lat="45.91321" lon="3.04352">
        <ele>452</ele>
        <time>2021-07-27T06:27:51Z</time>
      </trkpt>
      <trkpt lat="45.91321" lon="3.04351">
        <ele>452</ele>
        <time>2021-07-27T06:27:52Z</time>
      </trkpt>
      <trkpt lat="45.91322" lon="3.04349">
        <ele>452</ele>
        <time>2021-07-27T06:27:53Z</time>
      </trkpt>
      <trkpt lat="45.91322" lon="3.04347">
        <ele>452</ele>
        <time>2021-07-27T06:27:55Z</time>
      </trkpt>
      <trkpt lat="45.91324" lon="3.04339">
        <ele>452</ele>
        <time>2021-07-27T06:27:56Z</time>
      </trkpt>
      <trkpt lat="45.91324" lon="3.04339">
        <ele>452</ele>
        <time>2021-07-27T06:27:57Z</time>
      </trkpt>
      <trkpt lat="45.91324" lon="3.04338">
        <ele>452</ele>
        <time>2021-07-27T06:27:58Z</time>
      </trkpt>
      <trkpt lat="45.91324" lon="3.04336">
        <ele>452</ele>
        <time>2021-07-27T06:27:59Z</time>
      </trkpt>
      <trkpt lat="45.91325" lon="3.04334">
        <ele>452</ele>
        <time>2021-07-27T06:28:00Z</time>
      </trkpt>
      <trkpt lat="45.91325" lon="3.04332">
        <ele>452</ele>
        <time>2021-07-27T06:28:01Z</time>
      </trkpt>
      <trkpt lat="45.91325" lon="3.0433">
        <ele>452</ele>
        <time>2021-07-27T06:28:02Z</time>
      </trkpt>
      <trkpt lat="45.91325" lon="3.04328">
        <ele>452</ele>
        <time>2021-07-27T06:28:03Z</time>
      </trkpt>
      <trkpt lat="45.91326" lon="3.04326">
        <ele>452</ele>
        <time>2021-07-27T06:28:04Z</time>
      </trkpt>
      <trkpt lat="45.91326" lon="3.04324">
        <ele>452</ele>
        <time>2021-07-27T06:28:05Z</time>
      </trkpt>
      <trkpt lat="45.91326" lon="3.04322">
        <ele>452</ele>
        <time>2021-07-27T06:28:06Z</time>
      </trkpt>
      <trkpt lat="45.91326" lon="3.04319">
        <ele>452</ele>
        <time>2021-07-27T06:28:07Z</time>
      </trkpt>
      <trkpt lat="45.91326" lon="3.04317">
        <ele>452</ele>
        <time>2021-07-27T06:28:08Z</time>
      </trkpt>
      <trkpt lat="45.91326" lon="3.04315">
        <ele>452</ele>
        <time>2021-07-27T06:28:09Z</time>
      </trkpt>
      <trkpt lat="45.91326" lon="3.04313">
        <ele>452</ele>
        <time>2021-07-27T06:28:10Z</time>
      </trkpt>
      <trkpt lat="45.91325" lon="3.04311">
        <ele>452</ele>
        <time>2021-07-27T06:28:11Z</time>
      </trkpt>
      <trkpt lat="45.91325" lon="3.04309">
        <ele>452</ele>
        <time>2021-07-27T06:28:12Z</time>
      </trkpt>
      <trkpt lat="45.91324" lon="3.04307">
        <ele>452</ele>
        <time>2021-07-27T06:28:13Z</time>
      </trkpt>
      <trkpt lat="45.91324" lon="3.04305">
        <ele>452</ele>
        <time>2021-07-27T06:28:14Z</time>
      </trkpt>
      <trkpt lat="45.91324" lon="3.04303">
        <ele>452</ele>
        <time>2021-07-27T06:28:15Z</time>
      </trkpt>
      <trkpt lat="45.91323" lon="3.04301">
        <ele>452</ele>
        <time>2021-07-27T06:28:16Z</time>
      </trkpt>
      <trkpt lat="45.91323" lon="3.04299">
        <ele>452</ele>
        <time>2021-07-27T06:28:17Z</time>
      </trkpt>
      <trkpt lat="45.91323" lon="3.04297">
        <ele>452</ele>
        <time>2021-07-27T06:28:18Z</time>
      </trkpt>
      <trkpt lat="45.91323" lon="3.04296">
        <ele>452</ele>
        <time>2021-07-27T06:28:19Z</time>
      </trkpt>
      <trkpt lat="45.91323" lon="3.04294">
        <ele>452</ele>
        <time>2021-07-27T06:28:20Z</time>
      </trkpt>
      <trkpt lat="45.91323" lon="3.04293">
        <ele>452</ele>
        <time>2021-07-27T06:28:21Z</time>
      </trkpt>
      <trkpt lat="45.91323" lon="3.04292">
        <ele>452</ele>
        <time>2021-07-27T06:28:22Z</time>
      </trkpt>
      <trkpt lat="45.91323" lon="3.0429">
        <ele>452</ele>
        <time>2021-07-27T06:28:23Z</time>
      </trkpt>
      <trkpt lat="45.91323" lon="3.04288">
        <ele>452</ele>
        <time>2021-07-27T06:28:24Z</time>
      </trkpt>
      <trkpt lat="45.91323" lon="3.04287">
        <ele>452</ele>
        <time>2021-07-27T06:28:25Z</time>
      </trkpt>
      <trkpt lat="45.91324" lon="3.04285">
        <ele>452</ele>
        <time>2021-07-27T06:28:26Z</time>
      </trkpt>
      <trkpt lat="45.91324" lon="3.04284">
        <ele>452</ele>
        <time>2021-07-27T06:28:27Z</time>
      </trkpt>
      <trkpt lat="45.91324" lon="3.04282">
        <ele>452</ele>
        <time>2021-07-27T06:28:28Z</time>
      </trkpt>
      <trkpt lat="45.91325" lon="3.04281">
        <ele>452</ele>
        <time>2021-07-27T06:28:29Z</time>
      </trkpt>
      <trkpt lat="45.91325" lon="3.0428">
        <ele>452</ele>
        <time>2021-07-27T06:28:30Z</time>
      </trkpt>
      <trkpt lat="45.91325" lon="3.04279">
        <ele>452</ele>
        <time>2021-07-27T06:28:31Z</time>
      </trkpt>
      <trkpt lat="45.91325" lon="3.04277">
        <ele>452</ele>
        <time>2021-07-27T06:28:32Z</time>
      </trkpt>
      <trkpt lat="45.91326" lon="3.04276">
        <ele>452</ele>
        <time>2021-07-27T06:28:32Z</time>
      </trkpt>
      <trkpt lat="45.91326" lon="3.04274">
        <ele>452</ele>
        <time>2021-07-27T06:28:33Z</time>
      </trkpt>
      <trkpt lat="45.91327" lon="3.04273">
        <ele>452</ele>
        <time>2021-07-27T06:28:34Z</time>
      </trkpt>
      <trkpt lat="45.91327" lon="3.04271">
        <ele>452</ele>
        <time>2021-07-27T06:28:35Z</time>
      </trkpt>
      <trkpt lat="45.91328" lon="3.0427">
        <ele>452</ele>
        <time>2021-07-27T06:28:36Z</time>
      </trkpt>
      <trkpt lat="45.91328" lon="3.04269">
        <ele>452</ele>
        <time>2021-07-27T06:28:37Z</time>
      </trkpt>
      <trkpt lat="45.91329" lon="3.04267">
        <ele>452</ele>
        <time>2021-07-27T06:28:38Z</time>
      </trkpt>
      <trkpt lat="45.9133" lon="3.04265">
        <ele>452</ele>
        <time>2021-07-27T06:28:39Z</time>
      </trkpt>
      <trkpt lat="45.91331" lon="3.04263">
        <ele>452</ele>
        <time>2021-07-27T06:28:40Z</time>
      </trkpt>
      <trkpt lat="45.91332" lon="3.04261">
        <ele>452</ele>
        <time>2021-07-27T06:28:41Z</time>
      </trkpt>
      <trkpt lat="45.91332" lon="3.04259">
        <ele>452</ele>
        <time>2021-07-27T06:28:42Z</time>
      </trkpt>
      <trkpt lat="45.91333" lon="3.04257">
        <ele>452</ele>
        <time>2021-07-27T06:28:43Z</time>
      </trkpt>
      <trkpt lat="45.91334" lon="3.04255">
        <ele>452</ele>
        <time>2021-07-27T06:28:44Z</time>
      </trkpt>
      <trkpt lat="45.91335" lon="3.04253">
        <ele>452</ele>
        <time>2021-07-27T06:28:45Z</time>
      </trkpt>
      <trkpt lat="45.91336" lon="3.04251">
        <ele>452</ele>
        <time>2021-07-27T06:28:46Z</time>
      </trkpt>
      <trkpt lat="45.91336" lon="3.04249">
        <ele>452</ele>
        <time>2021-07-27T06:28:47Z</time>
      </trkpt>
      <trkpt lat="45.91337" lon="3.04248">
        <ele>452</ele>
        <time>2021-07-27T06:28:48Z</time>
      </trkpt>
      <trkpt lat="45.91338" lon="3.04246">
        <ele>452</ele>
        <time>2021-07-27T06:28:49Z</time>
      </trkpt>
      <trkpt lat="45.91338" lon="3.04244">
        <ele>452</ele>
        <time>2021-07-27T06:28:50Z</time>
      </trkpt>
      <trkpt lat="45.91338" lon="3.04243">
        <ele>452</ele>
        <time>2021-07-27T06:28:51Z</time>
      </trkpt>
      <trkpt lat="45.91338" lon="3.04241">
        <ele>452</ele>
        <time>2021-07-27T06:28:53Z</time>
      </trkpt>
      <trkpt lat="45.91338" lon="3.0424">
        <ele>452</ele>
        <time>2021-07-27T06:28:54Z</time>
      </trkpt>
      <trkpt lat="45.91338" lon="3.04232">
        <ele>452</ele>
        <time>2021-07-27T06:28:55Z</time>
      </trkpt>
      <trkpt lat="45.91338" lon="3.04232">
        <ele>452</ele>
        <time>2021-07-27T06:28:56Z</time>
      </trkpt>
      <trkpt lat="45.91338" lon="3.04231">
        <ele>452</ele>
        <time>2021-07-27T06:28:57Z</time>
      </trkpt>
      <trkpt lat="45.91338" lon="3.0423">
        <ele>452</ele>
        <time>2021-07-27T06:28:58Z</time>
      </trkpt>
      <trkpt lat="45.91338" lon="3.04229">
        <ele>452</ele>
        <time>2021-07-27T06:28:59Z</time>
      </trkpt>
      <trkpt lat="45.91339" lon="3.04227">
        <ele>452</ele>
        <time>2021-07-27T06:29:00Z</time>
      </trkpt>
      <trkpt lat="45.91339" lon="3.04226">
        <ele>452</ele>
        <time>2021-07-27T06:29:01Z</time>
      </trkpt>
      <trkpt lat="45.9134" lon="3.04224">
        <ele>452</ele>
        <time>2021-07-27T06:29:02Z</time>
      </trkpt>
      <trkpt lat="45.9134" lon="3.04222">
        <ele>452</ele>
        <time>2021-07-27T06:29:03Z</time>
      </trkpt>
      <trkpt lat="45.9134" lon="3.04221">
        <ele>452</ele>
        <time>2021-07-27T06:29:04Z</time>
      </trkpt>
      <trkpt lat="45.91341" lon="3.04219">
        <ele>452</ele>
        <time>2021-07-27T06:29:05Z</time>
      </trkpt>
      <trkpt lat="45.91341" lon="3.04217">
        <ele>452</ele>
        <time>2021-07-27T06:29:06Z</time>
      </trkpt>
      <trkpt lat="45.91341" lon="3.04215">
        <ele>452</ele>
        <time>2021-07-27T06:29:07Z</time>
      </trkpt>
      <trkpt lat="45.91343" lon="3.04213">
        <ele>452</ele>
        <time>2021-07-27T06:29:08Z</time>
      </trkpt>
      <trkpt lat="45.91344" lon="3.04212">
        <ele>452</ele>
        <time>2021-07-27T06:29:09Z</time>
      </trkpt>
      <trkpt lat="45.91344" lon="3.0421">
        <ele>452</ele>
        <time>2021-07-27T06:29:10Z</time>
      </trkpt>
      <trkpt lat="45.91345" lon="3.04209">
        <ele>452</ele>
        <time>2021-07-27T06:29:11Z</time>
      </trkpt>
      <trkpt lat="45.91346" lon="3.04207">
        <ele>452</ele>
        <time>2021-07-27T06:29:12Z</time>
      </trkpt>
      <trkpt lat="45.91346" lon="3.04205">
        <ele>452</ele>
        <time>2021-07-27T06:29:13Z</time>
      </trkpt>
      <trkpt lat="45.91347" lon="3.04203">
        <ele>452</ele>
        <time>2021-07-27T06:29:14Z</time>
      </trkpt>
      <trkpt lat="45.91347" lon="3.04201">
        <ele>452</ele>
        <time>2021-07-27T06:29:15Z</time>
      </trkpt>
      <trkpt lat="45.91348" lon="3.04199">
        <ele>452</ele>
        <time>2021-07-27T06:29:16Z</time>
      </trkpt>
      <trkpt lat="45.91349" lon="3.04197">
        <ele>452</ele>
        <time>2021-07-27T06:29:17Z</time>
      </trkpt>
      <trkpt lat="45.91349" lon="3.04195">
        <ele>452</ele>
        <time>2021-07-27T06:29:18Z</time>
      </trkpt>
      <trkpt lat="45.9135" lon="3.04193">
        <ele>452</ele>
        <time>2021-07-27T06:29:19Z</time>
      </trkpt>
      <trkpt lat="45.9135" lon="3.04192">
        <ele>452</ele>
        <time>2021-07-27T06:29:20Z</time>
      </trkpt>
      <trkpt lat="45.91351" lon="3.0419">
        <ele>452</ele>
        <time>2021-07-27T06:29:21Z</time>
      </trkpt>
      <trkpt lat="45.91352" lon="3.04189">
        <ele>452</ele>
        <time>2021-07-27T06:29:22Z</time>
      </trkpt>
      <trkpt lat="45.91353" lon="3.04187">
        <ele>452</ele>
        <time>2021-07-27T06:29:23Z</time>
      </trkpt>
      <trkpt lat="45.91353" lon="3.04185">
        <ele>452</ele>
        <time>2021-07-27T06:29:24Z</time>
      </trkpt>
      <trkpt lat="45.91354" lon="3.04183">
        <ele>452</ele>
        <time>2021-07-27T06:29:25Z</time>
      </trkpt>
      <trkpt lat="45.91355" lon="3.04182">
        <ele>452</ele>
        <time>2021-07-27T06:29:26Z</time>
      </trkpt>
      <trkpt lat="45.91356" lon="3.04181">
        <ele>452</ele>
        <time>2021-07-27T06:29:27Z</time>
      </trkpt>
      <trkpt lat="45.91357" lon="3.04179">
        <ele>452</ele>
        <time>2021-07-27T06:29:28Z</time>
      </trkpt>
      <trkpt lat="45.91358" lon="3.04178">
        <ele>452</ele>
        <time>2021-07-27T06:29:29Z</time>
      </trkpt>
      <trkpt lat="45.91359" lon="3.04177">
        <ele>452</ele>
        <time>2021-07-27T06:29:30Z</time>
      </trkpt>
      <trkpt lat="45.9136" lon="3.04176">
        <ele>452</ele>
        <time>2021-07-27T06:29:31Z</time>
      </trkpt>
      <trkpt lat="45.91362" lon="3.04174">
        <ele>452</ele>
        <time>2021-07-27T06:29:32Z</time>
      </trkpt>
      <trkpt lat="45.91362" lon="3.04173">
        <ele>452</ele>
        <time>2021-07-27T06:29:33Z</time>
      </trkpt>
      <trkpt lat="45.91364" lon="3.04172">
        <ele>452</ele>
        <time>2021-07-27T06:29:34Z</time>
      </trkpt>
      <trkpt lat="45.91364" lon="3.04171">
        <ele>452</ele>
        <time>2021-07-27T06:29:35Z</time>
      </trkpt>
      <trkpt lat="45.91365" lon="3.0417">
        <ele>452</ele>
        <time>2021-07-27T06:29:36Z</time>
      </trkpt>
      <trkpt lat="45.91366" lon="3.04169">
        <ele>452</ele>
        <time>2021-07-27T06:29:37Z</time>
      </trkpt>
      <trkpt lat="45.91367" lon="3.04168">
        <ele>452</ele>
        <time>2021-07-27T06:29:38Z</time>
      </trkpt>
      <trkpt lat="45.91368" lon="3.04167">
        <ele>452</ele>
        <time>2021-07-27T06:29:39Z</time>
      </trkpt>
      <trkpt lat="45.91369" lon="3.04166">
        <ele>452</ele>
        <time>2021-07-27T06:29:40Z</time>
      </trkpt>
      <trkpt lat="45.9137" lon="3.04164">
        <ele>452</ele>
        <time>2021-07-27T06:29:41Z</time>
      </trkpt>
      <trkpt lat="45.91371" lon="3.04163">
        <ele>452</ele>
        <time>2021-07-27T06:29:42Z</time>
      </trkpt>
      <trkpt lat="45.91372" lon="3.04161">
        <ele>452</ele>
        <time>2021-07-27T06:29:43Z</time>
      </trkpt>
      <trkpt lat="45.91373" lon="3.04159">
        <ele>452</ele>
        <time>2021-07-27T06:29:44Z</time>
      </trkpt>
      <trkpt lat="45.91373" lon="3.04158">
        <ele>452</ele>
        <time>2021-07-27T06:29:45Z</time>
      </trkpt>
      <trkpt lat="45.91374" lon="3.04156">
        <ele>452</ele>
        <time>2021-07-27T06:29:46Z</time>
      </trkpt>
      <trkpt lat="45.91375" lon="3.04155">
        <ele>452</ele>
        <time>2021-07-27T06:29:47Z</time>
      </trkpt>
      <trkpt lat="45.91377" lon="3.04154">
        <ele>452</ele>
        <time>2021-07-27T06:29:48Z</time>
      </trkpt>
      <trkpt lat="45.91377" lon="3.04152">
        <ele>452</ele>
        <time>2021-07-27T06:29:49Z</time>
      </trkpt>
      <trkpt lat="45.91378" lon="3.04151">
        <ele>452</ele>
        <time>2021-07-27T06:29:50Z</time>
      </trkpt>
      <trkpt lat="45.91379" lon="3.04149">
        <ele>452</ele>
        <time>2021-07-27T06:29:51Z</time>
      </trkpt>
      <trkpt lat="45.9138" lon="3.04147">
        <ele>452</ele>
        <time>2021-07-27T06:29:52Z</time>
      </trkpt>
      <trkpt lat="45.91381" lon="3.04145">
        <ele>452</ele>
        <time>2021-07-27T06:29:53Z</time>
      </trkpt>
      <trkpt lat="45.91383" lon="3.04142">
        <ele>452</ele>
        <time>2021-07-27T06:29:54Z</time>
      </trkpt>
      <trkpt lat="45.91383" lon="3.0414">
        <ele>452</ele>
        <time>2021-07-27T06:29:55Z</time>
      </trkpt>
      <trkpt lat="45.91385" lon="3.04138">
        <ele>452</ele>
        <time>2021-07-27T06:29:56Z</time>
      </trkpt>
      <trkpt lat="45.91386" lon="3.04136">
        <ele>452</ele>
        <time>2021-07-27T06:29:57Z</time>
      </trkpt>
      <trkpt lat="45.91386" lon="3.04134">
        <ele>452</ele>
        <time>2021-07-27T06:29:58Z</time>
      </trkpt>
      <trkpt lat="45.91387" lon="3.04132">
        <ele>452</ele>
        <time>2021-07-27T06:29:59Z</time>
      </trkpt>
      <trkpt lat="45.91388" lon="3.04131">
        <ele>452</ele>
        <time>2021-07-27T06:30:00Z</time>
      </trkpt>
      <trkpt lat="45.91389" lon="3.0413">
        <ele>452</ele>
        <time>2021-07-27T06:30:01Z</time>
      </trkpt>
      <trkpt lat="45.91389" lon="3.04128">
        <ele>452</ele>
        <time>2021-07-27T06:30:02Z</time>
      </trkpt>
      <trkpt lat="45.9139" lon="3.04127">
        <ele>452</ele>
        <time>2021-07-27T06:30:03Z</time>
      </trkpt>
      <trkpt lat="45.91391" lon="3.04125">
        <ele>452</ele>
        <time>2021-07-27T06:30:04Z</time>
      </trkpt>
      <trkpt lat="45.91391" lon="3.04123">
        <ele>452</ele>
        <time>2021-07-27T06:30:05Z</time>
      </trkpt>
      <trkpt lat="45.91392" lon="3.04122">
        <ele>452</ele>
        <time>2021-07-27T06:30:06Z</time>
      </trkpt>
      <trkpt lat="45.91392" lon="3.0412">
        <ele>452</ele>
        <time>2021-07-27T06:30:07Z</time>
      </trkpt>
      <trkpt lat="45.91393" lon="3.04118">
        <ele>452</ele>
        <time>2021-07-27T06:30:08Z</time>
      </trkpt>
      <trkpt lat="45.91393" lon="3.04116">
        <ele>452</ele>
        <time>2021-07-27T06:30:09Z</time>
      </trkpt>
      <trkpt lat="45.91393" lon="3.04114">
        <ele>452</ele>
        <time>2021-07-27T06:30:10Z</time>
      </trkpt>
      <trkpt lat="45.91393" lon="3.04111">
        <ele>452</ele>
        <time>2021-07-27T06:30:11Z</time>
      </trkpt>
      <trkpt lat="45.91394" lon="3.04109">
        <ele>452</ele>
        <time>2021-07-27T06:30:12Z</time>
      </trkpt>
      <trkpt lat="45.91394" lon="3.04107">
        <ele>452</ele>
        <time>2021-07-27T06:30:13Z</time>
      </trkpt>
      <trkpt lat="45.91394" lon="3.04105">
        <ele>452</ele>
        <time>2021-07-27T06:30:14Z</time>
      </trkpt>
      <trkpt lat="45.91394" lon="3.04102">
        <ele>452</ele>
        <time>2021-07-27T06:30:15Z</time>
      </trkpt>
      <trkpt lat="45.91394" lon="3.041">
        <ele>452</ele>
        <time>2021-07-27T06:30:16Z</time>
      </trkpt>
      <trkpt lat="45.91394" lon="3.04098">
        <ele>452</ele>
        <time>2021-07-27T06:30:17Z</time>
      </trkpt>
      <trkpt lat="45.91394" lon="3.04096">
        <ele>452</ele>
        <time>2021-07-27T06:30:18Z</time>
      </trkpt>
      <trkpt lat="45.91394" lon="3.04095">
        <ele>452</ele>
        <time>2021-07-27T06:30:19Z</time>
      </trkpt>
      <trkpt lat="45.91394" lon="3.04093">
        <ele>452</ele>
        <time>2021-07-27T06:30:20Z</time>
      </trkpt>
      <trkpt lat="45.91394" lon="3.04091">
        <ele>452</ele>
        <time>2021-07-27T06:30:21Z</time>
      </trkpt>
      <trkpt lat="45.91394" lon="3.04089">
        <ele>452</ele>
        <time>2021-07-27T06:30:22Z</time>
      </trkpt>
      <trkpt lat="45.91393" lon="3.04087">
        <ele>452</ele>
        <time>2021-07-27T06:30:23Z</time>
      </trkpt>
      <trkpt lat="45.91393" lon="3.04085">
        <ele>452</ele>
        <time>2021-07-27T06:30:24Z</time>
      </trkpt>
      <trkpt lat="45.91393" lon="3.04083">
        <ele>452</ele>
        <time>2021-07-27T06:30:25Z</time>
      </trkpt>
      <trkpt lat="45.91392" lon="3.04081">
        <ele>452</ele>
        <time>2021-07-27T06:30:26Z</time>
      </trkpt>
      <trkpt lat="45.91392" lon="3.04079">
        <ele>452</ele>
        <time>2021-07-27T06:30:27Z</time>
      </trkpt>
      <trkpt lat="45.91391" lon="3.04078">
        <ele>452</ele>
        <time>2021-07-27T06:30:28Z</time>
      </trkpt>
      <trkpt lat="45.91391" lon="3.04076">
        <ele>452</ele>
        <time>2021-07-27T06:30:29Z</time>
      </trkpt>
      <trkpt lat="45.91391" lon="3.04074">
        <ele>452</ele>
        <time>2021-07-27T06:30:30Z</time>
      </trkpt>
      <trkpt lat="45.9139" lon="3.04073">
        <ele>452</ele>
        <time>2021-07-27T06:30:31Z</time>
      </trkpt>
      <trkpt lat="45.9139" lon="3.04071">
        <ele>452</ele>
        <time>2021-07-27T06:30:32Z</time>
      </trkpt>
      <trkpt lat="45.9139" lon="3.04069">
        <ele>452</ele>
        <time>2021-07-27T06:30:33Z</time>
      </trkpt>
      <trkpt lat="45.91389" lon="3.04067">
        <ele>452</ele>
        <time>2021-07-27T06:30:34Z</time>
      </trkpt>
      <trkpt lat="45.91389" lon="3.04065">
        <ele>452</ele>
        <time>2021-07-27T06:30:35Z</time>
      </trkpt>
      <trkpt lat="45.91388" lon="3.04063">
        <ele>452</ele>
        <time>2021-07-27T06:30:36Z</time>
      </trkpt>
      <trkpt lat="45.91388" lon="3.04061">
        <ele>452</ele>
        <time>2021-07-27T06:30:37Z</time>
      </trkpt>
      <trkpt lat="45.91388" lon="3.04059">
        <ele>452</ele>
        <time>2021-07-27T06:30:38Z</time>
      </trkpt>
      <trkpt lat="45.91387" lon="3.04056">
        <ele>452</ele>
        <time>2021-07-27T06:30:39Z</time>
      </trkpt>
      <trkpt lat="45.91387" lon="3.04054">
        <ele>452</ele>
        <time>2021-07-27T06:30:40Z</time>
      </trkpt>
      <trkpt lat="45.91386" lon="3.04052">
        <ele>452</ele>
        <time>2021-07-27T06:30:41Z</time>
      </trkpt>
      <trkpt lat="45.91386" lon="3.0405">
        <ele>452</ele>
        <time>2021-07-27T06:30:42Z</time>
      </trkpt>
      <trkpt lat="45.91386" lon="3.04048">
        <ele>452</ele>
        <time>2021-07-27T06:30:43Z</time>
      </trkpt>
      <trkpt lat="45.91386" lon="3.04046">
        <ele>452</ele>
        <time>2021-07-27T06:30:44Z</time>
      </trkpt>
      <trkpt lat="45.91386" lon="3.04044">
        <ele>452</ele>
        <time>2021-07-27T06:30:45Z</time>
      </trkpt>
      <trkpt lat="45.91386" lon="3.04042">
        <ele>452</ele>
        <time>2021-07-27T06:30:46Z</time>
      </trkpt>
      <trkpt lat="45.91386" lon="3.0404">
        <ele>452</ele>
        <time>2021-07-27T06:30:47Z</time>
      </trkpt>
      <trkpt lat="45.91386" lon="3.04039">
        <ele>452</ele>
        <time>2021-07-27T06:30:48Z</time>
      </trkpt>
      <trkpt lat="45.91386" lon="3.04037">
        <ele>452</ele>
        <time>2021-07-27T06:30:49Z</time>
      </trkpt>
      <trkpt lat="45.91386" lon="3.04034">
        <ele>452</ele>
        <time>2021-07-27T06:30:50Z</time>
      </trkpt>
      <trkpt lat="45.91386" lon="3.04032">
        <ele>452</ele>
        <time>2021-07-27T06:30:51Z</time>
      </trkpt>
      <trkpt lat="45.91386" lon="3.0403">
        <ele>452</ele>
        <time>2021-07-27T06:30:52Z</time>
      </trkpt>
      <trkpt lat="45.91386" lon="3.04028">
        <ele>452</ele>
        <time>2021-07-27T06:30:53Z</time>
      </trkpt>
      <trkpt lat="45.91386" lon="3.04026">
        <ele>452</ele>
        <time>2021-07-27T06:30:55Z</time>
      </trkpt>
      <trkpt lat="45.91385" lon="3.04017">
        <ele>452</ele>
        <time>2021-07-27T06:30:56Z</time>
      </trkpt>
      <trkpt lat="45.91385" lon="3.04017">
        <ele>452</ele>
        <time>2021-07-27T06:30:57Z</time>
      </trkpt>
      <trkpt lat="45.91385" lon="3.04016">
        <ele>452</ele>
        <time>2021-07-27T06:30:58Z</time>
      </trkpt>
      <trkpt lat="45.91385" lon="3.04016">
        <ele>452</ele>
        <time>2021-07-27T06:30:59Z</time>
      </trkpt>
      <trkpt lat="45.91385" lon="3.04015">
        <ele>452</ele>
        <time>2021-07-27T06:31:00Z</time>
      </trkpt>
      <trkpt lat="45.91386" lon="3.04013">
        <ele>452</ele>
        <time>2021-07-27T06:31:01Z</time>
      </trkpt>
      <trkpt lat="45.91386" lon="3.04012">
        <ele>452</ele>
        <time>2021-07-27T06:31:02Z</time>
      </trkpt>
      <trkpt lat="45.91386" lon="3.0401">
        <ele>452</ele>
        <time>2021-07-27T06:31:03Z</time>
      </trkpt>
      <trkpt lat="45.91386" lon="3.04009">
        <ele>452</ele>
        <time>2021-07-27T06:31:04Z</time>
      </trkpt>
      <trkpt lat="45.91385" lon="3.04007">
        <ele>452</ele>
        <time>2021-07-27T06:31:05Z</time>
      </trkpt>
      <trkpt lat="45.91385" lon="3.04005">
        <ele>452</ele>
        <time>2021-07-27T06:31:06Z</time>
      </trkpt>
      <trkpt lat="45.91385" lon="3.04004">
        <ele>452</ele>
        <time>2021-07-27T06:31:07Z</time>
      </trkpt>
      <trkpt lat="45.91385" lon="3.04002">
        <ele>452</ele>
        <time>2021-07-27T06:31:08Z</time>
      </trkpt>
      <trkpt lat="45.91385" lon="3.04">
        <ele>452</ele>
        <time>2021-07-27T06:31:09Z</time>
      </trkpt>
      <trkpt lat="45.91385" lon="3.03998">
        <ele>452</ele>
        <time>2021-07-27T06:31:10Z</time>
      </trkpt>
      <trkpt lat="45.91385" lon="3.03997">
        <ele>452</ele>
        <time>2021-07-27T06:31:11Z</time>
      </trkpt>
      <trkpt lat="45.91384" lon="3.03995">
        <ele>452</ele>
        <time>2021-07-27T06:31:12Z</time>
      </trkpt>
      <trkpt lat="45.91384" lon="3.03993">
        <ele>452</ele>
        <time>2021-07-27T06:31:13Z</time>
      </trkpt>
      <trkpt lat="45.91384" lon="3.03991">
        <ele>452</ele>
        <time>2021-07-27T06:31:14Z</time>
      </trkpt>
      <trkpt lat="45.91384" lon="3.03989">
        <ele>452</ele>
        <time>2021-07-27T06:31:15Z</time>
      </trkpt>
      <trkpt lat="45.91384" lon="3.03986">
        <ele>452</ele>
        <time>2021-07-27T06:31:16Z</time>
      </trkpt>
      <trkpt lat="45.91385" lon="3.03983">
        <ele>452</ele>
        <time>2021-07-27T06:31:17Z</time>
      </trkpt>
      <trkpt lat="45.91385" lon="3.03981">
        <ele>452</ele>
        <time>2021-07-27T06:31:18Z</time>
      </trkpt>
      <trkpt lat="45.91385" lon="3.03978">
        <ele>452</ele>
        <time>2021-07-27T06:31:19Z</time>
      </trkpt>
      <trkpt lat="45.91385" lon="3.03975">
        <ele>452</ele>
        <time>2021-07-27T06:31:20Z</time>
      </trkpt>
      <trkpt lat="45.91385" lon="3.03973">
        <ele>452</ele>
        <time>2021-07-27T06:31:21Z</time>
      </trkpt>
      <trkpt lat="45.91384" lon="3.0397">
        <ele>452</ele>
        <time>2021-07-27T06:31:22Z</time>
      </trkpt>
      <trkpt lat="45.91383" lon="3.03967">
        <ele>452</ele>
        <time>2021-07-27T06:31:23Z</time>
      </trkpt>
      <trkpt lat="45.91383" lon="3.03964">
        <ele>452</ele>
        <time>2021-07-27T06:31:24Z</time>
      </trkpt>
      <trkpt lat="45.91383" lon="3.03961">
        <ele>452</ele>
        <time>2021-07-27T06:31:25Z</time>
      </trkpt>
      <trkpt lat="45.91383" lon="3.03958">
        <ele>452</ele>
        <time>2021-07-27T06:31:26Z</time>
      </trkpt>
      <trkpt lat="45.91383" lon="3.03955">
        <ele>452</ele>
        <time>2021-07-27T06:31:27Z</time>
      </trkpt>
      <trkpt lat="45.91383" lon="3.03953">
        <ele>452</ele>
        <time>2021-07-27T06:31:28Z</time>
      </trkpt>
      <trkpt lat="45.91382" lon="3.0395">
        <ele>452</ele>
        <time>2021-07-27T06:31:29Z</time>
      </trkpt>
      <trkpt lat="45.91382" lon="3.03947">
        <ele>452</ele>
        <time>2021-07-27T06:31:30Z</time>
      </trkpt>
      <trkpt lat="45.91382" lon="3.03945">
        <ele>452</ele>
        <time>2021-07-27T06:31:31Z</time>
      </trkpt>
      <trkpt lat="45.91381" lon="3.03942">
        <ele>452</ele>
        <time>2021-07-27T06:31:32Z</time>
      </trkpt>
      <trkpt lat="45.9138" lon="3.0394">
        <ele>452</ele>
        <time>2021-07-27T06:31:33Z</time>
      </trkpt>
      <trkpt lat="45.9138" lon="3.03938">
        <ele>452</ele>
        <time>2021-07-27T06:31:34Z</time>
      </trkpt>
      <trkpt lat="45.9138" lon="3.03936">
        <ele>452</ele>
        <time>2021-07-27T06:31:35Z</time>
      </trkpt>
      <trkpt lat="45.9138" lon="3.03934">
        <ele>452</ele>
        <time>2021-07-27T06:31:36Z</time>
      </trkpt>
      <trkpt lat="45.91379" lon="3.03932">
        <ele>452</ele>
        <time>2021-07-27T06:31:37Z</time>
      </trkpt>
      <trkpt lat="45.91378" lon="3.03929">
        <ele>452</ele>
        <time>2021-07-27T06:31:38Z</time>
      </trkpt>
      <trkpt lat="45.91377" lon="3.03927">
        <ele>452</ele>
        <time>2021-07-27T06:31:39Z</time>
      </trkpt>
      <trkpt lat="45.91377" lon="3.03924">
        <ele>452</ele>
        <time>2021-07-27T06:31:40Z</time>
      </trkpt>
      <trkpt lat="45.91377" lon="3.03921">
        <ele>452</ele>
        <time>2021-07-27T06:31:41Z</time>
      </trkpt>
      <trkpt lat="45.91377" lon="3.03919">
        <ele>452</ele>
        <time>2021-07-27T06:31:42Z</time>
      </trkpt>
      <trkpt lat="45.91377" lon="3.03917">
        <ele>452</ele>
        <time>2021-07-27T06:31:43Z</time>
      </trkpt>
      <trkpt lat="45.91377" lon="3.03914">
        <ele>452</ele>
        <time>2021-07-27T06:31:44Z</time>
      </trkpt>
      <trkpt lat="45.91377" lon="3.03912">
        <ele>452</ele>
        <time>2021-07-27T06:31:45Z</time>
      </trkpt>
      <trkpt lat="45.91377" lon="3.0391">
        <ele>452</ele>
        <time>2021-07-27T06:31:46Z</time>
      </trkpt>
      <trkpt lat="45.91377" lon="3.03908">
        <ele>452</ele>
        <time>2021-07-27T06:31:47Z</time>
      </trkpt>
      <trkpt lat="45.91377" lon="3.03905">
        <ele>452</ele>
        <time>2021-07-27T06:31:48Z</time>
      </trkpt>
      <trkpt lat="45.91377" lon="3.03903">
        <ele>452</ele>
        <time>2021-07-27T06:31:49Z</time>
      </trkpt>
      <trkpt lat="45.91377" lon="3.039">
        <ele>452</ele>
        <time>2021-07-27T06:31:50Z</time>
      </trkpt>
      <trkpt lat="45.91378" lon="3.03898">
        <ele>452</ele>
        <time>2021-07-27T06:31:51Z</time>
      </trkpt>
      <trkpt lat="45.91378" lon="3.03895">
        <ele>452</ele>
        <time>2021-07-27T06:31:52Z</time>
      </trkpt>
      <trkpt lat="45.91378" lon="3.03893">
        <ele>452</ele>
        <time>2021-07-27T06:31:54Z</time>
      </trkpt>
      <trkpt lat="45.9138" lon="3.03883">
        <ele>452</ele>
        <time>2021-07-27T06:31:55Z</time>
      </trkpt>
      <trkpt lat="45.9138" lon="3.03882">
        <ele>452</ele>
        <time>2021-07-27T06:31:56Z</time>
      </trkpt>
      <trkpt lat="45.91379" lon="3.03881">
        <ele>452</ele>
        <time>2021-07-27T06:31:57Z</time>
      </trkpt>
      <trkpt lat="45.91379" lon="3.03879">
        <ele>452</ele>
        <time>2021-07-27T06:31:58Z</time>
      </trkpt>
      <trkpt lat="45.91378" lon="3.03877">
        <ele>452</ele>
        <time>2021-07-27T06:31:59Z</time>
      </trkpt>
      <trkpt lat="45.91378" lon="3.03875">
        <ele>452</ele>
        <time>2021-07-27T06:32:00Z</time>
      </trkpt>
      <trkpt lat="45.91377" lon="3.03874">
        <ele>452</ele>
        <time>2021-07-27T06:32:01Z</time>
      </trkpt>
      <trkpt lat="45.91377" lon="3.03872">
        <ele>452</ele>
        <time>2021-07-27T06:32:02Z</time>
      </trkpt>
      <trkpt lat="45.91377" lon="3.0387">
        <ele>452</ele>
        <time>2021-07-27T06:32:03Z</time>
      </trkpt>
      <trkpt lat="45.91377" lon="3.03868">
        <ele>452</ele>
        <time>2021-07-27T06:32:04Z</time>
      </trkpt>
      <trkpt lat="45.91377" lon="3.03866">
        <ele>452</ele>
        <time>2021-07-27T06:32:05Z</time>
      </trkpt>
      <trkpt lat="45.91377" lon="3.03864">
        <ele>452</ele>
        <time>2021-07-27T06:32:06Z</time>
      </trkpt>
      <trkpt lat="45.91377" lon="3.03863">
        <ele>452</ele>
        <time>2021-07-27T06:32:07Z</time>
      </trkpt>
      <trkpt lat="45.91377" lon="3.03861">
        <ele>452</ele>
        <time>2021-07-27T06:32:08Z</time>
      </trkpt>
      <trkpt lat="45.91377" lon="3.03859">
        <ele>452</ele>
        <time>2021-07-27T06:32:09Z</time>
      </trkpt>
      <trkpt lat="45.91377" lon="3.03858">
        <ele>452</ele>
        <time>2021-07-27T06:32:10Z</time>
      </trkpt>
      <trkpt lat="45.91377" lon="3.03857">
        <ele>452</ele>
        <time>2021-07-27T06:32:11Z</time>
      </trkpt>
      <trkpt lat="45.91377" lon="3.03856">
        <ele>452</ele>
        <time>2021-07-27T06:32:12Z</time>
      </trkpt>
      <trkpt lat="45.91377" lon="3.03854">
        <ele>452</ele>
        <time>2021-07-27T06:32:13Z</time>
      </trkpt>
      <trkpt lat="45.91377" lon="3.03852">
        <ele>452</ele>
        <time>2021-07-27T06:32:14Z</time>
      </trkpt>
      <trkpt lat="45.91377" lon="3.03851">
        <ele>452</ele>
        <time>2021-07-27T06:32:15Z</time>
      </trkpt>
      <trkpt lat="45.91377" lon="3.03849">
        <ele>452</ele>
        <time>2021-07-27T06:32:16Z</time>
      </trkpt>
      <trkpt lat="45.91376" lon="3.03847">
        <ele>452</ele>
        <time>2021-07-27T06:32:17Z</time>
      </trkpt>
      <trkpt lat="45.91375" lon="3.03845">
        <ele>452</ele>
        <time>2021-07-27T06:32:18Z</time>
      </trkpt>
      <trkpt lat="45.91375" lon="3.03844">
        <ele>452</ele>
        <time>2021-07-27T06:32:19Z</time>
      </trkpt>
      <trkpt lat="45.91375" lon="3.03842">
        <ele>452</ele>
        <time>2021-07-27T06:32:20Z</time>
      </trkpt>
      <trkpt lat="45.91375" lon="3.0384">
        <ele>452</ele>
        <time>2021-07-27T06:32:21Z</time>
      </trkpt>
      <trkpt lat="45.91374" lon="3.03838">
        <ele>452</ele>
        <time>2021-07-27T06:32:22Z</time>
      </trkpt>
      <trkpt lat="45.91375" lon="3.03837">
        <ele>452</ele>
        <time>2021-07-27T06:32:23Z</time>
      </trkpt>
      <trkpt lat="45.91375" lon="3.03835">
        <ele>452</ele>
        <time>2021-07-27T06:32:24Z</time>
      </trkpt>
      <trkpt lat="45.91374" lon="3.03833">
        <ele>452</ele>
        <time>2021-07-27T06:32:25Z</time>
      </trkpt>
      <trkpt lat="45.91374" lon="3.0383">
        <ele>452</ele>
        <time>2021-07-27T06:32:26Z</time>
      </trkpt>
      <trkpt lat="45.91374" lon="3.03828">
        <ele>452</ele>
        <time>2021-07-27T06:32:27Z</time>
      </trkpt>
      <trkpt lat="45.91374" lon="3.03826">
        <ele>452</ele>
        <time>2021-07-27T06:32:28Z</time>
      </trkpt>
      <trkpt lat="45.91373" lon="3.03824">
        <ele>452</ele>
        <time>2021-07-27T06:32:29Z</time>
      </trkpt>
      <trkpt lat="45.91373" lon="3.03821">
        <ele>452</ele>
        <time>2021-07-27T06:32:30Z</time>
      </trkpt>
      <trkpt lat="45.91373" lon="3.03819">
        <ele>452</ele>
        <time>2021-07-27T06:32:31Z</time>
      </trkpt>
      <trkpt lat="45.91373" lon="3.03817">
        <ele>452</ele>
        <time>2021-07-27T06:32:32Z</time>
      </trkpt>
      <trkpt lat="45.91373" lon="3.03814">
        <ele>452</ele>
        <time>2021-07-27T06:32:33Z</time>
      </trkpt>
      <trkpt lat="45.91373" lon="3.03812">
        <ele>452</ele>
        <time>2021-07-27T06:32:34Z</time>
      </trkpt>
      <trkpt lat="45.91372" lon="3.0381">
        <ele>452</ele>
        <time>2021-07-27T06:32:35Z</time>
      </trkpt>
      <trkpt lat="45.91372" lon="3.03808">
        <ele>452</ele>
        <time>2021-07-27T06:32:36Z</time>
      </trkpt>
      <trkpt lat="45.91372" lon="3.03806">
        <ele>452</ele>
        <time>2021-07-27T06:32:37Z</time>
      </trkpt>
      <trkpt lat="45.91371" lon="3.03804">
        <ele>452</ele>
        <time>2021-07-27T06:32:38Z</time>
      </trkpt>
      <trkpt lat="45.91371" lon="3.03803">
        <ele>452</ele>
        <time>2021-07-27T06:32:39Z</time>
      </trkpt>
      <trkpt lat="45.91371" lon="3.03801">
        <ele>452</ele>
        <time>2021-07-27T06:32:40Z</time>
      </trkpt>
      <trkpt lat="45.91371" lon="3.03799">
        <ele>452</ele>
        <time>2021-07-27T06:32:41Z</time>
      </trkpt>
      <trkpt lat="45.91371" lon="3.03797">
        <ele>452</ele>
        <time>2021-07-27T06:32:42Z</time>
      </trkpt>
      <trkpt lat="45.91371" lon="3.03794">
        <ele>452</ele>
        <time>2021-07-27T06:32:43Z</time>
      </trkpt>
      <trkpt lat="45.91371" lon="3.03792">
        <ele>452</ele>
        <time>2021-07-27T06:32:44Z</time>
      </trkpt>
      <trkpt lat="45.9137" lon="3.0379">
        <ele>452</ele>
        <time>2021-07-27T06:32:45Z</time>
      </trkpt>
      <trkpt lat="45.9137" lon="3.03788">
        <ele>452</ele>
        <time>2021-07-27T06:32:46Z</time>
      </trkpt>
      <trkpt lat="45.91369" lon="3.03785">
        <ele>452</ele>
        <time>2021-07-27T06:32:47Z</time>
      </trkpt>
      <trkpt lat="45.91369" lon="3.03783">
        <ele>452</ele>
        <time>2021-07-27T06:32:47Z</time>
      </trkpt>
      <trkpt lat="45.91368" lon="3.03781">
        <ele>452</ele>
        <time>2021-07-27T06:32:48Z</time>
      </trkpt>
      <trkpt lat="45.91368" lon="3.03778">
        <ele>452</ele>
        <time>2021-07-27T06:32:49Z</time>
      </trkpt>
      <trkpt lat="45.91367" lon="3.03777">
        <ele>452</ele>
        <time>2021-07-27T06:32:50Z</time>
      </trkpt>
      <trkpt lat="45.91367" lon="3.03774">
        <ele>452</ele>
        <time>2021-07-27T06:32:51Z</time>
      </trkpt>
      <trkpt lat="45.91366" lon="3.03773">
        <ele>452</ele>
        <time>2021-07-27T06:32:52Z</time>
      </trkpt>
      <trkpt lat="45.91365" lon="3.03771">
        <ele>452</ele>
        <time>2021-07-27T06:32:54Z</time>
      </trkpt>
      <trkpt lat="45.91363" lon="3.03764">
        <ele>452</ele>
        <time>2021-07-27T06:32:55Z</time>
      </trkpt>
      <trkpt lat="45.91363" lon="3.03764">
        <ele>452</ele>
        <time>2021-07-27T06:32:56Z</time>
      </trkpt>
      <trkpt lat="45.91362" lon="3.03763">
        <ele>452</ele>
        <time>2021-07-27T06:32:57Z</time>
      </trkpt>
      <trkpt lat="45.91362" lon="3.03762">
        <ele>452</ele>
        <time>2021-07-27T06:32:58Z</time>
      </trkpt>
      <trkpt lat="45.91362" lon="3.0376">
        <ele>452</ele>
        <time>2021-07-27T06:32:59Z</time>
      </trkpt>
      <trkpt lat="45.91362" lon="3.03758">
        <ele>452</ele>
        <time>2021-07-27T06:33:00Z</time>
      </trkpt>
      <trkpt lat="45.91361" lon="3.03756">
        <ele>452</ele>
        <time>2021-07-27T06:33:01Z</time>
      </trkpt>
      <trkpt lat="45.9136" lon="3.03754">
        <ele>452</ele>
        <time>2021-07-27T06:33:02Z</time>
      </trkpt>
      <trkpt lat="45.91359" lon="3.03751">
        <ele>452</ele>
        <time>2021-07-27T06:33:03Z</time>
      </trkpt>
      <trkpt lat="45.91359" lon="3.03749">
        <ele>452</ele>
        <time>2021-07-27T06:33:04Z</time>
      </trkpt>
      <trkpt lat="45.91359" lon="3.03747">
        <ele>452</ele>
        <time>2021-07-27T06:33:05Z</time>
      </trkpt>
      <trkpt lat="45.91358" lon="3.03745">
        <ele>452</ele>
        <time>2021-07-27T06:33:06Z</time>
      </trkpt>
      <trkpt lat="45.91358" lon="3.03743">
        <ele>452</ele>
        <time>2021-07-27T06:33:07Z</time>
      </trkpt>
      <trkpt lat="45.91357" lon="3.03741">
        <ele>452</ele>
        <time>2021-07-27T06:33:08Z</time>
      </trkpt>
      <trkpt lat="45.91357" lon="3.03739">
        <ele>452</ele>
        <time>2021-07-27T06:33:09Z</time>
      </trkpt>
      <trkpt lat="45.91357" lon="3.03737">
        <ele>452</ele>
        <time>2021-07-27T06:33:10Z</time>
      </trkpt>
      <trkpt lat="45.91357" lon="3.03736">
        <ele>452</ele>
        <time>2021-07-27T06:33:11Z</time>
      </trkpt>
      <trkpt lat="45.91357" lon="3.03734">
        <ele>452</ele>
        <time>2021-07-27T06:33:12Z</time>
      </trkpt>
      <trkpt lat="45.91356" lon="3.03732">
        <ele>452</ele>
        <time>2021-07-27T06:33:13Z</time>
      </trkpt>
      <trkpt lat="45.91356" lon="3.03731">
        <ele>452</ele>
        <time>2021-07-27T06:33:14Z</time>
      </trkpt>
      <trkpt lat="45.91356" lon="3.0373">
        <ele>452</ele>
        <time>2021-07-27T06:33:15Z</time>
      </trkpt>
      <trkpt lat="45.91356" lon="3.03728">
        <ele>452</ele>
        <time>2021-07-27T06:33:16Z</time>
      </trkpt>
      <trkpt lat="45.91356" lon="3.03727">
        <ele>452</ele>
        <time>2021-07-27T06:33:17Z</time>
      </trkpt>
      <trkpt lat="45.91356" lon="3.03725">
        <ele>452</ele>
        <time>2021-07-27T06:33:18Z</time>
      </trkpt>
      <trkpt lat="45.91355" lon="3.03724">
        <ele>452</ele>
        <time>2021-07-27T06:33:19Z</time>
      </trkpt>
      <trkpt lat="45.91354" lon="3.03722">
        <ele>452</ele>
        <time>2021-07-27T06:33:20Z</time>
      </trkpt>
      <trkpt lat="45.91354" lon="3.03721">
        <ele>452</ele>
        <time>2021-07-27T06:33:21Z</time>
      </trkpt>
      <trkpt lat="45.91353" lon="3.03719">
        <ele>452</ele>
        <time>2021-07-27T06:33:22Z</time>
      </trkpt>
      <trkpt lat="45.91353" lon="3.03717">
        <ele>452</ele>
        <time>2021-07-27T06:33:23Z</time>
      </trkpt>
      <trkpt lat="45.91353" lon="3.03716">
        <ele>452</ele>
        <time>2021-07-27T06:33:24Z</time>
      </trkpt>
      <trkpt lat="45.91352" lon="3.03714">
        <ele>452</ele>
        <time>2021-07-27T06:33:25Z</time>
      </trkpt>
      <trkpt lat="45.91352" lon="3.03712">
        <ele>452</ele>
        <time>2021-07-27T06:33:26Z</time>
      </trkpt>
      <trkpt lat="45.91351" lon="3.0371">
        <ele>452</ele>
        <time>2021-07-27T06:33:27Z</time>
      </trkpt>
      <trkpt lat="45.91351" lon="3.03708">
        <ele>452</ele>
        <time>2021-07-27T06:33:28Z</time>
      </trkpt>
      <trkpt lat="45.9135" lon="3.03706">
        <ele>452</ele>
        <time>2021-07-27T06:33:29Z</time>
      </trkpt>
      <trkpt lat="45.9135" lon="3.03704">
        <ele>452</ele>
        <time>2021-07-27T06:33:30Z</time>
      </trkpt>
      <trkpt lat="45.91349" lon="3.03702">
        <ele>452</ele>
        <time>2021-07-27T06:33:31Z</time>
      </trkpt>
      <trkpt lat="45.91348" lon="3.03699">
        <ele>452</ele>
        <time>2021-07-27T06:33:32Z</time>
      </trkpt>
      <trkpt lat="45.91348" lon="3.03697">
        <ele>452</ele>
        <time>2021-07-27T06:33:33Z</time>
      </trkpt>
      <trkpt lat="45.91347" lon="3.03695">
        <ele>452</ele>
        <time>2021-07-27T06:33:34Z</time>
      </trkpt>
      <trkpt lat="45.91346" lon="3.03693">
        <ele>452</ele>
        <time>2021-07-27T06:33:35Z</time>
      </trkpt>
      <trkpt lat="45.91346" lon="3.03691">
        <ele>452</ele>
        <time>2021-07-27T06:33:36Z</time>
      </trkpt>
      <trkpt lat="45.91345" lon="3.03688">
        <ele>452</ele>
        <time>2021-07-27T06:33:37Z</time>
      </trkpt>
      <trkpt lat="45.91344" lon="3.03686">
        <ele>452</ele>
        <time>2021-07-27T06:33:38Z</time>
      </trkpt>
      <trkpt lat="45.91344" lon="3.03683">
        <ele>452</ele>
        <time>2021-07-27T06:33:39Z</time>
      </trkpt>
      <trkpt lat="45.91343" lon="3.03681">
        <ele>452</ele>
        <time>2021-07-27T06:33:40Z</time>
      </trkpt>
      <trkpt lat="45.91342" lon="3.03679">
        <ele>452</ele>
        <time>2021-07-27T06:33:41Z</time>
      </trkpt>
      <trkpt lat="45.91341" lon="3.03677">
        <ele>452</ele>
        <time>2021-07-27T06:33:42Z</time>
      </trkpt>
      <trkpt lat="45.91341" lon="3.03675">
        <ele>452</ele>
        <time>2021-07-27T06:33:43Z</time>
      </trkpt>
      <trkpt lat="45.91341" lon="3.03673">
        <ele>452</ele>
        <time>2021-07-27T06:33:44Z</time>
      </trkpt>
      <trkpt lat="45.9134" lon="3.03672">
        <ele>452</ele>
        <time>2021-07-27T06:33:45Z</time>
      </trkpt>
      <trkpt lat="45.91339" lon="3.0367">
        <ele>452</ele>
        <time>2021-07-27T06:33:46Z</time>
      </trkpt>
      <trkpt lat="45.91338" lon="3.03668">
        <ele>452</ele>
        <time>2021-07-27T06:33:47Z</time>
      </trkpt>
      <trkpt lat="45.91338" lon="3.03666">
        <ele>452</ele>
        <time>2021-07-27T06:33:48Z</time>
      </trkpt>
      <trkpt lat="45.91336" lon="3.03665">
        <ele>452</ele>
        <time>2021-07-27T06:33:49Z</time>
      </trkpt>
      <trkpt lat="45.91335" lon="3.03663">
        <ele>452</ele>
        <time>2021-07-27T06:33:50Z</time>
      </trkpt>
      <trkpt lat="45.91334" lon="3.03661">
        <ele>452</ele>
        <time>2021-07-27T06:33:51Z</time>
      </trkpt>
      <trkpt lat="45.91332" lon="3.03659">
        <ele>452</ele>
        <time>2021-07-27T06:33:52Z</time>
      </trkpt>
      <trkpt lat="45.9133" lon="3.03658">
        <ele>452</ele>
        <time>2021-07-27T06:33:54Z</time>
      </trkpt>
      <trkpt lat="45.91325" lon="3.03652">
        <ele>452</ele>
        <time>2021-07-27T06:33:55Z</time>
      </trkpt>
      <trkpt lat="45.91324" lon="3.03651">
        <ele>452</ele>
        <time>2021-07-27T06:33:56Z</time>
      </trkpt>
      <trkpt lat="45.91324" lon="3.0365">
        <ele>452</ele>
        <time>2021-07-27T06:33:57Z</time>
      </trkpt>
      <trkpt lat="45.91323" lon="3.03648">
        <ele>452</ele>
        <time>2021-07-27T06:33:58Z</time>
      </trkpt>
      <trkpt lat="45.91323" lon="3.03647">
        <ele>452</ele>
        <time>2021-07-27T06:33:59Z</time>
      </trkpt>
      <trkpt lat="45.91322" lon="3.03645">
        <ele>452</ele>
        <time>2021-07-27T06:34:00Z</time>
      </trkpt>
      <trkpt lat="45.91322" lon="3.03644">
        <ele>452</ele>
        <time>2021-07-27T06:34:01Z</time>
      </trkpt>
      <trkpt lat="45.91321" lon="3.03643">
        <ele>452</ele>
        <time>2021-07-27T06:34:02Z</time>
      </trkpt>
      <trkpt lat="45.9132" lon="3.03641">
        <ele>452</ele>
        <time>2021-07-27T06:34:03Z</time>
      </trkpt>
      <trkpt lat="45.9132" lon="3.0364">
        <ele>452</ele>
        <time>2021-07-27T06:34:04Z</time>
      </trkpt>
      <trkpt lat="45.91319" lon="3.03639">
        <ele>452</ele>
        <time>2021-07-27T06:34:05Z</time>
      </trkpt>
      <trkpt lat="45.91318" lon="3.03637">
        <ele>452</ele>
        <time>2021-07-27T06:34:06Z</time>
      </trkpt>
      <trkpt lat="45.91317" lon="3.03636">
        <ele>452</ele>
        <time>2021-07-27T06:34:07Z</time>
      </trkpt>
      <trkpt lat="45.91317" lon="3.03634">
        <ele>452</ele>
        <time>2021-07-27T06:34:08Z</time>
      </trkpt>
      <trkpt lat="45.91317" lon="3.03632">
        <ele>452</ele>
        <time>2021-07-27T06:34:09Z</time>
      </trkpt>
      <trkpt lat="45.91317" lon="3.03631">
        <ele>452</ele>
        <time>2021-07-27T06:34:10Z</time>
      </trkpt>
      <trkpt lat="45.91316" lon="3.03629">
        <ele>452</ele>
        <time>2021-07-27T06:34:11Z</time>
      </trkpt>
      <trkpt lat="45.91315" lon="3.03627">
        <ele>452</ele>
        <time>2021-07-27T06:34:12Z</time>
      </trkpt>
      <trkpt lat="45.91314" lon="3.03625">
        <ele>452</ele>
        <time>2021-07-27T06:34:13Z</time>
      </trkpt>
      <trkpt lat="45.91314" lon="3.03623">
        <ele>452</ele>
        <time>2021-07-27T06:34:14Z</time>
      </trkpt>
      <trkpt lat="45.91314" lon="3.0362">
        <ele>452</ele>
        <time>2021-07-27T06:34:15Z</time>
      </trkpt>
      <trkpt lat="45.91312" lon="3.03618">
        <ele>452</ele>
        <time>2021-07-27T06:34:16Z</time>
      </trkpt>
      <trkpt lat="45.91312" lon="3.03616">
        <ele>452</ele>
        <time>2021-07-27T06:34:17Z</time>
      </trkpt>
      <trkpt lat="45.91311" lon="3.03614">
        <ele>452</ele>
        <time>2021-07-27T06:34:18Z</time>
      </trkpt>
      <trkpt lat="45.91311" lon="3.03612">
        <ele>452</ele>
        <time>2021-07-27T06:34:19Z</time>
      </trkpt>
      <trkpt lat="45.91309" lon="3.0361">
        <ele>452</ele>
        <time>2021-07-27T06:34:20Z</time>
      </trkpt>
      <trkpt lat="45.91308" lon="3.03608">
        <ele>452</ele>
        <time>2021-07-27T06:34:21Z</time>
      </trkpt>
      <trkpt lat="45.91307" lon="3.03605">
        <ele>452</ele>
        <time>2021-07-27T06:34:22Z</time>
      </trkpt>
      <trkpt lat="45.91307" lon="3.03603">
        <ele>452</ele>
        <time>2021-07-27T06:34:23Z</time>
      </trkpt>
      <trkpt lat="45.91306" lon="3.03601">
        <ele>452</ele>
        <time>2021-07-27T06:34:24Z</time>
      </trkpt>
      <trkpt lat="45.91305" lon="3.03599">
        <ele>452</ele>
        <time>2021-07-27T06:34:25Z</time>
      </trkpt>
      <trkpt lat="45.91304" lon="3.03596">
        <ele>452</ele>
        <time>2021-07-27T06:34:26Z</time>
      </trkpt>
      <trkpt lat="45.91303" lon="3.03594">
        <ele>452</ele>
        <time>2021-07-27T06:34:27Z</time>
      </trkpt>
      <trkpt lat="45.91302" lon="3.03592">
        <ele>452</ele>
        <time>2021-07-27T06:34:28Z</time>
      </trkpt>
      <trkpt lat="45.91302" lon="3.0359">
        <ele>452</ele>
        <time>2021-07-27T06:34:29Z</time>
      </trkpt>
      <trkpt lat="45.91301" lon="3.03588">
        <ele>452</ele>
        <time>2021-07-27T06:34:30Z</time>
      </trkpt>
      <trkpt lat="45.91299" lon="3.03586">
        <ele>452</ele>
        <time>2021-07-27T06:34:31Z</time>
      </trkpt>
      <trkpt lat="45.91299" lon="3.03584">
        <ele>452</ele>
        <time>2021-07-27T06:34:32Z</time>
      </trkpt>
      <trkpt lat="45.91298" lon="3.03582">
        <ele>452</ele>
        <time>2021-07-27T06:34:33Z</time>
      </trkpt>
      <trkpt lat="45.91297" lon="3.03581">
        <ele>452</ele>
        <time>2021-07-27T06:34:34Z</time>
      </trkpt>
      <trkpt lat="45.91296" lon="3.03579">
        <ele>452</ele>
        <time>2021-07-27T06:34:35Z</time>
      </trkpt>
      <trkpt lat="45.91296" lon="3.03578">
        <ele>452</ele>
        <time>2021-07-27T06:34:36Z</time>
      </trkpt>
      <trkpt lat="45.91295" lon="3.03577">
        <ele>452</ele>
        <time>2021-07-27T06:34:37Z</time>
      </trkpt>
      <trkpt lat="45.91293" lon="3.03575">
        <ele>452</ele>
        <time>2021-07-27T06:34:38Z</time>
      </trkpt>
      <trkpt lat="45.91293" lon="3.03574">
        <ele>452</ele>
        <time>2021-07-27T06:34:39Z</time>
      </trkpt>
      <trkpt lat="45.91291" lon="3.03573">
        <ele>452</ele>
        <time>2021-07-27T06:34:40Z</time>
      </trkpt>
      <trkpt lat="45.9129" lon="3.03571">
        <ele>452</ele>
        <time>2021-07-27T06:34:41Z</time>
      </trkpt>
      <trkpt lat="45.9129" lon="3.0357">
        <ele>452</ele>
        <time>2021-07-27T06:34:42Z</time>
      </trkpt>
      <trkpt lat="45.91288" lon="3.03569">
        <ele>452</ele>
        <time>2021-07-27T06:34:43Z</time>
      </trkpt>
      <trkpt lat="45.91287" lon="3.03568">
        <ele>452</ele>
        <time>2021-07-27T06:34:44Z</time>
      </trkpt>
      <trkpt lat="45.91286" lon="3.03566">
        <ele>452</ele>
        <time>2021-07-27T06:34:45Z</time>
      </trkpt>
      <trkpt lat="45.91285" lon="3.03565">
        <ele>452</ele>
        <time>2021-07-27T06:34:46Z</time>
      </trkpt>
      <trkpt lat="45.91284" lon="3.03564">
        <ele>452</ele>
        <time>2021-07-27T06:34:47Z</time>
      </trkpt>
      <trkpt lat="45.91283" lon="3.03562">
        <ele>452</ele>
        <time>2021-07-27T06:34:48Z</time>
      </trkpt>
      <trkpt lat="45.91282" lon="3.03561">
        <ele>452</ele>
        <time>2021-07-27T06:34:49Z</time>
      </trkpt>
      <trkpt lat="45.91281" lon="3.0356">
        <ele>452</ele>
        <time>2021-07-27T06:34:50Z</time>
      </trkpt>
      <trkpt lat="45.91279" lon="3.03559">
        <ele>452</ele>
        <time>2021-07-27T06:34:51Z</time>
      </trkpt>
      <trkpt lat="45.91278" lon="3.03558">
        <ele>452</ele>
        <time>2021-07-27T06:34:53Z</time>
      </trkpt>
      <trkpt lat="45.91275" lon="3.03553">
        <ele>452</ele>
        <time>2021-07-27T06:34:54Z</time>
      </trkpt>
      <trkpt lat="45.91274" lon="3.03552">
        <ele>452</ele>
        <time>2021-07-27T06:34:55Z</time>
      </trkpt>
      <trkpt lat="45.91274" lon="3.03552">
        <ele>452</ele>
        <time>2021-07-27T06:34:56Z</time>
      </trkpt>
      <trkpt lat="45.91274" lon="3.03552">
        <ele>452</ele>
        <time>2021-07-27T06:34:57Z</time>
      </trkpt>
      <trkpt lat="45.91273" lon="3.03551">
        <ele>452</ele>
        <time>2021-07-27T06:34:58Z</time>
      </trkpt>
      <trkpt lat="45.91272" lon="3.03551">
        <ele>452</ele>
        <time>2021-07-27T06:34:59Z</time>
      </trkpt>
      <trkpt lat="45.91272" lon="3.0355">
        <ele>452</ele>
        <time>2021-07-27T06:35:00Z</time>
      </trkpt>
      <trkpt lat="45.9127" lon="3.03549">
        <ele>452</ele>
        <time>2021-07-27T06:35:01Z</time>
      </trkpt>
      <trkpt lat="45.91269" lon="3.03548">
        <ele>452</ele>
        <time>2021-07-27T06:35:02Z</time>
      </trkpt>
      <trkpt lat="45.91269" lon="3.03547">
        <ele>452</ele>
        <time>2021-07-27T06:35:03Z</time>
      </trkpt>
      <trkpt lat="45.91267" lon="3.03546">
        <ele>452</ele>
        <time>2021-07-27T06:35:04Z</time>
      </trkpt>
      <trkpt lat="45.91267" lon="3.03545">
        <ele>452</ele>
        <time>2021-07-27T06:35:05Z</time>
      </trkpt>
      <trkpt lat="45.91266" lon="3.03544">
        <ele>452</ele>
        <time>2021-07-27T06:35:06Z</time>
      </trkpt>
      <trkpt lat="45.91265" lon="3.03543">
        <ele>452</ele>
        <time>2021-07-27T06:35:07Z</time>
      </trkpt>
      <trkpt lat="45.91264" lon="3.03542">
        <ele>452</ele>
        <time>2021-07-27T06:35:08Z</time>
      </trkpt>
      <trkpt lat="45.91263" lon="3.03541">
        <ele>452</ele>
        <time>2021-07-27T06:35:09Z</time>
      </trkpt>
      <trkpt lat="45.91262" lon="3.0354">
        <ele>452</ele>
        <time>2021-07-27T06:35:10Z</time>
      </trkpt>
      <trkpt lat="45.9126" lon="3.03538">
        <ele>452</ele>
        <time>2021-07-27T06:35:11Z</time>
      </trkpt>
      <trkpt lat="45.91259" lon="3.03537">
        <ele>452</ele>
        <time>2021-07-27T06:35:12Z</time>
      </trkpt>
      <trkpt lat="45.91258" lon="3.03536">
        <ele>452</ele>
        <time>2021-07-27T06:35:13Z</time>
      </trkpt>
      <trkpt lat="45.91257" lon="3.03534">
        <ele>452</ele>
        <time>2021-07-27T06:35:14Z</time>
      </trkpt>
      <trkpt lat="45.91255" lon="3.03533">
        <ele>452</ele>
        <time>2021-07-27T06:35:15Z</time>
      </trkpt>
      <trkpt lat="45.91254" lon="3.03531">
        <ele>452</ele>
        <time>2021-07-27T06:35:16Z</time>
      </trkpt>
      <trkpt lat="45.91252" lon="3.0353">
        <ele>452</ele>
        <time>2021-07-27T06:35:17Z</time>
      </trkpt>
      <trkpt lat="45.91251" lon="3.03528">
        <ele>452</ele>
        <time>2021-07-27T06:35:18Z</time>
      </trkpt>
      <trkpt lat="45.91249" lon="3.03527">
        <ele>452</ele>
        <time>2021-07-27T06:35:19Z</time>
      </trkpt>
      <trkpt lat="45.91247" lon="3.03526">
        <ele>452</ele>
        <time>2021-07-27T06:35:20Z</time>
      </trkpt>
      <trkpt lat="45.91246" lon="3.03525">
        <ele>452</ele>
        <time>2021-07-27T06:35:21Z</time>
      </trkpt>
      <trkpt lat="45.91245" lon="3.03524">
        <ele>452</ele>
        <time>2021-07-27T06:35:22Z</time>
      </trkpt>
      <trkpt lat="45.91244" lon="3.03522">
        <ele>452</ele>
        <time>2021-07-27T06:35:23Z</time>
      </trkpt>
      <trkpt lat="45.91243" lon="3.03521">
        <ele>452</ele>
        <time>2021-07-27T06:35:24Z</time>
      </trkpt>
      <trkpt lat="45.91242" lon="3.03519">
        <ele>452</ele>
        <time>2021-07-27T06:35:25Z</time>
      </trkpt>
      <trkpt lat="45.9124" lon="3.03518">
        <ele>452</ele>
        <time>2021-07-27T06:35:26Z</time>
      </trkpt>
      <trkpt lat="45.91239" lon="3.03516">
        <ele>452</ele>
        <time>2021-07-27T06:35:27Z</time>
      </trkpt>
      <trkpt lat="45.91238" lon="3.03515">
        <ele>452</ele>
        <time>2021-07-27T06:35:28Z</time>
      </trkpt>
      <trkpt lat="45.91237" lon="3.03513">
        <ele>452</ele>
        <time>2021-07-27T06:35:29Z</time>
      </trkpt>
      <trkpt lat="45.91236" lon="3.03511">
        <ele>452</ele>
        <time>2021-07-27T06:35:30Z</time>
      </trkpt>
      <trkpt lat="45.91235" lon="3.03509">
        <ele>452</ele>
        <time>2021-07-27T06:35:31Z</time>
      </trkpt>
      <trkpt lat="45.91234" lon="3.03508">
        <ele>452</ele>
        <time>2021-07-27T06:35:32Z</time>
      </trkpt>
      <trkpt lat="45.91233" lon="3.03506">
        <ele>452</ele>
        <time>2021-07-27T06:35:33Z</time>
      </trkpt>
      <trkpt lat="45.91233" lon="3.03504">
        <ele>452</ele>
        <time>2021-07-27T06:35:34Z</time>
      </trkpt>
      <trkpt lat="45.91233" lon="3.03502">
        <ele>452</ele>
        <time>2021-07-27T06:35:35Z</time>
      </trkpt>
      <trkpt lat="45.91232" lon="3.03501">
        <ele>452</ele>
        <time>2021-07-27T06:35:36Z</time>
      </trkpt>
      <trkpt lat="45.91232" lon="3.03499">
        <ele>452</ele>
        <time>2021-07-27T06:35:37Z</time>
      </trkpt>
      <trkpt lat="45.91232" lon="3.03497">
        <ele>452</ele>
        <time>2021-07-27T06:35:38Z</time>
      </trkpt>
      <trkpt lat="45.91232" lon="3.03494">
        <ele>452</ele>
        <time>2021-07-27T06:35:39Z</time>
      </trkpt>
      <trkpt lat="45.91232" lon="3.03492">
        <ele>452</ele>
        <time>2021-07-27T06:35:40Z</time>
      </trkpt>
      <trkpt lat="45.91232" lon="3.03489">
        <ele>452</ele>
        <time>2021-07-27T06:35:41Z</time>
      </trkpt>
      <trkpt lat="45.91232" lon="3.03486">
        <ele>452</ele>
        <time>2021-07-27T06:35:42Z</time>
      </trkpt>
      <trkpt lat="45.91232" lon="3.03483">
        <ele>452</ele>
        <time>2021-07-27T06:35:43Z</time>
      </trkpt>
      <trkpt lat="45.91232" lon="3.03481">
        <ele>452</ele>
        <time>2021-07-27T06:35:44Z</time>
      </trkpt>
      <trkpt lat="45.91232" lon="3.03478">
        <ele>452</ele>
        <time>2021-07-27T06:35:45Z</time>
      </trkpt>
      <trkpt lat="45.91233" lon="3.03476">
        <ele>452</ele>
        <time>2021-07-27T06:35:46Z</time>
      </trkpt>
      <trkpt lat="45.91233" lon="3.03475">
        <ele>452</ele>
        <time>2021-07-27T06:35:47Z</time>
      </trkpt>
      <trkpt lat="45.91233" lon="3.03474">
        <ele>452</ele>
        <time>2021-07-27T06:35:48Z</time>
      </trkpt>
      <trkpt lat="45.91233" lon="3.03473">
        <ele>452</ele>
        <time>2021-07-27T06:35:49Z</time>
      </trkpt>
      <trkpt lat="45.91234" lon="3.03471">
        <ele>452</ele>
        <time>2021-07-27T06:35:50Z</time>
      </trkpt>
      <trkpt lat="45.91235" lon="3.0347">
        <ele>452</ele>
        <time>2021-07-27T06:35:52Z</time>
      </trkpt>
      <trkpt lat="45.91238" lon="3.03463">
        <ele>452</ele>
        <time>2021-07-27T06:35:53Z</time>
      </trkpt>
      <trkpt lat="45.91239" lon="3.03462">
        <ele>452</ele>
        <time>2021-07-27T06:35:54Z</time>
      </trkpt>
      <trkpt lat="45.91239" lon="3.03461">
        <ele>452</ele>
        <time>2021-07-27T06:35:55Z</time>
      </trkpt>
      <trkpt lat="45.9124" lon="3.0346">
        <ele>452</ele>
        <time>2021-07-27T06:35:56Z</time>
      </trkpt>
      <trkpt lat="45.91241" lon="3.03458">
        <ele>452</ele>
        <time>2021-07-27T06:35:57Z</time>
      </trkpt>
      <trkpt lat="45.91242" lon="3.03457">
        <ele>452</ele>
        <time>2021-07-27T06:35:58Z</time>
      </trkpt>
      <trkpt lat="45.91242" lon="3.03455">
        <ele>452</ele>
        <time>2021-07-27T06:35:59Z</time>
      </trkpt>
      <trkpt lat="45.91243" lon="3.03453">
        <ele>452</ele>
        <time>2021-07-27T06:36:00Z</time>
      </trkpt>
      <trkpt lat="45.91244" lon="3.03452">
        <ele>452</ele>
        <time>2021-07-27T06:36:01Z</time>
      </trkpt>
      <trkpt lat="45.91245" lon="3.0345">
        <ele>452</ele>
        <time>2021-07-27T06:36:02Z</time>
      </trkpt>
      <trkpt lat="45.91245" lon="3.03448">
        <ele>452</ele>
        <time>2021-07-27T06:36:03Z</time>
      </trkpt>
      <trkpt lat="45.91246" lon="3.03446">
        <ele>452</ele>
        <time>2021-07-27T06:36:04Z</time>
      </trkpt>
      <trkpt lat="45.91247" lon="3.03444">
        <ele>452</ele>
        <time>2021-07-27T06:36:05Z</time>
      </trkpt>
      <trkpt lat="45.91248" lon="3.03442">
        <ele>452</ele>
        <time>2021-07-27T06:36:06Z</time>
      </trkpt>
      <trkpt lat="45.91249" lon="3.0344">
        <ele>452</ele>
        <time>2021-07-27T06:36:07Z</time>
      </trkpt>
      <trkpt lat="45.9125" lon="3.03438">
        <ele>452</ele>
        <time>2021-07-27T06:36:08Z</time>
      </trkpt>
      <trkpt lat="45.91251" lon="3.03436">
        <ele>452</ele>
        <time>2021-07-27T06:36:09Z</time>
      </trkpt>
      <trkpt lat="45.91252" lon="3.03434">
        <ele>452</ele>
        <time>2021-07-27T06:36:10Z</time>
      </trkpt>
      <trkpt lat="45.91253" lon="3.03432">
        <ele>452</ele>
        <time>2021-07-27T06:36:11Z</time>
      </trkpt>
      <trkpt lat="45.91254" lon="3.0343">
        <ele>452</ele>
        <time>2021-07-27T06:36:12Z</time>
      </trkpt>
      <trkpt lat="45.91256" lon="3.03429">
        <ele>452</ele>
        <time>2021-07-27T06:36:13Z</time>
      </trkpt>
      <trkpt lat="45.91257" lon="3.03428">
        <ele>452</ele>
        <time>2021-07-27T06:36:14Z</time>
      </trkpt>
      <trkpt lat="45.91258" lon="3.03427">
        <ele>452</ele>
        <time>2021-07-27T06:36:15Z</time>
      </trkpt>
      <trkpt lat="45.91259" lon="3.03425">
        <ele>452</ele>
        <time>2021-07-27T06:36:16Z</time>
      </trkpt>
      <trkpt lat="45.9126" lon="3.03424">
        <ele>452</ele>
        <time>2021-07-27T06:36:17Z</time>
      </trkpt>
      <trkpt lat="45.91261" lon="3.03423">
        <ele>452</ele>
        <time>2021-07-27T06:36:18Z</time>
      </trkpt>
      <trkpt lat="45.91262" lon="3.03422">
        <ele>452</ele>
        <time>2021-07-27T06:36:19Z</time>
      </trkpt>
      <trkpt lat="45.91263" lon="3.0342">
        <ele>452</ele>
        <time>2021-07-27T06:36:20Z</time>
      </trkpt>
      <trkpt lat="45.91264" lon="3.03418">
        <ele>452</ele>
        <time>2021-07-27T06:36:21Z</time>
      </trkpt>
      <trkpt lat="45.91264" lon="3.03417">
        <ele>452</ele>
        <time>2021-07-27T06:36:22Z</time>
      </trkpt>
      <trkpt lat="45.91265" lon="3.03415">
        <ele>452</ele>
        <time>2021-07-27T06:36:23Z</time>
      </trkpt>
      <trkpt lat="45.91265" lon="3.03413">
        <ele>452</ele>
        <time>2021-07-27T06:36:24Z</time>
      </trkpt>
      <trkpt lat="45.91266" lon="3.03411">
        <ele>452</ele>
        <time>2021-07-27T06:36:25Z</time>
      </trkpt>
      <trkpt lat="45.91266" lon="3.03409">
        <ele>452</ele>
        <time>2021-07-27T06:36:26Z</time>
      </trkpt>
      <trkpt lat="45.91267" lon="3.03408">
        <ele>452</ele>
        <time>2021-07-27T06:36:27Z</time>
      </trkpt>
      <trkpt lat="45.91267" lon="3.03406">
        <ele>452</ele>
        <time>2021-07-27T06:36:28Z</time>
      </trkpt>
      <trkpt lat="45.91268" lon="3.03404">
        <ele>452</ele>
        <time>2021-07-27T06:36:29Z</time>
      </trkpt>
      <trkpt lat="45.91269" lon="3.03403">
        <ele>452</ele>
        <time>2021-07-27T06:36:30Z</time>
      </trkpt>
      <trkpt lat="45.91269" lon="3.03401">
        <ele>452</ele>
        <time>2021-07-27T06:36:31Z</time>
      </trkpt>
      <trkpt lat="45.9127" lon="3.034">
        <ele>452</ele>
        <time>2021-07-27T06:36:32Z</time>
      </trkpt>
      <trkpt lat="45.91271" lon="3.03399">
        <ele>452</ele>
        <time>2021-07-27T06:36:33Z</time>
      </trkpt>
      <trkpt lat="45.91272" lon="3.03398">
        <ele>452</ele>
        <time>2021-07-27T06:36:34Z</time>
      </trkpt>
      <trkpt lat="45.91272" lon="3.03397">
        <ele>452</ele>
        <time>2021-07-27T06:36:35Z</time>
      </trkpt>
      <trkpt lat="45.91274" lon="3.03396">
        <ele>452</ele>
        <time>2021-07-27T06:36:36Z</time>
      </trkpt>
      <trkpt lat="45.91275" lon="3.03395">
        <ele>452</ele>
        <time>2021-07-27T06:36:37Z</time>
      </trkpt>
      <trkpt lat="45.91276" lon="3.03394">
        <ele>452</ele>
        <time>2021-07-27T06:36:39Z</time>
      </trkpt>
      <trkpt lat="45.91278" lon="3.03392">
        <ele>452</ele>
        <time>2021-07-27T06:36:41Z</time>
      </trkpt>
      <trkpt lat="45.91279" lon="3.03391">
        <ele>452</ele>
        <time>2021-07-27T06:36:42Z</time>
      </trkpt>
      <trkpt lat="45.91281" lon="3.03391">
        <ele>452</ele>
        <time>2021-07-27T06:36:43Z</time>
      </trkpt>
      <trkpt lat="45.91282" lon="3.03391">
        <ele>452</ele>
        <time>2021-07-27T06:36:44Z</time>
      </trkpt>
      <trkpt lat="45.91283" lon="3.0339">
        <ele>452</ele>
        <time>2021-07-27T06:36:45Z</time>
      </trkpt>
      <trkpt lat="45.91284" lon="3.0339">
        <ele>452</ele>
        <time>2021-07-27T06:36:46Z</time>
      </trkpt>
      <trkpt lat="45.91285" lon="3.03389">
        <ele>452</ele>
        <time>2021-07-27T06:36:47Z</time>
      </trkpt>
      <trkpt lat="45.91286" lon="3.03389">
        <ele>452</ele>
        <time>2021-07-27T06:36:48Z</time>
      </trkpt>
      <trkpt lat="45.91287" lon="3.03388">
        <ele>452</ele>
        <time>2021-07-27T06:36:49Z</time>
      </trkpt>
      <trkpt lat="45.91288" lon="3.03388">
        <ele>452</ele>
        <time>2021-07-27T06:36:50Z</time>
      </trkpt>
      <trkpt lat="45.91289" lon="3.03388">
        <ele>452</ele>
        <time>2021-07-27T06:36:51Z</time>
      </trkpt>
      <trkpt lat="45.9129" lon="3.03388">
        <ele>452</ele>
        <time>2021-07-27T06:36:53Z</time>
      </trkpt>
      <trkpt lat="45.91296" lon="3.03386">
        <ele>452</ele>
        <time>2021-07-27T06:36:54Z</time>
      </trkpt>
      <trkpt lat="45.91296" lon="3.03386">
        <ele>452</ele>
        <time>2021-07-27T06:36:55Z</time>
      </trkpt>
      <trkpt lat="45.91296" lon="3.03386">
        <ele>452</ele>
        <time>2021-07-27T06:36:56Z</time>
      </trkpt>
      <trkpt lat="45.91298" lon="3.03385">
        <ele>452</ele>
        <time>2021-07-27T06:36:57Z</time>
      </trkpt>
      <trkpt lat="45.91299" lon="3.03384">
        <ele>452</ele>
        <time>2021-07-27T06:36:58Z</time>
      </trkpt>
      <trkpt lat="45.913" lon="3.03383">
        <ele>452</ele>
        <time>2021-07-27T06:36:59Z</time>
      </trkpt>
      <trkpt lat="45.91302" lon="3.03382">
        <ele>452</ele>
        <time>2021-07-27T06:37:00Z</time>
      </trkpt>
      <trkpt lat="45.91304" lon="3.03381">
        <ele>452</ele>
        <time>2021-07-27T06:37:01Z</time>
      </trkpt>
      <trkpt lat="45.91306" lon="3.0338">
        <ele>452</ele>
        <time>2021-07-27T06:37:02Z</time>
      </trkpt>
      <trkpt lat="45.91308" lon="3.0338">
        <ele>452</ele>
        <time>2021-07-27T06:37:02Z</time>
      </trkpt>
      <trkpt lat="45.91309" lon="3.03379">
        <ele>452</ele>
        <time>2021-07-27T06:37:03Z</time>
      </trkpt>
      <trkpt lat="45.91311" lon="3.03378">
        <ele>452</ele>
        <time>2021-07-27T06:37:04Z</time>
      </trkpt>
      <trkpt lat="45.91312" lon="3.03377">
        <ele>452</ele>
        <time>2021-07-27T06:37:05Z</time>
      </trkpt>
      <trkpt lat="45.91314" lon="3.03376">
        <ele>452</ele>
        <time>2021-07-27T06:37:06Z</time>
      </trkpt>
      <trkpt lat="45.91315" lon="3.03375">
        <ele>452</ele>
        <time>2021-07-27T06:37:07Z</time>
      </trkpt>
      <trkpt lat="45.91317" lon="3.03373">
        <ele>452</ele>
        <time>2021-07-27T06:37:08Z</time>
      </trkpt>
      <trkpt lat="45.91317" lon="3.03372">
        <ele>452</ele>
        <time>2021-07-27T06:37:09Z</time>
      </trkpt>
      <trkpt lat="45.91319" lon="3.0337">
        <ele>452</ele>
        <time>2021-07-27T06:37:10Z</time>
      </trkpt>
      <trkpt lat="45.9132" lon="3.03369">
        <ele>452</ele>
        <time>2021-07-27T06:37:11Z</time>
      </trkpt>
      <trkpt lat="45.91322" lon="3.03368">
        <ele>452</ele>
        <time>2021-07-27T06:37:12Z</time>
      </trkpt>
      <trkpt lat="45.91323" lon="3.03367">
        <ele>452</ele>
        <time>2021-07-27T06:37:13Z</time>
      </trkpt>
      <trkpt lat="45.91324" lon="3.03366">
        <ele>452</ele>
        <time>2021-07-27T06:37:14Z</time>
      </trkpt>
      <trkpt lat="45.91324" lon="3.03365">
        <ele>452</ele>
        <time>2021-07-27T06:37:15Z</time>
      </trkpt>
      <trkpt lat="45.91325" lon="3.03364">
        <ele>452</ele>
        <time>2021-07-27T06:37:16Z</time>
      </trkpt>
      <trkpt lat="45.91326" lon="3.03362">
        <ele>452</ele>
        <time>2021-07-27T06:37:17Z</time>
      </trkpt>
      <trkpt lat="45.91327" lon="3.03361">
        <ele>452</ele>
        <time>2021-07-27T06:37:18Z</time>
      </trkpt>
      <trkpt lat="45.91328" lon="3.0336">
        <ele>452</ele>
        <time>2021-07-27T06:37:19Z</time>
      </trkpt>
      <trkpt lat="45.91329" lon="3.03358">
        <ele>452</ele>
        <time>2021-07-27T06:37:20Z</time>
      </trkpt>
      <trkpt lat="45.9133" lon="3.03357">
        <ele>452</ele>
        <time>2021-07-27T06:37:21Z</time>
      </trkpt>
      <trkpt lat="45.91332" lon="3.03355">
        <ele>452</ele>
        <time>2021-07-27T06:37:22Z</time>
      </trkpt>
      <trkpt lat="45.91332" lon="3.03354">
        <ele>452</ele>
        <time>2021-07-27T06:37:23Z</time>
      </trkpt>
      <trkpt lat="45.91333" lon="3.03352">
        <ele>452</ele>
        <time>2021-07-27T06:37:24Z</time>
      </trkpt>
      <trkpt lat="45.91335" lon="3.03351">
        <ele>452</ele>
        <time>2021-07-27T06:37:25Z</time>
      </trkpt>
      <trkpt lat="45.91336" lon="3.0335">
        <ele>452</ele>
        <time>2021-07-27T06:37:26Z</time>
      </trkpt>
      <trkpt lat="45.91338" lon="3.03349">
        <ele>452</ele>
        <time>2021-07-27T06:37:27Z</time>
      </trkpt>
      <trkpt lat="45.91339" lon="3.03348">
        <ele>452</ele>
        <time>2021-07-27T06:37:28Z</time>
      </trkpt>
      <trkpt lat="45.9134" lon="3.03347">
        <ele>452</ele>
        <time>2021-07-27T06:37:29Z</time>
      </trkpt>
      <trkpt lat="45.91341" lon="3.03345">
        <ele>452</ele>
        <time>2021-07-27T06:37:30Z</time>
      </trkpt>
      <trkpt lat="45.91343" lon="3.03344">
        <ele>452</ele>
        <time>2021-07-27T06:37:31Z</time>
      </trkpt>
      <trkpt lat="45.91344" lon="3.03342">
        <ele>452</ele>
        <time>2021-07-27T06:37:32Z</time>
      </trkpt>
      <trkpt lat="45.91345" lon="3.03341">
        <ele>452</ele>
        <time>2021-07-27T06:37:33Z</time>
      </trkpt>
      <trkpt lat="45.91346" lon="3.03339">
        <ele>452</ele>
        <time>2021-07-27T06:37:34Z</time>
      </trkpt>
      <trkpt lat="45.91347" lon="3.03337">
        <ele>452</ele>
        <time>2021-07-27T06:37:35Z</time>
      </trkpt>
      <trkpt lat="45.91347" lon="3.03336">
        <ele>452</ele>
        <time>2021-07-27T06:37:36Z</time>
      </trkpt>
      <trkpt lat="45.91348" lon="3.03335">
        <ele>452</ele>
        <time>2021-07-27T06:37:37Z</time>
      </trkpt>
      <trkpt lat="45.91349" lon="3.03334">
        <ele>452</ele>
        <time>2021-07-27T06:37:38Z</time>
      </trkpt>
      <trkpt lat="45.9135" lon="3.03332">
        <ele>452</ele>
        <time>2021-07-27T06:37:39Z</time>
      </trkpt>
      <trkpt lat="45.9135" lon="3.03331">
        <ele>452</ele>
        <time>2021-07-27T06:37:40Z</time>
      </trkpt>
      <trkpt lat="45.91351" lon="3.0333">
        <ele>452</ele>
        <time>2021-07-27T06:37:41Z</time>
      </trkpt>
      <trkpt lat="45.91351" lon="3.03329">
        <ele>452</ele>
        <time>2021-07-27T06:37:42Z</time>
      </trkpt>
      <trkpt lat="45.91351" lon="3.03328">
        <ele>452</ele>
        <time>2021-07-27T06:37:43Z</time>
      </trkpt>
      <trkpt lat="45.91351" lon="3.03326">
        <ele>452</ele>
        <time>2021-07-27T06:37:44Z</time>
      </trkpt>
      <trkpt lat="45.91351" lon="3.03324">
        <ele>452</ele>
        <time>2021-07-27T06:37:45Z</time>
      </trkpt>
      <trkpt lat="45.91351" lon="3.03323">
        <ele>452</ele>
        <time>2021-07-27T06:37:46Z</time>
      </trkpt>
      <trkpt lat="45.91351" lon="3.03321">
        <ele>452</ele>
        <time>2021-07-27T06:37:47Z</time>
      </trkpt>
      <trkpt lat="45.91352" lon="3.03319">
        <ele>452</ele>
        <time>2021-07-27T06:37:48Z</time>
      </trkpt>
      <trkpt lat="45.91353" lon="3.03317">
        <ele>452</ele>
        <time>2021-07-27T06:37:49Z</time>
      </trkpt>
      <trkpt lat="45.91353" lon="3.03315">
        <ele>452</ele>
        <time>2021-07-27T06:37:50Z</time>
      </trkpt>
      <trkpt lat="45.91353" lon="3.03314">
        <ele>452</ele>
        <time>2021-07-27T06:37:52Z</time>
      </trkpt>
      <trkpt lat="45.91356" lon="3.03309">
        <ele>452</ele>
        <time>2021-07-27T06:37:53Z</time>
      </trkpt>
      <trkpt lat="45.91356" lon="3.03309">
        <ele>452</ele>
        <time>2021-07-27T06:37:54Z</time>
      </trkpt>
      <trkpt lat="45.91357" lon="3.03308">
        <ele>452</ele>
        <time>2021-07-27T06:37:55Z</time>
      </trkpt>
      <trkpt lat="45.91358" lon="3.03308">
        <ele>452</ele>
        <time>2021-07-27T06:37:56Z</time>
      </trkpt>
      <trkpt lat="45.91359" lon="3.03307">
        <ele>452</ele>
        <time>2021-07-27T06:37:57Z</time>
      </trkpt>
      <trkpt lat="45.91361" lon="3.03306">
        <ele>452</ele>
        <time>2021-07-27T06:37:58Z</time>
      </trkpt>
      <trkpt lat="45.91362" lon="3.03305">
        <ele>452</ele>
        <time>2021-07-27T06:37:59Z</time>
      </trkpt>
      <trkpt lat="45.91364" lon="3.03305">
        <ele>452</ele>
        <time>2021-07-27T06:38:00Z</time>
      </trkpt>
      <trkpt lat="45.91365" lon="3.03304">
        <ele>452</ele>
        <time>2021-07-27T06:38:01Z</time>
      </trkpt>
      <trkpt lat="45.91366" lon="3.03304">
        <ele>452</ele>
        <time>2021-07-27T06:38:02Z</time>
      </trkpt>
      <trkpt lat="45.91368" lon="3.03303">
        <ele>452</ele>
        <time>2021-07-27T06:38:03Z</time>
      </trkpt>
      <trkpt lat="45.91369" lon="3.03303">
        <ele>452</ele>
        <time>2021-07-27T06:38:04Z</time>
      </trkpt>
      <trkpt lat="45.9137" lon="3.03302">
        <ele>452</ele>
        <time>2021-07-27T06:38:05Z</time>
      </trkpt>
      <trkpt lat="45.91371" lon="3.03302">
        <ele>452</ele>
        <time>2021-07-27T06:38:06Z</time>
      </trkpt>
      <trkpt lat="45.91373" lon="3.03302">
        <ele>452</ele>
        <time>2021-07-27T06:38:07Z</time>
      </trkpt>
      <trkpt lat="45.91374" lon="3.03301">
        <ele>452</ele>
        <time>2021-07-27T06:38:08Z</time>
      </trkpt>
      <trkpt lat="45.91375" lon="3.03301">
        <ele>452</ele>
        <time>2021-07-27T06:38:09Z</time>
      </trkpt>
      <trkpt lat="45.91377" lon="3.033">
        <ele>452</ele>
        <time>2021-07-27T06:38:10Z</time>
      </trkpt>
      <trkpt lat="45.91377" lon="3.033">
        <ele>452</ele>
        <time>2021-07-27T06:38:11Z</time>
      </trkpt>
      <trkpt lat="45.91378" lon="3.033">
        <ele>452</ele>
        <time>2021-07-27T06:38:12Z</time>
      </trkpt>
      <trkpt lat="45.9138" lon="3.033">
        <ele>452</ele>
        <time>2021-07-27T06:38:13Z</time>
      </trkpt>
      <trkpt lat="45.9138" lon="3.033">
        <ele>452</ele>
        <time>2021-07-27T06:38:14Z</time>
      </trkpt>
      <trkpt lat="45.91381" lon="3.03301">
        <ele>452</ele>
        <time>2021-07-27T06:38:15Z</time>
      </trkpt>
      <trkpt lat="45.91382" lon="3.03301">
        <ele>452</ele>
        <time>2021-07-27T06:38:16Z</time>
      </trkpt>
      <trkpt lat="45.91382" lon="3.03302">
        <ele>452</ele>
        <time>2021-07-27T06:38:17Z</time>
      </trkpt>
      <trkpt lat="45.91382" lon="3.03303">
        <ele>452</ele>
        <time>2021-07-27T06:38:18Z</time>
      </trkpt>
      <trkpt lat="45.91383" lon="3.03304">
        <ele>452</ele>
        <time>2021-07-27T06:38:19Z</time>
      </trkpt>
      <trkpt lat="45.91383" lon="3.03305">
        <ele>452</ele>
        <time>2021-07-27T06:38:20Z</time>
      </trkpt>
      <trkpt lat="45.91383" lon="3.03306">
        <ele>452</ele>
        <time>2021-07-27T06:38:21Z</time>
      </trkpt>
      <trkpt lat="45.91384" lon="3.03306">
        <ele>452</ele>
        <time>2021-07-27T06:38:22Z</time>
      </trkpt>
      <trkpt lat="45.91385" lon="3.03307">
        <ele>452</ele>
        <time>2021-07-27T06:38:23Z</time>
      </trkpt>
      <trkpt lat="45.91386" lon="3.03308">
        <ele>452</ele>
        <time>2021-07-27T06:38:24Z</time>
      </trkpt>
      <trkpt lat="45.91387" lon="3.03308">
        <ele>452</ele>
        <time>2021-07-27T06:38:25Z</time>
      </trkpt>
      <trkpt lat="45.91388" lon="3.03308">
        <ele>452</ele>
        <time>2021-07-27T06:38:26Z</time>
      </trkpt>
      <trkpt lat="45.91389" lon="3.03308">
        <ele>452</ele>
        <time>2021-07-27T06:38:27Z</time>
      </trkpt>
      <trkpt lat="45.91391" lon="3.03308">
        <ele>452</ele>
        <time>2021-07-27T06:38:28Z</time>
      </trkpt>
      <trkpt lat="45.91392" lon="3.03308">
        <ele>452</ele>
        <time>2021-07-27T06:38:29Z</time>
      </trkpt>
      <trkpt lat="45.91393" lon="3.03307">
        <ele>452</ele>
        <time>2021-07-27T06:38:30Z</time>
      </trkpt>
      <trkpt lat="45.91394" lon="3.03306">
        <ele>452</ele>
        <time>2021-07-27T06:38:31Z</time>
      </trkpt>
      <trkpt lat="45.91396" lon="3.03305">
        <ele>452</ele>
        <time>2021-07-27T06:38:32Z</time>
      </trkpt>
      <trkpt lat="45.91397" lon="3.03303">
        <ele>452</ele>
        <time>2021-07-27T06:38:33Z</time>
      </trkpt>
      <trkpt lat="45.91398" lon="3.03301">
        <ele>452</ele>
        <time>2021-07-27T06:38:34Z</time>
      </trkpt>
      <trkpt lat="45.91399" lon="3.033">
        <ele>452</ele>
        <time>2021-07-27T06:38:35Z</time>
      </trkpt>
      <trkpt lat="45.91401" lon="3.03298">
        <ele>452</ele>
        <time>2021-07-27T06:38:36Z</time>
      </trkpt>
      <trkpt lat="45.91401" lon="3.03296">
        <ele>452</ele>
        <time>2021-07-27T06:38:37Z</time>
      </trkpt>
      <trkpt lat="45.91403" lon="3.03294">
        <ele>452</ele>
        <time>2021-07-27T06:38:38Z</time>
      </trkpt>
      <trkpt lat="45.91405" lon="3.03293">
        <ele>452</ele>
        <time>2021-07-27T06:38:39Z</time>
      </trkpt>
      <trkpt lat="45.91406" lon="3.03291">
        <ele>452</ele>
        <time>2021-07-27T06:38:40Z</time>
      </trkpt>
      <trkpt lat="45.91407" lon="3.03289">
        <ele>452</ele>
        <time>2021-07-27T06:38:41Z</time>
      </trkpt>
      <trkpt lat="45.91408" lon="3.03287">
        <ele>452</ele>
        <time>2021-07-27T06:38:42Z</time>
      </trkpt>
      <trkpt lat="45.91409" lon="3.03285">
        <ele>452</ele>
        <time>2021-07-27T06:38:43Z</time>
      </trkpt>
      <trkpt lat="45.9141" lon="3.03284">
        <ele>452</ele>
        <time>2021-07-27T06:38:44Z</time>
      </trkpt>
      <trkpt lat="45.91411" lon="3.03282">
        <ele>452</ele>
        <time>2021-07-27T06:38:45Z</time>
      </trkpt>
      <trkpt lat="45.91412" lon="3.03281">
        <ele>452</ele>
        <time>2021-07-27T06:38:46Z</time>
      </trkpt>
      <trkpt lat="45.91413" lon="3.0328">
        <ele>452</ele>
        <time>2021-07-27T06:38:47Z</time>
      </trkpt>
      <trkpt lat="45.91414" lon="3.03279">
        <ele>452</ele>
        <time>2021-07-27T06:38:48Z</time>
      </trkpt>
      <trkpt lat="45.91415" lon="3.03278">
        <ele>452</ele>
        <time>2021-07-27T06:38:49Z</time>
      </trkpt>
      <trkpt lat="45.91416" lon="3.03277">
        <ele>452</ele>
        <time>2021-07-27T06:38:50Z</time>
      </trkpt>
      <trkpt lat="45.91417" lon="3.03276">
        <ele>452</ele>
        <time>2021-07-27T06:38:51Z</time>
      </trkpt>
      <trkpt lat="45.91417" lon="3.03274">
        <ele>452</ele>
        <time>2021-07-27T06:38:53Z</time>
      </trkpt>
      <trkpt lat="45.91419" lon="3.03269">
        <ele>452</ele>
        <time>2021-07-27T06:38:54Z</time>
      </trkpt>
      <trkpt lat="45.91419" lon="3.03269">
        <ele>452</ele>
        <time>2021-07-27T06:38:55Z</time>
      </trkpt>
      <trkpt lat="45.91419" lon="3.03269">
        <ele>452</ele>
        <time>2021-07-27T06:38:56Z</time>
      </trkpt>
      <trkpt lat="45.91419" lon="3.03268">
        <ele>452</ele>
        <time>2021-07-27T06:38:57Z</time>
      </trkpt>
      <trkpt lat="45.91419" lon="3.03266">
        <ele>452</ele>
        <time>2021-07-27T06:38:58Z</time>
      </trkpt>
      <trkpt lat="45.91419" lon="3.03265">
        <ele>452</ele>
        <time>2021-07-27T06:38:59Z</time>
      </trkpt>
      <trkpt lat="45.91419" lon="3.03263">
        <ele>452</ele>
        <time>2021-07-27T06:39:00Z</time>
      </trkpt>
      <trkpt lat="45.91419" lon="3.03261">
        <ele>452</ele>
        <time>2021-07-27T06:39:01Z</time>
      </trkpt>
      <trkpt lat="45.91419" lon="3.03259">
        <ele>452</ele>
        <time>2021-07-27T06:39:02Z</time>
      </trkpt>
      <trkpt lat="45.91419" lon="3.03257">
        <ele>452</ele>
        <time>2021-07-27T06:39:03Z</time>
      </trkpt>
      <trkpt lat="45.91419" lon="3.03255">
        <ele>452</ele>
        <time>2021-07-27T06:39:04Z</time>
      </trkpt>
      <trkpt lat="45.91419" lon="3.03252">
        <ele>452</ele>
        <time>2021-07-27T06:39:05Z</time>
      </trkpt>
      <trkpt lat="45.91418" lon="3.0325">
        <ele>452</ele>
        <time>2021-07-27T06:39:06Z</time>
      </trkpt>
      <trkpt lat="45.91417" lon="3.03248">
        <ele>452</ele>
        <time>2021-07-27T06:39:07Z</time>
      </trkpt>
      <trkpt lat="45.91416" lon="3.03247">
        <ele>452</ele>
        <time>2021-07-27T06:39:08Z</time>
      </trkpt>
      <trkpt lat="45.91416" lon="3.03245">
        <ele>452</ele>
        <time>2021-07-27T06:39:09Z</time>
      </trkpt>
      <trkpt lat="45.91415" lon="3.03244">
        <ele>452</ele>
        <time>2021-07-27T06:39:10Z</time>
      </trkpt>
      <trkpt lat="45.91414" lon="3.03243">
        <ele>452</ele>
        <time>2021-07-27T06:39:11Z</time>
      </trkpt>
      <trkpt lat="45.91413" lon="3.03242">
        <ele>452</ele>
        <time>2021-07-27T06:39:12Z</time>
      </trkpt>
      <trkpt lat="45.91413" lon="3.0324">
        <ele>452</ele>
        <time>2021-07-27T06:39:13Z</time>
      </trkpt>
      <trkpt lat="45.91412" lon="3.03239">
        <ele>452</ele>
        <time>2021-07-27T06:39:14Z</time>
      </trkpt>
      <trkpt lat="45.91411" lon="3.03237">
        <ele>452</ele>
        <time>2021-07-27T06:39:15Z</time>
      </trkpt>
      <trkpt lat="45.9141" lon="3.03236">
        <ele>452</ele>
        <time>2021-07-27T06:39:16Z</time>
      </trkpt>
      <trkpt lat="45.91409" lon="3.03234">
        <ele>452</ele>
        <time>2021-07-27T06:39:17Z</time>
      </trkpt>
      <trkpt lat="45.91408" lon="3.03232">
        <ele>452</ele>
        <time>2021-07-27T06:39:18Z</time>
      </trkpt>
      <trkpt lat="45.91408" lon="3.0323">
        <ele>452</ele>
        <time>2021-07-27T06:39:19Z</time>
      </trkpt>
      <trkpt lat="45.91407" lon="3.03229">
        <ele>452</ele>
        <time>2021-07-27T06:39:20Z</time>
      </trkpt>
      <trkpt lat="45.91406" lon="3.03227">
        <ele>452</ele>
        <time>2021-07-27T06:39:21Z</time>
      </trkpt>
      <trkpt lat="45.91405" lon="3.03225">
        <ele>452</ele>
        <time>2021-07-27T06:39:22Z</time>
      </trkpt>
      <trkpt lat="45.91404" lon="3.03223">
        <ele>452</ele>
        <time>2021-07-27T06:39:23Z</time>
      </trkpt>
      <trkpt lat="45.91403" lon="3.03221">
        <ele>452</ele>
        <time>2021-07-27T06:39:24Z</time>
      </trkpt>
      <trkpt lat="45.91402" lon="3.03219">
        <ele>452</ele>
        <time>2021-07-27T06:39:25Z</time>
      </trkpt>
      <trkpt lat="45.91401" lon="3.03217">
        <ele>452</ele>
        <time>2021-07-27T06:39:26Z</time>
      </trkpt>
      <trkpt lat="45.91401" lon="3.03215">
        <ele>452</ele>
        <time>2021-07-27T06:39:27Z</time>
      </trkpt>
      <trkpt lat="45.91401" lon="3.03213">
        <ele>452</ele>
        <time>2021-07-27T06:39:28Z</time>
      </trkpt>
      <trkpt lat="45.914" lon="3.03211">
        <ele>452</ele>
        <time>2021-07-27T06:39:29Z</time>
      </trkpt>
      <trkpt lat="45.91399" lon="3.0321">
        <ele>452</ele>
        <time>2021-07-27T06:39:30Z</time>
      </trkpt>
      <trkpt lat="45.91399" lon="3.03208">
        <ele>452</ele>
        <time>2021-07-27T06:39:31Z</time>
      </trkpt>
      <trkpt lat="45.91398" lon="3.03207">
        <ele>452</ele>
        <time>2021-07-27T06:39:32Z</time>
      </trkpt>
      <trkpt lat="45.91398" lon="3.03205">
        <ele>452</ele>
        <time>2021-07-27T06:39:33Z</time>
      </trkpt>
      <trkpt lat="45.91396" lon="3.03204">
        <ele>452</ele>
        <time>2021-07-27T06:39:34Z</time>
      </trkpt>
      <trkpt lat="45.91395" lon="3.03203">
        <ele>452</ele>
        <time>2021-07-27T06:39:35Z</time>
      </trkpt>
      <trkpt lat="45.91394" lon="3.03202">
        <ele>452</ele>
        <time>2021-07-27T06:39:36Z</time>
      </trkpt>
      <trkpt lat="45.91394" lon="3.032">
        <ele>452</ele>
        <time>2021-07-27T06:39:37Z</time>
      </trkpt>
      <trkpt lat="45.91393" lon="3.03199">
        <ele>452</ele>
        <time>2021-07-27T06:39:38Z</time>
      </trkpt>
      <trkpt lat="45.91393" lon="3.03198">
        <ele>452</ele>
        <time>2021-07-27T06:39:39Z</time>
      </trkpt>
      <trkpt lat="45.91392" lon="3.03197">
        <ele>452</ele>
        <time>2021-07-27T06:39:40Z</time>
      </trkpt>
      <trkpt lat="45.91391" lon="3.03196">
        <ele>452</ele>
        <time>2021-07-27T06:39:41Z</time>
      </trkpt>
      <trkpt lat="45.9139" lon="3.03196">
        <ele>452</ele>
        <time>2021-07-27T06:39:42Z</time>
      </trkpt>
      <trkpt lat="45.9139" lon="3.03195">
        <ele>452</ele>
        <time>2021-07-27T06:39:43Z</time>
      </trkpt>
      <trkpt lat="45.91389" lon="3.03194">
        <ele>452</ele>
        <time>2021-07-27T06:39:44Z</time>
      </trkpt>
      <trkpt lat="45.91388" lon="3.03193">
        <ele>452</ele>
        <time>2021-07-27T06:39:45Z</time>
      </trkpt>
      <trkpt lat="45.91387" lon="3.03192">
        <ele>452</ele>
        <time>2021-07-27T06:39:46Z</time>
      </trkpt>
      <trkpt lat="45.91386" lon="3.03191">
        <ele>452</ele>
        <time>2021-07-27T06:39:47Z</time>
      </trkpt>
      <trkpt lat="45.91385" lon="3.0319">
        <ele>452</ele>
        <time>2021-07-27T06:39:48Z</time>
      </trkpt>
      <trkpt lat="45.91383" lon="3.03188">
        <ele>452</ele>
        <time>2021-07-27T06:39:49Z</time>
      </trkpt>
      <trkpt lat="45.91383" lon="3.03187">
        <ele>452</ele>
        <time>2021-07-27T06:39:50Z</time>
      </trkpt>
      <trkpt lat="45.91382" lon="3.03185">
        <ele>452</ele>
        <time>2021-07-27T06:39:52Z</time>
      </trkpt>
      <trkpt lat="45.9138" lon="3.03179">
        <ele>452</ele>
        <time>2021-07-27T06:39:53Z</time>
      </trkpt>
      <trkpt lat="45.91379" lon="3.03179">
        <ele>452</ele>
        <time>2021-07-27T06:39:54Z</time>
      </trkpt>
      <trkpt lat="45.91378" lon="3.03178">
        <ele>452</ele>
        <time>2021-07-27T06:39:55Z</time>
      </trkpt>
      <trkpt lat="45.91377" lon="3.03178">
        <ele>452</ele>
        <time>2021-07-27T06:39:56Z</time>
      </trkpt>
      <trkpt lat="45.91377" lon="3.03177">
        <ele>452</ele>
        <time>2021-07-27T06:39:57Z</time>
      </trkpt>
      <trkpt lat="45.91377" lon="3.03176">
        <ele>452</ele>
        <time>2021-07-27T06:39:58Z</time>
      </trkpt>
      <trkpt lat="45.91376" lon="3.03175">
        <ele>452</ele>
        <time>2021-07-27T06:39:59Z</time>
      </trkpt>
      <trkpt lat="45.91375" lon="3.03174">
        <ele>452</ele>
        <time>2021-07-27T06:40:00Z</time>
      </trkpt>
      <trkpt lat="45.91375" lon="3.03172">
        <ele>452</ele>
        <time>2021-07-27T06:40:01Z</time>
      </trkpt>
      <trkpt lat="45.91374" lon="3.0317">
        <ele>452</ele>
        <time>2021-07-27T06:40:02Z</time>
      </trkpt>
      <trkpt lat="45.91374" lon="3.03168">
        <ele>452</ele>
        <time>2021-07-27T06:40:03Z</time>
      </trkpt>
      <trkpt lat="45.91373" lon="3.03167">
        <ele>452</ele>
        <time>2021-07-27T06:40:04Z</time>
      </trkpt>
      <trkpt lat="45.91373" lon="3.03165">
        <ele>452</ele>
        <time>2021-07-27T06:40:05Z</time>
      </trkpt>
      <trkpt lat="45.91372" lon="3.03164">
        <ele>452</ele>
        <time>2021-07-27T06:40:06Z</time>
      </trkpt>
      <trkpt lat="45.91372" lon="3.03162">
        <ele>452</ele>
        <time>2021-07-27T06:40:07Z</time>
      </trkpt>
      <trkpt lat="45.91371" lon="3.03161">
        <ele>452</ele>
        <time>2021-07-27T06:40:08Z</time>
      </trkpt>
      <trkpt lat="45.91371" lon="3.03159">
        <ele>452</ele>
        <time>2021-07-27T06:40:09Z</time>
      </trkpt>
      <trkpt lat="45.9137" lon="3.03158">
        <ele>452</ele>
        <time>2021-07-27T06:40:10Z</time>
      </trkpt>
      <trkpt lat="45.9137" lon="3.03157">
        <ele>452</ele>
        <time>2021-07-27T06:40:11Z</time>
      </trkpt>
      <trkpt lat="45.91369" lon="3.03156">
        <ele>452</ele>
        <time>2021-07-27T06:40:12Z</time>
      </trkpt>
      <trkpt lat="45.91369" lon="3.03155">
        <ele>452</ele>
        <time>2021-07-27T06:40:13Z</time>
      </trkpt>
      <trkpt lat="45.91368" lon="3.03154">
        <ele>452</ele>
        <time>2021-07-27T06:40:14Z</time>
      </trkpt>
      <trkpt lat="45.91367" lon="3.03153">
        <ele>452</ele>
        <time>2021-07-27T06:40:15Z</time>
      </trkpt>
      <trkpt lat="45.91367" lon="3.03153">
        <ele>452</ele>
        <time>2021-07-27T06:40:16Z</time>
      </trkpt>
      <trkpt lat="45.91366" lon="3.03152">
        <ele>452</ele>
        <time>2021-07-27T06:40:17Z</time>
      </trkpt>
      <trkpt lat="45.91365" lon="3.03152">
        <ele>452</ele>
        <time>2021-07-27T06:40:18Z</time>
      </trkpt>
      <trkpt lat="45.91364" lon="3.03151">
        <ele>452</ele>
        <time>2021-07-27T06:40:19Z</time>
      </trkpt>
      <trkpt lat="45.91362" lon="3.0315">
        <ele>452</ele>
        <time>2021-07-27T06:40:20Z</time>
      </trkpt>
      <trkpt lat="45.91362" lon="3.03149">
        <ele>452</ele>
        <time>2021-07-27T06:40:21Z</time>
      </trkpt>
      <trkpt lat="45.91361" lon="3.03148">
        <ele>452</ele>
        <time>2021-07-27T06:40:22Z</time>
      </trkpt>
      <trkpt lat="45.9136" lon="3.03147">
        <ele>452</ele>
        <time>2021-07-27T06:40:23Z</time>
      </trkpt>
      <trkpt lat="45.91359" lon="3.03145">
        <ele>452</ele>
        <time>2021-07-27T06:40:24Z</time>
      </trkpt>
      <trkpt lat="45.91359" lon="3.03144">
        <ele>452</ele>
        <time>2021-07-27T06:40:25Z</time>
      </trkpt>
      <trkpt lat="45.91357" lon="3.03142">
        <ele>452</ele>
        <time>2021-07-27T06:40:26Z</time>
      </trkpt>
      <trkpt lat="45.91357" lon="3.03141">
        <ele>452</ele>
        <time>2021-07-27T06:40:27Z</time>
      </trkpt>
      <trkpt lat="45.91356" lon="3.0314">
        <ele>452</ele>
        <time>2021-07-27T06:40:28Z</time>
      </trkpt>
      <trkpt lat="45.91356" lon="3.03139">
        <ele>452</ele>
        <time>2021-07-27T06:40:29Z</time>
      </trkpt>
      <trkpt lat="45.91354" lon="3.03138">
        <ele>452</ele>
        <time>2021-07-27T06:40:30Z</time>
      </trkpt>
      <trkpt lat="45.91354" lon="3.03137">
        <ele>452</ele>
        <time>2021-07-27T06:40:31Z</time>
      </trkpt>
      <trkpt lat="45.91353" lon="3.03136">
        <ele>452</ele>
        <time>2021-07-27T06:40:32Z</time>
      </trkpt>
      <trkpt lat="45.91353" lon="3.03134">
        <ele>452</ele>
        <time>2021-07-27T06:40:33Z</time>
      </trkpt>
      <trkpt lat="45.91351" lon="3.03133">
        <ele>452</ele>
        <time>2021-07-27T06:40:34Z</time>
      </trkpt>
      <trkpt lat="45.9135" lon="3.03131">
        <ele>452</ele>
        <time>2021-07-27T06:40:35Z</time>
      </trkpt>
      <trkpt lat="45.91349" lon="3.03129">
        <ele>452</ele>
        <time>2021-07-27T06:40:36Z</time>
      </trkpt>
      <trkpt lat="45.91348" lon="3.03128">
        <ele>452</ele>
        <time>2021-07-27T06:40:37Z</time>
      </trkpt>
      <trkpt lat="45.91347" lon="3.03127">
        <ele>452</ele>
        <time>2021-07-27T06:40:38Z</time>
      </trkpt>
      <trkpt lat="45.91346" lon="3.03126">
        <ele>452</ele>
        <time>2021-07-27T06:40:39Z</time>
      </trkpt>
      <trkpt lat="45.91345" lon="3.03125">
        <ele>452</ele>
        <time>2021-07-27T06:40:40Z</time>
      </trkpt>
      <trkpt lat="45.91344" lon="3.03124">
        <ele>452</ele>
        <time>2021-07-27T06:40:41Z</time>
      </trkpt>
      <trkpt lat="45.91343" lon="3.03123">
        <ele>452</ele>
        <time>2021-07-27T06:40:42Z</time>
      </trkpt>
      <trkpt lat="45.91341" lon="3.03122">
        <ele>452</ele>
        <time>2021-07-27T06:40:43Z</time>
      </trkpt>
      <trkpt lat="45.91341" lon="3.0312">
        <ele>452</ele>
        <time>2021-07-27T06:40:44Z</time>
      </trkpt>
      <trkpt lat="45.91341" lon="3.03119">
        <ele>452</ele>
        <time>2021-07-27T06:40:45Z</time>
      </trkpt>
      <trkpt lat="45.9134" lon="3.03118">
        <ele>452</ele>
        <time>2021-07-27T06:40:46Z</time>
      </trkpt>
      <trkpt lat="45.9134" lon="3.03117">
        <ele>452</ele>
        <time>2021-07-27T06:40:47Z</time>
      </trkpt>
      <trkpt lat="45.91339" lon="3.03116">
        <ele>452</ele>
        <time>2021-07-27T06:40:48Z</time>
      </trkpt>
      <trkpt lat="45.91338" lon="3.03114">
        <ele>452</ele>
        <time>2021-07-27T06:40:49Z</time>
      </trkpt>
      <trkpt lat="45.91338" lon="3.03113">
        <ele>452</ele>
        <time>2021-07-27T06:40:50Z</time>
      </trkpt>
      <trkpt lat="45.91337" lon="3.03111">
        <ele>452</ele>
        <time>2021-07-27T06:40:51Z</time>
      </trkpt>
      <trkpt lat="45.91336" lon="3.0311">
        <ele>452</ele>
        <time>2021-07-27T06:40:52Z</time>
      </trkpt>
      <trkpt lat="45.91336" lon="3.03109">
        <ele>452</ele>
        <time>2021-07-27T06:40:53Z</time>
      </trkpt>
      <trkpt lat="45.91335" lon="3.03107">
        <ele>452</ele>
        <time>2021-07-27T06:40:54Z</time>
      </trkpt>
      <trkpt lat="45.91335" lon="3.03106">
        <ele>452</ele>
        <time>2021-07-27T06:40:55Z</time>
      </trkpt>
      <trkpt lat="45.91334" lon="3.03105">
        <ele>452</ele>
        <time>2021-07-27T06:40:56Z</time>
      </trkpt>
      <trkpt lat="45.91333" lon="3.03103">
        <ele>452</ele>
        <time>2021-07-27T06:40:57Z</time>
      </trkpt>
      <trkpt lat="45.91332" lon="3.03102">
        <ele>452</ele>
        <time>2021-07-27T06:40:58Z</time>
      </trkpt>
      <trkpt lat="45.91332" lon="3.03101">
        <ele>452</ele>
        <time>2021-07-27T06:40:59Z</time>
      </trkpt>
      <trkpt lat="45.91331" lon="3.031">
        <ele>452</ele>
        <time>2021-07-27T06:41:00Z</time>
      </trkpt>
      <trkpt lat="45.9133" lon="3.03099">
        <ele>452</ele>
        <time>2021-07-27T06:41:01Z</time>
      </trkpt>
      <trkpt lat="45.91329" lon="3.03098">
        <ele>452</ele>
        <time>2021-07-27T06:41:02Z</time>
      </trkpt>
      <trkpt lat="45.91328" lon="3.03097">
        <ele>452</ele>
        <time>2021-07-27T06:41:03Z</time>
      </trkpt>
      <trkpt lat="45.91327" lon="3.03096">
        <ele>452</ele>
        <time>2021-07-27T06:41:04Z</time>
      </trkpt>
      <trkpt lat="45.91326" lon="3.03095">
        <ele>452</ele>
        <time>2021-07-27T06:41:05Z</time>
      </trkpt>
      <trkpt lat="45.91325" lon="3.03094">
        <ele>452</ele>
        <time>2021-07-27T06:41:06Z</time>
      </trkpt>
      <trkpt lat="45.91323" lon="3.03093">
        <ele>452</ele>
        <time>2021-07-27T06:41:07Z</time>
      </trkpt>
      <trkpt lat="45.91322" lon="3.03092">
        <ele>452</ele>
        <time>2021-07-27T06:41:08Z</time>
      </trkpt>
      <trkpt lat="45.9132" lon="3.03091">
        <ele>452</ele>
        <time>2021-07-27T06:41:09Z</time>
      </trkpt>
      <trkpt lat="45.9132" lon="3.0309">
        <ele>452</ele>
        <time>2021-07-27T06:41:10Z</time>
      </trkpt>
      <trkpt lat="45.91319" lon="3.03089">
        <ele>452</ele>
        <time>2021-07-27T06:41:11Z</time>
      </trkpt>
      <trkpt lat="45.91317" lon="3.03087">
        <ele>452</ele>
        <time>2021-07-27T06:41:12Z</time>
      </trkpt>
      <trkpt lat="45.91317" lon="3.03086">
        <ele>452</ele>
        <time>2021-07-27T06:41:13Z</time>
      </trkpt>
      <trkpt lat="45.91316" lon="3.03085">
        <ele>452</ele>
        <time>2021-07-27T06:41:14Z</time>
      </trkpt>
      <trkpt lat="45.91315" lon="3.03083">
        <ele>452</ele>
        <time>2021-07-27T06:41:15Z</time>
      </trkpt>
      <trkpt lat="45.91314" lon="3.03082">
        <ele>452</ele>
        <time>2021-07-27T06:41:16Z</time>
      </trkpt>
      <trkpt lat="45.91314" lon="3.0308">
        <ele>452</ele>
        <time>2021-07-27T06:41:17Z</time>
      </trkpt>
      <trkpt lat="45.91313" lon="3.03079">
        <ele>452</ele>
        <time>2021-07-27T06:41:17Z</time>
      </trkpt>
      <trkpt lat="45.91312" lon="3.03077">
        <ele>452</ele>
        <time>2021-07-27T06:41:18Z</time>
      </trkpt>
      <trkpt lat="45.91312" lon="3.03075">
        <ele>452</ele>
        <time>2021-07-27T06:41:19Z</time>
      </trkpt>
      <trkpt lat="45.91311" lon="3.03074">
        <ele>452</ele>
        <time>2021-07-27T06:41:20Z</time>
      </trkpt>
      <trkpt lat="45.91311" lon="3.03072">
        <ele>452</ele>
        <time>2021-07-27T06:41:21Z</time>
      </trkpt>
      <trkpt lat="45.91311" lon="3.0307">
        <ele>452</ele>
        <time>2021-07-27T06:41:22Z</time>
      </trkpt>
      <trkpt lat="45.9131" lon="3.03069">
        <ele>452</ele>
        <time>2021-07-27T06:41:23Z</time>
      </trkpt>
      <trkpt lat="45.91309" lon="3.03067">
        <ele>452</ele>
        <time>2021-07-27T06:41:24Z</time>
      </trkpt>
      <trkpt lat="45.91308" lon="3.03066">
        <ele>452</ele>
        <time>2021-07-27T06:41:25Z</time>
      </trkpt>
      <trkpt lat="45.91307" lon="3.03064">
        <ele>452</ele>
        <time>2021-07-27T06:41:26Z</time>
      </trkpt>
      <trkpt lat="45.91306" lon="3.03062">
        <ele>452</ele>
        <time>2021-07-27T06:41:27Z</time>
      </trkpt>
      <trkpt lat="45.91306" lon="3.03061">
        <ele>452</ele>
        <time>2021-07-27T06:41:28Z</time>
      </trkpt>
      <trkpt lat="45.91305" lon="3.0306">
        <ele>452</ele>
        <time>2021-07-27T06:41:29Z</time>
      </trkpt>
      <trkpt lat="45.91304" lon="3.03058">
        <ele>452</ele>
        <time>2021-07-27T06:41:30Z</time>
      </trkpt>
      <trkpt lat="45.91303" lon="3.03057">
        <ele>452</ele>
        <time>2021-07-27T06:41:31Z</time>
      </trkpt>
      <trkpt lat="45.91303" lon="3.03056">
        <ele>452</ele>
        <time>2021-07-27T06:41:32Z</time>
      </trkpt>
      <trkpt lat="45.91302" lon="3.03055">
        <ele>452</ele>
        <time>2021-07-27T06:41:33Z</time>
      </trkpt>
      <trkpt lat="45.91301" lon="3.03054">
        <ele>452</ele>
        <time>2021-07-27T06:41:34Z</time>
      </trkpt>
      <trkpt lat="45.91301" lon="3.03054">
        <ele>452</ele>
        <time>2021-07-27T06:41:35Z</time>
      </trkpt>
      <trkpt lat="45.913" lon="3.03053">
        <ele>452</ele>
        <time>2021-07-27T06:41:36Z</time>
      </trkpt>
      <trkpt lat="45.91299" lon="3.03052">
        <ele>452</ele>
        <time>2021-07-27T06:41:37Z</time>
      </trkpt>
      <trkpt lat="45.91299" lon="3.03051">
        <ele>452</ele>
        <time>2021-07-27T06:41:38Z</time>
      </trkpt>
      <trkpt lat="45.91298" lon="3.0305">
        <ele>452</ele>
        <time>2021-07-27T06:41:39Z</time>
      </trkpt>
      <trkpt lat="45.91298" lon="3.03049">
        <ele>452</ele>
        <time>2021-07-27T06:41:40Z</time>
      </trkpt>
      <trkpt lat="45.91296" lon="3.03048">
        <ele>452</ele>
        <time>2021-07-27T06:41:41Z</time>
      </trkpt>
      <trkpt lat="45.91296" lon="3.03047">
        <ele>452</ele>
        <time>2021-07-27T06:41:42Z</time>
      </trkpt>
      <trkpt lat="45.91295" lon="3.03046">
        <ele>452</ele>
        <time>2021-07-27T06:41:43Z</time>
      </trkpt>
      <trkpt lat="45.91294" lon="3.03045">
        <ele>452</ele>
        <time>2021-07-27T06:41:44Z</time>
      </trkpt>
      <trkpt lat="45.91293" lon="3.03044">
        <ele>452</ele>
        <time>2021-07-27T06:41:45Z</time>
      </trkpt>
      <trkpt lat="45.91293" lon="3.03043">
        <ele>452</ele>
        <time>2021-07-27T06:41:46Z</time>
      </trkpt>
      <trkpt lat="45.91291" lon="3.03042">
        <ele>452</ele>
        <time>2021-07-27T06:41:47Z</time>
      </trkpt>
      <trkpt lat="45.9129" lon="3.03041">
        <ele>452</ele>
        <time>2021-07-27T06:41:48Z</time>
      </trkpt>
      <trkpt lat="45.9129" lon="3.03039">
        <ele>452</ele>
        <time>2021-07-27T06:41:49Z</time>
      </trkpt>
      <trkpt lat="45.91289" lon="3.03038">
        <ele>452</ele>
        <time>2021-07-27T06:41:51Z</time>
      </trkpt>
      <trkpt lat="45.91288" lon="3.03037">
        <ele>452</ele>
        <time>2021-07-27T06:41:52Z</time>
      </trkpt>
      <trkpt lat="45.91284" lon="3.03033">
        <ele>452</ele>
        <time>2021-07-27T06:41:53Z</time>
      </trkpt>
      <trkpt lat="45.91284" lon="3.03033">
        <ele>452</ele>
        <time>2021-07-27T06:41:54Z</time>
      </trkpt>
      <trkpt lat="45.91283" lon="3.03032">
        <ele>452</ele>
        <time>2021-07-27T06:41:55Z</time>
      </trkpt>
      <trkpt lat="45.91282" lon="3.03032">
        <ele>452</ele>
        <time>2021-07-27T06:41:56Z</time>
      </trkpt>
      <trkpt lat="45.91281" lon="3.03031">
        <ele>452</ele>
        <time>2021-07-27T06:41:57Z</time>
      </trkpt>
      <trkpt lat="45.9128" lon="3.0303">
        <ele>452</ele>
        <time>2021-07-27T06:41:58Z</time>
      </trkpt>
      <trkpt lat="45.91279" lon="3.03028">
        <ele>452</ele>
        <time>2021-07-27T06:41:59Z</time>
      </trkpt>
      <trkpt lat="45.91278" lon="3.03027">
        <ele>452</ele>
        <time>2021-07-27T06:42:00Z</time>
      </trkpt>
      <trkpt lat="45.91277" lon="3.03027">
        <ele>452</ele>
        <time>2021-07-27T06:42:01Z</time>
      </trkpt>
      <trkpt lat="45.91275" lon="3.03026">
        <ele>452</ele>
        <time>2021-07-27T06:42:02Z</time>
      </trkpt>
      <trkpt lat="45.91275" lon="3.03024">
        <ele>452</ele>
        <time>2021-07-27T06:42:03Z</time>
      </trkpt>
      <trkpt lat="45.91274" lon="3.03023">
        <ele>452</ele>
        <time>2021-07-27T06:42:04Z</time>
      </trkpt>
      <trkpt lat="45.91272" lon="3.03022">
        <ele>452</ele>
        <time>2021-07-27T06:42:05Z</time>
      </trkpt>
      <trkpt lat="45.9127" lon="3.03021">
        <ele>452</ele>
        <time>2021-07-27T06:42:06Z</time>
      </trkpt>
      <trkpt lat="45.91269" lon="3.0302">
        <ele>452</ele>
        <time>2021-07-27T06:42:07Z</time>
      </trkpt>
      <trkpt lat="45.91269" lon="3.03019">
        <ele>452</ele>
        <time>2021-07-27T06:42:08Z</time>
      </trkpt>
      <trkpt lat="45.91267" lon="3.03018">
        <ele>452</ele>
        <time>2021-07-27T06:42:09Z</time>
      </trkpt>
      <trkpt lat="45.91267" lon="3.03017">
        <ele>452</ele>
        <time>2021-07-27T06:42:10Z</time>
      </trkpt>
      <trkpt lat="45.91266" lon="3.03015">
        <ele>452</ele>
        <time>2021-07-27T06:42:11Z</time>
      </trkpt>
      <trkpt lat="45.91265" lon="3.03014">
        <ele>452</ele>
        <time>2021-07-27T06:42:12Z</time>
      </trkpt>
      <trkpt lat="45.91264" lon="3.03012">
        <ele>452</ele>
        <time>2021-07-27T06:42:13Z</time>
      </trkpt>
      <trkpt lat="45.91263" lon="3.0301">
        <ele>452</ele>
        <time>2021-07-27T06:42:14Z</time>
      </trkpt>
      <trkpt lat="45.91262" lon="3.03009">
        <ele>452</ele>
        <time>2021-07-27T06:42:15Z</time>
      </trkpt>
      <trkpt lat="45.91261" lon="3.03008">
        <ele>452</ele>
        <time>2021-07-27T06:42:16Z</time>
      </trkpt>
      <trkpt lat="45.9126" lon="3.03007">
        <ele>452</ele>
        <time>2021-07-27T06:42:17Z</time>
      </trkpt>
      <trkpt lat="45.91259" lon="3.03006">
        <ele>452</ele>
        <time>2021-07-27T06:42:18Z</time>
      </trkpt>
      <trkpt lat="45.91257" lon="3.03004">
        <ele>452</ele>
        <time>2021-07-27T06:42:19Z</time>
      </trkpt>
      <trkpt lat="45.91256" lon="3.03003">
        <ele>452</ele>
        <time>2021-07-27T06:42:20Z</time>
      </trkpt>
      <trkpt lat="45.91255" lon="3.03002">
        <ele>452</ele>
        <time>2021-07-27T06:42:21Z</time>
      </trkpt>
      <trkpt lat="45.91254" lon="3.03001">
        <ele>452</ele>
        <time>2021-07-27T06:42:22Z</time>
      </trkpt>
      <trkpt lat="45.91253" lon="3.03">
        <ele>452</ele>
        <time>2021-07-27T06:42:23Z</time>
      </trkpt>
      <trkpt lat="45.91251" lon="3.02999">
        <ele>452</ele>
        <time>2021-07-27T06:42:24Z</time>
      </trkpt>
      <trkpt lat="45.9125" lon="3.02998">
        <ele>452</ele>
        <time>2021-07-27T06:42:25Z</time>
      </trkpt>
      <trkpt lat="45.91248" lon="3.02997">
        <ele>452</ele>
        <time>2021-07-27T06:42:26Z</time>
      </trkpt>
      <trkpt lat="45.91247" lon="3.02995">
        <ele>452</ele>
        <time>2021-07-27T06:42:27Z</time>
      </trkpt>
      <trkpt lat="45.91245" lon="3.02994">
        <ele>452</ele>
        <time>2021-07-27T06:42:28Z</time>
      </trkpt>
      <trkpt lat="45.91244" lon="3.02993">
        <ele>452</ele>
        <time>2021-07-27T06:42:29Z</time>
      </trkpt>
      <trkpt lat="45.91334" lon="3.02513">
        <ele>452</ele>
        <time>2021-07-27T06:51:42Z</time>
      </trkpt>
      <trkpt lat="45.91334" lon="3.02513">
        <ele>452</ele>
        <time>2021-07-27T06:51:43Z</time>
      </trkpt>
      <trkpt lat="45.91335" lon="3.02512">
        <ele>452</ele>
        <time>2021-07-27T06:51:44Z</time>
      </trkpt>
      <trkpt lat="45.91337" lon="3.0251">
        <ele>452</ele>
        <time>2021-07-27T06:51:45Z</time>
      </trkpt>
      <trkpt lat="45.91338" lon="3.02509">
        <ele>452</ele>
        <time>2021-07-27T06:51:46Z</time>
      </trkpt>
      <trkpt lat="45.9134" lon="3.02508">
        <ele>452</ele>
        <time>2021-07-27T06:51:47Z</time>
      </trkpt>
      <trkpt lat="45.91341" lon="3.02507">
        <ele>452</ele>
        <time>2021-07-27T06:51:48Z</time>
      </trkpt>
      <trkpt lat="45.91341" lon="3.02507">
        <ele>452</ele>
        <time>2021-07-27T06:51:49Z</time>
      </trkpt>
      <trkpt lat="45.9134" lon="3.0251">
        <ele>452</ele>
        <time>2021-07-27T06:51:50Z</time>
      </trkpt>
      <trkpt lat="45.91338" lon="3.02511">
        <ele>452</ele>
        <time>2021-07-27T06:51:51Z</time>
      </trkpt>
      <trkpt lat="45.91338" lon="3.02512">
        <ele>452</ele>
        <time>2021-07-27T06:51:52Z</time>
      </trkpt>
      <trkpt lat="45.91337" lon="3.02511">
        <ele>452</ele>
        <time>2021-07-27T06:51:53Z</time>
      </trkpt>
      <trkpt lat="45.91337" lon="3.02511">
        <ele>452</ele>
        <time>2021-07-27T06:51:54Z</time>
      </trkpt>
      <trkpt lat="45.91338" lon="3.02511">
        <ele>452</ele>
        <time>2021-07-27T06:51:55Z</time>
      </trkpt>
      <trkpt lat="45.91338" lon="3.0251">
        <ele>452</ele>
        <time>2021-07-27T06:51:56Z</time>
      </trkpt>
      <trkpt lat="45.91339" lon="3.02509">
        <ele>452</ele>
        <time>2021-07-27T06:51:57Z</time>
      </trkpt>
      <trkpt lat="45.9134" lon="3.02508">
        <ele>452</ele>
        <time>2021-07-27T06:51:58Z</time>
      </trkpt>
      <trkpt lat="45.91341" lon="3.02507">
        <ele>452</ele>
        <time>2021-07-27T06:51:59Z</time>
      </trkpt>
      <trkpt lat="45.91341" lon="3.02506">
        <ele>452</ele>
        <time>2021-07-27T06:52:00Z</time>
      </trkpt>
      <trkpt lat="45.91342" lon="3.02506">
        <ele>452</ele>
        <time>2021-07-27T06:52:01Z</time>
      </trkpt>
      <trkpt lat="45.91343" lon="3.02505">
        <ele>452</ele>
        <time>2021-07-27T06:52:02Z</time>
      </trkpt>
      <trkpt lat="45.91344" lon="3.02505">
        <ele>452</ele>
        <time>2021-07-27T06:52:03Z</time>
      </trkpt>
      <trkpt lat="45.91344" lon="3.02504">
        <ele>452</ele>
        <time>2021-07-27T06:52:04Z</time>
      </trkpt>
      <trkpt lat="45.91345" lon="3.02503">
        <ele>452</ele>
        <time>2021-07-27T06:52:05Z</time>
      </trkpt>
      <trkpt lat="45.91346" lon="3.02502">
        <ele>452</ele>
        <time>2021-07-27T06:52:06Z</time>
      </trkpt>
      <trkpt lat="45.91346" lon="3.02501">
        <ele>452</ele>
        <time>2021-07-27T06:52:07Z</time>
      </trkpt>
      <trkpt lat="45.91347" lon="3.02499">
        <ele>452</ele>
        <time>2021-07-27T06:52:08Z</time>
      </trkpt>
      <trkpt lat="45.91348" lon="3.02497">
        <ele>452</ele>
        <time>2021-07-27T06:52:09Z</time>
      </trkpt>
      <trkpt lat="45.91348" lon="3.02494">
        <ele>452</ele>
        <time>2021-07-27T06:52:10Z</time>
      </trkpt>
      <trkpt lat="45.91349" lon="3.02492">
        <ele>452</ele>
        <time>2021-07-27T06:52:11Z</time>
      </trkpt>
      <trkpt lat="45.91349" lon="3.02489">
        <ele>452</ele>
        <time>2021-07-27T06:52:12Z</time>
      </trkpt>
      <trkpt lat="45.9135" lon="3.02487">
        <ele>452</ele>
        <time>2021-07-27T06:52:13Z</time>
      </trkpt>
      <trkpt lat="45.9135" lon="3.02485">
        <ele>452</ele>
        <time>2021-07-27T06:52:14Z</time>
      </trkpt>
      <trkpt lat="45.91351" lon="3.02483">
        <ele>452</ele>
        <time>2021-07-27T06:52:15Z</time>
      </trkpt>
      <trkpt lat="45.91352" lon="3.02481">
        <ele>452</ele>
        <time>2021-07-27T06:52:16Z</time>
      </trkpt>
      <trkpt lat="45.91353" lon="3.02479">
        <ele>452</ele>
        <time>2021-07-27T06:52:17Z</time>
      </trkpt>
      <trkpt lat="45.91353" lon="3.02477">
        <ele>452</ele>
        <time>2021-07-27T06:52:18Z</time>
      </trkpt>
      <trkpt lat="45.91353" lon="3.02475">
        <ele>452</ele>
        <time>2021-07-27T06:52:19Z</time>
      </trkpt>
      <trkpt lat="45.91354" lon="3.02473">
        <ele>452</ele>
        <time>2021-07-27T06:52:20Z</time>
      </trkpt>
      <trkpt lat="45.91354" lon="3.02471">
        <ele>452</ele>
        <time>2021-07-27T06:52:21Z</time>
      </trkpt>
      <trkpt lat="45.91354" lon="3.02469">
        <ele>452</ele>
        <time>2021-07-27T06:52:22Z</time>
      </trkpt>
      <trkpt lat="45.91355" lon="3.02468">
        <ele>452</ele>
        <time>2021-07-27T06:52:23Z</time>
      </trkpt>
      <trkpt lat="45.91355" lon="3.02466">
        <ele>452</ele>
        <time>2021-07-27T06:52:24Z</time>
      </trkpt>
      <trkpt lat="45.91356" lon="3.02464">
        <ele>452</ele>
        <time>2021-07-27T06:52:25Z</time>
      </trkpt>
      <trkpt lat="45.91356" lon="3.02462">
        <ele>452</ele>
        <time>2021-07-27T06:52:26Z</time>
      </trkpt>
      <trkpt lat="45.91356" lon="3.02461">
        <ele>452</ele>
        <time>2021-07-27T06:52:27Z</time>
      </trkpt>
      <trkpt lat="45.91356" lon="3.02459">
        <ele>452</ele>
        <time>2021-07-27T06:52:28Z</time>
      </trkpt>
      <trkpt lat="45.91357" lon="3.02458">
        <ele>452</ele>
        <time>2021-07-27T06:52:29Z</time>
      </trkpt>
      <trkpt lat="45.91357" lon="3.02456">
        <ele>452</ele>
        <time>2021-07-27T06:52:30Z</time>
      </trkpt>
      <trkpt lat="45.91359" lon="3.02455">
        <ele>452</ele>
        <time>2021-07-27T06:52:31Z</time>
      </trkpt>
      <trkpt lat="45.91359" lon="3.02453">
        <ele>452</ele>
        <time>2021-07-27T06:52:32Z</time>
      </trkpt>
      <trkpt lat="45.91359" lon="3.02451">
        <ele>452</ele>
        <time>2021-07-27T06:52:33Z</time>
      </trkpt>
      <trkpt lat="45.91361" lon="3.0245">
        <ele>452</ele>
        <time>2021-07-27T06:52:34Z</time>
      </trkpt>
      <trkpt lat="45.91361" lon="3.02448">
        <ele>452</ele>
        <time>2021-07-27T06:52:35Z</time>
      </trkpt>
      <trkpt lat="45.91362" lon="3.02447">
        <ele>452</ele>
        <time>2021-07-27T06:52:36Z</time>
      </trkpt>
      <trkpt lat="45.91362" lon="3.02445">
        <ele>452</ele>
        <time>2021-07-27T06:52:37Z</time>
      </trkpt>
      <trkpt lat="45.91362" lon="3.02443">
        <ele>452</ele>
        <time>2021-07-27T06:52:38Z</time>
      </trkpt>
      <trkpt lat="45.91363" lon="3.02442">
        <ele>452</ele>
        <time>2021-07-27T06:52:39Z</time>
      </trkpt>
      <trkpt lat="45.91364" lon="3.0244">
        <ele>452</ele>
        <time>2021-07-27T06:52:40Z</time>
      </trkpt>
      <trkpt lat="45.91364" lon="3.02438">
        <ele>452</ele>
        <time>2021-07-27T06:52:41Z</time>
      </trkpt>
      <trkpt lat="45.91365" lon="3.02436">
        <ele>452</ele>
        <time>2021-07-27T06:52:42Z</time>
      </trkpt>
      <trkpt lat="45.91365" lon="3.02435">
        <ele>452</ele>
        <time>2021-07-27T06:52:43Z</time>
      </trkpt>
      <trkpt lat="45.91365" lon="3.02433">
        <ele>452</ele>
        <time>2021-07-27T06:52:44Z</time>
      </trkpt>
      <trkpt lat="45.91365" lon="3.02431">
        <ele>452</ele>
        <time>2021-07-27T06:52:45Z</time>
      </trkpt>
      <trkpt lat="45.91365" lon="3.0243">
        <ele>452</ele>
        <time>2021-07-27T06:52:46Z</time>
      </trkpt>
      <trkpt lat="45.91365" lon="3.02428">
        <ele>452</ele>
        <time>2021-07-27T06:52:47Z</time>
      </trkpt>
      <trkpt lat="45.91366" lon="3.02426">
        <ele>452</ele>
        <time>2021-07-27T06:52:50Z</time>
      </trkpt>
      <trkpt lat="45.9137" lon="3.02418">
        <ele>452</ele>
        <time>2021-07-27T06:52:51Z</time>
      </trkpt>
      <trkpt lat="45.91371" lon="3.02417">
        <ele>452</ele>
        <time>2021-07-27T06:52:52Z</time>
      </trkpt>
      <trkpt lat="45.91371" lon="3.02416">
        <ele>452</ele>
        <time>2021-07-27T06:52:53Z</time>
      </trkpt>
      <trkpt lat="45.91371" lon="3.02415">
        <ele>452</ele>
        <time>2021-07-27T06:52:54Z</time>
      </trkpt>
      <trkpt lat="45.91371" lon="3.02414">
        <ele>452</ele>
        <time>2021-07-27T06:52:55Z</time>
      </trkpt>
      <trkpt lat="45.91371" lon="3.02412">
        <ele>452</ele>
        <time>2021-07-27T06:52:56Z</time>
      </trkpt>
      <trkpt lat="45.91371" lon="3.0241">
        <ele>452</ele>
        <time>2021-07-27T06:52:57Z</time>
      </trkpt>
      <trkpt lat="45.91371" lon="3.02408">
        <ele>452</ele>
        <time>2021-07-27T06:52:58Z</time>
      </trkpt>
      <trkpt lat="45.91371" lon="3.02406">
        <ele>452</ele>
        <time>2021-07-27T06:52:59Z</time>
      </trkpt>
      <trkpt lat="45.91371" lon="3.02403">
        <ele>452</ele>
        <time>2021-07-27T06:53:00Z</time>
      </trkpt>
      <trkpt lat="45.91371" lon="3.02401">
        <ele>452</ele>
        <time>2021-07-27T06:53:01Z</time>
      </trkpt>
      <trkpt lat="45.91371" lon="3.02399">
        <ele>452</ele>
        <time>2021-07-27T06:53:02Z</time>
      </trkpt>
      <trkpt lat="45.91372" lon="3.02397">
        <ele>452</ele>
        <time>2021-07-27T06:53:03Z</time>
      </trkpt>
      <trkpt lat="45.91372" lon="3.02395">
        <ele>452</ele>
        <time>2021-07-27T06:53:04Z</time>
      </trkpt>
      <trkpt lat="45.91372" lon="3.02393">
        <ele>452</ele>
        <time>2021-07-27T06:53:05Z</time>
      </trkpt>
      <trkpt lat="45.91373" lon="3.02391">
        <ele>452</ele>
        <time>2021-07-27T06:53:06Z</time>
      </trkpt>
      <trkpt lat="45.91373" lon="3.02389">
        <ele>452</ele>
        <time>2021-07-27T06:53:07Z</time>
      </trkpt>
      <trkpt lat="45.91373" lon="3.02387">
        <ele>452</ele>
        <time>2021-07-27T06:53:08Z</time>
      </trkpt>
      <trkpt lat="45.91374" lon="3.02385">
        <ele>452</ele>
        <time>2021-07-27T06:53:09Z</time>
      </trkpt>
      <trkpt lat="45.91374" lon="3.02383">
        <ele>452</ele>
        <time>2021-07-27T06:53:10Z</time>
      </trkpt>
      <trkpt lat="45.91375" lon="3.0238">
        <ele>452</ele>
        <time>2021-07-27T06:53:11Z</time>
      </trkpt>
      <trkpt lat="45.91375" lon="3.02378">
        <ele>452</ele>
        <time>2021-07-27T06:53:12Z</time>
      </trkpt>
      <trkpt lat="45.91375" lon="3.02376">
        <ele>452</ele>
        <time>2021-07-27T06:53:13Z</time>
      </trkpt>
      <trkpt lat="45.91376" lon="3.02374">
        <ele>452</ele>
        <time>2021-07-27T06:53:14Z</time>
      </trkpt>
      <trkpt lat="45.91377" lon="3.02373">
        <ele>452</ele>
        <time>2021-07-27T06:53:15Z</time>
      </trkpt>
      <trkpt lat="45.91377" lon="3.02371">
        <ele>452</ele>
        <time>2021-07-27T06:53:16Z</time>
      </trkpt>
      <trkpt lat="45.91377" lon="3.02369">
        <ele>452</ele>
        <time>2021-07-27T06:53:17Z</time>
      </trkpt>
      <trkpt lat="45.91378" lon="3.02367">
        <ele>452</ele>
        <time>2021-07-27T06:53:18Z</time>
      </trkpt>
      <trkpt lat="45.91378" lon="3.02366">
        <ele>452</ele>
        <time>2021-07-27T06:53:19Z</time>
      </trkpt>
      <trkpt lat="45.91379" lon="3.02364">
        <ele>452</ele>
        <time>2021-07-27T06:53:20Z</time>
      </trkpt>
      <trkpt lat="45.91379" lon="3.02362">
        <ele>452</ele>
        <time>2021-07-27T06:53:21Z</time>
      </trkpt>
      <trkpt lat="45.9138" lon="3.0236">
        <ele>452</ele>
        <time>2021-07-27T06:53:22Z</time>
      </trkpt>
      <trkpt lat="45.9138" lon="3.02359">
        <ele>452</ele>
        <time>2021-07-27T06:53:23Z</time>
      </trkpt>
      <trkpt lat="45.9138" lon="3.02357">
        <ele>452</ele>
        <time>2021-07-27T06:53:24Z</time>
      </trkpt>
      <trkpt lat="45.91381" lon="3.02355">
        <ele>452</ele>
        <time>2021-07-27T06:53:25Z</time>
      </trkpt>
      <trkpt lat="45.91382" lon="3.02354">
        <ele>452</ele>
        <time>2021-07-27T06:53:26Z</time>
      </trkpt>
      <trkpt lat="45.91382" lon="3.02352">
        <ele>452</ele>
        <time>2021-07-27T06:53:27Z</time>
      </trkpt>
      <trkpt lat="45.91383" lon="3.0235">
        <ele>452</ele>
        <time>2021-07-27T06:53:28Z</time>
      </trkpt>
      <trkpt lat="45.91383" lon="3.02349">
        <ele>452</ele>
        <time>2021-07-27T06:53:29Z</time>
      </trkpt>
      <trkpt lat="45.91383" lon="3.02347">
        <ele>452</ele>
        <time>2021-07-27T06:53:30Z</time>
      </trkpt>
      <trkpt lat="45.91384" lon="3.02346">
        <ele>452</ele>
        <time>2021-07-27T06:53:31Z</time>
      </trkpt>
      <trkpt lat="45.91385" lon="3.02344">
        <ele>452</ele>
        <time>2021-07-27T06:53:32Z</time>
      </trkpt>
      <trkpt lat="45.91385" lon="3.02343">
        <ele>452</ele>
        <time>2021-07-27T06:53:33Z</time>
      </trkpt>
      <trkpt lat="45.91386" lon="3.02341">
        <ele>452</ele>
        <time>2021-07-27T06:53:34Z</time>
      </trkpt>
      <trkpt lat="45.91386" lon="3.0234">
        <ele>452</ele>
        <time>2021-07-27T06:53:35Z</time>
      </trkpt>
      <trkpt lat="45.91386" lon="3.02338">
        <ele>452</ele>
        <time>2021-07-27T06:53:36Z</time>
      </trkpt>
      <trkpt lat="45.91387" lon="3.02337">
        <ele>452</ele>
        <time>2021-07-27T06:53:37Z</time>
      </trkpt>
      <trkpt lat="45.91387" lon="3.02335">
        <ele>452</ele>
        <time>2021-07-27T06:53:38Z</time>
      </trkpt>
      <trkpt lat="45.91387" lon="3.02334">
        <ele>452</ele>
        <time>2021-07-27T06:53:39Z</time>
      </trkpt>
      <trkpt lat="45.91387" lon="3.02332">
        <ele>452</ele>
        <time>2021-07-27T06:53:40Z</time>
      </trkpt>
      <trkpt lat="45.91388" lon="3.0233">
        <ele>452</ele>
        <time>2021-07-27T06:53:41Z</time>
      </trkpt>
      <trkpt lat="45.91388" lon="3.02329">
        <ele>452</ele>
        <time>2021-07-27T06:53:42Z</time>
      </trkpt>
      <trkpt lat="45.91388" lon="3.02327">
        <ele>452</ele>
        <time>2021-07-27T06:53:43Z</time>
      </trkpt>
      <trkpt lat="45.91388" lon="3.02325">
        <ele>452</ele>
        <time>2021-07-27T06:53:44Z</time>
      </trkpt>
      <trkpt lat="45.91388" lon="3.02323">
        <ele>452</ele>
        <time>2021-07-27T06:53:45Z</time>
      </trkpt>
      <trkpt lat="45.91388" lon="3.02321">
        <ele>452</ele>
        <time>2021-07-27T06:53:46Z</time>
      </trkpt>
      <trkpt lat="45.91388" lon="3.02319">
        <ele>452</ele>
        <time>2021-07-27T06:53:47Z</time>
      </trkpt>
      <trkpt lat="45.91388" lon="3.02317">
        <ele>452</ele>
        <time>2021-07-27T06:53:49Z</time>
      </trkpt>
      <trkpt lat="45.91388" lon="3.02309">
        <ele>452</ele>
        <time>2021-07-27T06:53:50Z</time>
      </trkpt>
      <trkpt lat="45.91388" lon="3.02309">
        <ele>452</ele>
        <time>2021-07-27T06:53:51Z</time>
      </trkpt>
      <trkpt lat="45.91387" lon="3.02308">
        <ele>452</ele>
        <time>2021-07-27T06:53:52Z</time>
      </trkpt>
      <trkpt lat="45.91388" lon="3.02306">
        <ele>452</ele>
        <time>2021-07-27T06:53:53Z</time>
      </trkpt>
      <trkpt lat="45.91388" lon="3.02305">
        <ele>452</ele>
        <time>2021-07-27T06:53:54Z</time>
      </trkpt>
      <trkpt lat="45.91387" lon="3.02304">
        <ele>452</ele>
        <time>2021-07-27T06:53:55Z</time>
      </trkpt>
      <trkpt lat="45.91387" lon="3.02302">
        <ele>452</ele>
        <time>2021-07-27T06:53:56Z</time>
      </trkpt>
      <trkpt lat="45.91388" lon="3.023">
        <ele>452</ele>
        <time>2021-07-27T06:53:57Z</time>
      </trkpt>
      <trkpt lat="45.91388" lon="3.02299">
        <ele>452</ele>
        <time>2021-07-27T06:53:58Z</time>
      </trkpt>
      <trkpt lat="45.91388" lon="3.02297">
        <ele>452</ele>
        <time>2021-07-27T06:53:59Z</time>
      </trkpt>
      <trkpt lat="45.91388" lon="3.02294">
        <ele>452</ele>
        <time>2021-07-27T06:54:00Z</time>
      </trkpt>
      <trkpt lat="45.91388" lon="3.02292">
        <ele>452</ele>
        <time>2021-07-27T06:54:01Z</time>
      </trkpt>
      <trkpt lat="45.91389" lon="3.0229">
        <ele>452</ele>
        <time>2021-07-27T06:54:02Z</time>
      </trkpt>
      <trkpt lat="45.91389" lon="3.02288">
        <ele>452</ele>
        <time>2021-07-27T06:54:02Z</time>
      </trkpt>
      <trkpt lat="45.91389" lon="3.02286">
        <ele>452</ele>
        <time>2021-07-27T06:54:03Z</time>
      </trkpt>
      <trkpt lat="45.91389" lon="3.02284">
        <ele>452</ele>
        <time>2021-07-27T06:54:04Z</time>
      </trkpt>
      <trkpt lat="45.91388" lon="3.02282">
        <ele>452</ele>
        <time>2021-07-27T06:54:05Z</time>
      </trkpt>
      <trkpt lat="45.91388" lon="3.02281">
        <ele>452</ele>
        <time>2021-07-27T06:54:06Z</time>
      </trkpt>
      <trkpt lat="45.91388" lon="3.02279">
        <ele>452</ele>
        <time>2021-07-27T06:54:07Z</time>
      </trkpt>
      <trkpt lat="45.91388" lon="3.02277">
        <ele>452</ele>
        <time>2021-07-27T06:54:08Z</time>
      </trkpt>
      <trkpt lat="45.91388" lon="3.02275">
        <ele>452</ele>
        <time>2021-07-27T06:54:09Z</time>
      </trkpt>
      <trkpt lat="45.91388" lon="3.02273">
        <ele>452</ele>
        <time>2021-07-27T06:54:10Z</time>
      </trkpt>
      <trkpt lat="45.91388" lon="3.02271">
        <ele>452</ele>
        <time>2021-07-27T06:54:11Z</time>
      </trkpt>
      <trkpt lat="45.91388" lon="3.02269">
        <ele>452</ele>
        <time>2021-07-27T06:54:12Z</time>
      </trkpt>
      <trkpt lat="45.91387" lon="3.02267">
        <ele>452</ele>
        <time>2021-07-27T06:54:13Z</time>
      </trkpt>
      <trkpt lat="45.91387" lon="3.02265">
        <ele>452</ele>
        <time>2021-07-27T06:54:14Z</time>
      </trkpt>
      <trkpt lat="45.91387" lon="3.02264">
        <ele>452</ele>
        <time>2021-07-27T06:54:15Z</time>
      </trkpt>
      <trkpt lat="45.91387" lon="3.02262">
        <ele>452</ele>
        <time>2021-07-27T06:54:16Z</time>
      </trkpt>
      <trkpt lat="45.91387" lon="3.0226">
        <ele>452</ele>
        <time>2021-07-27T06:54:17Z</time>
      </trkpt>
      <trkpt lat="45.91387" lon="3.02258">
        <ele>452</ele>
        <time>2021-07-27T06:54:18Z</time>
      </trkpt>
      <trkpt lat="45.91387" lon="3.02256">
        <ele>452</ele>
        <time>2021-07-27T06:54:19Z</time>
      </trkpt>
      <trkpt lat="45.91387" lon="3.02254">
        <ele>452</ele>
        <time>2021-07-27T06:54:20Z</time>
      </trkpt>
      <trkpt lat="45.91387" lon="3.02252">
        <ele>452</ele>
        <time>2021-07-27T06:54:21Z</time>
      </trkpt>
      <trkpt lat="45.91387" lon="3.0225">
        <ele>452</ele>
        <time>2021-07-27T06:54:22Z</time>
      </trkpt>
      <trkpt lat="45.91387" lon="3.02248">
        <ele>452</ele>
        <time>2021-07-27T06:54:23Z</time>
      </trkpt>
      <trkpt lat="45.91386" lon="3.02246">
        <ele>452</ele>
        <time>2021-07-27T06:54:24Z</time>
      </trkpt>
      <trkpt lat="45.91387" lon="3.02245">
        <ele>452</ele>
        <time>2021-07-27T06:54:25Z</time>
      </trkpt>
      <trkpt lat="45.91387" lon="3.02243">
        <ele>452</ele>
        <time>2021-07-27T06:54:26Z</time>
      </trkpt>
      <trkpt lat="45.91387" lon="3.02241">
        <ele>452</ele>
        <time>2021-07-27T06:54:27Z</time>
      </trkpt>
      <trkpt lat="45.91387" lon="3.0224">
        <ele>452</ele>
        <time>2021-07-27T06:54:28Z</time>
      </trkpt>
      <trkpt lat="45.91387" lon="3.02239">
        <ele>452</ele>
        <time>2021-07-27T06:54:29Z</time>
      </trkpt>
      <trkpt lat="45.91387" lon="3.02237">
        <ele>452</ele>
        <time>2021-07-27T06:54:30Z</time>
      </trkpt>
      <trkpt lat="45.91387" lon="3.02235">
        <ele>452</ele>
        <time>2021-07-27T06:54:31Z</time>
      </trkpt>
      <trkpt lat="45.91386" lon="3.02234">
        <ele>452</ele>
        <time>2021-07-27T06:54:32Z</time>
      </trkpt>
      <trkpt lat="45.91387" lon="3.02232">
        <ele>452</ele>
        <time>2021-07-27T06:54:33Z</time>
      </trkpt>
      <trkpt lat="45.91386" lon="3.0223">
        <ele>452</ele>
        <time>2021-07-27T06:54:34Z</time>
      </trkpt>
      <trkpt lat="45.91387" lon="3.02228">
        <ele>452</ele>
        <time>2021-07-27T06:54:35Z</time>
      </trkpt>
      <trkpt lat="45.91387" lon="3.02226">
        <ele>452</ele>
        <time>2021-07-27T06:54:36Z</time>
      </trkpt>
      <trkpt lat="45.91387" lon="3.02225">
        <ele>452</ele>
        <time>2021-07-27T06:54:37Z</time>
      </trkpt>
      <trkpt lat="45.91387" lon="3.02223">
        <ele>452</ele>
        <time>2021-07-27T06:54:38Z</time>
      </trkpt>
      <trkpt lat="45.91387" lon="3.02222">
        <ele>452</ele>
        <time>2021-07-27T06:54:39Z</time>
      </trkpt>
      <trkpt lat="45.91387" lon="3.0222">
        <ele>452</ele>
        <time>2021-07-27T06:54:40Z</time>
      </trkpt>
      <trkpt lat="45.91387" lon="3.02219">
        <ele>452</ele>
        <time>2021-07-27T06:54:41Z</time>
      </trkpt>
      <trkpt lat="45.91387" lon="3.02217">
        <ele>452</ele>
        <time>2021-07-27T06:54:42Z</time>
      </trkpt>
      <trkpt lat="45.91387" lon="3.02216">
        <ele>452</ele>
        <time>2021-07-27T06:54:43Z</time>
      </trkpt>
      <trkpt lat="45.91387" lon="3.02214">
        <ele>452</ele>
        <time>2021-07-27T06:54:44Z</time>
      </trkpt>
      <trkpt lat="45.91387" lon="3.02212">
        <ele>452</ele>
        <time>2021-07-27T06:54:45Z</time>
      </trkpt>
      <trkpt lat="45.91387" lon="3.0221">
        <ele>452</ele>
        <time>2021-07-27T06:54:46Z</time>
      </trkpt>
      <trkpt lat="45.91387" lon="3.02209">
        <ele>452</ele>
        <time>2021-07-27T06:54:47Z</time>
      </trkpt>
      <trkpt lat="45.91388" lon="3.02207">
        <ele>452</ele>
        <time>2021-07-27T06:54:48Z</time>
      </trkpt>
      <trkpt lat="45.91388" lon="3.02205">
        <ele>452</ele>
        <time>2021-07-27T06:54:49Z</time>
      </trkpt>
      <trkpt lat="45.91388" lon="3.02204">
        <ele>452</ele>
        <time>2021-07-27T06:54:50Z</time>
      </trkpt>
      <trkpt lat="45.91388" lon="3.02203">
        <ele>452</ele>
        <time>2021-07-27T06:54:51Z</time>
      </trkpt>
      <trkpt lat="45.91388" lon="3.02203">
        <ele>452</ele>
        <time>2021-07-27T06:54:52Z</time>
      </trkpt>
      <trkpt lat="45.91388" lon="3.02202">
        <ele>452</ele>
        <time>2021-07-27T06:54:53Z</time>
      </trkpt>
      <trkpt lat="45.91388" lon="3.02202">
        <ele>452</ele>
        <time>2021-07-27T06:54:54Z</time>
      </trkpt>
      <trkpt lat="45.91388" lon="3.02201">
        <ele>452</ele>
        <time>2021-07-27T06:54:55Z</time>
      </trkpt>
      <trkpt lat="45.91388" lon="3.022">
        <ele>452</ele>
        <time>2021-07-27T06:54:56Z</time>
      </trkpt>
      <trkpt lat="45.91388" lon="3.02199">
        <ele>452</ele>
        <time>2021-07-27T06:54:57Z</time>
      </trkpt>
      <trkpt lat="45.91388" lon="3.02197">
        <ele>452</ele>
        <time>2021-07-27T06:54:58Z</time>
      </trkpt>
      <trkpt lat="45.91388" lon="3.02195">
        <ele>452</ele>
        <time>2021-07-27T06:54:59Z</time>
      </trkpt>
      <trkpt lat="45.91388" lon="3.02193">
        <ele>452</ele>
        <time>2021-07-27T06:55:00Z</time>
      </trkpt>
      <trkpt lat="45.91388" lon="3.02191">
        <ele>452</ele>
        <time>2021-07-27T06:55:01Z</time>
      </trkpt>
      <trkpt lat="45.91387" lon="3.02189">
        <ele>452</ele>
        <time>2021-07-27T06:55:02Z</time>
      </trkpt>
      <trkpt lat="45.91387" lon="3.02187">
        <ele>452</ele>
        <time>2021-07-27T06:55:03Z</time>
      </trkpt>
      <trkpt lat="45.91386" lon="3.02185">
        <ele>452</ele>
        <time>2021-07-27T06:55:04Z</time>
      </trkpt>
      <trkpt lat="45.91386" lon="3.02183">
        <ele>452</ele>
        <time>2021-07-27T06:55:05Z</time>
      </trkpt>
      <trkpt lat="45.91386" lon="3.02181">
        <ele>452</ele>
        <time>2021-07-27T06:55:06Z</time>
      </trkpt>
      <trkpt lat="45.91386" lon="3.02179">
        <ele>452</ele>
        <time>2021-07-27T06:55:08Z</time>
      </trkpt>
      <trkpt lat="45.91386" lon="3.02171">
        <ele>452</ele>
        <time>2021-07-27T06:55:09Z</time>
      </trkpt>
      <trkpt lat="45.91386" lon="3.02171">
        <ele>452</ele>
        <time>2021-07-27T06:55:10Z</time>
      </trkpt>
      <trkpt lat="45.91386" lon="3.0217">
        <ele>452</ele>
        <time>2021-07-27T06:55:11Z</time>
      </trkpt>
      <trkpt lat="45.91386" lon="3.02169">
        <ele>452</ele>
        <time>2021-07-27T06:55:12Z</time>
      </trkpt>
      <trkpt lat="45.91386" lon="3.02167">
        <ele>452</ele>
        <time>2021-07-27T06:55:13Z</time>
      </trkpt>
      <trkpt lat="45.91386" lon="3.02165">
        <ele>452</ele>
        <time>2021-07-27T06:55:14Z</time>
      </trkpt>
      <trkpt lat="45.91386" lon="3.02164">
        <ele>452</ele>
        <time>2021-07-27T06:55:15Z</time>
      </trkpt>
      <trkpt lat="45.91386" lon="3.02162">
        <ele>452</ele>
        <time>2021-07-27T06:55:16Z</time>
      </trkpt>
      <trkpt lat="45.91387" lon="3.0216">
        <ele>452</ele>
        <time>2021-07-27T06:55:17Z</time>
      </trkpt>
      <trkpt lat="45.91387" lon="3.02158">
        <ele>452</ele>
        <time>2021-07-27T06:55:18Z</time>
      </trkpt>
      <trkpt lat="45.91387" lon="3.02156">
        <ele>452</ele>
        <time>2021-07-27T06:55:19Z</time>
      </trkpt>
      <trkpt lat="45.91387" lon="3.02154">
        <ele>452</ele>
        <time>2021-07-27T06:55:20Z</time>
      </trkpt>
      <trkpt lat="45.91387" lon="3.02152">
        <ele>452</ele>
        <time>2021-07-27T06:55:21Z</time>
      </trkpt>
      <trkpt lat="45.91387" lon="3.0215">
        <ele>452</ele>
        <time>2021-07-27T06:55:22Z</time>
      </trkpt>
      <trkpt lat="45.91388" lon="3.02148">
        <ele>452</ele>
        <time>2021-07-27T06:55:23Z</time>
      </trkpt>
      <trkpt lat="45.91388" lon="3.02146">
        <ele>452</ele>
        <time>2021-07-27T06:55:24Z</time>
      </trkpt>
      <trkpt lat="45.91388" lon="3.02144">
        <ele>452</ele>
        <time>2021-07-27T06:55:25Z</time>
      </trkpt>
      <trkpt lat="45.91388" lon="3.02142">
        <ele>452</ele>
        <time>2021-07-27T06:55:26Z</time>
      </trkpt>
      <trkpt lat="45.91388" lon="3.0214">
        <ele>452</ele>
        <time>2021-07-27T06:55:27Z</time>
      </trkpt>
      <trkpt lat="45.91388" lon="3.02138">
        <ele>452</ele>
        <time>2021-07-27T06:55:28Z</time>
      </trkpt>
      <trkpt lat="45.91388" lon="3.02136">
        <ele>452</ele>
        <time>2021-07-27T06:55:29Z</time>
      </trkpt>
      <trkpt lat="45.91388" lon="3.02134">
        <ele>452</ele>
        <time>2021-07-27T06:55:30Z</time>
      </trkpt>
      <trkpt lat="45.91388" lon="3.02132">
        <ele>452</ele>
        <time>2021-07-27T06:55:31Z</time>
      </trkpt>
      <trkpt lat="45.91387" lon="3.0213">
        <ele>452</ele>
        <time>2021-07-27T06:55:32Z</time>
      </trkpt>
      <trkpt lat="45.91387" lon="3.02128">
        <ele>452</ele>
        <time>2021-07-27T06:55:33Z</time>
      </trkpt>
      <trkpt lat="45.91387" lon="3.02126">
        <ele>452</ele>
        <time>2021-07-27T06:55:34Z</time>
      </trkpt>
      <trkpt lat="45.91387" lon="3.02124">
        <ele>452</ele>
        <time>2021-07-27T06:55:35Z</time>
      </trkpt>
      <trkpt lat="45.91386" lon="3.02122">
        <ele>452</ele>
        <time>2021-07-27T06:55:36Z</time>
      </trkpt>
      <trkpt lat="45.91386" lon="3.0212">
        <ele>452</ele>
        <time>2021-07-27T06:55:37Z</time>
      </trkpt>
      <trkpt lat="45.91386" lon="3.02118">
        <ele>452</ele>
        <time>2021-07-27T06:55:38Z</time>
      </trkpt>
      <trkpt lat="45.91385" lon="3.02116">
        <ele>452</ele>
        <time>2021-07-27T06:55:39Z</time>
      </trkpt>
      <trkpt lat="45.91385" lon="3.02114">
        <ele>452</ele>
        <time>2021-07-27T06:55:40Z</time>
      </trkpt>
      <trkpt lat="45.91385" lon="3.02112">
        <ele>452</ele>
        <time>2021-07-27T06:55:41Z</time>
      </trkpt>
      <trkpt lat="45.91385" lon="3.0211">
        <ele>452</ele>
        <time>2021-07-27T06:55:42Z</time>
      </trkpt>
      <trkpt lat="45.91384" lon="3.02108">
        <ele>452</ele>
        <time>2021-07-27T06:55:43Z</time>
      </trkpt>
      <trkpt lat="45.91384" lon="3.02106">
        <ele>452</ele>
        <time>2021-07-27T06:55:44Z</time>
      </trkpt>
      <trkpt lat="45.91383" lon="3.02105">
        <ele>452</ele>
        <time>2021-07-27T06:55:45Z</time>
      </trkpt>
      <trkpt lat="45.91383" lon="3.02103">
        <ele>452</ele>
        <time>2021-07-27T06:55:46Z</time>
      </trkpt>
      <trkpt lat="45.91383" lon="3.02101">
        <ele>452</ele>
        <time>2021-07-27T06:55:48Z</time>
      </trkpt>
      <trkpt lat="45.91381" lon="3.02093">
        <ele>452</ele>
        <time>2021-07-27T06:55:49Z</time>
      </trkpt>
      <trkpt lat="45.91381" lon="3.02092">
        <ele>452</ele>
        <time>2021-07-27T06:55:50Z</time>
      </trkpt>
      <trkpt lat="45.9138" lon="3.02091">
        <ele>452</ele>
        <time>2021-07-27T06:55:51Z</time>
      </trkpt>
      <trkpt lat="45.9138" lon="3.0209">
        <ele>452</ele>
        <time>2021-07-27T06:55:52Z</time>
      </trkpt>
      <trkpt lat="45.9138" lon="3.02088">
        <ele>452</ele>
        <time>2021-07-27T06:55:53Z</time>
      </trkpt>
      <trkpt lat="45.91379" lon="3.02086">
        <ele>452</ele>
        <time>2021-07-27T06:55:54Z</time>
      </trkpt>
      <trkpt lat="45.91378" lon="3.02084">
        <ele>452</ele>
        <time>2021-07-27T06:55:55Z</time>
      </trkpt>
      <trkpt lat="45.91378" lon="3.02082">
        <ele>452</ele>
        <time>2021-07-27T06:55:56Z</time>
      </trkpt>
      <trkpt lat="45.91377" lon="3.0208">
        <ele>452</ele>
        <time>2021-07-27T06:55:57Z</time>
      </trkpt>
      <trkpt lat="45.91377" lon="3.02078">
        <ele>452</ele>
        <time>2021-07-27T06:55:58Z</time>
      </trkpt>
      <trkpt lat="45.91376" lon="3.02076">
        <ele>452</ele>
        <time>2021-07-27T06:55:59Z</time>
      </trkpt>
      <trkpt lat="45.91375" lon="3.02074">
        <ele>452</ele>
        <time>2021-07-27T06:56:00Z</time>
      </trkpt>
      <trkpt lat="45.91375" lon="3.02072">
        <ele>452</ele>
        <time>2021-07-27T06:56:01Z</time>
      </trkpt>
      <trkpt lat="45.91374" lon="3.0207">
        <ele>452</ele>
        <time>2021-07-27T06:56:02Z</time>
      </trkpt>
      <trkpt lat="45.91374" lon="3.02068">
        <ele>452</ele>
        <time>2021-07-27T06:56:03Z</time>
      </trkpt>
      <trkpt lat="45.91374" lon="3.02066">
        <ele>452</ele>
        <time>2021-07-27T06:56:04Z</time>
      </trkpt>
      <trkpt lat="45.91374" lon="3.02064">
        <ele>452</ele>
        <time>2021-07-27T06:56:05Z</time>
      </trkpt>
      <trkpt lat="45.91373" lon="3.02062">
        <ele>452</ele>
        <time>2021-07-27T06:56:06Z</time>
      </trkpt>
      <trkpt lat="45.91373" lon="3.02061">
        <ele>452</ele>
        <time>2021-07-27T06:56:07Z</time>
      </trkpt>
      <trkpt lat="45.91373" lon="3.02059">
        <ele>452</ele>
        <time>2021-07-27T06:56:08Z</time>
      </trkpt>
      <trkpt lat="45.91372" lon="3.02057">
        <ele>452</ele>
        <time>2021-07-27T06:56:09Z</time>
      </trkpt>
      <trkpt lat="45.91372" lon="3.02055">
        <ele>452</ele>
        <time>2021-07-27T06:56:10Z</time>
      </trkpt>
      <trkpt lat="45.91372" lon="3.02053">
        <ele>452</ele>
        <time>2021-07-27T06:56:11Z</time>
      </trkpt>
      <trkpt lat="45.91371" lon="3.02051">
        <ele>452</ele>
        <time>2021-07-27T06:56:12Z</time>
      </trkpt>
      <trkpt lat="45.91371" lon="3.0205">
        <ele>452</ele>
        <time>2021-07-27T06:56:13Z</time>
      </trkpt>
      <trkpt lat="45.9137" lon="3.02048">
        <ele>452</ele>
        <time>2021-07-27T06:56:14Z</time>
      </trkpt>
      <trkpt lat="45.91369" lon="3.02046">
        <ele>452</ele>
        <time>2021-07-27T06:56:15Z</time>
      </trkpt>
      <trkpt lat="45.91368" lon="3.02044">
        <ele>452</ele>
        <time>2021-07-27T06:56:16Z</time>
      </trkpt>
      <trkpt lat="45.91367" lon="3.02043">
        <ele>452</ele>
        <time>2021-07-27T06:56:17Z</time>
      </trkpt>
      <trkpt lat="45.91367" lon="3.02041">
        <ele>452</ele>
        <time>2021-07-27T06:56:18Z</time>
      </trkpt>
      <trkpt lat="45.91366" lon="3.02039">
        <ele>452</ele>
        <time>2021-07-27T06:56:19Z</time>
      </trkpt>
      <trkpt lat="45.91365" lon="3.02037">
        <ele>452</ele>
        <time>2021-07-27T06:56:20Z</time>
      </trkpt>
      <trkpt lat="45.91365" lon="3.02035">
        <ele>452</ele>
        <time>2021-07-27T06:56:21Z</time>
      </trkpt>
      <trkpt lat="45.91364" lon="3.02033">
        <ele>452</ele>
        <time>2021-07-27T06:56:22Z</time>
      </trkpt>
      <trkpt lat="45.91363" lon="3.02031">
        <ele>452</ele>
        <time>2021-07-27T06:56:23Z</time>
      </trkpt>
      <trkpt lat="45.91362" lon="3.02029">
        <ele>452</ele>
        <time>2021-07-27T06:56:24Z</time>
      </trkpt>
      <trkpt lat="45.91361" lon="3.02028">
        <ele>452</ele>
        <time>2021-07-27T06:56:25Z</time>
      </trkpt>
      <trkpt lat="45.9136" lon="3.02026">
        <ele>452</ele>
        <time>2021-07-27T06:56:26Z</time>
      </trkpt>
      <trkpt lat="45.91359" lon="3.02024">
        <ele>452</ele>
        <time>2021-07-27T06:56:27Z</time>
      </trkpt>
      <trkpt lat="45.91359" lon="3.02022">
        <ele>452</ele>
        <time>2021-07-27T06:56:28Z</time>
      </trkpt>
      <trkpt lat="45.91357" lon="3.0202">
        <ele>452</ele>
        <time>2021-07-27T06:56:29Z</time>
      </trkpt>
      <trkpt lat="45.91357" lon="3.02018">
        <ele>452</ele>
        <time>2021-07-27T06:56:30Z</time>
      </trkpt>
      <trkpt lat="45.91356" lon="3.02015">
        <ele>452</ele>
        <time>2021-07-27T06:56:31Z</time>
      </trkpt>
      <trkpt lat="45.91355" lon="3.02013">
        <ele>452</ele>
        <time>2021-07-27T06:56:32Z</time>
      </trkpt>
      <trkpt lat="45.91354" lon="3.02012">
        <ele>452</ele>
        <time>2021-07-27T06:56:33Z</time>
      </trkpt>
      <trkpt lat="45.91353" lon="3.0201">
        <ele>452</ele>
        <time>2021-07-27T06:56:34Z</time>
      </trkpt>
      <trkpt lat="45.91353" lon="3.02008">
        <ele>452</ele>
        <time>2021-07-27T06:56:35Z</time>
      </trkpt>
      <trkpt lat="45.91353" lon="3.02006">
        <ele>452</ele>
        <time>2021-07-27T06:56:36Z</time>
      </trkpt>
      <trkpt lat="45.91352" lon="3.02005">
        <ele>452</ele>
        <time>2021-07-27T06:56:37Z</time>
      </trkpt>
      <trkpt lat="45.91351" lon="3.02003">
        <ele>452</ele>
        <time>2021-07-27T06:56:38Z</time>
      </trkpt>
      <trkpt lat="45.91351" lon="3.02001">
        <ele>452</ele>
        <time>2021-07-27T06:56:39Z</time>
      </trkpt>
      <trkpt lat="45.9135" lon="3.02">
        <ele>452</ele>
        <time>2021-07-27T06:56:40Z</time>
      </trkpt>
      <trkpt lat="45.91349" lon="3.01998">
        <ele>452</ele>
        <time>2021-07-27T06:56:41Z</time>
      </trkpt>
      <trkpt lat="45.91349" lon="3.01997">
        <ele>452</ele>
        <time>2021-07-27T06:56:42Z</time>
      </trkpt>
      <trkpt lat="45.91348" lon="3.01994">
        <ele>452</ele>
        <time>2021-07-27T06:56:43Z</time>
      </trkpt>
      <trkpt lat="45.91348" lon="3.01992">
        <ele>452</ele>
        <time>2021-07-27T06:56:44Z</time>
      </trkpt>
      <trkpt lat="45.91347" lon="3.0199">
        <ele>452</ele>
        <time>2021-07-27T06:56:45Z</time>
      </trkpt>
      <trkpt lat="45.91346" lon="3.01987">
        <ele>452</ele>
        <time>2021-07-27T06:56:46Z</time>
      </trkpt>
      <trkpt lat="45.91346" lon="3.01985">
        <ele>452</ele>
        <time>2021-07-27T06:56:48Z</time>
      </trkpt>
      <trkpt lat="45.91343" lon="3.01974">
        <ele>452</ele>
        <time>2021-07-27T06:56:49Z</time>
      </trkpt>
      <trkpt lat="45.91343" lon="3.01974">
        <ele>452</ele>
        <time>2021-07-27T06:56:50Z</time>
      </trkpt>
      <trkpt lat="45.91343" lon="3.01972">
        <ele>452</ele>
        <time>2021-07-27T06:56:51Z</time>
      </trkpt>
      <trkpt lat="45.91343" lon="3.01971">
        <ele>452</ele>
        <time>2021-07-27T06:56:52Z</time>
      </trkpt>
      <trkpt lat="45.91342" lon="3.01969">
        <ele>452</ele>
        <time>2021-07-27T06:56:53Z</time>
      </trkpt>
      <trkpt lat="45.91342" lon="3.01967">
        <ele>452</ele>
        <time>2021-07-27T06:56:54Z</time>
      </trkpt>
      <trkpt lat="45.91341" lon="3.01965">
        <ele>452</ele>
        <time>2021-07-27T06:56:55Z</time>
      </trkpt>
      <trkpt lat="45.91341" lon="3.01963">
        <ele>452</ele>
        <time>2021-07-27T06:56:56Z</time>
      </trkpt>
      <trkpt lat="45.91341" lon="3.01961">
        <ele>452</ele>
        <time>2021-07-27T06:56:57Z</time>
      </trkpt>
      <trkpt lat="45.91341" lon="3.01959">
        <ele>452</ele>
        <time>2021-07-27T06:56:58Z</time>
      </trkpt>
      <trkpt lat="45.91341" lon="3.01958">
        <ele>452</ele>
        <time>2021-07-27T06:56:59Z</time>
      </trkpt>
      <trkpt lat="45.91341" lon="3.01956">
        <ele>452</ele>
        <time>2021-07-27T06:57:00Z</time>
      </trkpt>
      <trkpt lat="45.91341" lon="3.01954">
        <ele>452</ele>
        <time>2021-07-27T06:57:01Z</time>
      </trkpt>
      <trkpt lat="45.91341" lon="3.01952">
        <ele>452</ele>
        <time>2021-07-27T06:57:02Z</time>
      </trkpt>
      <trkpt lat="45.9134" lon="3.0195">
        <ele>452</ele>
        <time>2021-07-27T06:57:03Z</time>
      </trkpt>
      <trkpt lat="45.9134" lon="3.01949">
        <ele>452</ele>
        <time>2021-07-27T06:57:04Z</time>
      </trkpt>
      <trkpt lat="45.9134" lon="3.01947">
        <ele>452</ele>
        <time>2021-07-27T06:57:05Z</time>
      </trkpt>
      <trkpt lat="45.91339" lon="3.01945">
        <ele>452</ele>
        <time>2021-07-27T06:57:06Z</time>
      </trkpt>
      <trkpt lat="45.91339" lon="3.01943">
        <ele>452</ele>
        <time>2021-07-27T06:57:07Z</time>
      </trkpt>
      <trkpt lat="45.91339" lon="3.01941">
        <ele>452</ele>
        <time>2021-07-27T06:57:08Z</time>
      </trkpt>
      <trkpt lat="45.91339" lon="3.01939">
        <ele>452</ele>
        <time>2021-07-27T06:57:09Z</time>
      </trkpt>
      <trkpt lat="45.91339" lon="3.01937">
        <ele>452</ele>
        <time>2021-07-27T06:57:10Z</time>
      </trkpt>
      <trkpt lat="45.91339" lon="3.01936">
        <ele>452</ele>
        <time>2021-07-27T06:57:11Z</time>
      </trkpt>
      <trkpt lat="45.91339" lon="3.01934">
        <ele>452</ele>
        <time>2021-07-27T06:57:12Z</time>
      </trkpt>
      <trkpt lat="45.91339" lon="3.01933">
        <ele>452</ele>
        <time>2021-07-27T06:57:13Z</time>
      </trkpt>
      <trkpt lat="45.91338" lon="3.01931">
        <ele>452</ele>
        <time>2021-07-27T06:57:14Z</time>
      </trkpt>
      <trkpt lat="45.91338" lon="3.0193">
        <ele>452</ele>
        <time>2021-07-27T06:57:15Z</time>
      </trkpt>
      <trkpt lat="45.91338" lon="3.01928">
        <ele>452</ele>
        <time>2021-07-27T06:57:16Z</time>
      </trkpt>
      <trkpt lat="45.91338" lon="3.01927">
        <ele>452</ele>
        <time>2021-07-27T06:57:17Z</time>
      </trkpt>
      <trkpt lat="45.91338" lon="3.01925">
        <ele>452</ele>
        <time>2021-07-27T06:57:18Z</time>
      </trkpt>
      <trkpt lat="45.91338" lon="3.01924">
        <ele>452</ele>
        <time>2021-07-27T06:57:19Z</time>
      </trkpt>
      <trkpt lat="45.91338" lon="3.01922">
        <ele>452</ele>
        <time>2021-07-27T06:57:20Z</time>
      </trkpt>
      <trkpt lat="45.91337" lon="3.0192">
        <ele>452</ele>
        <time>2021-07-27T06:57:21Z</time>
      </trkpt>
      <trkpt lat="45.91337" lon="3.01918">
        <ele>452</ele>
        <time>2021-07-27T06:57:22Z</time>
      </trkpt>
      <trkpt lat="45.91337" lon="3.01916">
        <ele>452</ele>
        <time>2021-07-27T06:57:23Z</time>
      </trkpt>
      <trkpt lat="45.91337" lon="3.01915">
        <ele>452</ele>
        <time>2021-07-27T06:57:24Z</time>
      </trkpt>
      <trkpt lat="45.91336" lon="3.01913">
        <ele>452</ele>
        <time>2021-07-27T06:57:25Z</time>
      </trkpt>
      <trkpt lat="45.91336" lon="3.01911">
        <ele>452</ele>
        <time>2021-07-27T06:57:26Z</time>
      </trkpt>
      <trkpt lat="45.91336" lon="3.01909">
        <ele>452</ele>
        <time>2021-07-27T06:57:27Z</time>
      </trkpt>
      <trkpt lat="45.91335" lon="3.01907">
        <ele>452</ele>
        <time>2021-07-27T06:57:28Z</time>
      </trkpt>
      <trkpt lat="45.91335" lon="3.01904">
        <ele>452</ele>
        <time>2021-07-27T06:57:29Z</time>
      </trkpt>
      <trkpt lat="45.91335" lon="3.01902">
        <ele>452</ele>
        <time>2021-07-27T06:57:30Z</time>
      </trkpt>
      <trkpt lat="45.91335" lon="3.019">
        <ele>452</ele>
        <time>2021-07-27T06:57:31Z</time>
      </trkpt>
      <trkpt lat="45.91335" lon="3.01898">
        <ele>452</ele>
        <time>2021-07-27T06:57:32Z</time>
      </trkpt>
      <trkpt lat="45.91335" lon="3.01896">
        <ele>452</ele>
        <time>2021-07-27T06:57:33Z</time>
      </trkpt>
      <trkpt lat="45.91335" lon="3.01893">
        <ele>452</ele>
        <time>2021-07-27T06:57:34Z</time>
      </trkpt>
      <trkpt lat="45.91335" lon="3.01891">
        <ele>452</ele>
        <time>2021-07-27T06:57:35Z</time>
      </trkpt>
      <trkpt lat="45.91335" lon="3.01889">
        <ele>452</ele>
        <time>2021-07-27T06:57:36Z</time>
      </trkpt>
      <trkpt lat="45.91335" lon="3.01886">
        <ele>452</ele>
        <time>2021-07-27T06:57:37Z</time>
      </trkpt>
      <trkpt lat="45.91335" lon="3.01884">
        <ele>452</ele>
        <time>2021-07-27T06:57:38Z</time>
      </trkpt>
      <trkpt lat="45.91335" lon="3.01882">
        <ele>452</ele>
        <time>2021-07-27T06:57:39Z</time>
      </trkpt>
      <trkpt lat="45.91335" lon="3.01879">
        <ele>452</ele>
        <time>2021-07-27T06:57:40Z</time>
      </trkpt>
      <trkpt lat="45.91335" lon="3.01877">
        <ele>452</ele>
        <time>2021-07-27T06:57:41Z</time>
      </trkpt>
      <trkpt lat="45.91335" lon="3.01875">
        <ele>452</ele>
        <time>2021-07-27T06:57:42Z</time>
      </trkpt>
      <trkpt lat="45.91335" lon="3.01873">
        <ele>452</ele>
        <time>2021-07-27T06:57:43Z</time>
      </trkpt>
      <trkpt lat="45.91335" lon="3.01871">
        <ele>452</ele>
        <time>2021-07-27T06:57:44Z</time>
      </trkpt>
      <trkpt lat="45.91335" lon="3.0187">
        <ele>452</ele>
        <time>2021-07-27T06:57:45Z</time>
      </trkpt>
      <trkpt lat="45.91335" lon="3.01868">
        <ele>452</ele>
        <time>2021-07-27T06:57:46Z</time>
      </trkpt>
      <trkpt lat="45.91335" lon="3.01865">
        <ele>452</ele>
        <time>2021-07-27T06:57:48Z</time>
      </trkpt>
      <trkpt lat="45.91334" lon="3.01857">
        <ele>452</ele>
        <time>2021-07-27T06:57:49Z</time>
      </trkpt>
      <trkpt lat="45.91334" lon="3.01856">
        <ele>452</ele>
        <time>2021-07-27T06:57:50Z</time>
      </trkpt>
      <trkpt lat="45.91334" lon="3.01855">
        <ele>452</ele>
        <time>2021-07-27T06:57:51Z</time>
      </trkpt>
      <trkpt lat="45.91333" lon="3.01854">
        <ele>452</ele>
        <time>2021-07-27T06:57:52Z</time>
      </trkpt>
      <trkpt lat="45.91333" lon="3.01852">
        <ele>452</ele>
        <time>2021-07-27T06:57:53Z</time>
      </trkpt>
      <trkpt lat="45.91333" lon="3.0185">
        <ele>452</ele>
        <time>2021-07-27T06:57:54Z</time>
      </trkpt>
      <trkpt lat="45.91333" lon="3.01848">
        <ele>452</ele>
        <time>2021-07-27T06:57:55Z</time>
      </trkpt>
      <trkpt lat="45.91333" lon="3.01846">
        <ele>452</ele>
        <time>2021-07-27T06:57:56Z</time>
      </trkpt>
      <trkpt lat="45.91333" lon="3.01844">
        <ele>452</ele>
        <time>2021-07-27T06:57:57Z</time>
      </trkpt>
      <trkpt lat="45.91332" lon="3.01842">
        <ele>452</ele>
        <time>2021-07-27T06:57:58Z</time>
      </trkpt>
      <trkpt lat="45.91332" lon="3.0184">
        <ele>452</ele>
        <time>2021-07-27T06:57:59Z</time>
      </trkpt>
      <trkpt lat="45.91332" lon="3.01837">
        <ele>452</ele>
        <time>2021-07-27T06:58:00Z</time>
      </trkpt>
      <trkpt lat="45.91332" lon="3.01835">
        <ele>452</ele>
        <time>2021-07-27T06:58:01Z</time>
      </trkpt>
      <trkpt lat="45.91332" lon="3.01833">
        <ele>452</ele>
        <time>2021-07-27T06:58:02Z</time>
      </trkpt>
      <trkpt lat="45.91331" lon="3.01831">
        <ele>452</ele>
        <time>2021-07-27T06:58:03Z</time>
      </trkpt>
      <trkpt lat="45.9133" lon="3.01829">
        <ele>452</ele>
        <time>2021-07-27T06:58:04Z</time>
      </trkpt>
      <trkpt lat="45.9133" lon="3.01827">
        <ele>452</ele>
        <time>2021-07-27T06:58:05Z</time>
      </trkpt>
      <trkpt lat="45.9133" lon="3.01825">
        <ele>452</ele>
        <time>2021-07-27T06:58:06Z</time>
      </trkpt>
      <trkpt lat="45.9133" lon="3.01822">
        <ele>452</ele>
        <time>2021-07-27T06:58:07Z</time>
      </trkpt>
      <trkpt lat="45.91329" lon="3.0182">
        <ele>452</ele>
        <time>2021-07-27T06:58:08Z</time>
      </trkpt>
      <trkpt lat="45.91329" lon="3.01818">
        <ele>452</ele>
        <time>2021-07-27T06:58:09Z</time>
      </trkpt>
      <trkpt lat="45.91329" lon="3.01816">
        <ele>452</ele>
        <time>2021-07-27T06:58:10Z</time>
      </trkpt>
      <trkpt lat="45.91329" lon="3.01814">
        <ele>452</ele>
        <time>2021-07-27T06:58:11Z</time>
      </trkpt>
      <trkpt lat="45.91328" lon="3.01813">
        <ele>452</ele>
        <time>2021-07-27T06:58:12Z</time>
      </trkpt>
      <trkpt lat="45.91328" lon="3.01811">
        <ele>452</ele>
        <time>2021-07-27T06:58:13Z</time>
      </trkpt>
      <trkpt lat="45.91327" lon="3.01809">
        <ele>452</ele>
        <time>2021-07-27T06:58:14Z</time>
      </trkpt>
      <trkpt lat="45.91327" lon="3.01807">
        <ele>452</ele>
        <time>2021-07-27T06:58:15Z</time>
      </trkpt>
      <trkpt lat="45.91326" lon="3.01805">
        <ele>452</ele>
        <time>2021-07-27T06:58:16Z</time>
      </trkpt>
      <trkpt lat="45.91326" lon="3.01803">
        <ele>452</ele>
        <time>2021-07-27T06:58:17Z</time>
      </trkpt>
      <trkpt lat="45.91325" lon="3.01801">
        <ele>452</ele>
        <time>2021-07-27T06:58:17Z</time>
      </trkpt>
      <trkpt lat="45.91324" lon="3.018">
        <ele>452</ele>
        <time>2021-07-27T06:58:18Z</time>
      </trkpt>
      <trkpt lat="45.91324" lon="3.01798">
        <ele>452</ele>
        <time>2021-07-27T06:58:19Z</time>
      </trkpt>
      <trkpt lat="45.91323" lon="3.01796">
        <ele>452</ele>
        <time>2021-07-27T06:58:20Z</time>
      </trkpt>
      <trkpt lat="45.91322" lon="3.01794">
        <ele>452</ele>
        <time>2021-07-27T06:58:21Z</time>
      </trkpt>
      <trkpt lat="45.91321" lon="3.01792">
        <ele>452</ele>
        <time>2021-07-27T06:58:22Z</time>
      </trkpt>
      <trkpt lat="45.9132" lon="3.01791">
        <ele>452</ele>
        <time>2021-07-27T06:58:23Z</time>
      </trkpt>
      <trkpt lat="45.9132" lon="3.01789">
        <ele>452</ele>
        <time>2021-07-27T06:58:24Z</time>
      </trkpt>
      <trkpt lat="45.91319" lon="3.01787">
        <ele>452</ele>
        <time>2021-07-27T06:58:25Z</time>
      </trkpt>
      <trkpt lat="45.91318" lon="3.01785">
        <ele>452</ele>
        <time>2021-07-27T06:58:26Z</time>
      </trkpt>
      <trkpt lat="45.91317" lon="3.01784">
        <ele>452</ele>
        <time>2021-07-27T06:58:27Z</time>
      </trkpt>
      <trkpt lat="45.91317" lon="3.01782">
        <ele>452</ele>
        <time>2021-07-27T06:58:28Z</time>
      </trkpt>
      <trkpt lat="45.91317" lon="3.0178">
        <ele>452</ele>
        <time>2021-07-27T06:58:29Z</time>
      </trkpt>
      <trkpt lat="45.91316" lon="3.01779">
        <ele>452</ele>
        <time>2021-07-27T06:58:30Z</time>
      </trkpt>
      <trkpt lat="45.91316" lon="3.01778">
        <ele>452</ele>
        <time>2021-07-27T06:58:31Z</time>
      </trkpt>
      <trkpt lat="45.91316" lon="3.01776">
        <ele>452</ele>
        <time>2021-07-27T06:58:32Z</time>
      </trkpt>
      <trkpt lat="45.91316" lon="3.01775">
        <ele>452</ele>
        <time>2021-07-27T06:58:33Z</time>
      </trkpt>
      <trkpt lat="45.91316" lon="3.01773">
        <ele>452</ele>
        <time>2021-07-27T06:58:34Z</time>
      </trkpt>
      <trkpt lat="45.91315" lon="3.01772">
        <ele>452</ele>
        <time>2021-07-27T06:58:35Z</time>
      </trkpt>
      <trkpt lat="45.91315" lon="3.0177">
        <ele>452</ele>
        <time>2021-07-27T06:58:36Z</time>
      </trkpt>
      <trkpt lat="45.91314" lon="3.01769">
        <ele>452</ele>
        <time>2021-07-27T06:58:37Z</time>
      </trkpt>
      <trkpt lat="45.91314" lon="3.01767">
        <ele>452</ele>
        <time>2021-07-27T06:58:38Z</time>
      </trkpt>
      <trkpt lat="45.91314" lon="3.01765">
        <ele>452</ele>
        <time>2021-07-27T06:58:39Z</time>
      </trkpt>
      <trkpt lat="45.91314" lon="3.01763">
        <ele>452</ele>
        <time>2021-07-27T06:58:40Z</time>
      </trkpt>
      <trkpt lat="45.91314" lon="3.01761">
        <ele>452</ele>
        <time>2021-07-27T06:58:41Z</time>
      </trkpt>
      <trkpt lat="45.91313" lon="3.01759">
        <ele>452</ele>
        <time>2021-07-27T06:58:42Z</time>
      </trkpt>
      <trkpt lat="45.91313" lon="3.01757">
        <ele>452</ele>
        <time>2021-07-27T06:58:43Z</time>
      </trkpt>
      <trkpt lat="45.91313" lon="3.01755">
        <ele>452</ele>
        <time>2021-07-27T06:58:44Z</time>
      </trkpt>
      <trkpt lat="45.91313" lon="3.01754">
        <ele>452</ele>
        <time>2021-07-27T06:58:45Z</time>
      </trkpt>
      <trkpt lat="45.91313" lon="3.01752">
        <ele>452</ele>
        <time>2021-07-27T06:58:46Z</time>
      </trkpt>
      <trkpt lat="45.91313" lon="3.0175">
        <ele>452</ele>
        <time>2021-07-27T06:58:48Z</time>
      </trkpt>
      <trkpt lat="45.91313" lon="3.01744">
        <ele>452</ele>
        <time>2021-07-27T06:58:49Z</time>
      </trkpt>
      <trkpt lat="45.91313" lon="3.01744">
        <ele>452</ele>
        <time>2021-07-27T06:58:50Z</time>
      </trkpt>
      <trkpt lat="45.91314" lon="3.01743">
        <ele>452</ele>
        <time>2021-07-27T06:58:51Z</time>
      </trkpt>
      <trkpt lat="45.91314" lon="3.01742">
        <ele>452</ele>
        <time>2021-07-27T06:58:52Z</time>
      </trkpt>
      <trkpt lat="45.91314" lon="3.0174">
        <ele>452</ele>
        <time>2021-07-27T06:58:53Z</time>
      </trkpt>
      <trkpt lat="45.91314" lon="3.01738">
        <ele>452</ele>
        <time>2021-07-27T06:58:54Z</time>
      </trkpt>
      <trkpt lat="45.91314" lon="3.01736">
        <ele>452</ele>
        <time>2021-07-27T06:58:55Z</time>
      </trkpt>
      <trkpt lat="45.91314" lon="3.01734">
        <ele>452</ele>
        <time>2021-07-27T06:58:56Z</time>
      </trkpt>
      <trkpt lat="45.91314" lon="3.01732">
        <ele>452</ele>
        <time>2021-07-27T06:58:57Z</time>
      </trkpt>
      <trkpt lat="45.91315" lon="3.0173">
        <ele>452</ele>
        <time>2021-07-27T06:58:58Z</time>
      </trkpt>
      <trkpt lat="45.91315" lon="3.01727">
        <ele>452</ele>
        <time>2021-07-27T06:58:59Z</time>
      </trkpt>
      <trkpt lat="45.91315" lon="3.01725">
        <ele>452</ele>
        <time>2021-07-27T06:59:00Z</time>
      </trkpt>
      <trkpt lat="45.91316" lon="3.01723">
        <ele>452</ele>
        <time>2021-07-27T06:59:01Z</time>
      </trkpt>
      <trkpt lat="45.91315" lon="3.01721">
        <ele>452</ele>
        <time>2021-07-27T06:59:02Z</time>
      </trkpt>
      <trkpt lat="45.91315" lon="3.01719">
        <ele>452</ele>
        <time>2021-07-27T06:59:03Z</time>
      </trkpt>
      <trkpt lat="45.91315" lon="3.01717">
        <ele>452</ele>
        <time>2021-07-27T06:59:04Z</time>
      </trkpt>
      <trkpt lat="45.91315" lon="3.01715">
        <ele>452</ele>
        <time>2021-07-27T06:59:05Z</time>
      </trkpt>
      <trkpt lat="45.91314" lon="3.01713">
        <ele>452</ele>
        <time>2021-07-27T06:59:06Z</time>
      </trkpt>
      <trkpt lat="45.91314" lon="3.01711">
        <ele>452</ele>
        <time>2021-07-27T06:59:07Z</time>
      </trkpt>
      <trkpt lat="45.91314" lon="3.01709">
        <ele>452</ele>
        <time>2021-07-27T06:59:08Z</time>
      </trkpt>
      <trkpt lat="45.91314" lon="3.01707">
        <ele>452</ele>
        <time>2021-07-27T06:59:09Z</time>
      </trkpt>
      <trkpt lat="45.91314" lon="3.01705">
        <ele>452</ele>
        <time>2021-07-27T06:59:10Z</time>
      </trkpt>
      <trkpt lat="45.91314" lon="3.01704">
        <ele>452</ele>
        <time>2021-07-27T06:59:11Z</time>
      </trkpt>
      <trkpt lat="45.91314" lon="3.01702">
        <ele>452</ele>
        <time>2021-07-27T06:59:12Z</time>
      </trkpt>
      <trkpt lat="45.91314" lon="3.017">
        <ele>452</ele>
        <time>2021-07-27T06:59:13Z</time>
      </trkpt>
      <trkpt lat="45.91314" lon="3.01699">
        <ele>452</ele>
        <time>2021-07-27T06:59:14Z</time>
      </trkpt>
      <trkpt lat="45.91314" lon="3.01697">
        <ele>452</ele>
        <time>2021-07-27T06:59:15Z</time>
      </trkpt>
      <trkpt lat="45.91313" lon="3.01695">
        <ele>452</ele>
        <time>2021-07-27T06:59:16Z</time>
      </trkpt>
      <trkpt lat="45.91313" lon="3.01694">
        <ele>452</ele>
        <time>2021-07-27T06:59:17Z</time>
      </trkpt>
      <trkpt lat="45.91312" lon="3.01692">
        <ele>452</ele>
        <time>2021-07-27T06:59:18Z</time>
      </trkpt>
      <trkpt lat="45.91312" lon="3.01691">
        <ele>452</ele>
        <time>2021-07-27T06:59:19Z</time>
      </trkpt>
      <trkpt lat="45.91312" lon="3.01689">
        <ele>452</ele>
        <time>2021-07-27T06:59:20Z</time>
      </trkpt>
      <trkpt lat="45.91311" lon="3.01688">
        <ele>452</ele>
        <time>2021-07-27T06:59:21Z</time>
      </trkpt>
      <trkpt lat="45.91311" lon="3.01686">
        <ele>452</ele>
        <time>2021-07-27T06:59:22Z</time>
      </trkpt>
      <trkpt lat="45.91311" lon="3.01684">
        <ele>452</ele>
        <time>2021-07-27T06:59:23Z</time>
      </trkpt>
      <trkpt lat="45.91311" lon="3.01682">
        <ele>452</ele>
        <time>2021-07-27T06:59:24Z</time>
      </trkpt>
      <trkpt lat="45.9131" lon="3.0168">
        <ele>452</ele>
        <time>2021-07-27T06:59:25Z</time>
      </trkpt>
      <trkpt lat="45.91309" lon="3.01678">
        <ele>452</ele>
        <time>2021-07-27T06:59:26Z</time>
      </trkpt>
      <trkpt lat="45.91309" lon="3.01676">
        <ele>452</ele>
        <time>2021-07-27T06:59:27Z</time>
      </trkpt>
      <trkpt lat="45.91309" lon="3.01674">
        <ele>452</ele>
        <time>2021-07-27T06:59:28Z</time>
      </trkpt>
      <trkpt lat="45.91309" lon="3.01672">
        <ele>452</ele>
        <time>2021-07-27T06:59:29Z</time>
      </trkpt>
      <trkpt lat="45.91308" lon="3.01671">
        <ele>452</ele>
        <time>2021-07-27T06:59:30Z</time>
      </trkpt>
      <trkpt lat="45.91308" lon="3.01669">
        <ele>452</ele>
        <time>2021-07-27T06:59:31Z</time>
      </trkpt>
      <trkpt lat="45.91308" lon="3.01667">
        <ele>452</ele>
        <time>2021-07-27T06:59:32Z</time>
      </trkpt>
      <trkpt lat="45.91307" lon="3.01666">
        <ele>452</ele>
        <time>2021-07-27T06:59:33Z</time>
      </trkpt>
      <trkpt lat="45.91307" lon="3.01664">
        <ele>452</ele>
        <time>2021-07-27T06:59:34Z</time>
      </trkpt>
      <trkpt lat="45.91307" lon="3.01662">
        <ele>452</ele>
        <time>2021-07-27T06:59:35Z</time>
      </trkpt>
      <trkpt lat="45.91306" lon="3.01661">
        <ele>452</ele>
        <time>2021-07-27T06:59:36Z</time>
      </trkpt>
      <trkpt lat="45.91306" lon="3.01659">
        <ele>452</ele>
        <time>2021-07-27T06:59:37Z</time>
      </trkpt>
      <trkpt lat="45.91306" lon="3.01657">
        <ele>452</ele>
        <time>2021-07-27T06:59:38Z</time>
      </trkpt>
      <trkpt lat="45.91306" lon="3.01656">
        <ele>452</ele>
        <time>2021-07-27T06:59:39Z</time>
      </trkpt>
      <trkpt lat="45.91305" lon="3.01654">
        <ele>452</ele>
        <time>2021-07-27T06:59:40Z</time>
      </trkpt>
      <trkpt lat="45.91305" lon="3.01653">
        <ele>452</ele>
        <time>2021-07-27T06:59:41Z</time>
      </trkpt>
      <trkpt lat="45.91305" lon="3.01651">
        <ele>452</ele>
        <time>2021-07-27T06:59:42Z</time>
      </trkpt>
      <trkpt lat="45.91304" lon="3.0165">
        <ele>452</ele>
        <time>2021-07-27T06:59:43Z</time>
      </trkpt>
      <trkpt lat="45.91304" lon="3.01648">
        <ele>452</ele>
        <time>2021-07-27T06:59:44Z</time>
      </trkpt>
      <trkpt lat="45.91304" lon="3.01646">
        <ele>452</ele>
        <time>2021-07-27T06:59:45Z</time>
      </trkpt>
      <trkpt lat="45.91304" lon="3.01644">
        <ele>452</ele>
        <time>2021-07-27T06:59:47Z</time>
      </trkpt>
      <trkpt lat="45.91304" lon="3.01637">
        <ele>452</ele>
        <time>2021-07-27T06:59:48Z</time>
      </trkpt>
      <trkpt lat="45.91304" lon="3.01636">
        <ele>452</ele>
        <time>2021-07-27T06:59:49Z</time>
      </trkpt>
      <trkpt lat="45.91304" lon="3.01635">
        <ele>452</ele>
        <time>2021-07-27T06:59:50Z</time>
      </trkpt>
      <trkpt lat="45.91304" lon="3.01634">
        <ele>452</ele>
        <time>2021-07-27T06:59:51Z</time>
      </trkpt>
      <trkpt lat="45.91304" lon="3.01632">
        <ele>452</ele>
        <time>2021-07-27T06:59:52Z</time>
      </trkpt>
      <trkpt lat="45.91303" lon="3.0163">
        <ele>452</ele>
        <time>2021-07-27T06:59:53Z</time>
      </trkpt>
      <trkpt lat="45.91303" lon="3.01628">
        <ele>452</ele>
        <time>2021-07-27T06:59:54Z</time>
      </trkpt>
      <trkpt lat="45.91303" lon="3.01626">
        <ele>452</ele>
        <time>2021-07-27T06:59:55Z</time>
      </trkpt>
      <trkpt lat="45.91302" lon="3.01624">
        <ele>452</ele>
        <time>2021-07-27T06:59:56Z</time>
      </trkpt>
      <trkpt lat="45.91301" lon="3.01621">
        <ele>452</ele>
        <time>2021-07-27T06:59:57Z</time>
      </trkpt>
      <trkpt lat="45.91301" lon="3.01619">
        <ele>452</ele>
        <time>2021-07-27T06:59:58Z</time>
      </trkpt>
      <trkpt lat="45.913" lon="3.01617">
        <ele>452</ele>
        <time>2021-07-27T06:59:59Z</time>
      </trkpt>
      <trkpt lat="45.91299" lon="3.01615">
        <ele>452</ele>
        <time>2021-07-27T07:00:00Z</time>
      </trkpt>
      <trkpt lat="45.91299" lon="3.01613">
        <ele>452</ele>
        <time>2021-07-27T07:00:01Z</time>
      </trkpt>
      <trkpt lat="45.91299" lon="3.01611">
        <ele>452</ele>
        <time>2021-07-27T07:00:02Z</time>
      </trkpt>
      <trkpt lat="45.91298" lon="3.01609">
        <ele>452</ele>
        <time>2021-07-27T07:00:03Z</time>
      </trkpt>
      <trkpt lat="45.91298" lon="3.01607">
        <ele>452</ele>
        <time>2021-07-27T07:00:04Z</time>
      </trkpt>
      <trkpt lat="45.91296" lon="3.01605">
        <ele>452</ele>
        <time>2021-07-27T07:00:05Z</time>
      </trkpt>
      <trkpt lat="45.91296" lon="3.01603">
        <ele>452</ele>
        <time>2021-07-27T07:00:06Z</time>
      </trkpt>
      <trkpt lat="45.91296" lon="3.01601">
        <ele>452</ele>
        <time>2021-07-27T07:00:07Z</time>
      </trkpt>
      <trkpt lat="45.91295" lon="3.016">
        <ele>452</ele>
        <time>2021-07-27T07:00:08Z</time>
      </trkpt>
      <trkpt lat="45.91294" lon="3.01598">
        <ele>452</ele>
        <time>2021-07-27T07:00:09Z</time>
      </trkpt>
      <trkpt lat="45.91293" lon="3.01597">
        <ele>452</ele>
        <time>2021-07-27T07:00:10Z</time>
      </trkpt>
      <trkpt lat="45.91293" lon="3.01595">
        <ele>452</ele>
        <time>2021-07-27T07:00:11Z</time>
      </trkpt>
      <trkpt lat="45.91292" lon="3.01594">
        <ele>452</ele>
        <time>2021-07-27T07:00:12Z</time>
      </trkpt>
      <trkpt lat="45.91291" lon="3.01592">
        <ele>452</ele>
        <time>2021-07-27T07:00:13Z</time>
      </trkpt>
      <trkpt lat="45.9129" lon="3.01591">
        <ele>452</ele>
        <time>2021-07-27T07:00:14Z</time>
      </trkpt>
      <trkpt lat="45.9129" lon="3.01589">
        <ele>452</ele>
        <time>2021-07-27T07:00:15Z</time>
      </trkpt>
      <trkpt lat="45.91288" lon="3.01587">
        <ele>452</ele>
        <time>2021-07-27T07:00:16Z</time>
      </trkpt>
      <trkpt lat="45.91287" lon="3.01586">
        <ele>452</ele>
        <time>2021-07-27T07:00:17Z</time>
      </trkpt>
      <trkpt lat="45.91286" lon="3.01584">
        <ele>452</ele>
        <time>2021-07-27T07:00:18Z</time>
      </trkpt>
      <trkpt lat="45.91286" lon="3.01582">
        <ele>452</ele>
        <time>2021-07-27T07:00:19Z</time>
      </trkpt>
      <trkpt lat="45.91285" lon="3.01581">
        <ele>452</ele>
        <time>2021-07-27T07:00:20Z</time>
      </trkpt>
      <trkpt lat="45.91284" lon="3.01579">
        <ele>452</ele>
        <time>2021-07-27T07:00:21Z</time>
      </trkpt>
      <trkpt lat="45.91283" lon="3.01577">
        <ele>452</ele>
        <time>2021-07-27T07:00:22Z</time>
      </trkpt>
      <trkpt lat="45.91282" lon="3.01576">
        <ele>452</ele>
        <time>2021-07-27T07:00:23Z</time>
      </trkpt>
      <trkpt lat="45.91281" lon="3.01574">
        <ele>452</ele>
        <time>2021-07-27T07:00:24Z</time>
      </trkpt>
      <trkpt lat="45.9128" lon="3.01573">
        <ele>452</ele>
        <time>2021-07-27T07:00:25Z</time>
      </trkpt>
      <trkpt lat="45.91279" lon="3.01571">
        <ele>452</ele>
        <time>2021-07-27T07:00:26Z</time>
      </trkpt>
      <trkpt lat="45.91278" lon="3.0157">
        <ele>452</ele>
        <time>2021-07-27T07:00:27Z</time>
      </trkpt>
      <trkpt lat="45.91277" lon="3.01569">
        <ele>452</ele>
        <time>2021-07-27T07:00:28Z</time>
      </trkpt>
      <trkpt lat="45.91275" lon="3.01568">
        <ele>452</ele>
        <time>2021-07-27T07:00:29Z</time>
      </trkpt>
      <trkpt lat="45.91275" lon="3.01567">
        <ele>452</ele>
        <time>2021-07-27T07:00:30Z</time>
      </trkpt>
      <trkpt lat="45.91273" lon="3.01566">
        <ele>452</ele>
        <time>2021-07-27T07:00:31Z</time>
      </trkpt>
      <trkpt lat="45.91272" lon="3.01566">
        <ele>452</ele>
        <time>2021-07-27T07:00:32Z</time>
      </trkpt>
      <trkpt lat="45.91271" lon="3.01564">
        <ele>452</ele>
        <time>2021-07-27T07:00:33Z</time>
      </trkpt>
      <trkpt lat="45.91269" lon="3.01563">
        <ele>452</ele>
        <time>2021-07-27T07:00:34Z</time>
      </trkpt>
      <trkpt lat="45.91269" lon="3.01562">
        <ele>452</ele>
        <time>2021-07-27T07:00:35Z</time>
      </trkpt>
      <trkpt lat="45.91267" lon="3.0156">
        <ele>452</ele>
        <time>2021-07-27T07:00:36Z</time>
      </trkpt>
      <trkpt lat="45.91266" lon="3.01559">
        <ele>452</ele>
        <time>2021-07-27T07:00:37Z</time>
      </trkpt>
      <trkpt lat="45.91265" lon="3.01558">
        <ele>452</ele>
        <time>2021-07-27T07:00:38Z</time>
      </trkpt>
      <trkpt lat="45.91264" lon="3.01556">
        <ele>452</ele>
        <time>2021-07-27T07:00:39Z</time>
      </trkpt>
      <trkpt lat="45.91263" lon="3.01555">
        <ele>452</ele>
        <time>2021-07-27T07:00:40Z</time>
      </trkpt>
      <trkpt lat="45.91262" lon="3.01554">
        <ele>452</ele>
        <time>2021-07-27T07:00:41Z</time>
      </trkpt>
      <trkpt lat="45.91261" lon="3.01552">
        <ele>452</ele>
        <time>2021-07-27T07:00:42Z</time>
      </trkpt>
      <trkpt lat="45.9126" lon="3.01551">
        <ele>452</ele>
        <time>2021-07-27T07:00:43Z</time>
      </trkpt>
      <trkpt lat="45.91259" lon="3.01549">
        <ele>452</ele>
        <time>2021-07-27T07:00:44Z</time>
      </trkpt>
      <trkpt lat="45.91258" lon="3.01548">
        <ele>452</ele>
        <time>2021-07-27T07:00:45Z</time>
      </trkpt>
      <trkpt lat="45.91257" lon="3.01547">
        <ele>452</ele>
        <time>2021-07-27T07:00:47Z</time>
      </trkpt>
      <trkpt lat="45.91257" lon="3.01545">
        <ele>452</ele>
        <time>2021-07-27T07:00:48Z</time>
      </trkpt>
      <trkpt lat="45.91254" lon="3.0154">
        <ele>452</ele>
        <time>2021-07-27T07:00:49Z</time>
      </trkpt>
      <trkpt lat="45.91253" lon="3.01539">
        <ele>452</ele>
        <time>2021-07-27T07:00:50Z</time>
      </trkpt>
      <trkpt lat="45.91253" lon="3.01539">
        <ele>452</ele>
        <time>2021-07-27T07:00:51Z</time>
      </trkpt>
      <trkpt lat="45.91251" lon="3.01538">
        <ele>452</ele>
        <time>2021-07-27T07:00:52Z</time>
      </trkpt>
      <trkpt lat="45.91251" lon="3.01536">
        <ele>452</ele>
        <time>2021-07-27T07:00:53Z</time>
      </trkpt>
      <trkpt lat="45.9125" lon="3.01535">
        <ele>452</ele>
        <time>2021-07-27T07:00:54Z</time>
      </trkpt>
      <trkpt lat="45.91248" lon="3.01534">
        <ele>452</ele>
        <time>2021-07-27T07:00:55Z</time>
      </trkpt>
      <trkpt lat="45.91247" lon="3.01532">
        <ele>452</ele>
        <time>2021-07-27T07:00:56Z</time>
      </trkpt>
      <trkpt lat="45.91246" lon="3.01531">
        <ele>452</ele>
        <time>2021-07-27T07:00:57Z</time>
      </trkpt>
      <trkpt lat="45.91245" lon="3.01529">
        <ele>452</ele>
        <time>2021-07-27T07:00:58Z</time>
      </trkpt>
      <trkpt lat="45.91244" lon="3.01528">
        <ele>452</ele>
        <time>2021-07-27T07:00:59Z</time>
      </trkpt>
      <trkpt lat="45.91243" lon="3.01526">
        <ele>452</ele>
        <time>2021-07-27T07:01:00Z</time>
      </trkpt>
      <trkpt lat="45.91243" lon="3.01525">
        <ele>452</ele>
        <time>2021-07-27T07:01:01Z</time>
      </trkpt>
      <trkpt lat="45.91242" lon="3.01524">
        <ele>452</ele>
        <time>2021-07-27T07:01:02Z</time>
      </trkpt>
      <trkpt lat="45.91241" lon="3.01522">
        <ele>452</ele>
        <time>2021-07-27T07:01:03Z</time>
      </trkpt>
      <trkpt lat="45.9124" lon="3.01521">
        <ele>452</ele>
        <time>2021-07-27T07:01:04Z</time>
      </trkpt>
      <trkpt lat="45.91239" lon="3.01519">
        <ele>452</ele>
        <time>2021-07-27T07:01:05Z</time>
      </trkpt>
      <trkpt lat="45.91238" lon="3.01518">
        <ele>452</ele>
        <time>2021-07-27T07:01:06Z</time>
      </trkpt>
      <trkpt lat="45.91238" lon="3.01517">
        <ele>452</ele>
        <time>2021-07-27T07:01:07Z</time>
      </trkpt>
      <trkpt lat="45.91237" lon="3.01515">
        <ele>452</ele>
        <time>2021-07-27T07:01:08Z</time>
      </trkpt>
      <trkpt lat="45.91236" lon="3.01514">
        <ele>452</ele>
        <time>2021-07-27T07:01:09Z</time>
      </trkpt>
      <trkpt lat="45.91235" lon="3.01513">
        <ele>452</ele>
        <time>2021-07-27T07:01:10Z</time>
      </trkpt>
      <trkpt lat="45.91234" lon="3.01512">
        <ele>452</ele>
        <time>2021-07-27T07:01:11Z</time>
      </trkpt>
      <trkpt lat="45.91233" lon="3.01511">
        <ele>452</ele>
        <time>2021-07-27T07:01:12Z</time>
      </trkpt>
      <trkpt lat="45.91232" lon="3.0151">
        <ele>452</ele>
        <time>2021-07-27T07:01:13Z</time>
      </trkpt>
      <trkpt lat="45.91232" lon="3.01509">
        <ele>452</ele>
        <time>2021-07-27T07:01:14Z</time>
      </trkpt>
      <trkpt lat="45.9123" lon="3.01508">
        <ele>452</ele>
        <time>2021-07-27T07:01:15Z</time>
      </trkpt>
      <trkpt lat="45.9123" lon="3.01507">
        <ele>452</ele>
        <time>2021-07-27T07:01:16Z</time>
      </trkpt>
      <trkpt lat="45.91229" lon="3.01506">
        <ele>452</ele>
        <time>2021-07-27T07:01:17Z</time>
      </trkpt>
      <trkpt lat="45.91227" lon="3.01504">
        <ele>452</ele>
        <time>2021-07-27T07:01:18Z</time>
      </trkpt>
      <trkpt lat="45.91226" lon="3.01504">
        <ele>452</ele>
        <time>2021-07-27T07:01:19Z</time>
      </trkpt>
      <trkpt lat="45.91225" lon="3.01504">
        <ele>452</ele>
        <time>2021-07-27T07:01:20Z</time>
      </trkpt>
      <trkpt lat="45.91224" lon="3.01503">
        <ele>452</ele>
        <time>2021-07-27T07:01:21Z</time>
      </trkpt>
      <trkpt lat="45.91222" lon="3.01504">
        <ele>452</ele>
        <time>2021-07-27T07:01:22Z</time>
      </trkpt>
      <trkpt lat="45.91221" lon="3.01504">
        <ele>452</ele>
        <time>2021-07-27T07:01:23Z</time>
      </trkpt>
      <trkpt lat="45.91219" lon="3.01504">
        <ele>452</ele>
        <time>2021-07-27T07:01:24Z</time>
      </trkpt>
      <trkpt lat="45.91218" lon="3.01504">
        <ele>452</ele>
        <time>2021-07-27T07:01:25Z</time>
      </trkpt>
      <trkpt lat="45.91216" lon="3.01505">
        <ele>452</ele>
        <time>2021-07-27T07:01:26Z</time>
      </trkpt>
      <trkpt lat="45.91215" lon="3.01505">
        <ele>452</ele>
        <time>2021-07-27T07:01:27Z</time>
      </trkpt>
      <trkpt lat="45.91214" lon="3.01505">
        <ele>452</ele>
        <time>2021-07-27T07:01:28Z</time>
      </trkpt>
      <trkpt lat="45.91212" lon="3.01505">
        <ele>452</ele>
        <time>2021-07-27T07:01:29Z</time>
      </trkpt>
      <trkpt lat="45.91211" lon="3.01505">
        <ele>452</ele>
        <time>2021-07-27T07:01:30Z</time>
      </trkpt>
      <trkpt lat="45.91209" lon="3.01505">
        <ele>452</ele>
        <time>2021-07-27T07:01:31Z</time>
      </trkpt>
      <trkpt lat="45.91208" lon="3.01505">
        <ele>452</ele>
        <time>2021-07-27T07:01:32Z</time>
      </trkpt>
      <trkpt lat="45.91207" lon="3.01505">
        <ele>452</ele>
        <time>2021-07-27T07:01:33Z</time>
      </trkpt>
      <trkpt lat="45.91206" lon="3.01505">
        <ele>452</ele>
        <time>2021-07-27T07:01:34Z</time>
      </trkpt>
      <trkpt lat="45.91205" lon="3.01506">
        <ele>452</ele>
        <time>2021-07-27T07:01:35Z</time>
      </trkpt>
      <trkpt lat="45.91204" lon="3.01506">
        <ele>452</ele>
        <time>2021-07-27T07:01:36Z</time>
      </trkpt>
      <trkpt lat="45.91203" lon="3.01506">
        <ele>452</ele>
        <time>2021-07-27T07:01:37Z</time>
      </trkpt>
      <trkpt lat="45.91202" lon="3.01506">
        <ele>452</ele>
        <time>2021-07-27T07:01:38Z</time>
      </trkpt>
      <trkpt lat="45.912" lon="3.01506">
        <ele>452</ele>
        <time>2021-07-27T07:01:39Z</time>
      </trkpt>
      <trkpt lat="45.91199" lon="3.01506">
        <ele>452</ele>
        <time>2021-07-27T07:01:40Z</time>
      </trkpt>
      <trkpt lat="45.91197" lon="3.01507">
        <ele>452</ele>
        <time>2021-07-27T07:01:41Z</time>
      </trkpt>
      <trkpt lat="45.91196" lon="3.01507">
        <ele>452</ele>
        <time>2021-07-27T07:01:42Z</time>
      </trkpt>
      <trkpt lat="45.91194" lon="3.01508">
        <ele>452</ele>
        <time>2021-07-27T07:01:43Z</time>
      </trkpt>
      <trkpt lat="45.91193" lon="3.01508">
        <ele>452</ele>
        <time>2021-07-27T07:01:44Z</time>
      </trkpt>
      <trkpt lat="45.91191" lon="3.01509">
        <ele>452</ele>
        <time>2021-07-27T07:01:46Z</time>
      </trkpt>
      <trkpt lat="45.9119" lon="3.01509">
        <ele>452</ele>
        <time>2021-07-27T07:01:47Z</time>
      </trkpt>
      <trkpt lat="45.91188" lon="3.01509">
        <ele>452</ele>
        <time>2021-07-27T07:01:48Z</time>
      </trkpt>
      <trkpt lat="45.91181" lon="3.01512">
        <ele>452</ele>
        <time>2021-07-27T07:01:49Z</time>
      </trkpt>
      <trkpt lat="45.91181" lon="3.01512">
        <ele>452</ele>
        <time>2021-07-27T07:01:50Z</time>
      </trkpt>
      <trkpt lat="45.9118" lon="3.01512">
        <ele>452</ele>
        <time>2021-07-27T07:01:51Z</time>
      </trkpt>
      <trkpt lat="45.9118" lon="3.01513">
        <ele>452</ele>
        <time>2021-07-27T07:01:52Z</time>
      </trkpt>
      <trkpt lat="45.91179" lon="3.01514">
        <ele>452</ele>
        <time>2021-07-27T07:01:53Z</time>
      </trkpt>
      <trkpt lat="45.91178" lon="3.01515">
        <ele>452</ele>
        <time>2021-07-27T07:01:54Z</time>
      </trkpt>
      <trkpt lat="45.91177" lon="3.01517">
        <ele>452</ele>
        <time>2021-07-27T07:01:55Z</time>
      </trkpt>
      <trkpt lat="45.91177" lon="3.01518">
        <ele>452</ele>
        <time>2021-07-27T07:01:56Z</time>
      </trkpt>
      <trkpt lat="45.91176" lon="3.01519">
        <ele>452</ele>
        <time>2021-07-27T07:01:57Z</time>
      </trkpt>
      <trkpt lat="45.91175" lon="3.01521">
        <ele>452</ele>
        <time>2021-07-27T07:01:58Z</time>
      </trkpt>
      <trkpt lat="45.91175" lon="3.01522">
        <ele>452</ele>
        <time>2021-07-27T07:01:59Z</time>
      </trkpt>
      <trkpt lat="45.91174" lon="3.01524">
        <ele>452</ele>
        <time>2021-07-27T07:02:00Z</time>
      </trkpt>
      <trkpt lat="45.91173" lon="3.01525">
        <ele>452</ele>
        <time>2021-07-27T07:02:01Z</time>
      </trkpt>
      <trkpt lat="45.91173" lon="3.01526">
        <ele>452</ele>
        <time>2021-07-27T07:02:02Z</time>
      </trkpt>
      <trkpt lat="45.91172" lon="3.01528">
        <ele>452</ele>
        <time>2021-07-27T07:02:03Z</time>
      </trkpt>
      <trkpt lat="45.91171" lon="3.01529">
        <ele>452</ele>
        <time>2021-07-27T07:02:04Z</time>
      </trkpt>
      <trkpt lat="45.91169" lon="3.0153">
        <ele>452</ele>
        <time>2021-07-27T07:02:05Z</time>
      </trkpt>
      <trkpt lat="45.91169" lon="3.01531">
        <ele>452</ele>
        <time>2021-07-27T07:02:06Z</time>
      </trkpt>
      <trkpt lat="45.91167" lon="3.01532">
        <ele>452</ele>
        <time>2021-07-27T07:02:07Z</time>
      </trkpt>
      <trkpt lat="45.91166" lon="3.01533">
        <ele>452</ele>
        <time>2021-07-27T07:02:08Z</time>
      </trkpt>
      <trkpt lat="45.91166" lon="3.01534">
        <ele>452</ele>
        <time>2021-07-27T07:02:09Z</time>
      </trkpt>
      <trkpt lat="45.91164" lon="3.01535">
        <ele>452</ele>
        <time>2021-07-27T07:02:10Z</time>
      </trkpt>
      <trkpt lat="45.91163" lon="3.01537">
        <ele>452</ele>
        <time>2021-07-27T07:02:11Z</time>
      </trkpt>
      <trkpt lat="45.91161" lon="3.01538">
        <ele>452</ele>
        <time>2021-07-27T07:02:12Z</time>
      </trkpt>
      <trkpt lat="45.9116" lon="3.01539">
        <ele>452</ele>
        <time>2021-07-27T07:02:13Z</time>
      </trkpt>
      <trkpt lat="45.91159" lon="3.0154">
        <ele>452</ele>
        <time>2021-07-27T07:02:14Z</time>
      </trkpt>
      <trkpt lat="45.91157" lon="3.01541">
        <ele>452</ele>
        <time>2021-07-27T07:02:15Z</time>
      </trkpt>
      <trkpt lat="45.91156" lon="3.01542">
        <ele>452</ele>
        <time>2021-07-27T07:02:16Z</time>
      </trkpt>
      <trkpt lat="45.91155" lon="3.01543">
        <ele>452</ele>
        <time>2021-07-27T07:02:17Z</time>
      </trkpt>
      <trkpt lat="45.91154" lon="3.01545">
        <ele>452</ele>
        <time>2021-07-27T07:02:18Z</time>
      </trkpt>
      <trkpt lat="45.91153" lon="3.01546">
        <ele>452</ele>
        <time>2021-07-27T07:02:19Z</time>
      </trkpt>
      <trkpt lat="45.91153" lon="3.01547">
        <ele>452</ele>
        <time>2021-07-27T07:02:20Z</time>
      </trkpt>
      <trkpt lat="45.91152" lon="3.01549">
        <ele>452</ele>
        <time>2021-07-27T07:02:21Z</time>
      </trkpt>
      <trkpt lat="45.91151" lon="3.0155">
        <ele>452</ele>
        <time>2021-07-27T07:02:22Z</time>
      </trkpt>
      <trkpt lat="45.91151" lon="3.01551">
        <ele>452</ele>
        <time>2021-07-27T07:02:23Z</time>
      </trkpt>
      <trkpt lat="45.9115" lon="3.01552">
        <ele>452</ele>
        <time>2021-07-27T07:02:24Z</time>
      </trkpt>
      <trkpt lat="45.91148" lon="3.01553">
        <ele>452</ele>
        <time>2021-07-27T07:02:25Z</time>
      </trkpt>
      <trkpt lat="45.91147" lon="3.01555">
        <ele>452</ele>
        <time>2021-07-27T07:02:26Z</time>
      </trkpt>
      <trkpt lat="45.91145" lon="3.01556">
        <ele>452</ele>
        <time>2021-07-27T07:02:27Z</time>
      </trkpt>
      <trkpt lat="45.91145" lon="3.01557">
        <ele>452</ele>
        <time>2021-07-27T07:02:28Z</time>
      </trkpt>
      <trkpt lat="45.91143" lon="3.01558">
        <ele>452</ele>
        <time>2021-07-27T07:02:29Z</time>
      </trkpt>
      <trkpt lat="45.91142" lon="3.01559">
        <ele>452</ele>
        <time>2021-07-27T07:02:30Z</time>
      </trkpt>
      <trkpt lat="45.91141" lon="3.0156">
        <ele>452</ele>
        <time>2021-07-27T07:02:31Z</time>
      </trkpt>
      <trkpt lat="45.9114" lon="3.01561">
        <ele>452</ele>
        <time>2021-07-27T07:02:32Z</time>
      </trkpt>
      <trkpt lat="45.91139" lon="3.01561">
        <ele>452</ele>
        <time>2021-07-27T07:02:32Z</time>
      </trkpt>
      <trkpt lat="45.91138" lon="3.01561">
        <ele>452</ele>
        <time>2021-07-27T07:02:33Z</time>
      </trkpt>
      <trkpt lat="45.91137" lon="3.01562">
        <ele>452</ele>
        <time>2021-07-27T07:02:34Z</time>
      </trkpt>
      <trkpt lat="45.91136" lon="3.01562">
        <ele>452</ele>
        <time>2021-07-27T07:02:35Z</time>
      </trkpt>
      <trkpt lat="45.91135" lon="3.01563">
        <ele>452</ele>
        <time>2021-07-27T07:02:36Z</time>
      </trkpt>
      <trkpt lat="45.91134" lon="3.01564">
        <ele>452</ele>
        <time>2021-07-27T07:02:37Z</time>
      </trkpt>
      <trkpt lat="45.91133" lon="3.01565">
        <ele>452</ele>
        <time>2021-07-27T07:02:38Z</time>
      </trkpt>
      <trkpt lat="45.91132" lon="3.01567">
        <ele>452</ele>
        <time>2021-07-27T07:02:39Z</time>
      </trkpt>
      <trkpt lat="45.9113" lon="3.01568">
        <ele>452</ele>
        <time>2021-07-27T07:02:40Z</time>
      </trkpt>
      <trkpt lat="45.9113" lon="3.01569">
        <ele>452</ele>
        <time>2021-07-27T07:02:41Z</time>
      </trkpt>
      <trkpt lat="45.91128" lon="3.0157">
        <ele>452</ele>
        <time>2021-07-27T07:02:42Z</time>
      </trkpt>
      <trkpt lat="45.91127" lon="3.01572">
        <ele>452</ele>
        <time>2021-07-27T07:02:43Z</time>
      </trkpt>
      <trkpt lat="45.91125" lon="3.01574">
        <ele>452</ele>
        <time>2021-07-27T07:02:44Z</time>
      </trkpt>
      <trkpt lat="45.91124" lon="3.01575">
        <ele>452</ele>
        <time>2021-07-27T07:02:46Z</time>
      </trkpt>
      <trkpt lat="45.91118" lon="3.01581">
        <ele>452</ele>
        <time>2021-07-27T07:02:47Z</time>
      </trkpt>
      <trkpt lat="45.91117" lon="3.01581">
        <ele>452</ele>
        <time>2021-07-27T07:02:48Z</time>
      </trkpt>
      <trkpt lat="45.91116" lon="3.01582">
        <ele>452</ele>
        <time>2021-07-27T07:02:49Z</time>
      </trkpt>
      <trkpt lat="45.91115" lon="3.01583">
        <ele>452</ele>
        <time>2021-07-27T07:02:50Z</time>
      </trkpt>
      <trkpt lat="45.91114" lon="3.01584">
        <ele>452</ele>
        <time>2021-07-27T07:02:51Z</time>
      </trkpt>
      <trkpt lat="45.91113" lon="3.01585">
        <ele>452</ele>
        <time>2021-07-27T07:02:52Z</time>
      </trkpt>
      <trkpt lat="45.91112" lon="3.01586">
        <ele>452</ele>
        <time>2021-07-27T07:02:53Z</time>
      </trkpt>
      <trkpt lat="45.91111" lon="3.01587">
        <ele>452</ele>
        <time>2021-07-27T07:02:54Z</time>
      </trkpt>
      <trkpt lat="45.9111" lon="3.01588">
        <ele>452</ele>
        <time>2021-07-27T07:02:55Z</time>
      </trkpt>
      <trkpt lat="45.91109" lon="3.01589">
        <ele>452</ele>
        <time>2021-07-27T07:02:56Z</time>
      </trkpt>
      <trkpt lat="45.91108" lon="3.0159">
        <ele>452</ele>
        <time>2021-07-27T07:02:57Z</time>
      </trkpt>
      <trkpt lat="45.91106" lon="3.01592">
        <ele>452</ele>
        <time>2021-07-27T07:02:58Z</time>
      </trkpt>
      <trkpt lat="45.91105" lon="3.01593">
        <ele>452</ele>
        <time>2021-07-27T07:02:59Z</time>
      </trkpt>
      <trkpt lat="45.91104" lon="3.01594">
        <ele>452</ele>
        <time>2021-07-27T07:03:00Z</time>
      </trkpt>
      <trkpt lat="45.91103" lon="3.01594">
        <ele>452</ele>
        <time>2021-07-27T07:03:01Z</time>
      </trkpt>
      <trkpt lat="45.91102" lon="3.01595">
        <ele>452</ele>
        <time>2021-07-27T07:03:02Z</time>
      </trkpt>
      <trkpt lat="45.91101" lon="3.01596">
        <ele>452</ele>
        <time>2021-07-27T07:03:03Z</time>
      </trkpt>
      <trkpt lat="45.911" lon="3.01596">
        <ele>452</ele>
        <time>2021-07-27T07:03:04Z</time>
      </trkpt>
      <trkpt lat="45.91099" lon="3.01597">
        <ele>452</ele>
        <time>2021-07-27T07:03:05Z</time>
      </trkpt>
      <trkpt lat="45.91098" lon="3.01598">
        <ele>452</ele>
        <time>2021-07-27T07:03:06Z</time>
      </trkpt>
      <trkpt lat="45.91097" lon="3.01599">
        <ele>452</ele>
        <time>2021-07-27T07:03:07Z</time>
      </trkpt>
      <trkpt lat="45.91095" lon="3.016">
        <ele>452</ele>
        <time>2021-07-27T07:03:08Z</time>
      </trkpt>
      <trkpt lat="45.91094" lon="3.01601">
        <ele>452</ele>
        <time>2021-07-27T07:03:09Z</time>
      </trkpt>
      <trkpt lat="45.91093" lon="3.01602">
        <ele>452</ele>
        <time>2021-07-27T07:03:10Z</time>
      </trkpt>
      <trkpt lat="45.91092" lon="3.01604">
        <ele>452</ele>
        <time>2021-07-27T07:03:11Z</time>
      </trkpt>
      <trkpt lat="45.91091" lon="3.01605">
        <ele>452</ele>
        <time>2021-07-27T07:03:12Z</time>
      </trkpt>
      <trkpt lat="45.9109" lon="3.01606">
        <ele>452</ele>
        <time>2021-07-27T07:03:13Z</time>
      </trkpt>
      <trkpt lat="45.91089" lon="3.01608">
        <ele>452</ele>
        <time>2021-07-27T07:03:14Z</time>
      </trkpt>
      <trkpt lat="45.91088" lon="3.01609">
        <ele>452</ele>
        <time>2021-07-27T07:03:15Z</time>
      </trkpt>
      <trkpt lat="45.91087" lon="3.0161">
        <ele>452</ele>
        <time>2021-07-27T07:03:16Z</time>
      </trkpt>
      <trkpt lat="45.91086" lon="3.01612">
        <ele>452</ele>
        <time>2021-07-27T07:03:17Z</time>
      </trkpt>
      <trkpt lat="45.91085" lon="3.01613">
        <ele>452</ele>
        <time>2021-07-27T07:03:18Z</time>
      </trkpt>
      <trkpt lat="45.91084" lon="3.01615">
        <ele>452</ele>
        <time>2021-07-27T07:03:19Z</time>
      </trkpt>
      <trkpt lat="45.91083" lon="3.01616">
        <ele>452</ele>
        <time>2021-07-27T07:03:20Z</time>
      </trkpt>
      <trkpt lat="45.91082" lon="3.01618">
        <ele>452</ele>
        <time>2021-07-27T07:03:21Z</time>
      </trkpt>
      <trkpt lat="45.91081" lon="3.01619">
        <ele>452</ele>
        <time>2021-07-27T07:03:22Z</time>
      </trkpt>
      <trkpt lat="45.91079" lon="3.01621">
        <ele>452</ele>
        <time>2021-07-27T07:03:23Z</time>
      </trkpt>
      <trkpt lat="45.91079" lon="3.01622">
        <ele>452</ele>
        <time>2021-07-27T07:03:24Z</time>
      </trkpt>
      <trkpt lat="45.91077" lon="3.01623">
        <ele>452</ele>
        <time>2021-07-27T07:03:25Z</time>
      </trkpt>
      <trkpt lat="45.91076" lon="3.01625">
        <ele>452</ele>
        <time>2021-07-27T07:03:26Z</time>
      </trkpt>
      <trkpt lat="45.91075" lon="3.01626">
        <ele>452</ele>
        <time>2021-07-27T07:03:27Z</time>
      </trkpt>
      <trkpt lat="45.91074" lon="3.01627">
        <ele>452</ele>
        <time>2021-07-27T07:03:28Z</time>
      </trkpt>
      <trkpt lat="45.91072" lon="3.01628">
        <ele>452</ele>
        <time>2021-07-27T07:03:29Z</time>
      </trkpt>
      <trkpt lat="45.91071" lon="3.0163">
        <ele>452</ele>
        <time>2021-07-27T07:03:30Z</time>
      </trkpt>
      <trkpt lat="45.91069" lon="3.01631">
        <ele>452</ele>
        <time>2021-07-27T07:03:31Z</time>
      </trkpt>
      <trkpt lat="45.91068" lon="3.01632">
        <ele>452</ele>
        <time>2021-07-27T07:03:32Z</time>
      </trkpt>
      <trkpt lat="45.91067" lon="3.01633">
        <ele>452</ele>
        <time>2021-07-27T07:03:33Z</time>
      </trkpt>
      <trkpt lat="45.91066" lon="3.01634">
        <ele>452</ele>
        <time>2021-07-27T07:03:34Z</time>
      </trkpt>
      <trkpt lat="45.91065" lon="3.01636">
        <ele>452</ele>
        <time>2021-07-27T07:03:35Z</time>
      </trkpt>
      <trkpt lat="45.91064" lon="3.01637">
        <ele>452</ele>
        <time>2021-07-27T07:03:36Z</time>
      </trkpt>
      <trkpt lat="45.91062" lon="3.01637">
        <ele>452</ele>
        <time>2021-07-27T07:03:37Z</time>
      </trkpt>
      <trkpt lat="45.91061" lon="3.01638">
        <ele>452</ele>
        <time>2021-07-27T07:03:38Z</time>
      </trkpt>
      <trkpt lat="45.9106" lon="3.01639">
        <ele>452</ele>
        <time>2021-07-27T07:03:39Z</time>
      </trkpt>
      <trkpt lat="45.91058" lon="3.0164">
        <ele>452</ele>
        <time>2021-07-27T07:03:40Z</time>
      </trkpt>
      <trkpt lat="45.91056" lon="3.01641">
        <ele>452</ele>
        <time>2021-07-27T07:03:41Z</time>
      </trkpt>
      <trkpt lat="45.91055" lon="3.01642">
        <ele>452</ele>
        <time>2021-07-27T07:03:42Z</time>
      </trkpt>
      <trkpt lat="45.91054" lon="3.01643">
        <ele>452</ele>
        <time>2021-07-27T07:03:43Z</time>
      </trkpt>
      <trkpt lat="45.91052" lon="3.01644">
        <ele>452</ele>
        <time>2021-07-27T07:03:44Z</time>
      </trkpt>
      <trkpt lat="45.91051" lon="3.01645">
        <ele>452</ele>
        <time>2021-07-27T07:03:46Z</time>
      </trkpt>
      <trkpt lat="45.91045" lon="3.0165">
        <ele>452</ele>
        <time>2021-07-27T07:03:47Z</time>
      </trkpt>
      <trkpt lat="45.91044" lon="3.01651">
        <ele>452</ele>
        <time>2021-07-27T07:03:48Z</time>
      </trkpt>
      <trkpt lat="45.91043" lon="3.01651">
        <ele>452</ele>
        <time>2021-07-27T07:03:49Z</time>
      </trkpt>
      <trkpt lat="45.91042" lon="3.01652">
        <ele>452</ele>
        <time>2021-07-27T07:03:50Z</time>
      </trkpt>
      <trkpt lat="45.91041" lon="3.01653">
        <ele>452</ele>
        <time>2021-07-27T07:03:51Z</time>
      </trkpt>
      <trkpt lat="45.9104" lon="3.01654">
        <ele>452</ele>
        <time>2021-07-27T07:03:52Z</time>
      </trkpt>
      <trkpt lat="45.91039" lon="3.01656">
        <ele>452</ele>
        <time>2021-07-27T07:03:53Z</time>
      </trkpt>
      <trkpt lat="45.91037" lon="3.01657">
        <ele>452</ele>
        <time>2021-07-27T07:03:54Z</time>
      </trkpt>
      <trkpt lat="45.91037" lon="3.01659">
        <ele>452</ele>
        <time>2021-07-27T07:03:55Z</time>
      </trkpt>
      <trkpt lat="45.91035" lon="3.0166">
        <ele>452</ele>
        <time>2021-07-27T07:03:56Z</time>
      </trkpt>
      <trkpt lat="45.91034" lon="3.01661">
        <ele>452</ele>
        <time>2021-07-27T07:03:57Z</time>
      </trkpt>
      <trkpt lat="45.91033" lon="3.01662">
        <ele>452</ele>
        <time>2021-07-27T07:03:58Z</time>
      </trkpt>
      <trkpt lat="45.91032" lon="3.01664">
        <ele>452</ele>
        <time>2021-07-27T07:03:59Z</time>
      </trkpt>
      <trkpt lat="45.91031" lon="3.01665">
        <ele>452</ele>
        <time>2021-07-27T07:04:00Z</time>
      </trkpt>
      <trkpt lat="45.9103" lon="3.01666">
        <ele>452</ele>
        <time>2021-07-27T07:04:01Z</time>
      </trkpt>
      <trkpt lat="45.91029" lon="3.01668">
        <ele>452</ele>
        <time>2021-07-27T07:04:02Z</time>
      </trkpt>
      <trkpt lat="45.91028" lon="3.01669">
        <ele>452</ele>
        <time>2021-07-27T07:04:03Z</time>
      </trkpt>
      <trkpt lat="45.91027" lon="3.01671">
        <ele>452</ele>
        <time>2021-07-27T07:04:04Z</time>
      </trkpt>
      <trkpt lat="45.91026" lon="3.01672">
        <ele>452</ele>
        <time>2021-07-27T07:04:05Z</time>
      </trkpt>
      <trkpt lat="45.91025" lon="3.01674">
        <ele>452</ele>
        <time>2021-07-27T07:04:06Z</time>
      </trkpt>
      <trkpt lat="45.91024" lon="3.01675">
        <ele>452</ele>
        <time>2021-07-27T07:04:07Z</time>
      </trkpt>
      <trkpt lat="45.91023" lon="3.01677">
        <ele>452</ele>
        <time>2021-07-27T07:04:08Z</time>
      </trkpt>
      <trkpt lat="45.91022" lon="3.01679">
        <ele>452</ele>
        <time>2021-07-27T07:04:09Z</time>
      </trkpt>
      <trkpt lat="45.91021" lon="3.0168">
        <ele>452</ele>
        <time>2021-07-27T07:04:10Z</time>
      </trkpt>
      <trkpt lat="45.91021" lon="3.01682">
        <ele>452</ele>
        <time>2021-07-27T07:04:11Z</time>
      </trkpt>
      <trkpt lat="45.9102" lon="3.01684">
        <ele>452</ele>
        <time>2021-07-27T07:04:12Z</time>
      </trkpt>
      <trkpt lat="45.91019" lon="3.01685">
        <ele>452</ele>
        <time>2021-07-27T07:04:13Z</time>
      </trkpt>
      <trkpt lat="45.91019" lon="3.01687">
        <ele>452</ele>
        <time>2021-07-27T07:04:14Z</time>
      </trkpt>
      <trkpt lat="45.91019" lon="3.01688">
        <ele>452</ele>
        <time>2021-07-27T07:04:15Z</time>
      </trkpt>
      <trkpt lat="45.91018" lon="3.0169">
        <ele>452</ele>
        <time>2021-07-27T07:04:16Z</time>
      </trkpt>
      <trkpt lat="45.91017" lon="3.01692">
        <ele>452</ele>
        <time>2021-07-27T07:04:17Z</time>
      </trkpt>
      <trkpt lat="45.91016" lon="3.01693">
        <ele>452</ele>
        <time>2021-07-27T07:04:18Z</time>
      </trkpt>
      <trkpt lat="45.91016" lon="3.01694">
        <ele>452</ele>
        <time>2021-07-27T07:04:19Z</time>
      </trkpt>
      <trkpt lat="45.91015" lon="3.01696">
        <ele>452</ele>
        <time>2021-07-27T07:04:20Z</time>
      </trkpt>
      <trkpt lat="45.91015" lon="3.01698">
        <ele>452</ele>
        <time>2021-07-27T07:04:21Z</time>
      </trkpt>
      <trkpt lat="45.91015" lon="3.017">
        <ele>452</ele>
        <time>2021-07-27T07:04:22Z</time>
      </trkpt>
      <trkpt lat="45.91014" lon="3.01702">
        <ele>452</ele>
        <time>2021-07-27T07:04:23Z</time>
      </trkpt>
      <trkpt lat="45.91013" lon="3.01704">
        <ele>452</ele>
        <time>2021-07-27T07:04:24Z</time>
      </trkpt>
      <trkpt lat="45.91013" lon="3.01706">
        <ele>452</ele>
        <time>2021-07-27T07:04:25Z</time>
      </trkpt>
      <trkpt lat="45.91012" lon="3.01708">
        <ele>452</ele>
        <time>2021-07-27T07:04:26Z</time>
      </trkpt>
      <trkpt lat="45.91012" lon="3.0171">
        <ele>452</ele>
        <time>2021-07-27T07:04:27Z</time>
      </trkpt>
      <trkpt lat="45.91011" lon="3.01712">
        <ele>452</ele>
        <time>2021-07-27T07:04:28Z</time>
      </trkpt>
      <trkpt lat="45.9101" lon="3.01714">
        <ele>452</ele>
        <time>2021-07-27T07:04:29Z</time>
      </trkpt>
      <trkpt lat="45.9101" lon="3.01716">
        <ele>452</ele>
        <time>2021-07-27T07:04:30Z</time>
      </trkpt>
      <trkpt lat="45.91009" lon="3.01718">
        <ele>452</ele>
        <time>2021-07-27T07:04:31Z</time>
      </trkpt>
      <trkpt lat="45.91008" lon="3.01719">
        <ele>452</ele>
        <time>2021-07-27T07:04:32Z</time>
      </trkpt>
      <trkpt lat="45.91007" lon="3.01721">
        <ele>452</ele>
        <time>2021-07-27T07:04:33Z</time>
      </trkpt>
      <trkpt lat="45.91007" lon="3.01723">
        <ele>452</ele>
        <time>2021-07-27T07:04:34Z</time>
      </trkpt>
      <trkpt lat="45.91006" lon="3.01725">
        <ele>452</ele>
        <time>2021-07-27T07:04:35Z</time>
      </trkpt>
      <trkpt lat="45.91005" lon="3.01726">
        <ele>452</ele>
        <time>2021-07-27T07:04:36Z</time>
      </trkpt>
      <trkpt lat="45.91004" lon="3.01728">
        <ele>452</ele>
        <time>2021-07-27T07:04:37Z</time>
      </trkpt>
      <trkpt lat="45.91003" lon="3.0173">
        <ele>452</ele>
        <time>2021-07-27T07:04:38Z</time>
      </trkpt>
      <trkpt lat="45.91003" lon="3.01732">
        <ele>452</ele>
        <time>2021-07-27T07:04:39Z</time>
      </trkpt>
      <trkpt lat="45.91002" lon="3.01733">
        <ele>452</ele>
        <time>2021-07-27T07:04:40Z</time>
      </trkpt>
      <trkpt lat="45.91001" lon="3.01735">
        <ele>452</ele>
        <time>2021-07-27T07:04:41Z</time>
      </trkpt>
      <trkpt lat="45.91" lon="3.01736">
        <ele>452</ele>
        <time>2021-07-27T07:04:42Z</time>
      </trkpt>
      <trkpt lat="45.90999" lon="3.01738">
        <ele>452</ele>
        <time>2021-07-27T07:04:43Z</time>
      </trkpt>
      <trkpt lat="45.90998" lon="3.0174">
        <ele>452</ele>
        <time>2021-07-27T07:04:44Z</time>
      </trkpt>
      <trkpt lat="45.90997" lon="3.01741">
        <ele>452</ele>
        <time>2021-07-27T07:04:45Z</time>
      </trkpt>
      <trkpt lat="45.90997" lon="3.01743">
        <ele>452</ele>
        <time>2021-07-27T07:04:46Z</time>
      </trkpt>
      <trkpt lat="45.90996" lon="3.01745">
        <ele>452</ele>
        <time>2021-07-27T07:04:47Z</time>
      </trkpt>
      <trkpt lat="45.90995" lon="3.01746">
        <ele>452</ele>
        <time>2021-07-27T07:04:48Z</time>
      </trkpt>
      <trkpt lat="45.90994" lon="3.01748">
        <ele>452</ele>
        <time>2021-07-27T07:04:49Z</time>
      </trkpt>
      <trkpt lat="45.90994" lon="3.0175">
        <ele>452</ele>
        <time>2021-07-27T07:04:50Z</time>
      </trkpt>
      <trkpt lat="45.90992" lon="3.01751">
        <ele>452</ele>
        <time>2021-07-27T07:04:51Z</time>
      </trkpt>
      <trkpt lat="45.90991" lon="3.01752">
        <ele>452</ele>
        <time>2021-07-27T07:04:52Z</time>
      </trkpt>
      <trkpt lat="45.9099" lon="3.01754">
        <ele>452</ele>
        <time>2021-07-27T07:04:53Z</time>
      </trkpt>
      <trkpt lat="45.90989" lon="3.01755">
        <ele>452</ele>
        <time>2021-07-27T07:04:54Z</time>
      </trkpt>
      <trkpt lat="45.90988" lon="3.01757">
        <ele>452</ele>
        <time>2021-07-27T07:04:55Z</time>
      </trkpt>
      <trkpt lat="45.90987" lon="3.01758">
        <ele>452</ele>
        <time>2021-07-27T07:04:56Z</time>
      </trkpt>
      <trkpt lat="45.90986" lon="3.01759">
        <ele>452</ele>
        <time>2021-07-27T07:04:57Z</time>
      </trkpt>
      <trkpt lat="45.90984" lon="3.0176">
        <ele>452</ele>
        <time>2021-07-27T07:04:58Z</time>
      </trkpt>
      <trkpt lat="45.90983" lon="3.01761">
        <ele>452</ele>
        <time>2021-07-27T07:04:59Z</time>
      </trkpt>
      <trkpt lat="45.90982" lon="3.01762">
        <ele>452</ele>
        <time>2021-07-27T07:05:00Z</time>
      </trkpt>
      <trkpt lat="45.90981" lon="3.01764">
        <ele>452</ele>
        <time>2021-07-27T07:05:01Z</time>
      </trkpt>
      <trkpt lat="45.90979" lon="3.01765">
        <ele>452</ele>
        <time>2021-07-27T07:05:02Z</time>
      </trkpt>
      <trkpt lat="45.90978" lon="3.01766">
        <ele>452</ele>
        <time>2021-07-27T07:05:03Z</time>
      </trkpt>
      <trkpt lat="45.90977" lon="3.01768">
        <ele>452</ele>
        <time>2021-07-27T07:05:04Z</time>
      </trkpt>
      <trkpt lat="45.90976" lon="3.01769">
        <ele>452</ele>
        <time>2021-07-27T07:05:05Z</time>
      </trkpt>
      <trkpt lat="45.90975" lon="3.01771">
        <ele>452</ele>
        <time>2021-07-27T07:05:06Z</time>
      </trkpt>
      <trkpt lat="45.90973" lon="3.01772">
        <ele>452</ele>
        <time>2021-07-27T07:05:07Z</time>
      </trkpt>
      <trkpt lat="45.90973" lon="3.01774">
        <ele>452</ele>
        <time>2021-07-27T07:05:08Z</time>
      </trkpt>
      <trkpt lat="45.90971" lon="3.01775">
        <ele>452</ele>
        <time>2021-07-27T07:05:09Z</time>
      </trkpt>
      <trkpt lat="45.9097" lon="3.01777">
        <ele>452</ele>
        <time>2021-07-27T07:05:10Z</time>
      </trkpt>
      <trkpt lat="45.9097" lon="3.01778">
        <ele>452</ele>
        <time>2021-07-27T07:05:11Z</time>
      </trkpt>
      <trkpt lat="45.90969" lon="3.0178">
        <ele>452</ele>
        <time>2021-07-27T07:05:12Z</time>
      </trkpt>
      <trkpt lat="45.90968" lon="3.01782">
        <ele>452</ele>
        <time>2021-07-27T07:05:13Z</time>
      </trkpt>
      <trkpt lat="45.90967" lon="3.01784">
        <ele>452</ele>
        <time>2021-07-27T07:05:14Z</time>
      </trkpt>
      <trkpt lat="45.90966" lon="3.01785">
        <ele>452</ele>
        <time>2021-07-27T07:05:15Z</time>
      </trkpt>
      <trkpt lat="45.90965" lon="3.01787">
        <ele>452</ele>
        <time>2021-07-27T07:05:16Z</time>
      </trkpt>
      <trkpt lat="45.90964" lon="3.01789">
        <ele>452</ele>
        <time>2021-07-27T07:05:17Z</time>
      </trkpt>
      <trkpt lat="45.90963" lon="3.01791">
        <ele>452</ele>
        <time>2021-07-27T07:05:18Z</time>
      </trkpt>
      <trkpt lat="45.90962" lon="3.01793">
        <ele>452</ele>
        <time>2021-07-27T07:05:19Z</time>
      </trkpt>
      <trkpt lat="45.90961" lon="3.01795">
        <ele>452</ele>
        <time>2021-07-27T07:05:20Z</time>
      </trkpt>
      <trkpt lat="45.9096" lon="3.01797">
        <ele>452</ele>
        <time>2021-07-27T07:05:21Z</time>
      </trkpt>
      <trkpt lat="45.90959" lon="3.01799">
        <ele>452</ele>
        <time>2021-07-27T07:05:22Z</time>
      </trkpt>
      <trkpt lat="45.90958" lon="3.01801">
        <ele>452</ele>
        <time>2021-07-27T07:05:23Z</time>
      </trkpt>
      <trkpt lat="45.90958" lon="3.01803">
        <ele>452</ele>
        <time>2021-07-27T07:05:24Z</time>
      </trkpt>
      <trkpt lat="45.90957" lon="3.01805">
        <ele>452</ele>
        <time>2021-07-27T07:05:25Z</time>
      </trkpt>
      <trkpt lat="45.90957" lon="3.01806">
        <ele>452</ele>
        <time>2021-07-27T07:05:26Z</time>
      </trkpt>
      <trkpt lat="45.90956" lon="3.01808">
        <ele>452</ele>
        <time>2021-07-27T07:05:27Z</time>
      </trkpt>
      <trkpt lat="45.90955" lon="3.01809">
        <ele>452</ele>
        <time>2021-07-27T07:05:28Z</time>
      </trkpt>
      <trkpt lat="45.90955" lon="3.01811">
        <ele>452</ele>
        <time>2021-07-27T07:05:29Z</time>
      </trkpt>
      <trkpt lat="45.90955" lon="3.01813">
        <ele>452</ele>
        <time>2021-07-27T07:05:30Z</time>
      </trkpt>
      <trkpt lat="45.90953" lon="3.01814">
        <ele>452</ele>
        <time>2021-07-27T07:05:31Z</time>
      </trkpt>
      <trkpt lat="45.90953" lon="3.01816">
        <ele>452</ele>
        <time>2021-07-27T07:05:32Z</time>
      </trkpt>
      <trkpt lat="45.90952" lon="3.01817">
        <ele>452</ele>
        <time>2021-07-27T07:05:33Z</time>
      </trkpt>
      <trkpt lat="45.90952" lon="3.01819">
        <ele>452</ele>
        <time>2021-07-27T07:05:34Z</time>
      </trkpt>
      <trkpt lat="45.9095" lon="3.01822">
        <ele>452</ele>
        <time>2021-07-27T07:05:35Z</time>
      </trkpt>
      <trkpt lat="45.9095" lon="3.01824">
        <ele>452</ele>
        <time>2021-07-27T07:05:36Z</time>
      </trkpt>
      <trkpt lat="45.90949" lon="3.01826">
        <ele>452</ele>
        <time>2021-07-27T07:05:37Z</time>
      </trkpt>
      <trkpt lat="45.90949" lon="3.01827">
        <ele>452</ele>
        <time>2021-07-27T07:05:38Z</time>
      </trkpt>
      <trkpt lat="45.90947" lon="3.01829">
        <ele>452</ele>
        <time>2021-07-27T07:05:39Z</time>
      </trkpt>
      <trkpt lat="45.90947" lon="3.01831">
        <ele>452</ele>
        <time>2021-07-27T07:05:40Z</time>
      </trkpt>
      <trkpt lat="45.90946" lon="3.01834">
        <ele>452</ele>
        <time>2021-07-27T07:05:41Z</time>
      </trkpt>
      <trkpt lat="45.90945" lon="3.01836">
        <ele>452</ele>
        <time>2021-07-27T07:05:42Z</time>
      </trkpt>
      <trkpt lat="45.90945" lon="3.01839">
        <ele>452</ele>
        <time>2021-07-27T07:05:43Z</time>
      </trkpt>
      <trkpt lat="45.90944" lon="3.01841">
        <ele>452</ele>
        <time>2021-07-27T07:05:44Z</time>
      </trkpt>
      <trkpt lat="45.90944" lon="3.01844">
        <ele>452</ele>
        <time>2021-07-27T07:05:46Z</time>
      </trkpt>
      <trkpt lat="45.90941" lon="3.01853">
        <ele>452</ele>
        <time>2021-07-27T07:05:47Z</time>
      </trkpt>
      <trkpt lat="45.90941" lon="3.01853">
        <ele>452</ele>
        <time>2021-07-27T07:05:48Z</time>
      </trkpt>
      <trkpt lat="45.90941" lon="3.01854">
        <ele>452</ele>
        <time>2021-07-27T07:05:49Z</time>
      </trkpt>
      <trkpt lat="45.9094" lon="3.01855">
        <ele>452</ele>
        <time>2021-07-27T07:05:50Z</time>
      </trkpt>
      <trkpt lat="45.9094" lon="3.01857">
        <ele>452</ele>
        <time>2021-07-27T07:05:51Z</time>
      </trkpt>
      <trkpt lat="45.90939" lon="3.01859">
        <ele>452</ele>
        <time>2021-07-27T07:05:52Z</time>
      </trkpt>
      <trkpt lat="45.90938" lon="3.01861">
        <ele>452</ele>
        <time>2021-07-27T07:05:53Z</time>
      </trkpt>
      <trkpt lat="45.90937" lon="3.01862">
        <ele>452</ele>
        <time>2021-07-27T07:05:54Z</time>
      </trkpt>
      <trkpt lat="45.90937" lon="3.01864">
        <ele>452</ele>
        <time>2021-07-27T07:05:55Z</time>
      </trkpt>
      <trkpt lat="45.90936" lon="3.01866">
        <ele>452</ele>
        <time>2021-07-27T07:05:56Z</time>
      </trkpt>
      <trkpt lat="45.90935" lon="3.01868">
        <ele>452</ele>
        <time>2021-07-27T07:05:57Z</time>
      </trkpt>
      <trkpt lat="45.90934" lon="3.01869">
        <ele>452</ele>
        <time>2021-07-27T07:05:58Z</time>
      </trkpt>
      <trkpt lat="45.90934" lon="3.0187">
        <ele>452</ele>
        <time>2021-07-27T07:05:59Z</time>
      </trkpt>
      <trkpt lat="45.90933" lon="3.01872">
        <ele>452</ele>
        <time>2021-07-27T07:06:00Z</time>
      </trkpt>
      <trkpt lat="45.90932" lon="3.01873">
        <ele>452</ele>
        <time>2021-07-27T07:06:01Z</time>
      </trkpt>
      <trkpt lat="45.90931" lon="3.01875">
        <ele>452</ele>
        <time>2021-07-27T07:06:02Z</time>
      </trkpt>
      <trkpt lat="45.90931" lon="3.01876">
        <ele>452</ele>
        <time>2021-07-27T07:06:03Z</time>
      </trkpt>
      <trkpt lat="45.90931" lon="3.01878">
        <ele>452</ele>
        <time>2021-07-27T07:06:04Z</time>
      </trkpt>
      <trkpt lat="45.90929" lon="3.0188">
        <ele>452</ele>
        <time>2021-07-27T07:06:05Z</time>
      </trkpt>
      <trkpt lat="45.90929" lon="3.01881">
        <ele>452</ele>
        <time>2021-07-27T07:06:06Z</time>
      </trkpt>
      <trkpt lat="45.90928" lon="3.01883">
        <ele>452</ele>
        <time>2021-07-27T07:06:07Z</time>
      </trkpt>
      <trkpt lat="45.90928" lon="3.01884">
        <ele>452</ele>
        <time>2021-07-27T07:06:08Z</time>
      </trkpt>
      <trkpt lat="45.90926" lon="3.01885">
        <ele>452</ele>
        <time>2021-07-27T07:06:09Z</time>
      </trkpt>
      <trkpt lat="45.90926" lon="3.01887">
        <ele>452</ele>
        <time>2021-07-27T07:06:10Z</time>
      </trkpt>
      <trkpt lat="45.90925" lon="3.01888">
        <ele>452</ele>
        <time>2021-07-27T07:06:11Z</time>
      </trkpt>
      <trkpt lat="45.90925" lon="3.0189">
        <ele>452</ele>
        <time>2021-07-27T07:06:12Z</time>
      </trkpt>
      <trkpt lat="45.90925" lon="3.01892">
        <ele>452</ele>
        <time>2021-07-27T07:06:13Z</time>
      </trkpt>
      <trkpt lat="45.90924" lon="3.01894">
        <ele>452</ele>
        <time>2021-07-27T07:06:14Z</time>
      </trkpt>
      <trkpt lat="45.90923" lon="3.01896">
        <ele>452</ele>
        <time>2021-07-27T07:06:15Z</time>
      </trkpt>
      <trkpt lat="45.90923" lon="3.01898">
        <ele>452</ele>
        <time>2021-07-27T07:06:16Z</time>
      </trkpt>
      <trkpt lat="45.90922" lon="3.019">
        <ele>452</ele>
        <time>2021-07-27T07:06:17Z</time>
      </trkpt>
      <trkpt lat="45.90922" lon="3.01902">
        <ele>452</ele>
        <time>2021-07-27T07:06:18Z</time>
      </trkpt>
      <trkpt lat="45.90921" lon="3.01904">
        <ele>452</ele>
        <time>2021-07-27T07:06:19Z</time>
      </trkpt>
      <trkpt lat="45.9092" lon="3.01906">
        <ele>452</ele>
        <time>2021-07-27T07:06:20Z</time>
      </trkpt>
      <trkpt lat="45.90919" lon="3.01908">
        <ele>452</ele>
        <time>2021-07-27T07:06:21Z</time>
      </trkpt>
      <trkpt lat="45.90918" lon="3.0191">
        <ele>452</ele>
        <time>2021-07-27T07:06:22Z</time>
      </trkpt>
      <trkpt lat="45.90917" lon="3.01911">
        <ele>452</ele>
        <time>2021-07-27T07:06:23Z</time>
      </trkpt>
      <trkpt lat="45.90916" lon="3.01913">
        <ele>452</ele>
        <time>2021-07-27T07:06:24Z</time>
      </trkpt>
      <trkpt lat="45.90916" lon="3.01916">
        <ele>452</ele>
        <time>2021-07-27T07:06:25Z</time>
      </trkpt>
      <trkpt lat="45.90915" lon="3.01918">
        <ele>452</ele>
        <time>2021-07-27T07:06:26Z</time>
      </trkpt>
      <trkpt lat="45.90914" lon="3.0192">
        <ele>452</ele>
        <time>2021-07-27T07:06:27Z</time>
      </trkpt>
      <trkpt lat="45.90913" lon="3.01922">
        <ele>452</ele>
        <time>2021-07-27T07:06:28Z</time>
      </trkpt>
      <trkpt lat="45.90913" lon="3.01924">
        <ele>452</ele>
        <time>2021-07-27T07:06:29Z</time>
      </trkpt>
      <trkpt lat="45.90912" lon="3.01925">
        <ele>452</ele>
        <time>2021-07-27T07:06:30Z</time>
      </trkpt>
      <trkpt lat="45.9091" lon="3.01927">
        <ele>452</ele>
        <time>2021-07-27T07:06:31Z</time>
      </trkpt>
      <trkpt lat="45.9091" lon="3.01929">
        <ele>452</ele>
        <time>2021-07-27T07:06:32Z</time>
      </trkpt>
      <trkpt lat="45.90908" lon="3.0193">
        <ele>452</ele>
        <time>2021-07-27T07:06:33Z</time>
      </trkpt>
      <trkpt lat="45.90907" lon="3.01932">
        <ele>452</ele>
        <time>2021-07-27T07:06:34Z</time>
      </trkpt>
      <trkpt lat="45.90907" lon="3.01933">
        <ele>452</ele>
        <time>2021-07-27T07:06:35Z</time>
      </trkpt>
      <trkpt lat="45.90905" lon="3.01935">
        <ele>452</ele>
        <time>2021-07-27T07:06:36Z</time>
      </trkpt>
      <trkpt lat="45.90904" lon="3.01937">
        <ele>452</ele>
        <time>2021-07-27T07:06:37Z</time>
      </trkpt>
      <trkpt lat="45.90904" lon="3.01939">
        <ele>452</ele>
        <time>2021-07-27T07:06:38Z</time>
      </trkpt>
      <trkpt lat="45.90902" lon="3.01941">
        <ele>452</ele>
        <time>2021-07-27T07:06:39Z</time>
      </trkpt>
      <trkpt lat="45.90901" lon="3.01943">
        <ele>452</ele>
        <time>2021-07-27T07:06:40Z</time>
      </trkpt>
      <trkpt lat="45.909" lon="3.01944">
        <ele>452</ele>
        <time>2021-07-27T07:06:41Z</time>
      </trkpt>
      <trkpt lat="45.90899" lon="3.01946">
        <ele>452</ele>
        <time>2021-07-27T07:06:42Z</time>
      </trkpt>
      <trkpt lat="45.90898" lon="3.01947">
        <ele>452</ele>
        <time>2021-07-27T07:06:43Z</time>
      </trkpt>
      <trkpt lat="45.90897" lon="3.01949">
        <ele>452</ele>
        <time>2021-07-27T07:06:44Z</time>
      </trkpt>
      <trkpt lat="45.90896" lon="3.0195">
        <ele>452</ele>
        <time>2021-07-27T07:06:45Z</time>
      </trkpt>
      <trkpt lat="45.90894" lon="3.01952">
        <ele>452</ele>
        <time>2021-07-27T07:06:46Z</time>
      </trkpt>
      <trkpt lat="45.90893" lon="3.01953">
        <ele>452</ele>
        <time>2021-07-27T07:06:47Z</time>
      </trkpt>
      <trkpt lat="45.90892" lon="3.01955">
        <ele>452</ele>
        <time>2021-07-27T07:06:47Z</time>
      </trkpt>
      <trkpt lat="45.90891" lon="3.01956">
        <ele>452</ele>
        <time>2021-07-27T07:06:48Z</time>
      </trkpt>
      <trkpt lat="45.90889" lon="3.01957">
        <ele>452</ele>
        <time>2021-07-27T07:06:49Z</time>
      </trkpt>
      <trkpt lat="45.90889" lon="3.01958">
        <ele>452</ele>
        <time>2021-07-27T07:06:50Z</time>
      </trkpt>
      <trkpt lat="45.90888" lon="3.01959">
        <ele>452</ele>
        <time>2021-07-27T07:06:51Z</time>
      </trkpt>
      <trkpt lat="45.90886" lon="3.01961">
        <ele>452</ele>
        <time>2021-07-27T07:06:52Z</time>
      </trkpt>
      <trkpt lat="45.90886" lon="3.01962">
        <ele>452</ele>
        <time>2021-07-27T07:06:53Z</time>
      </trkpt>
      <trkpt lat="45.90884" lon="3.01964">
        <ele>452</ele>
        <time>2021-07-27T07:06:54Z</time>
      </trkpt>
      <trkpt lat="45.90883" lon="3.01966">
        <ele>452</ele>
        <time>2021-07-27T07:06:55Z</time>
      </trkpt>
      <trkpt lat="45.90883" lon="3.01967">
        <ele>452</ele>
        <time>2021-07-27T07:06:56Z</time>
      </trkpt>
      <trkpt lat="45.90881" lon="3.01969">
        <ele>452</ele>
        <time>2021-07-27T07:06:57Z</time>
      </trkpt>
      <trkpt lat="45.90881" lon="3.01971">
        <ele>452</ele>
        <time>2021-07-27T07:06:58Z</time>
      </trkpt>
      <trkpt lat="45.9088" lon="3.01972">
        <ele>452</ele>
        <time>2021-07-27T07:06:59Z</time>
      </trkpt>
      <trkpt lat="45.90879" lon="3.01974">
        <ele>452</ele>
        <time>2021-07-27T07:07:00Z</time>
      </trkpt>
      <trkpt lat="45.90878" lon="3.01976">
        <ele>452</ele>
        <time>2021-07-27T07:07:01Z</time>
      </trkpt>
      <trkpt lat="45.90877" lon="3.01978">
        <ele>452</ele>
        <time>2021-07-27T07:07:02Z</time>
      </trkpt>
      <trkpt lat="45.90876" lon="3.0198">
        <ele>452</ele>
        <time>2021-07-27T07:07:03Z</time>
      </trkpt>
      <trkpt lat="45.90874" lon="3.01981">
        <ele>452</ele>
        <time>2021-07-27T07:07:04Z</time>
      </trkpt>
      <trkpt lat="45.90873" lon="3.01983">
        <ele>452</ele>
        <time>2021-07-27T07:07:05Z</time>
      </trkpt>
      <trkpt lat="45.90871" lon="3.01984">
        <ele>452</ele>
        <time>2021-07-27T07:07:06Z</time>
      </trkpt>
      <trkpt lat="45.90871" lon="3.01985">
        <ele>452</ele>
        <time>2021-07-27T07:07:07Z</time>
      </trkpt>
      <trkpt lat="45.90869" lon="3.01986">
        <ele>452</ele>
        <time>2021-07-27T07:07:08Z</time>
      </trkpt>
      <trkpt lat="45.90868" lon="3.01987">
        <ele>452</ele>
        <time>2021-07-27T07:07:09Z</time>
      </trkpt>
      <trkpt lat="45.90867" lon="3.01988">
        <ele>452</ele>
        <time>2021-07-27T07:07:10Z</time>
      </trkpt>
      <trkpt lat="45.90865" lon="3.01989">
        <ele>452</ele>
        <time>2021-07-27T07:07:11Z</time>
      </trkpt>
      <trkpt lat="45.90865" lon="3.0199">
        <ele>452</ele>
        <time>2021-07-27T07:07:12Z</time>
      </trkpt>
      <trkpt lat="45.90863" lon="3.01991">
        <ele>452</ele>
        <time>2021-07-27T07:07:13Z</time>
      </trkpt>
      <trkpt lat="45.90862" lon="3.01992">
        <ele>452</ele>
        <time>2021-07-27T07:07:14Z</time>
      </trkpt>
      <trkpt lat="45.90861" lon="3.01993">
        <ele>452</ele>
        <time>2021-07-27T07:07:15Z</time>
      </trkpt>
      <trkpt lat="45.9086" lon="3.01995">
        <ele>452</ele>
        <time>2021-07-27T07:07:16Z</time>
      </trkpt>
      <trkpt lat="45.90859" lon="3.01996">
        <ele>452</ele>
        <time>2021-07-27T07:07:17Z</time>
      </trkpt>
      <trkpt lat="45.90858" lon="3.01997">
        <ele>452</ele>
        <time>2021-07-27T07:07:18Z</time>
      </trkpt>
      <trkpt lat="45.90857" lon="3.01998">
        <ele>452</ele>
        <time>2021-07-27T07:07:19Z</time>
      </trkpt>
      <trkpt lat="45.90856" lon="3.01999">
        <ele>452</ele>
        <time>2021-07-27T07:07:20Z</time>
      </trkpt>
      <trkpt lat="45.90855" lon="3.02001">
        <ele>452</ele>
        <time>2021-07-27T07:07:21Z</time>
      </trkpt>
      <trkpt lat="45.90855" lon="3.02002">
        <ele>452</ele>
        <time>2021-07-27T07:07:22Z</time>
      </trkpt>
      <trkpt lat="45.90854" lon="3.02003">
        <ele>452</ele>
        <time>2021-07-27T07:07:23Z</time>
      </trkpt>
      <trkpt lat="45.90853" lon="3.02004">
        <ele>452</ele>
        <time>2021-07-27T07:07:24Z</time>
      </trkpt>
      <trkpt lat="45.90852" lon="3.02006">
        <ele>452</ele>
        <time>2021-07-27T07:07:25Z</time>
      </trkpt>
      <trkpt lat="45.90851" lon="3.02008">
        <ele>452</ele>
        <time>2021-07-27T07:07:26Z</time>
      </trkpt>
      <trkpt lat="45.9085" lon="3.0201">
        <ele>452</ele>
        <time>2021-07-27T07:07:27Z</time>
      </trkpt>
      <trkpt lat="45.9085" lon="3.02012">
        <ele>452</ele>
        <time>2021-07-27T07:07:28Z</time>
      </trkpt>
      <trkpt lat="45.90849" lon="3.02013">
        <ele>452</ele>
        <time>2021-07-27T07:07:29Z</time>
      </trkpt>
      <trkpt lat="45.90849" lon="3.02015">
        <ele>452</ele>
        <time>2021-07-27T07:07:30Z</time>
      </trkpt>
      <trkpt lat="45.90847" lon="3.02017">
        <ele>452</ele>
        <time>2021-07-27T07:07:31Z</time>
      </trkpt>
      <trkpt lat="45.90847" lon="3.02018">
        <ele>452</ele>
        <time>2021-07-27T07:07:32Z</time>
      </trkpt>
      <trkpt lat="45.90846" lon="3.0202">
        <ele>452</ele>
        <time>2021-07-27T07:07:33Z</time>
      </trkpt>
      <trkpt lat="45.90845" lon="3.02022">
        <ele>452</ele>
        <time>2021-07-27T07:07:34Z</time>
      </trkpt>
      <trkpt lat="45.90844" lon="3.02024">
        <ele>452</ele>
        <time>2021-07-27T07:07:35Z</time>
      </trkpt>
      <trkpt lat="45.90843" lon="3.02026">
        <ele>452</ele>
        <time>2021-07-27T07:07:36Z</time>
      </trkpt>
      <trkpt lat="45.90842" lon="3.02027">
        <ele>452</ele>
        <time>2021-07-27T07:07:37Z</time>
      </trkpt>
      <trkpt lat="45.90842" lon="3.02029">
        <ele>452</ele>
        <time>2021-07-27T07:07:38Z</time>
      </trkpt>
      <trkpt lat="45.90841" lon="3.02031">
        <ele>452</ele>
        <time>2021-07-27T07:07:39Z</time>
      </trkpt>
      <trkpt lat="45.90841" lon="3.02032">
        <ele>452</ele>
        <time>2021-07-27T07:07:40Z</time>
      </trkpt>
      <trkpt lat="45.90841" lon="3.02034">
        <ele>452</ele>
        <time>2021-07-27T07:07:41Z</time>
      </trkpt>
      <trkpt lat="45.90841" lon="3.02036">
        <ele>452</ele>
        <time>2021-07-27T07:07:42Z</time>
      </trkpt>
      <trkpt lat="45.9084" lon="3.02038">
        <ele>452</ele>
        <time>2021-07-27T07:07:43Z</time>
      </trkpt>
      <trkpt lat="45.9084" lon="3.0204">
        <ele>452</ele>
        <time>2021-07-27T07:07:45Z</time>
      </trkpt>
      <trkpt lat="45.9084" lon="3.02047">
        <ele>452</ele>
        <time>2021-07-27T07:07:46Z</time>
      </trkpt>
      <trkpt lat="45.90839" lon="3.02048">
        <ele>452</ele>
        <time>2021-07-27T07:07:47Z</time>
      </trkpt>
      <trkpt lat="45.90839" lon="3.02048">
        <ele>452</ele>
        <time>2021-07-27T07:07:48Z</time>
      </trkpt>
      <trkpt lat="45.90838" lon="3.02049">
        <ele>452</ele>
        <time>2021-07-27T07:07:49Z</time>
      </trkpt>
      <trkpt lat="45.90838" lon="3.0205">
        <ele>452</ele>
        <time>2021-07-27T07:07:50Z</time>
      </trkpt>
      <trkpt lat="45.90837" lon="3.02052">
        <ele>452</ele>
        <time>2021-07-27T07:07:51Z</time>
      </trkpt>
      <trkpt lat="45.90837" lon="3.02053">
        <ele>452</ele>
        <time>2021-07-27T07:07:52Z</time>
      </trkpt>
      <trkpt lat="45.90836" lon="3.02055">
        <ele>452</ele>
        <time>2021-07-27T07:07:53Z</time>
      </trkpt>
      <trkpt lat="45.90836" lon="3.02057">
        <ele>452</ele>
        <time>2021-07-27T07:07:54Z</time>
      </trkpt>
      <trkpt lat="45.90836" lon="3.02059">
        <ele>452</ele>
        <time>2021-07-27T07:07:55Z</time>
      </trkpt>
      <trkpt lat="45.90836" lon="3.02061">
        <ele>452</ele>
        <time>2021-07-27T07:07:56Z</time>
      </trkpt>
      <trkpt lat="45.90836" lon="3.02064">
        <ele>452</ele>
        <time>2021-07-27T07:07:57Z</time>
      </trkpt>
      <trkpt lat="45.90836" lon="3.02066">
        <ele>452</ele>
        <time>2021-07-27T07:07:58Z</time>
      </trkpt>
      <trkpt lat="45.90836" lon="3.02068">
        <ele>452</ele>
        <time>2021-07-27T07:07:59Z</time>
      </trkpt>
      <trkpt lat="45.90835" lon="3.0207">
        <ele>452</ele>
        <time>2021-07-27T07:08:00Z</time>
      </trkpt>
      <trkpt lat="45.90835" lon="3.02072">
        <ele>452</ele>
        <time>2021-07-27T07:08:01Z</time>
      </trkpt>
      <trkpt lat="45.90835" lon="3.02074">
        <ele>452</ele>
        <time>2021-07-27T07:08:02Z</time>
      </trkpt>
      <trkpt lat="45.90834" lon="3.02076">
        <ele>452</ele>
        <time>2021-07-27T07:08:03Z</time>
      </trkpt>
      <trkpt lat="45.90834" lon="3.02078">
        <ele>452</ele>
        <time>2021-07-27T07:08:04Z</time>
      </trkpt>
      <trkpt lat="45.90834" lon="3.02081">
        <ele>452</ele>
        <time>2021-07-27T07:08:05Z</time>
      </trkpt>
      <trkpt lat="45.90834" lon="3.02084">
        <ele>452</ele>
        <time>2021-07-27T07:08:06Z</time>
      </trkpt>
      <trkpt lat="45.90833" lon="3.02087">
        <ele>452</ele>
        <time>2021-07-27T07:08:07Z</time>
      </trkpt>
      <trkpt lat="45.90833" lon="3.02089">
        <ele>452</ele>
        <time>2021-07-27T07:08:08Z</time>
      </trkpt>
      <trkpt lat="45.90833" lon="3.02092">
        <ele>452</ele>
        <time>2021-07-27T07:08:09Z</time>
      </trkpt>
      <trkpt lat="45.90833" lon="3.02095">
        <ele>452</ele>
        <time>2021-07-27T07:08:10Z</time>
      </trkpt>
      <trkpt lat="45.90833" lon="3.02097">
        <ele>452</ele>
        <time>2021-07-27T07:08:11Z</time>
      </trkpt>
      <trkpt lat="45.90833" lon="3.021">
        <ele>452</ele>
        <time>2021-07-27T07:08:12Z</time>
      </trkpt>
      <trkpt lat="45.90832" lon="3.02102">
        <ele>452</ele>
        <time>2021-07-27T07:08:13Z</time>
      </trkpt>
      <trkpt lat="45.90832" lon="3.02105">
        <ele>452</ele>
        <time>2021-07-27T07:08:14Z</time>
      </trkpt>
      <trkpt lat="45.90832" lon="3.02107">
        <ele>452</ele>
        <time>2021-07-27T07:08:15Z</time>
      </trkpt>
      <trkpt lat="45.90832" lon="3.02109">
        <ele>452</ele>
        <time>2021-07-27T07:08:16Z</time>
      </trkpt>
      <trkpt lat="45.90832" lon="3.02112">
        <ele>452</ele>
        <time>2021-07-27T07:08:17Z</time>
      </trkpt>
      <trkpt lat="45.90832" lon="3.02114">
        <ele>452</ele>
        <time>2021-07-27T07:08:18Z</time>
      </trkpt>
      <trkpt lat="45.90831" lon="3.02116">
        <ele>452</ele>
        <time>2021-07-27T07:08:19Z</time>
      </trkpt>
      <trkpt lat="45.90831" lon="3.02117">
        <ele>452</ele>
        <time>2021-07-27T07:08:20Z</time>
      </trkpt>
      <trkpt lat="45.90831" lon="3.02119">
        <ele>452</ele>
        <time>2021-07-27T07:08:21Z</time>
      </trkpt>
      <trkpt lat="45.9083" lon="3.02121">
        <ele>452</ele>
        <time>2021-07-27T07:08:22Z</time>
      </trkpt>
      <trkpt lat="45.9083" lon="3.02122">
        <ele>452</ele>
        <time>2021-07-27T07:08:23Z</time>
      </trkpt>
      <trkpt lat="45.90829" lon="3.02124">
        <ele>452</ele>
        <time>2021-07-27T07:08:24Z</time>
      </trkpt>
      <trkpt lat="45.90829" lon="3.02126">
        <ele>452</ele>
        <time>2021-07-27T07:08:25Z</time>
      </trkpt>
      <trkpt lat="45.90829" lon="3.02128">
        <ele>452</ele>
        <time>2021-07-27T07:08:26Z</time>
      </trkpt>
      <trkpt lat="45.90829" lon="3.0213">
        <ele>452</ele>
        <time>2021-07-27T07:08:27Z</time>
      </trkpt>
      <trkpt lat="45.90828" lon="3.02133">
        <ele>452</ele>
        <time>2021-07-27T07:08:28Z</time>
      </trkpt>
      <trkpt lat="45.90828" lon="3.02135">
        <ele>452</ele>
        <time>2021-07-27T07:08:29Z</time>
      </trkpt>
      <trkpt lat="45.90828" lon="3.02137">
        <ele>452</ele>
        <time>2021-07-27T07:08:30Z</time>
      </trkpt>
      <trkpt lat="45.90827" lon="3.02139">
        <ele>452</ele>
        <time>2021-07-27T07:08:31Z</time>
      </trkpt>
      <trkpt lat="45.90826" lon="3.02141">
        <ele>452</ele>
        <time>2021-07-27T07:08:32Z</time>
      </trkpt>
      <trkpt lat="45.90826" lon="3.02143">
        <ele>452</ele>
        <time>2021-07-27T07:08:33Z</time>
      </trkpt>
      <trkpt lat="45.90825" lon="3.02145">
        <ele>452</ele>
        <time>2021-07-27T07:08:34Z</time>
      </trkpt>
      <trkpt lat="45.90824" lon="3.02146">
        <ele>452</ele>
        <time>2021-07-27T07:08:35Z</time>
      </trkpt>
      <trkpt lat="45.90823" lon="3.02148">
        <ele>452</ele>
        <time>2021-07-27T07:08:36Z</time>
      </trkpt>
      <trkpt lat="45.90822" lon="3.02151">
        <ele>452</ele>
        <time>2021-07-27T07:08:37Z</time>
      </trkpt>
      <trkpt lat="45.90822" lon="3.02152">
        <ele>452</ele>
        <time>2021-07-27T07:08:38Z</time>
      </trkpt>
      <trkpt lat="45.90822" lon="3.02154">
        <ele>452</ele>
        <time>2021-07-27T07:08:39Z</time>
      </trkpt>
      <trkpt lat="45.9082" lon="3.02156">
        <ele>452</ele>
        <time>2021-07-27T07:08:40Z</time>
      </trkpt>
      <trkpt lat="45.9082" lon="3.02158">
        <ele>452</ele>
        <time>2021-07-27T07:08:41Z</time>
      </trkpt>
      <trkpt lat="45.90819" lon="3.0216">
        <ele>452</ele>
        <time>2021-07-27T07:08:42Z</time>
      </trkpt>
      <trkpt lat="45.90819" lon="3.02161">
        <ele>452</ele>
        <time>2021-07-27T07:08:43Z</time>
      </trkpt>
      <trkpt lat="45.90818" lon="3.02163">
        <ele>452</ele>
        <time>2021-07-27T07:08:45Z</time>
      </trkpt>
      <trkpt lat="45.90817" lon="3.02171">
        <ele>452</ele>
        <time>2021-07-27T07:08:46Z</time>
      </trkpt>
      <trkpt lat="45.90817" lon="3.02171">
        <ele>452</ele>
        <time>2021-07-27T07:08:47Z</time>
      </trkpt>
      <trkpt lat="45.90817" lon="3.02172">
        <ele>452</ele>
        <time>2021-07-27T07:08:48Z</time>
      </trkpt>
      <trkpt lat="45.90816" lon="3.02174">
        <ele>452</ele>
        <time>2021-07-27T07:08:49Z</time>
      </trkpt>
      <trkpt lat="45.90816" lon="3.02175">
        <ele>452</ele>
        <time>2021-07-27T07:08:50Z</time>
      </trkpt>
      <trkpt lat="45.90816" lon="3.02177">
        <ele>452</ele>
        <time>2021-07-27T07:08:51Z</time>
      </trkpt>
      <trkpt lat="45.90816" lon="3.02179">
        <ele>452</ele>
        <time>2021-07-27T07:08:52Z</time>
      </trkpt>
      <trkpt lat="45.90816" lon="3.02181">
        <ele>452</ele>
        <time>2021-07-27T07:08:53Z</time>
      </trkpt>
      <trkpt lat="45.90815" lon="3.02182">
        <ele>452</ele>
        <time>2021-07-27T07:08:54Z</time>
      </trkpt>
      <trkpt lat="45.90815" lon="3.02184">
        <ele>452</ele>
        <time>2021-07-27T07:08:55Z</time>
      </trkpt>
      <trkpt lat="45.90815" lon="3.02186">
        <ele>452</ele>
        <time>2021-07-27T07:08:56Z</time>
      </trkpt>
      <trkpt lat="45.90814" lon="3.02188">
        <ele>452</ele>
        <time>2021-07-27T07:08:57Z</time>
      </trkpt>
      <trkpt lat="45.90814" lon="3.0219">
        <ele>452</ele>
        <time>2021-07-27T07:08:58Z</time>
      </trkpt>
      <trkpt lat="45.90814" lon="3.02192">
        <ele>452</ele>
        <time>2021-07-27T07:08:59Z</time>
      </trkpt>
      <trkpt lat="45.90813" lon="3.02193">
        <ele>452</ele>
        <time>2021-07-27T07:09:00Z</time>
      </trkpt>
      <trkpt lat="45.90813" lon="3.02196">
        <ele>452</ele>
        <time>2021-07-27T07:09:01Z</time>
      </trkpt>
      <trkpt lat="45.90813" lon="3.02197">
        <ele>452</ele>
        <time>2021-07-27T07:09:02Z</time>
      </trkpt>
      <trkpt lat="45.90813" lon="3.02199">
        <ele>452</ele>
        <time>2021-07-27T07:09:03Z</time>
      </trkpt>
      <trkpt lat="45.90812" lon="3.02201">
        <ele>452</ele>
        <time>2021-07-27T07:09:04Z</time>
      </trkpt>
      <trkpt lat="45.90812" lon="3.02203">
        <ele>452</ele>
        <time>2021-07-27T07:09:05Z</time>
      </trkpt>
      <trkpt lat="45.90812" lon="3.02205">
        <ele>452</ele>
        <time>2021-07-27T07:09:06Z</time>
      </trkpt>
      <trkpt lat="45.90812" lon="3.02207">
        <ele>452</ele>
        <time>2021-07-27T07:09:07Z</time>
      </trkpt>
      <trkpt lat="45.90811" lon="3.02209">
        <ele>452</ele>
        <time>2021-07-27T07:09:08Z</time>
      </trkpt>
      <trkpt lat="45.90811" lon="3.02212">
        <ele>452</ele>
        <time>2021-07-27T07:09:09Z</time>
      </trkpt>
      <trkpt lat="45.90811" lon="3.02214">
        <ele>452</ele>
        <time>2021-07-27T07:09:10Z</time>
      </trkpt>
      <trkpt lat="45.90811" lon="3.02215">
        <ele>452</ele>
        <time>2021-07-27T07:09:11Z</time>
      </trkpt>
      <trkpt lat="45.9081" lon="3.02217">
        <ele>452</ele>
        <time>2021-07-27T07:09:12Z</time>
      </trkpt>
      <trkpt lat="45.9081" lon="3.02219">
        <ele>452</ele>
        <time>2021-07-27T07:09:13Z</time>
      </trkpt>
      <trkpt lat="45.90809" lon="3.02222">
        <ele>452</ele>
        <time>2021-07-27T07:09:14Z</time>
      </trkpt>
      <trkpt lat="45.90809" lon="3.02224">
        <ele>452</ele>
        <time>2021-07-27T07:09:15Z</time>
      </trkpt>
      <trkpt lat="45.90809" lon="3.02226">
        <ele>452</ele>
        <time>2021-07-27T07:09:16Z</time>
      </trkpt>
      <trkpt lat="45.90808" lon="3.02228">
        <ele>452</ele>
        <time>2021-07-27T07:09:17Z</time>
      </trkpt>
      <trkpt lat="45.90808" lon="3.0223">
        <ele>452</ele>
        <time>2021-07-27T07:09:18Z</time>
      </trkpt>
      <trkpt lat="45.90808" lon="3.02232">
        <ele>452</ele>
        <time>2021-07-27T07:09:19Z</time>
      </trkpt>
      <trkpt lat="45.90807" lon="3.02234">
        <ele>452</ele>
        <time>2021-07-27T07:09:20Z</time>
      </trkpt>
      <trkpt lat="45.90807" lon="3.02236">
        <ele>452</ele>
        <time>2021-07-27T07:09:21Z</time>
      </trkpt>
      <trkpt lat="45.90807" lon="3.02238">
        <ele>452</ele>
        <time>2021-07-27T07:09:22Z</time>
      </trkpt>
      <trkpt lat="45.90806" lon="3.0224">
        <ele>452</ele>
        <time>2021-07-27T07:09:23Z</time>
      </trkpt>
      <trkpt lat="45.90805" lon="3.02242">
        <ele>452</ele>
        <time>2021-07-27T07:09:24Z</time>
      </trkpt>
      <trkpt lat="45.90805" lon="3.02244">
        <ele>452</ele>
        <time>2021-07-27T07:09:25Z</time>
      </trkpt>
      <trkpt lat="45.90805" lon="3.02245">
        <ele>452</ele>
        <time>2021-07-27T07:09:26Z</time>
      </trkpt>
      <trkpt lat="45.90805" lon="3.02247">
        <ele>452</ele>
        <time>2021-07-27T07:09:27Z</time>
      </trkpt>
      <trkpt lat="45.90804" lon="3.02249">
        <ele>452</ele>
        <time>2021-07-27T07:09:28Z</time>
      </trkpt>
      <trkpt lat="45.90804" lon="3.02251">
        <ele>452</ele>
        <time>2021-07-27T07:09:29Z</time>
      </trkpt>
      <trkpt lat="45.90804" lon="3.02253">
        <ele>452</ele>
        <time>2021-07-27T07:09:30Z</time>
      </trkpt>
      <trkpt lat="45.90804" lon="3.02255">
        <ele>452</ele>
        <time>2021-07-27T07:09:31Z</time>
      </trkpt>
      <trkpt lat="45.90803" lon="3.02257">
        <ele>452</ele>
        <time>2021-07-27T07:09:32Z</time>
      </trkpt>
      <trkpt lat="45.90802" lon="3.02259">
        <ele>452</ele>
        <time>2021-07-27T07:09:33Z</time>
      </trkpt>
      <trkpt lat="45.90802" lon="3.02261">
        <ele>452</ele>
        <time>2021-07-27T07:09:34Z</time>
      </trkpt>
      <trkpt lat="45.90801" lon="3.02263">
        <ele>452</ele>
        <time>2021-07-27T07:09:35Z</time>
      </trkpt>
      <trkpt lat="45.90801" lon="3.02265">
        <ele>452</ele>
        <time>2021-07-27T07:09:36Z</time>
      </trkpt>
      <trkpt lat="45.90801" lon="3.02267">
        <ele>452</ele>
        <time>2021-07-27T07:09:37Z</time>
      </trkpt>
      <trkpt lat="45.908" lon="3.02269">
        <ele>452</ele>
        <time>2021-07-27T07:09:38Z</time>
      </trkpt>
      <trkpt lat="45.90799" lon="3.02271">
        <ele>452</ele>
        <time>2021-07-27T07:09:39Z</time>
      </trkpt>
      <trkpt lat="45.90799" lon="3.02274">
        <ele>452</ele>
        <time>2021-07-27T07:09:40Z</time>
      </trkpt>
      <trkpt lat="45.90799" lon="3.02276">
        <ele>452</ele>
        <time>2021-07-27T07:09:41Z</time>
      </trkpt>
      <trkpt lat="45.90798" lon="3.02278">
        <ele>452</ele>
        <time>2021-07-27T07:09:42Z</time>
      </trkpt>
      <trkpt lat="45.90798" lon="3.0228">
        <ele>452</ele>
        <time>2021-07-27T07:09:44Z</time>
      </trkpt>
      <trkpt lat="45.90796" lon="3.02288">
        <ele>452</ele>
        <time>2021-07-27T07:09:46Z</time>
      </trkpt>
      <trkpt lat="45.90796" lon="3.02292">
        <ele>452</ele>
        <time>2021-07-27T07:09:47Z</time>
      </trkpt>
      <trkpt lat="45.90796" lon="3.02292">
        <ele>452</ele>
        <time>2021-07-27T07:09:48Z</time>
      </trkpt>
      <trkpt lat="45.90795" lon="3.02293">
        <ele>452</ele>
        <time>2021-07-27T07:09:49Z</time>
      </trkpt>
      <trkpt lat="45.90795" lon="3.02295">
        <ele>452</ele>
        <time>2021-07-27T07:09:50Z</time>
      </trkpt>
      <trkpt lat="45.90795" lon="3.02296">
        <ele>452</ele>
        <time>2021-07-27T07:09:51Z</time>
      </trkpt>
      <trkpt lat="45.90794" lon="3.02298">
        <ele>452</ele>
        <time>2021-07-27T07:09:52Z</time>
      </trkpt>
      <trkpt lat="45.90794" lon="3.023">
        <ele>452</ele>
        <time>2021-07-27T07:09:53Z</time>
      </trkpt>
      <trkpt lat="45.90794" lon="3.02302">
        <ele>452</ele>
        <time>2021-07-27T07:09:54Z</time>
      </trkpt>
      <trkpt lat="45.90794" lon="3.02304">
        <ele>452</ele>
        <time>2021-07-27T07:09:55Z</time>
      </trkpt>
      <trkpt lat="45.90793" lon="3.02306">
        <ele>452</ele>
        <time>2021-07-27T07:09:56Z</time>
      </trkpt>
      <trkpt lat="45.90793" lon="3.02308">
        <ele>452</ele>
        <time>2021-07-27T07:09:57Z</time>
      </trkpt>
      <trkpt lat="45.90793" lon="3.0231">
        <ele>452</ele>
        <time>2021-07-27T07:09:58Z</time>
      </trkpt>
      <trkpt lat="45.90793" lon="3.02312">
        <ele>452</ele>
        <time>2021-07-27T07:09:59Z</time>
      </trkpt>
      <trkpt lat="45.90792" lon="3.02314">
        <ele>452</ele>
        <time>2021-07-27T07:10:00Z</time>
      </trkpt>
      <trkpt lat="45.90792" lon="3.02316">
        <ele>452</ele>
        <time>2021-07-27T07:10:01Z</time>
      </trkpt>
      <trkpt lat="45.90791" lon="3.02318">
        <ele>452</ele>
        <time>2021-07-27T07:10:02Z</time>
      </trkpt>
      <trkpt lat="45.90791" lon="3.0232">
        <ele>452</ele>
        <time>2021-07-27T07:10:03Z</time>
      </trkpt>
      <trkpt lat="45.9079" lon="3.02323">
        <ele>452</ele>
        <time>2021-07-27T07:10:04Z</time>
      </trkpt>
      <trkpt lat="45.9079" lon="3.02325">
        <ele>452</ele>
        <time>2021-07-27T07:10:05Z</time>
      </trkpt>
      <trkpt lat="45.90789" lon="3.02327">
        <ele>452</ele>
        <time>2021-07-27T07:10:06Z</time>
      </trkpt>
      <trkpt lat="45.90789" lon="3.02329">
        <ele>452</ele>
        <time>2021-07-27T07:10:07Z</time>
      </trkpt>
      <trkpt lat="45.90789" lon="3.02331">
        <ele>452</ele>
        <time>2021-07-27T07:10:08Z</time>
      </trkpt>
      <trkpt lat="45.90788" lon="3.02333">
        <ele>452</ele>
        <time>2021-07-27T07:10:09Z</time>
      </trkpt>
      <trkpt lat="45.90788" lon="3.02334">
        <ele>452</ele>
        <time>2021-07-27T07:10:10Z</time>
      </trkpt>
      <trkpt lat="45.90787" lon="3.02336">
        <ele>452</ele>
        <time>2021-07-27T07:10:11Z</time>
      </trkpt>
      <trkpt lat="45.90787" lon="3.02338">
        <ele>452</ele>
        <time>2021-07-27T07:10:12Z</time>
      </trkpt>
      <trkpt lat="45.90787" lon="3.02339">
        <ele>452</ele>
        <time>2021-07-27T07:10:13Z</time>
      </trkpt>
      <trkpt lat="45.90786" lon="3.02341">
        <ele>452</ele>
        <time>2021-07-27T07:10:14Z</time>
      </trkpt>
      <trkpt lat="45.90787" lon="3.02343">
        <ele>452</ele>
        <time>2021-07-27T07:10:15Z</time>
      </trkpt>
      <trkpt lat="45.90787" lon="3.02345">
        <ele>452</ele>
        <time>2021-07-27T07:10:16Z</time>
      </trkpt>
      <trkpt lat="45.90787" lon="3.02347">
        <ele>452</ele>
        <time>2021-07-27T07:10:17Z</time>
      </trkpt>
      <trkpt lat="45.90787" lon="3.02349">
        <ele>452</ele>
        <time>2021-07-27T07:10:18Z</time>
      </trkpt>
      <trkpt lat="45.90787" lon="3.02351">
        <ele>452</ele>
        <time>2021-07-27T07:10:19Z</time>
      </trkpt>
      <trkpt lat="45.90786" lon="3.02353">
        <ele>452</ele>
        <time>2021-07-27T07:10:20Z</time>
      </trkpt>
      <trkpt lat="45.90786" lon="3.02355">
        <ele>452</ele>
        <time>2021-07-27T07:10:21Z</time>
      </trkpt>
      <trkpt lat="45.90786" lon="3.02357">
        <ele>452</ele>
        <time>2021-07-27T07:10:22Z</time>
      </trkpt>
      <trkpt lat="45.90786" lon="3.02359">
        <ele>452</ele>
        <time>2021-07-27T07:10:23Z</time>
      </trkpt>
      <trkpt lat="45.90786" lon="3.02361">
        <ele>452</ele>
        <time>2021-07-27T07:10:24Z</time>
      </trkpt>
      <trkpt lat="45.90785" lon="3.02363">
        <ele>452</ele>
        <time>2021-07-27T07:10:25Z</time>
      </trkpt>
      <trkpt lat="45.90785" lon="3.02365">
        <ele>452</ele>
        <time>2021-07-27T07:10:26Z</time>
      </trkpt>
      <trkpt lat="45.90785" lon="3.02367">
        <ele>452</ele>
        <time>2021-07-27T07:10:27Z</time>
      </trkpt>
      <trkpt lat="45.90785" lon="3.02369">
        <ele>452</ele>
        <time>2021-07-27T07:10:28Z</time>
      </trkpt>
      <trkpt lat="45.90784" lon="3.0237">
        <ele>452</ele>
        <time>2021-07-27T07:10:29Z</time>
      </trkpt>
      <trkpt lat="45.90783" lon="3.02373">
        <ele>452</ele>
        <time>2021-07-27T07:10:30Z</time>
      </trkpt>
      <trkpt lat="45.90783" lon="3.02375">
        <ele>452</ele>
        <time>2021-07-27T07:10:31Z</time>
      </trkpt>
      <trkpt lat="45.90783" lon="3.02377">
        <ele>452</ele>
        <time>2021-07-27T07:10:32Z</time>
      </trkpt>
      <trkpt lat="45.90783" lon="3.02379">
        <ele>452</ele>
        <time>2021-07-27T07:10:33Z</time>
      </trkpt>
      <trkpt lat="45.90783" lon="3.02381">
        <ele>452</ele>
        <time>2021-07-27T07:10:34Z</time>
      </trkpt>
      <trkpt lat="45.90782" lon="3.02383">
        <ele>452</ele>
        <time>2021-07-27T07:10:35Z</time>
      </trkpt>
      <trkpt lat="45.90781" lon="3.02385">
        <ele>452</ele>
        <time>2021-07-27T07:10:36Z</time>
      </trkpt>
      <trkpt lat="45.90781" lon="3.02387">
        <ele>452</ele>
        <time>2021-07-27T07:10:37Z</time>
      </trkpt>
      <trkpt lat="45.90781" lon="3.02389">
        <ele>452</ele>
        <time>2021-07-27T07:10:38Z</time>
      </trkpt>
      <trkpt lat="45.90781" lon="3.02391">
        <ele>452</ele>
        <time>2021-07-27T07:10:39Z</time>
      </trkpt>
      <trkpt lat="45.9078" lon="3.02393">
        <ele>452</ele>
        <time>2021-07-27T07:10:40Z</time>
      </trkpt>
      <trkpt lat="45.9078" lon="3.02394">
        <ele>452</ele>
        <time>2021-07-27T07:10:41Z</time>
      </trkpt>
      <trkpt lat="45.9078" lon="3.02396">
        <ele>452</ele>
        <time>2021-07-27T07:10:42Z</time>
      </trkpt>
      <trkpt lat="45.9078" lon="3.02398">
        <ele>452</ele>
        <time>2021-07-27T07:10:43Z</time>
      </trkpt>
      <trkpt lat="45.9078" lon="3.024">
        <ele>452</ele>
        <time>2021-07-27T07:10:45Z</time>
      </trkpt>
      <trkpt lat="45.90777" lon="3.02407">
        <ele>452</ele>
        <time>2021-07-27T07:10:46Z</time>
      </trkpt>
      <trkpt lat="45.90777" lon="3.02408">
        <ele>452</ele>
        <time>2021-07-27T07:10:47Z</time>
      </trkpt>
      <trkpt lat="45.90777" lon="3.02408">
        <ele>452</ele>
        <time>2021-07-27T07:10:48Z</time>
      </trkpt>
      <trkpt lat="45.90776" lon="3.0241">
        <ele>452</ele>
        <time>2021-07-27T07:10:49Z</time>
      </trkpt>
      <trkpt lat="45.90776" lon="3.02411">
        <ele>452</ele>
        <time>2021-07-27T07:10:50Z</time>
      </trkpt>
      <trkpt lat="45.90775" lon="3.02413">
        <ele>452</ele>
        <time>2021-07-27T07:10:51Z</time>
      </trkpt>
      <trkpt lat="45.90775" lon="3.02414">
        <ele>452</ele>
        <time>2021-07-27T07:10:52Z</time>
      </trkpt>
      <trkpt lat="45.90775" lon="3.02416">
        <ele>452</ele>
        <time>2021-07-27T07:10:53Z</time>
      </trkpt>
      <trkpt lat="45.90775" lon="3.02417">
        <ele>452</ele>
        <time>2021-07-27T07:10:54Z</time>
      </trkpt>
      <trkpt lat="45.90774" lon="3.02418">
        <ele>452</ele>
        <time>2021-07-27T07:10:55Z</time>
      </trkpt>
      <trkpt lat="45.90774" lon="3.0242">
        <ele>452</ele>
        <time>2021-07-27T07:10:56Z</time>
      </trkpt>
      <trkpt lat="45.90774" lon="3.02421">
        <ele>452</ele>
        <time>2021-07-27T07:10:57Z</time>
      </trkpt>
      <trkpt lat="45.90773" lon="3.02423">
        <ele>452</ele>
        <time>2021-07-27T07:10:58Z</time>
      </trkpt>
      <trkpt lat="45.90773" lon="3.02424">
        <ele>452</ele>
        <time>2021-07-27T07:10:59Z</time>
      </trkpt>
      <trkpt lat="45.90772" lon="3.02426">
        <ele>452</ele>
        <time>2021-07-27T07:11:00Z</time>
      </trkpt>
      <trkpt lat="45.90772" lon="3.02428">
        <ele>452</ele>
        <time>2021-07-27T07:11:01Z</time>
      </trkpt>
      <trkpt lat="45.90772" lon="3.02429">
        <ele>452</ele>
        <time>2021-07-27T07:11:02Z</time>
      </trkpt>
      <trkpt lat="45.90772" lon="3.02431">
        <ele>452</ele>
        <time>2021-07-27T07:11:02Z</time>
      </trkpt>
      <trkpt lat="45.90772" lon="3.02432">
        <ele>452</ele>
        <time>2021-07-27T07:11:03Z</time>
      </trkpt>
      <trkpt lat="45.90771" lon="3.02434">
        <ele>452</ele>
        <time>2021-07-27T07:11:04Z</time>
      </trkpt>
      <trkpt lat="45.90771" lon="3.02436">
        <ele>452</ele>
        <time>2021-07-27T07:11:05Z</time>
      </trkpt>
      <trkpt lat="45.90771" lon="3.02437">
        <ele>452</ele>
        <time>2021-07-27T07:11:06Z</time>
      </trkpt>
      <trkpt lat="45.9077" lon="3.02439">
        <ele>452</ele>
        <time>2021-07-27T07:11:07Z</time>
      </trkpt>
      <trkpt lat="45.9077" lon="3.0244">
        <ele>452</ele>
        <time>2021-07-27T07:11:08Z</time>
      </trkpt>
      <trkpt lat="45.9077" lon="3.02441">
        <ele>452</ele>
        <time>2021-07-27T07:11:09Z</time>
      </trkpt>
      <trkpt lat="45.9077" lon="3.02442">
        <ele>452</ele>
        <time>2021-07-27T07:11:10Z</time>
      </trkpt>
      <trkpt lat="45.9077" lon="3.02443">
        <ele>452</ele>
        <time>2021-07-27T07:11:11Z</time>
      </trkpt>
      <trkpt lat="45.90769" lon="3.02444">
        <ele>452</ele>
        <time>2021-07-27T07:11:12Z</time>
      </trkpt>
      <trkpt lat="45.90769" lon="3.02445">
        <ele>452</ele>
        <time>2021-07-27T07:11:13Z</time>
      </trkpt>
      <trkpt lat="45.90769" lon="3.02446">
        <ele>452</ele>
        <time>2021-07-27T07:11:14Z</time>
      </trkpt>
      <trkpt lat="45.90768" lon="3.02447">
        <ele>452</ele>
        <time>2021-07-27T07:11:15Z</time>
      </trkpt>
      <trkpt lat="45.90767" lon="3.02449">
        <ele>452</ele>
        <time>2021-07-27T07:11:16Z</time>
      </trkpt>
      <trkpt lat="45.90766" lon="3.0245">
        <ele>452</ele>
        <time>2021-07-27T07:11:17Z</time>
      </trkpt>
      <trkpt lat="45.90765" lon="3.02451">
        <ele>452</ele>
        <time>2021-07-27T07:11:18Z</time>
      </trkpt>
      <trkpt lat="45.90765" lon="3.02453">
        <ele>452</ele>
        <time>2021-07-27T07:11:19Z</time>
      </trkpt>
      <trkpt lat="45.90764" lon="3.02454">
        <ele>452</ele>
        <time>2021-07-27T07:11:20Z</time>
      </trkpt>
      <trkpt lat="45.90762" lon="3.02455">
        <ele>452</ele>
        <time>2021-07-27T07:11:21Z</time>
      </trkpt>
      <trkpt lat="45.90762" lon="3.02456">
        <ele>452</ele>
        <time>2021-07-27T07:11:22Z</time>
      </trkpt>
      <trkpt lat="45.9076" lon="3.02457">
        <ele>452</ele>
        <time>2021-07-27T07:11:23Z</time>
      </trkpt>
      <trkpt lat="45.90759" lon="3.02458">
        <ele>452</ele>
        <time>2021-07-27T07:11:24Z</time>
      </trkpt>
      <trkpt lat="45.90759" lon="3.02458">
        <ele>452</ele>
        <time>2021-07-27T07:11:25Z</time>
      </trkpt>
      <trkpt lat="45.90757" lon="3.02458">
        <ele>452</ele>
        <time>2021-07-27T07:11:26Z</time>
      </trkpt>
      <trkpt lat="45.90756" lon="3.02459">
        <ele>452</ele>
        <time>2021-07-27T07:11:27Z</time>
      </trkpt>
      <trkpt lat="45.90756" lon="3.02458">
        <ele>452</ele>
        <time>2021-07-27T07:11:28Z</time>
      </trkpt>
      <trkpt lat="45.90754" lon="3.02458">
        <ele>452</ele>
        <time>2021-07-27T07:11:29Z</time>
      </trkpt>
      <trkpt lat="45.90753" lon="3.02458">
        <ele>452</ele>
        <time>2021-07-27T07:11:30Z</time>
      </trkpt>
      <trkpt lat="45.90752" lon="3.02457">
        <ele>452</ele>
        <time>2021-07-27T07:11:31Z</time>
      </trkpt>
      <trkpt lat="45.90751" lon="3.02456">
        <ele>452</ele>
        <time>2021-07-27T07:11:32Z</time>
      </trkpt>
      <trkpt lat="45.9075" lon="3.02455">
        <ele>452</ele>
        <time>2021-07-27T07:11:33Z</time>
      </trkpt>
      <trkpt lat="45.90749" lon="3.02454">
        <ele>452</ele>
        <time>2021-07-27T07:11:34Z</time>
      </trkpt>
      <trkpt lat="45.90748" lon="3.02453">
        <ele>452</ele>
        <time>2021-07-27T07:11:35Z</time>
      </trkpt>
      <trkpt lat="45.90747" lon="3.02451">
        <ele>452</ele>
        <time>2021-07-27T07:11:36Z</time>
      </trkpt>
      <trkpt lat="45.90746" lon="3.0245">
        <ele>452</ele>
        <time>2021-07-27T07:11:37Z</time>
      </trkpt>
      <trkpt lat="45.90744" lon="3.0245">
        <ele>452</ele>
        <time>2021-07-27T07:11:38Z</time>
      </trkpt>
      <trkpt lat="45.90743" lon="3.02449">
        <ele>452</ele>
        <time>2021-07-27T07:11:39Z</time>
      </trkpt>
      <trkpt lat="45.90742" lon="3.02449">
        <ele>452</ele>
        <time>2021-07-27T07:11:40Z</time>
      </trkpt>
      <trkpt lat="45.90741" lon="3.02449">
        <ele>452</ele>
        <time>2021-07-27T07:11:41Z</time>
      </trkpt>
      <trkpt lat="45.90739" lon="3.0245">
        <ele>452</ele>
        <time>2021-07-27T07:11:43Z</time>
      </trkpt>
      <trkpt lat="45.90735" lon="3.02451">
        <ele>452</ele>
        <time>2021-07-27T07:11:45Z</time>
      </trkpt>
      <trkpt lat="45.90733" lon="3.02452">
        <ele>452</ele>
        <time>2021-07-27T07:11:46Z</time>
      </trkpt>
      <trkpt lat="45.90733" lon="3.02452">
        <ele>452</ele>
        <time>2021-07-27T07:11:47Z</time>
      </trkpt>
      <trkpt lat="45.90732" lon="3.02453">
        <ele>452</ele>
        <time>2021-07-27T07:11:48Z</time>
      </trkpt>
      <trkpt lat="45.90732" lon="3.02454">
        <ele>452</ele>
        <time>2021-07-27T07:11:49Z</time>
      </trkpt>
      <trkpt lat="45.90731" lon="3.02455">
        <ele>452</ele>
        <time>2021-07-27T07:11:50Z</time>
      </trkpt>
      <trkpt lat="45.90731" lon="3.02457">
        <ele>452</ele>
        <time>2021-07-27T07:11:51Z</time>
      </trkpt>
      <trkpt lat="45.9073" lon="3.02459">
        <ele>452</ele>
        <time>2021-07-27T07:11:52Z</time>
      </trkpt>
      <trkpt lat="45.9073" lon="3.02461">
        <ele>452</ele>
        <time>2021-07-27T07:11:53Z</time>
      </trkpt>
      <trkpt lat="45.9073" lon="3.02463">
        <ele>452</ele>
        <time>2021-07-27T07:11:54Z</time>
      </trkpt>
      <trkpt lat="45.90729" lon="3.02465">
        <ele>452</ele>
        <time>2021-07-27T07:11:55Z</time>
      </trkpt>
      <trkpt lat="45.90729" lon="3.02467">
        <ele>452</ele>
        <time>2021-07-27T07:11:56Z</time>
      </trkpt>
      <trkpt lat="45.90729" lon="3.02468">
        <ele>452</ele>
        <time>2021-07-27T07:11:57Z</time>
      </trkpt>
      <trkpt lat="45.90728" lon="3.0247">
        <ele>452</ele>
        <time>2021-07-27T07:11:58Z</time>
      </trkpt>
      <trkpt lat="45.90728" lon="3.02472">
        <ele>452</ele>
        <time>2021-07-27T07:11:59Z</time>
      </trkpt>
      <trkpt lat="45.90728" lon="3.02474">
        <ele>452</ele>
        <time>2021-07-27T07:12:00Z</time>
      </trkpt>
      <trkpt lat="45.90728" lon="3.02476">
        <ele>452</ele>
        <time>2021-07-27T07:12:01Z</time>
      </trkpt>
      <trkpt lat="45.90728" lon="3.02478">
        <ele>452</ele>
        <time>2021-07-27T07:12:02Z</time>
      </trkpt>
      <trkpt lat="45.90728" lon="3.0248">
        <ele>452</ele>
        <time>2021-07-27T07:12:03Z</time>
      </trkpt>
      <trkpt lat="45.90728" lon="3.02482">
        <ele>452</ele>
        <time>2021-07-27T07:12:04Z</time>
      </trkpt>
      <trkpt lat="45.90728" lon="3.02484">
        <ele>452</ele>
        <time>2021-07-27T07:12:05Z</time>
      </trkpt>
      <trkpt lat="45.90728" lon="3.02485">
        <ele>452</ele>
        <time>2021-07-27T07:12:06Z</time>
      </trkpt>
      <trkpt lat="45.90728" lon="3.02487">
        <ele>452</ele>
        <time>2021-07-27T07:12:07Z</time>
      </trkpt>
      <trkpt lat="45.90728" lon="3.02489">
        <ele>452</ele>
        <time>2021-07-27T07:12:08Z</time>
      </trkpt>
      <trkpt lat="45.90728" lon="3.0249">
        <ele>452</ele>
        <time>2021-07-27T07:12:09Z</time>
      </trkpt>
      <trkpt lat="45.90728" lon="3.02492">
        <ele>452</ele>
        <time>2021-07-27T07:12:10Z</time>
      </trkpt>
      <trkpt lat="45.90728" lon="3.02494">
        <ele>452</ele>
        <time>2021-07-27T07:12:11Z</time>
      </trkpt>
      <trkpt lat="45.90728" lon="3.02495">
        <ele>452</ele>
        <time>2021-07-27T07:12:12Z</time>
      </trkpt>
      <trkpt lat="45.90728" lon="3.02497">
        <ele>452</ele>
        <time>2021-07-27T07:12:13Z</time>
      </trkpt>
      <trkpt lat="45.90728" lon="3.02499">
        <ele>452</ele>
        <time>2021-07-27T07:12:14Z</time>
      </trkpt>
      <trkpt lat="45.90728" lon="3.02501">
        <ele>452</ele>
        <time>2021-07-27T07:12:15Z</time>
      </trkpt>
      <trkpt lat="45.90728" lon="3.02502">
        <ele>452</ele>
        <time>2021-07-27T07:12:16Z</time>
      </trkpt>
      <trkpt lat="45.90727" lon="3.02504">
        <ele>452</ele>
        <time>2021-07-27T07:12:17Z</time>
      </trkpt>
      <trkpt lat="45.90727" lon="3.02506">
        <ele>452</ele>
        <time>2021-07-27T07:12:18Z</time>
      </trkpt>
      <trkpt lat="45.90727" lon="3.02508">
        <ele>452</ele>
        <time>2021-07-27T07:12:19Z</time>
      </trkpt>
      <trkpt lat="45.90726" lon="3.0251">
        <ele>452</ele>
        <time>2021-07-27T07:12:20Z</time>
      </trkpt>
      <trkpt lat="45.90726" lon="3.02511">
        <ele>452</ele>
        <time>2021-07-27T07:12:21Z</time>
      </trkpt>
      <trkpt lat="45.90726" lon="3.02513">
        <ele>452</ele>
        <time>2021-07-27T07:12:22Z</time>
      </trkpt>
      <trkpt lat="45.90725" lon="3.02514">
        <ele>452</ele>
        <time>2021-07-27T07:12:23Z</time>
      </trkpt>
      <trkpt lat="45.90725" lon="3.02516">
        <ele>452</ele>
        <time>2021-07-27T07:12:24Z</time>
      </trkpt>
      <trkpt lat="45.90725" lon="3.02518">
        <ele>452</ele>
        <time>2021-07-27T07:12:25Z</time>
      </trkpt>
      <trkpt lat="45.90724" lon="3.02519">
        <ele>452</ele>
        <time>2021-07-27T07:12:26Z</time>
      </trkpt>
      <trkpt lat="45.90724" lon="3.02521">
        <ele>452</ele>
        <time>2021-07-27T07:12:27Z</time>
      </trkpt>
      <trkpt lat="45.90724" lon="3.02524">
        <ele>452</ele>
        <time>2021-07-27T07:12:28Z</time>
      </trkpt>
      <trkpt lat="45.90724" lon="3.02526">
        <ele>452</ele>
        <time>2021-07-27T07:12:29Z</time>
      </trkpt>
      <trkpt lat="45.90723" lon="3.02528">
        <ele>452</ele>
        <time>2021-07-27T07:12:30Z</time>
      </trkpt>
      <trkpt lat="45.90723" lon="3.02529">
        <ele>452</ele>
        <time>2021-07-27T07:12:31Z</time>
      </trkpt>
      <trkpt lat="45.90723" lon="3.02531">
        <ele>452</ele>
        <time>2021-07-27T07:12:32Z</time>
      </trkpt>
      <trkpt lat="45.90722" lon="3.02533">
        <ele>452</ele>
        <time>2021-07-27T07:12:33Z</time>
      </trkpt>
      <trkpt lat="45.90721" lon="3.02535">
        <ele>452</ele>
        <time>2021-07-27T07:12:34Z</time>
      </trkpt>
      <trkpt lat="45.9072" lon="3.02536">
        <ele>452</ele>
        <time>2021-07-27T07:12:35Z</time>
      </trkpt>
      <trkpt lat="45.9072" lon="3.02538">
        <ele>452</ele>
        <time>2021-07-27T07:12:36Z</time>
      </trkpt>
      <trkpt lat="45.90719" lon="3.0254">
        <ele>452</ele>
        <time>2021-07-27T07:12:37Z</time>
      </trkpt>
      <trkpt lat="45.90719" lon="3.02542">
        <ele>452</ele>
        <time>2021-07-27T07:12:38Z</time>
      </trkpt>
      <trkpt lat="45.90717" lon="3.02543">
        <ele>452</ele>
        <time>2021-07-27T07:12:39Z</time>
      </trkpt>
      <trkpt lat="45.90717" lon="3.02545">
        <ele>452</ele>
        <time>2021-07-27T07:12:40Z</time>
      </trkpt>
      <trkpt lat="45.90716" lon="3.02547">
        <ele>452</ele>
        <time>2021-07-27T07:12:41Z</time>
      </trkpt>
      <trkpt lat="45.90715" lon="3.02549">
        <ele>452</ele>
        <time>2021-07-27T07:12:42Z</time>
      </trkpt>
      <trkpt lat="45.90714" lon="3.02551">
        <ele>452</ele>
        <time>2021-07-27T07:12:43Z</time>
      </trkpt>
      <trkpt lat="45.90714" lon="3.02553">
        <ele>452</ele>
        <time>2021-07-27T07:12:44Z</time>
      </trkpt>
      <trkpt lat="45.90713" lon="3.02555">
        <ele>452</ele>
        <time>2021-07-27T07:12:45Z</time>
      </trkpt>
      <trkpt lat="45.90712" lon="3.02557">
        <ele>452</ele>
        <time>2021-07-27T07:12:46Z</time>
      </trkpt>
      <trkpt lat="45.90711" lon="3.02559">
        <ele>452</ele>
        <time>2021-07-27T07:12:47Z</time>
      </trkpt>
      <trkpt lat="45.9071" lon="3.02561">
        <ele>452</ele>
        <time>2021-07-27T07:12:48Z</time>
      </trkpt>
      <trkpt lat="45.9071" lon="3.02562">
        <ele>452</ele>
        <time>2021-07-27T07:12:49Z</time>
      </trkpt>
      <trkpt lat="45.90709" lon="3.02564">
        <ele>452</ele>
        <time>2021-07-27T07:12:50Z</time>
      </trkpt>
      <trkpt lat="45.90708" lon="3.02566">
        <ele>452</ele>
        <time>2021-07-27T07:12:51Z</time>
      </trkpt>
      <trkpt lat="45.90707" lon="3.02567">
        <ele>452</ele>
        <time>2021-07-27T07:12:52Z</time>
      </trkpt>
      <trkpt lat="45.90706" lon="3.02569">
        <ele>452</ele>
        <time>2021-07-27T07:12:53Z</time>
      </trkpt>
      <trkpt lat="45.90706" lon="3.02571">
        <ele>452</ele>
        <time>2021-07-27T07:12:54Z</time>
      </trkpt>
      <trkpt lat="45.90705" lon="3.02572">
        <ele>452</ele>
        <time>2021-07-27T07:12:55Z</time>
      </trkpt>
      <trkpt lat="45.90704" lon="3.02574">
        <ele>452</ele>
        <time>2021-07-27T07:12:56Z</time>
      </trkpt>
      <trkpt lat="45.90702" lon="3.02575">
        <ele>452</ele>
        <time>2021-07-27T07:12:57Z</time>
      </trkpt>
      <trkpt lat="45.90702" lon="3.02577">
        <ele>452</ele>
        <time>2021-07-27T07:12:58Z</time>
      </trkpt>
      <trkpt lat="45.90701" lon="3.02578">
        <ele>452</ele>
        <time>2021-07-27T07:12:59Z</time>
      </trkpt>
      <trkpt lat="45.90699" lon="3.02579">
        <ele>452</ele>
        <time>2021-07-27T07:13:00Z</time>
      </trkpt>
      <trkpt lat="45.90699" lon="3.0258">
        <ele>452</ele>
        <time>2021-07-27T07:13:01Z</time>
      </trkpt>
      <trkpt lat="45.90698" lon="3.02581">
        <ele>452</ele>
        <time>2021-07-27T07:13:02Z</time>
      </trkpt>
      <trkpt lat="45.90696" lon="3.02581">
        <ele>452</ele>
        <time>2021-07-27T07:13:03Z</time>
      </trkpt>
      <trkpt lat="45.90695" lon="3.02581">
        <ele>452</ele>
        <time>2021-07-27T07:13:04Z</time>
      </trkpt>
      <trkpt lat="45.90694" lon="3.02581">
        <ele>452</ele>
        <time>2021-07-27T07:13:05Z</time>
      </trkpt>
      <trkpt lat="45.90693" lon="3.02581">
        <ele>452</ele>
        <time>2021-07-27T07:13:06Z</time>
      </trkpt>
      <trkpt lat="45.90691" lon="3.0258">
        <ele>452</ele>
        <time>2021-07-27T07:13:07Z</time>
      </trkpt>
      <trkpt lat="45.9069" lon="3.02579">
        <ele>452</ele>
        <time>2021-07-27T07:13:08Z</time>
      </trkpt>
      <trkpt lat="45.9069" lon="3.02579">
        <ele>452</ele>
        <time>2021-07-27T07:13:09Z</time>
      </trkpt>
      <trkpt lat="45.90688" lon="3.02578">
        <ele>452</ele>
        <time>2021-07-27T07:13:10Z</time>
      </trkpt>
      <trkpt lat="45.90687" lon="3.02577">
        <ele>452</ele>
        <time>2021-07-27T07:13:11Z</time>
      </trkpt>
      <trkpt lat="45.90686" lon="3.02576">
        <ele>452</ele>
        <time>2021-07-27T07:13:12Z</time>
      </trkpt>
      <trkpt lat="45.90685" lon="3.02576">
        <ele>452</ele>
        <time>2021-07-27T07:13:13Z</time>
      </trkpt>
      <trkpt lat="45.90684" lon="3.02574">
        <ele>452</ele>
        <time>2021-07-27T07:13:14Z</time>
      </trkpt>
      <trkpt lat="45.90684" lon="3.02573">
        <ele>452</ele>
        <time>2021-07-27T07:13:15Z</time>
      </trkpt>
      <trkpt lat="45.90683" lon="3.02572">
        <ele>452</ele>
        <time>2021-07-27T07:13:16Z</time>
      </trkpt>
      <trkpt lat="45.90683" lon="3.02571">
        <ele>452</ele>
        <time>2021-07-27T07:13:17Z</time>
      </trkpt>
      <trkpt lat="45.90682" lon="3.02569">
        <ele>452</ele>
        <time>2021-07-27T07:13:18Z</time>
      </trkpt>
      <trkpt lat="45.90681" lon="3.02568">
        <ele>452</ele>
        <time>2021-07-27T07:13:19Z</time>
      </trkpt>
      <trkpt lat="45.90681" lon="3.02566">
        <ele>452</ele>
        <time>2021-07-27T07:13:20Z</time>
      </trkpt>
      <trkpt lat="45.9068" lon="3.02565">
        <ele>452</ele>
        <time>2021-07-27T07:13:21Z</time>
      </trkpt>
      <trkpt lat="45.9068" lon="3.02563">
        <ele>452</ele>
        <time>2021-07-27T07:13:22Z</time>
      </trkpt>
      <trkpt lat="45.90679" lon="3.02562">
        <ele>452</ele>
        <time>2021-07-27T07:13:23Z</time>
      </trkpt>
      <trkpt lat="45.90679" lon="3.0256">
        <ele>452</ele>
        <time>2021-07-27T07:13:24Z</time>
      </trkpt>
      <trkpt lat="45.90678" lon="3.02559">
        <ele>452</ele>
        <time>2021-07-27T07:13:25Z</time>
      </trkpt>
      <trkpt lat="45.90678" lon="3.02557">
        <ele>452</ele>
        <time>2021-07-27T07:13:26Z</time>
      </trkpt>
      <trkpt lat="45.90678" lon="3.02556">
        <ele>452</ele>
        <time>2021-07-27T07:13:27Z</time>
      </trkpt>
      <trkpt lat="45.90677" lon="3.02554">
        <ele>452</ele>
        <time>2021-07-27T07:13:28Z</time>
      </trkpt>
      <trkpt lat="45.90677" lon="3.02552">
        <ele>452</ele>
        <time>2021-07-27T07:13:29Z</time>
      </trkpt>
      <trkpt lat="45.90675" lon="3.02551">
        <ele>452</ele>
        <time>2021-07-27T07:13:30Z</time>
      </trkpt>
      <trkpt lat="45.90675" lon="3.02549">
        <ele>452</ele>
        <time>2021-07-27T07:13:31Z</time>
      </trkpt>
      <trkpt lat="45.90674" lon="3.02548">
        <ele>452</ele>
        <time>2021-07-27T07:13:32Z</time>
      </trkpt>
      <trkpt lat="45.90673" lon="3.02546">
        <ele>452</ele>
        <time>2021-07-27T07:13:33Z</time>
      </trkpt>
      <trkpt lat="45.90672" lon="3.02545">
        <ele>452</ele>
        <time>2021-07-27T07:13:34Z</time>
      </trkpt>
      <trkpt lat="45.90672" lon="3.02543">
        <ele>452</ele>
        <time>2021-07-27T07:13:35Z</time>
      </trkpt>
      <trkpt lat="45.9067" lon="3.02541">
        <ele>452</ele>
        <time>2021-07-27T07:13:36Z</time>
      </trkpt>
      <trkpt lat="45.90669" lon="3.02539">
        <ele>452</ele>
        <time>2021-07-27T07:13:37Z</time>
      </trkpt>
      <trkpt lat="45.90669" lon="3.02538">
        <ele>452</ele>
        <time>2021-07-27T07:13:38Z</time>
      </trkpt>
      <trkpt lat="45.90668" lon="3.02536">
        <ele>452</ele>
        <time>2021-07-27T07:13:39Z</time>
      </trkpt>
      <trkpt lat="45.90667" lon="3.02534">
        <ele>452</ele>
        <time>2021-07-27T07:13:40Z</time>
      </trkpt>
      <trkpt lat="45.90666" lon="3.02532">
        <ele>452</ele>
        <time>2021-07-27T07:13:41Z</time>
      </trkpt>
      <trkpt lat="45.90666" lon="3.0253">
        <ele>452</ele>
        <time>2021-07-27T07:13:42Z</time>
      </trkpt>
      <trkpt lat="45.90665" lon="3.02528">
        <ele>452</ele>
        <time>2021-07-27T07:13:44Z</time>
      </trkpt>
      <trkpt lat="45.90663" lon="3.0252">
        <ele>452</ele>
        <time>2021-07-27T07:13:45Z</time>
      </trkpt>
      <trkpt lat="45.90663" lon="3.0252">
        <ele>452</ele>
        <time>2021-07-27T07:13:46Z</time>
      </trkpt>
      <trkpt lat="45.90663" lon="3.02519">
        <ele>452</ele>
        <time>2021-07-27T07:13:47Z</time>
      </trkpt>
      <trkpt lat="45.90662" lon="3.02518">
        <ele>452</ele>
        <time>2021-07-27T07:13:48Z</time>
      </trkpt>
      <trkpt lat="45.90662" lon="3.02516">
        <ele>452</ele>
        <time>2021-07-27T07:13:49Z</time>
      </trkpt>
      <trkpt lat="45.90662" lon="3.02515">
        <ele>452</ele>
        <time>2021-07-27T07:13:50Z</time>
      </trkpt>
      <trkpt lat="45.90661" lon="3.02513">
        <ele>452</ele>
        <time>2021-07-27T07:13:51Z</time>
      </trkpt>
      <trkpt lat="45.9066" lon="3.02512">
        <ele>452</ele>
        <time>2021-07-27T07:13:52Z</time>
      </trkpt>
      <trkpt lat="45.9066" lon="3.0251">
        <ele>452</ele>
        <time>2021-07-27T07:13:53Z</time>
      </trkpt>
      <trkpt lat="45.90659" lon="3.02509">
        <ele>452</ele>
        <time>2021-07-27T07:13:54Z</time>
      </trkpt>
      <trkpt lat="45.90659" lon="3.02508">
        <ele>452</ele>
        <time>2021-07-27T07:13:55Z</time>
      </trkpt>
      <trkpt lat="45.90657" lon="3.02506">
        <ele>452</ele>
        <time>2021-07-27T07:13:56Z</time>
      </trkpt>
      <trkpt lat="45.90657" lon="3.02505">
        <ele>452</ele>
        <time>2021-07-27T07:13:57Z</time>
      </trkpt>
      <trkpt lat="45.90656" lon="3.02503">
        <ele>452</ele>
        <time>2021-07-27T07:13:58Z</time>
      </trkpt>
      <trkpt lat="45.90656" lon="3.02502">
        <ele>452</ele>
        <time>2021-07-27T07:13:59Z</time>
      </trkpt>
      <trkpt lat="45.90654" lon="3.025">
        <ele>452</ele>
        <time>2021-07-27T07:14:00Z</time>
      </trkpt>
      <trkpt lat="45.90654" lon="3.02499">
        <ele>452</ele>
        <time>2021-07-27T07:14:01Z</time>
      </trkpt>
      <trkpt lat="45.90653" lon="3.02497">
        <ele>452</ele>
        <time>2021-07-27T07:14:02Z</time>
      </trkpt>
      <trkpt lat="45.90652" lon="3.02496">
        <ele>452</ele>
        <time>2021-07-27T07:14:03Z</time>
      </trkpt>
      <trkpt lat="45.90651" lon="3.02495">
        <ele>452</ele>
        <time>2021-07-27T07:14:04Z</time>
      </trkpt>
      <trkpt lat="45.90651" lon="3.02493">
        <ele>452</ele>
        <time>2021-07-27T07:14:05Z</time>
      </trkpt>
      <trkpt lat="45.9065" lon="3.02492">
        <ele>452</ele>
        <time>2021-07-27T07:14:06Z</time>
      </trkpt>
      <trkpt lat="45.90649" lon="3.0249">
        <ele>452</ele>
        <time>2021-07-27T07:14:07Z</time>
      </trkpt>
      <trkpt lat="45.90649" lon="3.02488">
        <ele>452</ele>
        <time>2021-07-27T07:14:08Z</time>
      </trkpt>
      <trkpt lat="45.90648" lon="3.02487">
        <ele>452</ele>
        <time>2021-07-27T07:14:09Z</time>
      </trkpt>
      <trkpt lat="45.90648" lon="3.02486">
        <ele>452</ele>
        <time>2021-07-27T07:14:10Z</time>
      </trkpt>
      <trkpt lat="45.90648" lon="3.02484">
        <ele>452</ele>
        <time>2021-07-27T07:14:11Z</time>
      </trkpt>
      <trkpt lat="45.90648" lon="3.02482">
        <ele>452</ele>
        <time>2021-07-27T07:14:12Z</time>
      </trkpt>
      <trkpt lat="45.90647" lon="3.0248">
        <ele>452</ele>
        <time>2021-07-27T07:14:13Z</time>
      </trkpt>
      <trkpt lat="45.90647" lon="3.02479">
        <ele>452</ele>
        <time>2021-07-27T07:14:14Z</time>
      </trkpt>
      <trkpt lat="45.90647" lon="3.02477">
        <ele>452</ele>
        <time>2021-07-27T07:14:15Z</time>
      </trkpt>
      <trkpt lat="45.90647" lon="3.02475">
        <ele>452</ele>
        <time>2021-07-27T07:14:16Z</time>
      </trkpt>
      <trkpt lat="45.90646" lon="3.02473">
        <ele>452</ele>
        <time>2021-07-27T07:14:17Z</time>
      </trkpt>
      <trkpt lat="45.90646" lon="3.0247">
        <ele>452</ele>
        <time>2021-07-27T07:14:18Z</time>
      </trkpt>
      <trkpt lat="45.90646" lon="3.02468">
        <ele>452</ele>
        <time>2021-07-27T07:14:19Z</time>
      </trkpt>
      <trkpt lat="45.90646" lon="3.02466">
        <ele>452</ele>
        <time>2021-07-27T07:14:20Z</time>
      </trkpt>
      <trkpt lat="45.90646" lon="3.02464">
        <ele>452</ele>
        <time>2021-07-27T07:14:21Z</time>
      </trkpt>
      <trkpt lat="45.90646" lon="3.02461">
        <ele>452</ele>
        <time>2021-07-27T07:14:22Z</time>
      </trkpt>
      <trkpt lat="45.90646" lon="3.02459">
        <ele>452</ele>
        <time>2021-07-27T07:14:23Z</time>
      </trkpt>
      <trkpt lat="45.90646" lon="3.02457">
        <ele>452</ele>
        <time>2021-07-27T07:14:24Z</time>
      </trkpt>
      <trkpt lat="45.90646" lon="3.02455">
        <ele>452</ele>
        <time>2021-07-27T07:14:25Z</time>
      </trkpt>
      <trkpt lat="45.90646" lon="3.02453">
        <ele>452</ele>
        <time>2021-07-27T07:14:26Z</time>
      </trkpt>
      <trkpt lat="45.90646" lon="3.02452">
        <ele>452</ele>
        <time>2021-07-27T07:14:27Z</time>
      </trkpt>
      <trkpt lat="45.90645" lon="3.0245">
        <ele>452</ele>
        <time>2021-07-27T07:14:28Z</time>
      </trkpt>
      <trkpt lat="45.90645" lon="3.02448">
        <ele>452</ele>
        <time>2021-07-27T07:14:29Z</time>
      </trkpt>
      <trkpt lat="45.90645" lon="3.02446">
        <ele>452</ele>
        <time>2021-07-27T07:14:30Z</time>
      </trkpt>
      <trkpt lat="45.90644" lon="3.02445">
        <ele>452</ele>
        <time>2021-07-27T07:14:31Z</time>
      </trkpt>
      <trkpt lat="45.90644" lon="3.02443">
        <ele>452</ele>
        <time>2021-07-27T07:14:32Z</time>
      </trkpt>
      <trkpt lat="45.90643" lon="3.02441">
        <ele>452</ele>
        <time>2021-07-27T07:14:33Z</time>
      </trkpt>
      <trkpt lat="45.90642" lon="3.0244">
        <ele>452</ele>
        <time>2021-07-27T07:14:34Z</time>
      </trkpt>
      <trkpt lat="45.90642" lon="3.02438">
        <ele>452</ele>
        <time>2021-07-27T07:14:35Z</time>
      </trkpt>
      <trkpt lat="45.90641" lon="3.02436">
        <ele>452</ele>
        <time>2021-07-27T07:14:36Z</time>
      </trkpt>
      <trkpt lat="45.9064" lon="3.02435">
        <ele>452</ele>
        <time>2021-07-27T07:14:37Z</time>
      </trkpt>
      <trkpt lat="45.90639" lon="3.02433">
        <ele>452</ele>
        <time>2021-07-27T07:14:38Z</time>
      </trkpt>
      <trkpt lat="45.90638" lon="3.02431">
        <ele>452</ele>
        <time>2021-07-27T07:14:39Z</time>
      </trkpt>
      <trkpt lat="45.90637" lon="3.0243">
        <ele>452</ele>
        <time>2021-07-27T07:14:40Z</time>
      </trkpt>
      <trkpt lat="45.90636" lon="3.02428">
        <ele>452</ele>
        <time>2021-07-27T07:14:41Z</time>
      </trkpt>
      <trkpt lat="45.90636" lon="3.02427">
        <ele>452</ele>
        <time>2021-07-27T07:14:42Z</time>
      </trkpt>
      <trkpt lat="45.90635" lon="3.02425">
        <ele>452</ele>
        <time>2021-07-27T07:14:43Z</time>
      </trkpt>
      <trkpt lat="45.90634" lon="3.02423">
        <ele>452</ele>
        <time>2021-07-27T07:14:45Z</time>
      </trkpt>
      <trkpt lat="45.90632" lon="3.02416">
        <ele>452</ele>
        <time>2021-07-27T07:14:46Z</time>
      </trkpt>
      <trkpt lat="45.90632" lon="3.02416">
        <ele>452</ele>
        <time>2021-07-27T07:14:47Z</time>
      </trkpt>
      <trkpt lat="45.90631" lon="3.02415">
        <ele>452</ele>
        <time>2021-07-27T07:14:48Z</time>
      </trkpt>
      <trkpt lat="45.9063" lon="3.02415">
        <ele>452</ele>
        <time>2021-07-27T07:14:49Z</time>
      </trkpt>
      <trkpt lat="45.90629" lon="3.02414">
        <ele>452</ele>
        <time>2021-07-27T07:14:50Z</time>
      </trkpt>
      <trkpt lat="45.90628" lon="3.02414">
        <ele>452</ele>
        <time>2021-07-27T07:14:51Z</time>
      </trkpt>
      <trkpt lat="45.90627" lon="3.02413">
        <ele>452</ele>
        <time>2021-07-27T07:14:52Z</time>
      </trkpt>
      <trkpt lat="45.90626" lon="3.02413">
        <ele>452</ele>
        <time>2021-07-27T07:14:53Z</time>
      </trkpt>
      <trkpt lat="45.90625" lon="3.02412">
        <ele>452</ele>
        <time>2021-07-27T07:14:54Z</time>
      </trkpt>
      <trkpt lat="45.90625" lon="3.02412">
        <ele>452</ele>
        <time>2021-07-27T07:14:55Z</time>
      </trkpt>
      <trkpt lat="45.90624" lon="3.02412">
        <ele>452</ele>
        <time>2021-07-27T07:14:56Z</time>
      </trkpt>
      <trkpt lat="45.90623" lon="3.02412">
        <ele>452</ele>
        <time>2021-07-27T07:14:57Z</time>
      </trkpt>
      <trkpt lat="45.90622" lon="3.02413">
        <ele>452</ele>
        <time>2021-07-27T07:14:58Z</time>
      </trkpt>
      <trkpt lat="45.90622" lon="3.02413">
        <ele>452</ele>
        <time>2021-07-27T07:14:59Z</time>
      </trkpt>
      <trkpt lat="45.90621" lon="3.02413">
        <ele>452</ele>
        <time>2021-07-27T07:15:00Z</time>
      </trkpt>
      <trkpt lat="45.9062" lon="3.02414">
        <ele>452</ele>
        <time>2021-07-27T07:15:01Z</time>
      </trkpt>
      <trkpt lat="45.9062" lon="3.02414">
        <ele>452</ele>
        <time>2021-07-27T07:15:02Z</time>
      </trkpt>
      <trkpt lat="45.90619" lon="3.02414">
        <ele>452</ele>
        <time>2021-07-27T07:15:03Z</time>
      </trkpt>
      <trkpt lat="45.90619" lon="3.02414">
        <ele>452</ele>
        <time>2021-07-27T07:15:04Z</time>
      </trkpt>
      <trkpt lat="45.90618" lon="3.02414">
        <ele>452</ele>
        <time>2021-07-27T07:15:05Z</time>
      </trkpt>
      <trkpt lat="45.90617" lon="3.02413">
        <ele>452</ele>
        <time>2021-07-27T07:15:06Z</time>
      </trkpt>
      <trkpt lat="45.90616" lon="3.02413">
        <ele>452</ele>
        <time>2021-07-27T07:15:07Z</time>
      </trkpt>
      <trkpt lat="45.90615" lon="3.02413">
        <ele>452</ele>
        <time>2021-07-27T07:15:08Z</time>
      </trkpt>
      <trkpt lat="45.90615" lon="3.02413">
        <ele>452</ele>
        <time>2021-07-27T07:15:09Z</time>
      </trkpt>
      <trkpt lat="45.90614" lon="3.02412">
        <ele>452</ele>
        <time>2021-07-27T07:15:10Z</time>
      </trkpt>
      <trkpt lat="45.90612" lon="3.02412">
        <ele>452</ele>
        <time>2021-07-27T07:15:11Z</time>
      </trkpt>
      <trkpt lat="45.90611" lon="3.02412">
        <ele>452</ele>
        <time>2021-07-27T07:15:12Z</time>
      </trkpt>
      <trkpt lat="45.9061" lon="3.02411">
        <ele>452</ele>
        <time>2021-07-27T07:15:13Z</time>
      </trkpt>
      <trkpt lat="45.90609" lon="3.0241">
        <ele>452</ele>
        <time>2021-07-27T07:15:14Z</time>
      </trkpt>
      <trkpt lat="45.90608" lon="3.02409">
        <ele>452</ele>
        <time>2021-07-27T07:15:15Z</time>
      </trkpt>
      <trkpt lat="45.90607" lon="3.02409">
        <ele>452</ele>
        <time>2021-07-27T07:15:16Z</time>
      </trkpt>
      <trkpt lat="45.90605" lon="3.02408">
        <ele>452</ele>
        <time>2021-07-27T07:15:17Z</time>
      </trkpt>
      <trkpt lat="45.90604" lon="3.02408">
        <ele>452</ele>
        <time>2021-07-27T07:15:17Z</time>
      </trkpt>
      <trkpt lat="45.90603" lon="3.02407">
        <ele>452</ele>
        <time>2021-07-27T07:15:18Z</time>
      </trkpt>
      <trkpt lat="45.90602" lon="3.02407">
        <ele>452</ele>
        <time>2021-07-27T07:15:19Z</time>
      </trkpt>
      <trkpt lat="45.90601" lon="3.02406">
        <ele>452</ele>
        <time>2021-07-27T07:15:20Z</time>
      </trkpt>
      <trkpt lat="45.90599" lon="3.02406">
        <ele>452</ele>
        <time>2021-07-27T07:15:21Z</time>
      </trkpt>
      <trkpt lat="45.90598" lon="3.02405">
        <ele>452</ele>
        <time>2021-07-27T07:15:22Z</time>
      </trkpt>
      <trkpt lat="45.90597" lon="3.02405">
        <ele>452</ele>
        <time>2021-07-27T07:15:23Z</time>
      </trkpt>
      <trkpt lat="45.90595" lon="3.02404">
        <ele>452</ele>
        <time>2021-07-27T07:15:24Z</time>
      </trkpt>
      <trkpt lat="45.90594" lon="3.02403">
        <ele>452</ele>
        <time>2021-07-27T07:15:25Z</time>
      </trkpt>
      <trkpt lat="45.90592" lon="3.02403">
        <ele>452</ele>
        <time>2021-07-27T07:15:26Z</time>
      </trkpt>
      <trkpt lat="45.9059" lon="3.02402">
        <ele>452</ele>
        <time>2021-07-27T07:15:27Z</time>
      </trkpt>
      <trkpt lat="45.90589" lon="3.02401">
        <ele>452</ele>
        <time>2021-07-27T07:15:28Z</time>
      </trkpt>
      <trkpt lat="45.90588" lon="3.024">
        <ele>452</ele>
        <time>2021-07-27T07:15:29Z</time>
      </trkpt>
      <trkpt lat="45.90587" lon="3.02399">
        <ele>452</ele>
        <time>2021-07-27T07:15:30Z</time>
      </trkpt>
      <trkpt lat="45.90585" lon="3.02398">
        <ele>452</ele>
        <time>2021-07-27T07:15:31Z</time>
      </trkpt>
      <trkpt lat="45.90584" lon="3.02398">
        <ele>452</ele>
        <time>2021-07-27T07:15:32Z</time>
      </trkpt>
      <trkpt lat="45.90583" lon="3.02397">
        <ele>452</ele>
        <time>2021-07-27T07:15:33Z</time>
      </trkpt>
      <trkpt lat="45.90581" lon="3.02396">
        <ele>452</ele>
        <time>2021-07-27T07:15:34Z</time>
      </trkpt>
      <trkpt lat="45.9058" lon="3.02395">
        <ele>452</ele>
        <time>2021-07-27T07:15:35Z</time>
      </trkpt>
      <trkpt lat="45.90579" lon="3.02394">
        <ele>452</ele>
        <time>2021-07-27T07:15:36Z</time>
      </trkpt>
      <trkpt lat="45.90578" lon="3.02394">
        <ele>452</ele>
        <time>2021-07-27T07:15:37Z</time>
      </trkpt>
      <trkpt lat="45.90577" lon="3.02393">
        <ele>452</ele>
        <time>2021-07-27T07:15:38Z</time>
      </trkpt>
      <trkpt lat="45.90575" lon="3.02392">
        <ele>452</ele>
        <time>2021-07-27T07:15:39Z</time>
      </trkpt>
      <trkpt lat="45.90574" lon="3.02391">
        <ele>452</ele>
        <time>2021-07-27T07:15:40Z</time>
      </trkpt>
      <trkpt lat="45.90572" lon="3.0239">
        <ele>452</ele>
        <time>2021-07-27T07:15:41Z</time>
      </trkpt>
      <trkpt lat="45.90571" lon="3.02389">
        <ele>452</ele>
        <time>2021-07-27T07:15:43Z</time>
      </trkpt>
      <trkpt lat="45.90566" lon="3.02386">
        <ele>452</ele>
        <time>2021-07-27T07:15:44Z</time>
      </trkpt>
      <trkpt lat="45.90565" lon="3.02386">
        <ele>452</ele>
        <time>2021-07-27T07:15:45Z</time>
      </trkpt>
      <trkpt lat="45.90564" lon="3.02385">
        <ele>452</ele>
        <time>2021-07-27T07:15:46Z</time>
      </trkpt>
      <trkpt lat="45.90563" lon="3.02385">
        <ele>452</ele>
        <time>2021-07-27T07:15:47Z</time>
      </trkpt>
      <trkpt lat="45.90562" lon="3.02384">
        <ele>452</ele>
        <time>2021-07-27T07:15:48Z</time>
      </trkpt>
      <trkpt lat="45.90561" lon="3.02383">
        <ele>452</ele>
        <time>2021-07-27T07:15:49Z</time>
      </trkpt>
      <trkpt lat="45.9056" lon="3.02382">
        <ele>452</ele>
        <time>2021-07-27T07:15:50Z</time>
      </trkpt>
      <trkpt lat="45.90558" lon="3.02381">
        <ele>452</ele>
        <time>2021-07-27T07:15:51Z</time>
      </trkpt>
      <trkpt lat="45.90557" lon="3.0238">
        <ele>452</ele>
        <time>2021-07-27T07:15:52Z</time>
      </trkpt>
      <trkpt lat="45.90556" lon="3.0238">
        <ele>452</ele>
        <time>2021-07-27T07:15:53Z</time>
      </trkpt>
      <trkpt lat="45.90555" lon="3.02379">
        <ele>452</ele>
        <time>2021-07-27T07:15:54Z</time>
      </trkpt>
      <trkpt lat="45.90554" lon="3.02378">
        <ele>452</ele>
        <time>2021-07-27T07:15:55Z</time>
      </trkpt>
      <trkpt lat="45.90552" lon="3.02377">
        <ele>452</ele>
        <time>2021-07-27T07:15:56Z</time>
      </trkpt>
      <trkpt lat="45.90551" lon="3.02376">
        <ele>452</ele>
        <time>2021-07-27T07:15:57Z</time>
      </trkpt>
      <trkpt lat="45.9055" lon="3.02376">
        <ele>452</ele>
        <time>2021-07-27T07:15:58Z</time>
      </trkpt>
      <trkpt lat="45.90548" lon="3.02375">
        <ele>452</ele>
        <time>2021-07-27T07:15:59Z</time>
      </trkpt>
      <trkpt lat="45.90547" lon="3.02373">
        <ele>452</ele>
        <time>2021-07-27T07:16:00Z</time>
      </trkpt>
      <trkpt lat="45.90546" lon="3.02372">
        <ele>452</ele>
        <time>2021-07-27T07:16:01Z</time>
      </trkpt>
      <trkpt lat="45.90545" lon="3.02371">
        <ele>452</ele>
        <time>2021-07-27T07:16:02Z</time>
      </trkpt>
      <trkpt lat="45.90543" lon="3.0237">
        <ele>452</ele>
        <time>2021-07-27T07:16:03Z</time>
      </trkpt>
      <trkpt lat="45.90542" lon="3.02368">
        <ele>452</ele>
        <time>2021-07-27T07:16:04Z</time>
      </trkpt>
      <trkpt lat="45.90541" lon="3.02367">
        <ele>452</ele>
        <time>2021-07-27T07:16:05Z</time>
      </trkpt>
      <trkpt lat="45.90539" lon="3.02365">
        <ele>452</ele>
        <time>2021-07-27T07:16:06Z</time>
      </trkpt>
      <trkpt lat="45.90538" lon="3.02363">
        <ele>452</ele>
        <time>2021-07-27T07:16:07Z</time>
      </trkpt>
      <trkpt lat="45.90537" lon="3.02362">
        <ele>452</ele>
        <time>2021-07-27T07:16:08Z</time>
      </trkpt>
      <trkpt lat="45.90536" lon="3.0236">
        <ele>452</ele>
        <time>2021-07-27T07:16:09Z</time>
      </trkpt>
      <trkpt lat="45.90534" lon="3.02359">
        <ele>452</ele>
        <time>2021-07-27T07:16:10Z</time>
      </trkpt>
      <trkpt lat="45.90533" lon="3.02357">
        <ele>452</ele>
        <time>2021-07-27T07:16:11Z</time>
      </trkpt>
      <trkpt lat="45.90532" lon="3.02356">
        <ele>452</ele>
        <time>2021-07-27T07:16:12Z</time>
      </trkpt>
      <trkpt lat="45.90531" lon="3.02355">
        <ele>452</ele>
        <time>2021-07-27T07:16:13Z</time>
      </trkpt>
      <trkpt lat="45.9053" lon="3.02353">
        <ele>452</ele>
        <time>2021-07-27T07:16:14Z</time>
      </trkpt>
      <trkpt lat="45.9053" lon="3.02351">
        <ele>452</ele>
        <time>2021-07-27T07:16:15Z</time>
      </trkpt>
      <trkpt lat="45.90529" lon="3.0235">
        <ele>452</ele>
        <time>2021-07-27T07:16:16Z</time>
      </trkpt>
      <trkpt lat="45.90527" lon="3.02348">
        <ele>452</ele>
        <time>2021-07-27T07:16:17Z</time>
      </trkpt>
      <trkpt lat="45.90527" lon="3.02346">
        <ele>452</ele>
        <time>2021-07-27T07:16:18Z</time>
      </trkpt>
      <trkpt lat="45.90526" lon="3.02344">
        <ele>452</ele>
        <time>2021-07-27T07:16:19Z</time>
      </trkpt>
      <trkpt lat="45.90525" lon="3.02343">
        <ele>452</ele>
        <time>2021-07-27T07:16:20Z</time>
      </trkpt>
      <trkpt lat="45.90524" lon="3.02341">
        <ele>452</ele>
        <time>2021-07-27T07:16:21Z</time>
      </trkpt>
      <trkpt lat="45.90524" lon="3.02339">
        <ele>452</ele>
        <time>2021-07-27T07:16:22Z</time>
      </trkpt>
      <trkpt lat="45.90523" lon="3.02337">
        <ele>452</ele>
        <time>2021-07-27T07:16:23Z</time>
      </trkpt>
      <trkpt lat="45.90522" lon="3.02336">
        <ele>452</ele>
        <time>2021-07-27T07:16:24Z</time>
      </trkpt>
      <trkpt lat="45.90521" lon="3.02334">
        <ele>452</ele>
        <time>2021-07-27T07:16:25Z</time>
      </trkpt>
      <trkpt lat="45.90521" lon="3.02333">
        <ele>452</ele>
        <time>2021-07-27T07:16:26Z</time>
      </trkpt>
      <trkpt lat="45.9052" lon="3.02331">
        <ele>452</ele>
        <time>2021-07-27T07:16:27Z</time>
      </trkpt>
      <trkpt lat="45.90519" lon="3.0233">
        <ele>452</ele>
        <time>2021-07-27T07:16:28Z</time>
      </trkpt>
      <trkpt lat="45.90518" lon="3.02328">
        <ele>452</ele>
        <time>2021-07-27T07:16:29Z</time>
      </trkpt>
      <trkpt lat="45.90517" lon="3.02326">
        <ele>452</ele>
        <time>2021-07-27T07:16:30Z</time>
      </trkpt>
      <trkpt lat="45.90516" lon="3.02324">
        <ele>452</ele>
        <time>2021-07-27T07:16:31Z</time>
      </trkpt>
      <trkpt lat="45.90515" lon="3.02323">
        <ele>452</ele>
        <time>2021-07-27T07:16:32Z</time>
      </trkpt>
      <trkpt lat="45.90514" lon="3.02321">
        <ele>452</ele>
        <time>2021-07-27T07:16:33Z</time>
      </trkpt>
      <trkpt lat="45.90514" lon="3.02319">
        <ele>452</ele>
        <time>2021-07-27T07:16:34Z</time>
      </trkpt>
      <trkpt lat="45.90513" lon="3.02317">
        <ele>452</ele>
        <time>2021-07-27T07:16:35Z</time>
      </trkpt>
      <trkpt lat="45.90512" lon="3.02315">
        <ele>452</ele>
        <time>2021-07-27T07:16:36Z</time>
      </trkpt>
      <trkpt lat="45.90511" lon="3.02313">
        <ele>452</ele>
        <time>2021-07-27T07:16:37Z</time>
      </trkpt>
      <trkpt lat="45.9051" lon="3.02311">
        <ele>452</ele>
        <time>2021-07-27T07:16:38Z</time>
      </trkpt>
      <trkpt lat="45.90509" lon="3.02309">
        <ele>452</ele>
        <time>2021-07-27T07:16:39Z</time>
      </trkpt>
      <trkpt lat="45.90509" lon="3.02307">
        <ele>452</ele>
        <time>2021-07-27T07:16:40Z</time>
      </trkpt>
      <trkpt lat="45.90508" lon="3.02305">
        <ele>452</ele>
        <time>2021-07-27T07:16:41Z</time>
      </trkpt>
      <trkpt lat="45.90507" lon="3.02303">
        <ele>452</ele>
        <time>2021-07-27T07:16:43Z</time>
      </trkpt>
      <trkpt lat="45.90506" lon="3.02294">
        <ele>452</ele>
        <time>2021-07-27T07:16:44Z</time>
      </trkpt>
      <trkpt lat="45.90506" lon="3.02294">
        <ele>452</ele>
        <time>2021-07-27T07:16:45Z</time>
      </trkpt>
      <trkpt lat="45.90505" lon="3.02293">
        <ele>452</ele>
        <time>2021-07-27T07:16:46Z</time>
      </trkpt>
      <trkpt lat="45.90505" lon="3.02292">
        <ele>452</ele>
        <time>2021-07-27T07:16:47Z</time>
      </trkpt>
      <trkpt lat="45.90505" lon="3.0229">
        <ele>452</ele>
        <time>2021-07-27T07:16:48Z</time>
      </trkpt>
      <trkpt lat="45.90503" lon="3.02289">
        <ele>452</ele>
        <time>2021-07-27T07:16:49Z</time>
      </trkpt>
      <trkpt lat="45.90503" lon="3.02287">
        <ele>452</ele>
        <time>2021-07-27T07:16:50Z</time>
      </trkpt>
      <trkpt lat="45.90503" lon="3.02285">
        <ele>452</ele>
        <time>2021-07-27T07:16:51Z</time>
      </trkpt>
      <trkpt lat="45.90502" lon="3.02283">
        <ele>452</ele>
        <time>2021-07-27T07:16:52Z</time>
      </trkpt>
      <trkpt lat="45.90501" lon="3.02281">
        <ele>452</ele>
        <time>2021-07-27T07:16:53Z</time>
      </trkpt>
      <trkpt lat="45.90501" lon="3.02279">
        <ele>452</ele>
        <time>2021-07-27T07:16:54Z</time>
      </trkpt>
      <trkpt lat="45.905" lon="3.02277">
        <ele>452</ele>
        <time>2021-07-27T07:16:55Z</time>
      </trkpt>
      <trkpt lat="45.905" lon="3.02275">
        <ele>452</ele>
        <time>2021-07-27T07:16:56Z</time>
      </trkpt>
      <trkpt lat="45.905" lon="3.02273">
        <ele>452</ele>
        <time>2021-07-27T07:16:57Z</time>
      </trkpt>
      <trkpt lat="45.90499" lon="3.02272">
        <ele>452</ele>
        <time>2021-07-27T07:16:58Z</time>
      </trkpt>
      <trkpt lat="45.90498" lon="3.02271">
        <ele>452</ele>
        <time>2021-07-27T07:16:59Z</time>
      </trkpt>
      <trkpt lat="45.90498" lon="3.0227">
        <ele>452</ele>
        <time>2021-07-27T07:17:00Z</time>
      </trkpt>
      <trkpt lat="45.90497" lon="3.02268">
        <ele>452</ele>
        <time>2021-07-27T07:17:01Z</time>
      </trkpt>
      <trkpt lat="45.90497" lon="3.02267">
        <ele>452</ele>
        <time>2021-07-27T07:17:02Z</time>
      </trkpt>
      <trkpt lat="45.90497" lon="3.02266">
        <ele>452</ele>
        <time>2021-07-27T07:17:03Z</time>
      </trkpt>
      <trkpt lat="45.90496" lon="3.02265">
        <ele>452</ele>
        <time>2021-07-27T07:17:04Z</time>
      </trkpt>
      <trkpt lat="45.90496" lon="3.02263">
        <ele>452</ele>
        <time>2021-07-27T07:17:05Z</time>
      </trkpt>
      <trkpt lat="45.90495" lon="3.02262">
        <ele>452</ele>
        <time>2021-07-27T07:17:06Z</time>
      </trkpt>
      <trkpt lat="45.90494" lon="3.0226">
        <ele>452</ele>
        <time>2021-07-27T07:17:07Z</time>
      </trkpt>
      <trkpt lat="45.90494" lon="3.02259">
        <ele>452</ele>
        <time>2021-07-27T07:17:08Z</time>
      </trkpt>
      <trkpt lat="45.90493" lon="3.02257">
        <ele>452</ele>
        <time>2021-07-27T07:17:09Z</time>
      </trkpt>
      <trkpt lat="45.90492" lon="3.02256">
        <ele>452</ele>
        <time>2021-07-27T07:17:10Z</time>
      </trkpt>
      <trkpt lat="45.90492" lon="3.02254">
        <ele>452</ele>
        <time>2021-07-27T07:17:11Z</time>
      </trkpt>
      <trkpt lat="45.90491" lon="3.02252">
        <ele>452</ele>
        <time>2021-07-27T07:17:12Z</time>
      </trkpt>
      <trkpt lat="45.9049" lon="3.0225">
        <ele>452</ele>
        <time>2021-07-27T07:17:13Z</time>
      </trkpt>
      <trkpt lat="45.90489" lon="3.02249">
        <ele>452</ele>
        <time>2021-07-27T07:17:14Z</time>
      </trkpt>
      <trkpt lat="45.90488" lon="3.02247">
        <ele>452</ele>
        <time>2021-07-27T07:17:15Z</time>
      </trkpt>
      <trkpt lat="45.90487" lon="3.02245">
        <ele>452</ele>
        <time>2021-07-27T07:17:16Z</time>
      </trkpt>
      <trkpt lat="45.90487" lon="3.02243">
        <ele>452</ele>
        <time>2021-07-27T07:17:17Z</time>
      </trkpt>
      <trkpt lat="45.90486" lon="3.02241">
        <ele>452</ele>
        <time>2021-07-27T07:17:18Z</time>
      </trkpt>
      <trkpt lat="45.90486" lon="3.02239">
        <ele>452</ele>
        <time>2021-07-27T07:17:19Z</time>
      </trkpt>
      <trkpt lat="45.90485" lon="3.02237">
        <ele>452</ele>
        <time>2021-07-27T07:17:20Z</time>
      </trkpt>
      <trkpt lat="45.90485" lon="3.02235">
        <ele>452</ele>
        <time>2021-07-27T07:17:21Z</time>
      </trkpt>
      <trkpt lat="45.90485" lon="3.02233">
        <ele>452</ele>
        <time>2021-07-27T07:17:22Z</time>
      </trkpt>
      <trkpt lat="45.90484" lon="3.02231">
        <ele>452</ele>
        <time>2021-07-27T07:17:23Z</time>
      </trkpt>
      <trkpt lat="45.90484" lon="3.02229">
        <ele>452</ele>
        <time>2021-07-27T07:17:24Z</time>
      </trkpt>
      <trkpt lat="45.90484" lon="3.02227">
        <ele>452</ele>
        <time>2021-07-27T07:17:25Z</time>
      </trkpt>
      <trkpt lat="45.90483" lon="3.02225">
        <ele>452</ele>
        <time>2021-07-27T07:17:26Z</time>
      </trkpt>
      <trkpt lat="45.90482" lon="3.02223">
        <ele>452</ele>
        <time>2021-07-27T07:17:27Z</time>
      </trkpt>
      <trkpt lat="45.90482" lon="3.02221">
        <ele>452</ele>
        <time>2021-07-27T07:17:28Z</time>
      </trkpt>
      <trkpt lat="45.90482" lon="3.0222">
        <ele>452</ele>
        <time>2021-07-27T07:17:29Z</time>
      </trkpt>
      <trkpt lat="45.90481" lon="3.02218">
        <ele>452</ele>
        <time>2021-07-27T07:17:30Z</time>
      </trkpt>
      <trkpt lat="45.9048" lon="3.02216">
        <ele>452</ele>
        <time>2021-07-27T07:17:31Z</time>
      </trkpt>
      <trkpt lat="45.90479" lon="3.02214">
        <ele>452</ele>
        <time>2021-07-27T07:17:32Z</time>
      </trkpt>
      <trkpt lat="45.90479" lon="3.02213">
        <ele>452</ele>
        <time>2021-07-27T07:17:33Z</time>
      </trkpt>
      <trkpt lat="45.90479" lon="3.02211">
        <ele>452</ele>
        <time>2021-07-27T07:17:34Z</time>
      </trkpt>
      <trkpt lat="45.90479" lon="3.0221">
        <ele>452</ele>
        <time>2021-07-27T07:17:35Z</time>
      </trkpt>
      <trkpt lat="45.90478" lon="3.02208">
        <ele>452</ele>
        <time>2021-07-27T07:17:36Z</time>
      </trkpt>
      <trkpt lat="45.90478" lon="3.02206">
        <ele>452</ele>
        <time>2021-07-27T07:17:37Z</time>
      </trkpt>
      <trkpt lat="45.90477" lon="3.02205">
        <ele>452</ele>
        <time>2021-07-27T07:17:38Z</time>
      </trkpt>
      <trkpt lat="45.90477" lon="3.02203">
        <ele>452</ele>
        <time>2021-07-27T07:17:39Z</time>
      </trkpt>
      <trkpt lat="45.90476" lon="3.02201">
        <ele>452</ele>
        <time>2021-07-27T07:17:40Z</time>
      </trkpt>
      <trkpt lat="45.90476" lon="3.02198">
        <ele>452</ele>
        <time>2021-07-27T07:17:41Z</time>
      </trkpt>
      <trkpt lat="45.90475" lon="3.02196">
        <ele>452</ele>
        <time>2021-07-27T07:17:42Z</time>
      </trkpt>
      <trkpt lat="45.90474" lon="3.02194">
        <ele>452</ele>
        <time>2021-07-27T07:17:44Z</time>
      </trkpt>
      <trkpt lat="45.90472" lon="3.02186">
        <ele>452</ele>
        <time>2021-07-27T07:17:45Z</time>
      </trkpt>
      <trkpt lat="45.90472" lon="3.02185">
        <ele>452</ele>
        <time>2021-07-27T07:17:46Z</time>
      </trkpt>
      <trkpt lat="45.90472" lon="3.02184">
        <ele>452</ele>
        <time>2021-07-27T07:17:47Z</time>
      </trkpt>
      <trkpt lat="45.90471" lon="3.02183">
        <ele>452</ele>
        <time>2021-07-27T07:17:48Z</time>
      </trkpt>
      <trkpt lat="45.90471" lon="3.02181">
        <ele>452</ele>
        <time>2021-07-27T07:17:49Z</time>
      </trkpt>
      <trkpt lat="45.90471" lon="3.02179">
        <ele>452</ele>
        <time>2021-07-27T07:17:50Z</time>
      </trkpt>
      <trkpt lat="45.9047" lon="3.02176">
        <ele>452</ele>
        <time>2021-07-27T07:17:51Z</time>
      </trkpt>
      <trkpt lat="45.9047" lon="3.02174">
        <ele>452</ele>
        <time>2021-07-27T07:17:52Z</time>
      </trkpt>
      <trkpt lat="45.9047" lon="3.02172">
        <ele>452</ele>
        <time>2021-07-27T07:17:53Z</time>
      </trkpt>
      <trkpt lat="45.9047" lon="3.02169">
        <ele>452</ele>
        <time>2021-07-27T07:17:54Z</time>
      </trkpt>
      <trkpt lat="45.90469" lon="3.02166">
        <ele>452</ele>
        <time>2021-07-27T07:17:55Z</time>
      </trkpt>
      <trkpt lat="45.90469" lon="3.02164">
        <ele>452</ele>
        <time>2021-07-27T07:17:56Z</time>
      </trkpt>
      <trkpt lat="45.90469" lon="3.02161">
        <ele>452</ele>
        <time>2021-07-27T07:17:57Z</time>
      </trkpt>
      <trkpt lat="45.90468" lon="3.02159">
        <ele>452</ele>
        <time>2021-07-27T07:17:58Z</time>
      </trkpt>
      <trkpt lat="45.90468" lon="3.02156">
        <ele>452</ele>
        <time>2021-07-27T07:17:59Z</time>
      </trkpt>
      <trkpt lat="45.90467" lon="3.02154">
        <ele>452</ele>
        <time>2021-07-27T07:18:00Z</time>
      </trkpt>
      <trkpt lat="45.90467" lon="3.02151">
        <ele>452</ele>
        <time>2021-07-27T07:18:01Z</time>
      </trkpt>
      <trkpt lat="45.90467" lon="3.02149">
        <ele>452</ele>
        <time>2021-07-27T07:18:02Z</time>
      </trkpt>
      <trkpt lat="45.90467" lon="3.02147">
        <ele>452</ele>
        <time>2021-07-27T07:18:03Z</time>
      </trkpt>
      <trkpt lat="45.90466" lon="3.02144">
        <ele>452</ele>
        <time>2021-07-27T07:18:04Z</time>
      </trkpt>
      <trkpt lat="45.90466" lon="3.02142">
        <ele>452</ele>
        <time>2021-07-27T07:18:05Z</time>
      </trkpt>
      <trkpt lat="45.90466" lon="3.0214">
        <ele>452</ele>
        <time>2021-07-27T07:18:06Z</time>
      </trkpt>
      <trkpt lat="45.90466" lon="3.02138">
        <ele>452</ele>
        <time>2021-07-27T07:18:07Z</time>
      </trkpt>
      <trkpt lat="45.90466" lon="3.02136">
        <ele>452</ele>
        <time>2021-07-27T07:18:08Z</time>
      </trkpt>
      <trkpt lat="45.90466" lon="3.02135">
        <ele>452</ele>
        <time>2021-07-27T07:18:09Z</time>
      </trkpt>
      <trkpt lat="45.90466" lon="3.02133">
        <ele>452</ele>
        <time>2021-07-27T07:18:10Z</time>
      </trkpt>
      <trkpt lat="45.90466" lon="3.02131">
        <ele>452</ele>
        <time>2021-07-27T07:18:11Z</time>
      </trkpt>
      <trkpt lat="45.90466" lon="3.02129">
        <ele>452</ele>
        <time>2021-07-27T07:18:12Z</time>
      </trkpt>
      <trkpt lat="45.90466" lon="3.02128">
        <ele>452</ele>
        <time>2021-07-27T07:18:13Z</time>
      </trkpt>
      <trkpt lat="45.90465" lon="3.02126">
        <ele>452</ele>
        <time>2021-07-27T07:18:14Z</time>
      </trkpt>
      <trkpt lat="45.90465" lon="3.02124">
        <ele>452</ele>
        <time>2021-07-27T07:18:15Z</time>
      </trkpt>
      <trkpt lat="45.90464" lon="3.02122">
        <ele>452</ele>
        <time>2021-07-27T07:18:16Z</time>
      </trkpt>
      <trkpt lat="45.90464" lon="3.0212">
        <ele>452</ele>
        <time>2021-07-27T07:18:17Z</time>
      </trkpt>
      <trkpt lat="45.90464" lon="3.02117">
        <ele>452</ele>
        <time>2021-07-27T07:18:18Z</time>
      </trkpt>
      <trkpt lat="45.90464" lon="3.02115">
        <ele>452</ele>
        <time>2021-07-27T07:18:19Z</time>
      </trkpt>
      <trkpt lat="45.90464" lon="3.02113">
        <ele>452</ele>
        <time>2021-07-27T07:18:20Z</time>
      </trkpt>
      <trkpt lat="45.90464" lon="3.02111">
        <ele>452</ele>
        <time>2021-07-27T07:18:21Z</time>
      </trkpt>
      <trkpt lat="45.90463" lon="3.02109">
        <ele>452</ele>
        <time>2021-07-27T07:18:22Z</time>
      </trkpt>
      <trkpt lat="45.90463" lon="3.02106">
        <ele>452</ele>
        <time>2021-07-27T07:18:23Z</time>
      </trkpt>
      <trkpt lat="45.90463" lon="3.02104">
        <ele>452</ele>
        <time>2021-07-27T07:18:24Z</time>
      </trkpt>
      <trkpt lat="45.90463" lon="3.02102">
        <ele>452</ele>
        <time>2021-07-27T07:18:25Z</time>
      </trkpt>
      <trkpt lat="45.90463" lon="3.021">
        <ele>452</ele>
        <time>2021-07-27T07:18:26Z</time>
      </trkpt>
      <trkpt lat="45.90463" lon="3.02099">
        <ele>452</ele>
        <time>2021-07-27T07:18:27Z</time>
      </trkpt>
      <trkpt lat="45.90463" lon="3.02097">
        <ele>452</ele>
        <time>2021-07-27T07:18:28Z</time>
      </trkpt>
      <trkpt lat="45.90462" lon="3.02095">
        <ele>452</ele>
        <time>2021-07-27T07:18:29Z</time>
      </trkpt>
      <trkpt lat="45.90462" lon="3.02092">
        <ele>452</ele>
        <time>2021-07-27T07:18:30Z</time>
      </trkpt>
      <trkpt lat="45.90461" lon="3.0209">
        <ele>452</ele>
        <time>2021-07-27T07:18:31Z</time>
      </trkpt>
      <trkpt lat="45.90461" lon="3.02088">
        <ele>452</ele>
        <time>2021-07-27T07:18:32Z</time>
      </trkpt>
      <trkpt lat="45.90461" lon="3.02086">
        <ele>452</ele>
        <time>2021-07-27T07:18:33Z</time>
      </trkpt>
      <trkpt lat="45.90461" lon="3.02083">
        <ele>452</ele>
        <time>2021-07-27T07:18:34Z</time>
      </trkpt>
      <trkpt lat="45.90461" lon="3.02081">
        <ele>452</ele>
        <time>2021-07-27T07:18:35Z</time>
      </trkpt>
      <trkpt lat="45.90461" lon="3.02079">
        <ele>452</ele>
        <time>2021-07-27T07:18:36Z</time>
      </trkpt>
      <trkpt lat="45.90461" lon="3.02076">
        <ele>452</ele>
        <time>2021-07-27T07:18:37Z</time>
      </trkpt>
      <trkpt lat="45.90461" lon="3.02074">
        <ele>452</ele>
        <time>2021-07-27T07:18:38Z</time>
      </trkpt>
      <trkpt lat="45.90461" lon="3.02072">
        <ele>452</ele>
        <time>2021-07-27T07:18:39Z</time>
      </trkpt>
      <trkpt lat="45.90461" lon="3.0207">
        <ele>452</ele>
        <time>2021-07-27T07:18:40Z</time>
      </trkpt>
      <trkpt lat="45.90461" lon="3.02068">
        <ele>452</ele>
        <time>2021-07-27T07:18:41Z</time>
      </trkpt>
      <trkpt lat="45.90461" lon="3.02066">
        <ele>452</ele>
        <time>2021-07-27T07:18:43Z</time>
      </trkpt>
      <trkpt lat="45.90461" lon="3.02058">
        <ele>452</ele>
        <time>2021-07-27T07:18:44Z</time>
      </trkpt>
      <trkpt lat="45.90461" lon="3.02057">
        <ele>452</ele>
        <time>2021-07-27T07:18:45Z</time>
      </trkpt>
      <trkpt lat="45.90461" lon="3.02056">
        <ele>452</ele>
        <time>2021-07-27T07:18:46Z</time>
      </trkpt>
      <trkpt lat="45.90461" lon="3.02054">
        <ele>452</ele>
        <time>2021-07-27T07:18:47Z</time>
      </trkpt>
      <trkpt lat="45.90462" lon="3.02052">
        <ele>452</ele>
        <time>2021-07-27T07:18:48Z</time>
      </trkpt>
      <trkpt lat="45.90463" lon="3.02049">
        <ele>452</ele>
        <time>2021-07-27T07:18:49Z</time>
      </trkpt>
      <trkpt lat="45.90463" lon="3.02047">
        <ele>452</ele>
        <time>2021-07-27T07:18:50Z</time>
      </trkpt>
      <trkpt lat="45.90463" lon="3.02045">
        <ele>452</ele>
        <time>2021-07-27T07:18:51Z</time>
      </trkpt>
      <trkpt lat="45.90463" lon="3.02043">
        <ele>452</ele>
        <time>2021-07-27T07:18:52Z</time>
      </trkpt>
      <trkpt lat="45.90463" lon="3.02041">
        <ele>452</ele>
        <time>2021-07-27T07:18:53Z</time>
      </trkpt>
      <trkpt lat="45.90463" lon="3.02039">
        <ele>452</ele>
        <time>2021-07-27T07:18:54Z</time>
      </trkpt>
      <trkpt lat="45.90462" lon="3.02037">
        <ele>452</ele>
        <time>2021-07-27T07:18:55Z</time>
      </trkpt>
      <trkpt lat="45.90462" lon="3.02035">
        <ele>452</ele>
        <time>2021-07-27T07:18:56Z</time>
      </trkpt>
      <trkpt lat="45.90462" lon="3.02033">
        <ele>452</ele>
        <time>2021-07-27T07:18:57Z</time>
      </trkpt>
      <trkpt lat="45.90462" lon="3.02031">
        <ele>452</ele>
        <time>2021-07-27T07:18:58Z</time>
      </trkpt>
      <trkpt lat="45.90463" lon="3.0203">
        <ele>452</ele>
        <time>2021-07-27T07:18:59Z</time>
      </trkpt>
      <trkpt lat="45.90463" lon="3.02028">
        <ele>452</ele>
        <time>2021-07-27T07:19:00Z</time>
      </trkpt>
      <trkpt lat="45.90463" lon="3.02026">
        <ele>452</ele>
        <time>2021-07-27T07:19:01Z</time>
      </trkpt>
      <trkpt lat="45.90463" lon="3.02024">
        <ele>452</ele>
        <time>2021-07-27T07:19:02Z</time>
      </trkpt>
      <trkpt lat="45.90463" lon="3.02022">
        <ele>452</ele>
        <time>2021-07-27T07:19:03Z</time>
      </trkpt>
      <trkpt lat="45.90463" lon="3.0202">
        <ele>452</ele>
        <time>2021-07-27T07:19:04Z</time>
      </trkpt>
      <trkpt lat="45.90462" lon="3.02018">
        <ele>452</ele>
        <time>2021-07-27T07:19:05Z</time>
      </trkpt>
      <trkpt lat="45.90461" lon="3.02015">
        <ele>452</ele>
        <time>2021-07-27T07:19:06Z</time>
      </trkpt>
      <trkpt lat="45.90461" lon="3.02013">
        <ele>452</ele>
        <time>2021-07-27T07:19:07Z</time>
      </trkpt>
      <trkpt lat="45.90461" lon="3.02011">
        <ele>452</ele>
        <time>2021-07-27T07:19:08Z</time>
      </trkpt>
      <trkpt lat="45.90461" lon="3.02008">
        <ele>452</ele>
        <time>2021-07-27T07:19:09Z</time>
      </trkpt>
      <trkpt lat="45.90461" lon="3.02006">
        <ele>452</ele>
        <time>2021-07-27T07:19:10Z</time>
      </trkpt>
      <trkpt lat="45.90461" lon="3.02004">
        <ele>452</ele>
        <time>2021-07-27T07:19:11Z</time>
      </trkpt>
      <trkpt lat="45.90461" lon="3.02002">
        <ele>452</ele>
        <time>2021-07-27T07:19:12Z</time>
      </trkpt>
      <trkpt lat="45.9046" lon="3.01999">
        <ele>452</ele>
        <time>2021-07-27T07:19:13Z</time>
      </trkpt>
      <trkpt lat="45.90459" lon="3.01997">
        <ele>452</ele>
        <time>2021-07-27T07:19:14Z</time>
      </trkpt>
      <trkpt lat="45.90459" lon="3.01995">
        <ele>452</ele>
        <time>2021-07-27T07:19:15Z</time>
      </trkpt>
      <trkpt lat="45.90459" lon="3.01993">
        <ele>452</ele>
        <time>2021-07-27T07:19:16Z</time>
      </trkpt>
      <trkpt lat="45.90459" lon="3.01991">
        <ele>452</ele>
        <time>2021-07-27T07:19:17Z</time>
      </trkpt>
      <trkpt lat="45.90459" lon="3.01989">
        <ele>452</ele>
        <time>2021-07-27T07:19:18Z</time>
      </trkpt>
      <trkpt lat="45.90458" lon="3.01987">
        <ele>452</ele>
        <time>2021-07-27T07:19:19Z</time>
      </trkpt>
      <trkpt lat="45.90458" lon="3.01985">
        <ele>452</ele>
        <time>2021-07-27T07:19:20Z</time>
      </trkpt>
      <trkpt lat="45.90458" lon="3.01984">
        <ele>452</ele>
        <time>2021-07-27T07:19:21Z</time>
      </trkpt>
      <trkpt lat="45.90458" lon="3.01982">
        <ele>452</ele>
        <time>2021-07-27T07:19:22Z</time>
      </trkpt>
      <trkpt lat="45.90457" lon="3.0198">
        <ele>452</ele>
        <time>2021-07-27T07:19:23Z</time>
      </trkpt>
      <trkpt lat="45.90457" lon="3.01978">
        <ele>452</ele>
        <time>2021-07-27T07:19:24Z</time>
      </trkpt>
      <trkpt lat="45.90457" lon="3.01976">
        <ele>452</ele>
        <time>2021-07-27T07:19:25Z</time>
      </trkpt>
      <trkpt lat="45.90457" lon="3.01974">
        <ele>452</ele>
        <time>2021-07-27T07:19:26Z</time>
      </trkpt>
      <trkpt lat="45.90457" lon="3.01972">
        <ele>452</ele>
        <time>2021-07-27T07:19:27Z</time>
      </trkpt>
      <trkpt lat="45.90456" lon="3.0197">
        <ele>452</ele>
        <time>2021-07-27T07:19:28Z</time>
      </trkpt>
      <trkpt lat="45.90456" lon="3.01968">
        <ele>452</ele>
        <time>2021-07-27T07:19:29Z</time>
      </trkpt>
      <trkpt lat="45.90456" lon="3.01967">
        <ele>452</ele>
        <time>2021-07-27T07:19:30Z</time>
      </trkpt>
      <trkpt lat="45.90456" lon="3.01965">
        <ele>452</ele>
        <time>2021-07-27T07:19:31Z</time>
      </trkpt>
      <trkpt lat="45.90456" lon="3.01963">
        <ele>452</ele>
        <time>2021-07-27T07:19:32Z</time>
      </trkpt>
      <trkpt lat="45.90456" lon="3.01961">
        <ele>452</ele>
        <time>2021-07-27T07:19:32Z</time>
      </trkpt>
      <trkpt lat="45.90456" lon="3.01959">
        <ele>452</ele>
        <time>2021-07-27T07:19:33Z</time>
      </trkpt>
      <trkpt lat="45.90455" lon="3.01957">
        <ele>452</ele>
        <time>2021-07-27T07:19:34Z</time>
      </trkpt>
      <trkpt lat="45.90455" lon="3.01954">
        <ele>452</ele>
        <time>2021-07-27T07:19:36Z</time>
      </trkpt>
      <trkpt lat="45.90453" lon="3.01944">
        <ele>452</ele>
        <time>2021-07-27T07:19:37Z</time>
      </trkpt>
      <trkpt lat="45.90452" lon="3.01943">
        <ele>452</ele>
        <time>2021-07-27T07:19:38Z</time>
      </trkpt>
      <trkpt lat="45.90452" lon="3.01942">
        <ele>452</ele>
        <time>2021-07-27T07:19:39Z</time>
      </trkpt>
      <trkpt lat="45.90452" lon="3.01941">
        <ele>452</ele>
        <time>2021-07-27T07:19:42Z</time>
      </trkpt>
      <trkpt lat="45.9045" lon="3.0193">
        <ele>452</ele>
        <time>2021-07-27T07:19:43Z</time>
      </trkpt>
      <trkpt lat="45.9045" lon="3.01929">
        <ele>452</ele>
        <time>2021-07-27T07:19:44Z</time>
      </trkpt>
      <trkpt lat="45.9045" lon="3.01928">
        <ele>452</ele>
        <time>2021-07-27T07:19:45Z</time>
      </trkpt>
      <trkpt lat="45.90449" lon="3.01926">
        <ele>452</ele>
        <time>2021-07-27T07:19:46Z</time>
      </trkpt>
      <trkpt lat="45.90449" lon="3.01924">
        <ele>452</ele>
        <time>2021-07-27T07:19:47Z</time>
      </trkpt>
      <trkpt lat="45.90449" lon="3.01922">
        <ele>452</ele>
        <time>2021-07-27T07:19:48Z</time>
      </trkpt>
      <trkpt lat="45.90448" lon="3.01921">
        <ele>452</ele>
        <time>2021-07-27T07:19:49Z</time>
      </trkpt>
      <trkpt lat="45.90448" lon="3.01919">
        <ele>452</ele>
        <time>2021-07-27T07:19:50Z</time>
      </trkpt>
      <trkpt lat="45.90448" lon="3.01917">
        <ele>452</ele>
        <time>2021-07-27T07:19:51Z</time>
      </trkpt>
      <trkpt lat="45.90447" lon="3.01915">
        <ele>452</ele>
        <time>2021-07-27T07:19:52Z</time>
      </trkpt>
      <trkpt lat="45.90447" lon="3.01913">
        <ele>452</ele>
        <time>2021-07-27T07:19:53Z</time>
      </trkpt>
      <trkpt lat="45.90447" lon="3.01912">
        <ele>452</ele>
        <time>2021-07-27T07:19:54Z</time>
      </trkpt>
      <trkpt lat="45.90446" lon="3.0191">
        <ele>452</ele>
        <time>2021-07-27T07:19:55Z</time>
      </trkpt>
      <trkpt lat="45.90446" lon="3.01909">
        <ele>452</ele>
        <time>2021-07-27T07:19:56Z</time>
      </trkpt>
      <trkpt lat="45.90446" lon="3.01907">
        <ele>452</ele>
        <time>2021-07-27T07:19:57Z</time>
      </trkpt>
      <trkpt lat="45.90445" lon="3.01905">
        <ele>452</ele>
        <time>2021-07-27T07:19:58Z</time>
      </trkpt>
      <trkpt lat="45.90445" lon="3.01903">
        <ele>452</ele>
        <time>2021-07-27T07:19:59Z</time>
      </trkpt>
      <trkpt lat="45.90444" lon="3.01901">
        <ele>452</ele>
        <time>2021-07-27T07:20:00Z</time>
      </trkpt>
      <trkpt lat="45.90443" lon="3.01898">
        <ele>452</ele>
        <time>2021-07-27T07:20:01Z</time>
      </trkpt>
      <trkpt lat="45.90443" lon="3.01896">
        <ele>452</ele>
        <time>2021-07-27T07:20:02Z</time>
      </trkpt>
      <trkpt lat="45.90443" lon="3.01894">
        <ele>452</ele>
        <time>2021-07-27T07:20:03Z</time>
      </trkpt>
      <trkpt lat="45.90442" lon="3.01891">
        <ele>452</ele>
        <time>2021-07-27T07:20:04Z</time>
      </trkpt>
      <trkpt lat="45.90442" lon="3.01889">
        <ele>452</ele>
        <time>2021-07-27T07:20:05Z</time>
      </trkpt>
      <trkpt lat="45.90441" lon="3.01886">
        <ele>452</ele>
        <time>2021-07-27T07:20:06Z</time>
      </trkpt>
      <trkpt lat="45.90441" lon="3.01884">
        <ele>452</ele>
        <time>2021-07-27T07:20:07Z</time>
      </trkpt>
      <trkpt lat="45.9044" lon="3.01881">
        <ele>452</ele>
        <time>2021-07-27T07:20:08Z</time>
      </trkpt>
      <trkpt lat="45.9044" lon="3.01879">
        <ele>452</ele>
        <time>2021-07-27T07:20:09Z</time>
      </trkpt>
      <trkpt lat="45.9044" lon="3.01877">
        <ele>452</ele>
        <time>2021-07-27T07:20:10Z</time>
      </trkpt>
      <trkpt lat="45.9044" lon="3.01874">
        <ele>452</ele>
        <time>2021-07-27T07:20:11Z</time>
      </trkpt>
      <trkpt lat="45.9044" lon="3.01872">
        <ele>452</ele>
        <time>2021-07-27T07:20:12Z</time>
      </trkpt>
      <trkpt lat="45.90439" lon="3.0187">
        <ele>452</ele>
        <time>2021-07-27T07:20:13Z</time>
      </trkpt>
      <trkpt lat="45.90439" lon="3.01868">
        <ele>452</ele>
        <time>2021-07-27T07:20:14Z</time>
      </trkpt>
      <trkpt lat="45.90438" lon="3.01866">
        <ele>452</ele>
        <time>2021-07-27T07:20:15Z</time>
      </trkpt>
      <trkpt lat="45.90438" lon="3.01864">
        <ele>452</ele>
        <time>2021-07-27T07:20:16Z</time>
      </trkpt>
      <trkpt lat="45.90437" lon="3.01862">
        <ele>452</ele>
        <time>2021-07-27T07:20:17Z</time>
      </trkpt>
      <trkpt lat="45.90437" lon="3.01861">
        <ele>452</ele>
        <time>2021-07-27T07:20:18Z</time>
      </trkpt>
      <trkpt lat="45.90436" lon="3.01859">
        <ele>452</ele>
        <time>2021-07-27T07:20:19Z</time>
      </trkpt>
      <trkpt lat="45.90436" lon="3.01858">
        <ele>452</ele>
        <time>2021-07-27T07:20:20Z</time>
      </trkpt>
      <trkpt lat="45.90435" lon="3.01856">
        <ele>452</ele>
        <time>2021-07-27T07:20:21Z</time>
      </trkpt>
      <trkpt lat="45.90434" lon="3.01855">
        <ele>452</ele>
        <time>2021-07-27T07:20:22Z</time>
      </trkpt>
      <trkpt lat="45.90434" lon="3.01853">
        <ele>452</ele>
        <time>2021-07-27T07:20:23Z</time>
      </trkpt>
      <trkpt lat="45.90433" lon="3.01851">
        <ele>452</ele>
        <time>2021-07-27T07:20:24Z</time>
      </trkpt>
      <trkpt lat="45.90433" lon="3.01849">
        <ele>452</ele>
        <time>2021-07-27T07:20:25Z</time>
      </trkpt>
      <trkpt lat="45.90432" lon="3.01847">
        <ele>452</ele>
        <time>2021-07-27T07:20:26Z</time>
      </trkpt>
      <trkpt lat="45.90432" lon="3.01845">
        <ele>452</ele>
        <time>2021-07-27T07:20:27Z</time>
      </trkpt>
      <trkpt lat="45.90431" lon="3.01843">
        <ele>452</ele>
        <time>2021-07-27T07:20:28Z</time>
      </trkpt>
      <trkpt lat="45.90431" lon="3.01841">
        <ele>452</ele>
        <time>2021-07-27T07:20:29Z</time>
      </trkpt>
      <trkpt lat="45.9043" lon="3.01839">
        <ele>452</ele>
        <time>2021-07-27T07:20:30Z</time>
      </trkpt>
      <trkpt lat="45.90429" lon="3.01837">
        <ele>452</ele>
        <time>2021-07-27T07:20:31Z</time>
      </trkpt>
      <trkpt lat="45.90429" lon="3.01835">
        <ele>452</ele>
        <time>2021-07-27T07:20:32Z</time>
      </trkpt>
      <trkpt lat="45.90428" lon="3.01833">
        <ele>452</ele>
        <time>2021-07-27T07:20:33Z</time>
      </trkpt>
      <trkpt lat="45.90427" lon="3.01832">
        <ele>452</ele>
        <time>2021-07-27T07:20:34Z</time>
      </trkpt>
      <trkpt lat="45.90427" lon="3.0183">
        <ele>452</ele>
        <time>2021-07-27T07:20:35Z</time>
      </trkpt>
      <trkpt lat="45.90426" lon="3.01828">
        <ele>452</ele>
        <time>2021-07-27T07:20:36Z</time>
      </trkpt>
      <trkpt lat="45.90426" lon="3.01826">
        <ele>452</ele>
        <time>2021-07-27T07:20:37Z</time>
      </trkpt>
      <trkpt lat="45.90425" lon="3.01824">
        <ele>452</ele>
        <time>2021-07-27T07:20:38Z</time>
      </trkpt>
      <trkpt lat="45.90424" lon="3.01821">
        <ele>452</ele>
        <time>2021-07-27T07:20:39Z</time>
      </trkpt>
      <trkpt lat="45.90424" lon="3.01819">
        <ele>452</ele>
        <time>2021-07-27T07:20:40Z</time>
      </trkpt>
      <trkpt lat="45.90423" lon="3.01817">
        <ele>452</ele>
        <time>2021-07-27T07:20:42Z</time>
      </trkpt>
      <trkpt lat="45.90422" lon="3.01808">
        <ele>452</ele>
        <time>2021-07-27T07:20:43Z</time>
      </trkpt>
      <trkpt lat="45.90422" lon="3.01807">
        <ele>452</ele>
        <time>2021-07-27T07:20:44Z</time>
      </trkpt>
      <trkpt lat="45.90422" lon="3.01806">
        <ele>452</ele>
        <time>2021-07-27T07:20:45Z</time>
      </trkpt>
      <trkpt lat="45.90422" lon="3.01805">
        <ele>452</ele>
        <time>2021-07-27T07:20:46Z</time>
      </trkpt>
      <trkpt lat="45.90421" lon="3.01803">
        <ele>452</ele>
        <time>2021-07-27T07:20:47Z</time>
      </trkpt>
      <trkpt lat="45.90421" lon="3.01801">
        <ele>452</ele>
        <time>2021-07-27T07:20:48Z</time>
      </trkpt>
      <trkpt lat="45.90421" lon="3.01799">
        <ele>452</ele>
        <time>2021-07-27T07:20:49Z</time>
      </trkpt>
      <trkpt lat="45.90421" lon="3.01797">
        <ele>452</ele>
        <time>2021-07-27T07:20:50Z</time>
      </trkpt>
      <trkpt lat="45.90421" lon="3.01795">
        <ele>452</ele>
        <time>2021-07-27T07:20:51Z</time>
      </trkpt>
      <trkpt lat="45.9042" lon="3.01793">
        <ele>452</ele>
        <time>2021-07-27T07:20:52Z</time>
      </trkpt>
      <trkpt lat="45.9042" lon="3.01792">
        <ele>452</ele>
        <time>2021-07-27T07:20:53Z</time>
      </trkpt>
      <trkpt lat="45.9042" lon="3.0179">
        <ele>452</ele>
        <time>2021-07-27T07:20:54Z</time>
      </trkpt>
      <trkpt lat="45.90419" lon="3.01787">
        <ele>452</ele>
        <time>2021-07-27T07:20:55Z</time>
      </trkpt>
      <trkpt lat="45.90419" lon="3.01785">
        <ele>452</ele>
        <time>2021-07-27T07:20:56Z</time>
      </trkpt>
      <trkpt lat="45.90419" lon="3.01783">
        <ele>452</ele>
        <time>2021-07-27T07:20:57Z</time>
      </trkpt>
      <trkpt lat="45.90419" lon="3.01781">
        <ele>452</ele>
        <time>2021-07-27T07:20:58Z</time>
      </trkpt>
      <trkpt lat="45.90418" lon="3.01779">
        <ele>452</ele>
        <time>2021-07-27T07:20:59Z</time>
      </trkpt>
      <trkpt lat="45.90418" lon="3.01777">
        <ele>452</ele>
        <time>2021-07-27T07:21:00Z</time>
      </trkpt>
      <trkpt lat="45.90418" lon="3.01775">
        <ele>452</ele>
        <time>2021-07-27T07:21:01Z</time>
      </trkpt>
      <trkpt lat="45.90418" lon="3.01773">
        <ele>452</ele>
        <time>2021-07-27T07:21:02Z</time>
      </trkpt>
      <trkpt lat="45.90418" lon="3.01771">
        <ele>452</ele>
        <time>2021-07-27T07:21:03Z</time>
      </trkpt>
      <trkpt lat="45.90416" lon="3.0177">
        <ele>452</ele>
        <time>2021-07-27T07:21:04Z</time>
      </trkpt>
      <trkpt lat="45.90416" lon="3.01768">
        <ele>452</ele>
        <time>2021-07-27T07:21:05Z</time>
      </trkpt>
      <trkpt lat="45.90416" lon="3.01766">
        <ele>452</ele>
        <time>2021-07-27T07:21:06Z</time>
      </trkpt>
      <trkpt lat="45.90415" lon="3.01764">
        <ele>452</ele>
        <time>2021-07-27T07:21:07Z</time>
      </trkpt>
      <trkpt lat="45.90415" lon="3.01762">
        <ele>452</ele>
        <time>2021-07-27T07:21:08Z</time>
      </trkpt>
      <trkpt lat="45.90414" lon="3.0176">
        <ele>452</ele>
        <time>2021-07-27T07:21:09Z</time>
      </trkpt>
      <trkpt lat="45.90414" lon="3.01758">
        <ele>452</ele>
        <time>2021-07-27T07:21:10Z</time>
      </trkpt>
      <trkpt lat="45.90413" lon="3.01756">
        <ele>452</ele>
        <time>2021-07-27T07:21:11Z</time>
      </trkpt>
      <trkpt lat="45.90413" lon="3.01755">
        <ele>452</ele>
        <time>2021-07-27T07:21:12Z</time>
      </trkpt>
      <trkpt lat="45.90413" lon="3.01754">
        <ele>452</ele>
        <time>2021-07-27T07:21:13Z</time>
      </trkpt>
      <trkpt lat="45.90413" lon="3.01753">
        <ele>452</ele>
        <time>2021-07-27T07:21:14Z</time>
      </trkpt>
      <trkpt lat="45.90413" lon="3.01752">
        <ele>452</ele>
        <time>2021-07-27T07:21:15Z</time>
      </trkpt>
      <trkpt lat="45.90412" lon="3.01752">
        <ele>452</ele>
        <time>2021-07-27T07:21:16Z</time>
      </trkpt>
      <trkpt lat="45.90412" lon="3.01751">
        <ele>452</ele>
        <time>2021-07-27T07:21:17Z</time>
      </trkpt>
      <trkpt lat="45.90412" lon="3.01749">
        <ele>452</ele>
        <time>2021-07-27T07:21:18Z</time>
      </trkpt>
      <trkpt lat="45.90412" lon="3.01748">
        <ele>452</ele>
        <time>2021-07-27T07:21:19Z</time>
      </trkpt>
      <trkpt lat="45.90412" lon="3.01746">
        <ele>452</ele>
        <time>2021-07-27T07:21:20Z</time>
      </trkpt>
      <trkpt lat="45.90412" lon="3.01745">
        <ele>452</ele>
        <time>2021-07-27T07:21:21Z</time>
      </trkpt>
      <trkpt lat="45.90411" lon="3.01743">
        <ele>452</ele>
        <time>2021-07-27T07:21:22Z</time>
      </trkpt>
      <trkpt lat="45.90411" lon="3.01741">
        <ele>452</ele>
        <time>2021-07-27T07:21:23Z</time>
      </trkpt>
      <trkpt lat="45.90411" lon="3.0174">
        <ele>452</ele>
        <time>2021-07-27T07:21:24Z</time>
      </trkpt>
      <trkpt lat="45.9041" lon="3.01738">
        <ele>452</ele>
        <time>2021-07-27T07:21:25Z</time>
      </trkpt>
      <trkpt lat="45.9041" lon="3.01736">
        <ele>452</ele>
        <time>2021-07-27T07:21:26Z</time>
      </trkpt>
      <trkpt lat="45.90409" lon="3.01734">
        <ele>452</ele>
        <time>2021-07-27T07:21:27Z</time>
      </trkpt>
      <trkpt lat="45.90409" lon="3.01732">
        <ele>452</ele>
        <time>2021-07-27T07:21:28Z</time>
      </trkpt>
      <trkpt lat="45.90408" lon="3.0173">
        <ele>452</ele>
        <time>2021-07-27T07:21:29Z</time>
      </trkpt>
      <trkpt lat="45.90407" lon="3.01728">
        <ele>452</ele>
        <time>2021-07-27T07:21:30Z</time>
      </trkpt>
      <trkpt lat="45.90407" lon="3.01726">
        <ele>452</ele>
        <time>2021-07-27T07:21:31Z</time>
      </trkpt>
      <trkpt lat="45.90406" lon="3.01725">
        <ele>452</ele>
        <time>2021-07-27T07:21:32Z</time>
      </trkpt>
      <trkpt lat="45.90405" lon="3.01723">
        <ele>452</ele>
        <time>2021-07-27T07:21:33Z</time>
      </trkpt>
      <trkpt lat="45.90404" lon="3.01722">
        <ele>452</ele>
        <time>2021-07-27T07:21:34Z</time>
      </trkpt>
      <trkpt lat="45.90403" lon="3.0172">
        <ele>452</ele>
        <time>2021-07-27T07:21:35Z</time>
      </trkpt>
      <trkpt lat="45.90403" lon="3.01718">
        <ele>452</ele>
        <time>2021-07-27T07:21:36Z</time>
      </trkpt>
      <trkpt lat="45.90402" lon="3.01716">
        <ele>452</ele>
        <time>2021-07-27T07:21:37Z</time>
      </trkpt>
      <trkpt lat="45.90401" lon="3.01714">
        <ele>452</ele>
        <time>2021-07-27T07:21:38Z</time>
      </trkpt>
      <trkpt lat="45.904" lon="3.01712">
        <ele>452</ele>
        <time>2021-07-27T07:21:39Z</time>
      </trkpt>
      <trkpt lat="45.90399" lon="3.0171">
        <ele>452</ele>
        <time>2021-07-27T07:21:40Z</time>
      </trkpt>
      <trkpt lat="45.90398" lon="3.01708">
        <ele>452</ele>
        <time>2021-07-27T07:21:42Z</time>
      </trkpt>
      <trkpt lat="45.90398" lon="3.01699">
        <ele>452</ele>
        <time>2021-07-27T07:21:43Z</time>
      </trkpt>
      <trkpt lat="45.90398" lon="3.01698">
        <ele>452</ele>
        <time>2021-07-27T07:21:44Z</time>
      </trkpt>
      <trkpt lat="45.90398" lon="3.01697">
        <ele>452</ele>
        <time>2021-07-27T07:21:45Z</time>
      </trkpt>
      <trkpt lat="45.90398" lon="3.01695">
        <ele>452</ele>
        <time>2021-07-27T07:21:46Z</time>
      </trkpt>
      <trkpt lat="45.90398" lon="3.01693">
        <ele>452</ele>
        <time>2021-07-27T07:21:47Z</time>
      </trkpt>
      <trkpt lat="45.90398" lon="3.01691">
        <ele>452</ele>
        <time>2021-07-27T07:21:48Z</time>
      </trkpt>
      <trkpt lat="45.90398" lon="3.01689">
        <ele>452</ele>
        <time>2021-07-27T07:21:49Z</time>
      </trkpt>
      <trkpt lat="45.90399" lon="3.01687">
        <ele>452</ele>
        <time>2021-07-27T07:21:50Z</time>
      </trkpt>
      <trkpt lat="45.90399" lon="3.01684">
        <ele>452</ele>
        <time>2021-07-27T07:21:51Z</time>
      </trkpt>
      <trkpt lat="45.90399" lon="3.01682">
        <ele>452</ele>
        <time>2021-07-27T07:21:52Z</time>
      </trkpt>
      <trkpt lat="45.90399" lon="3.0168">
        <ele>452</ele>
        <time>2021-07-27T07:21:53Z</time>
      </trkpt>
      <trkpt lat="45.90399" lon="3.01678">
        <ele>452</ele>
        <time>2021-07-27T07:21:54Z</time>
      </trkpt>
      <trkpt lat="45.90399" lon="3.01676">
        <ele>452</ele>
        <time>2021-07-27T07:21:55Z</time>
      </trkpt>
      <trkpt lat="45.90398" lon="3.01674">
        <ele>452</ele>
        <time>2021-07-27T07:21:56Z</time>
      </trkpt>
      <trkpt lat="45.90398" lon="3.01672">
        <ele>452</ele>
        <time>2021-07-27T07:21:57Z</time>
      </trkpt>
      <trkpt lat="45.90397" lon="3.0167">
        <ele>452</ele>
        <time>2021-07-27T07:21:58Z</time>
      </trkpt>
      <trkpt lat="45.90397" lon="3.01667">
        <ele>452</ele>
        <time>2021-07-27T07:21:59Z</time>
      </trkpt>
      <trkpt lat="45.90397" lon="3.01665">
        <ele>452</ele>
        <time>2021-07-27T07:22:00Z</time>
      </trkpt>
      <trkpt lat="45.90397" lon="3.01663">
        <ele>452</ele>
        <time>2021-07-27T07:22:01Z</time>
      </trkpt>
      <trkpt lat="45.90395" lon="3.01661">
        <ele>452</ele>
        <time>2021-07-27T07:22:02Z</time>
      </trkpt>
      <trkpt lat="45.90395" lon="3.01659">
        <ele>452</ele>
        <time>2021-07-27T07:22:03Z</time>
      </trkpt>
      <trkpt lat="45.90395" lon="3.01657">
        <ele>452</ele>
        <time>2021-07-27T07:22:04Z</time>
      </trkpt>
      <trkpt lat="45.90394" lon="3.01655">
        <ele>452</ele>
        <time>2021-07-27T07:22:05Z</time>
      </trkpt>
      <trkpt lat="45.90393" lon="3.01653">
        <ele>452</ele>
        <time>2021-07-27T07:22:06Z</time>
      </trkpt>
      <trkpt lat="45.90393" lon="3.01651">
        <ele>452</ele>
        <time>2021-07-27T07:22:07Z</time>
      </trkpt>
      <trkpt lat="45.90392" lon="3.01649">
        <ele>452</ele>
        <time>2021-07-27T07:22:08Z</time>
      </trkpt>
      <trkpt lat="45.90392" lon="3.01648">
        <ele>452</ele>
        <time>2021-07-27T07:22:09Z</time>
      </trkpt>
      <trkpt lat="45.90391" lon="3.01646">
        <ele>452</ele>
        <time>2021-07-27T07:22:10Z</time>
      </trkpt>
      <trkpt lat="45.90391" lon="3.01644">
        <ele>452</ele>
        <time>2021-07-27T07:22:11Z</time>
      </trkpt>
      <trkpt lat="45.9039" lon="3.01643">
        <ele>452</ele>
        <time>2021-07-27T07:22:12Z</time>
      </trkpt>
      <trkpt lat="45.90389" lon="3.01641">
        <ele>452</ele>
        <time>2021-07-27T07:22:13Z</time>
      </trkpt>
      <trkpt lat="45.90389" lon="3.01639">
        <ele>452</ele>
        <time>2021-07-27T07:22:14Z</time>
      </trkpt>
      <trkpt lat="45.90388" lon="3.01637">
        <ele>452</ele>
        <time>2021-07-27T07:22:15Z</time>
      </trkpt>
      <trkpt lat="45.90387" lon="3.01635">
        <ele>452</ele>
        <time>2021-07-27T07:22:16Z</time>
      </trkpt>
      <trkpt lat="45.90387" lon="3.01633">
        <ele>452</ele>
        <time>2021-07-27T07:22:17Z</time>
      </trkpt>
      <trkpt lat="45.90386" lon="3.01632">
        <ele>452</ele>
        <time>2021-07-27T07:22:18Z</time>
      </trkpt>
      <trkpt lat="45.90385" lon="3.0163">
        <ele>452</ele>
        <time>2021-07-27T07:22:19Z</time>
      </trkpt>
      <trkpt lat="45.90385" lon="3.01628">
        <ele>452</ele>
        <time>2021-07-27T07:22:20Z</time>
      </trkpt>
      <trkpt lat="45.90384" lon="3.01625">
        <ele>452</ele>
        <time>2021-07-27T07:22:21Z</time>
      </trkpt>
      <trkpt lat="45.90383" lon="3.01624">
        <ele>452</ele>
        <time>2021-07-27T07:22:22Z</time>
      </trkpt>
      <trkpt lat="45.90382" lon="3.01622">
        <ele>452</ele>
        <time>2021-07-27T07:22:23Z</time>
      </trkpt>
      <trkpt lat="45.90382" lon="3.0162">
        <ele>452</ele>
        <time>2021-07-27T07:22:24Z</time>
      </trkpt>
      <trkpt lat="45.90381" lon="3.01618">
        <ele>452</ele>
        <time>2021-07-27T07:22:25Z</time>
      </trkpt>
      <trkpt lat="45.9038" lon="3.01616">
        <ele>452</ele>
        <time>2021-07-27T07:22:26Z</time>
      </trkpt>
      <trkpt lat="45.90379" lon="3.01614">
        <ele>452</ele>
        <time>2021-07-27T07:22:27Z</time>
      </trkpt>
      <trkpt lat="45.90379" lon="3.01612">
        <ele>452</ele>
        <time>2021-07-27T07:22:28Z</time>
      </trkpt>
      <trkpt lat="45.90378" lon="3.0161">
        <ele>452</ele>
        <time>2021-07-27T07:22:29Z</time>
      </trkpt>
      <trkpt lat="45.90377" lon="3.01608">
        <ele>452</ele>
        <time>2021-07-27T07:22:30Z</time>
      </trkpt>
      <trkpt lat="45.90376" lon="3.01607">
        <ele>452</ele>
        <time>2021-07-27T07:22:31Z</time>
      </trkpt>
      <trkpt lat="45.90376" lon="3.01605">
        <ele>452</ele>
        <time>2021-07-27T07:22:32Z</time>
      </trkpt>
      <trkpt lat="45.90376" lon="3.01603">
        <ele>452</ele>
        <time>2021-07-27T07:22:33Z</time>
      </trkpt>
      <trkpt lat="45.90375" lon="3.016">
        <ele>452</ele>
        <time>2021-07-27T07:22:34Z</time>
      </trkpt>
      <trkpt lat="45.90374" lon="3.01598">
        <ele>452</ele>
        <time>2021-07-27T07:22:35Z</time>
      </trkpt>
      <trkpt lat="45.90373" lon="3.01596">
        <ele>452</ele>
        <time>2021-07-27T07:22:36Z</time>
      </trkpt>
      <trkpt lat="45.90373" lon="3.01594">
        <ele>452</ele>
        <time>2021-07-27T07:22:37Z</time>
      </trkpt>
      <trkpt lat="45.90373" lon="3.01592">
        <ele>452</ele>
        <time>2021-07-27T07:22:38Z</time>
      </trkpt>
      <trkpt lat="45.90372" lon="3.0159">
        <ele>452</ele>
        <time>2021-07-27T07:22:39Z</time>
      </trkpt>
      <trkpt lat="45.90371" lon="3.01588">
        <ele>452</ele>
        <time>2021-07-27T07:22:40Z</time>
      </trkpt>
      <trkpt lat="45.9037" lon="3.01586">
        <ele>452</ele>
        <time>2021-07-27T07:22:41Z</time>
      </trkpt>
      <trkpt lat="45.9037" lon="3.01584">
        <ele>452</ele>
        <time>2021-07-27T07:22:42Z</time>
      </trkpt>
      <trkpt lat="45.90369" lon="3.01582">
        <ele>452</ele>
        <time>2021-07-27T07:22:43Z</time>
      </trkpt>
      <trkpt lat="45.90369" lon="3.0158">
        <ele>452</ele>
        <time>2021-07-27T07:22:44Z</time>
      </trkpt>
      <trkpt lat="45.90368" lon="3.01578">
        <ele>452</ele>
        <time>2021-07-27T07:22:45Z</time>
      </trkpt>
      <trkpt lat="45.90368" lon="3.01576">
        <ele>452</ele>
        <time>2021-07-27T07:22:46Z</time>
      </trkpt>
      <trkpt lat="45.90367" lon="3.01574">
        <ele>452</ele>
        <time>2021-07-27T07:22:47Z</time>
      </trkpt>
      <trkpt lat="45.90367" lon="3.01572">
        <ele>452</ele>
        <time>2021-07-27T07:22:48Z</time>
      </trkpt>
      <trkpt lat="45.90366" lon="3.0157">
        <ele>452</ele>
        <time>2021-07-27T07:22:49Z</time>
      </trkpt>
      <trkpt lat="45.90365" lon="3.01568">
        <ele>452</ele>
        <time>2021-07-27T07:22:50Z</time>
      </trkpt>
      <trkpt lat="45.90365" lon="3.01565">
        <ele>452</ele>
        <time>2021-07-27T07:22:51Z</time>
      </trkpt>
      <trkpt lat="45.90364" lon="3.01563">
        <ele>452</ele>
        <time>2021-07-27T07:22:52Z</time>
      </trkpt>
      <trkpt lat="45.90364" lon="3.0156">
        <ele>452</ele>
        <time>2021-07-27T07:22:53Z</time>
      </trkpt>
      <trkpt lat="45.90363" lon="3.01558">
        <ele>452</ele>
        <time>2021-07-27T07:22:54Z</time>
      </trkpt>
      <trkpt lat="45.90362" lon="3.01556">
        <ele>452</ele>
        <time>2021-07-27T07:22:55Z</time>
      </trkpt>
      <trkpt lat="45.90362" lon="3.01553">
        <ele>452</ele>
        <time>2021-07-27T07:22:56Z</time>
      </trkpt>
      <trkpt lat="45.90361" lon="3.01551">
        <ele>452</ele>
        <time>2021-07-27T07:22:57Z</time>
      </trkpt>
      <trkpt lat="45.90361" lon="3.01549">
        <ele>452</ele>
        <time>2021-07-27T07:22:58Z</time>
      </trkpt>
      <trkpt lat="45.9036" lon="3.01546">
        <ele>452</ele>
        <time>2021-07-27T07:22:59Z</time>
      </trkpt>
      <trkpt lat="45.90358" lon="3.01544">
        <ele>452</ele>
        <time>2021-07-27T07:23:00Z</time>
      </trkpt>
      <trkpt lat="45.90358" lon="3.01542">
        <ele>452</ele>
        <time>2021-07-27T07:23:01Z</time>
      </trkpt>
      <trkpt lat="45.90357" lon="3.0154">
        <ele>452</ele>
        <time>2021-07-27T07:23:02Z</time>
      </trkpt>
      <trkpt lat="45.90356" lon="3.01538">
        <ele>452</ele>
        <time>2021-07-27T07:23:03Z</time>
      </trkpt>
      <trkpt lat="45.90355" lon="3.01536">
        <ele>452</ele>
        <time>2021-07-27T07:23:04Z</time>
      </trkpt>
      <trkpt lat="45.90355" lon="3.01534">
        <ele>452</ele>
        <time>2021-07-27T07:23:05Z</time>
      </trkpt>
      <trkpt lat="45.90353" lon="3.01532">
        <ele>452</ele>
        <time>2021-07-27T07:23:06Z</time>
      </trkpt>
      <trkpt lat="45.90352" lon="3.0153">
        <ele>452</ele>
        <time>2021-07-27T07:23:07Z</time>
      </trkpt>
      <trkpt lat="45.90352" lon="3.01529">
        <ele>452</ele>
        <time>2021-07-27T07:23:08Z</time>
      </trkpt>
      <trkpt lat="45.90351" lon="3.01527">
        <ele>452</ele>
        <time>2021-07-27T07:23:09Z</time>
      </trkpt>
      <trkpt lat="45.9035" lon="3.01525">
        <ele>452</ele>
        <time>2021-07-27T07:23:10Z</time>
      </trkpt>
      <trkpt lat="45.90349" lon="3.01524">
        <ele>452</ele>
        <time>2021-07-27T07:23:11Z</time>
      </trkpt>
      <trkpt lat="45.90349" lon="3.01522">
        <ele>452</ele>
        <time>2021-07-27T07:23:12Z</time>
      </trkpt>
      <trkpt lat="45.90348" lon="3.01521">
        <ele>452</ele>
        <time>2021-07-27T07:23:13Z</time>
      </trkpt>
      <trkpt lat="45.90347" lon="3.0152">
        <ele>452</ele>
        <time>2021-07-27T07:23:14Z</time>
      </trkpt>
      <trkpt lat="45.90346" lon="3.01518">
        <ele>452</ele>
        <time>2021-07-27T07:23:15Z</time>
      </trkpt>
      <trkpt lat="45.90346" lon="3.01516">
        <ele>452</ele>
        <time>2021-07-27T07:23:16Z</time>
      </trkpt>
      <trkpt lat="45.90345" lon="3.01514">
        <ele>452</ele>
        <time>2021-07-27T07:23:17Z</time>
      </trkpt>
      <trkpt lat="45.90344" lon="3.01513">
        <ele>452</ele>
        <time>2021-07-27T07:23:18Z</time>
      </trkpt>
      <trkpt lat="45.90344" lon="3.01511">
        <ele>452</ele>
        <time>2021-07-27T07:23:19Z</time>
      </trkpt>
      <trkpt lat="45.90343" lon="3.0151">
        <ele>452</ele>
        <time>2021-07-27T07:23:20Z</time>
      </trkpt>
      <trkpt lat="45.90342" lon="3.01509">
        <ele>452</ele>
        <time>2021-07-27T07:23:21Z</time>
      </trkpt>
      <trkpt lat="45.90341" lon="3.01508">
        <ele>452</ele>
        <time>2021-07-27T07:23:22Z</time>
      </trkpt>
      <trkpt lat="45.9034" lon="3.01507">
        <ele>452</ele>
        <time>2021-07-27T07:23:23Z</time>
      </trkpt>
      <trkpt lat="45.9034" lon="3.01506">
        <ele>452</ele>
        <time>2021-07-27T07:23:24Z</time>
      </trkpt>
      <trkpt lat="45.90339" lon="3.01505">
        <ele>452</ele>
        <time>2021-07-27T07:23:25Z</time>
      </trkpt>
      <trkpt lat="45.90338" lon="3.01504">
        <ele>452</ele>
        <time>2021-07-27T07:23:26Z</time>
      </trkpt>
      <trkpt lat="45.90337" lon="3.01503">
        <ele>452</ele>
        <time>2021-07-27T07:23:27Z</time>
      </trkpt>
      <trkpt lat="45.90336" lon="3.01501">
        <ele>452</ele>
        <time>2021-07-27T07:23:28Z</time>
      </trkpt>
      <trkpt lat="45.90335" lon="3.015">
        <ele>452</ele>
        <time>2021-07-27T07:23:29Z</time>
      </trkpt>
      <trkpt lat="45.90334" lon="3.01499">
        <ele>452</ele>
        <time>2021-07-27T07:23:30Z</time>
      </trkpt>
      <trkpt lat="45.90332" lon="3.01498">
        <ele>452</ele>
        <time>2021-07-27T07:23:31Z</time>
      </trkpt>
      <trkpt lat="45.90331" lon="3.01498">
        <ele>452</ele>
        <time>2021-07-27T07:23:32Z</time>
      </trkpt>
      <trkpt lat="45.90329" lon="3.01497">
        <ele>452</ele>
        <time>2021-07-27T07:23:33Z</time>
      </trkpt>
      <trkpt lat="45.90328" lon="3.01496">
        <ele>452</ele>
        <time>2021-07-27T07:23:34Z</time>
      </trkpt>
      <trkpt lat="45.90326" lon="3.01495">
        <ele>452</ele>
        <time>2021-07-27T07:23:35Z</time>
      </trkpt>
      <trkpt lat="45.90325" lon="3.01495">
        <ele>452</ele>
        <time>2021-07-27T07:23:36Z</time>
      </trkpt>
      <trkpt lat="45.90324" lon="3.01494">
        <ele>452</ele>
        <time>2021-07-27T07:23:37Z</time>
      </trkpt>
      <trkpt lat="45.90323" lon="3.01493">
        <ele>452</ele>
        <time>2021-07-27T07:23:38Z</time>
      </trkpt>
      <trkpt lat="45.90322" lon="3.01491">
        <ele>452</ele>
        <time>2021-07-27T07:23:39Z</time>
      </trkpt>
      <trkpt lat="45.90322" lon="3.0149">
        <ele>452</ele>
        <time>2021-07-27T07:23:40Z</time>
      </trkpt>
      <trkpt lat="45.90321" lon="3.01489">
        <ele>452</ele>
        <time>2021-07-27T07:23:42Z</time>
      </trkpt>
      <trkpt lat="45.90318" lon="3.01484">
        <ele>452</ele>
        <time>2021-07-27T07:23:43Z</time>
      </trkpt>
      <trkpt lat="45.90317" lon="3.01484">
        <ele>452</ele>
        <time>2021-07-27T07:23:44Z</time>
      </trkpt>
      <trkpt lat="45.90317" lon="3.01484">
        <ele>452</ele>
        <time>2021-07-27T07:23:45Z</time>
      </trkpt>
      <trkpt lat="45.90316" lon="3.01483">
        <ele>452</ele>
        <time>2021-07-27T07:23:46Z</time>
      </trkpt>
      <trkpt lat="45.90315" lon="3.01483">
        <ele>452</ele>
        <time>2021-07-27T07:23:47Z</time>
      </trkpt>
      <trkpt lat="45.90315" lon="3.01483">
        <ele>452</ele>
        <time>2021-07-27T07:23:47Z</time>
      </trkpt>
      <trkpt lat="45.90313" lon="3.01483">
        <ele>452</ele>
        <time>2021-07-27T07:23:48Z</time>
      </trkpt>
      <trkpt lat="45.90313" lon="3.01483">
        <ele>452</ele>
        <time>2021-07-27T07:23:49Z</time>
      </trkpt>
      <trkpt lat="45.90311" lon="3.01483">
        <ele>452</ele>
        <time>2021-07-27T07:23:50Z</time>
      </trkpt>
      <trkpt lat="45.9031" lon="3.01483">
        <ele>452</ele>
        <time>2021-07-27T07:23:51Z</time>
      </trkpt>
      <trkpt lat="45.9031" lon="3.01483">
        <ele>452</ele>
        <time>2021-07-27T07:23:52Z</time>
      </trkpt>
      <trkpt lat="45.90308" lon="3.01484">
        <ele>452</ele>
        <time>2021-07-27T07:23:53Z</time>
      </trkpt>
      <trkpt lat="45.90307" lon="3.01484">
        <ele>452</ele>
        <time>2021-07-27T07:23:54Z</time>
      </trkpt>
      <trkpt lat="45.90305" lon="3.01484">
        <ele>452</ele>
        <time>2021-07-27T07:23:55Z</time>
      </trkpt>
      <trkpt lat="45.90304" lon="3.01484">
        <ele>452</ele>
        <time>2021-07-27T07:23:56Z</time>
      </trkpt>
      <trkpt lat="45.90302" lon="3.01484">
        <ele>452</ele>
        <time>2021-07-27T07:23:57Z</time>
      </trkpt>
      <trkpt lat="45.90301" lon="3.01485">
        <ele>452</ele>
        <time>2021-07-27T07:23:58Z</time>
      </trkpt>
      <trkpt lat="45.90299" lon="3.01485">
        <ele>452</ele>
        <time>2021-07-27T07:23:59Z</time>
      </trkpt>
      <trkpt lat="45.90298" lon="3.01485">
        <ele>452</ele>
        <time>2021-07-27T07:24:00Z</time>
      </trkpt>
      <trkpt lat="45.90296" lon="3.01486">
        <ele>452</ele>
        <time>2021-07-27T07:24:01Z</time>
      </trkpt>
      <trkpt lat="45.90295" lon="3.01487">
        <ele>452</ele>
        <time>2021-07-27T07:24:02Z</time>
      </trkpt>
      <trkpt lat="45.90294" lon="3.01487">
        <ele>452</ele>
        <time>2021-07-27T07:24:03Z</time>
      </trkpt>
      <trkpt lat="45.90292" lon="3.01488">
        <ele>452</ele>
        <time>2021-07-27T07:24:04Z</time>
      </trkpt>
      <trkpt lat="45.90292" lon="3.01489">
        <ele>452</ele>
        <time>2021-07-27T07:24:05Z</time>
      </trkpt>
      <trkpt lat="45.9029" lon="3.0149">
        <ele>452</ele>
        <time>2021-07-27T07:24:06Z</time>
      </trkpt>
      <trkpt lat="45.90289" lon="3.01492">
        <ele>452</ele>
        <time>2021-07-27T07:24:07Z</time>
      </trkpt>
      <trkpt lat="45.90287" lon="3.01494">
        <ele>452</ele>
        <time>2021-07-27T07:24:08Z</time>
      </trkpt>
      <trkpt lat="45.90286" lon="3.01495">
        <ele>452</ele>
        <time>2021-07-27T07:24:09Z</time>
      </trkpt>
      <trkpt lat="45.90286" lon="3.01497">
        <ele>452</ele>
        <time>2021-07-27T07:24:10Z</time>
      </trkpt>
      <trkpt lat="45.90284" lon="3.01499">
        <ele>452</ele>
        <time>2021-07-27T07:24:11Z</time>
      </trkpt>
      <trkpt lat="45.90283" lon="3.01501">
        <ele>452</ele>
        <time>2021-07-27T07:24:12Z</time>
      </trkpt>
      <trkpt lat="45.90282" lon="3.01503">
        <ele>452</ele>
        <time>2021-07-27T07:24:13Z</time>
      </trkpt>
      <trkpt lat="45.90281" lon="3.01504">
        <ele>452</ele>
        <time>2021-07-27T07:24:14Z</time>
      </trkpt>
      <trkpt lat="45.90279" lon="3.01506">
        <ele>452</ele>
        <time>2021-07-27T07:24:15Z</time>
      </trkpt>
      <trkpt lat="45.90278" lon="3.01507">
        <ele>452</ele>
        <time>2021-07-27T07:24:16Z</time>
      </trkpt>
      <trkpt lat="45.90277" lon="3.01509">
        <ele>452</ele>
        <time>2021-07-27T07:24:17Z</time>
      </trkpt>
      <trkpt lat="45.90276" lon="3.01511">
        <ele>452</ele>
        <time>2021-07-27T07:24:18Z</time>
      </trkpt>
      <trkpt lat="45.90275" lon="3.01513">
        <ele>452</ele>
        <time>2021-07-27T07:24:19Z</time>
      </trkpt>
      <trkpt lat="45.90274" lon="3.01515">
        <ele>452</ele>
        <time>2021-07-27T07:24:20Z</time>
      </trkpt>
      <trkpt lat="45.90274" lon="3.01516">
        <ele>452</ele>
        <time>2021-07-27T07:24:21Z</time>
      </trkpt>
      <trkpt lat="45.90273" lon="3.01518">
        <ele>452</ele>
        <time>2021-07-27T07:24:22Z</time>
      </trkpt>
      <trkpt lat="45.90273" lon="3.0152">
        <ele>452</ele>
        <time>2021-07-27T07:24:23Z</time>
      </trkpt>
      <trkpt lat="45.90272" lon="3.01522">
        <ele>452</ele>
        <time>2021-07-27T07:24:24Z</time>
      </trkpt>
      <trkpt lat="45.90271" lon="3.01524">
        <ele>452</ele>
        <time>2021-07-27T07:24:25Z</time>
      </trkpt>
      <trkpt lat="45.90271" lon="3.01526">
        <ele>452</ele>
        <time>2021-07-27T07:24:26Z</time>
      </trkpt>
      <trkpt lat="45.90271" lon="3.01527">
        <ele>452</ele>
        <time>2021-07-27T07:24:27Z</time>
      </trkpt>
      <trkpt lat="45.9027" lon="3.01529">
        <ele>452</ele>
        <time>2021-07-27T07:24:28Z</time>
      </trkpt>
      <trkpt lat="45.9027" lon="3.01531">
        <ele>452</ele>
        <time>2021-07-27T07:24:29Z</time>
      </trkpt>
      <trkpt lat="45.9027" lon="3.01533">
        <ele>452</ele>
        <time>2021-07-27T07:24:30Z</time>
      </trkpt>
      <trkpt lat="45.90269" lon="3.01535">
        <ele>452</ele>
        <time>2021-07-27T07:24:31Z</time>
      </trkpt>
      <trkpt lat="45.90269" lon="3.01537">
        <ele>452</ele>
        <time>2021-07-27T07:24:32Z</time>
      </trkpt>
      <trkpt lat="45.9027" lon="3.01539">
        <ele>452</ele>
        <time>2021-07-27T07:24:33Z</time>
      </trkpt>
      <trkpt lat="45.9027" lon="3.01541">
        <ele>452</ele>
        <time>2021-07-27T07:24:34Z</time>
      </trkpt>
      <trkpt lat="45.9027" lon="3.01543">
        <ele>452</ele>
        <time>2021-07-27T07:24:35Z</time>
      </trkpt>
      <trkpt lat="45.9027" lon="3.01545">
        <ele>452</ele>
        <time>2021-07-27T07:24:36Z</time>
      </trkpt>
      <trkpt lat="45.9027" lon="3.01547">
        <ele>452</ele>
        <time>2021-07-27T07:24:37Z</time>
      </trkpt>
      <trkpt lat="45.9027" lon="3.0155">
        <ele>452</ele>
        <time>2021-07-27T07:24:38Z</time>
      </trkpt>
      <trkpt lat="45.9027" lon="3.01552">
        <ele>452</ele>
        <time>2021-07-27T07:24:40Z</time>
      </trkpt>
      <trkpt lat="45.90269" lon="3.01561">
        <ele>452</ele>
        <time>2021-07-27T07:24:42Z</time>
      </trkpt>
      <trkpt lat="45.90268" lon="3.01566">
        <ele>452</ele>
        <time>2021-07-27T07:24:43Z</time>
      </trkpt>
      <trkpt lat="45.90268" lon="3.01566">
        <ele>452</ele>
        <time>2021-07-27T07:24:44Z</time>
      </trkpt>
      <trkpt lat="45.90268" lon="3.01567">
        <ele>452</ele>
        <time>2021-07-27T07:24:45Z</time>
      </trkpt>
      <trkpt lat="45.90268" lon="3.01568">
        <ele>452</ele>
        <time>2021-07-27T07:24:46Z</time>
      </trkpt>
      <trkpt lat="45.90268" lon="3.01569">
        <ele>452</ele>
        <time>2021-07-27T07:24:47Z</time>
      </trkpt>
      <trkpt lat="45.90268" lon="3.01571">
        <ele>452</ele>
        <time>2021-07-27T07:24:48Z</time>
      </trkpt>
      <trkpt lat="45.90268" lon="3.01573">
        <ele>452</ele>
        <time>2021-07-27T07:24:49Z</time>
      </trkpt>
      <trkpt lat="45.90268" lon="3.01575">
        <ele>452</ele>
        <time>2021-07-27T07:24:50Z</time>
      </trkpt>
      <trkpt lat="45.90268" lon="3.01577">
        <ele>452</ele>
        <time>2021-07-27T07:24:51Z</time>
      </trkpt>
      <trkpt lat="45.90268" lon="3.0158">
        <ele>452</ele>
        <time>2021-07-27T07:24:52Z</time>
      </trkpt>
      <trkpt lat="45.90268" lon="3.01582">
        <ele>452</ele>
        <time>2021-07-27T07:24:53Z</time>
      </trkpt>
      <trkpt lat="45.90268" lon="3.01584">
        <ele>452</ele>
        <time>2021-07-27T07:24:54Z</time>
      </trkpt>
      <trkpt lat="45.90267" lon="3.01586">
        <ele>452</ele>
        <time>2021-07-27T07:24:55Z</time>
      </trkpt>
      <trkpt lat="45.90267" lon="3.01588">
        <ele>452</ele>
        <time>2021-07-27T07:24:56Z</time>
      </trkpt>
      <trkpt lat="45.90267" lon="3.0159">
        <ele>452</ele>
        <time>2021-07-27T07:24:57Z</time>
      </trkpt>
      <trkpt lat="45.90267" lon="3.01592">
        <ele>452</ele>
        <time>2021-07-27T07:24:58Z</time>
      </trkpt>
      <trkpt lat="45.90267" lon="3.01594">
        <ele>452</ele>
        <time>2021-07-27T07:24:59Z</time>
      </trkpt>
      <trkpt lat="45.90267" lon="3.01596">
        <ele>452</ele>
        <time>2021-07-27T07:25:00Z</time>
      </trkpt>
      <trkpt lat="45.90266" lon="3.01598">
        <ele>452</ele>
        <time>2021-07-27T07:25:01Z</time>
      </trkpt>
      <trkpt lat="45.90266" lon="3.016">
        <ele>452</ele>
        <time>2021-07-27T07:25:02Z</time>
      </trkpt>
      <trkpt lat="45.90266" lon="3.01602">
        <ele>452</ele>
        <time>2021-07-27T07:25:03Z</time>
      </trkpt>
      <trkpt lat="45.90266" lon="3.01604">
        <ele>452</ele>
        <time>2021-07-27T07:25:04Z</time>
      </trkpt>
      <trkpt lat="45.90266" lon="3.01605">
        <ele>452</ele>
        <time>2021-07-27T07:25:05Z</time>
      </trkpt>
      <trkpt lat="45.90266" lon="3.01607">
        <ele>452</ele>
        <time>2021-07-27T07:25:06Z</time>
      </trkpt>
      <trkpt lat="45.90266" lon="3.01608">
        <ele>452</ele>
        <time>2021-07-27T07:25:07Z</time>
      </trkpt>
      <trkpt lat="45.90266" lon="3.0161">
        <ele>452</ele>
        <time>2021-07-27T07:25:08Z</time>
      </trkpt>
      <trkpt lat="45.90266" lon="3.01611">
        <ele>452</ele>
        <time>2021-07-27T07:25:09Z</time>
      </trkpt>
      <trkpt lat="45.90266" lon="3.01613">
        <ele>452</ele>
        <time>2021-07-27T07:25:10Z</time>
      </trkpt>
      <trkpt lat="45.90266" lon="3.01615">
        <ele>452</ele>
        <time>2021-07-27T07:25:11Z</time>
      </trkpt>
      <trkpt lat="45.90265" lon="3.01616">
        <ele>452</ele>
        <time>2021-07-27T07:25:12Z</time>
      </trkpt>
      <trkpt lat="45.90265" lon="3.01618">
        <ele>452</ele>
        <time>2021-07-27T07:25:13Z</time>
      </trkpt>
      <trkpt lat="45.90265" lon="3.01619">
        <ele>452</ele>
        <time>2021-07-27T07:25:14Z</time>
      </trkpt>
      <trkpt lat="45.90265" lon="3.0162">
        <ele>452</ele>
        <time>2021-07-27T07:25:15Z</time>
      </trkpt>
      <trkpt lat="45.90265" lon="3.01622">
        <ele>452</ele>
        <time>2021-07-27T07:25:16Z</time>
      </trkpt>
      <trkpt lat="45.90265" lon="3.01623">
        <ele>452</ele>
        <time>2021-07-27T07:25:17Z</time>
      </trkpt>
      <trkpt lat="45.90264" lon="3.01624">
        <ele>452</ele>
        <time>2021-07-27T07:25:18Z</time>
      </trkpt>
      <trkpt lat="45.90264" lon="3.01626">
        <ele>452</ele>
        <time>2021-07-27T07:25:19Z</time>
      </trkpt>
      <trkpt lat="45.90264" lon="3.01627">
        <ele>452</ele>
        <time>2021-07-27T07:25:20Z</time>
      </trkpt>
      <trkpt lat="45.90264" lon="3.01629">
        <ele>452</ele>
        <time>2021-07-27T07:25:21Z</time>
      </trkpt>
      <trkpt lat="45.90263" lon="3.0163">
        <ele>452</ele>
        <time>2021-07-27T07:25:22Z</time>
      </trkpt>
      <trkpt lat="45.90263" lon="3.01631">
        <ele>452</ele>
        <time>2021-07-27T07:25:23Z</time>
      </trkpt>
      <trkpt lat="45.90263" lon="3.01633">
        <ele>452</ele>
        <time>2021-07-27T07:25:24Z</time>
      </trkpt>
      <trkpt lat="45.90262" lon="3.01634">
        <ele>452</ele>
        <time>2021-07-27T07:25:25Z</time>
      </trkpt>
      <trkpt lat="45.90261" lon="3.01635">
        <ele>452</ele>
        <time>2021-07-27T07:25:26Z</time>
      </trkpt>
      <trkpt lat="45.90261" lon="3.01636">
        <ele>452</ele>
        <time>2021-07-27T07:25:27Z</time>
      </trkpt>
      <trkpt lat="45.9026" lon="3.01637">
        <ele>452</ele>
        <time>2021-07-27T07:25:28Z</time>
      </trkpt>
      <trkpt lat="45.90259" lon="3.01638">
        <ele>452</ele>
        <time>2021-07-27T07:25:29Z</time>
      </trkpt>
      <trkpt lat="45.90258" lon="3.01639">
        <ele>452</ele>
        <time>2021-07-27T07:25:30Z</time>
      </trkpt>
      <trkpt lat="45.90257" lon="3.0164">
        <ele>452</ele>
        <time>2021-07-27T07:25:31Z</time>
      </trkpt>
      <trkpt lat="45.90257" lon="3.01642">
        <ele>452</ele>
        <time>2021-07-27T07:25:32Z</time>
      </trkpt>
      <trkpt lat="45.90256" lon="3.01643">
        <ele>452</ele>
        <time>2021-07-27T07:25:33Z</time>
      </trkpt>
      <trkpt lat="45.90256" lon="3.01645">
        <ele>452</ele>
        <time>2021-07-27T07:25:34Z</time>
      </trkpt>
      <trkpt lat="45.90255" lon="3.01646">
        <ele>452</ele>
        <time>2021-07-27T07:25:35Z</time>
      </trkpt>
      <trkpt lat="45.90255" lon="3.01648">
        <ele>452</ele>
        <time>2021-07-27T07:25:36Z</time>
      </trkpt>
      <trkpt lat="45.90254" lon="3.01649">
        <ele>452</ele>
        <time>2021-07-27T07:25:37Z</time>
      </trkpt>
      <trkpt lat="45.90253" lon="3.01651">
        <ele>452</ele>
        <time>2021-07-27T07:25:38Z</time>
      </trkpt>
      <trkpt lat="45.90253" lon="3.01652">
        <ele>452</ele>
        <time>2021-07-27T07:25:39Z</time>
      </trkpt>
      <trkpt lat="45.90252" lon="3.01654">
        <ele>452</ele>
        <time>2021-07-27T07:25:40Z</time>
      </trkpt>
      <trkpt lat="45.90251" lon="3.01655">
        <ele>452</ele>
        <time>2021-07-27T07:25:42Z</time>
      </trkpt>
      <trkpt lat="45.90248" lon="3.01662">
        <ele>452</ele>
        <time>2021-07-27T07:25:43Z</time>
      </trkpt>
      <trkpt lat="45.90247" lon="3.01662">
        <ele>452</ele>
        <time>2021-07-27T07:25:44Z</time>
      </trkpt>
      <trkpt lat="45.90247" lon="3.01663">
        <ele>452</ele>
        <time>2021-07-27T07:25:45Z</time>
      </trkpt>
      <trkpt lat="45.90247" lon="3.01664">
        <ele>452</ele>
        <time>2021-07-27T07:25:46Z</time>
      </trkpt>
      <trkpt lat="45.90245" lon="3.01666">
        <ele>452</ele>
        <time>2021-07-27T07:25:47Z</time>
      </trkpt>
      <trkpt lat="45.90244" lon="3.01667">
        <ele>452</ele>
        <time>2021-07-27T07:25:48Z</time>
      </trkpt>
      <trkpt lat="45.90243" lon="3.01669">
        <ele>452</ele>
        <time>2021-07-27T07:25:49Z</time>
      </trkpt>
      <trkpt lat="45.90242" lon="3.0167">
        <ele>452</ele>
        <time>2021-07-27T07:25:50Z</time>
      </trkpt>
      <trkpt lat="45.90241" lon="3.01672">
        <ele>452</ele>
        <time>2021-07-27T07:25:51Z</time>
      </trkpt>
      <trkpt lat="45.9024" lon="3.01673">
        <ele>452</ele>
        <time>2021-07-27T07:25:52Z</time>
      </trkpt>
      <trkpt lat="45.90239" lon="3.01675">
        <ele>452</ele>
        <time>2021-07-27T07:25:53Z</time>
      </trkpt>
      <trkpt lat="45.90238" lon="3.01677">
        <ele>452</ele>
        <time>2021-07-27T07:25:54Z</time>
      </trkpt>
      <trkpt lat="45.90237" lon="3.01678">
        <ele>452</ele>
        <time>2021-07-27T07:25:55Z</time>
      </trkpt>
      <trkpt lat="45.90236" lon="3.0168">
        <ele>452</ele>
        <time>2021-07-27T07:25:56Z</time>
      </trkpt>
      <trkpt lat="45.90235" lon="3.01681">
        <ele>452</ele>
        <time>2021-07-27T07:25:57Z</time>
      </trkpt>
      <trkpt lat="45.90234" lon="3.01683">
        <ele>452</ele>
        <time>2021-07-27T07:25:58Z</time>
      </trkpt>
      <trkpt lat="45.90233" lon="3.01684">
        <ele>452</ele>
        <time>2021-07-27T07:25:59Z</time>
      </trkpt>
      <trkpt lat="45.90232" lon="3.01686">
        <ele>452</ele>
        <time>2021-07-27T07:26:00Z</time>
      </trkpt>
      <trkpt lat="45.90231" lon="3.01687">
        <ele>452</ele>
        <time>2021-07-27T07:26:01Z</time>
      </trkpt>
      <trkpt lat="45.90229" lon="3.01689">
        <ele>452</ele>
        <time>2021-07-27T07:26:02Z</time>
      </trkpt>
      <trkpt lat="45.90228" lon="3.0169">
        <ele>452</ele>
        <time>2021-07-27T07:26:03Z</time>
      </trkpt>
      <trkpt lat="45.90226" lon="3.01691">
        <ele>452</ele>
        <time>2021-07-27T07:26:04Z</time>
      </trkpt>
      <trkpt lat="45.90225" lon="3.01693">
        <ele>452</ele>
        <time>2021-07-27T07:26:05Z</time>
      </trkpt>
      <trkpt lat="45.90223" lon="3.01694">
        <ele>452</ele>
        <time>2021-07-27T07:26:06Z</time>
      </trkpt>
      <trkpt lat="45.90222" lon="3.01695">
        <ele>452</ele>
        <time>2021-07-27T07:26:07Z</time>
      </trkpt>
      <trkpt lat="45.90221" lon="3.01696">
        <ele>452</ele>
        <time>2021-07-27T07:26:08Z</time>
      </trkpt>
      <trkpt lat="45.90219" lon="3.01697">
        <ele>452</ele>
        <time>2021-07-27T07:26:09Z</time>
      </trkpt>
      <trkpt lat="45.90218" lon="3.01699">
        <ele>452</ele>
        <time>2021-07-27T07:26:10Z</time>
      </trkpt>
      <trkpt lat="45.90217" lon="3.017">
        <ele>452</ele>
        <time>2021-07-27T07:26:11Z</time>
      </trkpt>
      <trkpt lat="45.90216" lon="3.01701">
        <ele>452</ele>
        <time>2021-07-27T07:26:12Z</time>
      </trkpt>
      <trkpt lat="45.90214" lon="3.01702">
        <ele>452</ele>
        <time>2021-07-27T07:26:13Z</time>
      </trkpt>
      <trkpt lat="45.90213" lon="3.01703">
        <ele>452</ele>
        <time>2021-07-27T07:26:14Z</time>
      </trkpt>
      <trkpt lat="45.90212" lon="3.01705">
        <ele>452</ele>
        <time>2021-07-27T07:26:15Z</time>
      </trkpt>
      <trkpt lat="45.90211" lon="3.01706">
        <ele>452</ele>
        <time>2021-07-27T07:26:16Z</time>
      </trkpt>
      <trkpt lat="45.90209" lon="3.01708">
        <ele>452</ele>
        <time>2021-07-27T07:26:17Z</time>
      </trkpt>
      <trkpt lat="45.90208" lon="3.01709">
        <ele>452</ele>
        <time>2021-07-27T07:26:18Z</time>
      </trkpt>
      <trkpt lat="45.90207" lon="3.0171">
        <ele>452</ele>
        <time>2021-07-27T07:26:19Z</time>
      </trkpt>
      <trkpt lat="45.90205" lon="3.01712">
        <ele>452</ele>
        <time>2021-07-27T07:26:20Z</time>
      </trkpt>
      <trkpt lat="45.90204" lon="3.01713">
        <ele>452</ele>
        <time>2021-07-27T07:26:21Z</time>
      </trkpt>
      <trkpt lat="45.90204" lon="3.01714">
        <ele>452</ele>
        <time>2021-07-27T07:26:22Z</time>
      </trkpt>
      <trkpt lat="45.90202" lon="3.01715">
        <ele>452</ele>
        <time>2021-07-27T07:26:23Z</time>
      </trkpt>
      <trkpt lat="45.90201" lon="3.01716">
        <ele>452</ele>
        <time>2021-07-27T07:26:24Z</time>
      </trkpt>
      <trkpt lat="45.902" lon="3.01717">
        <ele>452</ele>
        <time>2021-07-27T07:26:25Z</time>
      </trkpt>
      <trkpt lat="45.90199" lon="3.01718">
        <ele>452</ele>
        <time>2021-07-27T07:26:26Z</time>
      </trkpt>
      <trkpt lat="45.90198" lon="3.01719">
        <ele>452</ele>
        <time>2021-07-27T07:26:27Z</time>
      </trkpt>
      <trkpt lat="45.90198" lon="3.0172">
        <ele>452</ele>
        <time>2021-07-27T07:26:28Z</time>
      </trkpt>
      <trkpt lat="45.90197" lon="3.01722">
        <ele>452</ele>
        <time>2021-07-27T07:26:29Z</time>
      </trkpt>
      <trkpt lat="45.90196" lon="3.01723">
        <ele>452</ele>
        <time>2021-07-27T07:26:30Z</time>
      </trkpt>
      <trkpt lat="45.90194" lon="3.01725">
        <ele>452</ele>
        <time>2021-07-27T07:26:31Z</time>
      </trkpt>
      <trkpt lat="45.90193" lon="3.01726">
        <ele>452</ele>
        <time>2021-07-27T07:26:32Z</time>
      </trkpt>
      <trkpt lat="45.90192" lon="3.01728">
        <ele>452</ele>
        <time>2021-07-27T07:26:33Z</time>
      </trkpt>
      <trkpt lat="45.9019" lon="3.01729">
        <ele>452</ele>
        <time>2021-07-27T07:26:34Z</time>
      </trkpt>
      <trkpt lat="45.90189" lon="3.01731">
        <ele>452</ele>
        <time>2021-07-27T07:26:35Z</time>
      </trkpt>
      <trkpt lat="45.90188" lon="3.01732">
        <ele>452</ele>
        <time>2021-07-27T07:26:36Z</time>
      </trkpt>
      <trkpt lat="45.90186" lon="3.01733">
        <ele>452</ele>
        <time>2021-07-27T07:26:37Z</time>
      </trkpt>
      <trkpt lat="45.90184" lon="3.01735">
        <ele>452</ele>
        <time>2021-07-27T07:26:38Z</time>
      </trkpt>
      <trkpt lat="45.90183" lon="3.01736">
        <ele>452</ele>
        <time>2021-07-27T07:26:39Z</time>
      </trkpt>
      <trkpt lat="45.90182" lon="3.01737">
        <ele>452</ele>
        <time>2021-07-27T07:26:41Z</time>
      </trkpt>
      <trkpt lat="45.90176" lon="3.01742">
        <ele>452</ele>
        <time>2021-07-27T07:26:42Z</time>
      </trkpt>
      <trkpt lat="45.90176" lon="3.01742">
        <ele>452</ele>
        <time>2021-07-27T07:26:43Z</time>
      </trkpt>
      <trkpt lat="45.90175" lon="3.01742">
        <ele>452</ele>
        <time>2021-07-27T07:26:44Z</time>
      </trkpt>
      <trkpt lat="45.90174" lon="3.01743">
        <ele>452</ele>
        <time>2021-07-27T07:26:45Z</time>
      </trkpt>
      <trkpt lat="45.90173" lon="3.01743">
        <ele>452</ele>
        <time>2021-07-27T07:26:46Z</time>
      </trkpt>
      <trkpt lat="45.90172" lon="3.01744">
        <ele>452</ele>
        <time>2021-07-27T07:26:47Z</time>
      </trkpt>
      <trkpt lat="45.9017" lon="3.01744">
        <ele>452</ele>
        <time>2021-07-27T07:26:48Z</time>
      </trkpt>
      <trkpt lat="45.90169" lon="3.01745">
        <ele>452</ele>
        <time>2021-07-27T07:26:49Z</time>
      </trkpt>
      <trkpt lat="45.90168" lon="3.01745">
        <ele>452</ele>
        <time>2021-07-27T07:26:50Z</time>
      </trkpt>
      <trkpt lat="45.90167" lon="3.01746">
        <ele>452</ele>
        <time>2021-07-27T07:26:51Z</time>
      </trkpt>
      <trkpt lat="45.90165" lon="3.01747">
        <ele>452</ele>
        <time>2021-07-27T07:26:52Z</time>
      </trkpt>
      <trkpt lat="45.90165" lon="3.01748">
        <ele>452</ele>
        <time>2021-07-27T07:26:53Z</time>
      </trkpt>
      <trkpt lat="45.90163" lon="3.01748">
        <ele>452</ele>
        <time>2021-07-27T07:26:54Z</time>
      </trkpt>
      <trkpt lat="45.90162" lon="3.01749">
        <ele>452</ele>
        <time>2021-07-27T07:26:55Z</time>
      </trkpt>
      <trkpt lat="45.90162" lon="3.0175">
        <ele>452</ele>
        <time>2021-07-27T07:26:56Z</time>
      </trkpt>
      <trkpt lat="45.9016" lon="3.01751">
        <ele>452</ele>
        <time>2021-07-27T07:26:57Z</time>
      </trkpt>
      <trkpt lat="45.90159" lon="3.01753">
        <ele>452</ele>
        <time>2021-07-27T07:26:58Z</time>
      </trkpt>
      <trkpt lat="45.90158" lon="3.01754">
        <ele>452</ele>
        <time>2021-07-27T07:26:59Z</time>
      </trkpt>
      <trkpt lat="45.90157" lon="3.01755">
        <ele>452</ele>
        <time>2021-07-27T07:27:00Z</time>
      </trkpt>
      <trkpt lat="45.90155" lon="3.01756">
        <ele>452</ele>
        <time>2021-07-27T07:27:01Z</time>
      </trkpt>
      <trkpt lat="45.90154" lon="3.01757">
        <ele>452</ele>
        <time>2021-07-27T07:27:02Z</time>
      </trkpt>
      <trkpt lat="45.90153" lon="3.01757">
        <ele>452</ele>
        <time>2021-07-27T07:27:03Z</time>
      </trkpt>
      <trkpt lat="45.90152" lon="3.01757">
        <ele>452</ele>
        <time>2021-07-27T07:27:04Z</time>
      </trkpt>
      <trkpt lat="45.90151" lon="3.01758">
        <ele>452</ele>
        <time>2021-07-27T07:27:05Z</time>
      </trkpt>
      <trkpt lat="45.9015" lon="3.01758">
        <ele>452</ele>
        <time>2021-07-27T07:27:06Z</time>
      </trkpt>
      <trkpt lat="45.90149" lon="3.01758">
        <ele>452</ele>
        <time>2021-07-27T07:27:07Z</time>
      </trkpt>
      <trkpt lat="45.90147" lon="3.01758">
        <ele>452</ele>
        <time>2021-07-27T07:27:08Z</time>
      </trkpt>
      <trkpt lat="45.90147" lon="3.01759">
        <ele>452</ele>
        <time>2021-07-27T07:27:09Z</time>
      </trkpt>
      <trkpt lat="45.90145" lon="3.01759">
        <ele>452</ele>
        <time>2021-07-27T07:27:10Z</time>
      </trkpt>
      <trkpt lat="45.90144" lon="3.01759">
        <ele>452</ele>
        <time>2021-07-27T07:27:11Z</time>
      </trkpt>
      <trkpt lat="45.90142" lon="3.0176">
        <ele>452</ele>
        <time>2021-07-27T07:27:12Z</time>
      </trkpt>
      <trkpt lat="45.90141" lon="3.0176">
        <ele>452</ele>
        <time>2021-07-27T07:27:13Z</time>
      </trkpt>
      <trkpt lat="45.90139" lon="3.01761">
        <ele>452</ele>
        <time>2021-07-27T07:27:14Z</time>
      </trkpt>
      <trkpt lat="45.90138" lon="3.01761">
        <ele>452</ele>
        <time>2021-07-27T07:27:15Z</time>
      </trkpt>
      <trkpt lat="45.90136" lon="3.01762">
        <ele>452</ele>
        <time>2021-07-27T07:27:16Z</time>
      </trkpt>
      <trkpt lat="45.90135" lon="3.01763">
        <ele>452</ele>
        <time>2021-07-27T07:27:17Z</time>
      </trkpt>
      <trkpt lat="45.90134" lon="3.01764">
        <ele>452</ele>
        <time>2021-07-27T07:27:18Z</time>
      </trkpt>
      <trkpt lat="45.90132" lon="3.01764">
        <ele>452</ele>
        <time>2021-07-27T07:27:19Z</time>
      </trkpt>
      <trkpt lat="45.90131" lon="3.01765">
        <ele>452</ele>
        <time>2021-07-27T07:27:20Z</time>
      </trkpt>
      <trkpt lat="45.90129" lon="3.01766">
        <ele>452</ele>
        <time>2021-07-27T07:27:21Z</time>
      </trkpt>
      <trkpt lat="45.90128" lon="3.01767">
        <ele>452</ele>
        <time>2021-07-27T07:27:22Z</time>
      </trkpt>
      <trkpt lat="45.90126" lon="3.01767">
        <ele>452</ele>
        <time>2021-07-27T07:27:23Z</time>
      </trkpt>
      <trkpt lat="45.90125" lon="3.01768">
        <ele>452</ele>
        <time>2021-07-27T07:27:24Z</time>
      </trkpt>
      <trkpt lat="45.90123" lon="3.01768">
        <ele>452</ele>
        <time>2021-07-27T07:27:25Z</time>
      </trkpt>
      <trkpt lat="45.90122" lon="3.01769">
        <ele>452</ele>
        <time>2021-07-27T07:27:26Z</time>
      </trkpt>
      <trkpt lat="45.9012" lon="3.0177">
        <ele>452</ele>
        <time>2021-07-27T07:27:27Z</time>
      </trkpt>
      <trkpt lat="45.90118" lon="3.0177">
        <ele>452</ele>
        <time>2021-07-27T07:27:28Z</time>
      </trkpt>
      <trkpt lat="45.90117" lon="3.01771">
        <ele>452</ele>
        <time>2021-07-27T07:27:29Z</time>
      </trkpt>
      <trkpt lat="45.90115" lon="3.01771">
        <ele>452</ele>
        <time>2021-07-27T07:27:30Z</time>
      </trkpt>
      <trkpt lat="45.90113" lon="3.01772">
        <ele>452</ele>
        <time>2021-07-27T07:27:31Z</time>
      </trkpt>
      <trkpt lat="45.90112" lon="3.01773">
        <ele>452</ele>
        <time>2021-07-27T07:27:32Z</time>
      </trkpt>
      <trkpt lat="45.9011" lon="3.01774">
        <ele>452</ele>
        <time>2021-07-27T07:27:33Z</time>
      </trkpt>
      <trkpt lat="45.90109" lon="3.01775">
        <ele>452</ele>
        <time>2021-07-27T07:27:34Z</time>
      </trkpt>
      <trkpt lat="45.90107" lon="3.01775">
        <ele>452</ele>
        <time>2021-07-27T07:27:35Z</time>
      </trkpt>
      <trkpt lat="45.90105" lon="3.01776">
        <ele>452</ele>
        <time>2021-07-27T07:27:36Z</time>
      </trkpt>
      <trkpt lat="45.90104" lon="3.01777">
        <ele>452</ele>
        <time>2021-07-27T07:27:37Z</time>
      </trkpt>
      <trkpt lat="45.90102" lon="3.01777">
        <ele>452</ele>
        <time>2021-07-27T07:27:38Z</time>
      </trkpt>
      <trkpt lat="45.90101" lon="3.01777">
        <ele>452</ele>
        <time>2021-07-27T07:27:39Z</time>
      </trkpt>
      <trkpt lat="45.90099" lon="3.01778">
        <ele>452</ele>
        <time>2021-07-27T07:27:40Z</time>
      </trkpt>
      <trkpt lat="45.90097" lon="3.01778">
        <ele>452</ele>
        <time>2021-07-27T07:27:42Z</time>
      </trkpt>
      <trkpt lat="45.90091" lon="3.0178">
        <ele>452</ele>
        <time>2021-07-27T07:27:43Z</time>
      </trkpt>
      <trkpt lat="45.90091" lon="3.0178">
        <ele>452</ele>
        <time>2021-07-27T07:27:44Z</time>
      </trkpt>
      <trkpt lat="45.9009" lon="3.0178">
        <ele>452</ele>
        <time>2021-07-27T07:27:45Z</time>
      </trkpt>
      <trkpt lat="45.90089" lon="3.0178">
        <ele>452</ele>
        <time>2021-07-27T07:27:46Z</time>
      </trkpt>
      <trkpt lat="45.90088" lon="3.01781">
        <ele>452</ele>
        <time>2021-07-27T07:27:47Z</time>
      </trkpt>
      <trkpt lat="45.90087" lon="3.01781">
        <ele>452</ele>
        <time>2021-07-27T07:27:48Z</time>
      </trkpt>
      <trkpt lat="45.90086" lon="3.01781">
        <ele>452</ele>
        <time>2021-07-27T07:27:49Z</time>
      </trkpt>
      <trkpt lat="45.90085" lon="3.01782">
        <ele>452</ele>
        <time>2021-07-27T07:27:50Z</time>
      </trkpt>
      <trkpt lat="45.90084" lon="3.01782">
        <ele>452</ele>
        <time>2021-07-27T07:27:51Z</time>
      </trkpt>
      <trkpt lat="45.90082" lon="3.01782">
        <ele>452</ele>
        <time>2021-07-27T07:27:52Z</time>
      </trkpt>
      <trkpt lat="45.90081" lon="3.01782">
        <ele>452</ele>
        <time>2021-07-27T07:27:53Z</time>
      </trkpt>
      <trkpt lat="45.9008" lon="3.01781">
        <ele>452</ele>
        <time>2021-07-27T07:27:54Z</time>
      </trkpt>
      <trkpt lat="45.90078" lon="3.01781">
        <ele>452</ele>
        <time>2021-07-27T07:27:55Z</time>
      </trkpt>
      <trkpt lat="45.90076" lon="3.01782">
        <ele>452</ele>
        <time>2021-07-27T07:27:56Z</time>
      </trkpt>
      <trkpt lat="45.90075" lon="3.01782">
        <ele>452</ele>
        <time>2021-07-27T07:27:57Z</time>
      </trkpt>
      <trkpt lat="45.90073" lon="3.01782">
        <ele>452</ele>
        <time>2021-07-27T07:27:58Z</time>
      </trkpt>
      <trkpt lat="45.90072" lon="3.01783">
        <ele>452</ele>
        <time>2021-07-27T07:27:59Z</time>
      </trkpt>
      <trkpt lat="45.9007" lon="3.01783">
        <ele>452</ele>
        <time>2021-07-27T07:28:00Z</time>
      </trkpt>
      <trkpt lat="45.90069" lon="3.01784">
        <ele>452</ele>
        <time>2021-07-27T07:28:01Z</time>
      </trkpt>
      <trkpt lat="45.90068" lon="3.01784">
        <ele>452</ele>
        <time>2021-07-27T07:28:02Z</time>
      </trkpt>
      <trkpt lat="45.90067" lon="3.01784">
        <ele>452</ele>
        <time>2021-07-27T07:28:02Z</time>
      </trkpt>
      <trkpt lat="45.90065" lon="3.01785">
        <ele>452</ele>
        <time>2021-07-27T07:28:03Z</time>
      </trkpt>
      <trkpt lat="45.90064" lon="3.01785">
        <ele>452</ele>
        <time>2021-07-27T07:28:04Z</time>
      </trkpt>
      <trkpt lat="45.90063" lon="3.01786">
        <ele>452</ele>
        <time>2021-07-27T07:28:05Z</time>
      </trkpt>
      <trkpt lat="45.90061" lon="3.01786">
        <ele>452</ele>
        <time>2021-07-27T07:28:06Z</time>
      </trkpt>
      <trkpt lat="45.9006" lon="3.01786">
        <ele>452</ele>
        <time>2021-07-27T07:28:07Z</time>
      </trkpt>
      <trkpt lat="45.90058" lon="3.01786">
        <ele>452</ele>
        <time>2021-07-27T07:28:08Z</time>
      </trkpt>
      <trkpt lat="45.90057" lon="3.01786">
        <ele>452</ele>
        <time>2021-07-27T07:28:09Z</time>
      </trkpt>
      <trkpt lat="45.90054" lon="3.01786">
        <ele>452</ele>
        <time>2021-07-27T07:28:10Z</time>
      </trkpt>
      <trkpt lat="45.90053" lon="3.01787">
        <ele>452</ele>
        <time>2021-07-27T07:28:11Z</time>
      </trkpt>
      <trkpt lat="45.90051" lon="3.01787">
        <ele>452</ele>
        <time>2021-07-27T07:28:12Z</time>
      </trkpt>
      <trkpt lat="45.9005" lon="3.01787">
        <ele>452</ele>
        <time>2021-07-27T07:28:13Z</time>
      </trkpt>
      <trkpt lat="45.90048" lon="3.01787">
        <ele>452</ele>
        <time>2021-07-27T07:28:14Z</time>
      </trkpt>
      <trkpt lat="45.90047" lon="3.01786">
        <ele>452</ele>
        <time>2021-07-27T07:28:15Z</time>
      </trkpt>
      <trkpt lat="45.90045" lon="3.01787">
        <ele>452</ele>
        <time>2021-07-27T07:28:16Z</time>
      </trkpt>
      <trkpt lat="45.90044" lon="3.01787">
        <ele>452</ele>
        <time>2021-07-27T07:28:17Z</time>
      </trkpt>
      <trkpt lat="45.90042" lon="3.01787">
        <ele>452</ele>
        <time>2021-07-27T07:28:18Z</time>
      </trkpt>
      <trkpt lat="45.90041" lon="3.01788">
        <ele>452</ele>
        <time>2021-07-27T07:28:19Z</time>
      </trkpt>
      <trkpt lat="45.90039" lon="3.01788">
        <ele>452</ele>
        <time>2021-07-27T07:28:20Z</time>
      </trkpt>
      <trkpt lat="45.90038" lon="3.01789">
        <ele>452</ele>
        <time>2021-07-27T07:28:21Z</time>
      </trkpt>
      <trkpt lat="45.90036" lon="3.0179">
        <ele>452</ele>
        <time>2021-07-27T07:28:22Z</time>
      </trkpt>
      <trkpt lat="45.90035" lon="3.01791">
        <ele>452</ele>
        <time>2021-07-27T07:28:23Z</time>
      </trkpt>
      <trkpt lat="45.90033" lon="3.01792">
        <ele>452</ele>
        <time>2021-07-27T07:28:24Z</time>
      </trkpt>
      <trkpt lat="45.90032" lon="3.01792">
        <ele>452</ele>
        <time>2021-07-27T07:28:25Z</time>
      </trkpt>
      <trkpt lat="45.90031" lon="3.01793">
        <ele>452</ele>
        <time>2021-07-27T07:28:26Z</time>
      </trkpt>
      <trkpt lat="45.9003" lon="3.01793">
        <ele>452</ele>
        <time>2021-07-27T07:28:27Z</time>
      </trkpt>
      <trkpt lat="45.90029" lon="3.01794">
        <ele>452</ele>
        <time>2021-07-27T07:28:28Z</time>
      </trkpt>
      <trkpt lat="45.90027" lon="3.01794">
        <ele>452</ele>
        <time>2021-07-27T07:28:29Z</time>
      </trkpt>
      <trkpt lat="45.90026" lon="3.01795">
        <ele>452</ele>
        <time>2021-07-27T07:28:30Z</time>
      </trkpt>
      <trkpt lat="45.90025" lon="3.01796">
        <ele>452</ele>
        <time>2021-07-27T07:28:31Z</time>
      </trkpt>
      <trkpt lat="45.90024" lon="3.01796">
        <ele>452</ele>
        <time>2021-07-27T07:28:32Z</time>
      </trkpt>
      <trkpt lat="45.90023" lon="3.01797">
        <ele>452</ele>
        <time>2021-07-27T07:28:33Z</time>
      </trkpt>
      <trkpt lat="45.90022" lon="3.01798">
        <ele>452</ele>
        <time>2021-07-27T07:28:34Z</time>
      </trkpt>
      <trkpt lat="45.90021" lon="3.01799">
        <ele>452</ele>
        <time>2021-07-27T07:28:35Z</time>
      </trkpt>
      <trkpt lat="45.9002" lon="3.018">
        <ele>452</ele>
        <time>2021-07-27T07:28:36Z</time>
      </trkpt>
      <trkpt lat="45.90019" lon="3.01801">
        <ele>452</ele>
        <time>2021-07-27T07:28:37Z</time>
      </trkpt>
      <trkpt lat="45.90018" lon="3.01803">
        <ele>452</ele>
        <time>2021-07-27T07:28:38Z</time>
      </trkpt>
      <trkpt lat="45.90017" lon="3.01804">
        <ele>452</ele>
        <time>2021-07-27T07:28:40Z</time>
      </trkpt>
      <trkpt lat="45.90011" lon="3.01809">
        <ele>452</ele>
        <time>2021-07-27T07:28:41Z</time>
      </trkpt>
      <trkpt lat="45.90011" lon="3.01809">
        <ele>452</ele>
        <time>2021-07-27T07:28:42Z</time>
      </trkpt>
      <trkpt lat="45.90011" lon="3.01809">
        <ele>452</ele>
        <time>2021-07-27T07:28:43Z</time>
      </trkpt>
      <trkpt lat="45.90009" lon="3.0181">
        <ele>452</ele>
        <time>2021-07-27T07:28:44Z</time>
      </trkpt>
      <trkpt lat="45.90008" lon="3.01811">
        <ele>452</ele>
        <time>2021-07-27T07:28:45Z</time>
      </trkpt>
      <trkpt lat="45.90007" lon="3.01812">
        <ele>452</ele>
        <time>2021-07-27T07:28:46Z</time>
      </trkpt>
      <trkpt lat="45.90006" lon="3.01813">
        <ele>452</ele>
        <time>2021-07-27T07:28:47Z</time>
      </trkpt>
      <trkpt lat="45.90005" lon="3.01814">
        <ele>452</ele>
        <time>2021-07-27T07:28:48Z</time>
      </trkpt>
      <trkpt lat="45.90004" lon="3.01815">
        <ele>452</ele>
        <time>2021-07-27T07:28:49Z</time>
      </trkpt>
      <trkpt lat="45.90003" lon="3.01817">
        <ele>452</ele>
        <time>2021-07-27T07:28:50Z</time>
      </trkpt>
      <trkpt lat="45.90001" lon="3.01818">
        <ele>452</ele>
        <time>2021-07-27T07:28:51Z</time>
      </trkpt>
      <trkpt lat="45.9" lon="3.01819">
        <ele>452</ele>
        <time>2021-07-27T07:28:52Z</time>
      </trkpt>
      <trkpt lat="45.89999" lon="3.01821">
        <ele>452</ele>
        <time>2021-07-27T07:28:53Z</time>
      </trkpt>
      <trkpt lat="45.89999" lon="3.01822">
        <ele>452</ele>
        <time>2021-07-27T07:28:54Z</time>
      </trkpt>
      <trkpt lat="45.89998" lon="3.01824">
        <ele>452</ele>
        <time>2021-07-27T07:28:55Z</time>
      </trkpt>
      <trkpt lat="45.89996" lon="3.01826">
        <ele>452</ele>
        <time>2021-07-27T07:28:56Z</time>
      </trkpt>
      <trkpt lat="45.89995" lon="3.01827">
        <ele>452</ele>
        <time>2021-07-27T07:28:57Z</time>
      </trkpt>
      <trkpt lat="45.89994" lon="3.01829">
        <ele>452</ele>
        <time>2021-07-27T07:28:58Z</time>
      </trkpt>
      <trkpt lat="45.89993" lon="3.0183">
        <ele>452</ele>
        <time>2021-07-27T07:28:59Z</time>
      </trkpt>
      <trkpt lat="45.89992" lon="3.01831">
        <ele>452</ele>
        <time>2021-07-27T07:29:00Z</time>
      </trkpt>
      <trkpt lat="45.8999" lon="3.01832">
        <ele>452</ele>
        <time>2021-07-27T07:29:01Z</time>
      </trkpt>
      <trkpt lat="45.8999" lon="3.01832">
        <ele>452</ele>
        <time>2021-07-27T07:29:02Z</time>
      </trkpt>
      <trkpt lat="45.89988" lon="3.01833">
        <ele>452</ele>
        <time>2021-07-27T07:29:03Z</time>
      </trkpt>
      <trkpt lat="45.89986" lon="3.01833">
        <ele>452</ele>
        <time>2021-07-27T07:29:04Z</time>
      </trkpt>
      <trkpt lat="45.89984" lon="3.01834">
        <ele>452</ele>
        <time>2021-07-27T07:29:05Z</time>
      </trkpt>
      <trkpt lat="45.89982" lon="3.01834">
        <ele>452</ele>
        <time>2021-07-27T07:29:06Z</time>
      </trkpt>
      <trkpt lat="45.89981" lon="3.01833">
        <ele>452</ele>
        <time>2021-07-27T07:29:07Z</time>
      </trkpt>
      <trkpt lat="45.8998" lon="3.01833">
        <ele>452</ele>
        <time>2021-07-27T07:29:08Z</time>
      </trkpt>
      <trkpt lat="45.89978" lon="3.01832">
        <ele>452</ele>
        <time>2021-07-27T07:29:09Z</time>
      </trkpt>
      <trkpt lat="45.89977" lon="3.01832">
        <ele>452</ele>
        <time>2021-07-27T07:29:10Z</time>
      </trkpt>
      <trkpt lat="45.89976" lon="3.01831">
        <ele>452</ele>
        <time>2021-07-27T07:29:11Z</time>
      </trkpt>
      <trkpt lat="45.89974" lon="3.01831">
        <ele>452</ele>
        <time>2021-07-27T07:29:12Z</time>
      </trkpt>
      <trkpt lat="45.89973" lon="3.01831">
        <ele>452</ele>
        <time>2021-07-27T07:29:13Z</time>
      </trkpt>
      <trkpt lat="45.89972" lon="3.01831">
        <ele>452</ele>
        <time>2021-07-27T07:29:14Z</time>
      </trkpt>
      <trkpt lat="45.8997" lon="3.01831">
        <ele>452</ele>
        <time>2021-07-27T07:29:15Z</time>
      </trkpt>
      <trkpt lat="45.89969" lon="3.01831">
        <ele>452</ele>
        <time>2021-07-27T07:29:16Z</time>
      </trkpt>
      <trkpt lat="45.89967" lon="3.01832">
        <ele>452</ele>
        <time>2021-07-27T07:29:17Z</time>
      </trkpt>
      <trkpt lat="45.89966" lon="3.01832">
        <ele>452</ele>
        <time>2021-07-27T07:29:18Z</time>
      </trkpt>
      <trkpt lat="45.89964" lon="3.01833">
        <ele>452</ele>
        <time>2021-07-27T07:29:19Z</time>
      </trkpt>
      <trkpt lat="45.89963" lon="3.01833">
        <ele>452</ele>
        <time>2021-07-27T07:29:20Z</time>
      </trkpt>
      <trkpt lat="45.89962" lon="3.01834">
        <ele>452</ele>
        <time>2021-07-27T07:29:21Z</time>
      </trkpt>
      <trkpt lat="45.8996" lon="3.01835">
        <ele>452</ele>
        <time>2021-07-27T07:29:22Z</time>
      </trkpt>
      <trkpt lat="45.89959" lon="3.01836">
        <ele>452</ele>
        <time>2021-07-27T07:29:23Z</time>
      </trkpt>
      <trkpt lat="45.89957" lon="3.01837">
        <ele>452</ele>
        <time>2021-07-27T07:29:24Z</time>
      </trkpt>
      <trkpt lat="45.89956" lon="3.01838">
        <ele>452</ele>
        <time>2021-07-27T07:29:25Z</time>
      </trkpt>
      <trkpt lat="45.89954" lon="3.01839">
        <ele>452</ele>
        <time>2021-07-27T07:29:26Z</time>
      </trkpt>
      <trkpt lat="45.89953" lon="3.0184">
        <ele>452</ele>
        <time>2021-07-27T07:29:27Z</time>
      </trkpt>
      <trkpt lat="45.89951" lon="3.01841">
        <ele>452</ele>
        <time>2021-07-27T07:29:28Z</time>
      </trkpt>
      <trkpt lat="45.8995" lon="3.01842">
        <ele>452</ele>
        <time>2021-07-27T07:29:29Z</time>
      </trkpt>
      <trkpt lat="45.89948" lon="3.01842">
        <ele>452</ele>
        <time>2021-07-27T07:29:30Z</time>
      </trkpt>
      <trkpt lat="45.89947" lon="3.01843">
        <ele>452</ele>
        <time>2021-07-27T07:29:31Z</time>
      </trkpt>
      <trkpt lat="45.89945" lon="3.01844">
        <ele>452</ele>
        <time>2021-07-27T07:29:32Z</time>
      </trkpt>
      <trkpt lat="45.89944" lon="3.01845">
        <ele>452</ele>
        <time>2021-07-27T07:29:33Z</time>
      </trkpt>
      <trkpt lat="45.89942" lon="3.01845">
        <ele>452</ele>
        <time>2021-07-27T07:29:34Z</time>
      </trkpt>
      <trkpt lat="45.8994" lon="3.01846">
        <ele>452</ele>
        <time>2021-07-27T07:29:35Z</time>
      </trkpt>
      <trkpt lat="45.89939" lon="3.01847">
        <ele>452</ele>
        <time>2021-07-27T07:29:36Z</time>
      </trkpt>
      <trkpt lat="45.89937" lon="3.01847">
        <ele>452</ele>
        <time>2021-07-27T07:29:37Z</time>
      </trkpt>
      <trkpt lat="45.89935" lon="3.01848">
        <ele>452</ele>
        <time>2021-07-27T07:29:38Z</time>
      </trkpt>
      <trkpt lat="45.89933" lon="3.01849">
        <ele>452</ele>
        <time>2021-07-27T07:29:40Z</time>
      </trkpt>
      <trkpt lat="45.89928" lon="3.01852">
        <ele>452</ele>
        <time>2021-07-27T07:29:41Z</time>
      </trkpt>
      <trkpt lat="45.89928" lon="3.01852">
        <ele>452</ele>
        <time>2021-07-27T07:29:42Z</time>
      </trkpt>
      <trkpt lat="45.89928" lon="3.01852">
        <ele>452</ele>
        <time>2021-07-27T07:29:43Z</time>
      </trkpt>
      <trkpt lat="45.89927" lon="3.01852">
        <ele>452</ele>
        <time>2021-07-27T07:29:44Z</time>
      </trkpt>
      <trkpt lat="45.89927" lon="3.01852">
        <ele>452</ele>
        <time>2021-07-27T07:29:45Z</time>
      </trkpt>
      <trkpt lat="45.89927" lon="3.01853">
        <ele>452</ele>
        <time>2021-07-27T07:29:46Z</time>
      </trkpt>
      <trkpt lat="45.89925" lon="3.01853">
        <ele>452</ele>
        <time>2021-07-27T07:29:47Z</time>
      </trkpt>
      <trkpt lat="45.89925" lon="3.01854">
        <ele>452</ele>
        <time>2021-07-27T07:29:48Z</time>
      </trkpt>
      <trkpt lat="45.89924" lon="3.01855">
        <ele>452</ele>
        <time>2021-07-27T07:29:49Z</time>
      </trkpt>
      <trkpt lat="45.89924" lon="3.01856">
        <ele>452</ele>
        <time>2021-07-27T07:29:50Z</time>
      </trkpt>
      <trkpt lat="45.89922" lon="3.01856">
        <ele>452</ele>
        <time>2021-07-27T07:29:51Z</time>
      </trkpt>
      <trkpt lat="45.89922" lon="3.01857">
        <ele>452</ele>
        <time>2021-07-27T07:29:52Z</time>
      </trkpt>
      <trkpt lat="45.89921" lon="3.01858">
        <ele>452</ele>
        <time>2021-07-27T07:29:53Z</time>
      </trkpt>
      <trkpt lat="45.8992" lon="3.01859">
        <ele>452</ele>
        <time>2021-07-27T07:29:54Z</time>
      </trkpt>
      <trkpt lat="45.89919" lon="3.0186">
        <ele>452</ele>
        <time>2021-07-27T07:29:55Z</time>
      </trkpt>
      <trkpt lat="45.89917" lon="3.01861">
        <ele>452</ele>
        <time>2021-07-27T07:29:56Z</time>
      </trkpt>
      <trkpt lat="45.89916" lon="3.01862">
        <ele>452</ele>
        <time>2021-07-27T07:29:57Z</time>
      </trkpt>
      <trkpt lat="45.89915" lon="3.01863">
        <ele>452</ele>
        <time>2021-07-27T07:29:58Z</time>
      </trkpt>
      <trkpt lat="45.89914" lon="3.01864">
        <ele>452</ele>
        <time>2021-07-27T07:29:59Z</time>
      </trkpt>
      <trkpt lat="45.89912" lon="3.01865">
        <ele>452</ele>
        <time>2021-07-27T07:30:00Z</time>
      </trkpt>
      <trkpt lat="45.89911" lon="3.01867">
        <ele>452</ele>
        <time>2021-07-27T07:30:01Z</time>
      </trkpt>
      <trkpt lat="45.8991" lon="3.01869">
        <ele>452</ele>
        <time>2021-07-27T07:30:02Z</time>
      </trkpt>
      <trkpt lat="45.89909" lon="3.0187">
        <ele>452</ele>
        <time>2021-07-27T07:30:03Z</time>
      </trkpt>
      <trkpt lat="45.89909" lon="3.01871">
        <ele>452</ele>
        <time>2021-07-27T07:30:04Z</time>
      </trkpt>
      <trkpt lat="45.89909" lon="3.01872">
        <ele>452</ele>
        <time>2021-07-27T07:30:05Z</time>
      </trkpt>
      <trkpt lat="45.89909" lon="3.01872">
        <ele>452</ele>
        <time>2021-07-27T07:30:06Z</time>
      </trkpt>
      <trkpt lat="45.89909" lon="3.01872">
        <ele>452</ele>
        <time>2021-07-27T07:30:07Z</time>
      </trkpt>
      <trkpt lat="45.89909" lon="3.01872">
        <ele>452</ele>
        <time>2021-07-27T07:30:08Z</time>
      </trkpt>
      <trkpt lat="45.89909" lon="3.01872">
        <ele>452</ele>
        <time>2021-07-27T07:30:09Z</time>
      </trkpt>
      <trkpt lat="45.89909" lon="3.01872">
        <ele>452</ele>
        <time>2021-07-27T07:30:10Z</time>
      </trkpt>
      <trkpt lat="45.89909" lon="3.01872">
        <ele>452</ele>
        <time>2021-07-27T07:30:11Z</time>
      </trkpt>
      <trkpt lat="45.89909" lon="3.01873">
        <ele>452</ele>
        <time>2021-07-27T07:30:12Z</time>
      </trkpt>
      <trkpt lat="45.89908" lon="3.01873">
        <ele>452</ele>
        <time>2021-07-27T07:30:13Z</time>
      </trkpt>
      <trkpt lat="45.89908" lon="3.01874">
        <ele>452</ele>
        <time>2021-07-27T07:30:14Z</time>
      </trkpt>
      <trkpt lat="45.89907" lon="3.01874">
        <ele>452</ele>
        <time>2021-07-27T07:30:15Z</time>
      </trkpt>
      <trkpt lat="45.89906" lon="3.01875">
        <ele>452</ele>
        <time>2021-07-27T07:30:16Z</time>
      </trkpt>
      <trkpt lat="45.89906" lon="3.01876">
        <ele>452</ele>
        <time>2021-07-27T07:30:17Z</time>
      </trkpt>
      <trkpt lat="45.89905" lon="3.01877">
        <ele>452</ele>
        <time>2021-07-27T07:30:18Z</time>
      </trkpt>
      <trkpt lat="45.89904" lon="3.01878">
        <ele>452</ele>
        <time>2021-07-27T07:30:19Z</time>
      </trkpt>
      <trkpt lat="45.89904" lon="3.0188">
        <ele>452</ele>
        <time>2021-07-27T07:30:20Z</time>
      </trkpt>
      <trkpt lat="45.89903" lon="3.01881">
        <ele>452</ele>
        <time>2021-07-27T07:30:21Z</time>
      </trkpt>
      <trkpt lat="45.89903" lon="3.01883">
        <ele>452</ele>
        <time>2021-07-27T07:30:22Z</time>
      </trkpt>
      <trkpt lat="45.89903" lon="3.01884">
        <ele>452</ele>
        <time>2021-07-27T07:30:23Z</time>
      </trkpt>
      <trkpt lat="45.89903" lon="3.01886">
        <ele>452</ele>
        <time>2021-07-27T07:30:24Z</time>
      </trkpt>
      <trkpt lat="45.89903" lon="3.01888">
        <ele>452</ele>
        <time>2021-07-27T07:30:25Z</time>
      </trkpt>
      <trkpt lat="45.89903" lon="3.0189">
        <ele>452</ele>
        <time>2021-07-27T07:30:26Z</time>
      </trkpt>
      <trkpt lat="45.89903" lon="3.01892">
        <ele>452</ele>
        <time>2021-07-27T07:30:27Z</time>
      </trkpt>
      <trkpt lat="45.89903" lon="3.01894">
        <ele>452</ele>
        <time>2021-07-27T07:30:28Z</time>
      </trkpt>
      <trkpt lat="45.89903" lon="3.01896">
        <ele>452</ele>
        <time>2021-07-27T07:30:29Z</time>
      </trkpt>
      <trkpt lat="45.89903" lon="3.01898">
        <ele>452</ele>
        <time>2021-07-27T07:30:30Z</time>
      </trkpt>
      <trkpt lat="45.89902" lon="3.01899">
        <ele>452</ele>
        <time>2021-07-27T07:30:31Z</time>
      </trkpt>
      <trkpt lat="45.89902" lon="3.01901">
        <ele>452</ele>
        <time>2021-07-27T07:30:32Z</time>
      </trkpt>
      <trkpt lat="45.89902" lon="3.01904">
        <ele>452</ele>
        <time>2021-07-27T07:30:33Z</time>
      </trkpt>
      <trkpt lat="45.89901" lon="3.01906">
        <ele>452</ele>
        <time>2021-07-27T07:30:34Z</time>
      </trkpt>
      <trkpt lat="45.89901" lon="3.01908">
        <ele>452</ele>
        <time>2021-07-27T07:30:35Z</time>
      </trkpt>
      <trkpt lat="45.89901" lon="3.01911">
        <ele>452</ele>
        <time>2021-07-27T07:30:36Z</time>
      </trkpt>
      <trkpt lat="45.89901" lon="3.01914">
        <ele>452</ele>
        <time>2021-07-27T07:30:37Z</time>
      </trkpt>
      <trkpt lat="45.89901" lon="3.01916">
        <ele>452</ele>
        <time>2021-07-27T07:30:39Z</time>
      </trkpt>
      <trkpt lat="45.899" lon="3.01926">
        <ele>452</ele>
        <time>2021-07-27T07:30:41Z</time>
      </trkpt>
      <trkpt lat="45.899" lon="3.01929">
        <ele>452</ele>
        <time>2021-07-27T07:30:42Z</time>
      </trkpt>
      <trkpt lat="45.899" lon="3.0193">
        <ele>452</ele>
        <time>2021-07-27T07:30:43Z</time>
      </trkpt>
      <trkpt lat="45.899" lon="3.01931">
        <ele>452</ele>
        <time>2021-07-27T07:30:44Z</time>
      </trkpt>
      <trkpt lat="45.899" lon="3.01932">
        <ele>452</ele>
        <time>2021-07-27T07:30:45Z</time>
      </trkpt>
      <trkpt lat="45.899" lon="3.01933">
        <ele>452</ele>
        <time>2021-07-27T07:30:46Z</time>
      </trkpt>
      <trkpt lat="45.899" lon="3.01935">
        <ele>452</ele>
        <time>2021-07-27T07:30:47Z</time>
      </trkpt>
      <trkpt lat="45.899" lon="3.01937">
        <ele>452</ele>
        <time>2021-07-27T07:30:48Z</time>
      </trkpt>
      <trkpt lat="45.899" lon="3.01939">
        <ele>452</ele>
        <time>2021-07-27T07:30:49Z</time>
      </trkpt>
      <trkpt lat="45.89899" lon="3.01941">
        <ele>452</ele>
        <time>2021-07-27T07:30:50Z</time>
      </trkpt>
      <trkpt lat="45.89899" lon="3.01943">
        <ele>452</ele>
        <time>2021-07-27T07:30:51Z</time>
      </trkpt>
      <trkpt lat="45.89899" lon="3.01945">
        <ele>452</ele>
        <time>2021-07-27T07:30:52Z</time>
      </trkpt>
      <trkpt lat="45.899" lon="3.01948">
        <ele>452</ele>
        <time>2021-07-27T07:30:53Z</time>
      </trkpt>
      <trkpt lat="45.899" lon="3.0195">
        <ele>452</ele>
        <time>2021-07-27T07:30:54Z</time>
      </trkpt>
      <trkpt lat="45.899" lon="3.01953">
        <ele>452</ele>
        <time>2021-07-27T07:30:55Z</time>
      </trkpt>
      <trkpt lat="45.899" lon="3.01955">
        <ele>452</ele>
        <time>2021-07-27T07:30:56Z</time>
      </trkpt>
      <trkpt lat="45.899" lon="3.01957">
        <ele>452</ele>
        <time>2021-07-27T07:30:57Z</time>
      </trkpt>
      <trkpt lat="45.899" lon="3.01959">
        <ele>452</ele>
        <time>2021-07-27T07:30:58Z</time>
      </trkpt>
      <trkpt lat="45.899" lon="3.01962">
        <ele>452</ele>
        <time>2021-07-27T07:30:59Z</time>
      </trkpt>
      <trkpt lat="45.899" lon="3.01964">
        <ele>452</ele>
        <time>2021-07-27T07:31:00Z</time>
      </trkpt>
      <trkpt lat="45.899" lon="3.01967">
        <ele>452</ele>
        <time>2021-07-27T07:31:01Z</time>
      </trkpt>
      <trkpt lat="45.899" lon="3.01969">
        <ele>452</ele>
        <time>2021-07-27T07:31:02Z</time>
      </trkpt>
      <trkpt lat="45.89899" lon="3.01972">
        <ele>452</ele>
        <time>2021-07-27T07:31:03Z</time>
      </trkpt>
      <trkpt lat="45.89899" lon="3.01974">
        <ele>452</ele>
        <time>2021-07-27T07:31:04Z</time>
      </trkpt>
      <trkpt lat="45.89899" lon="3.01976">
        <ele>452</ele>
        <time>2021-07-27T07:31:05Z</time>
      </trkpt>
      <trkpt lat="45.89899" lon="3.01978">
        <ele>452</ele>
        <time>2021-07-27T07:31:06Z</time>
      </trkpt>
      <trkpt lat="45.89899" lon="3.0198">
        <ele>452</ele>
        <time>2021-07-27T07:31:07Z</time>
      </trkpt>
      <trkpt lat="45.89899" lon="3.01982">
        <ele>452</ele>
        <time>2021-07-27T07:31:08Z</time>
      </trkpt>
      <trkpt lat="45.89899" lon="3.01984">
        <ele>452</ele>
        <time>2021-07-27T07:31:09Z</time>
      </trkpt>
      <trkpt lat="45.89898" lon="3.01987">
        <ele>452</ele>
        <time>2021-07-27T07:31:10Z</time>
      </trkpt>
      <trkpt lat="45.89898" lon="3.01989">
        <ele>452</ele>
        <time>2021-07-27T07:31:11Z</time>
      </trkpt>
      <trkpt lat="45.89898" lon="3.01991">
        <ele>452</ele>
        <time>2021-07-27T07:31:12Z</time>
      </trkpt>
      <trkpt lat="45.89897" lon="3.01994">
        <ele>452</ele>
        <time>2021-07-27T07:31:13Z</time>
      </trkpt>
      <trkpt lat="45.89897" lon="3.01996">
        <ele>452</ele>
        <time>2021-07-27T07:31:14Z</time>
      </trkpt>
      <trkpt lat="45.89896" lon="3.01998">
        <ele>452</ele>
        <time>2021-07-27T07:31:15Z</time>
      </trkpt>
      <trkpt lat="45.89896" lon="3.02">
        <ele>452</ele>
        <time>2021-07-27T07:31:16Z</time>
      </trkpt>
      <trkpt lat="45.89895" lon="3.02003">
        <ele>452</ele>
        <time>2021-07-27T07:31:17Z</time>
      </trkpt>
      <trkpt lat="45.89895" lon="3.02005">
        <ele>452</ele>
        <time>2021-07-27T07:31:18Z</time>
      </trkpt>
      <trkpt lat="45.89894" lon="3.02007">
        <ele>452</ele>
        <time>2021-07-27T07:31:19Z</time>
      </trkpt>
      <trkpt lat="45.89894" lon="3.02009">
        <ele>452</ele>
        <time>2021-07-27T07:31:20Z</time>
      </trkpt>
      <trkpt lat="45.89894" lon="3.0201">
        <ele>452</ele>
        <time>2021-07-27T07:31:21Z</time>
      </trkpt>
      <trkpt lat="45.89894" lon="3.02012">
        <ele>452</ele>
        <time>2021-07-27T07:31:22Z</time>
      </trkpt>
      <trkpt lat="45.89894" lon="3.02013">
        <ele>452</ele>
        <time>2021-07-27T07:31:23Z</time>
      </trkpt>
      <trkpt lat="45.89894" lon="3.02015">
        <ele>452</ele>
        <time>2021-07-27T07:31:24Z</time>
      </trkpt>
      <trkpt lat="45.89894" lon="3.02017">
        <ele>452</ele>
        <time>2021-07-27T07:31:25Z</time>
      </trkpt>
      <trkpt lat="45.89894" lon="3.02018">
        <ele>452</ele>
        <time>2021-07-27T07:31:26Z</time>
      </trkpt>
      <trkpt lat="45.89894" lon="3.02019">
        <ele>452</ele>
        <time>2021-07-27T07:31:27Z</time>
      </trkpt>
      <trkpt lat="45.89894" lon="3.02021">
        <ele>452</ele>
        <time>2021-07-27T07:31:28Z</time>
      </trkpt>
      <trkpt lat="45.89894" lon="3.02022">
        <ele>452</ele>
        <time>2021-07-27T07:31:29Z</time>
      </trkpt>
      <trkpt lat="45.89894" lon="3.02024">
        <ele>452</ele>
        <time>2021-07-27T07:31:30Z</time>
      </trkpt>
      <trkpt lat="45.89894" lon="3.02025">
        <ele>452</ele>
        <time>2021-07-27T07:31:31Z</time>
      </trkpt>
      <trkpt lat="45.89893" lon="3.02027">
        <ele>452</ele>
        <time>2021-07-27T07:31:32Z</time>
      </trkpt>
      <trkpt lat="45.89893" lon="3.02029">
        <ele>452</ele>
        <time>2021-07-27T07:31:33Z</time>
      </trkpt>
      <trkpt lat="45.89893" lon="3.02031">
        <ele>452</ele>
        <time>2021-07-27T07:31:34Z</time>
      </trkpt>
      <trkpt lat="45.89892" lon="3.02033">
        <ele>452</ele>
        <time>2021-07-27T07:31:35Z</time>
      </trkpt>
      <trkpt lat="45.89891" lon="3.02035">
        <ele>452</ele>
        <time>2021-07-27T07:31:36Z</time>
      </trkpt>
      <trkpt lat="45.89891" lon="3.02037">
        <ele>452</ele>
        <time>2021-07-27T07:31:37Z</time>
      </trkpt>
      <trkpt lat="45.89891" lon="3.02038">
        <ele>452</ele>
        <time>2021-07-27T07:31:38Z</time>
      </trkpt>
      <trkpt lat="45.89891" lon="3.02041">
        <ele>452</ele>
        <time>2021-07-27T07:31:40Z</time>
      </trkpt>
      <trkpt lat="45.89889" lon="3.02049">
        <ele>452</ele>
        <time>2021-07-27T07:31:41Z</time>
      </trkpt>
      <trkpt lat="45.89888" lon="3.02049">
        <ele>452</ele>
        <time>2021-07-27T07:31:42Z</time>
      </trkpt>
      <trkpt lat="45.89888" lon="3.0205">
        <ele>452</ele>
        <time>2021-07-27T07:31:43Z</time>
      </trkpt>
      <trkpt lat="45.89888" lon="3.02051">
        <ele>452</ele>
        <time>2021-07-27T07:31:44Z</time>
      </trkpt>
      <trkpt lat="45.89888" lon="3.02053">
        <ele>452</ele>
        <time>2021-07-27T07:31:45Z</time>
      </trkpt>
      <trkpt lat="45.89887" lon="3.02054">
        <ele>452</ele>
        <time>2021-07-27T07:31:46Z</time>
      </trkpt>
      <trkpt lat="45.89887" lon="3.02056">
        <ele>452</ele>
        <time>2021-07-27T07:31:47Z</time>
      </trkpt>
      <trkpt lat="45.89886" lon="3.02057">
        <ele>452</ele>
        <time>2021-07-27T07:31:48Z</time>
      </trkpt>
      <trkpt lat="45.89885" lon="3.02059">
        <ele>452</ele>
        <time>2021-07-27T07:31:49Z</time>
      </trkpt>
      <trkpt lat="45.89885" lon="3.02061">
        <ele>452</ele>
        <time>2021-07-27T07:31:50Z</time>
      </trkpt>
      <trkpt lat="45.89885" lon="3.02062">
        <ele>452</ele>
        <time>2021-07-27T07:31:51Z</time>
      </trkpt>
      <trkpt lat="45.89884" lon="3.02064">
        <ele>452</ele>
        <time>2021-07-27T07:31:52Z</time>
      </trkpt>
      <trkpt lat="45.89883" lon="3.02066">
        <ele>452</ele>
        <time>2021-07-27T07:31:53Z</time>
      </trkpt>
      <trkpt lat="45.89883" lon="3.02068">
        <ele>452</ele>
        <time>2021-07-27T07:31:54Z</time>
      </trkpt>
      <trkpt lat="45.89882" lon="3.0207">
        <ele>452</ele>
        <time>2021-07-27T07:31:55Z</time>
      </trkpt>
      <trkpt lat="45.89882" lon="3.02072">
        <ele>452</ele>
        <time>2021-07-27T07:31:56Z</time>
      </trkpt>
      <trkpt lat="45.89882" lon="3.02074">
        <ele>452</ele>
        <time>2021-07-27T07:31:57Z</time>
      </trkpt>
      <trkpt lat="45.8988" lon="3.02075">
        <ele>452</ele>
        <time>2021-07-27T07:31:58Z</time>
      </trkpt>
      <trkpt lat="45.89879" lon="3.02077">
        <ele>452</ele>
        <time>2021-07-27T07:31:59Z</time>
      </trkpt>
      <trkpt lat="45.89879" lon="3.02079">
        <ele>452</ele>
        <time>2021-07-27T07:32:00Z</time>
      </trkpt>
      <trkpt lat="45.89877" lon="3.0208">
        <ele>452</ele>
        <time>2021-07-27T07:32:01Z</time>
      </trkpt>
      <trkpt lat="45.89876" lon="3.02081">
        <ele>452</ele>
        <time>2021-07-27T07:32:02Z</time>
      </trkpt>
      <trkpt lat="45.89875" lon="3.02082">
        <ele>452</ele>
        <time>2021-07-27T07:32:03Z</time>
      </trkpt>
      <trkpt lat="45.89874" lon="3.02083">
        <ele>452</ele>
        <time>2021-07-27T07:32:04Z</time>
      </trkpt>
      <trkpt lat="45.89873" lon="3.02083">
        <ele>452</ele>
        <time>2021-07-27T07:32:05Z</time>
      </trkpt>
      <trkpt lat="45.89871" lon="3.02084">
        <ele>452</ele>
        <time>2021-07-27T07:32:06Z</time>
      </trkpt>
      <trkpt lat="45.8987" lon="3.02084">
        <ele>452</ele>
        <time>2021-07-27T07:32:07Z</time>
      </trkpt>
      <trkpt lat="45.89869" lon="3.02084">
        <ele>452</ele>
        <time>2021-07-27T07:32:08Z</time>
      </trkpt>
      <trkpt lat="45.89867" lon="3.02084">
        <ele>452</ele>
        <time>2021-07-27T07:32:09Z</time>
      </trkpt>
      <trkpt lat="45.89866" lon="3.02084">
        <ele>452</ele>
        <time>2021-07-27T07:32:10Z</time>
      </trkpt>
      <trkpt lat="45.89864" lon="3.02083">
        <ele>452</ele>
        <time>2021-07-27T07:32:11Z</time>
      </trkpt>
      <trkpt lat="45.89862" lon="3.02083">
        <ele>452</ele>
        <time>2021-07-27T07:32:12Z</time>
      </trkpt>
      <trkpt lat="45.89861" lon="3.02083">
        <ele>452</ele>
        <time>2021-07-27T07:32:13Z</time>
      </trkpt>
      <trkpt lat="45.89859" lon="3.02082">
        <ele>452</ele>
        <time>2021-07-27T07:32:14Z</time>
      </trkpt>
      <trkpt lat="45.89857" lon="3.02082">
        <ele>452</ele>
        <time>2021-07-27T07:32:15Z</time>
      </trkpt>
      <trkpt lat="45.89856" lon="3.02081">
        <ele>452</ele>
        <time>2021-07-27T07:32:16Z</time>
      </trkpt>
      <trkpt lat="45.89854" lon="3.02081">
        <ele>452</ele>
        <time>2021-07-27T07:32:17Z</time>
      </trkpt>
      <trkpt lat="45.89853" lon="3.0208">
        <ele>452</ele>
        <time>2021-07-27T07:32:17Z</time>
      </trkpt>
      <trkpt lat="45.89851" lon="3.0208">
        <ele>452</ele>
        <time>2021-07-27T07:32:18Z</time>
      </trkpt>
      <trkpt lat="45.8985" lon="3.02079">
        <ele>452</ele>
        <time>2021-07-27T07:32:19Z</time>
      </trkpt>
      <trkpt lat="45.89849" lon="3.02079">
        <ele>452</ele>
        <time>2021-07-27T07:32:20Z</time>
      </trkpt>
      <trkpt lat="45.89847" lon="3.02079">
        <ele>452</ele>
        <time>2021-07-27T07:32:21Z</time>
      </trkpt>
      <trkpt lat="45.89846" lon="3.02078">
        <ele>452</ele>
        <time>2021-07-27T07:32:22Z</time>
      </trkpt>
      <trkpt lat="45.89844" lon="3.02078">
        <ele>452</ele>
        <time>2021-07-27T07:32:23Z</time>
      </trkpt>
      <trkpt lat="45.89843" lon="3.02077">
        <ele>452</ele>
        <time>2021-07-27T07:32:24Z</time>
      </trkpt>
      <trkpt lat="45.89842" lon="3.02077">
        <ele>452</ele>
        <time>2021-07-27T07:32:25Z</time>
      </trkpt>
      <trkpt lat="45.8984" lon="3.02076">
        <ele>452</ele>
        <time>2021-07-27T07:32:26Z</time>
      </trkpt>
      <trkpt lat="45.89839" lon="3.02075">
        <ele>452</ele>
        <time>2021-07-27T07:32:27Z</time>
      </trkpt>
      <trkpt lat="45.89838" lon="3.02075">
        <ele>452</ele>
        <time>2021-07-27T07:32:28Z</time>
      </trkpt>
      <trkpt lat="45.89836" lon="3.02074">
        <ele>452</ele>
        <time>2021-07-27T07:32:29Z</time>
      </trkpt>
      <trkpt lat="45.89835" lon="3.02074">
        <ele>452</ele>
        <time>2021-07-27T07:32:30Z</time>
      </trkpt>
      <trkpt lat="45.89834" lon="3.02073">
        <ele>452</ele>
        <time>2021-07-27T07:32:31Z</time>
      </trkpt>
      <trkpt lat="45.89833" lon="3.02072">
        <ele>452</ele>
        <time>2021-07-27T07:32:32Z</time>
      </trkpt>
      <trkpt lat="45.89832" lon="3.02071">
        <ele>452</ele>
        <time>2021-07-27T07:32:33Z</time>
      </trkpt>
      <trkpt lat="45.8983" lon="3.02071">
        <ele>452</ele>
        <time>2021-07-27T07:32:34Z</time>
      </trkpt>
      <trkpt lat="45.89829" lon="3.02071">
        <ele>452</ele>
        <time>2021-07-27T07:32:35Z</time>
      </trkpt>
      <trkpt lat="45.89828" lon="3.0207">
        <ele>452</ele>
        <time>2021-07-27T07:32:36Z</time>
      </trkpt>
      <trkpt lat="45.89826" lon="3.0207">
        <ele>452</ele>
        <time>2021-07-27T07:32:37Z</time>
      </trkpt>
      <trkpt lat="45.89825" lon="3.0207">
        <ele>452</ele>
        <time>2021-07-27T07:32:39Z</time>
      </trkpt>
      <trkpt lat="45.89824" lon="3.0207">
        <ele>452</ele>
        <time>2021-07-27T07:32:40Z</time>
      </trkpt>
      <trkpt lat="45.89817" lon="3.02071">
        <ele>452</ele>
        <time>2021-07-27T07:32:41Z</time>
      </trkpt>
      <trkpt lat="45.89817" lon="3.02071">
        <ele>452</ele>
        <time>2021-07-27T07:32:42Z</time>
      </trkpt>
      <trkpt lat="45.89816" lon="3.02072">
        <ele>452</ele>
        <time>2021-07-27T07:32:43Z</time>
      </trkpt>
      <trkpt lat="45.89815" lon="3.02072">
        <ele>452</ele>
        <time>2021-07-27T07:32:44Z</time>
      </trkpt>
      <trkpt lat="45.89814" lon="3.02072">
        <ele>452</ele>
        <time>2021-07-27T07:32:45Z</time>
      </trkpt>
      <trkpt lat="45.89813" lon="3.02071">
        <ele>452</ele>
        <time>2021-07-27T07:32:46Z</time>
      </trkpt>
      <trkpt lat="45.89811" lon="3.02071">
        <ele>452</ele>
        <time>2021-07-27T07:32:47Z</time>
      </trkpt>
      <trkpt lat="45.8981" lon="3.02071">
        <ele>452</ele>
        <time>2021-07-27T07:32:48Z</time>
      </trkpt>
      <trkpt lat="45.89808" lon="3.02071">
        <ele>452</ele>
        <time>2021-07-27T07:32:49Z</time>
      </trkpt>
      <trkpt lat="45.89807" lon="3.02071">
        <ele>452</ele>
        <time>2021-07-27T07:32:50Z</time>
      </trkpt>
      <trkpt lat="45.89806" lon="3.02072">
        <ele>452</ele>
        <time>2021-07-27T07:32:51Z</time>
      </trkpt>
      <trkpt lat="45.89804" lon="3.02072">
        <ele>452</ele>
        <time>2021-07-27T07:32:52Z</time>
      </trkpt>
      <trkpt lat="45.89803" lon="3.02072">
        <ele>452</ele>
        <time>2021-07-27T07:32:53Z</time>
      </trkpt>
      <trkpt lat="45.89801" lon="3.02072">
        <ele>452</ele>
        <time>2021-07-27T07:32:54Z</time>
      </trkpt>
      <trkpt lat="45.898" lon="3.02072">
        <ele>452</ele>
        <time>2021-07-27T07:32:55Z</time>
      </trkpt>
      <trkpt lat="45.89798" lon="3.02071">
        <ele>452</ele>
        <time>2021-07-27T07:32:56Z</time>
      </trkpt>
      <trkpt lat="45.89796" lon="3.02071">
        <ele>452</ele>
        <time>2021-07-27T07:32:57Z</time>
      </trkpt>
      <trkpt lat="45.89795" lon="3.02071">
        <ele>452</ele>
        <time>2021-07-27T07:32:58Z</time>
      </trkpt>
      <trkpt lat="45.89793" lon="3.0207">
        <ele>452</ele>
        <time>2021-07-27T07:32:59Z</time>
      </trkpt>
      <trkpt lat="45.89792" lon="3.0207">
        <ele>452</ele>
        <time>2021-07-27T07:33:00Z</time>
      </trkpt>
      <trkpt lat="45.89791" lon="3.0207">
        <ele>452</ele>
        <time>2021-07-27T07:33:01Z</time>
      </trkpt>
      <trkpt lat="45.89789" lon="3.02069">
        <ele>452</ele>
        <time>2021-07-27T07:33:02Z</time>
      </trkpt>
      <trkpt lat="45.89788" lon="3.02069">
        <ele>452</ele>
        <time>2021-07-27T07:33:03Z</time>
      </trkpt>
      <trkpt lat="45.89786" lon="3.02068">
        <ele>452</ele>
        <time>2021-07-27T07:33:04Z</time>
      </trkpt>
      <trkpt lat="45.89785" lon="3.02068">
        <ele>452</ele>
        <time>2021-07-27T07:33:05Z</time>
      </trkpt>
      <trkpt lat="45.89783" lon="3.02068">
        <ele>452</ele>
        <time>2021-07-27T07:33:06Z</time>
      </trkpt>
      <trkpt lat="45.89782" lon="3.02068">
        <ele>452</ele>
        <time>2021-07-27T07:33:07Z</time>
      </trkpt>
      <trkpt lat="45.8978" lon="3.02068">
        <ele>452</ele>
        <time>2021-07-27T07:33:08Z</time>
      </trkpt>
      <trkpt lat="45.89778" lon="3.02067">
        <ele>452</ele>
        <time>2021-07-27T07:33:09Z</time>
      </trkpt>
      <trkpt lat="45.89776" lon="3.02067">
        <ele>452</ele>
        <time>2021-07-27T07:33:10Z</time>
      </trkpt>
      <trkpt lat="45.89775" lon="3.02067">
        <ele>452</ele>
        <time>2021-07-27T07:33:11Z</time>
      </trkpt>
      <trkpt lat="45.89773" lon="3.02067">
        <ele>452</ele>
        <time>2021-07-27T07:33:12Z</time>
      </trkpt>
      <trkpt lat="45.89771" lon="3.02067">
        <ele>452</ele>
        <time>2021-07-27T07:33:13Z</time>
      </trkpt>
      <trkpt lat="45.8977" lon="3.02067">
        <ele>452</ele>
        <time>2021-07-27T07:33:14Z</time>
      </trkpt>
      <trkpt lat="45.89768" lon="3.02067">
        <ele>452</ele>
        <time>2021-07-27T07:33:15Z</time>
      </trkpt>
      <trkpt lat="45.89767" lon="3.02067">
        <ele>452</ele>
        <time>2021-07-27T07:33:16Z</time>
      </trkpt>
      <trkpt lat="45.89765" lon="3.02067">
        <ele>452</ele>
        <time>2021-07-27T07:33:17Z</time>
      </trkpt>
      <trkpt lat="45.89764" lon="3.02068">
        <ele>452</ele>
        <time>2021-07-27T07:33:18Z</time>
      </trkpt>
      <trkpt lat="45.89762" lon="3.02068">
        <ele>452</ele>
        <time>2021-07-27T07:33:19Z</time>
      </trkpt>
      <trkpt lat="45.89761" lon="3.02068">
        <ele>452</ele>
        <time>2021-07-27T07:33:20Z</time>
      </trkpt>
      <trkpt lat="45.89759" lon="3.02068">
        <ele>452</ele>
        <time>2021-07-27T07:33:21Z</time>
      </trkpt>
      <trkpt lat="45.89758" lon="3.02068">
        <ele>452</ele>
        <time>2021-07-27T07:33:22Z</time>
      </trkpt>
      <trkpt lat="45.89756" lon="3.02068">
        <ele>452</ele>
        <time>2021-07-27T07:33:23Z</time>
      </trkpt>
      <trkpt lat="45.89755" lon="3.02068">
        <ele>452</ele>
        <time>2021-07-27T07:33:24Z</time>
      </trkpt>
      <trkpt lat="45.89753" lon="3.02068">
        <ele>452</ele>
        <time>2021-07-27T07:33:25Z</time>
      </trkpt>
      <trkpt lat="45.89752" lon="3.02068">
        <ele>452</ele>
        <time>2021-07-27T07:33:26Z</time>
      </trkpt>
      <trkpt lat="45.89751" lon="3.02068">
        <ele>452</ele>
        <time>2021-07-27T07:33:27Z</time>
      </trkpt>
      <trkpt lat="45.8975" lon="3.02068">
        <ele>452</ele>
        <time>2021-07-27T07:33:28Z</time>
      </trkpt>
      <trkpt lat="45.89749" lon="3.02068">
        <ele>452</ele>
        <time>2021-07-27T07:33:29Z</time>
      </trkpt>
      <trkpt lat="45.89749" lon="3.02068">
        <ele>452</ele>
        <time>2021-07-27T07:33:30Z</time>
      </trkpt>
      <trkpt lat="45.89748" lon="3.02068">
        <ele>452</ele>
        <time>2021-07-27T07:33:31Z</time>
      </trkpt>
      <trkpt lat="45.89747" lon="3.02068">
        <ele>452</ele>
        <time>2021-07-27T07:33:32Z</time>
      </trkpt>
      <trkpt lat="45.89746" lon="3.02068">
        <ele>452</ele>
        <time>2021-07-27T07:33:33Z</time>
      </trkpt>
      <trkpt lat="45.89744" lon="3.02067">
        <ele>452</ele>
        <time>2021-07-27T07:33:34Z</time>
      </trkpt>
      <trkpt lat="45.89743" lon="3.02067">
        <ele>452</ele>
        <time>2021-07-27T07:33:35Z</time>
      </trkpt>
      <trkpt lat="45.89742" lon="3.02067">
        <ele>452</ele>
        <time>2021-07-27T07:33:36Z</time>
      </trkpt>
      <trkpt lat="45.8974" lon="3.02066">
        <ele>452</ele>
        <time>2021-07-27T07:33:38Z</time>
      </trkpt>
      <trkpt lat="45.89738" lon="3.02066">
        <ele>452</ele>
        <time>2021-07-27T07:33:39Z</time>
      </trkpt>
      <trkpt lat="45.89737" lon="3.02065">
        <ele>452</ele>
        <time>2021-07-27T07:33:40Z</time>
      </trkpt>
      <trkpt lat="45.89731" lon="3.02063">
        <ele>452</ele>
        <time>2021-07-27T07:33:41Z</time>
      </trkpt>
      <trkpt lat="45.8973" lon="3.02062">
        <ele>452</ele>
        <time>2021-07-27T07:33:42Z</time>
      </trkpt>
      <trkpt lat="45.89729" lon="3.02062">
        <ele>452</ele>
        <time>2021-07-27T07:33:43Z</time>
      </trkpt>
      <trkpt lat="45.89728" lon="3.02061">
        <ele>452</ele>
        <time>2021-07-27T07:33:44Z</time>
      </trkpt>
      <trkpt lat="45.89727" lon="3.02061">
        <ele>452</ele>
        <time>2021-07-27T07:33:45Z</time>
      </trkpt>
      <trkpt lat="45.89725" lon="3.0206">
        <ele>452</ele>
        <time>2021-07-27T07:33:46Z</time>
      </trkpt>
      <trkpt lat="45.89724" lon="3.02059">
        <ele>452</ele>
        <time>2021-07-27T07:33:47Z</time>
      </trkpt>
      <trkpt lat="45.89722" lon="3.02058">
        <ele>452</ele>
        <time>2021-07-27T07:33:48Z</time>
      </trkpt>
      <trkpt lat="45.89722" lon="3.02058">
        <ele>452</ele>
        <time>2021-07-27T07:33:49Z</time>
      </trkpt>
      <trkpt lat="45.8972" lon="3.02057">
        <ele>452</ele>
        <time>2021-07-27T07:33:50Z</time>
      </trkpt>
      <trkpt lat="45.89719" lon="3.02056">
        <ele>452</ele>
        <time>2021-07-27T07:33:51Z</time>
      </trkpt>
      <trkpt lat="45.89718" lon="3.02055">
        <ele>452</ele>
        <time>2021-07-27T07:33:52Z</time>
      </trkpt>
      <trkpt lat="45.89717" lon="3.02054">
        <ele>452</ele>
        <time>2021-07-27T07:33:53Z</time>
      </trkpt>
      <trkpt lat="45.89716" lon="3.02053">
        <ele>452</ele>
        <time>2021-07-27T07:33:54Z</time>
      </trkpt>
      <trkpt lat="45.89715" lon="3.02052">
        <ele>452</ele>
        <time>2021-07-27T07:33:55Z</time>
      </trkpt>
      <trkpt lat="45.89714" lon="3.02051">
        <ele>452</ele>
        <time>2021-07-27T07:33:56Z</time>
      </trkpt>
      <trkpt lat="45.89713" lon="3.0205">
        <ele>452</ele>
        <time>2021-07-27T07:33:57Z</time>
      </trkpt>
      <trkpt lat="45.89711" lon="3.02049">
        <ele>452</ele>
        <time>2021-07-27T07:33:58Z</time>
      </trkpt>
      <trkpt lat="45.8971" lon="3.02048">
        <ele>452</ele>
        <time>2021-07-27T07:33:59Z</time>
      </trkpt>
      <trkpt lat="45.89709" lon="3.02047">
        <ele>452</ele>
        <time>2021-07-27T07:34:00Z</time>
      </trkpt>
      <trkpt lat="45.89708" lon="3.02047">
        <ele>452</ele>
        <time>2021-07-27T07:34:01Z</time>
      </trkpt>
      <trkpt lat="45.89706" lon="3.02046">
        <ele>452</ele>
        <time>2021-07-27T07:34:02Z</time>
      </trkpt>
      <trkpt lat="45.89705" lon="3.02045">
        <ele>452</ele>
        <time>2021-07-27T07:34:03Z</time>
      </trkpt>
      <trkpt lat="45.89704" lon="3.02044">
        <ele>452</ele>
        <time>2021-07-27T07:34:04Z</time>
      </trkpt>
      <trkpt lat="45.89702" lon="3.02044">
        <ele>452</ele>
        <time>2021-07-27T07:34:05Z</time>
      </trkpt>
      <trkpt lat="45.89701" lon="3.02043">
        <ele>452</ele>
        <time>2021-07-27T07:34:06Z</time>
      </trkpt>
      <trkpt lat="45.89699" lon="3.02042">
        <ele>452</ele>
        <time>2021-07-27T07:34:07Z</time>
      </trkpt>
      <trkpt lat="45.89698" lon="3.02042">
        <ele>452</ele>
        <time>2021-07-27T07:34:08Z</time>
      </trkpt>
      <trkpt lat="45.89695" lon="3.02042">
        <ele>452</ele>
        <time>2021-07-27T07:34:09Z</time>
      </trkpt>
      <trkpt lat="45.89694" lon="3.02042">
        <ele>452</ele>
        <time>2021-07-27T07:34:10Z</time>
      </trkpt>
      <trkpt lat="45.89693" lon="3.02042">
        <ele>452</ele>
        <time>2021-07-27T07:34:11Z</time>
      </trkpt>
      <trkpt lat="45.89692" lon="3.02042">
        <ele>452</ele>
        <time>2021-07-27T07:34:12Z</time>
      </trkpt>
      <trkpt lat="45.8969" lon="3.02042">
        <ele>452</ele>
        <time>2021-07-27T07:34:13Z</time>
      </trkpt>
      <trkpt lat="45.89689" lon="3.02043">
        <ele>452</ele>
        <time>2021-07-27T07:34:14Z</time>
      </trkpt>
      <trkpt lat="45.89688" lon="3.02044">
        <ele>452</ele>
        <time>2021-07-27T07:34:15Z</time>
      </trkpt>
      <trkpt lat="45.89687" lon="3.02046">
        <ele>452</ele>
        <time>2021-07-27T07:34:16Z</time>
      </trkpt>
      <trkpt lat="45.89686" lon="3.02047">
        <ele>452</ele>
        <time>2021-07-27T07:34:17Z</time>
      </trkpt>
      <trkpt lat="45.89685" lon="3.02048">
        <ele>452</ele>
        <time>2021-07-27T07:34:18Z</time>
      </trkpt>
      <trkpt lat="45.89685" lon="3.02049">
        <ele>452</ele>
        <time>2021-07-27T07:34:19Z</time>
      </trkpt>
      <trkpt lat="45.89684" lon="3.02051">
        <ele>452</ele>
        <time>2021-07-27T07:34:20Z</time>
      </trkpt>
      <trkpt lat="45.89683" lon="3.02053">
        <ele>452</ele>
        <time>2021-07-27T07:34:21Z</time>
      </trkpt>
      <trkpt lat="45.89683" lon="3.02054">
        <ele>452</ele>
        <time>2021-07-27T07:34:22Z</time>
      </trkpt>
      <trkpt lat="45.89683" lon="3.02056">
        <ele>452</ele>
        <time>2021-07-27T07:34:23Z</time>
      </trkpt>
      <trkpt lat="45.89682" lon="3.02058">
        <ele>452</ele>
        <time>2021-07-27T07:34:24Z</time>
      </trkpt>
      <trkpt lat="45.89682" lon="3.0206">
        <ele>452</ele>
        <time>2021-07-27T07:34:25Z</time>
      </trkpt>
      <trkpt lat="45.89681" lon="3.02062">
        <ele>452</ele>
        <time>2021-07-27T07:34:26Z</time>
      </trkpt>
      <trkpt lat="45.89681" lon="3.02064">
        <ele>452</ele>
        <time>2021-07-27T07:34:27Z</time>
      </trkpt>
      <trkpt lat="45.89681" lon="3.02066">
        <ele>452</ele>
        <time>2021-07-27T07:34:28Z</time>
      </trkpt>
      <trkpt lat="45.89681" lon="3.02067">
        <ele>452</ele>
        <time>2021-07-27T07:34:29Z</time>
      </trkpt>
      <trkpt lat="45.89681" lon="3.02068">
        <ele>452</ele>
        <time>2021-07-27T07:34:30Z</time>
      </trkpt>
      <trkpt lat="45.89681" lon="3.0207">
        <ele>452</ele>
        <time>2021-07-27T07:34:31Z</time>
      </trkpt>
      <trkpt lat="45.89681" lon="3.02071">
        <ele>452</ele>
        <time>2021-07-27T07:34:32Z</time>
      </trkpt>
      <trkpt lat="45.89681" lon="3.02072">
        <ele>452</ele>
        <time>2021-07-27T07:34:33Z</time>
      </trkpt>
      <trkpt lat="45.89681" lon="3.02073">
        <ele>452</ele>
        <time>2021-07-27T07:34:34Z</time>
      </trkpt>
      <trkpt lat="45.89681" lon="3.02075">
        <ele>452</ele>
        <time>2021-07-27T07:34:35Z</time>
      </trkpt>
      <trkpt lat="45.89681" lon="3.02076">
        <ele>452</ele>
        <time>2021-07-27T07:34:36Z</time>
      </trkpt>
      <trkpt lat="45.89681" lon="3.02077">
        <ele>452</ele>
        <time>2021-07-27T07:34:37Z</time>
      </trkpt>
      <trkpt lat="45.89681" lon="3.02079">
        <ele>452</ele>
        <time>2021-07-27T07:34:38Z</time>
      </trkpt>
      <trkpt lat="45.8968" lon="3.02081">
        <ele>452</ele>
        <time>2021-07-27T07:34:40Z</time>
      </trkpt>
      <trkpt lat="45.89679" lon="3.02088">
        <ele>452</ele>
        <time>2021-07-27T07:34:41Z</time>
      </trkpt>
      <trkpt lat="45.89679" lon="3.02088">
        <ele>452</ele>
        <time>2021-07-27T07:34:42Z</time>
      </trkpt>
      <trkpt lat="45.89679" lon="3.02089">
        <ele>452</ele>
        <time>2021-07-27T07:34:43Z</time>
      </trkpt>
      <trkpt lat="45.89679" lon="3.0209">
        <ele>452</ele>
        <time>2021-07-27T07:34:44Z</time>
      </trkpt>
      <trkpt lat="45.89679" lon="3.02092">
        <ele>452</ele>
        <time>2021-07-27T07:34:45Z</time>
      </trkpt>
      <trkpt lat="45.89678" lon="3.02094">
        <ele>452</ele>
        <time>2021-07-27T07:34:46Z</time>
      </trkpt>
      <trkpt lat="45.89677" lon="3.02096">
        <ele>452</ele>
        <time>2021-07-27T07:34:47Z</time>
      </trkpt>
      <trkpt lat="45.89677" lon="3.02098">
        <ele>452</ele>
        <time>2021-07-27T07:34:48Z</time>
      </trkpt>
      <trkpt lat="45.89677" lon="3.021">
        <ele>452</ele>
        <time>2021-07-27T07:34:49Z</time>
      </trkpt>
      <trkpt lat="45.89676" lon="3.02102">
        <ele>452</ele>
        <time>2021-07-27T07:34:50Z</time>
      </trkpt>
      <trkpt lat="45.89676" lon="3.02104">
        <ele>452</ele>
        <time>2021-07-27T07:34:51Z</time>
      </trkpt>
      <trkpt lat="45.89674" lon="3.02105">
        <ele>452</ele>
        <time>2021-07-27T07:34:52Z</time>
      </trkpt>
      <trkpt lat="45.89674" lon="3.02107">
        <ele>452</ele>
        <time>2021-07-27T07:34:53Z</time>
      </trkpt>
      <trkpt lat="45.89673" lon="3.02109">
        <ele>452</ele>
        <time>2021-07-27T07:34:54Z</time>
      </trkpt>
      <trkpt lat="45.89673" lon="3.02111">
        <ele>452</ele>
        <time>2021-07-27T07:34:55Z</time>
      </trkpt>
      <trkpt lat="45.89671" lon="3.02113">
        <ele>452</ele>
        <time>2021-07-27T07:34:56Z</time>
      </trkpt>
      <trkpt lat="45.89671" lon="3.02114">
        <ele>452</ele>
        <time>2021-07-27T07:34:57Z</time>
      </trkpt>
      <trkpt lat="45.8967" lon="3.02116">
        <ele>452</ele>
        <time>2021-07-27T07:34:58Z</time>
      </trkpt>
      <trkpt lat="45.89669" lon="3.02118">
        <ele>452</ele>
        <time>2021-07-27T07:34:59Z</time>
      </trkpt>
      <trkpt lat="45.89668" lon="3.0212">
        <ele>452</ele>
        <time>2021-07-27T07:35:00Z</time>
      </trkpt>
      <trkpt lat="45.89668" lon="3.02123">
        <ele>452</ele>
        <time>2021-07-27T07:35:01Z</time>
      </trkpt>
      <trkpt lat="45.89667" lon="3.02125">
        <ele>452</ele>
        <time>2021-07-27T07:35:02Z</time>
      </trkpt>
      <trkpt lat="45.89666" lon="3.02127">
        <ele>452</ele>
        <time>2021-07-27T07:35:03Z</time>
      </trkpt>
      <trkpt lat="45.89666" lon="3.02128">
        <ele>452</ele>
        <time>2021-07-27T07:35:04Z</time>
      </trkpt>
      <trkpt lat="45.89665" lon="3.0213">
        <ele>452</ele>
        <time>2021-07-27T07:35:05Z</time>
      </trkpt>
      <trkpt lat="45.89665" lon="3.02132">
        <ele>452</ele>
        <time>2021-07-27T07:35:06Z</time>
      </trkpt>
      <trkpt lat="45.89664" lon="3.02133">
        <ele>452</ele>
        <time>2021-07-27T07:35:07Z</time>
      </trkpt>
      <trkpt lat="45.89663" lon="3.02135">
        <ele>452</ele>
        <time>2021-07-27T07:35:08Z</time>
      </trkpt>
      <trkpt lat="45.89662" lon="3.02137">
        <ele>452</ele>
        <time>2021-07-27T07:35:09Z</time>
      </trkpt>
      <trkpt lat="45.89662" lon="3.02139">
        <ele>452</ele>
        <time>2021-07-27T07:35:10Z</time>
      </trkpt>
      <trkpt lat="45.89661" lon="3.02141">
        <ele>452</ele>
        <time>2021-07-27T07:35:11Z</time>
      </trkpt>
      <trkpt lat="45.89661" lon="3.02143">
        <ele>452</ele>
        <time>2021-07-27T07:35:12Z</time>
      </trkpt>
      <trkpt lat="45.89661" lon="3.02144">
        <ele>452</ele>
        <time>2021-07-27T07:35:13Z</time>
      </trkpt>
      <trkpt lat="45.89661" lon="3.02146">
        <ele>452</ele>
        <time>2021-07-27T07:35:14Z</time>
      </trkpt>
      <trkpt lat="45.89661" lon="3.02148">
        <ele>452</ele>
        <time>2021-07-27T07:35:15Z</time>
      </trkpt>
      <trkpt lat="45.89661" lon="3.0215">
        <ele>452</ele>
        <time>2021-07-27T07:35:16Z</time>
      </trkpt>
      <trkpt lat="45.89661" lon="3.02152">
        <ele>452</ele>
        <time>2021-07-27T07:35:17Z</time>
      </trkpt>
      <trkpt lat="45.89661" lon="3.02154">
        <ele>452</ele>
        <time>2021-07-27T07:35:18Z</time>
      </trkpt>
      <trkpt lat="45.89661" lon="3.02156">
        <ele>452</ele>
        <time>2021-07-27T07:35:19Z</time>
      </trkpt>
      <trkpt lat="45.89661" lon="3.02158">
        <ele>452</ele>
        <time>2021-07-27T07:35:20Z</time>
      </trkpt>
      <trkpt lat="45.89662" lon="3.0216">
        <ele>452</ele>
        <time>2021-07-27T07:35:21Z</time>
      </trkpt>
      <trkpt lat="45.89662" lon="3.02162">
        <ele>452</ele>
        <time>2021-07-27T07:35:22Z</time>
      </trkpt>
      <trkpt lat="45.89662" lon="3.02164">
        <ele>452</ele>
        <time>2021-07-27T07:35:23Z</time>
      </trkpt>
      <trkpt lat="45.89663" lon="3.02165">
        <ele>452</ele>
        <time>2021-07-27T07:35:24Z</time>
      </trkpt>
      <trkpt lat="45.89663" lon="3.02168">
        <ele>452</ele>
        <time>2021-07-27T07:35:25Z</time>
      </trkpt>
      <trkpt lat="45.89663" lon="3.0217">
        <ele>452</ele>
        <time>2021-07-27T07:35:26Z</time>
      </trkpt>
      <trkpt lat="45.89663" lon="3.02172">
        <ele>452</ele>
        <time>2021-07-27T07:35:27Z</time>
      </trkpt>
      <trkpt lat="45.89664" lon="3.02174">
        <ele>452</ele>
        <time>2021-07-27T07:35:28Z</time>
      </trkpt>
      <trkpt lat="45.89664" lon="3.02176">
        <ele>452</ele>
        <time>2021-07-27T07:35:29Z</time>
      </trkpt>
      <trkpt lat="45.89664" lon="3.02178">
        <ele>452</ele>
        <time>2021-07-27T07:35:30Z</time>
      </trkpt>
      <trkpt lat="45.89665" lon="3.0218">
        <ele>452</ele>
        <time>2021-07-27T07:35:31Z</time>
      </trkpt>
      <trkpt lat="45.89665" lon="3.02182">
        <ele>452</ele>
        <time>2021-07-27T07:35:32Z</time>
      </trkpt>
      <trkpt lat="45.89665" lon="3.02185">
        <ele>452</ele>
        <time>2021-07-27T07:35:33Z</time>
      </trkpt>
      <trkpt lat="45.89665" lon="3.02187">
        <ele>452</ele>
        <time>2021-07-27T07:35:34Z</time>
      </trkpt>
      <trkpt lat="45.89665" lon="3.02189">
        <ele>452</ele>
        <time>2021-07-27T07:35:35Z</time>
      </trkpt>
      <trkpt lat="45.89666" lon="3.02191">
        <ele>452</ele>
        <time>2021-07-27T07:35:36Z</time>
      </trkpt>
      <trkpt lat="45.89666" lon="3.02193">
        <ele>452</ele>
        <time>2021-07-27T07:35:37Z</time>
      </trkpt>
      <trkpt lat="45.89666" lon="3.02195">
        <ele>452</ele>
        <time>2021-07-27T07:35:38Z</time>
      </trkpt>
      <trkpt lat="45.89666" lon="3.02197">
        <ele>452</ele>
        <time>2021-07-27T07:35:40Z</time>
      </trkpt>
      <trkpt lat="45.89665" lon="3.02205">
        <ele>452</ele>
        <time>2021-07-27T07:35:41Z</time>
      </trkpt>
      <trkpt lat="45.89665" lon="3.02205">
        <ele>452</ele>
        <time>2021-07-27T07:35:42Z</time>
      </trkpt>
      <trkpt lat="45.89665" lon="3.02206">
        <ele>452</ele>
        <time>2021-07-27T07:35:43Z</time>
      </trkpt>
      <trkpt lat="45.89665" lon="3.02207">
        <ele>452</ele>
        <time>2021-07-27T07:35:44Z</time>
      </trkpt>
      <trkpt lat="45.89664" lon="3.02209">
        <ele>452</ele>
        <time>2021-07-27T07:35:45Z</time>
      </trkpt>
      <trkpt lat="45.89664" lon="3.0221">
        <ele>452</ele>
        <time>2021-07-27T07:35:46Z</time>
      </trkpt>
      <trkpt lat="45.89664" lon="3.02212">
        <ele>452</ele>
        <time>2021-07-27T07:35:47Z</time>
      </trkpt>
      <trkpt lat="45.89663" lon="3.02214">
        <ele>452</ele>
        <time>2021-07-27T07:35:48Z</time>
      </trkpt>
      <trkpt lat="45.89663" lon="3.02215">
        <ele>452</ele>
        <time>2021-07-27T07:35:49Z</time>
      </trkpt>
      <trkpt lat="45.89662" lon="3.02217">
        <ele>452</ele>
        <time>2021-07-27T07:35:50Z</time>
      </trkpt>
      <trkpt lat="45.89662" lon="3.02219">
        <ele>452</ele>
        <time>2021-07-27T07:35:51Z</time>
      </trkpt>
      <trkpt lat="45.89661" lon="3.02221">
        <ele>452</ele>
        <time>2021-07-27T07:35:52Z</time>
      </trkpt>
      <trkpt lat="45.89661" lon="3.02223">
        <ele>452</ele>
        <time>2021-07-27T07:35:53Z</time>
      </trkpt>
      <trkpt lat="45.8966" lon="3.02225">
        <ele>452</ele>
        <time>2021-07-27T07:35:54Z</time>
      </trkpt>
      <trkpt lat="45.8966" lon="3.02227">
        <ele>452</ele>
        <time>2021-07-27T07:35:55Z</time>
      </trkpt>
      <trkpt lat="45.89659" lon="3.02229">
        <ele>452</ele>
        <time>2021-07-27T07:35:56Z</time>
      </trkpt>
      <trkpt lat="45.89658" lon="3.0223">
        <ele>452</ele>
        <time>2021-07-27T07:35:57Z</time>
      </trkpt>
      <trkpt lat="45.89658" lon="3.02232">
        <ele>452</ele>
        <time>2021-07-27T07:35:58Z</time>
      </trkpt>
      <trkpt lat="45.89656" lon="3.02234">
        <ele>452</ele>
        <time>2021-07-27T07:35:59Z</time>
      </trkpt>
      <trkpt lat="45.89656" lon="3.02235">
        <ele>452</ele>
        <time>2021-07-27T07:36:00Z</time>
      </trkpt>
      <trkpt lat="45.89655" lon="3.02237">
        <ele>452</ele>
        <time>2021-07-27T07:36:01Z</time>
      </trkpt>
      <trkpt lat="45.89654" lon="3.02238">
        <ele>452</ele>
        <time>2021-07-27T07:36:02Z</time>
      </trkpt>
      <trkpt lat="45.89653" lon="3.02239">
        <ele>452</ele>
        <time>2021-07-27T07:36:03Z</time>
      </trkpt>
      <trkpt lat="45.89652" lon="3.0224">
        <ele>452</ele>
        <time>2021-07-27T07:36:04Z</time>
      </trkpt>
      <trkpt lat="45.8965" lon="3.02241">
        <ele>452</ele>
        <time>2021-07-27T07:36:05Z</time>
      </trkpt>
      <trkpt lat="45.89648" lon="3.02242">
        <ele>452</ele>
        <time>2021-07-27T07:36:06Z</time>
      </trkpt>
      <trkpt lat="45.89647" lon="3.02243">
        <ele>452</ele>
        <time>2021-07-27T07:36:07Z</time>
      </trkpt>
      <trkpt lat="45.89645" lon="3.02243">
        <ele>452</ele>
        <time>2021-07-27T07:36:08Z</time>
      </trkpt>
      <trkpt lat="45.89644" lon="3.02243">
        <ele>452</ele>
        <time>2021-07-27T07:36:09Z</time>
      </trkpt>
      <trkpt lat="45.89643" lon="3.02243">
        <ele>452</ele>
        <time>2021-07-27T07:36:10Z</time>
      </trkpt>
      <trkpt lat="45.89641" lon="3.02243">
        <ele>452</ele>
        <time>2021-07-27T07:36:11Z</time>
      </trkpt>
      <trkpt lat="45.8964" lon="3.02243">
        <ele>452</ele>
        <time>2021-07-27T07:36:12Z</time>
      </trkpt>
      <trkpt lat="45.89639" lon="3.02243">
        <ele>452</ele>
        <time>2021-07-27T07:36:13Z</time>
      </trkpt>
      <trkpt lat="45.89637" lon="3.02243">
        <ele>452</ele>
        <time>2021-07-27T07:36:14Z</time>
      </trkpt>
      <trkpt lat="45.89636" lon="3.02242">
        <ele>452</ele>
        <time>2021-07-27T07:36:15Z</time>
      </trkpt>
      <trkpt lat="45.89635" lon="3.02242">
        <ele>452</ele>
        <time>2021-07-27T07:36:16Z</time>
      </trkpt>
      <trkpt lat="45.89633" lon="3.02242">
        <ele>452</ele>
        <time>2021-07-27T07:36:17Z</time>
      </trkpt>
      <trkpt lat="45.89632" lon="3.02242">
        <ele>452</ele>
        <time>2021-07-27T07:36:18Z</time>
      </trkpt>
      <trkpt lat="45.89631" lon="3.02241">
        <ele>452</ele>
        <time>2021-07-27T07:36:19Z</time>
      </trkpt>
      <trkpt lat="45.89629" lon="3.02241">
        <ele>452</ele>
        <time>2021-07-27T07:36:20Z</time>
      </trkpt>
      <trkpt lat="45.89628" lon="3.02241">
        <ele>452</ele>
        <time>2021-07-27T07:36:21Z</time>
      </trkpt>
      <trkpt lat="45.89626" lon="3.02241">
        <ele>452</ele>
        <time>2021-07-27T07:36:22Z</time>
      </trkpt>
      <trkpt lat="45.89625" lon="3.0224">
        <ele>452</ele>
        <time>2021-07-27T07:36:23Z</time>
      </trkpt>
      <trkpt lat="45.89623" lon="3.0224">
        <ele>452</ele>
        <time>2021-07-27T07:36:24Z</time>
      </trkpt>
      <trkpt lat="45.89622" lon="3.0224">
        <ele>452</ele>
        <time>2021-07-27T07:36:25Z</time>
      </trkpt>
      <trkpt lat="45.89621" lon="3.0224">
        <ele>452</ele>
        <time>2021-07-27T07:36:26Z</time>
      </trkpt>
      <trkpt lat="45.89619" lon="3.02239">
        <ele>452</ele>
        <time>2021-07-27T07:36:27Z</time>
      </trkpt>
      <trkpt lat="45.89618" lon="3.02239">
        <ele>452</ele>
        <time>2021-07-27T07:36:28Z</time>
      </trkpt>
      <trkpt lat="45.89617" lon="3.02239">
        <ele>452</ele>
        <time>2021-07-27T07:36:29Z</time>
      </trkpt>
      <trkpt lat="45.89616" lon="3.02239">
        <ele>452</ele>
        <time>2021-07-27T07:36:30Z</time>
      </trkpt>
      <trkpt lat="45.89614" lon="3.02238">
        <ele>452</ele>
        <time>2021-07-27T07:36:31Z</time>
      </trkpt>
      <trkpt lat="45.89613" lon="3.02238">
        <ele>452</ele>
        <time>2021-07-27T07:36:32Z</time>
      </trkpt>
      <trkpt lat="45.89612" lon="3.02237">
        <ele>452</ele>
        <time>2021-07-27T07:36:32Z</time>
      </trkpt>
      <trkpt lat="45.89611" lon="3.02237">
        <ele>452</ele>
        <time>2021-07-27T07:36:33Z</time>
      </trkpt>
      <trkpt lat="45.89609" lon="3.02237">
        <ele>452</ele>
        <time>2021-07-27T07:36:34Z</time>
      </trkpt>
      <trkpt lat="45.89607" lon="3.02236">
        <ele>452</ele>
        <time>2021-07-27T07:36:35Z</time>
      </trkpt>
      <trkpt lat="45.89607" lon="3.02236">
        <ele>452</ele>
        <time>2021-07-27T07:36:36Z</time>
      </trkpt>
      <trkpt lat="45.89605" lon="3.02236">
        <ele>452</ele>
        <time>2021-07-27T07:36:38Z</time>
      </trkpt>
      <trkpt lat="45.89603" lon="3.02236">
        <ele>452</ele>
        <time>2021-07-27T07:36:39Z</time>
      </trkpt>
      <trkpt lat="45.89598" lon="3.02236">
        <ele>452</ele>
        <time>2021-07-27T07:36:40Z</time>
      </trkpt>
      <trkpt lat="45.89598" lon="3.02236">
        <ele>452</ele>
        <time>2021-07-27T07:36:41Z</time>
      </trkpt>
      <trkpt lat="45.89597" lon="3.02236">
        <ele>452</ele>
        <time>2021-07-27T07:36:42Z</time>
      </trkpt>
      <trkpt lat="45.89596" lon="3.02236">
        <ele>452</ele>
        <time>2021-07-27T07:36:43Z</time>
      </trkpt>
      <trkpt lat="45.89595" lon="3.02237">
        <ele>452</ele>
        <time>2021-07-27T07:36:44Z</time>
      </trkpt>
      <trkpt lat="45.89594" lon="3.02237">
        <ele>452</ele>
        <time>2021-07-27T07:36:45Z</time>
      </trkpt>
      <trkpt lat="45.89593" lon="3.02237">
        <ele>452</ele>
        <time>2021-07-27T07:36:46Z</time>
      </trkpt>
      <trkpt lat="45.89592" lon="3.02237">
        <ele>452</ele>
        <time>2021-07-27T07:36:47Z</time>
      </trkpt>
      <trkpt lat="45.8959" lon="3.02238">
        <ele>452</ele>
        <time>2021-07-27T07:36:48Z</time>
      </trkpt>
      <trkpt lat="45.89589" lon="3.02238">
        <ele>452</ele>
        <time>2021-07-27T07:36:49Z</time>
      </trkpt>
      <trkpt lat="45.89588" lon="3.02239">
        <ele>452</ele>
        <time>2021-07-27T07:36:50Z</time>
      </trkpt>
      <trkpt lat="45.89586" lon="3.02239">
        <ele>452</ele>
        <time>2021-07-27T07:36:51Z</time>
      </trkpt>
      <trkpt lat="45.89586" lon="3.0224">
        <ele>452</ele>
        <time>2021-07-27T07:36:52Z</time>
      </trkpt>
      <trkpt lat="45.89584" lon="3.02241">
        <ele>452</ele>
        <time>2021-07-27T07:36:53Z</time>
      </trkpt>
      <trkpt lat="45.89583" lon="3.02242">
        <ele>452</ele>
        <time>2021-07-27T07:36:54Z</time>
      </trkpt>
      <trkpt lat="45.89582" lon="3.02243">
        <ele>452</ele>
        <time>2021-07-27T07:36:55Z</time>
      </trkpt>
      <trkpt lat="45.89581" lon="3.02244">
        <ele>452</ele>
        <time>2021-07-27T07:36:56Z</time>
      </trkpt>
      <trkpt lat="45.8958" lon="3.02245">
        <ele>452</ele>
        <time>2021-07-27T07:36:57Z</time>
      </trkpt>
      <trkpt lat="45.89579" lon="3.02247">
        <ele>452</ele>
        <time>2021-07-27T07:36:58Z</time>
      </trkpt>
      <trkpt lat="45.89579" lon="3.02248">
        <ele>452</ele>
        <time>2021-07-27T07:36:59Z</time>
      </trkpt>
      <trkpt lat="45.89578" lon="3.02249">
        <ele>452</ele>
        <time>2021-07-27T07:37:00Z</time>
      </trkpt>
      <trkpt lat="45.89577" lon="3.0225">
        <ele>452</ele>
        <time>2021-07-27T07:37:01Z</time>
      </trkpt>
      <trkpt lat="45.89577" lon="3.02251">
        <ele>452</ele>
        <time>2021-07-27T07:37:02Z</time>
      </trkpt>
      <trkpt lat="45.89576" lon="3.02252">
        <ele>452</ele>
        <time>2021-07-27T07:37:03Z</time>
      </trkpt>
      <trkpt lat="45.89576" lon="3.02253">
        <ele>452</ele>
        <time>2021-07-27T07:37:04Z</time>
      </trkpt>
      <trkpt lat="45.89575" lon="3.02253">
        <ele>452</ele>
        <time>2021-07-27T07:37:05Z</time>
      </trkpt>
      <trkpt lat="45.89575" lon="3.02255">
        <ele>452</ele>
        <time>2021-07-27T07:37:06Z</time>
      </trkpt>
      <trkpt lat="45.89574" lon="3.02256">
        <ele>452</ele>
        <time>2021-07-27T07:37:07Z</time>
      </trkpt>
      <trkpt lat="45.89573" lon="3.02258">
        <ele>452</ele>
        <time>2021-07-27T07:37:08Z</time>
      </trkpt>
      <trkpt lat="45.89573" lon="3.0226">
        <ele>452</ele>
        <time>2021-07-27T07:37:09Z</time>
      </trkpt>
      <trkpt lat="45.89572" lon="3.02262">
        <ele>452</ele>
        <time>2021-07-27T07:37:10Z</time>
      </trkpt>
      <trkpt lat="45.89571" lon="3.02263">
        <ele>452</ele>
        <time>2021-07-27T07:37:11Z</time>
      </trkpt>
      <trkpt lat="45.8957" lon="3.02265">
        <ele>452</ele>
        <time>2021-07-27T07:37:12Z</time>
      </trkpt>
      <trkpt lat="45.8957" lon="3.02267">
        <ele>452</ele>
        <time>2021-07-27T07:37:13Z</time>
      </trkpt>
      <trkpt lat="45.89568" lon="3.0227">
        <ele>452</ele>
        <time>2021-07-27T07:37:14Z</time>
      </trkpt>
      <trkpt lat="45.89568" lon="3.02272">
        <ele>452</ele>
        <time>2021-07-27T07:37:15Z</time>
      </trkpt>
      <trkpt lat="45.89566" lon="3.02274">
        <ele>452</ele>
        <time>2021-07-27T07:37:16Z</time>
      </trkpt>
      <trkpt lat="45.89565" lon="3.02277">
        <ele>452</ele>
        <time>2021-07-27T07:37:17Z</time>
      </trkpt>
      <trkpt lat="45.89565" lon="3.02279">
        <ele>452</ele>
        <time>2021-07-27T07:37:18Z</time>
      </trkpt>
      <trkpt lat="45.89564" lon="3.02281">
        <ele>452</ele>
        <time>2021-07-27T07:37:19Z</time>
      </trkpt>
      <trkpt lat="45.89563" lon="3.02283">
        <ele>452</ele>
        <time>2021-07-27T07:37:20Z</time>
      </trkpt>
      <trkpt lat="45.89563" lon="3.02285">
        <ele>452</ele>
        <time>2021-07-27T07:37:21Z</time>
      </trkpt>
      <trkpt lat="45.89563" lon="3.02286">
        <ele>452</ele>
        <time>2021-07-27T07:37:22Z</time>
      </trkpt>
      <trkpt lat="45.89562" lon="3.02288">
        <ele>452</ele>
        <time>2021-07-27T07:37:23Z</time>
      </trkpt>
      <trkpt lat="45.89562" lon="3.02289">
        <ele>452</ele>
        <time>2021-07-27T07:37:24Z</time>
      </trkpt>
      <trkpt lat="45.89561" lon="3.02291">
        <ele>452</ele>
        <time>2021-07-27T07:37:25Z</time>
      </trkpt>
      <trkpt lat="45.8956" lon="3.02293">
        <ele>452</ele>
        <time>2021-07-27T07:37:26Z</time>
      </trkpt>
      <trkpt lat="45.89559" lon="3.02295">
        <ele>452</ele>
        <time>2021-07-27T07:37:27Z</time>
      </trkpt>
      <trkpt lat="45.89558" lon="3.02297">
        <ele>452</ele>
        <time>2021-07-27T07:37:28Z</time>
      </trkpt>
      <trkpt lat="45.89557" lon="3.02299">
        <ele>452</ele>
        <time>2021-07-27T07:37:29Z</time>
      </trkpt>
      <trkpt lat="45.89556" lon="3.02301">
        <ele>452</ele>
        <time>2021-07-27T07:37:30Z</time>
      </trkpt>
      <trkpt lat="45.89555" lon="3.02303">
        <ele>452</ele>
        <time>2021-07-27T07:37:31Z</time>
      </trkpt>
      <trkpt lat="45.89553" lon="3.02305">
        <ele>452</ele>
        <time>2021-07-27T07:37:32Z</time>
      </trkpt>
      <trkpt lat="45.89552" lon="3.02307">
        <ele>452</ele>
        <time>2021-07-27T07:37:33Z</time>
      </trkpt>
      <trkpt lat="45.89552" lon="3.02309">
        <ele>452</ele>
        <time>2021-07-27T07:37:34Z</time>
      </trkpt>
      <trkpt lat="45.89551" lon="3.02311">
        <ele>452</ele>
        <time>2021-07-27T07:37:35Z</time>
      </trkpt>
      <trkpt lat="45.8955" lon="3.02313">
        <ele>452</ele>
        <time>2021-07-27T07:37:37Z</time>
      </trkpt>
      <trkpt lat="45.89549" lon="3.0232">
        <ele>452</ele>
        <time>2021-07-27T07:37:39Z</time>
      </trkpt>
      <trkpt lat="45.89549" lon="3.02324">
        <ele>452</ele>
        <time>2021-07-27T07:37:40Z</time>
      </trkpt>
      <trkpt lat="45.89549" lon="3.02324">
        <ele>452</ele>
        <time>2021-07-27T07:37:41Z</time>
      </trkpt>
      <trkpt lat="45.89549" lon="3.02325">
        <ele>452</ele>
        <time>2021-07-27T07:37:42Z</time>
      </trkpt>
      <trkpt lat="45.89549" lon="3.02327">
        <ele>452</ele>
        <time>2021-07-27T07:37:43Z</time>
      </trkpt>
      <trkpt lat="45.89549" lon="3.02328">
        <ele>452</ele>
        <time>2021-07-27T07:37:44Z</time>
      </trkpt>
      <trkpt lat="45.8955" lon="3.0233">
        <ele>452</ele>
        <time>2021-07-27T07:37:45Z</time>
      </trkpt>
      <trkpt lat="45.8955" lon="3.02332">
        <ele>452</ele>
        <time>2021-07-27T07:37:46Z</time>
      </trkpt>
      <trkpt lat="45.8955" lon="3.02334">
        <ele>452</ele>
        <time>2021-07-27T07:37:47Z</time>
      </trkpt>
      <trkpt lat="45.8955" lon="3.02337">
        <ele>452</ele>
        <time>2021-07-27T07:37:48Z</time>
      </trkpt>
      <trkpt lat="45.8955" lon="3.02339">
        <ele>452</ele>
        <time>2021-07-27T07:37:49Z</time>
      </trkpt>
      <trkpt lat="45.89551" lon="3.02341">
        <ele>452</ele>
        <time>2021-07-27T07:37:50Z</time>
      </trkpt>
      <trkpt lat="45.89551" lon="3.02343">
        <ele>452</ele>
        <time>2021-07-27T07:37:51Z</time>
      </trkpt>
      <trkpt lat="45.89551" lon="3.02345">
        <ele>452</ele>
        <time>2021-07-27T07:37:52Z</time>
      </trkpt>
      <trkpt lat="45.89551" lon="3.02347">
        <ele>452</ele>
        <time>2021-07-27T07:37:53Z</time>
      </trkpt>
      <trkpt lat="45.89551" lon="3.02349">
        <ele>452</ele>
        <time>2021-07-27T07:37:54Z</time>
      </trkpt>
      <trkpt lat="45.89551" lon="3.02351">
        <ele>452</ele>
        <time>2021-07-27T07:37:55Z</time>
      </trkpt>
      <trkpt lat="45.89551" lon="3.02353">
        <ele>452</ele>
        <time>2021-07-27T07:37:56Z</time>
      </trkpt>
      <trkpt lat="45.89551" lon="3.02355">
        <ele>452</ele>
        <time>2021-07-27T07:37:57Z</time>
      </trkpt>
      <trkpt lat="45.89551" lon="3.02357">
        <ele>452</ele>
        <time>2021-07-27T07:37:58Z</time>
      </trkpt>
      <trkpt lat="45.8955" lon="3.02359">
        <ele>452</ele>
        <time>2021-07-27T07:37:59Z</time>
      </trkpt>
      <trkpt lat="45.8955" lon="3.02361">
        <ele>452</ele>
        <time>2021-07-27T07:38:00Z</time>
      </trkpt>
      <trkpt lat="45.8955" lon="3.02363">
        <ele>452</ele>
        <time>2021-07-27T07:38:01Z</time>
      </trkpt>
      <trkpt lat="45.8955" lon="3.02365">
        <ele>452</ele>
        <time>2021-07-27T07:38:02Z</time>
      </trkpt>
      <trkpt lat="45.89551" lon="3.02367">
        <ele>452</ele>
        <time>2021-07-27T07:38:03Z</time>
      </trkpt>
      <trkpt lat="45.89551" lon="3.02368">
        <ele>452</ele>
        <time>2021-07-27T07:38:04Z</time>
      </trkpt>
      <trkpt lat="45.89551" lon="3.0237">
        <ele>452</ele>
        <time>2021-07-27T07:38:05Z</time>
      </trkpt>
      <trkpt lat="45.89552" lon="3.02372">
        <ele>452</ele>
        <time>2021-07-27T07:38:06Z</time>
      </trkpt>
      <trkpt lat="45.89553" lon="3.02374">
        <ele>452</ele>
        <time>2021-07-27T07:38:07Z</time>
      </trkpt>
      <trkpt lat="45.89553" lon="3.02376">
        <ele>452</ele>
        <time>2021-07-27T07:38:08Z</time>
      </trkpt>
      <trkpt lat="45.89554" lon="3.02378">
        <ele>452</ele>
        <time>2021-07-27T07:38:09Z</time>
      </trkpt>
      <trkpt lat="45.89554" lon="3.0238">
        <ele>452</ele>
        <time>2021-07-27T07:38:10Z</time>
      </trkpt>
      <trkpt lat="45.89555" lon="3.02383">
        <ele>452</ele>
        <time>2021-07-27T07:38:11Z</time>
      </trkpt>
      <trkpt lat="45.89555" lon="3.02385">
        <ele>452</ele>
        <time>2021-07-27T07:38:12Z</time>
      </trkpt>
      <trkpt lat="45.89555" lon="3.02387">
        <ele>452</ele>
        <time>2021-07-27T07:38:13Z</time>
      </trkpt>
      <trkpt lat="45.89556" lon="3.0239">
        <ele>452</ele>
        <time>2021-07-27T07:38:14Z</time>
      </trkpt>
      <trkpt lat="45.89556" lon="3.02392">
        <ele>452</ele>
        <time>2021-07-27T07:38:15Z</time>
      </trkpt>
      <trkpt lat="45.89557" lon="3.02394">
        <ele>452</ele>
        <time>2021-07-27T07:38:16Z</time>
      </trkpt>
      <trkpt lat="45.89557" lon="3.02396">
        <ele>452</ele>
        <time>2021-07-27T07:38:17Z</time>
      </trkpt>
      <trkpt lat="45.89557" lon="3.02398">
        <ele>452</ele>
        <time>2021-07-27T07:38:18Z</time>
      </trkpt>
      <trkpt lat="45.89558" lon="3.02401">
        <ele>452</ele>
        <time>2021-07-27T07:38:19Z</time>
      </trkpt>
      <trkpt lat="45.89558" lon="3.02403">
        <ele>452</ele>
        <time>2021-07-27T07:38:20Z</time>
      </trkpt>
      <trkpt lat="45.89558" lon="3.02406">
        <ele>452</ele>
        <time>2021-07-27T07:38:21Z</time>
      </trkpt>
      <trkpt lat="45.89558" lon="3.02408">
        <ele>452</ele>
        <time>2021-07-27T07:38:22Z</time>
      </trkpt>
      <trkpt lat="45.89558" lon="3.02411">
        <ele>452</ele>
        <time>2021-07-27T07:38:23Z</time>
      </trkpt>
      <trkpt lat="45.89558" lon="3.02413">
        <ele>452</ele>
        <time>2021-07-27T07:38:24Z</time>
      </trkpt>
      <trkpt lat="45.89558" lon="3.02416">
        <ele>452</ele>
        <time>2021-07-27T07:38:25Z</time>
      </trkpt>
      <trkpt lat="45.89558" lon="3.02418">
        <ele>452</ele>
        <time>2021-07-27T07:38:26Z</time>
      </trkpt>
      <trkpt lat="45.89558" lon="3.0242">
        <ele>452</ele>
        <time>2021-07-27T07:38:27Z</time>
      </trkpt>
      <trkpt lat="45.89558" lon="3.02422">
        <ele>452</ele>
        <time>2021-07-27T07:38:28Z</time>
      </trkpt>
      <trkpt lat="45.89558" lon="3.02424">
        <ele>452</ele>
        <time>2021-07-27T07:38:29Z</time>
      </trkpt>
      <trkpt lat="45.89559" lon="3.02426">
        <ele>452</ele>
        <time>2021-07-27T07:38:30Z</time>
      </trkpt>
      <trkpt lat="45.89559" lon="3.02428">
        <ele>452</ele>
        <time>2021-07-27T07:38:31Z</time>
      </trkpt>
      <trkpt lat="45.89559" lon="3.0243">
        <ele>452</ele>
        <time>2021-07-27T07:38:32Z</time>
      </trkpt>
      <trkpt lat="45.89559" lon="3.02432">
        <ele>452</ele>
        <time>2021-07-27T07:38:33Z</time>
      </trkpt>
      <trkpt lat="45.89559" lon="3.02435">
        <ele>452</ele>
        <time>2021-07-27T07:38:34Z</time>
      </trkpt>
      <trkpt lat="45.89559" lon="3.02436">
        <ele>452</ele>
        <time>2021-07-27T07:38:35Z</time>
      </trkpt>
      <trkpt lat="45.8956" lon="3.02438">
        <ele>452</ele>
        <time>2021-07-27T07:38:36Z</time>
      </trkpt>
      <trkpt lat="45.8956" lon="3.0244">
        <ele>452</ele>
        <time>2021-07-27T07:38:37Z</time>
      </trkpt>
      <trkpt lat="45.8956" lon="3.02441">
        <ele>452</ele>
        <time>2021-07-27T07:38:39Z</time>
      </trkpt>
      <trkpt lat="45.8956" lon="3.02443">
        <ele>452</ele>
        <time>2021-07-27T07:38:40Z</time>
      </trkpt>
      <trkpt lat="45.89561" lon="3.02451">
        <ele>452</ele>
        <time>2021-07-27T07:38:41Z</time>
      </trkpt>
      <trkpt lat="45.89561" lon="3.02451">
        <ele>452</ele>
        <time>2021-07-27T07:38:42Z</time>
      </trkpt>
      <trkpt lat="45.89561" lon="3.02453">
        <ele>452</ele>
        <time>2021-07-27T07:38:43Z</time>
      </trkpt>
      <trkpt lat="45.8956" lon="3.02454">
        <ele>452</ele>
        <time>2021-07-27T07:38:44Z</time>
      </trkpt>
      <trkpt lat="45.8956" lon="3.02456">
        <ele>452</ele>
        <time>2021-07-27T07:38:45Z</time>
      </trkpt>
      <trkpt lat="45.8956" lon="3.02458">
        <ele>452</ele>
        <time>2021-07-27T07:38:46Z</time>
      </trkpt>
      <trkpt lat="45.89561" lon="3.0246">
        <ele>452</ele>
        <time>2021-07-27T07:38:47Z</time>
      </trkpt>
      <trkpt lat="45.89561" lon="3.02463">
        <ele>452</ele>
        <time>2021-07-27T07:38:48Z</time>
      </trkpt>
      <trkpt lat="45.89562" lon="3.02465">
        <ele>452</ele>
        <time>2021-07-27T07:38:49Z</time>
      </trkpt>
      <trkpt lat="45.89562" lon="3.02467">
        <ele>452</ele>
        <time>2021-07-27T07:38:50Z</time>
      </trkpt>
      <trkpt lat="45.89562" lon="3.02469">
        <ele>452</ele>
        <time>2021-07-27T07:38:51Z</time>
      </trkpt>
      <trkpt lat="45.89562" lon="3.02472">
        <ele>452</ele>
        <time>2021-07-27T07:38:52Z</time>
      </trkpt>
      <trkpt lat="45.89562" lon="3.02474">
        <ele>452</ele>
        <time>2021-07-27T07:38:53Z</time>
      </trkpt>
      <trkpt lat="45.89562" lon="3.02476">
        <ele>452</ele>
        <time>2021-07-27T07:38:54Z</time>
      </trkpt>
      <trkpt lat="45.89562" lon="3.02478">
        <ele>452</ele>
        <time>2021-07-27T07:38:55Z</time>
      </trkpt>
      <trkpt lat="45.89563" lon="3.0248">
        <ele>452</ele>
        <time>2021-07-27T07:38:56Z</time>
      </trkpt>
      <trkpt lat="45.89563" lon="3.02481">
        <ele>452</ele>
        <time>2021-07-27T07:38:57Z</time>
      </trkpt>
      <trkpt lat="45.89563" lon="3.02483">
        <ele>452</ele>
        <time>2021-07-27T07:38:58Z</time>
      </trkpt>
      <trkpt lat="45.89563" lon="3.02485">
        <ele>452</ele>
        <time>2021-07-27T07:38:59Z</time>
      </trkpt>
      <trkpt lat="45.89564" lon="3.02487">
        <ele>452</ele>
        <time>2021-07-27T07:39:00Z</time>
      </trkpt>
      <trkpt lat="45.89564" lon="3.02489">
        <ele>452</ele>
        <time>2021-07-27T07:39:01Z</time>
      </trkpt>
      <trkpt lat="45.89564" lon="3.02491">
        <ele>452</ele>
        <time>2021-07-27T07:39:02Z</time>
      </trkpt>
      <trkpt lat="45.89563" lon="3.02493">
        <ele>452</ele>
        <time>2021-07-27T07:39:03Z</time>
      </trkpt>
      <trkpt lat="45.89563" lon="3.02496">
        <ele>452</ele>
        <time>2021-07-27T07:39:04Z</time>
      </trkpt>
      <trkpt lat="45.89563" lon="3.02498">
        <ele>452</ele>
        <time>2021-07-27T07:39:05Z</time>
      </trkpt>
      <trkpt lat="45.89562" lon="3.025">
        <ele>452</ele>
        <time>2021-07-27T07:39:06Z</time>
      </trkpt>
      <trkpt lat="45.89562" lon="3.02503">
        <ele>452</ele>
        <time>2021-07-27T07:39:07Z</time>
      </trkpt>
      <trkpt lat="45.89562" lon="3.02505">
        <ele>452</ele>
        <time>2021-07-27T07:39:08Z</time>
      </trkpt>
      <trkpt lat="45.89562" lon="3.02507">
        <ele>452</ele>
        <time>2021-07-27T07:39:09Z</time>
      </trkpt>
      <trkpt lat="45.89562" lon="3.02509">
        <ele>452</ele>
        <time>2021-07-27T07:39:10Z</time>
      </trkpt>
      <trkpt lat="45.89562" lon="3.0251">
        <ele>452</ele>
        <time>2021-07-27T07:39:11Z</time>
      </trkpt>
      <trkpt lat="45.89562" lon="3.02512">
        <ele>452</ele>
        <time>2021-07-27T07:39:12Z</time>
      </trkpt>
      <trkpt lat="45.89562" lon="3.02514">
        <ele>452</ele>
        <time>2021-07-27T07:39:13Z</time>
      </trkpt>
      <trkpt lat="45.89561" lon="3.02516">
        <ele>452</ele>
        <time>2021-07-27T07:39:14Z</time>
      </trkpt>
      <trkpt lat="45.8956" lon="3.02518">
        <ele>452</ele>
        <time>2021-07-27T07:39:15Z</time>
      </trkpt>
      <trkpt lat="45.8956" lon="3.0252">
        <ele>452</ele>
        <time>2021-07-27T07:39:16Z</time>
      </trkpt>
      <trkpt lat="45.8956" lon="3.02522">
        <ele>452</ele>
        <time>2021-07-27T07:39:17Z</time>
      </trkpt>
      <trkpt lat="45.89559" lon="3.02523">
        <ele>452</ele>
        <time>2021-07-27T07:39:18Z</time>
      </trkpt>
      <trkpt lat="45.89559" lon="3.02525">
        <ele>452</ele>
        <time>2021-07-27T07:39:19Z</time>
      </trkpt>
      <trkpt lat="45.89558" lon="3.02527">
        <ele>452</ele>
        <time>2021-07-27T07:39:20Z</time>
      </trkpt>
      <trkpt lat="45.89558" lon="3.02528">
        <ele>452</ele>
        <time>2021-07-27T07:39:21Z</time>
      </trkpt>
      <trkpt lat="45.89557" lon="3.0253">
        <ele>452</ele>
        <time>2021-07-27T07:39:22Z</time>
      </trkpt>
      <trkpt lat="45.89556" lon="3.02531">
        <ele>452</ele>
        <time>2021-07-27T07:39:23Z</time>
      </trkpt>
      <trkpt lat="45.89555" lon="3.02533">
        <ele>452</ele>
        <time>2021-07-27T07:39:24Z</time>
      </trkpt>
      <trkpt lat="45.89555" lon="3.02534">
        <ele>452</ele>
        <time>2021-07-27T07:39:25Z</time>
      </trkpt>
      <trkpt lat="45.89554" lon="3.02535">
        <ele>452</ele>
        <time>2021-07-27T07:39:26Z</time>
      </trkpt>
      <trkpt lat="45.89553" lon="3.02537">
        <ele>452</ele>
        <time>2021-07-27T07:39:27Z</time>
      </trkpt>
      <trkpt lat="45.89553" lon="3.02538">
        <ele>452</ele>
        <time>2021-07-27T07:39:28Z</time>
      </trkpt>
      <trkpt lat="45.89552" lon="3.0254">
        <ele>452</ele>
        <time>2021-07-27T07:39:29Z</time>
      </trkpt>
      <trkpt lat="45.89552" lon="3.02542">
        <ele>452</ele>
        <time>2021-07-27T07:39:30Z</time>
      </trkpt>
      <trkpt lat="45.89551" lon="3.02543">
        <ele>452</ele>
        <time>2021-07-27T07:39:31Z</time>
      </trkpt>
      <trkpt lat="45.8955" lon="3.02545">
        <ele>452</ele>
        <time>2021-07-27T07:39:32Z</time>
      </trkpt>
      <trkpt lat="45.8955" lon="3.02546">
        <ele>452</ele>
        <time>2021-07-27T07:39:33Z</time>
      </trkpt>
      <trkpt lat="45.8955" lon="3.02547">
        <ele>452</ele>
        <time>2021-07-27T07:39:34Z</time>
      </trkpt>
      <trkpt lat="45.89549" lon="3.02548">
        <ele>452</ele>
        <time>2021-07-27T07:39:35Z</time>
      </trkpt>
      <trkpt lat="45.89549" lon="3.02549">
        <ele>452</ele>
        <time>2021-07-27T07:39:36Z</time>
      </trkpt>
      <trkpt lat="45.89549" lon="3.0255">
        <ele>452</ele>
        <time>2021-07-27T07:39:38Z</time>
      </trkpt>
      <trkpt lat="45.89547" lon="3.02554">
        <ele>452</ele>
        <time>2021-07-27T07:39:39Z</time>
      </trkpt>
      <trkpt lat="45.89547" lon="3.02555">
        <ele>452</ele>
        <time>2021-07-27T07:39:40Z</time>
      </trkpt>
      <trkpt lat="45.89547" lon="3.02556">
        <ele>452</ele>
        <time>2021-07-27T07:39:41Z</time>
      </trkpt>
      <trkpt lat="45.89546" lon="3.02557">
        <ele>452</ele>
        <time>2021-07-27T07:39:42Z</time>
      </trkpt>
      <trkpt lat="45.89545" lon="3.02558">
        <ele>452</ele>
        <time>2021-07-27T07:39:43Z</time>
      </trkpt>
      <trkpt lat="45.89545" lon="3.0256">
        <ele>452</ele>
        <time>2021-07-27T07:39:44Z</time>
      </trkpt>
      <trkpt lat="45.89544" lon="3.02562">
        <ele>452</ele>
        <time>2021-07-27T07:39:45Z</time>
      </trkpt>
      <trkpt lat="45.89544" lon="3.02564">
        <ele>452</ele>
        <time>2021-07-27T07:39:46Z</time>
      </trkpt>
      <trkpt lat="45.89544" lon="3.02566">
        <ele>452</ele>
        <time>2021-07-27T07:39:47Z</time>
      </trkpt>
      <trkpt lat="45.89544" lon="3.02567">
        <ele>452</ele>
        <time>2021-07-27T07:39:48Z</time>
      </trkpt>
      <trkpt lat="45.89544" lon="3.02568">
        <ele>452</ele>
        <time>2021-07-27T07:39:49Z</time>
      </trkpt>
      <trkpt lat="45.89544" lon="3.0257">
        <ele>452</ele>
        <time>2021-07-27T07:39:50Z</time>
      </trkpt>
      <trkpt lat="45.89544" lon="3.02571">
        <ele>452</ele>
        <time>2021-07-27T07:39:51Z</time>
      </trkpt>
      <trkpt lat="45.89543" lon="3.02573">
        <ele>452</ele>
        <time>2021-07-27T07:39:52Z</time>
      </trkpt>
      <trkpt lat="45.89542" lon="3.02575">
        <ele>452</ele>
        <time>2021-07-27T07:39:53Z</time>
      </trkpt>
      <trkpt lat="45.89542" lon="3.02577">
        <ele>452</ele>
        <time>2021-07-27T07:39:54Z</time>
      </trkpt>
      <trkpt lat="45.89542" lon="3.02579">
        <ele>452</ele>
        <time>2021-07-27T07:39:55Z</time>
      </trkpt>
      <trkpt lat="45.89542" lon="3.02581">
        <ele>452</ele>
        <time>2021-07-27T07:39:56Z</time>
      </trkpt>
      <trkpt lat="45.89543" lon="3.02582">
        <ele>452</ele>
        <time>2021-07-27T07:39:57Z</time>
      </trkpt>
      <trkpt lat="45.89543" lon="3.02584">
        <ele>452</ele>
        <time>2021-07-27T07:39:58Z</time>
      </trkpt>
      <trkpt lat="45.89544" lon="3.02585">
        <ele>452</ele>
        <time>2021-07-27T07:39:59Z</time>
      </trkpt>
      <trkpt lat="45.89544" lon="3.02587">
        <ele>452</ele>
        <time>2021-07-27T07:40:00Z</time>
      </trkpt>
      <trkpt lat="45.89544" lon="3.02588">
        <ele>452</ele>
        <time>2021-07-27T07:40:01Z</time>
      </trkpt>
      <trkpt lat="45.89545" lon="3.0259">
        <ele>452</ele>
        <time>2021-07-27T07:40:02Z</time>
      </trkpt>
      <trkpt lat="45.89545" lon="3.02592">
        <ele>452</ele>
        <time>2021-07-27T07:40:03Z</time>
      </trkpt>
      <trkpt lat="45.89546" lon="3.02593">
        <ele>452</ele>
        <time>2021-07-27T07:40:04Z</time>
      </trkpt>
      <trkpt lat="45.89547" lon="3.02595">
        <ele>452</ele>
        <time>2021-07-27T07:40:05Z</time>
      </trkpt>
      <trkpt lat="45.89547" lon="3.02597">
        <ele>452</ele>
        <time>2021-07-27T07:40:06Z</time>
      </trkpt>
      <trkpt lat="45.89548" lon="3.02598">
        <ele>452</ele>
        <time>2021-07-27T07:40:07Z</time>
      </trkpt>
      <trkpt lat="45.89549" lon="3.026">
        <ele>452</ele>
        <time>2021-07-27T07:40:08Z</time>
      </trkpt>
      <trkpt lat="45.8955" lon="3.02602">
        <ele>452</ele>
        <time>2021-07-27T07:40:09Z</time>
      </trkpt>
      <trkpt lat="45.8955" lon="3.02603">
        <ele>452</ele>
        <time>2021-07-27T07:40:10Z</time>
      </trkpt>
      <trkpt lat="45.8955" lon="3.02605">
        <ele>452</ele>
        <time>2021-07-27T07:40:11Z</time>
      </trkpt>
      <trkpt lat="45.89551" lon="3.02607">
        <ele>452</ele>
        <time>2021-07-27T07:40:12Z</time>
      </trkpt>
      <trkpt lat="45.89551" lon="3.02609">
        <ele>452</ele>
        <time>2021-07-27T07:40:13Z</time>
      </trkpt>
      <trkpt lat="45.89551" lon="3.0261">
        <ele>452</ele>
        <time>2021-07-27T07:40:14Z</time>
      </trkpt>
      <trkpt lat="45.89551" lon="3.02612">
        <ele>452</ele>
        <time>2021-07-27T07:40:15Z</time>
      </trkpt>
      <trkpt lat="45.89551" lon="3.02614">
        <ele>452</ele>
        <time>2021-07-27T07:40:16Z</time>
      </trkpt>
      <trkpt lat="45.89551" lon="3.02616">
        <ele>452</ele>
        <time>2021-07-27T07:40:17Z</time>
      </trkpt>
      <trkpt lat="45.89551" lon="3.02619">
        <ele>452</ele>
        <time>2021-07-27T07:40:18Z</time>
      </trkpt>
      <trkpt lat="45.89551" lon="3.02621">
        <ele>452</ele>
        <time>2021-07-27T07:40:19Z</time>
      </trkpt>
      <trkpt lat="45.89551" lon="3.02623">
        <ele>452</ele>
        <time>2021-07-27T07:40:20Z</time>
      </trkpt>
      <trkpt lat="45.89551" lon="3.02625">
        <ele>452</ele>
        <time>2021-07-27T07:40:21Z</time>
      </trkpt>
      <trkpt lat="45.89552" lon="3.02627">
        <ele>452</ele>
        <time>2021-07-27T07:40:22Z</time>
      </trkpt>
      <trkpt lat="45.89552" lon="3.02629">
        <ele>452</ele>
        <time>2021-07-27T07:40:23Z</time>
      </trkpt>
      <trkpt lat="45.89552" lon="3.02631">
        <ele>452</ele>
        <time>2021-07-27T07:40:24Z</time>
      </trkpt>
      <trkpt lat="45.89552" lon="3.02633">
        <ele>452</ele>
        <time>2021-07-27T07:40:25Z</time>
      </trkpt>
      <trkpt lat="45.89552" lon="3.02635">
        <ele>452</ele>
        <time>2021-07-27T07:40:26Z</time>
      </trkpt>
      <trkpt lat="45.89553" lon="3.02637">
        <ele>452</ele>
        <time>2021-07-27T07:40:27Z</time>
      </trkpt>
      <trkpt lat="45.89553" lon="3.02639">
        <ele>452</ele>
        <time>2021-07-27T07:40:28Z</time>
      </trkpt>
      <trkpt lat="45.89554" lon="3.02641">
        <ele>452</ele>
        <time>2021-07-27T07:40:29Z</time>
      </trkpt>
      <trkpt lat="45.89555" lon="3.02643">
        <ele>452</ele>
        <time>2021-07-27T07:40:30Z</time>
      </trkpt>
      <trkpt lat="45.89556" lon="3.02645">
        <ele>452</ele>
        <time>2021-07-27T07:40:31Z</time>
      </trkpt>
      <trkpt lat="45.89556" lon="3.02647">
        <ele>452</ele>
        <time>2021-07-27T07:40:32Z</time>
      </trkpt>
      <trkpt lat="45.89557" lon="3.02649">
        <ele>452</ele>
        <time>2021-07-27T07:40:33Z</time>
      </trkpt>
      <trkpt lat="45.89558" lon="3.02651">
        <ele>452</ele>
        <time>2021-07-27T07:40:34Z</time>
      </trkpt>
      <trkpt lat="45.89559" lon="3.02653">
        <ele>452</ele>
        <time>2021-07-27T07:40:35Z</time>
      </trkpt>
      <trkpt lat="45.8956" lon="3.02654">
        <ele>452</ele>
        <time>2021-07-27T07:40:37Z</time>
      </trkpt>
      <trkpt lat="45.89562" lon="3.02656">
        <ele>452</ele>
        <time>2021-07-27T07:40:38Z</time>
      </trkpt>
      <trkpt lat="45.89562" lon="3.02658">
        <ele>452</ele>
        <time>2021-07-27T07:40:39Z</time>
      </trkpt>
      <trkpt lat="45.89567" lon="3.02664">
        <ele>452</ele>
        <time>2021-07-27T07:40:40Z</time>
      </trkpt>
      <trkpt lat="45.89567" lon="3.02664">
        <ele>452</ele>
        <time>2021-07-27T07:40:41Z</time>
      </trkpt>
      <trkpt lat="45.89568" lon="3.02665">
        <ele>452</ele>
        <time>2021-07-27T07:40:42Z</time>
      </trkpt>
      <trkpt lat="45.89568" lon="3.02666">
        <ele>452</ele>
        <time>2021-07-27T07:40:43Z</time>
      </trkpt>
      <trkpt lat="45.89568" lon="3.02668">
        <ele>452</ele>
        <time>2021-07-27T07:40:44Z</time>
      </trkpt>
      <trkpt lat="45.89568" lon="3.0267">
        <ele>452</ele>
        <time>2021-07-27T07:40:45Z</time>
      </trkpt>
      <trkpt lat="45.89569" lon="3.02671">
        <ele>452</ele>
        <time>2021-07-27T07:40:46Z</time>
      </trkpt>
      <trkpt lat="45.8957" lon="3.02673">
        <ele>452</ele>
        <time>2021-07-27T07:40:47Z</time>
      </trkpt>
      <trkpt lat="45.89571" lon="3.02674">
        <ele>452</ele>
        <time>2021-07-27T07:40:47Z</time>
      </trkpt>
      <trkpt lat="45.89571" lon="3.02676">
        <ele>452</ele>
        <time>2021-07-27T07:40:48Z</time>
      </trkpt>
      <trkpt lat="45.89572" lon="3.02677">
        <ele>452</ele>
        <time>2021-07-27T07:40:49Z</time>
      </trkpt>
      <trkpt lat="45.89573" lon="3.02678">
        <ele>452</ele>
        <time>2021-07-27T07:40:50Z</time>
      </trkpt>
      <trkpt lat="45.89574" lon="3.0268">
        <ele>452</ele>
        <time>2021-07-27T07:40:51Z</time>
      </trkpt>
      <trkpt lat="45.89575" lon="3.02681">
        <ele>452</ele>
        <time>2021-07-27T07:40:52Z</time>
      </trkpt>
      <trkpt lat="45.89576" lon="3.02682">
        <ele>452</ele>
        <time>2021-07-27T07:40:53Z</time>
      </trkpt>
      <trkpt lat="45.89577" lon="3.02683">
        <ele>452</ele>
        <time>2021-07-27T07:40:54Z</time>
      </trkpt>
      <trkpt lat="45.89578" lon="3.02684">
        <ele>452</ele>
        <time>2021-07-27T07:40:55Z</time>
      </trkpt>
      <trkpt lat="45.89578" lon="3.02686">
        <ele>452</ele>
        <time>2021-07-27T07:40:56Z</time>
      </trkpt>
      <trkpt lat="45.89579" lon="3.02687">
        <ele>452</ele>
        <time>2021-07-27T07:40:57Z</time>
      </trkpt>
      <trkpt lat="45.8958" lon="3.02688">
        <ele>452</ele>
        <time>2021-07-27T07:40:58Z</time>
      </trkpt>
      <trkpt lat="45.89581" lon="3.0269">
        <ele>452</ele>
        <time>2021-07-27T07:40:59Z</time>
      </trkpt>
      <trkpt lat="45.89582" lon="3.02691">
        <ele>452</ele>
        <time>2021-07-27T07:41:00Z</time>
      </trkpt>
      <trkpt lat="45.89583" lon="3.02692">
        <ele>452</ele>
        <time>2021-07-27T07:41:01Z</time>
      </trkpt>
      <trkpt lat="45.89583" lon="3.02694">
        <ele>452</ele>
        <time>2021-07-27T07:41:02Z</time>
      </trkpt>
      <trkpt lat="45.89584" lon="3.02695">
        <ele>452</ele>
        <time>2021-07-27T07:41:03Z</time>
      </trkpt>
      <trkpt lat="45.89586" lon="3.02696">
        <ele>452</ele>
        <time>2021-07-27T07:41:04Z</time>
      </trkpt>
      <trkpt lat="45.89586" lon="3.02698">
        <ele>452</ele>
        <time>2021-07-27T07:41:05Z</time>
      </trkpt>
      <trkpt lat="45.89587" lon="3.027">
        <ele>452</ele>
        <time>2021-07-27T07:41:06Z</time>
      </trkpt>
      <trkpt lat="45.89589" lon="3.02701">
        <ele>452</ele>
        <time>2021-07-27T07:41:07Z</time>
      </trkpt>
      <trkpt lat="45.8959" lon="3.02702">
        <ele>452</ele>
        <time>2021-07-27T07:41:08Z</time>
      </trkpt>
      <trkpt lat="45.89591" lon="3.02703">
        <ele>452</ele>
        <time>2021-07-27T07:41:09Z</time>
      </trkpt>
      <trkpt lat="45.89591" lon="3.02705">
        <ele>452</ele>
        <time>2021-07-27T07:41:10Z</time>
      </trkpt>
      <trkpt lat="45.89592" lon="3.02706">
        <ele>452</ele>
        <time>2021-07-27T07:41:11Z</time>
      </trkpt>
      <trkpt lat="45.89592" lon="3.02708">
        <ele>452</ele>
        <time>2021-07-27T07:41:12Z</time>
      </trkpt>
      <trkpt lat="45.89593" lon="3.0271">
        <ele>452</ele>
        <time>2021-07-27T07:41:13Z</time>
      </trkpt>
      <trkpt lat="45.89593" lon="3.02711">
        <ele>452</ele>
        <time>2021-07-27T07:41:14Z</time>
      </trkpt>
      <trkpt lat="45.89594" lon="3.02713">
        <ele>452</ele>
        <time>2021-07-27T07:41:15Z</time>
      </trkpt>
      <trkpt lat="45.89594" lon="3.02715">
        <ele>452</ele>
        <time>2021-07-27T07:41:16Z</time>
      </trkpt>
      <trkpt lat="45.89594" lon="3.02716">
        <ele>452</ele>
        <time>2021-07-27T07:41:17Z</time>
      </trkpt>
      <trkpt lat="45.89594" lon="3.02718">
        <ele>452</ele>
        <time>2021-07-27T07:41:18Z</time>
      </trkpt>
      <trkpt lat="45.89594" lon="3.02719">
        <ele>452</ele>
        <time>2021-07-27T07:41:19Z</time>
      </trkpt>
      <trkpt lat="45.89594" lon="3.0272">
        <ele>452</ele>
        <time>2021-07-27T07:41:20Z</time>
      </trkpt>
      <trkpt lat="45.89594" lon="3.02722">
        <ele>452</ele>
        <time>2021-07-27T07:41:21Z</time>
      </trkpt>
      <trkpt lat="45.89594" lon="3.02723">
        <ele>452</ele>
        <time>2021-07-27T07:41:22Z</time>
      </trkpt>
      <trkpt lat="45.89594" lon="3.02724">
        <ele>452</ele>
        <time>2021-07-27T07:41:23Z</time>
      </trkpt>
      <trkpt lat="45.89594" lon="3.02725">
        <ele>452</ele>
        <time>2021-07-27T07:41:24Z</time>
      </trkpt>
      <trkpt lat="45.89594" lon="3.02726">
        <ele>452</ele>
        <time>2021-07-27T07:41:25Z</time>
      </trkpt>
      <trkpt lat="45.89594" lon="3.02727">
        <ele>452</ele>
        <time>2021-07-27T07:41:26Z</time>
      </trkpt>
      <trkpt lat="45.89595" lon="3.02728">
        <ele>452</ele>
        <time>2021-07-27T07:41:27Z</time>
      </trkpt>
      <trkpt lat="45.89595" lon="3.02729">
        <ele>452</ele>
        <time>2021-07-27T07:41:28Z</time>
      </trkpt>
      <trkpt lat="45.89595" lon="3.0273">
        <ele>452</ele>
        <time>2021-07-27T07:41:29Z</time>
      </trkpt>
      <trkpt lat="45.89594" lon="3.02731">
        <ele>452</ele>
        <time>2021-07-27T07:41:30Z</time>
      </trkpt>
      <trkpt lat="45.89593" lon="3.02734">
        <ele>452</ele>
        <time>2021-07-27T07:41:33Z</time>
      </trkpt>
      <trkpt lat="45.89593" lon="3.02735">
        <ele>452</ele>
        <time>2021-07-27T07:41:34Z</time>
      </trkpt>
      <trkpt lat="45.89593" lon="3.02735">
        <ele>452</ele>
        <time>2021-07-27T07:41:35Z</time>
      </trkpt>
      <trkpt lat="45.89593" lon="3.02735">
        <ele>452</ele>
        <time>2021-07-27T07:41:36Z</time>
      </trkpt>
      <trkpt lat="45.89592" lon="3.02736">
        <ele>452</ele>
        <time>2021-07-27T07:41:37Z</time>
      </trkpt>
      <trkpt lat="45.89591" lon="3.02736">
        <ele>452</ele>
        <time>2021-07-27T07:41:38Z</time>
      </trkpt>
      <trkpt lat="45.8959" lon="3.02736">
        <ele>452</ele>
        <time>2021-07-27T07:41:39Z</time>
      </trkpt>
      <trkpt lat="45.8959" lon="3.02736">
        <ele>452</ele>
        <time>2021-07-27T07:41:40Z</time>
      </trkpt>
      <trkpt lat="45.89589" lon="3.02737">
        <ele>452</ele>
        <time>2021-07-27T07:41:41Z</time>
      </trkpt>
      <trkpt lat="45.89587" lon="3.02737">
        <ele>452</ele>
        <time>2021-07-27T07:41:42Z</time>
      </trkpt>
      <trkpt lat="45.89586" lon="3.02737">
        <ele>452</ele>
        <time>2021-07-27T07:41:43Z</time>
      </trkpt>
      <trkpt lat="45.89586" lon="3.02737">
        <ele>452</ele>
        <time>2021-07-27T07:41:44Z</time>
      </trkpt>
      <trkpt lat="45.89584" lon="3.02737">
        <ele>452</ele>
        <time>2021-07-27T07:41:45Z</time>
      </trkpt>
      <trkpt lat="45.89583" lon="3.02737">
        <ele>452</ele>
        <time>2021-07-27T07:41:46Z</time>
      </trkpt>
      <trkpt lat="45.89582" lon="3.02737">
        <ele>452</ele>
        <time>2021-07-27T07:41:47Z</time>
      </trkpt>
      <trkpt lat="45.8958" lon="3.02738">
        <ele>452</ele>
        <time>2021-07-27T07:41:48Z</time>
      </trkpt>
      <trkpt lat="45.89579" lon="3.02738">
        <ele>452</ele>
        <time>2021-07-27T07:41:49Z</time>
      </trkpt>
      <trkpt lat="45.89577" lon="3.02738">
        <ele>452</ele>
        <time>2021-07-27T07:41:50Z</time>
      </trkpt>
      <trkpt lat="45.89576" lon="3.02739">
        <ele>452</ele>
        <time>2021-07-27T07:41:51Z</time>
      </trkpt>
      <trkpt lat="45.89574" lon="3.02739">
        <ele>452</ele>
        <time>2021-07-27T07:41:52Z</time>
      </trkpt>
      <trkpt lat="45.89573" lon="3.02739">
        <ele>452</ele>
        <time>2021-07-27T07:41:53Z</time>
      </trkpt>
      <trkpt lat="45.89572" lon="3.02739">
        <ele>452</ele>
        <time>2021-07-27T07:41:54Z</time>
      </trkpt>
      <trkpt lat="45.89571" lon="3.0274">
        <ele>452</ele>
        <time>2021-07-27T07:41:55Z</time>
      </trkpt>
      <trkpt lat="45.8957" lon="3.0274">
        <ele>452</ele>
        <time>2021-07-27T07:41:56Z</time>
      </trkpt>
      <trkpt lat="45.89568" lon="3.02741">
        <ele>452</ele>
        <time>2021-07-27T07:41:57Z</time>
      </trkpt>
      <trkpt lat="45.89568" lon="3.02741">
        <ele>452</ele>
        <time>2021-07-27T07:41:58Z</time>
      </trkpt>
      <trkpt lat="45.89567" lon="3.02742">
        <ele>452</ele>
        <time>2021-07-27T07:41:59Z</time>
      </trkpt>
      <trkpt lat="45.89566" lon="3.02742">
        <ele>452</ele>
        <time>2021-07-27T07:42:00Z</time>
      </trkpt>
      <trkpt lat="45.89565" lon="3.02743">
        <ele>452</ele>
        <time>2021-07-27T07:42:01Z</time>
      </trkpt>
      <trkpt lat="45.89564" lon="3.02743">
        <ele>452</ele>
        <time>2021-07-27T07:42:02Z</time>
      </trkpt>
      <trkpt lat="45.89563" lon="3.02744">
        <ele>452</ele>
        <time>2021-07-27T07:42:03Z</time>
      </trkpt>
      <trkpt lat="45.89562" lon="3.02744">
        <ele>452</ele>
        <time>2021-07-27T07:42:04Z</time>
      </trkpt>
      <trkpt lat="45.8956" lon="3.02744">
        <ele>452</ele>
        <time>2021-07-27T07:42:05Z</time>
      </trkpt>
      <trkpt lat="45.89559" lon="3.02745">
        <ele>452</ele>
        <time>2021-07-27T07:42:06Z</time>
      </trkpt>
      <trkpt lat="45.89557" lon="3.02746">
        <ele>452</ele>
        <time>2021-07-27T07:42:07Z</time>
      </trkpt>
      <trkpt lat="45.89556" lon="3.02746">
        <ele>452</ele>
        <time>2021-07-27T07:42:08Z</time>
      </trkpt>
      <trkpt lat="45.89555" lon="3.02747">
        <ele>452</ele>
        <time>2021-07-27T07:42:09Z</time>
      </trkpt>
      <trkpt lat="45.89554" lon="3.02748">
        <ele>452</ele>
        <time>2021-07-27T07:42:10Z</time>
      </trkpt>
      <trkpt lat="45.89553" lon="3.02749">
        <ele>452</ele>
        <time>2021-07-27T07:42:11Z</time>
      </trkpt>
      <trkpt lat="45.89551" lon="3.02751">
        <ele>452</ele>
        <time>2021-07-27T07:42:12Z</time>
      </trkpt>
      <trkpt lat="45.8955" lon="3.02752">
        <ele>452</ele>
        <time>2021-07-27T07:42:13Z</time>
      </trkpt>
      <trkpt lat="45.89549" lon="3.02754">
        <ele>452</ele>
        <time>2021-07-27T07:42:14Z</time>
      </trkpt>
      <trkpt lat="45.89547" lon="3.02756">
        <ele>452</ele>
        <time>2021-07-27T07:42:15Z</time>
      </trkpt>
      <trkpt lat="45.89546" lon="3.02757">
        <ele>452</ele>
        <time>2021-07-27T07:42:16Z</time>
      </trkpt>
      <trkpt lat="45.89545" lon="3.02759">
        <ele>452</ele>
        <time>2021-07-27T07:42:17Z</time>
      </trkpt>
      <trkpt lat="45.89544" lon="3.0276">
        <ele>452</ele>
        <time>2021-07-27T07:42:18Z</time>
      </trkpt>
      <trkpt lat="45.89542" lon="3.02762">
        <ele>452</ele>
        <time>2021-07-27T07:42:19Z</time>
      </trkpt>
      <trkpt lat="45.89541" lon="3.02763">
        <ele>452</ele>
        <time>2021-07-27T07:42:20Z</time>
      </trkpt>
      <trkpt lat="45.89541" lon="3.02764">
        <ele>452</ele>
        <time>2021-07-27T07:42:21Z</time>
      </trkpt>
      <trkpt lat="45.89539" lon="3.02766">
        <ele>452</ele>
        <time>2021-07-27T07:42:22Z</time>
      </trkpt>
      <trkpt lat="45.89538" lon="3.02767">
        <ele>452</ele>
        <time>2021-07-27T07:42:23Z</time>
      </trkpt>
      <trkpt lat="45.89538" lon="3.02768">
        <ele>452</ele>
        <time>2021-07-27T07:42:24Z</time>
      </trkpt>
      <trkpt lat="45.89537" lon="3.0277">
        <ele>452</ele>
        <time>2021-07-27T07:42:25Z</time>
      </trkpt>
      <trkpt lat="45.89536" lon="3.02771">
        <ele>452</ele>
        <time>2021-07-27T07:42:26Z</time>
      </trkpt>
      <trkpt lat="45.89535" lon="3.02772">
        <ele>452</ele>
        <time>2021-07-27T07:42:27Z</time>
      </trkpt>
      <trkpt lat="45.89534" lon="3.02774">
        <ele>452</ele>
        <time>2021-07-27T07:42:28Z</time>
      </trkpt>
      <trkpt lat="45.89533" lon="3.02775">
        <ele>452</ele>
        <time>2021-07-27T07:42:29Z</time>
      </trkpt>
      <trkpt lat="45.89532" lon="3.02776">
        <ele>452</ele>
        <time>2021-07-27T07:42:30Z</time>
      </trkpt>
      <trkpt lat="45.89532" lon="3.02777">
        <ele>452</ele>
        <time>2021-07-27T07:42:31Z</time>
      </trkpt>
      <trkpt lat="45.89531" lon="3.02779">
        <ele>452</ele>
        <time>2021-07-27T07:42:32Z</time>
      </trkpt>
      <trkpt lat="45.89529" lon="3.0278">
        <ele>452</ele>
        <time>2021-07-27T07:42:33Z</time>
      </trkpt>
      <trkpt lat="45.89529" lon="3.02781">
        <ele>452</ele>
        <time>2021-07-27T07:42:34Z</time>
      </trkpt>
      <trkpt lat="45.89528" lon="3.02782">
        <ele>452</ele>
        <time>2021-07-27T07:42:35Z</time>
      </trkpt>
      <trkpt lat="45.89526" lon="3.02783">
        <ele>452</ele>
        <time>2021-07-27T07:42:37Z</time>
      </trkpt>
      <trkpt lat="45.89523" lon="3.02788">
        <ele>452</ele>
        <time>2021-07-27T07:42:38Z</time>
      </trkpt>
      <trkpt lat="45.89523" lon="3.02788">
        <ele>452</ele>
        <time>2021-07-27T07:42:39Z</time>
      </trkpt>
      <trkpt lat="45.89522" lon="3.02789">
        <ele>452</ele>
        <time>2021-07-27T07:42:40Z</time>
      </trkpt>
      <trkpt lat="45.89521" lon="3.0279">
        <ele>452</ele>
        <time>2021-07-27T07:42:41Z</time>
      </trkpt>
      <trkpt lat="45.8952" lon="3.02791">
        <ele>452</ele>
        <time>2021-07-27T07:42:42Z</time>
      </trkpt>
      <trkpt lat="45.8952" lon="3.02792">
        <ele>452</ele>
        <time>2021-07-27T07:42:43Z</time>
      </trkpt>
      <trkpt lat="45.89519" lon="3.02793">
        <ele>452</ele>
        <time>2021-07-27T07:42:44Z</time>
      </trkpt>
      <trkpt lat="45.89518" lon="3.02795">
        <ele>452</ele>
        <time>2021-07-27T07:42:45Z</time>
      </trkpt>
      <trkpt lat="45.89518" lon="3.02796">
        <ele>452</ele>
        <time>2021-07-27T07:42:46Z</time>
      </trkpt>
      <trkpt lat="45.89517" lon="3.02797">
        <ele>452</ele>
        <time>2021-07-27T07:42:47Z</time>
      </trkpt>
      <trkpt lat="45.89516" lon="3.02798">
        <ele>452</ele>
        <time>2021-07-27T07:42:48Z</time>
      </trkpt>
      <trkpt lat="45.89515" lon="3.028">
        <ele>452</ele>
        <time>2021-07-27T07:42:49Z</time>
      </trkpt>
      <trkpt lat="45.89515" lon="3.02801">
        <ele>452</ele>
        <time>2021-07-27T07:42:50Z</time>
      </trkpt>
      <trkpt lat="45.89514" lon="3.02803">
        <ele>452</ele>
        <time>2021-07-27T07:42:51Z</time>
      </trkpt>
      <trkpt lat="45.89513" lon="3.02805">
        <ele>452</ele>
        <time>2021-07-27T07:42:52Z</time>
      </trkpt>
      <trkpt lat="45.89512" lon="3.02806">
        <ele>452</ele>
        <time>2021-07-27T07:42:53Z</time>
      </trkpt>
      <trkpt lat="45.89511" lon="3.02808">
        <ele>452</ele>
        <time>2021-07-27T07:42:54Z</time>
      </trkpt>
      <trkpt lat="45.8951" lon="3.0281">
        <ele>452</ele>
        <time>2021-07-27T07:42:55Z</time>
      </trkpt>
      <trkpt lat="45.8951" lon="3.02812">
        <ele>452</ele>
        <time>2021-07-27T07:42:56Z</time>
      </trkpt>
      <trkpt lat="45.89508" lon="3.02814">
        <ele>452</ele>
        <time>2021-07-27T07:42:57Z</time>
      </trkpt>
      <trkpt lat="45.89508" lon="3.02816">
        <ele>452</ele>
        <time>2021-07-27T07:42:58Z</time>
      </trkpt>
      <trkpt lat="45.89507" lon="3.02818">
        <ele>452</ele>
        <time>2021-07-27T07:42:59Z</time>
      </trkpt>
      <trkpt lat="45.89505" lon="3.02819">
        <ele>452</ele>
        <time>2021-07-27T07:43:00Z</time>
      </trkpt>
      <trkpt lat="45.89505" lon="3.02821">
        <ele>452</ele>
        <time>2021-07-27T07:43:01Z</time>
      </trkpt>
      <trkpt lat="45.89504" lon="3.02823">
        <ele>452</ele>
        <time>2021-07-27T07:43:02Z</time>
      </trkpt>
      <trkpt lat="45.89504" lon="3.02825">
        <ele>452</ele>
        <time>2021-07-27T07:43:03Z</time>
      </trkpt>
      <trkpt lat="45.89502" lon="3.02827">
        <ele>452</ele>
        <time>2021-07-27T07:43:04Z</time>
      </trkpt>
      <trkpt lat="45.89502" lon="3.02828">
        <ele>452</ele>
        <time>2021-07-27T07:43:05Z</time>
      </trkpt>
      <trkpt lat="45.89501" lon="3.0283">
        <ele>452</ele>
        <time>2021-07-27T07:43:06Z</time>
      </trkpt>
      <trkpt lat="45.89499" lon="3.02832">
        <ele>452</ele>
        <time>2021-07-27T07:43:07Z</time>
      </trkpt>
      <trkpt lat="45.89499" lon="3.02834">
        <ele>452</ele>
        <time>2021-07-27T07:43:08Z</time>
      </trkpt>
      <trkpt lat="45.89497" lon="3.02836">
        <ele>452</ele>
        <time>2021-07-27T07:43:09Z</time>
      </trkpt>
      <trkpt lat="45.89496" lon="3.02837">
        <ele>452</ele>
        <time>2021-07-27T07:43:10Z</time>
      </trkpt>
      <trkpt lat="45.89496" lon="3.02839">
        <ele>452</ele>
        <time>2021-07-27T07:43:11Z</time>
      </trkpt>
      <trkpt lat="45.89496" lon="3.02841">
        <ele>452</ele>
        <time>2021-07-27T07:43:12Z</time>
      </trkpt>
      <trkpt lat="45.89495" lon="3.02843">
        <ele>452</ele>
        <time>2021-07-27T07:43:13Z</time>
      </trkpt>
      <trkpt lat="45.89494" lon="3.02845">
        <ele>452</ele>
        <time>2021-07-27T07:43:14Z</time>
      </trkpt>
      <trkpt lat="45.89494" lon="3.02846">
        <ele>452</ele>
        <time>2021-07-27T07:43:15Z</time>
      </trkpt>
      <trkpt lat="45.89493" lon="3.02848">
        <ele>452</ele>
        <time>2021-07-27T07:43:16Z</time>
      </trkpt>
      <trkpt lat="45.89492" lon="3.02849">
        <ele>452</ele>
        <time>2021-07-27T07:43:17Z</time>
      </trkpt>
      <trkpt lat="45.89492" lon="3.02851">
        <ele>452</ele>
        <time>2021-07-27T07:43:18Z</time>
      </trkpt>
      <trkpt lat="45.89492" lon="3.02853">
        <ele>452</ele>
        <time>2021-07-27T07:43:19Z</time>
      </trkpt>
      <trkpt lat="45.89491" lon="3.02854">
        <ele>452</ele>
        <time>2021-07-27T07:43:20Z</time>
      </trkpt>
      <trkpt lat="45.89491" lon="3.02856">
        <ele>452</ele>
        <time>2021-07-27T07:43:21Z</time>
      </trkpt>
      <trkpt lat="45.8949" lon="3.02858">
        <ele>452</ele>
        <time>2021-07-27T07:43:22Z</time>
      </trkpt>
      <trkpt lat="45.8949" lon="3.0286">
        <ele>452</ele>
        <time>2021-07-27T07:43:23Z</time>
      </trkpt>
      <trkpt lat="45.8949" lon="3.02862">
        <ele>452</ele>
        <time>2021-07-27T07:43:24Z</time>
      </trkpt>
      <trkpt lat="45.89489" lon="3.02863">
        <ele>452</ele>
        <time>2021-07-27T07:43:25Z</time>
      </trkpt>
      <trkpt lat="45.89489" lon="3.02865">
        <ele>452</ele>
        <time>2021-07-27T07:43:26Z</time>
      </trkpt>
      <trkpt lat="45.89488" lon="3.02867">
        <ele>452</ele>
        <time>2021-07-27T07:43:27Z</time>
      </trkpt>
      <trkpt lat="45.89488" lon="3.02869">
        <ele>452</ele>
        <time>2021-07-27T07:43:28Z</time>
      </trkpt>
      <trkpt lat="45.89487" lon="3.02871">
        <ele>452</ele>
        <time>2021-07-27T07:43:29Z</time>
      </trkpt>
      <trkpt lat="45.89487" lon="3.02872">
        <ele>452</ele>
        <time>2021-07-27T07:43:30Z</time>
      </trkpt>
      <trkpt lat="45.89486" lon="3.02874">
        <ele>452</ele>
        <time>2021-07-27T07:43:31Z</time>
      </trkpt>
      <trkpt lat="45.89486" lon="3.02875">
        <ele>452</ele>
        <time>2021-07-27T07:43:32Z</time>
      </trkpt>
      <trkpt lat="45.89485" lon="3.02877">
        <ele>452</ele>
        <time>2021-07-27T07:43:33Z</time>
      </trkpt>
      <trkpt lat="45.89484" lon="3.02878">
        <ele>452</ele>
        <time>2021-07-27T07:43:34Z</time>
      </trkpt>
      <trkpt lat="45.89484" lon="3.0288">
        <ele>452</ele>
        <time>2021-07-27T07:43:36Z</time>
      </trkpt>
      <trkpt lat="45.89484" lon="3.02882">
        <ele>452</ele>
        <time>2021-07-27T07:43:37Z</time>
      </trkpt>
      <trkpt lat="45.89484" lon="3.02883">
        <ele>452</ele>
        <time>2021-07-27T07:43:38Z</time>
      </trkpt>
      <trkpt lat="45.89484" lon="3.02891">
        <ele>452</ele>
        <time>2021-07-27T07:43:39Z</time>
      </trkpt>
      <trkpt lat="45.89484" lon="3.02891">
        <ele>452</ele>
        <time>2021-07-27T07:43:40Z</time>
      </trkpt>
      <trkpt lat="45.89484" lon="3.02893">
        <ele>452</ele>
        <time>2021-07-27T07:43:41Z</time>
      </trkpt>
      <trkpt lat="45.89484" lon="3.02894">
        <ele>452</ele>
        <time>2021-07-27T07:43:42Z</time>
      </trkpt>
      <trkpt lat="45.89484" lon="3.02896">
        <ele>452</ele>
        <time>2021-07-27T07:43:43Z</time>
      </trkpt>
      <trkpt lat="45.89484" lon="3.02898">
        <ele>452</ele>
        <time>2021-07-27T07:43:44Z</time>
      </trkpt>
      <trkpt lat="45.89484" lon="3.02901">
        <ele>452</ele>
        <time>2021-07-27T07:43:45Z</time>
      </trkpt>
      <trkpt lat="45.89484" lon="3.02903">
        <ele>452</ele>
        <time>2021-07-27T07:43:46Z</time>
      </trkpt>
      <trkpt lat="45.89484" lon="3.02905">
        <ele>452</ele>
        <time>2021-07-27T07:43:47Z</time>
      </trkpt>
      <trkpt lat="45.89484" lon="3.02908">
        <ele>452</ele>
        <time>2021-07-27T07:43:48Z</time>
      </trkpt>
      <trkpt lat="45.89483" lon="3.0291">
        <ele>452</ele>
        <time>2021-07-27T07:43:49Z</time>
      </trkpt>
      <trkpt lat="45.89482" lon="3.02912">
        <ele>452</ele>
        <time>2021-07-27T07:43:50Z</time>
      </trkpt>
      <trkpt lat="45.89481" lon="3.02914">
        <ele>452</ele>
        <time>2021-07-27T07:43:51Z</time>
      </trkpt>
      <trkpt lat="45.89481" lon="3.02917">
        <ele>452</ele>
        <time>2021-07-27T07:43:52Z</time>
      </trkpt>
      <trkpt lat="45.89479" lon="3.02919">
        <ele>452</ele>
        <time>2021-07-27T07:43:53Z</time>
      </trkpt>
      <trkpt lat="45.89479" lon="3.02921">
        <ele>452</ele>
        <time>2021-07-27T07:43:54Z</time>
      </trkpt>
      <trkpt lat="45.89479" lon="3.02923">
        <ele>452</ele>
        <time>2021-07-27T07:43:55Z</time>
      </trkpt>
      <trkpt lat="45.89478" lon="3.02925">
        <ele>452</ele>
        <time>2021-07-27T07:43:56Z</time>
      </trkpt>
      <trkpt lat="45.89478" lon="3.02926">
        <ele>452</ele>
        <time>2021-07-27T07:43:57Z</time>
      </trkpt>
      <trkpt lat="45.89478" lon="3.02928">
        <ele>452</ele>
        <time>2021-07-27T07:43:58Z</time>
      </trkpt>
      <trkpt lat="45.89477" lon="3.02929">
        <ele>452</ele>
        <time>2021-07-27T07:43:59Z</time>
      </trkpt>
      <trkpt lat="45.89476" lon="3.02931">
        <ele>452</ele>
        <time>2021-07-27T07:44:00Z</time>
      </trkpt>
      <trkpt lat="45.89476" lon="3.02933">
        <ele>452</ele>
        <time>2021-07-27T07:44:01Z</time>
      </trkpt>
      <trkpt lat="45.89475" lon="3.02935">
        <ele>452</ele>
        <time>2021-07-27T07:44:02Z</time>
      </trkpt>
      <trkpt lat="45.89475" lon="3.02937">
        <ele>452</ele>
        <time>2021-07-27T07:44:03Z</time>
      </trkpt>
      <trkpt lat="45.89475" lon="3.02939">
        <ele>452</ele>
        <time>2021-07-27T07:44:04Z</time>
      </trkpt>
      <trkpt lat="45.89475" lon="3.02941">
        <ele>452</ele>
        <time>2021-07-27T07:44:05Z</time>
      </trkpt>
      <trkpt lat="45.89474" lon="3.02943">
        <ele>452</ele>
        <time>2021-07-27T07:44:06Z</time>
      </trkpt>
      <trkpt lat="45.89474" lon="3.02946">
        <ele>452</ele>
        <time>2021-07-27T07:44:07Z</time>
      </trkpt>
      <trkpt lat="45.89473" lon="3.02948">
        <ele>452</ele>
        <time>2021-07-27T07:44:08Z</time>
      </trkpt>
      <trkpt lat="45.89473" lon="3.02951">
        <ele>452</ele>
        <time>2021-07-27T07:44:09Z</time>
      </trkpt>
      <trkpt lat="45.89473" lon="3.02954">
        <ele>452</ele>
        <time>2021-07-27T07:44:10Z</time>
      </trkpt>
      <trkpt lat="45.89473" lon="3.02957">
        <ele>452</ele>
        <time>2021-07-27T07:44:11Z</time>
      </trkpt>
      <trkpt lat="45.89473" lon="3.0296">
        <ele>452</ele>
        <time>2021-07-27T07:44:12Z</time>
      </trkpt>
      <trkpt lat="45.89473" lon="3.02963">
        <ele>452</ele>
        <time>2021-07-27T07:44:13Z</time>
      </trkpt>
      <trkpt lat="45.89473" lon="3.02965">
        <ele>452</ele>
        <time>2021-07-27T07:44:14Z</time>
      </trkpt>
      <trkpt lat="45.89473" lon="3.02967">
        <ele>452</ele>
        <time>2021-07-27T07:44:15Z</time>
      </trkpt>
      <trkpt lat="45.89473" lon="3.02969">
        <ele>452</ele>
        <time>2021-07-27T07:44:16Z</time>
      </trkpt>
      <trkpt lat="45.89473" lon="3.02971">
        <ele>452</ele>
        <time>2021-07-27T07:44:17Z</time>
      </trkpt>
      <trkpt lat="45.89472" lon="3.02973">
        <ele>452</ele>
        <time>2021-07-27T07:44:18Z</time>
      </trkpt>
      <trkpt lat="45.89472" lon="3.02975">
        <ele>452</ele>
        <time>2021-07-27T07:44:19Z</time>
      </trkpt>
      <trkpt lat="45.89471" lon="3.02977">
        <ele>452</ele>
        <time>2021-07-27T07:44:20Z</time>
      </trkpt>
      <trkpt lat="45.89471" lon="3.02978">
        <ele>452</ele>
        <time>2021-07-27T07:44:21Z</time>
      </trkpt>
      <trkpt lat="45.8947" lon="3.0298">
        <ele>452</ele>
        <time>2021-07-27T07:44:22Z</time>
      </trkpt>
      <trkpt lat="45.89469" lon="3.02982">
        <ele>452</ele>
        <time>2021-07-27T07:44:23Z</time>
      </trkpt>
      <trkpt lat="45.89468" lon="3.02983">
        <ele>452</ele>
        <time>2021-07-27T07:44:24Z</time>
      </trkpt>
      <trkpt lat="45.89468" lon="3.02985">
        <ele>452</ele>
        <time>2021-07-27T07:44:25Z</time>
      </trkpt>
      <trkpt lat="45.89467" lon="3.02986">
        <ele>452</ele>
        <time>2021-07-27T07:44:26Z</time>
      </trkpt>
      <trkpt lat="45.89467" lon="3.02987">
        <ele>452</ele>
        <time>2021-07-27T07:44:27Z</time>
      </trkpt>
      <trkpt lat="45.89466" lon="3.02989">
        <ele>452</ele>
        <time>2021-07-27T07:44:28Z</time>
      </trkpt>
      <trkpt lat="45.89465" lon="3.02991">
        <ele>452</ele>
        <time>2021-07-27T07:44:29Z</time>
      </trkpt>
      <trkpt lat="45.89465" lon="3.02992">
        <ele>452</ele>
        <time>2021-07-27T07:44:30Z</time>
      </trkpt>
      <trkpt lat="45.89464" lon="3.02994">
        <ele>452</ele>
        <time>2021-07-27T07:44:31Z</time>
      </trkpt>
      <trkpt lat="45.89463" lon="3.02996">
        <ele>452</ele>
        <time>2021-07-27T07:44:32Z</time>
      </trkpt>
      <trkpt lat="45.89463" lon="3.02997">
        <ele>452</ele>
        <time>2021-07-27T07:44:33Z</time>
      </trkpt>
      <trkpt lat="45.89463" lon="3.02999">
        <ele>452</ele>
        <time>2021-07-27T07:44:34Z</time>
      </trkpt>
      <trkpt lat="45.89463" lon="3.03">
        <ele>452</ele>
        <time>2021-07-27T07:44:35Z</time>
      </trkpt>
      <trkpt lat="45.89463" lon="3.03002">
        <ele>452</ele>
        <time>2021-07-27T07:44:37Z</time>
      </trkpt>
      <trkpt lat="45.89462" lon="3.03004">
        <ele>452</ele>
        <time>2021-07-27T07:44:38Z</time>
      </trkpt>
      <trkpt lat="45.8946" lon="3.03013">
        <ele>452</ele>
        <time>2021-07-27T07:44:39Z</time>
      </trkpt>
      <trkpt lat="45.8946" lon="3.03013">
        <ele>452</ele>
        <time>2021-07-27T07:44:40Z</time>
      </trkpt>
      <trkpt lat="45.8946" lon="3.03014">
        <ele>452</ele>
        <time>2021-07-27T07:44:41Z</time>
      </trkpt>
      <trkpt lat="45.89459" lon="3.03016">
        <ele>452</ele>
        <time>2021-07-27T07:44:42Z</time>
      </trkpt>
      <trkpt lat="45.89457" lon="3.03017">
        <ele>452</ele>
        <time>2021-07-27T07:44:43Z</time>
      </trkpt>
      <trkpt lat="45.89457" lon="3.03019">
        <ele>452</ele>
        <time>2021-07-27T07:44:44Z</time>
      </trkpt>
      <trkpt lat="45.89455" lon="3.03021">
        <ele>452</ele>
        <time>2021-07-27T07:44:45Z</time>
      </trkpt>
      <trkpt lat="45.89454" lon="3.03022">
        <ele>452</ele>
        <time>2021-07-27T07:44:46Z</time>
      </trkpt>
      <trkpt lat="45.89453" lon="3.03024">
        <ele>452</ele>
        <time>2021-07-27T07:44:47Z</time>
      </trkpt>
      <trkpt lat="45.89451" lon="3.03026">
        <ele>452</ele>
        <time>2021-07-27T07:44:48Z</time>
      </trkpt>
      <trkpt lat="45.8945" lon="3.03028">
        <ele>452</ele>
        <time>2021-07-27T07:44:49Z</time>
      </trkpt>
      <trkpt lat="45.89449" lon="3.0303">
        <ele>452</ele>
        <time>2021-07-27T07:44:50Z</time>
      </trkpt>
      <trkpt lat="45.89448" lon="3.03032">
        <ele>452</ele>
        <time>2021-07-27T07:44:51Z</time>
      </trkpt>
      <trkpt lat="45.89446" lon="3.03033">
        <ele>452</ele>
        <time>2021-07-27T07:44:52Z</time>
      </trkpt>
      <trkpt lat="45.89445" lon="3.03035">
        <ele>452</ele>
        <time>2021-07-27T07:44:53Z</time>
      </trkpt>
      <trkpt lat="45.89444" lon="3.03036">
        <ele>452</ele>
        <time>2021-07-27T07:44:54Z</time>
      </trkpt>
      <trkpt lat="45.89442" lon="3.03037">
        <ele>452</ele>
        <time>2021-07-27T07:44:55Z</time>
      </trkpt>
      <trkpt lat="45.89442" lon="3.03039">
        <ele>452</ele>
        <time>2021-07-27T07:44:56Z</time>
      </trkpt>
      <trkpt lat="45.89441" lon="3.0304">
        <ele>452</ele>
        <time>2021-07-27T07:44:57Z</time>
      </trkpt>
      <trkpt lat="45.89441" lon="3.03041">
        <ele>452</ele>
        <time>2021-07-27T07:44:58Z</time>
      </trkpt>
      <trkpt lat="45.89439" lon="3.03043">
        <ele>452</ele>
        <time>2021-07-27T07:44:59Z</time>
      </trkpt>
      <trkpt lat="45.89439" lon="3.03044">
        <ele>452</ele>
        <time>2021-07-27T07:45:00Z</time>
      </trkpt>
      <trkpt lat="45.89438" lon="3.03046">
        <ele>452</ele>
        <time>2021-07-27T07:45:01Z</time>
      </trkpt>
      <trkpt lat="45.89438" lon="3.03047">
        <ele>452</ele>
        <time>2021-07-27T07:45:02Z</time>
      </trkpt>
      <trkpt lat="45.89436" lon="3.03049">
        <ele>452</ele>
        <time>2021-07-27T07:45:02Z</time>
      </trkpt>
      <trkpt lat="45.89436" lon="3.0305">
        <ele>452</ele>
        <time>2021-07-27T07:45:03Z</time>
      </trkpt>
      <trkpt lat="45.89435" lon="3.03052">
        <ele>452</ele>
        <time>2021-07-27T07:45:04Z</time>
      </trkpt>
      <trkpt lat="45.89434" lon="3.03054">
        <ele>452</ele>
        <time>2021-07-27T07:45:05Z</time>
      </trkpt>
      <trkpt lat="45.89433" lon="3.03055">
        <ele>452</ele>
        <time>2021-07-27T07:45:06Z</time>
      </trkpt>
      <trkpt lat="45.89432" lon="3.03057">
        <ele>452</ele>
        <time>2021-07-27T07:45:07Z</time>
      </trkpt>
      <trkpt lat="45.89431" lon="3.03059">
        <ele>452</ele>
        <time>2021-07-27T07:45:08Z</time>
      </trkpt>
      <trkpt lat="45.8943" lon="3.03061">
        <ele>452</ele>
        <time>2021-07-27T07:45:09Z</time>
      </trkpt>
      <trkpt lat="45.89429" lon="3.03062">
        <ele>452</ele>
        <time>2021-07-27T07:45:10Z</time>
      </trkpt>
      <trkpt lat="45.89428" lon="3.03064">
        <ele>452</ele>
        <time>2021-07-27T07:45:11Z</time>
      </trkpt>
      <trkpt lat="45.89427" lon="3.03066">
        <ele>452</ele>
        <time>2021-07-27T07:45:12Z</time>
      </trkpt>
      <trkpt lat="45.89426" lon="3.03068">
        <ele>452</ele>
        <time>2021-07-27T07:45:13Z</time>
      </trkpt>
      <trkpt lat="45.89425" lon="3.0307">
        <ele>452</ele>
        <time>2021-07-27T07:45:14Z</time>
      </trkpt>
      <trkpt lat="45.89424" lon="3.03072">
        <ele>452</ele>
        <time>2021-07-27T07:45:15Z</time>
      </trkpt>
      <trkpt lat="45.89423" lon="3.03074">
        <ele>452</ele>
        <time>2021-07-27T07:45:16Z</time>
      </trkpt>
      <trkpt lat="45.89422" lon="3.03076">
        <ele>452</ele>
        <time>2021-07-27T07:45:17Z</time>
      </trkpt>
      <trkpt lat="45.89421" lon="3.03077">
        <ele>452</ele>
        <time>2021-07-27T07:45:18Z</time>
      </trkpt>
      <trkpt lat="45.8942" lon="3.03079">
        <ele>452</ele>
        <time>2021-07-27T07:45:19Z</time>
      </trkpt>
      <trkpt lat="45.89419" lon="3.03081">
        <ele>452</ele>
        <time>2021-07-27T07:45:20Z</time>
      </trkpt>
      <trkpt lat="45.89418" lon="3.03082">
        <ele>452</ele>
        <time>2021-07-27T07:45:21Z</time>
      </trkpt>
      <trkpt lat="45.89418" lon="3.03084">
        <ele>452</ele>
        <time>2021-07-27T07:45:22Z</time>
      </trkpt>
      <trkpt lat="45.89417" lon="3.03086">
        <ele>452</ele>
        <time>2021-07-27T07:45:23Z</time>
      </trkpt>
      <trkpt lat="45.89417" lon="3.03088">
        <ele>452</ele>
        <time>2021-07-27T07:45:24Z</time>
      </trkpt>
      <trkpt lat="45.89416" lon="3.0309">
        <ele>452</ele>
        <time>2021-07-27T07:45:25Z</time>
      </trkpt>
      <trkpt lat="45.89415" lon="3.03092">
        <ele>452</ele>
        <time>2021-07-27T07:45:26Z</time>
      </trkpt>
      <trkpt lat="45.89414" lon="3.03095">
        <ele>452</ele>
        <time>2021-07-27T07:45:27Z</time>
      </trkpt>
      <trkpt lat="45.89414" lon="3.03097">
        <ele>452</ele>
        <time>2021-07-27T07:45:28Z</time>
      </trkpt>
      <trkpt lat="45.89414" lon="3.03099">
        <ele>452</ele>
        <time>2021-07-27T07:45:29Z</time>
      </trkpt>
      <trkpt lat="45.89413" lon="3.03101">
        <ele>452</ele>
        <time>2021-07-27T07:45:30Z</time>
      </trkpt>
      <trkpt lat="45.89412" lon="3.03103">
        <ele>452</ele>
        <time>2021-07-27T07:45:31Z</time>
      </trkpt>
      <trkpt lat="45.89411" lon="3.03105">
        <ele>452</ele>
        <time>2021-07-27T07:45:32Z</time>
      </trkpt>
      <trkpt lat="45.89411" lon="3.03107">
        <ele>452</ele>
        <time>2021-07-27T07:45:33Z</time>
      </trkpt>
      <trkpt lat="45.8941" lon="3.0311">
        <ele>452</ele>
        <time>2021-07-27T07:45:34Z</time>
      </trkpt>
      <trkpt lat="45.89409" lon="3.03112">
        <ele>452</ele>
        <time>2021-07-27T07:45:36Z</time>
      </trkpt>
      <trkpt lat="45.89408" lon="3.03121">
        <ele>452</ele>
        <time>2021-07-27T07:45:37Z</time>
      </trkpt>
      <trkpt lat="45.89408" lon="3.03121">
        <ele>452</ele>
        <time>2021-07-27T07:45:38Z</time>
      </trkpt>
      <trkpt lat="45.89407" lon="3.03122">
        <ele>452</ele>
        <time>2021-07-27T07:45:39Z</time>
      </trkpt>
      <trkpt lat="45.89407" lon="3.03124">
        <ele>452</ele>
        <time>2021-07-27T07:45:40Z</time>
      </trkpt>
      <trkpt lat="45.89406" lon="3.03126">
        <ele>452</ele>
        <time>2021-07-27T07:45:41Z</time>
      </trkpt>
      <trkpt lat="45.89406" lon="3.03127">
        <ele>452</ele>
        <time>2021-07-27T07:45:42Z</time>
      </trkpt>
      <trkpt lat="45.89406" lon="3.03129">
        <ele>452</ele>
        <time>2021-07-27T07:45:43Z</time>
      </trkpt>
      <trkpt lat="45.89406" lon="3.03131">
        <ele>452</ele>
        <time>2021-07-27T07:45:44Z</time>
      </trkpt>
      <trkpt lat="45.89405" lon="3.03133">
        <ele>452</ele>
        <time>2021-07-27T07:45:45Z</time>
      </trkpt>
      <trkpt lat="45.89405" lon="3.03135">
        <ele>452</ele>
        <time>2021-07-27T07:45:46Z</time>
      </trkpt>
      <trkpt lat="45.89405" lon="3.03137">
        <ele>452</ele>
        <time>2021-07-27T07:45:47Z</time>
      </trkpt>
      <trkpt lat="45.89405" lon="3.0314">
        <ele>452</ele>
        <time>2021-07-27T07:45:48Z</time>
      </trkpt>
      <trkpt lat="45.89405" lon="3.03142">
        <ele>452</ele>
        <time>2021-07-27T07:45:49Z</time>
      </trkpt>
      <trkpt lat="45.89404" lon="3.03144">
        <ele>452</ele>
        <time>2021-07-27T07:45:50Z</time>
      </trkpt>
      <trkpt lat="45.89404" lon="3.03146">
        <ele>452</ele>
        <time>2021-07-27T07:45:51Z</time>
      </trkpt>
      <trkpt lat="45.89404" lon="3.03148">
        <ele>452</ele>
        <time>2021-07-27T07:45:52Z</time>
      </trkpt>
      <trkpt lat="45.89404" lon="3.0315">
        <ele>452</ele>
        <time>2021-07-27T07:45:53Z</time>
      </trkpt>
      <trkpt lat="45.89403" lon="3.03151">
        <ele>452</ele>
        <time>2021-07-27T07:45:54Z</time>
      </trkpt>
      <trkpt lat="45.89403" lon="3.03153">
        <ele>452</ele>
        <time>2021-07-27T07:45:55Z</time>
      </trkpt>
      <trkpt lat="45.89403" lon="3.03155">
        <ele>452</ele>
        <time>2021-07-27T07:45:56Z</time>
      </trkpt>
      <trkpt lat="45.89402" lon="3.03156">
        <ele>452</ele>
        <time>2021-07-27T07:45:57Z</time>
      </trkpt>
      <trkpt lat="45.89402" lon="3.03158">
        <ele>452</ele>
        <time>2021-07-27T07:45:58Z</time>
      </trkpt>
      <trkpt lat="45.89401" lon="3.0316">
        <ele>452</ele>
        <time>2021-07-27T07:45:59Z</time>
      </trkpt>
      <trkpt lat="45.89401" lon="3.03161">
        <ele>452</ele>
        <time>2021-07-27T07:46:00Z</time>
      </trkpt>
      <trkpt lat="45.894" lon="3.03163">
        <ele>452</ele>
        <time>2021-07-27T07:46:01Z</time>
      </trkpt>
      <trkpt lat="45.894" lon="3.03165">
        <ele>452</ele>
        <time>2021-07-27T07:46:02Z</time>
      </trkpt>
      <trkpt lat="45.89399" lon="3.03167">
        <ele>452</ele>
        <time>2021-07-27T07:46:03Z</time>
      </trkpt>
      <trkpt lat="45.89399" lon="3.03169">
        <ele>452</ele>
        <time>2021-07-27T07:46:04Z</time>
      </trkpt>
      <trkpt lat="45.89399" lon="3.03171">
        <ele>452</ele>
        <time>2021-07-27T07:46:05Z</time>
      </trkpt>
      <trkpt lat="45.89398" lon="3.03173">
        <ele>452</ele>
        <time>2021-07-27T07:46:06Z</time>
      </trkpt>
      <trkpt lat="45.89397" lon="3.03176">
        <ele>452</ele>
        <time>2021-07-27T07:46:07Z</time>
      </trkpt>
      <trkpt lat="45.89397" lon="3.03179">
        <ele>452</ele>
        <time>2021-07-27T07:46:08Z</time>
      </trkpt>
      <trkpt lat="45.89396" lon="3.03181">
        <ele>452</ele>
        <time>2021-07-27T07:46:09Z</time>
      </trkpt>
      <trkpt lat="45.89396" lon="3.03184">
        <ele>452</ele>
        <time>2021-07-27T07:46:10Z</time>
      </trkpt>
      <trkpt lat="45.89394" lon="3.03187">
        <ele>452</ele>
        <time>2021-07-27T07:46:11Z</time>
      </trkpt>
      <trkpt lat="45.89394" lon="3.03189">
        <ele>452</ele>
        <time>2021-07-27T07:46:12Z</time>
      </trkpt>
      <trkpt lat="45.89393" lon="3.03192">
        <ele>452</ele>
        <time>2021-07-27T07:46:13Z</time>
      </trkpt>
      <trkpt lat="45.89393" lon="3.03195">
        <ele>452</ele>
        <time>2021-07-27T07:46:14Z</time>
      </trkpt>
      <trkpt lat="45.89392" lon="3.03197">
        <ele>452</ele>
        <time>2021-07-27T07:46:15Z</time>
      </trkpt>
      <trkpt lat="45.89391" lon="3.03199">
        <ele>452</ele>
        <time>2021-07-27T07:46:16Z</time>
      </trkpt>
      <trkpt lat="45.8939" lon="3.03201">
        <ele>452</ele>
        <time>2021-07-27T07:46:17Z</time>
      </trkpt>
      <trkpt lat="45.8939" lon="3.03204">
        <ele>452</ele>
        <time>2021-07-27T07:46:18Z</time>
      </trkpt>
      <trkpt lat="45.8939" lon="3.03206">
        <ele>452</ele>
        <time>2021-07-27T07:46:19Z</time>
      </trkpt>
      <trkpt lat="45.8939" lon="3.03208">
        <ele>452</ele>
        <time>2021-07-27T07:46:20Z</time>
      </trkpt>
      <trkpt lat="45.8939" lon="3.03211">
        <ele>452</ele>
        <time>2021-07-27T07:46:21Z</time>
      </trkpt>
      <trkpt lat="45.8939" lon="3.03213">
        <ele>452</ele>
        <time>2021-07-27T07:46:22Z</time>
      </trkpt>
      <trkpt lat="45.8939" lon="3.03215">
        <ele>452</ele>
        <time>2021-07-27T07:46:23Z</time>
      </trkpt>
      <trkpt lat="45.8939" lon="3.03217">
        <ele>452</ele>
        <time>2021-07-27T07:46:24Z</time>
      </trkpt>
      <trkpt lat="45.8939" lon="3.0322">
        <ele>452</ele>
        <time>2021-07-27T07:46:25Z</time>
      </trkpt>
      <trkpt lat="45.8939" lon="3.03222">
        <ele>452</ele>
        <time>2021-07-27T07:46:26Z</time>
      </trkpt>
      <trkpt lat="45.8939" lon="3.03224">
        <ele>452</ele>
        <time>2021-07-27T07:46:27Z</time>
      </trkpt>
      <trkpt lat="45.8939" lon="3.03225">
        <ele>452</ele>
        <time>2021-07-27T07:46:28Z</time>
      </trkpt>
      <trkpt lat="45.8939" lon="3.03227">
        <ele>452</ele>
        <time>2021-07-27T07:46:29Z</time>
      </trkpt>
      <trkpt lat="45.8939" lon="3.03229">
        <ele>452</ele>
        <time>2021-07-27T07:46:30Z</time>
      </trkpt>
      <trkpt lat="45.89391" lon="3.03231">
        <ele>452</ele>
        <time>2021-07-27T07:46:31Z</time>
      </trkpt>
      <trkpt lat="45.89391" lon="3.03233">
        <ele>452</ele>
        <time>2021-07-27T07:46:32Z</time>
      </trkpt>
      <trkpt lat="45.89391" lon="3.03235">
        <ele>452</ele>
        <time>2021-07-27T07:46:33Z</time>
      </trkpt>
      <trkpt lat="45.89392" lon="3.03237">
        <ele>452</ele>
        <time>2021-07-27T07:46:34Z</time>
      </trkpt>
      <trkpt lat="45.89393" lon="3.03239">
        <ele>452</ele>
        <time>2021-07-27T07:46:35Z</time>
      </trkpt>
      <trkpt lat="45.89393" lon="3.03241">
        <ele>452</ele>
        <time>2021-07-27T07:46:36Z</time>
      </trkpt>
      <trkpt lat="45.89393" lon="3.03243">
        <ele>452</ele>
        <time>2021-07-27T07:46:37Z</time>
      </trkpt>
      <trkpt lat="45.89393" lon="3.03245">
        <ele>452</ele>
        <time>2021-07-27T07:46:38Z</time>
      </trkpt>
      <trkpt lat="45.89393" lon="3.03247">
        <ele>452</ele>
        <time>2021-07-27T07:46:39Z</time>
      </trkpt>
      <trkpt lat="45.89393" lon="3.03249">
        <ele>452</ele>
        <time>2021-07-27T07:46:40Z</time>
      </trkpt>
      <trkpt lat="45.89393" lon="3.03251">
        <ele>452</ele>
        <time>2021-07-27T07:46:41Z</time>
      </trkpt>
      <trkpt lat="45.89393" lon="3.03253">
        <ele>452</ele>
        <time>2021-07-27T07:46:42Z</time>
      </trkpt>
      <trkpt lat="45.89393" lon="3.03255">
        <ele>452</ele>
        <time>2021-07-27T07:46:43Z</time>
      </trkpt>
      <trkpt lat="45.89393" lon="3.03257">
        <ele>452</ele>
        <time>2021-07-27T07:46:44Z</time>
      </trkpt>
      <trkpt lat="45.89394" lon="3.03259">
        <ele>452</ele>
        <time>2021-07-27T07:46:45Z</time>
      </trkpt>
      <trkpt lat="45.89394" lon="3.03261">
        <ele>452</ele>
        <time>2021-07-27T07:46:46Z</time>
      </trkpt>
      <trkpt lat="45.89394" lon="3.03263">
        <ele>452</ele>
        <time>2021-07-27T07:46:47Z</time>
      </trkpt>
      <trkpt lat="45.89394" lon="3.03265">
        <ele>452</ele>
        <time>2021-07-27T07:46:48Z</time>
      </trkpt>
      <trkpt lat="45.89394" lon="3.03267">
        <ele>452</ele>
        <time>2021-07-27T07:46:49Z</time>
      </trkpt>
      <trkpt lat="45.89395" lon="3.03269">
        <ele>452</ele>
        <time>2021-07-27T07:46:50Z</time>
      </trkpt>
      <trkpt lat="45.89395" lon="3.03271">
        <ele>452</ele>
        <time>2021-07-27T07:46:51Z</time>
      </trkpt>
      <trkpt lat="45.89396" lon="3.03274">
        <ele>452</ele>
        <time>2021-07-27T07:46:52Z</time>
      </trkpt>
      <trkpt lat="45.89396" lon="3.03276">
        <ele>452</ele>
        <time>2021-07-27T07:46:53Z</time>
      </trkpt>
      <trkpt lat="45.89396" lon="3.03278">
        <ele>452</ele>
        <time>2021-07-27T07:46:54Z</time>
      </trkpt>
      <trkpt lat="45.89396" lon="3.0328">
        <ele>452</ele>
        <time>2021-07-27T07:46:55Z</time>
      </trkpt>
      <trkpt lat="45.89397" lon="3.03282">
        <ele>452</ele>
        <time>2021-07-27T07:46:56Z</time>
      </trkpt>
      <trkpt lat="45.89397" lon="3.03284">
        <ele>452</ele>
        <time>2021-07-27T07:46:57Z</time>
      </trkpt>
      <trkpt lat="45.89397" lon="3.03285">
        <ele>452</ele>
        <time>2021-07-27T07:46:58Z</time>
      </trkpt>
      <trkpt lat="45.89396" lon="3.03287">
        <ele>452</ele>
        <time>2021-07-27T07:46:59Z</time>
      </trkpt>
      <trkpt lat="45.89396" lon="3.03289">
        <ele>452</ele>
        <time>2021-07-27T07:47:00Z</time>
      </trkpt>
      <trkpt lat="45.89396" lon="3.03292">
        <ele>452</ele>
        <time>2021-07-27T07:47:01Z</time>
      </trkpt>
      <trkpt lat="45.89396" lon="3.03294">
        <ele>452</ele>
        <time>2021-07-27T07:47:02Z</time>
      </trkpt>
      <trkpt lat="45.89396" lon="3.03296">
        <ele>452</ele>
        <time>2021-07-27T07:47:03Z</time>
      </trkpt>
      <trkpt lat="45.89396" lon="3.03298">
        <ele>452</ele>
        <time>2021-07-27T07:47:04Z</time>
      </trkpt>
      <trkpt lat="45.89397" lon="3.033">
        <ele>452</ele>
        <time>2021-07-27T07:47:05Z</time>
      </trkpt>
      <trkpt lat="45.89397" lon="3.03303">
        <ele>452</ele>
        <time>2021-07-27T07:47:06Z</time>
      </trkpt>
      <trkpt lat="45.89397" lon="3.03305">
        <ele>452</ele>
        <time>2021-07-27T07:47:07Z</time>
      </trkpt>
      <trkpt lat="45.89397" lon="3.03307">
        <ele>452</ele>
        <time>2021-07-27T07:47:08Z</time>
      </trkpt>
      <trkpt lat="45.89397" lon="3.03309">
        <ele>452</ele>
        <time>2021-07-27T07:47:09Z</time>
      </trkpt>
      <trkpt lat="45.89397" lon="3.03311">
        <ele>452</ele>
        <time>2021-07-27T07:47:10Z</time>
      </trkpt>
      <trkpt lat="45.89397" lon="3.03312">
        <ele>452</ele>
        <time>2021-07-27T07:47:11Z</time>
      </trkpt>
      <trkpt lat="45.89397" lon="3.03315">
        <ele>452</ele>
        <time>2021-07-27T07:47:12Z</time>
      </trkpt>
      <trkpt lat="45.89397" lon="3.03317">
        <ele>452</ele>
        <time>2021-07-27T07:47:13Z</time>
      </trkpt>
      <trkpt lat="45.89397" lon="3.03319">
        <ele>452</ele>
        <time>2021-07-27T07:47:14Z</time>
      </trkpt>
      <trkpt lat="45.89397" lon="3.0332">
        <ele>452</ele>
        <time>2021-07-27T07:47:15Z</time>
      </trkpt>
      <trkpt lat="45.89397" lon="3.03322">
        <ele>452</ele>
        <time>2021-07-27T07:47:16Z</time>
      </trkpt>
      <trkpt lat="45.89397" lon="3.03324">
        <ele>452</ele>
        <time>2021-07-27T07:47:17Z</time>
      </trkpt>
      <trkpt lat="45.89397" lon="3.03326">
        <ele>452</ele>
        <time>2021-07-27T07:47:18Z</time>
      </trkpt>
      <trkpt lat="45.89397" lon="3.03328">
        <ele>452</ele>
        <time>2021-07-27T07:47:19Z</time>
      </trkpt>
      <trkpt lat="45.89397" lon="3.0333">
        <ele>452</ele>
        <time>2021-07-27T07:47:20Z</time>
      </trkpt>
      <trkpt lat="45.89397" lon="3.03332">
        <ele>452</ele>
        <time>2021-07-27T07:47:21Z</time>
      </trkpt>
      <trkpt lat="45.89397" lon="3.03334">
        <ele>452</ele>
        <time>2021-07-27T07:47:22Z</time>
      </trkpt>
      <trkpt lat="45.89397" lon="3.03336">
        <ele>452</ele>
        <time>2021-07-27T07:47:23Z</time>
      </trkpt>
      <trkpt lat="45.89397" lon="3.03338">
        <ele>452</ele>
        <time>2021-07-27T07:47:24Z</time>
      </trkpt>
      <trkpt lat="45.89397" lon="3.0334">
        <ele>452</ele>
        <time>2021-07-27T07:47:25Z</time>
      </trkpt>
      <trkpt lat="45.89397" lon="3.03342">
        <ele>452</ele>
        <time>2021-07-27T07:47:26Z</time>
      </trkpt>
      <trkpt lat="45.89397" lon="3.03344">
        <ele>452</ele>
        <time>2021-07-27T07:47:27Z</time>
      </trkpt>
      <trkpt lat="45.89397" lon="3.03346">
        <ele>452</ele>
        <time>2021-07-27T07:47:28Z</time>
      </trkpt>
      <trkpt lat="45.89397" lon="3.03348">
        <ele>452</ele>
        <time>2021-07-27T07:47:29Z</time>
      </trkpt>
      <trkpt lat="45.89397" lon="3.0335">
        <ele>452</ele>
        <time>2021-07-27T07:47:30Z</time>
      </trkpt>
      <trkpt lat="45.89397" lon="3.03352">
        <ele>452</ele>
        <time>2021-07-27T07:47:31Z</time>
      </trkpt>
      <trkpt lat="45.89397" lon="3.03354">
        <ele>452</ele>
        <time>2021-07-27T07:47:32Z</time>
      </trkpt>
      <trkpt lat="45.89397" lon="3.03356">
        <ele>452</ele>
        <time>2021-07-27T07:47:33Z</time>
      </trkpt>
      <trkpt lat="45.89397" lon="3.03358">
        <ele>452</ele>
        <time>2021-07-27T07:47:34Z</time>
      </trkpt>
      <trkpt lat="45.89397" lon="3.0336">
        <ele>452</ele>
        <time>2021-07-27T07:47:36Z</time>
      </trkpt>
      <trkpt lat="45.89396" lon="3.03369">
        <ele>452</ele>
        <time>2021-07-27T07:47:37Z</time>
      </trkpt>
      <trkpt lat="45.89396" lon="3.03369">
        <ele>452</ele>
        <time>2021-07-27T07:47:38Z</time>
      </trkpt>
      <trkpt lat="45.89396" lon="3.0337">
        <ele>452</ele>
        <time>2021-07-27T07:47:39Z</time>
      </trkpt>
      <trkpt lat="45.89395" lon="3.03372">
        <ele>452</ele>
        <time>2021-07-27T07:47:40Z</time>
      </trkpt>
      <trkpt lat="45.89394" lon="3.03374">
        <ele>452</ele>
        <time>2021-07-27T07:47:41Z</time>
      </trkpt>
      <trkpt lat="45.89394" lon="3.03376">
        <ele>452</ele>
        <time>2021-07-27T07:47:42Z</time>
      </trkpt>
      <trkpt lat="45.89394" lon="3.03378">
        <ele>452</ele>
        <time>2021-07-27T07:47:43Z</time>
      </trkpt>
      <trkpt lat="45.89393" lon="3.0338">
        <ele>452</ele>
        <time>2021-07-27T07:47:44Z</time>
      </trkpt>
      <trkpt lat="45.89393" lon="3.03382">
        <ele>452</ele>
        <time>2021-07-27T07:47:45Z</time>
      </trkpt>
      <trkpt lat="45.89393" lon="3.03384">
        <ele>452</ele>
        <time>2021-07-27T07:47:46Z</time>
      </trkpt>
      <trkpt lat="45.89393" lon="3.03387">
        <ele>452</ele>
        <time>2021-07-27T07:47:47Z</time>
      </trkpt>
      <trkpt lat="45.89392" lon="3.03389">
        <ele>452</ele>
        <time>2021-07-27T07:47:48Z</time>
      </trkpt>
      <trkpt lat="45.89391" lon="3.03391">
        <ele>452</ele>
        <time>2021-07-27T07:47:49Z</time>
      </trkpt>
      <trkpt lat="45.89391" lon="3.03393">
        <ele>452</ele>
        <time>2021-07-27T07:47:50Z</time>
      </trkpt>
      <trkpt lat="45.89391" lon="3.03395">
        <ele>452</ele>
        <time>2021-07-27T07:47:51Z</time>
      </trkpt>
      <trkpt lat="45.8939" lon="3.03397">
        <ele>452</ele>
        <time>2021-07-27T07:47:52Z</time>
      </trkpt>
      <trkpt lat="45.8939" lon="3.034">
        <ele>452</ele>
        <time>2021-07-27T07:47:53Z</time>
      </trkpt>
      <trkpt lat="45.89389" lon="3.03402">
        <ele>452</ele>
        <time>2021-07-27T07:47:54Z</time>
      </trkpt>
      <trkpt lat="45.89389" lon="3.03404">
        <ele>452</ele>
        <time>2021-07-27T07:47:55Z</time>
      </trkpt>
      <trkpt lat="45.89389" lon="3.03405">
        <ele>452</ele>
        <time>2021-07-27T07:47:56Z</time>
      </trkpt>
      <trkpt lat="45.89388" lon="3.03407">
        <ele>452</ele>
        <time>2021-07-27T07:47:57Z</time>
      </trkpt>
      <trkpt lat="45.89388" lon="3.03409">
        <ele>452</ele>
        <time>2021-07-27T07:47:58Z</time>
      </trkpt>
      <trkpt lat="45.89388" lon="3.03411">
        <ele>452</ele>
        <time>2021-07-27T07:47:59Z</time>
      </trkpt>
      <trkpt lat="45.89389" lon="3.03412">
        <ele>452</ele>
        <time>2021-07-27T07:48:00Z</time>
      </trkpt>
      <trkpt lat="45.89389" lon="3.03412">
        <ele>452</ele>
        <time>2021-07-27T07:48:01Z</time>
      </trkpt>
      <trkpt lat="45.8939" lon="3.03413">
        <ele>452</ele>
        <time>2021-07-27T07:48:02Z</time>
      </trkpt>
      <trkpt lat="45.89391" lon="3.03413">
        <ele>452</ele>
        <time>2021-07-27T07:48:03Z</time>
      </trkpt>
      <trkpt lat="45.89393" lon="3.03414">
        <ele>452</ele>
        <time>2021-07-27T07:48:04Z</time>
      </trkpt>
      <trkpt lat="45.89394" lon="3.03414">
        <ele>452</ele>
        <time>2021-07-27T07:48:05Z</time>
      </trkpt>
      <trkpt lat="45.89395" lon="3.03414">
        <ele>452</ele>
        <time>2021-07-27T07:48:06Z</time>
      </trkpt>
      <trkpt lat="45.89397" lon="3.03414">
        <ele>452</ele>
        <time>2021-07-27T07:48:07Z</time>
      </trkpt>
      <trkpt lat="45.89397" lon="3.03414">
        <ele>452</ele>
        <time>2021-07-27T07:48:08Z</time>
      </trkpt>
      <trkpt lat="45.89399" lon="3.03414">
        <ele>452</ele>
        <time>2021-07-27T07:48:09Z</time>
      </trkpt>
      <trkpt lat="45.89401" lon="3.03413">
        <ele>452</ele>
        <time>2021-07-27T07:48:10Z</time>
      </trkpt>
      <trkpt lat="45.89402" lon="3.03413">
        <ele>452</ele>
        <time>2021-07-27T07:48:11Z</time>
      </trkpt>
      <trkpt lat="45.89404" lon="3.03413">
        <ele>452</ele>
        <time>2021-07-27T07:48:12Z</time>
      </trkpt>
      <trkpt lat="45.89405" lon="3.03413">
        <ele>452</ele>
        <time>2021-07-27T07:48:13Z</time>
      </trkpt>
      <trkpt lat="45.89407" lon="3.03413">
        <ele>452</ele>
        <time>2021-07-27T07:48:14Z</time>
      </trkpt>
      <trkpt lat="45.89408" lon="3.03412">
        <ele>452</ele>
        <time>2021-07-27T07:48:15Z</time>
      </trkpt>
      <trkpt lat="45.8941" lon="3.03412">
        <ele>452</ele>
        <time>2021-07-27T07:48:16Z</time>
      </trkpt>
      <trkpt lat="45.89411" lon="3.03412">
        <ele>452</ele>
        <time>2021-07-27T07:48:17Z</time>
      </trkpt>
      <trkpt lat="45.89413" lon="3.03412">
        <ele>452</ele>
        <time>2021-07-27T07:48:18Z</time>
      </trkpt>
      <trkpt lat="45.89414" lon="3.03412">
        <ele>452</ele>
        <time>2021-07-27T07:48:19Z</time>
      </trkpt>
      <trkpt lat="45.89415" lon="3.03412">
        <ele>452</ele>
        <time>2021-07-27T07:48:20Z</time>
      </trkpt>
      <trkpt lat="45.89417" lon="3.03412">
        <ele>452</ele>
        <time>2021-07-27T07:48:21Z</time>
      </trkpt>
      <trkpt lat="45.89418" lon="3.03412">
        <ele>452</ele>
        <time>2021-07-27T07:48:22Z</time>
      </trkpt>
      <trkpt lat="45.8942" lon="3.03411">
        <ele>452</ele>
        <time>2021-07-27T07:48:23Z</time>
      </trkpt>
      <trkpt lat="45.89421" lon="3.03411">
        <ele>452</ele>
        <time>2021-07-27T07:48:24Z</time>
      </trkpt>
      <trkpt lat="45.89422" lon="3.03411">
        <ele>452</ele>
        <time>2021-07-27T07:48:25Z</time>
      </trkpt>
      <trkpt lat="45.89424" lon="3.03411">
        <ele>452</ele>
        <time>2021-07-27T07:48:26Z</time>
      </trkpt>
      <trkpt lat="45.89425" lon="3.03411">
        <ele>452</ele>
        <time>2021-07-27T07:48:27Z</time>
      </trkpt>
      <trkpt lat="45.89426" lon="3.03411">
        <ele>452</ele>
        <time>2021-07-27T07:48:28Z</time>
      </trkpt>
      <trkpt lat="45.89427" lon="3.03411">
        <ele>452</ele>
        <time>2021-07-27T07:48:29Z</time>
      </trkpt>
      <trkpt lat="45.89429" lon="3.03412">
        <ele>452</ele>
        <time>2021-07-27T07:48:30Z</time>
      </trkpt>
      <trkpt lat="45.8943" lon="3.03411">
        <ele>452</ele>
        <time>2021-07-27T07:48:31Z</time>
      </trkpt>
      <trkpt lat="45.89432" lon="3.03411">
        <ele>452</ele>
        <time>2021-07-27T07:48:32Z</time>
      </trkpt>
      <trkpt lat="45.89433" lon="3.03411">
        <ele>452</ele>
        <time>2021-07-27T07:48:33Z</time>
      </trkpt>
      <trkpt lat="45.89434" lon="3.03411">
        <ele>452</ele>
        <time>2021-07-27T07:48:34Z</time>
      </trkpt>
      <trkpt lat="45.89436" lon="3.03411">
        <ele>452</ele>
        <time>2021-07-27T07:48:36Z</time>
      </trkpt>
      <trkpt lat="45.89441" lon="3.03409">
        <ele>452</ele>
        <time>2021-07-27T07:48:37Z</time>
      </trkpt>
      <trkpt lat="45.89441" lon="3.03409">
        <ele>452</ele>
        <time>2021-07-27T07:48:38Z</time>
      </trkpt>
      <trkpt lat="45.89442" lon="3.03409">
        <ele>452</ele>
        <time>2021-07-27T07:48:39Z</time>
      </trkpt>
      <trkpt lat="45.89442" lon="3.03409">
        <ele>452</ele>
        <time>2021-07-27T07:48:40Z</time>
      </trkpt>
      <trkpt lat="45.89443" lon="3.03408">
        <ele>452</ele>
        <time>2021-07-27T07:48:41Z</time>
      </trkpt>
      <trkpt lat="45.89444" lon="3.03408">
        <ele>452</ele>
        <time>2021-07-27T07:48:42Z</time>
      </trkpt>
      <trkpt lat="45.89445" lon="3.03407">
        <ele>452</ele>
        <time>2021-07-27T07:48:43Z</time>
      </trkpt>
      <trkpt lat="45.89447" lon="3.03407">
        <ele>452</ele>
        <time>2021-07-27T07:48:44Z</time>
      </trkpt>
      <trkpt lat="45.89448" lon="3.03407">
        <ele>452</ele>
        <time>2021-07-27T07:48:45Z</time>
      </trkpt>
      <trkpt lat="45.89449" lon="3.03407">
        <ele>452</ele>
        <time>2021-07-27T07:48:46Z</time>
      </trkpt>
      <trkpt lat="45.8945" lon="3.03406">
        <ele>452</ele>
        <time>2021-07-27T07:48:47Z</time>
      </trkpt>
      <trkpt lat="45.89451" lon="3.03406">
        <ele>452</ele>
        <time>2021-07-27T07:48:48Z</time>
      </trkpt>
      <trkpt lat="45.89453" lon="3.03406">
        <ele>452</ele>
        <time>2021-07-27T07:48:49Z</time>
      </trkpt>
      <trkpt lat="45.89454" lon="3.03406">
        <ele>452</ele>
        <time>2021-07-27T07:48:50Z</time>
      </trkpt>
      <trkpt lat="45.89455" lon="3.03405">
        <ele>452</ele>
        <time>2021-07-27T07:48:51Z</time>
      </trkpt>
      <trkpt lat="45.89457" lon="3.03405">
        <ele>452</ele>
        <time>2021-07-27T07:48:52Z</time>
      </trkpt>
      <trkpt lat="45.89458" lon="3.03405">
        <ele>452</ele>
        <time>2021-07-27T07:48:53Z</time>
      </trkpt>
      <trkpt lat="45.8946" lon="3.03404">
        <ele>452</ele>
        <time>2021-07-27T07:48:54Z</time>
      </trkpt>
      <trkpt lat="45.89462" lon="3.03404">
        <ele>452</ele>
        <time>2021-07-27T07:48:55Z</time>
      </trkpt>
      <trkpt lat="45.89463" lon="3.03404">
        <ele>452</ele>
        <time>2021-07-27T07:48:56Z</time>
      </trkpt>
      <trkpt lat="45.89464" lon="3.03404">
        <ele>452</ele>
        <time>2021-07-27T07:48:57Z</time>
      </trkpt>
      <trkpt lat="45.89466" lon="3.03403">
        <ele>452</ele>
        <time>2021-07-27T07:48:58Z</time>
      </trkpt>
      <trkpt lat="45.89467" lon="3.03403">
        <ele>452</ele>
        <time>2021-07-27T07:48:59Z</time>
      </trkpt>
      <trkpt lat="45.89468" lon="3.03402">
        <ele>452</ele>
        <time>2021-07-27T07:49:00Z</time>
      </trkpt>
      <trkpt lat="45.8947" lon="3.03402">
        <ele>452</ele>
        <time>2021-07-27T07:49:01Z</time>
      </trkpt>
      <trkpt lat="45.89471" lon="3.03402">
        <ele>452</ele>
        <time>2021-07-27T07:49:02Z</time>
      </trkpt>
      <trkpt lat="45.89473" lon="3.03402">
        <ele>452</ele>
        <time>2021-07-27T07:49:03Z</time>
      </trkpt>
      <trkpt lat="45.89474" lon="3.03402">
        <ele>452</ele>
        <time>2021-07-27T07:49:04Z</time>
      </trkpt>
      <trkpt lat="45.89475" lon="3.03402">
        <ele>452</ele>
        <time>2021-07-27T07:49:05Z</time>
      </trkpt>
      <trkpt lat="45.89478" lon="3.03401">
        <ele>452</ele>
        <time>2021-07-27T07:49:06Z</time>
      </trkpt>
      <trkpt lat="45.89479" lon="3.03401">
        <ele>452</ele>
        <time>2021-07-27T07:49:07Z</time>
      </trkpt>
      <trkpt lat="45.89481" lon="3.03401">
        <ele>452</ele>
        <time>2021-07-27T07:49:08Z</time>
      </trkpt>
      <trkpt lat="45.89482" lon="3.03401">
        <ele>452</ele>
        <time>2021-07-27T07:49:09Z</time>
      </trkpt>
      <trkpt lat="45.89484" lon="3.03401">
        <ele>452</ele>
        <time>2021-07-27T07:49:10Z</time>
      </trkpt>
      <trkpt lat="45.89485" lon="3.03401">
        <ele>452</ele>
        <time>2021-07-27T07:49:11Z</time>
      </trkpt>
      <trkpt lat="45.89487" lon="3.03401">
        <ele>452</ele>
        <time>2021-07-27T07:49:12Z</time>
      </trkpt>
      <trkpt lat="45.89488" lon="3.03401">
        <ele>452</ele>
        <time>2021-07-27T07:49:13Z</time>
      </trkpt>
      <trkpt lat="45.8949" lon="3.03401">
        <ele>452</ele>
        <time>2021-07-27T07:49:14Z</time>
      </trkpt>
      <trkpt lat="45.89491" lon="3.03401">
        <ele>452</ele>
        <time>2021-07-27T07:49:15Z</time>
      </trkpt>
      <trkpt lat="45.89493" lon="3.03401">
        <ele>452</ele>
        <time>2021-07-27T07:49:16Z</time>
      </trkpt>
      <trkpt lat="45.89494" lon="3.03401">
        <ele>452</ele>
        <time>2021-07-27T07:49:17Z</time>
      </trkpt>
      <trkpt lat="45.89496" lon="3.03401">
        <ele>452</ele>
        <time>2021-07-27T07:49:17Z</time>
      </trkpt>
      <trkpt lat="45.89496" lon="3.03401">
        <ele>452</ele>
        <time>2021-07-27T07:49:18Z</time>
      </trkpt>
      <trkpt lat="45.89498" lon="3.03401">
        <ele>452</ele>
        <time>2021-07-27T07:49:19Z</time>
      </trkpt>
      <trkpt lat="45.89499" lon="3.03402">
        <ele>452</ele>
        <time>2021-07-27T07:49:20Z</time>
      </trkpt>
      <trkpt lat="45.895" lon="3.03403">
        <ele>452</ele>
        <time>2021-07-27T07:49:21Z</time>
      </trkpt>
      <trkpt lat="45.89502" lon="3.03403">
        <ele>452</ele>
        <time>2021-07-27T07:49:22Z</time>
      </trkpt>
      <trkpt lat="45.89504" lon="3.03404">
        <ele>452</ele>
        <time>2021-07-27T07:49:23Z</time>
      </trkpt>
      <trkpt lat="45.89505" lon="3.03404">
        <ele>452</ele>
        <time>2021-07-27T07:49:24Z</time>
      </trkpt>
      <trkpt lat="45.89507" lon="3.03404">
        <ele>452</ele>
        <time>2021-07-27T07:49:25Z</time>
      </trkpt>
      <trkpt lat="45.89508" lon="3.03404">
        <ele>452</ele>
        <time>2021-07-27T07:49:26Z</time>
      </trkpt>
      <trkpt lat="45.8951" lon="3.03404">
        <ele>452</ele>
        <time>2021-07-27T07:49:27Z</time>
      </trkpt>
      <trkpt lat="45.89511" lon="3.03404">
        <ele>452</ele>
        <time>2021-07-27T07:49:28Z</time>
      </trkpt>
      <trkpt lat="45.89513" lon="3.03405">
        <ele>452</ele>
        <time>2021-07-27T07:49:29Z</time>
      </trkpt>
      <trkpt lat="45.89514" lon="3.03405">
        <ele>452</ele>
        <time>2021-07-27T07:49:30Z</time>
      </trkpt>
      <trkpt lat="45.89515" lon="3.03405">
        <ele>452</ele>
        <time>2021-07-27T07:49:31Z</time>
      </trkpt>
      <trkpt lat="45.89517" lon="3.03405">
        <ele>452</ele>
        <time>2021-07-27T07:49:32Z</time>
      </trkpt>
      <trkpt lat="45.89518" lon="3.03406">
        <ele>452</ele>
        <time>2021-07-27T07:49:33Z</time>
      </trkpt>
      <trkpt lat="45.8952" lon="3.03407">
        <ele>452</ele>
        <time>2021-07-27T07:49:34Z</time>
      </trkpt>
      <trkpt lat="45.8952" lon="3.03408">
        <ele>452</ele>
        <time>2021-07-27T07:49:36Z</time>
      </trkpt>
      <trkpt lat="45.89524" lon="3.03413">
        <ele>452</ele>
        <time>2021-07-27T07:49:37Z</time>
      </trkpt>
      <trkpt lat="45.89525" lon="3.03414">
        <ele>452</ele>
        <time>2021-07-27T07:49:38Z</time>
      </trkpt>
      <trkpt lat="45.89525" lon="3.03414">
        <ele>452</ele>
        <time>2021-07-27T07:49:39Z</time>
      </trkpt>
      <trkpt lat="45.89526" lon="3.03415">
        <ele>452</ele>
        <time>2021-07-27T07:49:40Z</time>
      </trkpt>
      <trkpt lat="45.89526" lon="3.03416">
        <ele>452</ele>
        <time>2021-07-27T07:49:41Z</time>
      </trkpt>
      <trkpt lat="45.89527" lon="3.03417">
        <ele>452</ele>
        <time>2021-07-27T07:49:42Z</time>
      </trkpt>
      <trkpt lat="45.89528" lon="3.03419">
        <ele>452</ele>
        <time>2021-07-27T07:49:43Z</time>
      </trkpt>
      <trkpt lat="45.89529" lon="3.0342">
        <ele>452</ele>
        <time>2021-07-27T07:49:44Z</time>
      </trkpt>
      <trkpt lat="45.89529" lon="3.03421">
        <ele>452</ele>
        <time>2021-07-27T07:49:45Z</time>
      </trkpt>
      <trkpt lat="45.8953" lon="3.03423">
        <ele>452</ele>
        <time>2021-07-27T07:49:46Z</time>
      </trkpt>
      <trkpt lat="45.89531" lon="3.03424">
        <ele>452</ele>
        <time>2021-07-27T07:49:47Z</time>
      </trkpt>
      <trkpt lat="45.89532" lon="3.03426">
        <ele>452</ele>
        <time>2021-07-27T07:49:48Z</time>
      </trkpt>
      <trkpt lat="45.89533" lon="3.03427">
        <ele>452</ele>
        <time>2021-07-27T07:49:49Z</time>
      </trkpt>
      <trkpt lat="45.89534" lon="3.03428">
        <ele>452</ele>
        <time>2021-07-27T07:49:50Z</time>
      </trkpt>
      <trkpt lat="45.89535" lon="3.0343">
        <ele>452</ele>
        <time>2021-07-27T07:49:51Z</time>
      </trkpt>
      <trkpt lat="45.89536" lon="3.03431">
        <ele>452</ele>
        <time>2021-07-27T07:49:52Z</time>
      </trkpt>
      <trkpt lat="45.89537" lon="3.03433">
        <ele>452</ele>
        <time>2021-07-27T07:49:53Z</time>
      </trkpt>
      <trkpt lat="45.89537" lon="3.03434">
        <ele>452</ele>
        <time>2021-07-27T07:49:54Z</time>
      </trkpt>
      <trkpt lat="45.89538" lon="3.03436">
        <ele>452</ele>
        <time>2021-07-27T07:49:55Z</time>
      </trkpt>
      <trkpt lat="45.89539" lon="3.03437">
        <ele>452</ele>
        <time>2021-07-27T07:49:56Z</time>
      </trkpt>
      <trkpt lat="45.89541" lon="3.03439">
        <ele>452</ele>
        <time>2021-07-27T07:49:57Z</time>
      </trkpt>
      <trkpt lat="45.89541" lon="3.0344">
        <ele>452</ele>
        <time>2021-07-27T07:49:58Z</time>
      </trkpt>
      <trkpt lat="45.89542" lon="3.03442">
        <ele>452</ele>
        <time>2021-07-27T07:49:59Z</time>
      </trkpt>
      <trkpt lat="45.89543" lon="3.03443">
        <ele>452</ele>
        <time>2021-07-27T07:50:00Z</time>
      </trkpt>
      <trkpt lat="45.89544" lon="3.03445">
        <ele>452</ele>
        <time>2021-07-27T07:50:01Z</time>
      </trkpt>
      <trkpt lat="45.89544" lon="3.03446">
        <ele>452</ele>
        <time>2021-07-27T07:50:02Z</time>
      </trkpt>
      <trkpt lat="45.89545" lon="3.03447">
        <ele>452</ele>
        <time>2021-07-27T07:50:03Z</time>
      </trkpt>
      <trkpt lat="45.89546" lon="3.03449">
        <ele>452</ele>
        <time>2021-07-27T07:50:04Z</time>
      </trkpt>
      <trkpt lat="45.89547" lon="3.0345">
        <ele>452</ele>
        <time>2021-07-27T07:50:05Z</time>
      </trkpt>
      <trkpt lat="45.89548" lon="3.03451">
        <ele>452</ele>
        <time>2021-07-27T07:50:06Z</time>
      </trkpt>
      <trkpt lat="45.89549" lon="3.03453">
        <ele>452</ele>
        <time>2021-07-27T07:50:07Z</time>
      </trkpt>
      <trkpt lat="45.89551" lon="3.03454">
        <ele>452</ele>
        <time>2021-07-27T07:50:08Z</time>
      </trkpt>
      <trkpt lat="45.89552" lon="3.03456">
        <ele>452</ele>
        <time>2021-07-27T07:50:09Z</time>
      </trkpt>
      <trkpt lat="45.89554" lon="3.03457">
        <ele>452</ele>
        <time>2021-07-27T07:50:10Z</time>
      </trkpt>
      <trkpt lat="45.89555" lon="3.03459">
        <ele>452</ele>
        <time>2021-07-27T07:50:11Z</time>
      </trkpt>
      <trkpt lat="45.89556" lon="3.0346">
        <ele>452</ele>
        <time>2021-07-27T07:50:12Z</time>
      </trkpt>
      <trkpt lat="45.89557" lon="3.03462">
        <ele>452</ele>
        <time>2021-07-27T07:50:13Z</time>
      </trkpt>
      <trkpt lat="45.89558" lon="3.03464">
        <ele>452</ele>
        <time>2021-07-27T07:50:14Z</time>
      </trkpt>
      <trkpt lat="45.89559" lon="3.03466">
        <ele>452</ele>
        <time>2021-07-27T07:50:15Z</time>
      </trkpt>
      <trkpt lat="45.89559" lon="3.03468">
        <ele>452</ele>
        <time>2021-07-27T07:50:16Z</time>
      </trkpt>
      <trkpt lat="45.8956" lon="3.03469">
        <ele>452</ele>
        <time>2021-07-27T07:50:17Z</time>
      </trkpt>
      <trkpt lat="45.89562" lon="3.03471">
        <ele>452</ele>
        <time>2021-07-27T07:50:18Z</time>
      </trkpt>
      <trkpt lat="45.89562" lon="3.03473">
        <ele>452</ele>
        <time>2021-07-27T07:50:19Z</time>
      </trkpt>
      <trkpt lat="45.89563" lon="3.03475">
        <ele>452</ele>
        <time>2021-07-27T07:50:20Z</time>
      </trkpt>
      <trkpt lat="45.89564" lon="3.03476">
        <ele>452</ele>
        <time>2021-07-27T07:50:21Z</time>
      </trkpt>
      <trkpt lat="45.89565" lon="3.03478">
        <ele>452</ele>
        <time>2021-07-27T07:50:22Z</time>
      </trkpt>
      <trkpt lat="45.89566" lon="3.03479">
        <ele>452</ele>
        <time>2021-07-27T07:50:23Z</time>
      </trkpt>
      <trkpt lat="45.89567" lon="3.03481">
        <ele>452</ele>
        <time>2021-07-27T07:50:24Z</time>
      </trkpt>
      <trkpt lat="45.89568" lon="3.03483">
        <ele>452</ele>
        <time>2021-07-27T07:50:25Z</time>
      </trkpt>
      <trkpt lat="45.89568" lon="3.03485">
        <ele>452</ele>
        <time>2021-07-27T07:50:26Z</time>
      </trkpt>
      <trkpt lat="45.8957" lon="3.03486">
        <ele>452</ele>
        <time>2021-07-27T07:50:27Z</time>
      </trkpt>
      <trkpt lat="45.8957" lon="3.03488">
        <ele>452</ele>
        <time>2021-07-27T07:50:28Z</time>
      </trkpt>
      <trkpt lat="45.89571" lon="3.0349">
        <ele>452</ele>
        <time>2021-07-27T07:50:29Z</time>
      </trkpt>
      <trkpt lat="45.89572" lon="3.03492">
        <ele>452</ele>
        <time>2021-07-27T07:50:30Z</time>
      </trkpt>
      <trkpt lat="45.89572" lon="3.03493">
        <ele>452</ele>
        <time>2021-07-27T07:50:31Z</time>
      </trkpt>
      <trkpt lat="45.89573" lon="3.03495">
        <ele>452</ele>
        <time>2021-07-27T07:50:32Z</time>
      </trkpt>
      <trkpt lat="45.89574" lon="3.03496">
        <ele>452</ele>
        <time>2021-07-27T07:50:33Z</time>
      </trkpt>
      <trkpt lat="45.89574" lon="3.03498">
        <ele>452</ele>
        <time>2021-07-27T07:50:35Z</time>
      </trkpt>
      <trkpt lat="45.89577" lon="3.03505">
        <ele>452</ele>
        <time>2021-07-27T07:50:36Z</time>
      </trkpt>
      <trkpt lat="45.89577" lon="3.03505">
        <ele>452</ele>
        <time>2021-07-27T07:50:37Z</time>
      </trkpt>
      <trkpt lat="45.89578" lon="3.03506">
        <ele>452</ele>
        <time>2021-07-27T07:50:38Z</time>
      </trkpt>
      <trkpt lat="45.89578" lon="3.03508">
        <ele>452</ele>
        <time>2021-07-27T07:50:39Z</time>
      </trkpt>
      <trkpt lat="45.89579" lon="3.03509">
        <ele>452</ele>
        <time>2021-07-27T07:50:40Z</time>
      </trkpt>
      <trkpt lat="45.89579" lon="3.03511">
        <ele>452</ele>
        <time>2021-07-27T07:50:41Z</time>
      </trkpt>
      <trkpt lat="45.89579" lon="3.03513">
        <ele>452</ele>
        <time>2021-07-27T07:50:42Z</time>
      </trkpt>
      <trkpt lat="45.8958" lon="3.03515">
        <ele>452</ele>
        <time>2021-07-27T07:50:43Z</time>
      </trkpt>
      <trkpt lat="45.8958" lon="3.03517">
        <ele>452</ele>
        <time>2021-07-27T07:50:44Z</time>
      </trkpt>
      <trkpt lat="45.8958" lon="3.03519">
        <ele>452</ele>
        <time>2021-07-27T07:50:45Z</time>
      </trkpt>
      <trkpt lat="45.89579" lon="3.03522">
        <ele>452</ele>
        <time>2021-07-27T07:50:46Z</time>
      </trkpt>
      <trkpt lat="45.89579" lon="3.03524">
        <ele>452</ele>
        <time>2021-07-27T07:50:47Z</time>
      </trkpt>
      <trkpt lat="45.89579" lon="3.03526">
        <ele>452</ele>
        <time>2021-07-27T07:50:48Z</time>
      </trkpt>
      <trkpt lat="45.8958" lon="3.03528">
        <ele>452</ele>
        <time>2021-07-27T07:50:49Z</time>
      </trkpt>
      <trkpt lat="45.8958" lon="3.0353">
        <ele>452</ele>
        <time>2021-07-27T07:50:50Z</time>
      </trkpt>
      <trkpt lat="45.8958" lon="3.03532">
        <ele>452</ele>
        <time>2021-07-27T07:50:51Z</time>
      </trkpt>
      <trkpt lat="45.8958" lon="3.03534">
        <ele>452</ele>
        <time>2021-07-27T07:50:52Z</time>
      </trkpt>
      <trkpt lat="45.89581" lon="3.03536">
        <ele>452</ele>
        <time>2021-07-27T07:50:53Z</time>
      </trkpt>
      <trkpt lat="45.89581" lon="3.03538">
        <ele>452</ele>
        <time>2021-07-27T07:50:54Z</time>
      </trkpt>
      <trkpt lat="45.89582" lon="3.0354">
        <ele>452</ele>
        <time>2021-07-27T07:50:55Z</time>
      </trkpt>
      <trkpt lat="45.89582" lon="3.03542">
        <ele>452</ele>
        <time>2021-07-27T07:50:56Z</time>
      </trkpt>
      <trkpt lat="45.89583" lon="3.03544">
        <ele>452</ele>
        <time>2021-07-27T07:50:57Z</time>
      </trkpt>
      <trkpt lat="45.89584" lon="3.03547">
        <ele>452</ele>
        <time>2021-07-27T07:50:58Z</time>
      </trkpt>
      <trkpt lat="45.89584" lon="3.03549">
        <ele>452</ele>
        <time>2021-07-27T07:50:59Z</time>
      </trkpt>
      <trkpt lat="45.89585" lon="3.03551">
        <ele>452</ele>
        <time>2021-07-27T07:51:00Z</time>
      </trkpt>
      <trkpt lat="45.89586" lon="3.03553">
        <ele>452</ele>
        <time>2021-07-27T07:51:01Z</time>
      </trkpt>
      <trkpt lat="45.89586" lon="3.03555">
        <ele>452</ele>
        <time>2021-07-27T07:51:02Z</time>
      </trkpt>
      <trkpt lat="45.89587" lon="3.03557">
        <ele>452</ele>
        <time>2021-07-27T07:51:03Z</time>
      </trkpt>
      <trkpt lat="45.89587" lon="3.03558">
        <ele>452</ele>
        <time>2021-07-27T07:51:04Z</time>
      </trkpt>
      <trkpt lat="45.89587" lon="3.0356">
        <ele>452</ele>
        <time>2021-07-27T07:51:05Z</time>
      </trkpt>
      <trkpt lat="45.89588" lon="3.03562">
        <ele>452</ele>
        <time>2021-07-27T07:51:06Z</time>
      </trkpt>
      <trkpt lat="45.89588" lon="3.03564">
        <ele>452</ele>
        <time>2021-07-27T07:51:07Z</time>
      </trkpt>
      <trkpt lat="45.89589" lon="3.03565">
        <ele>452</ele>
        <time>2021-07-27T07:51:08Z</time>
      </trkpt>
      <trkpt lat="45.8959" lon="3.03567">
        <ele>452</ele>
        <time>2021-07-27T07:51:09Z</time>
      </trkpt>
      <trkpt lat="45.89591" lon="3.03569">
        <ele>452</ele>
        <time>2021-07-27T07:51:10Z</time>
      </trkpt>
      <trkpt lat="45.89592" lon="3.0357">
        <ele>452</ele>
        <time>2021-07-27T07:51:11Z</time>
      </trkpt>
      <trkpt lat="45.89593" lon="3.03572">
        <ele>452</ele>
        <time>2021-07-27T07:51:12Z</time>
      </trkpt>
      <trkpt lat="45.89594" lon="3.03574">
        <ele>452</ele>
        <time>2021-07-27T07:51:13Z</time>
      </trkpt>
      <trkpt lat="45.89595" lon="3.03576">
        <ele>452</ele>
        <time>2021-07-27T07:51:14Z</time>
      </trkpt>
      <trkpt lat="45.89596" lon="3.03578">
        <ele>452</ele>
        <time>2021-07-27T07:51:15Z</time>
      </trkpt>
      <trkpt lat="45.89597" lon="3.0358">
        <ele>452</ele>
        <time>2021-07-27T07:51:16Z</time>
      </trkpt>
      <trkpt lat="45.89598" lon="3.03582">
        <ele>452</ele>
        <time>2021-07-27T07:51:17Z</time>
      </trkpt>
      <trkpt lat="45.89599" lon="3.03584">
        <ele>452</ele>
        <time>2021-07-27T07:51:18Z</time>
      </trkpt>
      <trkpt lat="45.896" lon="3.03586">
        <ele>452</ele>
        <time>2021-07-27T07:51:19Z</time>
      </trkpt>
      <trkpt lat="45.89601" lon="3.03588">
        <ele>452</ele>
        <time>2021-07-27T07:51:20Z</time>
      </trkpt>
      <trkpt lat="45.89602" lon="3.0359">
        <ele>452</ele>
        <time>2021-07-27T07:51:21Z</time>
      </trkpt>
      <trkpt lat="45.89603" lon="3.03592">
        <ele>452</ele>
        <time>2021-07-27T07:51:22Z</time>
      </trkpt>
      <trkpt lat="45.89603" lon="3.03594">
        <ele>452</ele>
        <time>2021-07-27T07:51:23Z</time>
      </trkpt>
      <trkpt lat="45.89604" lon="3.03596">
        <ele>452</ele>
        <time>2021-07-27T07:51:24Z</time>
      </trkpt>
      <trkpt lat="45.89605" lon="3.03598">
        <ele>452</ele>
        <time>2021-07-27T07:51:25Z</time>
      </trkpt>
      <trkpt lat="45.89605" lon="3.03599">
        <ele>452</ele>
        <time>2021-07-27T07:51:26Z</time>
      </trkpt>
      <trkpt lat="45.89607" lon="3.03601">
        <ele>452</ele>
        <time>2021-07-27T07:51:27Z</time>
      </trkpt>
      <trkpt lat="45.89607" lon="3.03603">
        <ele>452</ele>
        <time>2021-07-27T07:51:28Z</time>
      </trkpt>
      <trkpt lat="45.89608" lon="3.03605">
        <ele>452</ele>
        <time>2021-07-27T07:51:29Z</time>
      </trkpt>
      <trkpt lat="45.89608" lon="3.03607">
        <ele>452</ele>
        <time>2021-07-27T07:51:30Z</time>
      </trkpt>
      <trkpt lat="45.8961" lon="3.03609">
        <ele>452</ele>
        <time>2021-07-27T07:51:31Z</time>
      </trkpt>
      <trkpt lat="45.89611" lon="3.03611">
        <ele>452</ele>
        <time>2021-07-27T07:51:32Z</time>
      </trkpt>
      <trkpt lat="45.89611" lon="3.03612">
        <ele>452</ele>
        <time>2021-07-27T07:51:33Z</time>
      </trkpt>
      <trkpt lat="45.89612" lon="3.03614">
        <ele>452</ele>
        <time>2021-07-27T07:51:35Z</time>
      </trkpt>
      <trkpt lat="45.89613" lon="3.03616">
        <ele>452</ele>
        <time>2021-07-27T07:51:36Z</time>
      </trkpt>
      <trkpt lat="45.89617" lon="3.03624">
        <ele>452</ele>
        <time>2021-07-27T07:51:37Z</time>
      </trkpt>
      <trkpt lat="45.89617" lon="3.03624">
        <ele>452</ele>
        <time>2021-07-27T07:51:38Z</time>
      </trkpt>
      <trkpt lat="45.89617" lon="3.03625">
        <ele>452</ele>
        <time>2021-07-27T07:51:39Z</time>
      </trkpt>
      <trkpt lat="45.89618" lon="3.03627">
        <ele>452</ele>
        <time>2021-07-27T07:51:40Z</time>
      </trkpt>
      <trkpt lat="45.89619" lon="3.03628">
        <ele>452</ele>
        <time>2021-07-27T07:51:41Z</time>
      </trkpt>
      <trkpt lat="45.8962" lon="3.0363">
        <ele>452</ele>
        <time>2021-07-27T07:51:42Z</time>
      </trkpt>
      <trkpt lat="45.89621" lon="3.03632">
        <ele>452</ele>
        <time>2021-07-27T07:51:43Z</time>
      </trkpt>
      <trkpt lat="45.89622" lon="3.03634">
        <ele>452</ele>
        <time>2021-07-27T07:51:44Z</time>
      </trkpt>
      <trkpt lat="45.89622" lon="3.03635">
        <ele>452</ele>
        <time>2021-07-27T07:51:45Z</time>
      </trkpt>
      <trkpt lat="45.89623" lon="3.03637">
        <ele>452</ele>
        <time>2021-07-27T07:51:46Z</time>
      </trkpt>
      <trkpt lat="45.89625" lon="3.03639">
        <ele>452</ele>
        <time>2021-07-27T07:51:47Z</time>
      </trkpt>
      <trkpt lat="45.89626" lon="3.0364">
        <ele>452</ele>
        <time>2021-07-27T07:51:48Z</time>
      </trkpt>
      <trkpt lat="45.89627" lon="3.03642">
        <ele>452</ele>
        <time>2021-07-27T07:51:49Z</time>
      </trkpt>
      <trkpt lat="45.89628" lon="3.03644">
        <ele>452</ele>
        <time>2021-07-27T07:51:50Z</time>
      </trkpt>
      <trkpt lat="45.89629" lon="3.03645">
        <ele>452</ele>
        <time>2021-07-27T07:51:51Z</time>
      </trkpt>
      <trkpt lat="45.89629" lon="3.03647">
        <ele>452</ele>
        <time>2021-07-27T07:51:52Z</time>
      </trkpt>
      <trkpt lat="45.8963" lon="3.03649">
        <ele>452</ele>
        <time>2021-07-27T07:51:53Z</time>
      </trkpt>
      <trkpt lat="45.89631" lon="3.03651">
        <ele>452</ele>
        <time>2021-07-27T07:51:54Z</time>
      </trkpt>
      <trkpt lat="45.89632" lon="3.03652">
        <ele>452</ele>
        <time>2021-07-27T07:51:55Z</time>
      </trkpt>
      <trkpt lat="45.89632" lon="3.03654">
        <ele>452</ele>
        <time>2021-07-27T07:51:56Z</time>
      </trkpt>
      <trkpt lat="45.89633" lon="3.03655">
        <ele>452</ele>
        <time>2021-07-27T07:51:57Z</time>
      </trkpt>
      <trkpt lat="45.89634" lon="3.03657">
        <ele>452</ele>
        <time>2021-07-27T07:51:58Z</time>
      </trkpt>
      <trkpt lat="45.89635" lon="3.03658">
        <ele>452</ele>
        <time>2021-07-27T07:51:59Z</time>
      </trkpt>
      <trkpt lat="45.89636" lon="3.0366">
        <ele>452</ele>
        <time>2021-07-27T07:52:00Z</time>
      </trkpt>
      <trkpt lat="45.89636" lon="3.03662">
        <ele>452</ele>
        <time>2021-07-27T07:52:01Z</time>
      </trkpt>
      <trkpt lat="45.89637" lon="3.03663">
        <ele>452</ele>
        <time>2021-07-27T07:52:02Z</time>
      </trkpt>
      <trkpt lat="45.89638" lon="3.03665">
        <ele>452</ele>
        <time>2021-07-27T07:52:03Z</time>
      </trkpt>
      <trkpt lat="45.89639" lon="3.03667">
        <ele>452</ele>
        <time>2021-07-27T07:52:04Z</time>
      </trkpt>
      <trkpt lat="45.8964" lon="3.03669">
        <ele>452</ele>
        <time>2021-07-27T07:52:05Z</time>
      </trkpt>
      <trkpt lat="45.89641" lon="3.03671">
        <ele>452</ele>
        <time>2021-07-27T07:52:06Z</time>
      </trkpt>
      <trkpt lat="45.89641" lon="3.03673">
        <ele>452</ele>
        <time>2021-07-27T07:52:07Z</time>
      </trkpt>
      <trkpt lat="45.89642" lon="3.03675">
        <ele>452</ele>
        <time>2021-07-27T07:52:08Z</time>
      </trkpt>
      <trkpt lat="45.89643" lon="3.03677">
        <ele>452</ele>
        <time>2021-07-27T07:52:09Z</time>
      </trkpt>
      <trkpt lat="45.89644" lon="3.03679">
        <ele>452</ele>
        <time>2021-07-27T07:52:10Z</time>
      </trkpt>
      <trkpt lat="45.89644" lon="3.03681">
        <ele>452</ele>
        <time>2021-07-27T07:52:11Z</time>
      </trkpt>
      <trkpt lat="45.89644" lon="3.03683">
        <ele>452</ele>
        <time>2021-07-27T07:52:12Z</time>
      </trkpt>
      <trkpt lat="45.89645" lon="3.03684">
        <ele>452</ele>
        <time>2021-07-27T07:52:13Z</time>
      </trkpt>
      <trkpt lat="45.89645" lon="3.03686">
        <ele>452</ele>
        <time>2021-07-27T07:52:14Z</time>
      </trkpt>
      <trkpt lat="45.89645" lon="3.03688">
        <ele>452</ele>
        <time>2021-07-27T07:52:15Z</time>
      </trkpt>
      <trkpt lat="45.89646" lon="3.0369">
        <ele>452</ele>
        <time>2021-07-27T07:52:16Z</time>
      </trkpt>
      <trkpt lat="45.89646" lon="3.03692">
        <ele>452</ele>
        <time>2021-07-27T07:52:17Z</time>
      </trkpt>
      <trkpt lat="45.89646" lon="3.03693">
        <ele>452</ele>
        <time>2021-07-27T07:52:18Z</time>
      </trkpt>
      <trkpt lat="45.89647" lon="3.03695">
        <ele>452</ele>
        <time>2021-07-27T07:52:19Z</time>
      </trkpt>
      <trkpt lat="45.89648" lon="3.03697">
        <ele>452</ele>
        <time>2021-07-27T07:52:20Z</time>
      </trkpt>
      <trkpt lat="45.89649" lon="3.03698">
        <ele>452</ele>
        <time>2021-07-27T07:52:21Z</time>
      </trkpt>
      <trkpt lat="45.8965" lon="3.037">
        <ele>452</ele>
        <time>2021-07-27T07:52:22Z</time>
      </trkpt>
      <trkpt lat="45.8965" lon="3.03702">
        <ele>452</ele>
        <time>2021-07-27T07:52:23Z</time>
      </trkpt>
      <trkpt lat="45.8965" lon="3.03703">
        <ele>452</ele>
        <time>2021-07-27T07:52:24Z</time>
      </trkpt>
      <trkpt lat="45.89652" lon="3.03704">
        <ele>452</ele>
        <time>2021-07-27T07:52:25Z</time>
      </trkpt>
      <trkpt lat="45.89652" lon="3.03706">
        <ele>452</ele>
        <time>2021-07-27T07:52:26Z</time>
      </trkpt>
      <trkpt lat="45.89653" lon="3.03708">
        <ele>452</ele>
        <time>2021-07-27T07:52:27Z</time>
      </trkpt>
      <trkpt lat="45.89653" lon="3.03709">
        <ele>452</ele>
        <time>2021-07-27T07:52:28Z</time>
      </trkpt>
      <trkpt lat="45.89653" lon="3.03711">
        <ele>452</ele>
        <time>2021-07-27T07:52:29Z</time>
      </trkpt>
      <trkpt lat="45.89654" lon="3.03713">
        <ele>452</ele>
        <time>2021-07-27T07:52:30Z</time>
      </trkpt>
      <trkpt lat="45.89654" lon="3.03715">
        <ele>452</ele>
        <time>2021-07-27T07:52:31Z</time>
      </trkpt>
      <trkpt lat="45.89654" lon="3.03716">
        <ele>452</ele>
        <time>2021-07-27T07:52:32Z</time>
      </trkpt>
      <trkpt lat="45.89655" lon="3.03718">
        <ele>452</ele>
        <time>2021-07-27T07:52:33Z</time>
      </trkpt>
      <trkpt lat="45.89655" lon="3.0372">
        <ele>452</ele>
        <time>2021-07-27T07:52:35Z</time>
      </trkpt>
      <trkpt lat="45.89655" lon="3.03728">
        <ele>452</ele>
        <time>2021-07-27T07:52:36Z</time>
      </trkpt>
      <trkpt lat="45.89655" lon="3.03729">
        <ele>452</ele>
        <time>2021-07-27T07:52:37Z</time>
      </trkpt>
      <trkpt lat="45.89655" lon="3.0373">
        <ele>452</ele>
        <time>2021-07-27T07:52:38Z</time>
      </trkpt>
      <trkpt lat="45.89655" lon="3.03732">
        <ele>452</ele>
        <time>2021-07-27T07:52:39Z</time>
      </trkpt>
      <trkpt lat="45.89655" lon="3.03733">
        <ele>452</ele>
        <time>2021-07-27T07:52:40Z</time>
      </trkpt>
      <trkpt lat="45.89655" lon="3.03735">
        <ele>452</ele>
        <time>2021-07-27T07:52:41Z</time>
      </trkpt>
      <trkpt lat="45.89655" lon="3.03737">
        <ele>452</ele>
        <time>2021-07-27T07:52:42Z</time>
      </trkpt>
      <trkpt lat="45.89655" lon="3.03739">
        <ele>452</ele>
        <time>2021-07-27T07:52:43Z</time>
      </trkpt>
      <trkpt lat="45.89655" lon="3.03741">
        <ele>452</ele>
        <time>2021-07-27T07:52:44Z</time>
      </trkpt>
      <trkpt lat="45.89655" lon="3.03744">
        <ele>452</ele>
        <time>2021-07-27T07:52:45Z</time>
      </trkpt>
      <trkpt lat="45.89655" lon="3.03746">
        <ele>452</ele>
        <time>2021-07-27T07:52:46Z</time>
      </trkpt>
      <trkpt lat="45.89655" lon="3.03748">
        <ele>452</ele>
        <time>2021-07-27T07:52:47Z</time>
      </trkpt>
      <trkpt lat="45.89654" lon="3.0375">
        <ele>452</ele>
        <time>2021-07-27T07:52:48Z</time>
      </trkpt>
      <trkpt lat="45.89654" lon="3.03752">
        <ele>452</ele>
        <time>2021-07-27T07:52:49Z</time>
      </trkpt>
      <trkpt lat="45.89654" lon="3.03754">
        <ele>452</ele>
        <time>2021-07-27T07:52:50Z</time>
      </trkpt>
      <trkpt lat="45.89654" lon="3.03756">
        <ele>452</ele>
        <time>2021-07-27T07:52:51Z</time>
      </trkpt>
      <trkpt lat="45.89654" lon="3.03758">
        <ele>452</ele>
        <time>2021-07-27T07:52:52Z</time>
      </trkpt>
      <trkpt lat="45.89654" lon="3.03759">
        <ele>452</ele>
        <time>2021-07-27T07:52:53Z</time>
      </trkpt>
      <trkpt lat="45.89654" lon="3.03761">
        <ele>452</ele>
        <time>2021-07-27T07:52:54Z</time>
      </trkpt>
      <trkpt lat="45.89653" lon="3.03763">
        <ele>452</ele>
        <time>2021-07-27T07:52:55Z</time>
      </trkpt>
      <trkpt lat="45.89653" lon="3.03764">
        <ele>452</ele>
        <time>2021-07-27T07:52:56Z</time>
      </trkpt>
      <trkpt lat="45.89653" lon="3.03766">
        <ele>452</ele>
        <time>2021-07-27T07:52:57Z</time>
      </trkpt>
      <trkpt lat="45.89653" lon="3.03767">
        <ele>452</ele>
        <time>2021-07-27T07:52:58Z</time>
      </trkpt>
      <trkpt lat="45.89653" lon="3.03769">
        <ele>452</ele>
        <time>2021-07-27T07:52:59Z</time>
      </trkpt>
      <trkpt lat="45.89653" lon="3.03771">
        <ele>452</ele>
        <time>2021-07-27T07:53:00Z</time>
      </trkpt>
      <trkpt lat="45.89653" lon="3.03773">
        <ele>452</ele>
        <time>2021-07-27T07:53:01Z</time>
      </trkpt>
      <trkpt lat="45.89652" lon="3.03776">
        <ele>452</ele>
        <time>2021-07-27T07:53:02Z</time>
      </trkpt>
      <trkpt lat="45.89652" lon="3.03778">
        <ele>452</ele>
        <time>2021-07-27T07:53:03Z</time>
      </trkpt>
      <trkpt lat="45.8965" lon="3.0378">
        <ele>452</ele>
        <time>2021-07-27T07:53:04Z</time>
      </trkpt>
      <trkpt lat="45.8965" lon="3.03783">
        <ele>452</ele>
        <time>2021-07-27T07:53:05Z</time>
      </trkpt>
      <trkpt lat="45.8965" lon="3.03785">
        <ele>452</ele>
        <time>2021-07-27T07:53:06Z</time>
      </trkpt>
      <trkpt lat="45.89649" lon="3.03787">
        <ele>452</ele>
        <time>2021-07-27T07:53:07Z</time>
      </trkpt>
      <trkpt lat="45.89649" lon="3.0379">
        <ele>452</ele>
        <time>2021-07-27T07:53:08Z</time>
      </trkpt>
      <trkpt lat="45.89649" lon="3.03792">
        <ele>452</ele>
        <time>2021-07-27T07:53:09Z</time>
      </trkpt>
      <trkpt lat="45.89649" lon="3.03795">
        <ele>452</ele>
        <time>2021-07-27T07:53:10Z</time>
      </trkpt>
      <trkpt lat="45.8965" lon="3.03797">
        <ele>452</ele>
        <time>2021-07-27T07:53:11Z</time>
      </trkpt>
      <trkpt lat="45.8965" lon="3.038">
        <ele>452</ele>
        <time>2021-07-27T07:53:12Z</time>
      </trkpt>
      <trkpt lat="45.8965" lon="3.03802">
        <ele>452</ele>
        <time>2021-07-27T07:53:13Z</time>
      </trkpt>
      <trkpt lat="45.89649" lon="3.03804">
        <ele>452</ele>
        <time>2021-07-27T07:53:14Z</time>
      </trkpt>
      <trkpt lat="45.89648" lon="3.03805">
        <ele>452</ele>
        <time>2021-07-27T07:53:15Z</time>
      </trkpt>
      <trkpt lat="45.89648" lon="3.03807">
        <ele>452</ele>
        <time>2021-07-27T07:53:16Z</time>
      </trkpt>
      <trkpt lat="45.89647" lon="3.03809">
        <ele>452</ele>
        <time>2021-07-27T07:53:17Z</time>
      </trkpt>
      <trkpt lat="45.89647" lon="3.0381">
        <ele>452</ele>
        <time>2021-07-27T07:53:18Z</time>
      </trkpt>
      <trkpt lat="45.89646" lon="3.03812">
        <ele>452</ele>
        <time>2021-07-27T07:53:19Z</time>
      </trkpt>
      <trkpt lat="45.89646" lon="3.03813">
        <ele>452</ele>
        <time>2021-07-27T07:53:20Z</time>
      </trkpt>
      <trkpt lat="45.89645" lon="3.03815">
        <ele>452</ele>
        <time>2021-07-27T07:53:21Z</time>
      </trkpt>
      <trkpt lat="45.89645" lon="3.03816">
        <ele>452</ele>
        <time>2021-07-27T07:53:22Z</time>
      </trkpt>
      <trkpt lat="45.89644" lon="3.03818">
        <ele>452</ele>
        <time>2021-07-27T07:53:23Z</time>
      </trkpt>
      <trkpt lat="45.89644" lon="3.0382">
        <ele>452</ele>
        <time>2021-07-27T07:53:24Z</time>
      </trkpt>
      <trkpt lat="45.89644" lon="3.03822">
        <ele>452</ele>
        <time>2021-07-27T07:53:25Z</time>
      </trkpt>
      <trkpt lat="45.89644" lon="3.03824">
        <ele>452</ele>
        <time>2021-07-27T07:53:26Z</time>
      </trkpt>
      <trkpt lat="45.89644" lon="3.03826">
        <ele>452</ele>
        <time>2021-07-27T07:53:27Z</time>
      </trkpt>
      <trkpt lat="45.89644" lon="3.03828">
        <ele>452</ele>
        <time>2021-07-27T07:53:28Z</time>
      </trkpt>
      <trkpt lat="45.89644" lon="3.0383">
        <ele>452</ele>
        <time>2021-07-27T07:53:29Z</time>
      </trkpt>
      <trkpt lat="45.89644" lon="3.03832">
        <ele>452</ele>
        <time>2021-07-27T07:53:30Z</time>
      </trkpt>
      <trkpt lat="45.89644" lon="3.03835">
        <ele>452</ele>
        <time>2021-07-27T07:53:31Z</time>
      </trkpt>
      <trkpt lat="45.89643" lon="3.03837">
        <ele>452</ele>
        <time>2021-07-27T07:53:32Z</time>
      </trkpt>
      <trkpt lat="45.89643" lon="3.03839">
        <ele>452</ele>
        <time>2021-07-27T07:53:33Z</time>
      </trkpt>
      <trkpt lat="45.89643" lon="3.03841">
        <ele>452</ele>
        <time>2021-07-27T07:53:34Z</time>
      </trkpt>
      <trkpt lat="45.89642" lon="3.0385">
        <ele>452</ele>
        <time>2021-07-27T07:53:35Z</time>
      </trkpt>
      <trkpt lat="45.89642" lon="3.03851">
        <ele>452</ele>
        <time>2021-07-27T07:53:36Z</time>
      </trkpt>
      <trkpt lat="45.89642" lon="3.03852">
        <ele>452</ele>
        <time>2021-07-27T07:53:37Z</time>
      </trkpt>
      <trkpt lat="45.89642" lon="3.03853">
        <ele>452</ele>
        <time>2021-07-27T07:53:38Z</time>
      </trkpt>
      <trkpt lat="45.89642" lon="3.03855">
        <ele>452</ele>
        <time>2021-07-27T07:53:39Z</time>
      </trkpt>
      <trkpt lat="45.89642" lon="3.03857">
        <ele>452</ele>
        <time>2021-07-27T07:53:40Z</time>
      </trkpt>
      <trkpt lat="45.89642" lon="3.03859">
        <ele>452</ele>
        <time>2021-07-27T07:53:41Z</time>
      </trkpt>
      <trkpt lat="45.89641" lon="3.03861">
        <ele>452</ele>
        <time>2021-07-27T07:53:42Z</time>
      </trkpt>
      <trkpt lat="45.89641" lon="3.03862">
        <ele>452</ele>
        <time>2021-07-27T07:53:43Z</time>
      </trkpt>
      <trkpt lat="45.89641" lon="3.03864">
        <ele>452</ele>
        <time>2021-07-27T07:53:44Z</time>
      </trkpt>
      <trkpt lat="45.8964" lon="3.03866">
        <ele>452</ele>
        <time>2021-07-27T07:53:45Z</time>
      </trkpt>
      <trkpt lat="45.8964" lon="3.03867">
        <ele>452</ele>
        <time>2021-07-27T07:53:46Z</time>
      </trkpt>
      <trkpt lat="45.8964" lon="3.03869">
        <ele>452</ele>
        <time>2021-07-27T07:53:47Z</time>
      </trkpt>
      <trkpt lat="45.8964" lon="3.03871">
        <ele>452</ele>
        <time>2021-07-27T07:53:48Z</time>
      </trkpt>
      <trkpt lat="45.8964" lon="3.03873">
        <ele>452</ele>
        <time>2021-07-27T07:53:49Z</time>
      </trkpt>
      <trkpt lat="45.8964" lon="3.03875">
        <ele>452</ele>
        <time>2021-07-27T07:53:50Z</time>
      </trkpt>
      <trkpt lat="45.8964" lon="3.03877">
        <ele>452</ele>
        <time>2021-07-27T07:53:51Z</time>
      </trkpt>
      <trkpt lat="45.8964" lon="3.03878">
        <ele>452</ele>
        <time>2021-07-27T07:53:52Z</time>
      </trkpt>
      <trkpt lat="45.89639" lon="3.03881">
        <ele>452</ele>
        <time>2021-07-27T07:53:53Z</time>
      </trkpt>
      <trkpt lat="45.89639" lon="3.03883">
        <ele>452</ele>
        <time>2021-07-27T07:53:54Z</time>
      </trkpt>
      <trkpt lat="45.89639" lon="3.03885">
        <ele>452</ele>
        <time>2021-07-27T07:53:55Z</time>
      </trkpt>
      <trkpt lat="45.89638" lon="3.03887">
        <ele>452</ele>
        <time>2021-07-27T07:53:56Z</time>
      </trkpt>
      <trkpt lat="45.89638" lon="3.03888">
        <ele>452</ele>
        <time>2021-07-27T07:53:57Z</time>
      </trkpt>
      <trkpt lat="45.89638" lon="3.0389">
        <ele>452</ele>
        <time>2021-07-27T07:53:58Z</time>
      </trkpt>
      <trkpt lat="45.89637" lon="3.03893">
        <ele>452</ele>
        <time>2021-07-27T07:53:59Z</time>
      </trkpt>
      <trkpt lat="45.89637" lon="3.03895">
        <ele>452</ele>
        <time>2021-07-27T07:54:00Z</time>
      </trkpt>
      <trkpt lat="45.89636" lon="3.03897">
        <ele>452</ele>
        <time>2021-07-27T07:54:01Z</time>
      </trkpt>
      <trkpt lat="45.89636" lon="3.03898">
        <ele>452</ele>
        <time>2021-07-27T07:54:02Z</time>
      </trkpt>
      <trkpt lat="45.89636" lon="3.039">
        <ele>452</ele>
        <time>2021-07-27T07:54:03Z</time>
      </trkpt>
      <trkpt lat="45.89636" lon="3.03902">
        <ele>452</ele>
        <time>2021-07-27T07:54:04Z</time>
      </trkpt>
      <trkpt lat="45.89636" lon="3.03903">
        <ele>452</ele>
        <time>2021-07-27T07:54:05Z</time>
      </trkpt>
      <trkpt lat="45.89636" lon="3.03905">
        <ele>452</ele>
        <time>2021-07-27T07:54:06Z</time>
      </trkpt>
      <trkpt lat="45.89636" lon="3.03907">
        <ele>452</ele>
        <time>2021-07-27T07:54:07Z</time>
      </trkpt>
      <trkpt lat="45.89635" lon="3.03909">
        <ele>452</ele>
        <time>2021-07-27T07:54:08Z</time>
      </trkpt>
      <trkpt lat="45.89635" lon="3.03911">
        <ele>452</ele>
        <time>2021-07-27T07:54:09Z</time>
      </trkpt>
      <trkpt lat="45.89635" lon="3.03914">
        <ele>452</ele>
        <time>2021-07-27T07:54:10Z</time>
      </trkpt>
      <trkpt lat="45.89635" lon="3.03916">
        <ele>452</ele>
        <time>2021-07-27T07:54:11Z</time>
      </trkpt>
      <trkpt lat="45.89634" lon="3.03918">
        <ele>452</ele>
        <time>2021-07-27T07:54:12Z</time>
      </trkpt>
      <trkpt lat="45.89634" lon="3.03921">
        <ele>452</ele>
        <time>2021-07-27T07:54:13Z</time>
      </trkpt>
      <trkpt lat="45.89634" lon="3.03923">
        <ele>452</ele>
        <time>2021-07-27T07:54:14Z</time>
      </trkpt>
      <trkpt lat="45.89634" lon="3.03925">
        <ele>452</ele>
        <time>2021-07-27T07:54:15Z</time>
      </trkpt>
      <trkpt lat="45.89634" lon="3.03928">
        <ele>452</ele>
        <time>2021-07-27T07:54:16Z</time>
      </trkpt>
      <trkpt lat="45.89634" lon="3.0393">
        <ele>452</ele>
        <time>2021-07-27T07:54:17Z</time>
      </trkpt>
      <trkpt lat="45.89634" lon="3.03932">
        <ele>452</ele>
        <time>2021-07-27T07:54:18Z</time>
      </trkpt>
      <trkpt lat="45.89634" lon="3.03934">
        <ele>452</ele>
        <time>2021-07-27T07:54:19Z</time>
      </trkpt>
      <trkpt lat="45.89634" lon="3.03937">
        <ele>452</ele>
        <time>2021-07-27T07:54:20Z</time>
      </trkpt>
      <trkpt lat="45.89635" lon="3.03939">
        <ele>452</ele>
        <time>2021-07-27T07:54:21Z</time>
      </trkpt>
      <trkpt lat="45.89635" lon="3.03941">
        <ele>452</ele>
        <time>2021-07-27T07:54:22Z</time>
      </trkpt>
      <trkpt lat="45.89635" lon="3.03943">
        <ele>452</ele>
        <time>2021-07-27T07:54:23Z</time>
      </trkpt>
      <trkpt lat="45.89635" lon="3.03945">
        <ele>452</ele>
        <time>2021-07-27T07:54:24Z</time>
      </trkpt>
      <trkpt lat="45.89635" lon="3.03947">
        <ele>452</ele>
        <time>2021-07-27T07:54:25Z</time>
      </trkpt>
      <trkpt lat="45.89635" lon="3.03948">
        <ele>452</ele>
        <time>2021-07-27T07:54:26Z</time>
      </trkpt>
      <trkpt lat="45.89636" lon="3.0395">
        <ele>452</ele>
        <time>2021-07-27T07:54:27Z</time>
      </trkpt>
      <trkpt lat="45.89636" lon="3.03952">
        <ele>452</ele>
        <time>2021-07-27T07:54:28Z</time>
      </trkpt>
      <trkpt lat="45.89636" lon="3.03954">
        <ele>452</ele>
        <time>2021-07-27T07:54:29Z</time>
      </trkpt>
      <trkpt lat="45.89636" lon="3.03956">
        <ele>452</ele>
        <time>2021-07-27T07:54:30Z</time>
      </trkpt>
      <trkpt lat="45.89636" lon="3.03958">
        <ele>452</ele>
        <time>2021-07-27T07:54:31Z</time>
      </trkpt>
      <trkpt lat="45.89636" lon="3.0396">
        <ele>452</ele>
        <time>2021-07-27T07:54:32Z</time>
      </trkpt>
      <trkpt lat="45.89637" lon="3.03962">
        <ele>452</ele>
        <time>2021-07-27T07:54:34Z</time>
      </trkpt>
      <trkpt lat="45.89638" lon="3.03969">
        <ele>452</ele>
        <time>2021-07-27T07:54:35Z</time>
      </trkpt>
      <trkpt lat="45.89638" lon="3.03969">
        <ele>452</ele>
        <time>2021-07-27T07:54:36Z</time>
      </trkpt>
      <trkpt lat="45.89639" lon="3.0397">
        <ele>452</ele>
        <time>2021-07-27T07:54:37Z</time>
      </trkpt>
      <trkpt lat="45.89639" lon="3.03971">
        <ele>452</ele>
        <time>2021-07-27T07:54:38Z</time>
      </trkpt>
      <trkpt lat="45.8964" lon="3.03972">
        <ele>452</ele>
        <time>2021-07-27T07:54:39Z</time>
      </trkpt>
      <trkpt lat="45.8964" lon="3.03974">
        <ele>452</ele>
        <time>2021-07-27T07:54:40Z</time>
      </trkpt>
      <trkpt lat="45.8964" lon="3.03975">
        <ele>452</ele>
        <time>2021-07-27T07:54:41Z</time>
      </trkpt>
      <trkpt lat="45.89641" lon="3.03976">
        <ele>452</ele>
        <time>2021-07-27T07:54:42Z</time>
      </trkpt>
      <trkpt lat="45.89641" lon="3.03978">
        <ele>452</ele>
        <time>2021-07-27T07:54:43Z</time>
      </trkpt>
      <trkpt lat="45.89641" lon="3.0398">
        <ele>452</ele>
        <time>2021-07-27T07:54:44Z</time>
      </trkpt>
      <trkpt lat="45.89642" lon="3.03981">
        <ele>452</ele>
        <time>2021-07-27T07:54:45Z</time>
      </trkpt>
      <trkpt lat="45.89643" lon="3.03983">
        <ele>452</ele>
        <time>2021-07-27T07:54:46Z</time>
      </trkpt>
      <trkpt lat="45.89643" lon="3.03985">
        <ele>452</ele>
        <time>2021-07-27T07:54:47Z</time>
      </trkpt>
      <trkpt lat="45.89644" lon="3.03987">
        <ele>452</ele>
        <time>2021-07-27T07:54:48Z</time>
      </trkpt>
      <trkpt lat="45.89645" lon="3.03989">
        <ele>452</ele>
        <time>2021-07-27T07:54:49Z</time>
      </trkpt>
      <trkpt lat="45.89645" lon="3.03991">
        <ele>452</ele>
        <time>2021-07-27T07:54:50Z</time>
      </trkpt>
      <trkpt lat="45.89645" lon="3.03993">
        <ele>452</ele>
        <time>2021-07-27T07:54:51Z</time>
      </trkpt>
      <trkpt lat="45.89646" lon="3.03995">
        <ele>452</ele>
        <time>2021-07-27T07:54:52Z</time>
      </trkpt>
      <trkpt lat="45.89646" lon="3.03997">
        <ele>452</ele>
        <time>2021-07-27T07:54:53Z</time>
      </trkpt>
      <trkpt lat="45.89646" lon="3.03999">
        <ele>452</ele>
        <time>2021-07-27T07:54:54Z</time>
      </trkpt>
      <trkpt lat="45.89647" lon="3.04001">
        <ele>452</ele>
        <time>2021-07-27T07:54:55Z</time>
      </trkpt>
      <trkpt lat="45.89647" lon="3.04003">
        <ele>452</ele>
        <time>2021-07-27T07:54:56Z</time>
      </trkpt>
      <trkpt lat="45.89647" lon="3.04005">
        <ele>452</ele>
        <time>2021-07-27T07:54:57Z</time>
      </trkpt>
      <trkpt lat="45.89647" lon="3.04007">
        <ele>452</ele>
        <time>2021-07-27T07:54:58Z</time>
      </trkpt>
      <trkpt lat="45.89647" lon="3.04009">
        <ele>452</ele>
        <time>2021-07-27T07:54:59Z</time>
      </trkpt>
      <trkpt lat="45.89647" lon="3.04011">
        <ele>452</ele>
        <time>2021-07-27T07:55:00Z</time>
      </trkpt>
      <trkpt lat="45.89648" lon="3.04012">
        <ele>452</ele>
        <time>2021-07-27T07:55:01Z</time>
      </trkpt>
      <trkpt lat="45.89648" lon="3.04014">
        <ele>452</ele>
        <time>2021-07-27T07:55:02Z</time>
      </trkpt>
      <trkpt lat="45.89649" lon="3.04015">
        <ele>452</ele>
        <time>2021-07-27T07:55:03Z</time>
      </trkpt>
      <trkpt lat="45.89649" lon="3.04017">
        <ele>452</ele>
        <time>2021-07-27T07:55:04Z</time>
      </trkpt>
      <trkpt lat="45.89649" lon="3.04019">
        <ele>452</ele>
        <time>2021-07-27T07:55:05Z</time>
      </trkpt>
      <trkpt lat="45.8965" lon="3.0402">
        <ele>452</ele>
        <time>2021-07-27T07:55:06Z</time>
      </trkpt>
      <trkpt lat="45.8965" lon="3.04022">
        <ele>452</ele>
        <time>2021-07-27T07:55:07Z</time>
      </trkpt>
      <trkpt lat="45.8965" lon="3.04023">
        <ele>452</ele>
        <time>2021-07-27T07:55:08Z</time>
      </trkpt>
      <trkpt lat="45.8965" lon="3.04024">
        <ele>452</ele>
        <time>2021-07-27T07:55:09Z</time>
      </trkpt>
      <trkpt lat="45.89651" lon="3.04026">
        <ele>452</ele>
        <time>2021-07-27T07:55:10Z</time>
      </trkpt>
      <trkpt lat="45.89652" lon="3.04027">
        <ele>452</ele>
        <time>2021-07-27T07:55:11Z</time>
      </trkpt>
      <trkpt lat="45.89652" lon="3.04029">
        <ele>452</ele>
        <time>2021-07-27T07:55:12Z</time>
      </trkpt>
      <trkpt lat="45.89653" lon="3.04031">
        <ele>452</ele>
        <time>2021-07-27T07:55:13Z</time>
      </trkpt>
      <trkpt lat="45.89653" lon="3.04032">
        <ele>452</ele>
        <time>2021-07-27T07:55:14Z</time>
      </trkpt>
      <trkpt lat="45.89653" lon="3.04034">
        <ele>452</ele>
        <time>2021-07-27T07:55:15Z</time>
      </trkpt>
      <trkpt lat="45.89655" lon="3.04036">
        <ele>452</ele>
        <time>2021-07-27T07:55:16Z</time>
      </trkpt>
      <trkpt lat="45.89655" lon="3.04037">
        <ele>452</ele>
        <time>2021-07-27T07:55:17Z</time>
      </trkpt>
      <trkpt lat="45.89656" lon="3.04039">
        <ele>452</ele>
        <time>2021-07-27T07:55:18Z</time>
      </trkpt>
      <trkpt lat="45.89656" lon="3.04041">
        <ele>452</ele>
        <time>2021-07-27T07:55:19Z</time>
      </trkpt>
      <trkpt lat="45.89656" lon="3.04043">
        <ele>452</ele>
        <time>2021-07-27T07:55:20Z</time>
      </trkpt>
      <trkpt lat="45.89658" lon="3.04045">
        <ele>452</ele>
        <time>2021-07-27T07:55:21Z</time>
      </trkpt>
      <trkpt lat="45.89658" lon="3.04047">
        <ele>452</ele>
        <time>2021-07-27T07:55:22Z</time>
      </trkpt>
      <trkpt lat="45.89659" lon="3.04048">
        <ele>452</ele>
        <time>2021-07-27T07:55:23Z</time>
      </trkpt>
      <trkpt lat="45.89659" lon="3.0405">
        <ele>452</ele>
        <time>2021-07-27T07:55:24Z</time>
      </trkpt>
      <trkpt lat="45.89659" lon="3.04052">
        <ele>452</ele>
        <time>2021-07-27T07:55:25Z</time>
      </trkpt>
      <trkpt lat="45.89659" lon="3.04054">
        <ele>452</ele>
        <time>2021-07-27T07:55:26Z</time>
      </trkpt>
      <trkpt lat="45.89659" lon="3.04056">
        <ele>452</ele>
        <time>2021-07-27T07:55:27Z</time>
      </trkpt>
      <trkpt lat="45.89659" lon="3.04058">
        <ele>452</ele>
        <time>2021-07-27T07:55:28Z</time>
      </trkpt>
      <trkpt lat="45.89659" lon="3.0406">
        <ele>452</ele>
        <time>2021-07-27T07:55:29Z</time>
      </trkpt>
      <trkpt lat="45.89659" lon="3.04062">
        <ele>452</ele>
        <time>2021-07-27T07:55:30Z</time>
      </trkpt>
      <trkpt lat="45.89659" lon="3.04064">
        <ele>452</ele>
        <time>2021-07-27T07:55:31Z</time>
      </trkpt>
      <trkpt lat="45.8966" lon="3.04066">
        <ele>452</ele>
        <time>2021-07-27T07:55:32Z</time>
      </trkpt>
      <trkpt lat="45.89661" lon="3.04068">
        <ele>452</ele>
        <time>2021-07-27T07:55:34Z</time>
      </trkpt>
      <trkpt lat="45.89665" lon="3.04078">
        <ele>452</ele>
        <time>2021-07-27T07:55:35Z</time>
      </trkpt>
      <trkpt lat="45.89665" lon="3.04078">
        <ele>452</ele>
        <time>2021-07-27T07:55:36Z</time>
      </trkpt>
      <trkpt lat="45.89665" lon="3.04079">
        <ele>452</ele>
        <time>2021-07-27T07:55:37Z</time>
      </trkpt>
      <trkpt lat="45.89666" lon="3.04081">
        <ele>452</ele>
        <time>2021-07-27T07:55:38Z</time>
      </trkpt>
      <trkpt lat="45.89666" lon="3.04083">
        <ele>452</ele>
        <time>2021-07-27T07:55:39Z</time>
      </trkpt>
      <trkpt lat="45.89667" lon="3.04085">
        <ele>452</ele>
        <time>2021-07-27T07:55:40Z</time>
      </trkpt>
      <trkpt lat="45.89668" lon="3.04087">
        <ele>452</ele>
        <time>2021-07-27T07:55:41Z</time>
      </trkpt>
      <trkpt lat="45.89668" lon="3.04089">
        <ele>452</ele>
        <time>2021-07-27T07:55:42Z</time>
      </trkpt>
      <trkpt lat="45.89668" lon="3.04091">
        <ele>452</ele>
        <time>2021-07-27T07:55:43Z</time>
      </trkpt>
      <trkpt lat="45.89668" lon="3.04093">
        <ele>452</ele>
        <time>2021-07-27T07:55:44Z</time>
      </trkpt>
      <trkpt lat="45.89669" lon="3.04095">
        <ele>452</ele>
        <time>2021-07-27T07:55:45Z</time>
      </trkpt>
      <trkpt lat="45.89669" lon="3.04097">
        <ele>452</ele>
        <time>2021-07-27T07:55:46Z</time>
      </trkpt>
      <trkpt lat="45.89669" lon="3.04099">
        <ele>452</ele>
        <time>2021-07-27T07:55:47Z</time>
      </trkpt>
      <trkpt lat="45.89669" lon="3.04101">
        <ele>452</ele>
        <time>2021-07-27T07:55:48Z</time>
      </trkpt>
      <trkpt lat="45.8967" lon="3.04103">
        <ele>452</ele>
        <time>2021-07-27T07:55:49Z</time>
      </trkpt>
      <trkpt lat="45.8967" lon="3.04105">
        <ele>452</ele>
        <time>2021-07-27T07:55:50Z</time>
      </trkpt>
      <trkpt lat="45.89671" lon="3.04107">
        <ele>452</ele>
        <time>2021-07-27T07:55:51Z</time>
      </trkpt>
      <trkpt lat="45.89671" lon="3.04109">
        <ele>452</ele>
        <time>2021-07-27T07:55:52Z</time>
      </trkpt>
      <trkpt lat="45.89672" lon="3.0411">
        <ele>452</ele>
        <time>2021-07-27T07:55:53Z</time>
      </trkpt>
      <trkpt lat="45.89673" lon="3.04112">
        <ele>452</ele>
        <time>2021-07-27T07:55:54Z</time>
      </trkpt>
      <trkpt lat="45.89674" lon="3.04113">
        <ele>452</ele>
        <time>2021-07-27T07:55:55Z</time>
      </trkpt>
      <trkpt lat="45.89674" lon="3.04115">
        <ele>452</ele>
        <time>2021-07-27T07:55:56Z</time>
      </trkpt>
      <trkpt lat="45.89674" lon="3.04116">
        <ele>452</ele>
        <time>2021-07-27T07:55:57Z</time>
      </trkpt>
      <trkpt lat="45.89674" lon="3.04117">
        <ele>452</ele>
        <time>2021-07-27T07:55:58Z</time>
      </trkpt>
      <trkpt lat="45.89675" lon="3.04118">
        <ele>452</ele>
        <time>2021-07-27T07:55:59Z</time>
      </trkpt>
      <trkpt lat="45.89676" lon="3.04119">
        <ele>452</ele>
        <time>2021-07-27T07:56:00Z</time>
      </trkpt>
      <trkpt lat="45.89676" lon="3.0412">
        <ele>452</ele>
        <time>2021-07-27T07:56:01Z</time>
      </trkpt>
      <trkpt lat="45.89676" lon="3.04122">
        <ele>452</ele>
        <time>2021-07-27T07:56:02Z</time>
      </trkpt>
      <trkpt lat="45.89677" lon="3.04123">
        <ele>452</ele>
        <time>2021-07-27T07:56:03Z</time>
      </trkpt>
      <trkpt lat="45.89677" lon="3.04124">
        <ele>452</ele>
        <time>2021-07-27T07:56:04Z</time>
      </trkpt>
      <trkpt lat="45.89677" lon="3.04125">
        <ele>452</ele>
        <time>2021-07-27T07:56:05Z</time>
      </trkpt>
      <trkpt lat="45.89678" lon="3.04125">
        <ele>452</ele>
        <time>2021-07-27T07:56:06Z</time>
      </trkpt>
      <trkpt lat="45.89679" lon="3.04126">
        <ele>452</ele>
        <time>2021-07-27T07:56:07Z</time>
      </trkpt>
      <trkpt lat="45.8968" lon="3.04127">
        <ele>452</ele>
        <time>2021-07-27T07:56:08Z</time>
      </trkpt>
      <trkpt lat="45.89682" lon="3.04128">
        <ele>452</ele>
        <time>2021-07-27T07:56:09Z</time>
      </trkpt>
      <trkpt lat="45.89683" lon="3.04129">
        <ele>452</ele>
        <time>2021-07-27T07:56:10Z</time>
      </trkpt>
      <trkpt lat="45.89684" lon="3.0413">
        <ele>452</ele>
        <time>2021-07-27T07:56:11Z</time>
      </trkpt>
      <trkpt lat="45.89685" lon="3.04131">
        <ele>452</ele>
        <time>2021-07-27T07:56:12Z</time>
      </trkpt>
      <trkpt lat="45.89687" lon="3.04132">
        <ele>452</ele>
        <time>2021-07-27T07:56:13Z</time>
      </trkpt>
      <trkpt lat="45.89688" lon="3.04133">
        <ele>452</ele>
        <time>2021-07-27T07:56:14Z</time>
      </trkpt>
      <trkpt lat="45.89689" lon="3.04134">
        <ele>452</ele>
        <time>2021-07-27T07:56:15Z</time>
      </trkpt>
      <trkpt lat="45.8969" lon="3.04136">
        <ele>452</ele>
        <time>2021-07-27T07:56:16Z</time>
      </trkpt>
      <trkpt lat="45.89692" lon="3.04137">
        <ele>452</ele>
        <time>2021-07-27T07:56:17Z</time>
      </trkpt>
      <trkpt lat="45.89693" lon="3.04138">
        <ele>452</ele>
        <time>2021-07-27T07:56:18Z</time>
      </trkpt>
      <trkpt lat="45.89694" lon="3.0414">
        <ele>452</ele>
        <time>2021-07-27T07:56:19Z</time>
      </trkpt>
      <trkpt lat="45.89695" lon="3.04141">
        <ele>452</ele>
        <time>2021-07-27T07:56:20Z</time>
      </trkpt>
      <trkpt lat="45.89695" lon="3.04142">
        <ele>452</ele>
        <time>2021-07-27T07:56:21Z</time>
      </trkpt>
      <trkpt lat="45.89697" lon="3.04143">
        <ele>452</ele>
        <time>2021-07-27T07:56:22Z</time>
      </trkpt>
      <trkpt lat="45.89697" lon="3.04144">
        <ele>452</ele>
        <time>2021-07-27T07:56:23Z</time>
      </trkpt>
      <trkpt lat="45.89698" lon="3.04146">
        <ele>452</ele>
        <time>2021-07-27T07:56:24Z</time>
      </trkpt>
      <trkpt lat="45.89699" lon="3.04147">
        <ele>452</ele>
        <time>2021-07-27T07:56:25Z</time>
      </trkpt>
      <trkpt lat="45.897" lon="3.04148">
        <ele>452</ele>
        <time>2021-07-27T07:56:26Z</time>
      </trkpt>
      <trkpt lat="45.89701" lon="3.04149">
        <ele>452</ele>
        <time>2021-07-27T07:56:27Z</time>
      </trkpt>
      <trkpt lat="45.89702" lon="3.04151">
        <ele>452</ele>
        <time>2021-07-27T07:56:28Z</time>
      </trkpt>
      <trkpt lat="45.89703" lon="3.04152">
        <ele>452</ele>
        <time>2021-07-27T07:56:29Z</time>
      </trkpt>
      <trkpt lat="45.89703" lon="3.04154">
        <ele>452</ele>
        <time>2021-07-27T07:56:30Z</time>
      </trkpt>
      <trkpt lat="45.89703" lon="3.04156">
        <ele>452</ele>
        <time>2021-07-27T07:56:31Z</time>
      </trkpt>
      <trkpt lat="45.89704" lon="3.04158">
        <ele>452</ele>
        <time>2021-07-27T07:56:33Z</time>
      </trkpt>
      <trkpt lat="45.89705" lon="3.04165">
        <ele>452</ele>
        <time>2021-07-27T07:56:35Z</time>
      </trkpt>
      <trkpt lat="45.89706" lon="3.04169">
        <ele>452</ele>
        <time>2021-07-27T07:56:36Z</time>
      </trkpt>
      <trkpt lat="45.89706" lon="3.04169">
        <ele>452</ele>
        <time>2021-07-27T07:56:37Z</time>
      </trkpt>
      <trkpt lat="45.89706" lon="3.0417">
        <ele>452</ele>
        <time>2021-07-27T07:56:38Z</time>
      </trkpt>
      <trkpt lat="45.89706" lon="3.04171">
        <ele>452</ele>
        <time>2021-07-27T07:56:39Z</time>
      </trkpt>
      <trkpt lat="45.89706" lon="3.04172">
        <ele>452</ele>
        <time>2021-07-27T07:56:40Z</time>
      </trkpt>
      <trkpt lat="45.89707" lon="3.04173">
        <ele>452</ele>
        <time>2021-07-27T07:56:41Z</time>
      </trkpt>
      <trkpt lat="45.89708" lon="3.04174">
        <ele>452</ele>
        <time>2021-07-27T07:56:42Z</time>
      </trkpt>
      <trkpt lat="45.89708" lon="3.04175">
        <ele>452</ele>
        <time>2021-07-27T07:56:43Z</time>
      </trkpt>
      <trkpt lat="45.89708" lon="3.04177">
        <ele>452</ele>
        <time>2021-07-27T07:56:44Z</time>
      </trkpt>
      <trkpt lat="45.89709" lon="3.04178">
        <ele>452</ele>
        <time>2021-07-27T07:56:45Z</time>
      </trkpt>
      <trkpt lat="45.8971" lon="3.0418">
        <ele>452</ele>
        <time>2021-07-27T07:56:46Z</time>
      </trkpt>
      <trkpt lat="45.8971" lon="3.04181">
        <ele>452</ele>
        <time>2021-07-27T07:56:47Z</time>
      </trkpt>
      <trkpt lat="45.8971" lon="3.04183">
        <ele>452</ele>
        <time>2021-07-27T07:56:48Z</time>
      </trkpt>
      <trkpt lat="45.89711" lon="3.04184">
        <ele>452</ele>
        <time>2021-07-27T07:56:49Z</time>
      </trkpt>
      <trkpt lat="45.89711" lon="3.04186">
        <ele>452</ele>
        <time>2021-07-27T07:56:50Z</time>
      </trkpt>
      <trkpt lat="45.89712" lon="3.04187">
        <ele>452</ele>
        <time>2021-07-27T07:56:51Z</time>
      </trkpt>
      <trkpt lat="45.89713" lon="3.04188">
        <ele>452</ele>
        <time>2021-07-27T07:56:52Z</time>
      </trkpt>
      <trkpt lat="45.89713" lon="3.0419">
        <ele>452</ele>
        <time>2021-07-27T07:56:53Z</time>
      </trkpt>
      <trkpt lat="45.89713" lon="3.04191">
        <ele>452</ele>
        <time>2021-07-27T07:56:54Z</time>
      </trkpt>
      <trkpt lat="45.89713" lon="3.04192">
        <ele>452</ele>
        <time>2021-07-27T07:56:55Z</time>
      </trkpt>
      <trkpt lat="45.89714" lon="3.04194">
        <ele>452</ele>
        <time>2021-07-27T07:56:56Z</time>
      </trkpt>
      <trkpt lat="45.89714" lon="3.04195">
        <ele>452</ele>
        <time>2021-07-27T07:56:57Z</time>
      </trkpt>
      <trkpt lat="45.89715" lon="3.04197">
        <ele>452</ele>
        <time>2021-07-27T07:56:58Z</time>
      </trkpt>
      <trkpt lat="45.89715" lon="3.04198">
        <ele>452</ele>
        <time>2021-07-27T07:56:59Z</time>
      </trkpt>
      <trkpt lat="45.89716" lon="3.042">
        <ele>452</ele>
        <time>2021-07-27T07:57:00Z</time>
      </trkpt>
      <trkpt lat="45.89716" lon="3.04202">
        <ele>452</ele>
        <time>2021-07-27T07:57:01Z</time>
      </trkpt>
      <trkpt lat="45.89718" lon="3.04203">
        <ele>452</ele>
        <time>2021-07-27T07:57:02Z</time>
      </trkpt>
      <trkpt lat="45.89719" lon="3.04205">
        <ele>452</ele>
        <time>2021-07-27T07:57:03Z</time>
      </trkpt>
      <trkpt lat="45.89719" lon="3.04206">
        <ele>452</ele>
        <time>2021-07-27T07:57:04Z</time>
      </trkpt>
      <trkpt lat="45.89719" lon="3.04207">
        <ele>452</ele>
        <time>2021-07-27T07:57:05Z</time>
      </trkpt>
      <trkpt lat="45.8972" lon="3.04209">
        <ele>452</ele>
        <time>2021-07-27T07:57:06Z</time>
      </trkpt>
      <trkpt lat="45.89721" lon="3.0421">
        <ele>452</ele>
        <time>2021-07-27T07:57:07Z</time>
      </trkpt>
      <trkpt lat="45.89721" lon="3.04211">
        <ele>452</ele>
        <time>2021-07-27T07:57:08Z</time>
      </trkpt>
      <trkpt lat="45.89722" lon="3.04213">
        <ele>452</ele>
        <time>2021-07-27T07:57:09Z</time>
      </trkpt>
      <trkpt lat="45.89722" lon="3.04214">
        <ele>452</ele>
        <time>2021-07-27T07:57:10Z</time>
      </trkpt>
      <trkpt lat="45.89722" lon="3.04215">
        <ele>452</ele>
        <time>2021-07-27T07:57:11Z</time>
      </trkpt>
      <trkpt lat="45.89724" lon="3.04217">
        <ele>452</ele>
        <time>2021-07-27T07:57:12Z</time>
      </trkpt>
      <trkpt lat="45.89724" lon="3.04219">
        <ele>452</ele>
        <time>2021-07-27T07:57:13Z</time>
      </trkpt>
      <trkpt lat="45.89725" lon="3.0422">
        <ele>452</ele>
        <time>2021-07-27T07:57:14Z</time>
      </trkpt>
      <trkpt lat="45.89726" lon="3.04222">
        <ele>452</ele>
        <time>2021-07-27T07:57:15Z</time>
      </trkpt>
      <trkpt lat="45.89727" lon="3.04224">
        <ele>452</ele>
        <time>2021-07-27T07:57:16Z</time>
      </trkpt>
      <trkpt lat="45.89727" lon="3.04226">
        <ele>452</ele>
        <time>2021-07-27T07:57:17Z</time>
      </trkpt>
      <trkpt lat="45.89728" lon="3.04228">
        <ele>452</ele>
        <time>2021-07-27T07:57:18Z</time>
      </trkpt>
      <trkpt lat="45.89729" lon="3.04229">
        <ele>452</ele>
        <time>2021-07-27T07:57:19Z</time>
      </trkpt>
      <trkpt lat="45.89731" lon="3.04231">
        <ele>452</ele>
        <time>2021-07-27T07:57:20Z</time>
      </trkpt>
      <trkpt lat="45.89731" lon="3.04232">
        <ele>452</ele>
        <time>2021-07-27T07:57:21Z</time>
      </trkpt>
      <trkpt lat="45.89732" lon="3.04233">
        <ele>452</ele>
        <time>2021-07-27T07:57:22Z</time>
      </trkpt>
      <trkpt lat="45.89733" lon="3.04234">
        <ele>452</ele>
        <time>2021-07-27T07:57:23Z</time>
      </trkpt>
      <trkpt lat="45.89734" lon="3.04235">
        <ele>452</ele>
        <time>2021-07-27T07:57:24Z</time>
      </trkpt>
      <trkpt lat="45.89734" lon="3.04236">
        <ele>452</ele>
        <time>2021-07-27T07:57:25Z</time>
      </trkpt>
      <trkpt lat="45.89735" lon="3.04237">
        <ele>452</ele>
        <time>2021-07-27T07:57:26Z</time>
      </trkpt>
      <trkpt lat="45.89736" lon="3.04238">
        <ele>452</ele>
        <time>2021-07-27T07:57:27Z</time>
      </trkpt>
      <trkpt lat="45.89737" lon="3.04239">
        <ele>452</ele>
        <time>2021-07-27T07:57:28Z</time>
      </trkpt>
      <trkpt lat="45.89738" lon="3.0424">
        <ele>452</ele>
        <time>2021-07-27T07:57:29Z</time>
      </trkpt>
      <trkpt lat="45.89739" lon="3.04241">
        <ele>452</ele>
        <time>2021-07-27T07:57:30Z</time>
      </trkpt>
      <trkpt lat="45.8974" lon="3.04242">
        <ele>452</ele>
        <time>2021-07-27T07:57:31Z</time>
      </trkpt>
      <trkpt lat="45.8974" lon="3.04243">
        <ele>452</ele>
        <time>2021-07-27T07:57:32Z</time>
      </trkpt>
      <trkpt lat="45.89741" lon="3.04244">
        <ele>452</ele>
        <time>2021-07-27T07:57:34Z</time>
      </trkpt>
      <trkpt lat="45.89742" lon="3.04245">
        <ele>452</ele>
        <time>2021-07-27T07:57:35Z</time>
      </trkpt>
      <trkpt lat="45.89745" lon="3.04248">
        <ele>452</ele>
        <time>2021-07-27T07:57:36Z</time>
      </trkpt>
      <trkpt lat="45.89745" lon="3.04248">
        <ele>452</ele>
        <time>2021-07-27T07:57:37Z</time>
      </trkpt>
      <trkpt lat="45.89745" lon="3.04249">
        <ele>452</ele>
        <time>2021-07-27T07:57:38Z</time>
      </trkpt>
      <trkpt lat="45.89746" lon="3.0425">
        <ele>452</ele>
        <time>2021-07-27T07:57:39Z</time>
      </trkpt>
      <trkpt lat="45.89747" lon="3.04251">
        <ele>452</ele>
        <time>2021-07-27T07:57:40Z</time>
      </trkpt>
      <trkpt lat="45.89748" lon="3.04252">
        <ele>452</ele>
        <time>2021-07-27T07:57:41Z</time>
      </trkpt>
      <trkpt lat="45.89749" lon="3.04254">
        <ele>452</ele>
        <time>2021-07-27T07:57:42Z</time>
      </trkpt>
      <trkpt lat="45.8975" lon="3.04256">
        <ele>452</ele>
        <time>2021-07-27T07:57:43Z</time>
      </trkpt>
      <trkpt lat="45.89751" lon="3.04257">
        <ele>452</ele>
        <time>2021-07-27T07:57:44Z</time>
      </trkpt>
      <trkpt lat="45.89751" lon="3.04259">
        <ele>452</ele>
        <time>2021-07-27T07:57:45Z</time>
      </trkpt>
      <trkpt lat="45.89752" lon="3.04261">
        <ele>452</ele>
        <time>2021-07-27T07:57:46Z</time>
      </trkpt>
      <trkpt lat="45.89752" lon="3.04262">
        <ele>452</ele>
        <time>2021-07-27T07:57:47Z</time>
      </trkpt>
      <trkpt lat="45.89752" lon="3.04264">
        <ele>452</ele>
        <time>2021-07-27T07:57:47Z</time>
      </trkpt>
      <trkpt lat="45.89753" lon="3.04266">
        <ele>452</ele>
        <time>2021-07-27T07:57:48Z</time>
      </trkpt>
      <trkpt lat="45.89753" lon="3.04268">
        <ele>452</ele>
        <time>2021-07-27T07:57:49Z</time>
      </trkpt>
      <trkpt lat="45.89753" lon="3.0427">
        <ele>452</ele>
        <time>2021-07-27T07:57:50Z</time>
      </trkpt>
      <trkpt lat="45.89753" lon="3.04272">
        <ele>452</ele>
        <time>2021-07-27T07:57:51Z</time>
      </trkpt>
      <trkpt lat="45.89753" lon="3.04274">
        <ele>452</ele>
        <time>2021-07-27T07:57:52Z</time>
      </trkpt>
      <trkpt lat="45.89752" lon="3.04275">
        <ele>452</ele>
        <time>2021-07-27T07:57:53Z</time>
      </trkpt>
      <trkpt lat="45.89752" lon="3.04277">
        <ele>452</ele>
        <time>2021-07-27T07:57:54Z</time>
      </trkpt>
      <trkpt lat="45.89751" lon="3.04278">
        <ele>452</ele>
        <time>2021-07-27T07:57:55Z</time>
      </trkpt>
      <trkpt lat="45.89751" lon="3.04279">
        <ele>452</ele>
        <time>2021-07-27T07:57:56Z</time>
      </trkpt>
      <trkpt lat="45.8975" lon="3.0428">
        <ele>452</ele>
        <time>2021-07-27T07:57:57Z</time>
      </trkpt>
      <trkpt lat="45.89749" lon="3.04281">
        <ele>452</ele>
        <time>2021-07-27T07:57:58Z</time>
      </trkpt>
      <trkpt lat="45.89748" lon="3.04282">
        <ele>452</ele>
        <time>2021-07-27T07:57:59Z</time>
      </trkpt>
      <trkpt lat="45.89747" lon="3.04282">
        <ele>452</ele>
        <time>2021-07-27T07:58:00Z</time>
      </trkpt>
      <trkpt lat="45.89746" lon="3.04282">
        <ele>452</ele>
        <time>2021-07-27T07:58:01Z</time>
      </trkpt>
      <trkpt lat="45.89745" lon="3.04282">
        <ele>452</ele>
        <time>2021-07-27T07:58:02Z</time>
      </trkpt>
      <trkpt lat="45.89744" lon="3.04282">
        <ele>452</ele>
        <time>2021-07-27T07:58:03Z</time>
      </trkpt>
      <trkpt lat="45.89743" lon="3.04282">
        <ele>452</ele>
        <time>2021-07-27T07:58:04Z</time>
      </trkpt>
      <trkpt lat="45.89743" lon="3.04282">
        <ele>452</ele>
        <time>2021-07-27T07:58:05Z</time>
      </trkpt>
      <trkpt lat="45.89742" lon="3.04283">
        <ele>452</ele>
        <time>2021-07-27T07:58:06Z</time>
      </trkpt>
      <trkpt lat="45.89741" lon="3.04283">
        <ele>452</ele>
        <time>2021-07-27T07:58:07Z</time>
      </trkpt>
      <trkpt lat="45.8974" lon="3.04284">
        <ele>452</ele>
        <time>2021-07-27T07:58:08Z</time>
      </trkpt>
      <trkpt lat="45.8974" lon="3.04285">
        <ele>452</ele>
        <time>2021-07-27T07:58:09Z</time>
      </trkpt>
      <trkpt lat="45.89739" lon="3.04287">
        <ele>452</ele>
        <time>2021-07-27T07:58:10Z</time>
      </trkpt>
      <trkpt lat="45.89738" lon="3.04288">
        <ele>452</ele>
        <time>2021-07-27T07:58:11Z</time>
      </trkpt>
      <trkpt lat="45.89737" lon="3.0429">
        <ele>452</ele>
        <time>2021-07-27T07:58:12Z</time>
      </trkpt>
      <trkpt lat="45.89737" lon="3.04291">
        <ele>452</ele>
        <time>2021-07-27T07:58:13Z</time>
      </trkpt>
      <trkpt lat="45.89735" lon="3.04293">
        <ele>452</ele>
        <time>2021-07-27T07:58:14Z</time>
      </trkpt>
      <trkpt lat="45.89735" lon="3.04294">
        <ele>452</ele>
        <time>2021-07-27T07:58:15Z</time>
      </trkpt>
      <trkpt lat="45.89734" lon="3.04296">
        <ele>452</ele>
        <time>2021-07-27T07:58:16Z</time>
      </trkpt>
      <trkpt lat="45.89733" lon="3.04297">
        <ele>452</ele>
        <time>2021-07-27T07:58:17Z</time>
      </trkpt>
      <trkpt lat="45.89732" lon="3.04299">
        <ele>452</ele>
        <time>2021-07-27T07:58:18Z</time>
      </trkpt>
      <trkpt lat="45.89731" lon="3.04301">
        <ele>452</ele>
        <time>2021-07-27T07:58:19Z</time>
      </trkpt>
      <trkpt lat="45.89729" lon="3.04303">
        <ele>452</ele>
        <time>2021-07-27T07:58:20Z</time>
      </trkpt>
      <trkpt lat="45.89728" lon="3.04305">
        <ele>452</ele>
        <time>2021-07-27T07:58:21Z</time>
      </trkpt>
      <trkpt lat="45.89727" lon="3.04307">
        <ele>452</ele>
        <time>2021-07-27T07:58:22Z</time>
      </trkpt>
      <trkpt lat="45.89727" lon="3.04308">
        <ele>452</ele>
        <time>2021-07-27T07:58:23Z</time>
      </trkpt>
      <trkpt lat="45.89726" lon="3.0431">
        <ele>452</ele>
        <time>2021-07-27T07:58:24Z</time>
      </trkpt>
      <trkpt lat="45.89725" lon="3.04312">
        <ele>452</ele>
        <time>2021-07-27T07:58:25Z</time>
      </trkpt>
      <trkpt lat="45.89724" lon="3.04314">
        <ele>452</ele>
        <time>2021-07-27T07:58:26Z</time>
      </trkpt>
      <trkpt lat="45.89724" lon="3.04316">
        <ele>452</ele>
        <time>2021-07-27T07:58:27Z</time>
      </trkpt>
      <trkpt lat="45.89722" lon="3.04318">
        <ele>452</ele>
        <time>2021-07-27T07:58:28Z</time>
      </trkpt>
      <trkpt lat="45.89722" lon="3.0432">
        <ele>452</ele>
        <time>2021-07-27T07:58:29Z</time>
      </trkpt>
      <trkpt lat="45.89721" lon="3.04322">
        <ele>452</ele>
        <time>2021-07-27T07:58:30Z</time>
      </trkpt>
      <trkpt lat="45.89719" lon="3.04324">
        <ele>452</ele>
        <time>2021-07-27T07:58:32Z</time>
      </trkpt>
      <trkpt lat="45.89719" lon="3.04326">
        <ele>452</ele>
        <time>2021-07-27T07:58:33Z</time>
      </trkpt>
      <trkpt lat="45.89718" lon="3.04333">
        <ele>452</ele>
        <time>2021-07-27T07:58:34Z</time>
      </trkpt>
      <trkpt lat="45.89718" lon="3.04333">
        <ele>452</ele>
        <time>2021-07-27T07:58:35Z</time>
      </trkpt>
      <trkpt lat="45.89718" lon="3.04334">
        <ele>452</ele>
        <time>2021-07-27T07:58:36Z</time>
      </trkpt>
      <trkpt lat="45.89718" lon="3.04336">
        <ele>452</ele>
        <time>2021-07-27T07:58:37Z</time>
      </trkpt>
      <trkpt lat="45.89718" lon="3.04337">
        <ele>452</ele>
        <time>2021-07-27T07:58:38Z</time>
      </trkpt>
      <trkpt lat="45.89718" lon="3.04339">
        <ele>452</ele>
        <time>2021-07-27T07:58:39Z</time>
      </trkpt>
      <trkpt lat="45.89718" lon="3.04341">
        <ele>452</ele>
        <time>2021-07-27T07:58:40Z</time>
      </trkpt>
      <trkpt lat="45.89719" lon="3.04343">
        <ele>452</ele>
        <time>2021-07-27T07:58:41Z</time>
      </trkpt>
      <trkpt lat="45.89719" lon="3.04345">
        <ele>452</ele>
        <time>2021-07-27T07:58:42Z</time>
      </trkpt>
      <trkpt lat="45.89719" lon="3.04346">
        <ele>452</ele>
        <time>2021-07-27T07:58:43Z</time>
      </trkpt>
      <trkpt lat="45.89719" lon="3.04348">
        <ele>452</ele>
        <time>2021-07-27T07:58:44Z</time>
      </trkpt>
      <trkpt lat="45.89719" lon="3.04349">
        <ele>452</ele>
        <time>2021-07-27T07:58:45Z</time>
      </trkpt>
      <trkpt lat="45.89719" lon="3.04351">
        <ele>452</ele>
        <time>2021-07-27T07:58:46Z</time>
      </trkpt>
      <trkpt lat="45.89719" lon="3.04352">
        <ele>452</ele>
        <time>2021-07-27T07:58:47Z</time>
      </trkpt>
      <trkpt lat="45.89719" lon="3.04353">
        <ele>452</ele>
        <time>2021-07-27T07:58:48Z</time>
      </trkpt>
      <trkpt lat="45.89719" lon="3.04354">
        <ele>452</ele>
        <time>2021-07-27T07:58:49Z</time>
      </trkpt>
      <trkpt lat="45.89719" lon="3.04356">
        <ele>452</ele>
        <time>2021-07-27T07:58:50Z</time>
      </trkpt>
      <trkpt lat="45.89719" lon="3.04357">
        <ele>452</ele>
        <time>2021-07-27T07:58:51Z</time>
      </trkpt>
      <trkpt lat="45.89719" lon="3.04358">
        <ele>452</ele>
        <time>2021-07-27T07:58:52Z</time>
      </trkpt>
      <trkpt lat="45.8972" lon="3.04359">
        <ele>452</ele>
        <time>2021-07-27T07:58:53Z</time>
      </trkpt>
      <trkpt lat="45.89721" lon="3.0436">
        <ele>452</ele>
        <time>2021-07-27T07:58:54Z</time>
      </trkpt>
      <trkpt lat="45.89721" lon="3.04361">
        <ele>452</ele>
        <time>2021-07-27T07:58:55Z</time>
      </trkpt>
      <trkpt lat="45.89721" lon="3.04362">
        <ele>452</ele>
        <time>2021-07-27T07:58:56Z</time>
      </trkpt>
      <trkpt lat="45.89721" lon="3.04363">
        <ele>452</ele>
        <time>2021-07-27T07:58:57Z</time>
      </trkpt>
      <trkpt lat="45.89722" lon="3.04364">
        <ele>452</ele>
        <time>2021-07-27T07:58:58Z</time>
      </trkpt>
      <trkpt lat="45.89721" lon="3.04365">
        <ele>452</ele>
        <time>2021-07-27T07:58:59Z</time>
      </trkpt>
      <trkpt lat="45.89721" lon="3.04366">
        <ele>452</ele>
        <time>2021-07-27T07:59:00Z</time>
      </trkpt>
      <trkpt lat="45.89721" lon="3.04367">
        <ele>452</ele>
        <time>2021-07-27T07:59:01Z</time>
      </trkpt>
      <trkpt lat="45.89721" lon="3.04368">
        <ele>452</ele>
        <time>2021-07-27T07:59:02Z</time>
      </trkpt>
      <trkpt lat="45.89721" lon="3.04369">
        <ele>452</ele>
        <time>2021-07-27T07:59:03Z</time>
      </trkpt>
      <trkpt lat="45.89722" lon="3.0437">
        <ele>452</ele>
        <time>2021-07-27T07:59:04Z</time>
      </trkpt>
      <trkpt lat="45.89722" lon="3.04371">
        <ele>452</ele>
        <time>2021-07-27T07:59:05Z</time>
      </trkpt>
      <trkpt lat="45.89722" lon="3.04372">
        <ele>452</ele>
        <time>2021-07-27T07:59:06Z</time>
      </trkpt>
      <trkpt lat="45.89722" lon="3.04373">
        <ele>452</ele>
        <time>2021-07-27T07:59:07Z</time>
      </trkpt>
      <trkpt lat="45.89722" lon="3.04374">
        <ele>452</ele>
        <time>2021-07-27T07:59:08Z</time>
      </trkpt>
      <trkpt lat="45.89722" lon="3.04375">
        <ele>452</ele>
        <time>2021-07-27T07:59:09Z</time>
      </trkpt>
      <trkpt lat="45.89723" lon="3.04376">
        <ele>452</ele>
        <time>2021-07-27T07:59:10Z</time>
      </trkpt>
      <trkpt lat="45.89724" lon="3.04377">
        <ele>452</ele>
        <time>2021-07-27T07:59:11Z</time>
      </trkpt>
      <trkpt lat="45.89724" lon="3.04378">
        <ele>452</ele>
        <time>2021-07-27T07:59:12Z</time>
      </trkpt>
      <trkpt lat="45.89725" lon="3.04379">
        <ele>452</ele>
        <time>2021-07-27T07:59:13Z</time>
      </trkpt>
      <trkpt lat="45.89726" lon="3.0438">
        <ele>452</ele>
        <time>2021-07-27T07:59:14Z</time>
      </trkpt>
      <trkpt lat="45.89727" lon="3.04382">
        <ele>452</ele>
        <time>2021-07-27T07:59:15Z</time>
      </trkpt>
      <trkpt lat="45.89728" lon="3.04383">
        <ele>452</ele>
        <time>2021-07-27T07:59:16Z</time>
      </trkpt>
      <trkpt lat="45.89728" lon="3.04384">
        <ele>452</ele>
        <time>2021-07-27T07:59:17Z</time>
      </trkpt>
      <trkpt lat="45.89729" lon="3.04386">
        <ele>452</ele>
        <time>2021-07-27T07:59:18Z</time>
      </trkpt>
      <trkpt lat="45.89729" lon="3.04387">
        <ele>452</ele>
        <time>2021-07-27T07:59:19Z</time>
      </trkpt>
      <trkpt lat="45.89729" lon="3.04389">
        <ele>452</ele>
        <time>2021-07-27T07:59:20Z</time>
      </trkpt>
      <trkpt lat="45.89729" lon="3.0439">
        <ele>452</ele>
        <time>2021-07-27T07:59:21Z</time>
      </trkpt>
      <trkpt lat="45.89729" lon="3.04392">
        <ele>452</ele>
        <time>2021-07-27T07:59:22Z</time>
      </trkpt>
      <trkpt lat="45.89728" lon="3.04394">
        <ele>452</ele>
        <time>2021-07-27T07:59:23Z</time>
      </trkpt>
      <trkpt lat="45.89728" lon="3.04396">
        <ele>452</ele>
        <time>2021-07-27T07:59:24Z</time>
      </trkpt>
      <trkpt lat="45.89728" lon="3.04399">
        <ele>452</ele>
        <time>2021-07-27T07:59:25Z</time>
      </trkpt>
      <trkpt lat="45.89727" lon="3.04401">
        <ele>452</ele>
        <time>2021-07-27T07:59:26Z</time>
      </trkpt>
      <trkpt lat="45.89727" lon="3.04403">
        <ele>452</ele>
        <time>2021-07-27T07:59:27Z</time>
      </trkpt>
      <trkpt lat="45.89726" lon="3.04405">
        <ele>452</ele>
        <time>2021-07-27T07:59:28Z</time>
      </trkpt>
      <trkpt lat="45.89726" lon="3.04407">
        <ele>452</ele>
        <time>2021-07-27T07:59:29Z</time>
      </trkpt>
      <trkpt lat="45.89726" lon="3.04409">
        <ele>452</ele>
        <time>2021-07-27T07:59:30Z</time>
      </trkpt>
      <trkpt lat="45.89725" lon="3.04411">
        <ele>452</ele>
        <time>2021-07-27T07:59:32Z</time>
      </trkpt>
      <trkpt lat="45.89724" lon="3.04412">
        <ele>452</ele>
        <time>2021-07-27T07:59:33Z</time>
      </trkpt>
      <trkpt lat="45.89721" lon="3.04418">
        <ele>452</ele>
        <time>2021-07-27T07:59:34Z</time>
      </trkpt>
      <trkpt lat="45.89721" lon="3.04418">
        <ele>452</ele>
        <time>2021-07-27T07:59:35Z</time>
      </trkpt>
      <trkpt lat="45.89721" lon="3.04419">
        <ele>452</ele>
        <time>2021-07-27T07:59:36Z</time>
      </trkpt>
      <trkpt lat="45.8972" lon="3.0442">
        <ele>452</ele>
        <time>2021-07-27T07:59:37Z</time>
      </trkpt>
      <trkpt lat="45.89719" lon="3.04421">
        <ele>452</ele>
        <time>2021-07-27T07:59:38Z</time>
      </trkpt>
      <trkpt lat="45.89719" lon="3.04423">
        <ele>452</ele>
        <time>2021-07-27T07:59:39Z</time>
      </trkpt>
      <trkpt lat="45.89718" lon="3.04425">
        <ele>452</ele>
        <time>2021-07-27T07:59:40Z</time>
      </trkpt>
      <trkpt lat="45.89716" lon="3.04426">
        <ele>452</ele>
        <time>2021-07-27T07:59:41Z</time>
      </trkpt>
      <trkpt lat="45.89716" lon="3.04428">
        <ele>452</ele>
        <time>2021-07-27T07:59:42Z</time>
      </trkpt>
      <trkpt lat="45.89715" lon="3.0443">
        <ele>452</ele>
        <time>2021-07-27T07:59:43Z</time>
      </trkpt>
      <trkpt lat="45.89714" lon="3.04431">
        <ele>452</ele>
        <time>2021-07-27T07:59:44Z</time>
      </trkpt>
      <trkpt lat="45.89713" lon="3.04433">
        <ele>452</ele>
        <time>2021-07-27T07:59:45Z</time>
      </trkpt>
      <trkpt lat="45.89713" lon="3.04434">
        <ele>452</ele>
        <time>2021-07-27T07:59:46Z</time>
      </trkpt>
      <trkpt lat="45.89712" lon="3.04436">
        <ele>452</ele>
        <time>2021-07-27T07:59:47Z</time>
      </trkpt>
      <trkpt lat="45.89711" lon="3.04437">
        <ele>452</ele>
        <time>2021-07-27T07:59:48Z</time>
      </trkpt>
      <trkpt lat="45.8971" lon="3.04438">
        <ele>452</ele>
        <time>2021-07-27T07:59:49Z</time>
      </trkpt>
      <trkpt lat="45.8971" lon="3.04439">
        <ele>452</ele>
        <time>2021-07-27T07:59:50Z</time>
      </trkpt>
      <trkpt lat="45.8971" lon="3.0444">
        <ele>452</ele>
        <time>2021-07-27T07:59:51Z</time>
      </trkpt>
      <trkpt lat="45.89709" lon="3.04441">
        <ele>452</ele>
        <time>2021-07-27T07:59:52Z</time>
      </trkpt>
      <trkpt lat="45.89708" lon="3.04442">
        <ele>452</ele>
        <time>2021-07-27T07:59:53Z</time>
      </trkpt>
      <trkpt lat="45.89707" lon="3.04443">
        <ele>452</ele>
        <time>2021-07-27T07:59:54Z</time>
      </trkpt>
      <trkpt lat="45.89707" lon="3.04444">
        <ele>452</ele>
        <time>2021-07-27T07:59:55Z</time>
      </trkpt>
      <trkpt lat="45.89706" lon="3.04446">
        <ele>452</ele>
        <time>2021-07-27T07:59:56Z</time>
      </trkpt>
      <trkpt lat="45.89705" lon="3.04448">
        <ele>452</ele>
        <time>2021-07-27T07:59:57Z</time>
      </trkpt>
      <trkpt lat="45.89705" lon="3.0445">
        <ele>452</ele>
        <time>2021-07-27T07:59:58Z</time>
      </trkpt>
      <trkpt lat="45.89704" lon="3.04451">
        <ele>452</ele>
        <time>2021-07-27T07:59:59Z</time>
      </trkpt>
      <trkpt lat="45.89704" lon="3.04453">
        <ele>452</ele>
        <time>2021-07-27T08:00:00Z</time>
      </trkpt>
      <trkpt lat="45.89703" lon="3.04455">
        <ele>452</ele>
        <time>2021-07-27T08:00:01Z</time>
      </trkpt>
      <trkpt lat="45.89703" lon="3.04456">
        <ele>452</ele>
        <time>2021-07-27T08:00:02Z</time>
      </trkpt>
      <trkpt lat="45.89702" lon="3.04458">
        <ele>452</ele>
        <time>2021-07-27T08:00:03Z</time>
      </trkpt>
      <trkpt lat="45.89702" lon="3.04459">
        <ele>452</ele>
        <time>2021-07-27T08:00:04Z</time>
      </trkpt>
      <trkpt lat="45.89702" lon="3.04461">
        <ele>452</ele>
        <time>2021-07-27T08:00:05Z</time>
      </trkpt>
      <trkpt lat="45.89702" lon="3.04462">
        <ele>452</ele>
        <time>2021-07-27T08:00:06Z</time>
      </trkpt>
      <trkpt lat="45.89702" lon="3.04463">
        <ele>452</ele>
        <time>2021-07-27T08:00:07Z</time>
      </trkpt>
      <trkpt lat="45.89702" lon="3.04464">
        <ele>452</ele>
        <time>2021-07-27T08:00:08Z</time>
      </trkpt>
      <trkpt lat="45.89702" lon="3.04465">
        <ele>452</ele>
        <time>2021-07-27T08:00:09Z</time>
      </trkpt>
      <trkpt lat="45.89702" lon="3.04466">
        <ele>452</ele>
        <time>2021-07-27T08:00:10Z</time>
      </trkpt>
      <trkpt lat="45.89702" lon="3.04468">
        <ele>452</ele>
        <time>2021-07-27T08:00:11Z</time>
      </trkpt>
      <trkpt lat="45.89702" lon="3.04469">
        <ele>452</ele>
        <time>2021-07-27T08:00:12Z</time>
      </trkpt>
      <trkpt lat="45.89702" lon="3.04471">
        <ele>452</ele>
        <time>2021-07-27T08:00:13Z</time>
      </trkpt>
      <trkpt lat="45.89702" lon="3.04472">
        <ele>452</ele>
        <time>2021-07-27T08:00:14Z</time>
      </trkpt>
      <trkpt lat="45.89702" lon="3.04474">
        <ele>452</ele>
        <time>2021-07-27T08:00:15Z</time>
      </trkpt>
      <trkpt lat="45.89702" lon="3.04475">
        <ele>452</ele>
        <time>2021-07-27T08:00:16Z</time>
      </trkpt>
      <trkpt lat="45.89702" lon="3.04477">
        <ele>452</ele>
        <time>2021-07-27T08:00:17Z</time>
      </trkpt>
      <trkpt lat="45.89702" lon="3.04479">
        <ele>452</ele>
        <time>2021-07-27T08:00:18Z</time>
      </trkpt>
      <trkpt lat="45.89702" lon="3.0448">
        <ele>452</ele>
        <time>2021-07-27T08:00:19Z</time>
      </trkpt>
      <trkpt lat="45.89702" lon="3.04482">
        <ele>452</ele>
        <time>2021-07-27T08:00:20Z</time>
      </trkpt>
      <trkpt lat="45.89702" lon="3.04484">
        <ele>452</ele>
        <time>2021-07-27T08:00:21Z</time>
      </trkpt>
      <trkpt lat="45.89701" lon="3.04485">
        <ele>452</ele>
        <time>2021-07-27T08:00:22Z</time>
      </trkpt>
      <trkpt lat="45.89701" lon="3.04487">
        <ele>452</ele>
        <time>2021-07-27T08:00:23Z</time>
      </trkpt>
      <trkpt lat="45.89701" lon="3.04489">
        <ele>452</ele>
        <time>2021-07-27T08:00:24Z</time>
      </trkpt>
      <trkpt lat="45.89701" lon="3.04491">
        <ele>452</ele>
        <time>2021-07-27T08:00:25Z</time>
      </trkpt>
      <trkpt lat="45.89701" lon="3.04492">
        <ele>452</ele>
        <time>2021-07-27T08:00:26Z</time>
      </trkpt>
      <trkpt lat="45.89701" lon="3.04494">
        <ele>452</ele>
        <time>2021-07-27T08:00:27Z</time>
      </trkpt>
      <trkpt lat="45.89701" lon="3.04495">
        <ele>452</ele>
        <time>2021-07-27T08:00:28Z</time>
      </trkpt>
      <trkpt lat="45.89701" lon="3.04496">
        <ele>452</ele>
        <time>2021-07-27T08:00:29Z</time>
      </trkpt>
      <trkpt lat="45.89702" lon="3.04498">
        <ele>452</ele>
        <time>2021-07-27T08:00:30Z</time>
      </trkpt>
      <trkpt lat="45.89703" lon="3.04499">
        <ele>452</ele>
        <time>2021-07-27T08:00:32Z</time>
      </trkpt>
      <trkpt lat="45.89703" lon="3.045">
        <ele>452</ele>
        <time>2021-07-27T08:00:33Z</time>
      </trkpt>
      <trkpt lat="45.89707" lon="3.04505">
        <ele>452</ele>
        <time>2021-07-27T08:00:34Z</time>
      </trkpt>
      <trkpt lat="45.89707" lon="3.04505">
        <ele>452</ele>
        <time>2021-07-27T08:00:35Z</time>
      </trkpt>
      <trkpt lat="45.89707" lon="3.04506">
        <ele>452</ele>
        <time>2021-07-27T08:00:36Z</time>
      </trkpt>
      <trkpt lat="45.89707" lon="3.04506">
        <ele>452</ele>
        <time>2021-07-27T08:00:37Z</time>
      </trkpt>
      <trkpt lat="45.89707" lon="3.04506">
        <ele>452</ele>
        <time>2021-07-27T08:00:38Z</time>
      </trkpt>
      <trkpt lat="45.89708" lon="3.04507">
        <ele>452</ele>
        <time>2021-07-27T08:00:39Z</time>
      </trkpt>
      <trkpt lat="45.89708" lon="3.04508">
        <ele>452</ele>
        <time>2021-07-27T08:00:40Z</time>
      </trkpt>
      <trkpt lat="45.89708" lon="3.04508">
        <ele>452</ele>
        <time>2021-07-27T08:00:41Z</time>
      </trkpt>
      <trkpt lat="45.89709" lon="3.04509">
        <ele>452</ele>
        <time>2021-07-27T08:00:42Z</time>
      </trkpt>
      <trkpt lat="45.8971" lon="3.0451">
        <ele>452</ele>
        <time>2021-07-27T08:00:43Z</time>
      </trkpt>
      <trkpt lat="45.8971" lon="3.04511">
        <ele>452</ele>
        <time>2021-07-27T08:00:44Z</time>
      </trkpt>
      <trkpt lat="45.8971" lon="3.04512">
        <ele>452</ele>
        <time>2021-07-27T08:00:45Z</time>
      </trkpt>
      <trkpt lat="45.8971" lon="3.04513">
        <ele>452</ele>
        <time>2021-07-27T08:00:46Z</time>
      </trkpt>
      <trkpt lat="45.8971" lon="3.04514">
        <ele>452</ele>
        <time>2021-07-27T08:00:47Z</time>
      </trkpt>
      <trkpt lat="45.8971" lon="3.04515">
        <ele>452</ele>
        <time>2021-07-27T08:00:48Z</time>
      </trkpt>
      <trkpt lat="45.8971" lon="3.04515">
        <ele>452</ele>
        <time>2021-07-27T08:00:49Z</time>
      </trkpt>
      <trkpt lat="45.8971" lon="3.04517">
        <ele>452</ele>
        <time>2021-07-27T08:00:50Z</time>
      </trkpt>
      <trkpt lat="45.8971" lon="3.04518">
        <ele>452</ele>
        <time>2021-07-27T08:00:51Z</time>
      </trkpt>
      <trkpt lat="45.89711" lon="3.04519">
        <ele>452</ele>
        <time>2021-07-27T08:00:52Z</time>
      </trkpt>
      <trkpt lat="45.89711" lon="3.04519">
        <ele>452</ele>
        <time>2021-07-27T08:00:53Z</time>
      </trkpt>
      <trkpt lat="45.89711" lon="3.0452">
        <ele>452</ele>
        <time>2021-07-27T08:00:54Z</time>
      </trkpt>
      <trkpt lat="45.89713" lon="3.04521">
        <ele>452</ele>
        <time>2021-07-27T08:00:55Z</time>
      </trkpt>
      <trkpt lat="45.89713" lon="3.04521">
        <ele>452</ele>
        <time>2021-07-27T08:00:56Z</time>
      </trkpt>
      <trkpt lat="45.89714" lon="3.04522">
        <ele>452</ele>
        <time>2021-07-27T08:00:57Z</time>
      </trkpt>
      <trkpt lat="45.89715" lon="3.04522">
        <ele>452</ele>
        <time>2021-07-27T08:00:58Z</time>
      </trkpt>
      <trkpt lat="45.89716" lon="3.04522">
        <ele>452</ele>
        <time>2021-07-27T08:00:59Z</time>
      </trkpt>
      <trkpt lat="45.89716" lon="3.04523">
        <ele>452</ele>
        <time>2021-07-27T08:01:00Z</time>
      </trkpt>
      <trkpt lat="45.89717" lon="3.04524">
        <ele>452</ele>
        <time>2021-07-27T08:01:01Z</time>
      </trkpt>
      <trkpt lat="45.89718" lon="3.04524">
        <ele>452</ele>
        <time>2021-07-27T08:01:02Z</time>
      </trkpt>
      <trkpt lat="45.89719" lon="3.04525">
        <ele>452</ele>
        <time>2021-07-27T08:01:03Z</time>
      </trkpt>
      <trkpt lat="45.89719" lon="3.04526">
        <ele>452</ele>
        <time>2021-07-27T08:01:04Z</time>
      </trkpt>
      <trkpt lat="45.89721" lon="3.04527">
        <ele>452</ele>
        <time>2021-07-27T08:01:05Z</time>
      </trkpt>
      <trkpt lat="45.89722" lon="3.04528">
        <ele>452</ele>
        <time>2021-07-27T08:01:06Z</time>
      </trkpt>
      <trkpt lat="45.89722" lon="3.04528">
        <ele>452</ele>
        <time>2021-07-27T08:01:07Z</time>
      </trkpt>
      <trkpt lat="45.89722" lon="3.04529">
        <ele>452</ele>
        <time>2021-07-27T08:01:08Z</time>
      </trkpt>
      <trkpt lat="45.89724" lon="3.0453">
        <ele>452</ele>
        <time>2021-07-27T08:01:09Z</time>
      </trkpt>
      <trkpt lat="45.89724" lon="3.04531">
        <ele>452</ele>
        <time>2021-07-27T08:01:10Z</time>
      </trkpt>
      <trkpt lat="45.89725" lon="3.04532">
        <ele>452</ele>
        <time>2021-07-27T08:01:11Z</time>
      </trkpt>
      <trkpt lat="45.89726" lon="3.04533">
        <ele>452</ele>
        <time>2021-07-27T08:01:12Z</time>
      </trkpt>
      <trkpt lat="45.89726" lon="3.04535">
        <ele>452</ele>
        <time>2021-07-27T08:01:13Z</time>
      </trkpt>
      <trkpt lat="45.89727" lon="3.04536">
        <ele>452</ele>
        <time>2021-07-27T08:01:14Z</time>
      </trkpt>
      <trkpt lat="45.89728" lon="3.04538">
        <ele>452</ele>
        <time>2021-07-27T08:01:15Z</time>
      </trkpt>
      <trkpt lat="45.89728" lon="3.04539">
        <ele>452</ele>
        <time>2021-07-27T08:01:16Z</time>
      </trkpt>
      <trkpt lat="45.89729" lon="3.04541">
        <ele>452</ele>
        <time>2021-07-27T08:01:17Z</time>
      </trkpt>
      <trkpt lat="45.89729" lon="3.04543">
        <ele>452</ele>
        <time>2021-07-27T08:01:18Z</time>
      </trkpt>
      <trkpt lat="45.8973" lon="3.04545">
        <ele>452</ele>
        <time>2021-07-27T08:01:19Z</time>
      </trkpt>
      <trkpt lat="45.8973" lon="3.04548">
        <ele>452</ele>
        <time>2021-07-27T08:01:20Z</time>
      </trkpt>
      <trkpt lat="45.89731" lon="3.0455">
        <ele>452</ele>
        <time>2021-07-27T08:01:21Z</time>
      </trkpt>
      <trkpt lat="45.89731" lon="3.04552">
        <ele>452</ele>
        <time>2021-07-27T08:01:22Z</time>
      </trkpt>
      <trkpt lat="45.89731" lon="3.04554">
        <ele>452</ele>
        <time>2021-07-27T08:01:23Z</time>
      </trkpt>
      <trkpt lat="45.89731" lon="3.04556">
        <ele>452</ele>
        <time>2021-07-27T08:01:24Z</time>
      </trkpt>
      <trkpt lat="45.89731" lon="3.04558">
        <ele>452</ele>
        <time>2021-07-27T08:01:25Z</time>
      </trkpt>
      <trkpt lat="45.8973" lon="3.0456">
        <ele>452</ele>
        <time>2021-07-27T08:01:26Z</time>
      </trkpt>
      <trkpt lat="45.8973" lon="3.04563">
        <ele>452</ele>
        <time>2021-07-27T08:01:27Z</time>
      </trkpt>
      <trkpt lat="45.89729" lon="3.04565">
        <ele>452</ele>
        <time>2021-07-27T08:01:28Z</time>
      </trkpt>
      <trkpt lat="45.89729" lon="3.04567">
        <ele>452</ele>
        <time>2021-07-27T08:01:29Z</time>
      </trkpt>
      <trkpt lat="45.89729" lon="3.04569">
        <ele>452</ele>
        <time>2021-07-27T08:01:30Z</time>
      </trkpt>
      <trkpt lat="45.89729" lon="3.04571">
        <ele>452</ele>
        <time>2021-07-27T08:01:32Z</time>
      </trkpt>
      <trkpt lat="45.89729" lon="3.04573">
        <ele>452</ele>
        <time>2021-07-27T08:01:33Z</time>
      </trkpt>
      <trkpt lat="45.89731" lon="3.0458">
        <ele>452</ele>
        <time>2021-07-27T08:01:34Z</time>
      </trkpt>
      <trkpt lat="45.89731" lon="3.04581">
        <ele>452</ele>
        <time>2021-07-27T08:01:35Z</time>
      </trkpt>
      <trkpt lat="45.89731" lon="3.04582">
        <ele>452</ele>
        <time>2021-07-27T08:01:36Z</time>
      </trkpt>
      <trkpt lat="45.89732" lon="3.04583">
        <ele>452</ele>
        <time>2021-07-27T08:01:37Z</time>
      </trkpt>
      <trkpt lat="45.89732" lon="3.04585">
        <ele>452</ele>
        <time>2021-07-27T08:01:38Z</time>
      </trkpt>
      <trkpt lat="45.89734" lon="3.04586">
        <ele>452</ele>
        <time>2021-07-27T08:01:39Z</time>
      </trkpt>
      <trkpt lat="45.89734" lon="3.04588">
        <ele>452</ele>
        <time>2021-07-27T08:01:40Z</time>
      </trkpt>
      <trkpt lat="45.89734" lon="3.04589">
        <ele>452</ele>
        <time>2021-07-27T08:01:41Z</time>
      </trkpt>
      <trkpt lat="45.89735" lon="3.04591">
        <ele>452</ele>
        <time>2021-07-27T08:01:42Z</time>
      </trkpt>
      <trkpt lat="45.89736" lon="3.04593">
        <ele>452</ele>
        <time>2021-07-27T08:01:43Z</time>
      </trkpt>
      <trkpt lat="45.89736" lon="3.04594">
        <ele>452</ele>
        <time>2021-07-27T08:01:44Z</time>
      </trkpt>
      <trkpt lat="45.89737" lon="3.04597">
        <ele>452</ele>
        <time>2021-07-27T08:01:45Z</time>
      </trkpt>
      <trkpt lat="45.89737" lon="3.04599">
        <ele>452</ele>
        <time>2021-07-27T08:01:46Z</time>
      </trkpt>
      <trkpt lat="45.89737" lon="3.04601">
        <ele>452</ele>
        <time>2021-07-27T08:01:47Z</time>
      </trkpt>
      <trkpt lat="45.89737" lon="3.04603">
        <ele>452</ele>
        <time>2021-07-27T08:01:48Z</time>
      </trkpt>
      <trkpt lat="45.89737" lon="3.04606">
        <ele>452</ele>
        <time>2021-07-27T08:01:49Z</time>
      </trkpt>
      <trkpt lat="45.89737" lon="3.04608">
        <ele>452</ele>
        <time>2021-07-27T08:01:50Z</time>
      </trkpt>
      <trkpt lat="45.89738" lon="3.04611">
        <ele>452</ele>
        <time>2021-07-27T08:01:51Z</time>
      </trkpt>
      <trkpt lat="45.89739" lon="3.04613">
        <ele>452</ele>
        <time>2021-07-27T08:01:52Z</time>
      </trkpt>
      <trkpt lat="45.89739" lon="3.04615">
        <ele>452</ele>
        <time>2021-07-27T08:01:53Z</time>
      </trkpt>
      <trkpt lat="45.8974" lon="3.04617">
        <ele>452</ele>
        <time>2021-07-27T08:01:54Z</time>
      </trkpt>
      <trkpt lat="45.8974" lon="3.0462">
        <ele>452</ele>
        <time>2021-07-27T08:01:55Z</time>
      </trkpt>
      <trkpt lat="45.8974" lon="3.04622">
        <ele>452</ele>
        <time>2021-07-27T08:01:56Z</time>
      </trkpt>
      <trkpt lat="45.89739" lon="3.04624">
        <ele>452</ele>
        <time>2021-07-27T08:01:57Z</time>
      </trkpt>
      <trkpt lat="45.89739" lon="3.04626">
        <ele>452</ele>
        <time>2021-07-27T08:01:58Z</time>
      </trkpt>
      <trkpt lat="45.89739" lon="3.04627">
        <ele>452</ele>
        <time>2021-07-27T08:01:59Z</time>
      </trkpt>
      <trkpt lat="45.89738" lon="3.04629">
        <ele>452</ele>
        <time>2021-07-27T08:02:00Z</time>
      </trkpt>
      <trkpt lat="45.89737" lon="3.04631">
        <ele>452</ele>
        <time>2021-07-27T08:02:01Z</time>
      </trkpt>
      <trkpt lat="45.89737" lon="3.04633">
        <ele>452</ele>
        <time>2021-07-27T08:02:02Z</time>
      </trkpt>
      <trkpt lat="45.89737" lon="3.04635">
        <ele>452</ele>
        <time>2021-07-27T08:02:02Z</time>
      </trkpt>
      <trkpt lat="45.89735" lon="3.04637">
        <ele>452</ele>
        <time>2021-07-27T08:02:03Z</time>
      </trkpt>
      <trkpt lat="45.89735" lon="3.04639">
        <ele>452</ele>
        <time>2021-07-27T08:02:04Z</time>
      </trkpt>
      <trkpt lat="45.89734" lon="3.04641">
        <ele>452</ele>
        <time>2021-07-27T08:02:05Z</time>
      </trkpt>
      <trkpt lat="45.89734" lon="3.04642">
        <ele>452</ele>
        <time>2021-07-27T08:02:06Z</time>
      </trkpt>
      <trkpt lat="45.89733" lon="3.04644">
        <ele>452</ele>
        <time>2021-07-27T08:02:07Z</time>
      </trkpt>
      <trkpt lat="45.89732" lon="3.04645">
        <ele>452</ele>
        <time>2021-07-27T08:02:08Z</time>
      </trkpt>
      <trkpt lat="45.89731" lon="3.04646">
        <ele>452</ele>
        <time>2021-07-27T08:02:09Z</time>
      </trkpt>
      <trkpt lat="45.89731" lon="3.04648">
        <ele>452</ele>
        <time>2021-07-27T08:02:10Z</time>
      </trkpt>
      <trkpt lat="45.8973" lon="3.04649">
        <ele>452</ele>
        <time>2021-07-27T08:02:11Z</time>
      </trkpt>
      <trkpt lat="45.89729" lon="3.04651">
        <ele>452</ele>
        <time>2021-07-27T08:02:12Z</time>
      </trkpt>
      <trkpt lat="45.89728" lon="3.04652">
        <ele>452</ele>
        <time>2021-07-27T08:02:13Z</time>
      </trkpt>
      <trkpt lat="45.89727" lon="3.04653">
        <ele>452</ele>
        <time>2021-07-27T08:02:14Z</time>
      </trkpt>
      <trkpt lat="45.89725" lon="3.04655">
        <ele>452</ele>
        <time>2021-07-27T08:02:15Z</time>
      </trkpt>
      <trkpt lat="45.89724" lon="3.04656">
        <ele>452</ele>
        <time>2021-07-27T08:02:16Z</time>
      </trkpt>
      <trkpt lat="45.89722" lon="3.04657">
        <ele>452</ele>
        <time>2021-07-27T08:02:17Z</time>
      </trkpt>
      <trkpt lat="45.89721" lon="3.04659">
        <ele>452</ele>
        <time>2021-07-27T08:02:18Z</time>
      </trkpt>
      <trkpt lat="45.89719" lon="3.0466">
        <ele>452</ele>
        <time>2021-07-27T08:02:19Z</time>
      </trkpt>
      <trkpt lat="45.89719" lon="3.04661">
        <ele>452</ele>
        <time>2021-07-27T08:02:20Z</time>
      </trkpt>
      <trkpt lat="45.89717" lon="3.04663">
        <ele>452</ele>
        <time>2021-07-27T08:02:21Z</time>
      </trkpt>
      <trkpt lat="45.89716" lon="3.04664">
        <ele>452</ele>
        <time>2021-07-27T08:02:22Z</time>
      </trkpt>
      <trkpt lat="45.89714" lon="3.04665">
        <ele>452</ele>
        <time>2021-07-27T08:02:23Z</time>
      </trkpt>
      <trkpt lat="45.89713" lon="3.04667">
        <ele>452</ele>
        <time>2021-07-27T08:02:24Z</time>
      </trkpt>
      <trkpt lat="45.89712" lon="3.04668">
        <ele>452</ele>
        <time>2021-07-27T08:02:25Z</time>
      </trkpt>
      <trkpt lat="45.8971" lon="3.0467">
        <ele>452</ele>
        <time>2021-07-27T08:02:26Z</time>
      </trkpt>
      <trkpt lat="45.89709" lon="3.04671">
        <ele>452</ele>
        <time>2021-07-27T08:02:27Z</time>
      </trkpt>
      <trkpt lat="45.89708" lon="3.04672">
        <ele>452</ele>
        <time>2021-07-27T08:02:28Z</time>
      </trkpt>
      <trkpt lat="45.89706" lon="3.04673">
        <ele>452</ele>
        <time>2021-07-27T08:02:29Z</time>
      </trkpt>
      <trkpt lat="45.89705" lon="3.04674">
        <ele>452</ele>
        <time>2021-07-27T08:02:30Z</time>
      </trkpt>
      <trkpt lat="45.89703" lon="3.04675">
        <ele>452</ele>
        <time>2021-07-27T08:02:31Z</time>
      </trkpt>
      <trkpt lat="45.89702" lon="3.04675">
        <ele>452</ele>
        <time>2021-07-27T08:02:32Z</time>
      </trkpt>
      <trkpt lat="45.89701" lon="3.04676">
        <ele>452</ele>
        <time>2021-07-27T08:02:33Z</time>
      </trkpt>
      <trkpt lat="45.897" lon="3.04676">
        <ele>452</ele>
        <time>2021-07-27T08:02:34Z</time>
      </trkpt>
      <trkpt lat="45.89698" lon="3.04677">
        <ele>452</ele>
        <time>2021-07-27T08:02:35Z</time>
      </trkpt>
      <trkpt lat="45.89697" lon="3.04677">
        <ele>452</ele>
        <time>2021-07-27T08:02:36Z</time>
      </trkpt>
      <trkpt lat="45.89695" lon="3.04677">
        <ele>452</ele>
        <time>2021-07-27T08:02:37Z</time>
      </trkpt>
      <trkpt lat="45.89694" lon="3.04677">
        <ele>452</ele>
        <time>2021-07-27T08:02:38Z</time>
      </trkpt>
      <trkpt lat="45.89692" lon="3.04678">
        <ele>452</ele>
        <time>2021-07-27T08:02:39Z</time>
      </trkpt>
      <trkpt lat="45.8969" lon="3.04678">
        <ele>452</ele>
        <time>2021-07-27T08:02:40Z</time>
      </trkpt>
      <trkpt lat="45.89689" lon="3.04679">
        <ele>452</ele>
        <time>2021-07-27T08:02:41Z</time>
      </trkpt>
      <trkpt lat="45.89687" lon="3.04679">
        <ele>452</ele>
        <time>2021-07-27T08:02:42Z</time>
      </trkpt>
      <trkpt lat="45.89685" lon="3.0468">
        <ele>452</ele>
        <time>2021-07-27T08:02:43Z</time>
      </trkpt>
      <trkpt lat="45.89683" lon="3.0468">
        <ele>452</ele>
        <time>2021-07-27T08:02:44Z</time>
      </trkpt>
      <trkpt lat="45.89682" lon="3.04681">
        <ele>452</ele>
        <time>2021-07-27T08:02:45Z</time>
      </trkpt>
      <trkpt lat="45.8968" lon="3.04681">
        <ele>452</ele>
        <time>2021-07-27T08:02:46Z</time>
      </trkpt>
      <trkpt lat="45.89678" lon="3.04681">
        <ele>452</ele>
        <time>2021-07-27T08:02:47Z</time>
      </trkpt>
      <trkpt lat="45.89677" lon="3.04681">
        <ele>452</ele>
        <time>2021-07-27T08:02:48Z</time>
      </trkpt>
      <trkpt lat="45.89675" lon="3.04681">
        <ele>452</ele>
        <time>2021-07-27T08:02:49Z</time>
      </trkpt>
      <trkpt lat="45.89674" lon="3.04681">
        <ele>452</ele>
        <time>2021-07-27T08:02:50Z</time>
      </trkpt>
      <trkpt lat="45.89672" lon="3.04681">
        <ele>452</ele>
        <time>2021-07-27T08:02:51Z</time>
      </trkpt>
      <trkpt lat="45.89671" lon="3.0468">
        <ele>452</ele>
        <time>2021-07-27T08:02:52Z</time>
      </trkpt>
      <trkpt lat="45.89669" lon="3.0468">
        <ele>452</ele>
        <time>2021-07-27T08:02:53Z</time>
      </trkpt>
      <trkpt lat="45.89668" lon="3.0468">
        <ele>452</ele>
        <time>2021-07-27T08:02:54Z</time>
      </trkpt>
      <trkpt lat="45.89666" lon="3.0468">
        <ele>452</ele>
        <time>2021-07-27T08:02:55Z</time>
      </trkpt>
      <trkpt lat="45.89664" lon="3.04681">
        <ele>452</ele>
        <time>2021-07-27T08:02:56Z</time>
      </trkpt>
      <trkpt lat="45.89663" lon="3.04681">
        <ele>452</ele>
        <time>2021-07-27T08:02:57Z</time>
      </trkpt>
      <trkpt lat="45.89661" lon="3.04681">
        <ele>452</ele>
        <time>2021-07-27T08:02:58Z</time>
      </trkpt>
      <trkpt lat="45.89659" lon="3.04681">
        <ele>452</ele>
        <time>2021-07-27T08:02:59Z</time>
      </trkpt>
      <trkpt lat="45.89658" lon="3.0468">
        <ele>452</ele>
        <time>2021-07-27T08:03:00Z</time>
      </trkpt>
      <trkpt lat="45.89656" lon="3.0468">
        <ele>452</ele>
        <time>2021-07-27T08:03:01Z</time>
      </trkpt>
      <trkpt lat="45.89655" lon="3.04679">
        <ele>452</ele>
        <time>2021-07-27T08:03:02Z</time>
      </trkpt>
      <trkpt lat="45.89653" lon="3.04679">
        <ele>452</ele>
        <time>2021-07-27T08:03:03Z</time>
      </trkpt>
      <trkpt lat="45.89651" lon="3.04679">
        <ele>452</ele>
        <time>2021-07-27T08:03:04Z</time>
      </trkpt>
      <trkpt lat="45.89649" lon="3.04679">
        <ele>452</ele>
        <time>2021-07-27T08:03:05Z</time>
      </trkpt>
      <trkpt lat="45.89647" lon="3.04679">
        <ele>452</ele>
        <time>2021-07-27T08:03:06Z</time>
      </trkpt>
      <trkpt lat="45.89645" lon="3.04679">
        <ele>452</ele>
        <time>2021-07-27T08:03:07Z</time>
      </trkpt>
      <trkpt lat="45.89644" lon="3.04678">
        <ele>452</ele>
        <time>2021-07-27T08:03:08Z</time>
      </trkpt>
      <trkpt lat="45.89642" lon="3.04678">
        <ele>452</ele>
        <time>2021-07-27T08:03:09Z</time>
      </trkpt>
      <trkpt lat="45.89641" lon="3.04677">
        <ele>452</ele>
        <time>2021-07-27T08:03:10Z</time>
      </trkpt>
      <trkpt lat="45.8964" lon="3.04677">
        <ele>452</ele>
        <time>2021-07-27T08:03:11Z</time>
      </trkpt>
      <trkpt lat="45.89638" lon="3.04677">
        <ele>452</ele>
        <time>2021-07-27T08:03:12Z</time>
      </trkpt>
      <trkpt lat="45.89637" lon="3.04677">
        <ele>452</ele>
        <time>2021-07-27T08:03:13Z</time>
      </trkpt>
      <trkpt lat="45.89636" lon="3.04677">
        <ele>452</ele>
        <time>2021-07-27T08:03:14Z</time>
      </trkpt>
      <trkpt lat="45.89635" lon="3.04677">
        <ele>452</ele>
        <time>2021-07-27T08:03:15Z</time>
      </trkpt>
      <trkpt lat="45.89634" lon="3.04677">
        <ele>452</ele>
        <time>2021-07-27T08:03:16Z</time>
      </trkpt>
      <trkpt lat="45.89632" lon="3.04677">
        <ele>452</ele>
        <time>2021-07-27T08:03:17Z</time>
      </trkpt>
      <trkpt lat="45.89631" lon="3.04676">
        <ele>452</ele>
        <time>2021-07-27T08:03:18Z</time>
      </trkpt>
      <trkpt lat="45.8963" lon="3.04676">
        <ele>452</ele>
        <time>2021-07-27T08:03:19Z</time>
      </trkpt>
      <trkpt lat="45.89629" lon="3.04676">
        <ele>452</ele>
        <time>2021-07-27T08:03:20Z</time>
      </trkpt>
      <trkpt lat="45.89627" lon="3.04676">
        <ele>452</ele>
        <time>2021-07-27T08:03:21Z</time>
      </trkpt>
      <trkpt lat="45.89625" lon="3.04676">
        <ele>452</ele>
        <time>2021-07-27T08:03:22Z</time>
      </trkpt>
      <trkpt lat="45.89623" lon="3.04676">
        <ele>452</ele>
        <time>2021-07-27T08:03:23Z</time>
      </trkpt>
      <trkpt lat="45.89622" lon="3.04677">
        <ele>452</ele>
        <time>2021-07-27T08:03:24Z</time>
      </trkpt>
      <trkpt lat="45.89621" lon="3.04677">
        <ele>452</ele>
        <time>2021-07-27T08:03:25Z</time>
      </trkpt>
      <trkpt lat="45.89619" lon="3.04677">
        <ele>452</ele>
        <time>2021-07-27T08:03:26Z</time>
      </trkpt>
      <trkpt lat="45.89618" lon="3.04677">
        <ele>452</ele>
        <time>2021-07-27T08:03:27Z</time>
      </trkpt>
      <trkpt lat="45.89616" lon="3.04677">
        <ele>452</ele>
        <time>2021-07-27T08:03:28Z</time>
      </trkpt>
      <trkpt lat="45.89615" lon="3.04677">
        <ele>452</ele>
        <time>2021-07-27T08:03:29Z</time>
      </trkpt>
      <trkpt lat="45.89613" lon="3.04677">
        <ele>452</ele>
        <time>2021-07-27T08:03:31Z</time>
      </trkpt>
      <trkpt lat="45.89612" lon="3.04677">
        <ele>452</ele>
        <time>2021-07-27T08:03:33Z</time>
      </trkpt>
      <trkpt lat="45.89604" lon="3.04679">
        <ele>452</ele>
        <time>2021-07-27T08:03:34Z</time>
      </trkpt>
      <trkpt lat="45.89604" lon="3.04679">
        <ele>452</ele>
        <time>2021-07-27T08:03:35Z</time>
      </trkpt>
      <trkpt lat="45.89603" lon="3.04679">
        <ele>452</ele>
        <time>2021-07-27T08:03:36Z</time>
      </trkpt>
      <trkpt lat="45.89602" lon="3.0468">
        <ele>452</ele>
        <time>2021-07-27T08:03:37Z</time>
      </trkpt>
      <trkpt lat="45.89601" lon="3.0468">
        <ele>452</ele>
        <time>2021-07-27T08:03:38Z</time>
      </trkpt>
      <trkpt lat="45.896" lon="3.04681">
        <ele>452</ele>
        <time>2021-07-27T08:03:39Z</time>
      </trkpt>
      <trkpt lat="45.89598" lon="3.04682">
        <ele>452</ele>
        <time>2021-07-27T08:03:40Z</time>
      </trkpt>
      <trkpt lat="45.89597" lon="3.04682">
        <ele>452</ele>
        <time>2021-07-27T08:03:41Z</time>
      </trkpt>
      <trkpt lat="45.89596" lon="3.04683">
        <ele>452</ele>
        <time>2021-07-27T08:03:42Z</time>
      </trkpt>
      <trkpt lat="45.89595" lon="3.04683">
        <ele>452</ele>
        <time>2021-07-27T08:03:43Z</time>
      </trkpt>
      <trkpt lat="45.89593" lon="3.04684">
        <ele>452</ele>
        <time>2021-07-27T08:03:44Z</time>
      </trkpt>
      <trkpt lat="45.89592" lon="3.04684">
        <ele>452</ele>
        <time>2021-07-27T08:03:45Z</time>
      </trkpt>
      <trkpt lat="45.89591" lon="3.04684">
        <ele>452</ele>
        <time>2021-07-27T08:03:46Z</time>
      </trkpt>
      <trkpt lat="45.8959" lon="3.04684">
        <ele>452</ele>
        <time>2021-07-27T08:03:47Z</time>
      </trkpt>
      <trkpt lat="45.89589" lon="3.04684">
        <ele>452</ele>
        <time>2021-07-27T08:03:48Z</time>
      </trkpt>
      <trkpt lat="45.89587" lon="3.04684">
        <ele>452</ele>
        <time>2021-07-27T08:03:49Z</time>
      </trkpt>
      <trkpt lat="45.89586" lon="3.04684">
        <ele>452</ele>
        <time>2021-07-27T08:03:50Z</time>
      </trkpt>
      <trkpt lat="45.89585" lon="3.04684">
        <ele>452</ele>
        <time>2021-07-27T08:03:51Z</time>
      </trkpt>
      <trkpt lat="45.89583" lon="3.04684">
        <ele>452</ele>
        <time>2021-07-27T08:03:52Z</time>
      </trkpt>
      <trkpt lat="45.89582" lon="3.04684">
        <ele>452</ele>
        <time>2021-07-27T08:03:53Z</time>
      </trkpt>
      <trkpt lat="45.89581" lon="3.04684">
        <ele>452</ele>
        <time>2021-07-27T08:03:54Z</time>
      </trkpt>
      <trkpt lat="45.8958" lon="3.04684">
        <ele>452</ele>
        <time>2021-07-27T08:03:55Z</time>
      </trkpt>
      <trkpt lat="45.89579" lon="3.04684">
        <ele>452</ele>
        <time>2021-07-27T08:03:56Z</time>
      </trkpt>
      <trkpt lat="45.89578" lon="3.04684">
        <ele>452</ele>
        <time>2021-07-27T08:03:57Z</time>
      </trkpt>
      <trkpt lat="45.89577" lon="3.04684">
        <ele>452</ele>
        <time>2021-07-27T08:03:58Z</time>
      </trkpt>
      <trkpt lat="45.89576" lon="3.04684">
        <ele>452</ele>
        <time>2021-07-27T08:03:59Z</time>
      </trkpt>
      <trkpt lat="45.89575" lon="3.04684">
        <ele>452</ele>
        <time>2021-07-27T08:04:00Z</time>
      </trkpt>
      <trkpt lat="45.89574" lon="3.04684">
        <ele>452</ele>
        <time>2021-07-27T08:04:01Z</time>
      </trkpt>
      <trkpt lat="45.89572" lon="3.04684">
        <ele>452</ele>
        <time>2021-07-27T08:04:02Z</time>
      </trkpt>
      <trkpt lat="45.89571" lon="3.04684">
        <ele>452</ele>
        <time>2021-07-27T08:04:03Z</time>
      </trkpt>
      <trkpt lat="45.8957" lon="3.04684">
        <ele>452</ele>
        <time>2021-07-27T08:04:04Z</time>
      </trkpt>
      <trkpt lat="45.89568" lon="3.04684">
        <ele>452</ele>
        <time>2021-07-27T08:04:05Z</time>
      </trkpt>
      <trkpt lat="45.89566" lon="3.04684">
        <ele>452</ele>
        <time>2021-07-27T08:04:06Z</time>
      </trkpt>
      <trkpt lat="45.89565" lon="3.04684">
        <ele>452</ele>
        <time>2021-07-27T08:04:07Z</time>
      </trkpt>
      <trkpt lat="45.89563" lon="3.04684">
        <ele>452</ele>
        <time>2021-07-27T08:04:08Z</time>
      </trkpt>
      <trkpt lat="45.89562" lon="3.04684">
        <ele>452</ele>
        <time>2021-07-27T08:04:09Z</time>
      </trkpt>
      <trkpt lat="45.8956" lon="3.04684">
        <ele>452</ele>
        <time>2021-07-27T08:04:10Z</time>
      </trkpt>
      <trkpt lat="45.89558" lon="3.04684">
        <ele>452</ele>
        <time>2021-07-27T08:04:11Z</time>
      </trkpt>
      <trkpt lat="45.89557" lon="3.04685">
        <ele>452</ele>
        <time>2021-07-27T08:04:12Z</time>
      </trkpt>
      <trkpt lat="45.89555" lon="3.04685">
        <ele>452</ele>
        <time>2021-07-27T08:04:13Z</time>
      </trkpt>
      <trkpt lat="45.89554" lon="3.04685">
        <ele>452</ele>
        <time>2021-07-27T08:04:14Z</time>
      </trkpt>
      <trkpt lat="45.89553" lon="3.04685">
        <ele>452</ele>
        <time>2021-07-27T08:04:15Z</time>
      </trkpt>
      <trkpt lat="45.89552" lon="3.04686">
        <ele>452</ele>
        <time>2021-07-27T08:04:16Z</time>
      </trkpt>
      <trkpt lat="45.89551" lon="3.04686">
        <ele>452</ele>
        <time>2021-07-27T08:04:17Z</time>
      </trkpt>
      <trkpt lat="45.89549" lon="3.04686">
        <ele>452</ele>
        <time>2021-07-27T08:04:18Z</time>
      </trkpt>
      <trkpt lat="45.89547" lon="3.04687">
        <ele>452</ele>
        <time>2021-07-27T08:04:19Z</time>
      </trkpt>
      <trkpt lat="45.89547" lon="3.04687">
        <ele>452</ele>
        <time>2021-07-27T08:04:20Z</time>
      </trkpt>
      <trkpt lat="45.89544" lon="3.04688">
        <ele>452</ele>
        <time>2021-07-27T08:04:21Z</time>
      </trkpt>
      <trkpt lat="45.89543" lon="3.04688">
        <ele>452</ele>
        <time>2021-07-27T08:04:22Z</time>
      </trkpt>
      <trkpt lat="45.89541" lon="3.04688">
        <ele>452</ele>
        <time>2021-07-27T08:04:23Z</time>
      </trkpt>
      <trkpt lat="45.89539" lon="3.04688">
        <ele>452</ele>
        <time>2021-07-27T08:04:24Z</time>
      </trkpt>
      <trkpt lat="45.89538" lon="3.04687">
        <ele>452</ele>
        <time>2021-07-27T08:04:25Z</time>
      </trkpt>
      <trkpt lat="45.89536" lon="3.04687">
        <ele>452</ele>
        <time>2021-07-27T08:04:26Z</time>
      </trkpt>
      <trkpt lat="45.89535" lon="3.04686">
        <ele>452</ele>
        <time>2021-07-27T08:04:27Z</time>
      </trkpt>
      <trkpt lat="45.89534" lon="3.04684">
        <ele>452</ele>
        <time>2021-07-27T08:04:28Z</time>
      </trkpt>
      <trkpt lat="45.89532" lon="3.04684">
        <ele>452</ele>
        <time>2021-07-27T08:04:29Z</time>
      </trkpt>
      <trkpt lat="45.89531" lon="3.04683">
        <ele>452</ele>
        <time>2021-07-27T08:04:32Z</time>
      </trkpt>
      <trkpt lat="45.89526" lon="3.0468">
        <ele>452</ele>
        <time>2021-07-27T08:04:33Z</time>
      </trkpt>
      <trkpt lat="45.89522" lon="3.04681">
        <ele>452</ele>
        <time>2021-07-27T08:04:34Z</time>
      </trkpt>
      <trkpt lat="45.89522" lon="3.04681">
        <ele>452</ele>
        <time>2021-07-27T08:04:35Z</time>
      </trkpt>
      <trkpt lat="45.89521" lon="3.04681">
        <ele>452</ele>
        <time>2021-07-27T08:04:36Z</time>
      </trkpt>
      <trkpt lat="45.8952" lon="3.04681">
        <ele>452</ele>
        <time>2021-07-27T08:04:37Z</time>
      </trkpt>
      <trkpt lat="45.89518" lon="3.04681">
        <ele>452</ele>
        <time>2021-07-27T08:04:38Z</time>
      </trkpt>
      <trkpt lat="45.89516" lon="3.04681">
        <ele>452</ele>
        <time>2021-07-27T08:04:39Z</time>
      </trkpt>
      <trkpt lat="45.89515" lon="3.04681">
        <ele>452</ele>
        <time>2021-07-27T08:04:40Z</time>
      </trkpt>
      <trkpt lat="45.89513" lon="3.04681">
        <ele>452</ele>
        <time>2021-07-27T08:04:41Z</time>
      </trkpt>
      <trkpt lat="45.89512" lon="3.04681">
        <ele>452</ele>
        <time>2021-07-27T08:04:42Z</time>
      </trkpt>
      <trkpt lat="45.8951" lon="3.04681">
        <ele>452</ele>
        <time>2021-07-27T08:04:43Z</time>
      </trkpt>
      <trkpt lat="45.89509" lon="3.04681">
        <ele>452</ele>
        <time>2021-07-27T08:04:44Z</time>
      </trkpt>
      <trkpt lat="45.89508" lon="3.04681">
        <ele>452</ele>
        <time>2021-07-27T08:04:45Z</time>
      </trkpt>
      <trkpt lat="45.89507" lon="3.04681">
        <ele>452</ele>
        <time>2021-07-27T08:04:46Z</time>
      </trkpt>
      <trkpt lat="45.89506" lon="3.04681">
        <ele>452</ele>
        <time>2021-07-27T08:04:47Z</time>
      </trkpt>
      <trkpt lat="45.89505" lon="3.04681">
        <ele>452</ele>
        <time>2021-07-27T08:04:48Z</time>
      </trkpt>
      <trkpt lat="45.89504" lon="3.04682">
        <ele>452</ele>
        <time>2021-07-27T08:04:49Z</time>
      </trkpt>
      <trkpt lat="45.89502" lon="3.04682">
        <ele>452</ele>
        <time>2021-07-27T08:04:50Z</time>
      </trkpt>
      <trkpt lat="45.895" lon="3.04682">
        <ele>452</ele>
        <time>2021-07-27T08:04:51Z</time>
      </trkpt>
      <trkpt lat="45.89499" lon="3.04682">
        <ele>452</ele>
        <time>2021-07-27T08:04:52Z</time>
      </trkpt>
      <trkpt lat="45.89498" lon="3.04682">
        <ele>452</ele>
        <time>2021-07-27T08:04:53Z</time>
      </trkpt>
      <trkpt lat="45.89497" lon="3.04682">
        <ele>452</ele>
        <time>2021-07-27T08:04:54Z</time>
      </trkpt>
      <trkpt lat="45.89496" lon="3.04681">
        <ele>452</ele>
        <time>2021-07-27T08:04:55Z</time>
      </trkpt>
      <trkpt lat="45.89496" lon="3.04681">
        <ele>452</ele>
        <time>2021-07-27T08:04:56Z</time>
      </trkpt>
      <trkpt lat="45.89495" lon="3.04681">
        <ele>452</ele>
        <time>2021-07-27T08:04:57Z</time>
      </trkpt>
      <trkpt lat="45.89494" lon="3.04681">
        <ele>452</ele>
        <time>2021-07-27T08:04:58Z</time>
      </trkpt>
      <trkpt lat="45.89493" lon="3.04681">
        <ele>452</ele>
        <time>2021-07-27T08:04:59Z</time>
      </trkpt>
      <trkpt lat="45.89492" lon="3.04682">
        <ele>452</ele>
        <time>2021-07-27T08:05:00Z</time>
      </trkpt>
      <trkpt lat="45.89491" lon="3.04682">
        <ele>452</ele>
        <time>2021-07-27T08:05:01Z</time>
      </trkpt>
      <trkpt lat="45.8949" lon="3.04683">
        <ele>452</ele>
        <time>2021-07-27T08:05:02Z</time>
      </trkpt>
      <trkpt lat="45.8949" lon="3.04683">
        <ele>452</ele>
        <time>2021-07-27T08:05:03Z</time>
      </trkpt>
      <trkpt lat="45.89489" lon="3.04684">
        <ele>452</ele>
        <time>2021-07-27T08:05:04Z</time>
      </trkpt>
      <trkpt lat="45.89488" lon="3.04684">
        <ele>452</ele>
        <time>2021-07-27T08:05:05Z</time>
      </trkpt>
      <trkpt lat="45.89487" lon="3.04685">
        <ele>452</ele>
        <time>2021-07-27T08:05:06Z</time>
      </trkpt>
      <trkpt lat="45.89486" lon="3.04685">
        <ele>452</ele>
        <time>2021-07-27T08:05:07Z</time>
      </trkpt>
      <trkpt lat="45.89485" lon="3.04685">
        <ele>452</ele>
        <time>2021-07-27T08:05:08Z</time>
      </trkpt>
      <trkpt lat="45.89484" lon="3.04686">
        <ele>452</ele>
        <time>2021-07-27T08:05:09Z</time>
      </trkpt>
      <trkpt lat="45.89483" lon="3.04687">
        <ele>452</ele>
        <time>2021-07-27T08:05:10Z</time>
      </trkpt>
      <trkpt lat="45.89483" lon="3.04688">
        <ele>452</ele>
        <time>2021-07-27T08:05:11Z</time>
      </trkpt>
      <trkpt lat="45.89481" lon="3.04689">
        <ele>452</ele>
        <time>2021-07-27T08:05:12Z</time>
      </trkpt>
      <trkpt lat="45.89481" lon="3.0469">
        <ele>452</ele>
        <time>2021-07-27T08:05:13Z</time>
      </trkpt>
      <trkpt lat="45.89481" lon="3.04692">
        <ele>452</ele>
        <time>2021-07-27T08:05:14Z</time>
      </trkpt>
      <trkpt lat="45.89479" lon="3.04693">
        <ele>452</ele>
        <time>2021-07-27T08:05:15Z</time>
      </trkpt>
      <trkpt lat="45.89479" lon="3.04695">
        <ele>452</ele>
        <time>2021-07-27T08:05:16Z</time>
      </trkpt>
      <trkpt lat="45.89479" lon="3.04696">
        <ele>452</ele>
        <time>2021-07-27T08:05:17Z</time>
      </trkpt>
      <trkpt lat="45.89478" lon="3.04697">
        <ele>452</ele>
        <time>2021-07-27T08:05:18Z</time>
      </trkpt>
      <trkpt lat="45.89478" lon="3.04699">
        <ele>452</ele>
        <time>2021-07-27T08:05:19Z</time>
      </trkpt>
      <trkpt lat="45.89478" lon="3.047">
        <ele>452</ele>
        <time>2021-07-27T08:05:20Z</time>
      </trkpt>
      <trkpt lat="45.89478" lon="3.04701">
        <ele>452</ele>
        <time>2021-07-27T08:05:21Z</time>
      </trkpt>
      <trkpt lat="45.89478" lon="3.04702">
        <ele>452</ele>
        <time>2021-07-27T08:05:22Z</time>
      </trkpt>
      <trkpt lat="45.89478" lon="3.04703">
        <ele>452</ele>
        <time>2021-07-27T08:05:23Z</time>
      </trkpt>
      <trkpt lat="45.89478" lon="3.04704">
        <ele>452</ele>
        <time>2021-07-27T08:05:24Z</time>
      </trkpt>
      <trkpt lat="45.89477" lon="3.04705">
        <ele>452</ele>
        <time>2021-07-27T08:05:25Z</time>
      </trkpt>
      <trkpt lat="45.89478" lon="3.04706">
        <ele>452</ele>
        <time>2021-07-27T08:05:26Z</time>
      </trkpt>
      <trkpt lat="45.89478" lon="3.04707">
        <ele>452</ele>
        <time>2021-07-27T08:05:27Z</time>
      </trkpt>
      <trkpt lat="45.89478" lon="3.04708">
        <ele>452</ele>
        <time>2021-07-27T08:05:28Z</time>
      </trkpt>
      <trkpt lat="45.89478" lon="3.04709">
        <ele>452</ele>
        <time>2021-07-27T08:05:29Z</time>
      </trkpt>
      <trkpt lat="45.89478" lon="3.0471">
        <ele>452</ele>
        <time>2021-07-27T08:05:30Z</time>
      </trkpt>
      <trkpt lat="45.89478" lon="3.04711">
        <ele>452</ele>
        <time>2021-07-27T08:05:32Z</time>
      </trkpt>
      <trkpt lat="45.89479" lon="3.04711">
        <ele>452</ele>
        <time>2021-07-27T08:05:33Z</time>
      </trkpt>
      <trkpt lat="45.89483" lon="3.04713">
        <ele>452</ele>
        <time>2021-07-27T08:05:34Z</time>
      </trkpt>
      <trkpt lat="45.89484" lon="3.04713">
        <ele>452</ele>
        <time>2021-07-27T08:05:35Z</time>
      </trkpt>
      <trkpt lat="45.89484" lon="3.04713">
        <ele>452</ele>
        <time>2021-07-27T08:05:36Z</time>
      </trkpt>
      <trkpt lat="45.89484" lon="3.04713">
        <ele>452</ele>
        <time>2021-07-27T08:05:37Z</time>
      </trkpt>
      <trkpt lat="45.89486" lon="3.04713">
        <ele>452</ele>
        <time>2021-07-27T08:05:38Z</time>
      </trkpt>
      <trkpt lat="45.89486" lon="3.04712">
        <ele>452</ele>
        <time>2021-07-27T08:05:39Z</time>
      </trkpt>
      <trkpt lat="45.89487" lon="3.04712">
        <ele>452</ele>
        <time>2021-07-27T08:05:40Z</time>
      </trkpt>
      <trkpt lat="45.89488" lon="3.04712">
        <ele>452</ele>
        <time>2021-07-27T08:05:41Z</time>
      </trkpt>
      <trkpt lat="45.89489" lon="3.04713">
        <ele>452</ele>
        <time>2021-07-27T08:05:42Z</time>
      </trkpt>
      <trkpt lat="45.89489" lon="3.04713">
        <ele>452</ele>
        <time>2021-07-27T08:05:43Z</time>
      </trkpt>
      <trkpt lat="45.8949" lon="3.04713">
        <ele>452</ele>
        <time>2021-07-27T08:05:44Z</time>
      </trkpt>
      <trkpt lat="45.89491" lon="3.04714">
        <ele>452</ele>
        <time>2021-07-27T08:05:45Z</time>
      </trkpt>
      <trkpt lat="45.89491" lon="3.04714">
        <ele>452</ele>
        <time>2021-07-27T08:05:46Z</time>
      </trkpt>
      <trkpt lat="45.89492" lon="3.04715">
        <ele>452</ele>
        <time>2021-07-27T08:05:47Z</time>
      </trkpt>
      <trkpt lat="45.89493" lon="3.04716">
        <ele>452</ele>
        <time>2021-07-27T08:05:48Z</time>
      </trkpt>
      <trkpt lat="45.89493" lon="3.04717">
        <ele>452</ele>
        <time>2021-07-27T08:05:49Z</time>
      </trkpt>
      <trkpt lat="45.89494" lon="3.04717">
        <ele>452</ele>
        <time>2021-07-27T08:05:50Z</time>
      </trkpt>
      <trkpt lat="45.89494" lon="3.04718">
        <ele>452</ele>
        <time>2021-07-27T08:05:51Z</time>
      </trkpt>
      <trkpt lat="45.89495" lon="3.04718">
        <ele>452</ele>
        <time>2021-07-27T08:05:52Z</time>
      </trkpt>
      <trkpt lat="45.89496" lon="3.04719">
        <ele>452</ele>
        <time>2021-07-27T08:05:53Z</time>
      </trkpt>
      <trkpt lat="45.89496" lon="3.0472">
        <ele>452</ele>
        <time>2021-07-27T08:05:54Z</time>
      </trkpt>
      <trkpt lat="45.89497" lon="3.04721">
        <ele>452</ele>
        <time>2021-07-27T08:05:55Z</time>
      </trkpt>
      <trkpt lat="45.89497" lon="3.04722">
        <ele>452</ele>
        <time>2021-07-27T08:05:56Z</time>
      </trkpt>
      <trkpt lat="45.89498" lon="3.04723">
        <ele>452</ele>
        <time>2021-07-27T08:05:57Z</time>
      </trkpt>
      <trkpt lat="45.89499" lon="3.04724">
        <ele>452</ele>
        <time>2021-07-27T08:05:58Z</time>
      </trkpt>
      <trkpt lat="45.89499" lon="3.04724">
        <ele>452</ele>
        <time>2021-07-27T08:05:59Z</time>
      </trkpt>
      <trkpt lat="45.89499" lon="3.04725">
        <ele>452</ele>
        <time>2021-07-27T08:06:00Z</time>
      </trkpt>
      <trkpt lat="45.89499" lon="3.04725">
        <ele>452</ele>
        <time>2021-07-27T08:06:01Z</time>
      </trkpt>
      <trkpt lat="45.89499" lon="3.04726">
        <ele>452</ele>
        <time>2021-07-27T08:06:02Z</time>
      </trkpt>
      <trkpt lat="45.895" lon="3.04727">
        <ele>452</ele>
        <time>2021-07-27T08:06:03Z</time>
      </trkpt>
      <trkpt lat="45.895" lon="3.04727">
        <ele>452</ele>
        <time>2021-07-27T08:06:04Z</time>
      </trkpt>
      <trkpt lat="45.89501" lon="3.04728">
        <ele>452</ele>
        <time>2021-07-27T08:06:05Z</time>
      </trkpt>
      <trkpt lat="45.89502" lon="3.04728">
        <ele>452</ele>
        <time>2021-07-27T08:06:06Z</time>
      </trkpt>
      <trkpt lat="45.89503" lon="3.04728">
        <ele>452</ele>
        <time>2021-07-27T08:06:07Z</time>
      </trkpt>
      <trkpt lat="45.89504" lon="3.04728">
        <ele>452</ele>
        <time>2021-07-27T08:06:08Z</time>
      </trkpt>
      <trkpt lat="45.89505" lon="3.04728">
        <ele>452</ele>
        <time>2021-07-27T08:06:09Z</time>
      </trkpt>
      <trkpt lat="45.89507" lon="3.04728">
        <ele>452</ele>
        <time>2021-07-27T08:06:10Z</time>
      </trkpt>
      <trkpt lat="45.89508" lon="3.04728">
        <ele>452</ele>
        <time>2021-07-27T08:06:11Z</time>
      </trkpt>
      <trkpt lat="45.89508" lon="3.04728">
        <ele>452</ele>
        <time>2021-07-27T08:06:12Z</time>
      </trkpt>
      <trkpt lat="45.8951" lon="3.04729">
        <ele>452</ele>
        <time>2021-07-27T08:06:13Z</time>
      </trkpt>
      <trkpt lat="45.89512" lon="3.04729">
        <ele>452</ele>
        <time>2021-07-27T08:06:14Z</time>
      </trkpt>
      <trkpt lat="45.89513" lon="3.04729">
        <ele>452</ele>
        <time>2021-07-27T08:06:15Z</time>
      </trkpt>
      <trkpt lat="45.89514" lon="3.04729">
        <ele>452</ele>
        <time>2021-07-27T08:06:16Z</time>
      </trkpt>
      <trkpt lat="45.89516" lon="3.04729">
        <ele>452</ele>
        <time>2021-07-27T08:06:17Z</time>
      </trkpt>
      <trkpt lat="45.89517" lon="3.0473">
        <ele>452</ele>
        <time>2021-07-27T08:06:17Z</time>
      </trkpt>
      <trkpt lat="45.89518" lon="3.0473">
        <ele>452</ele>
        <time>2021-07-27T08:06:18Z</time>
      </trkpt>
      <trkpt lat="45.8952" lon="3.0473">
        <ele>452</ele>
        <time>2021-07-27T08:06:19Z</time>
      </trkpt>
      <trkpt lat="45.89521" lon="3.0473">
        <ele>452</ele>
        <time>2021-07-27T08:06:20Z</time>
      </trkpt>
      <trkpt lat="45.89523" lon="3.04731">
        <ele>452</ele>
        <time>2021-07-27T08:06:21Z</time>
      </trkpt>
      <trkpt lat="45.89524" lon="3.04731">
        <ele>452</ele>
        <time>2021-07-27T08:06:22Z</time>
      </trkpt>
      <trkpt lat="45.89526" lon="3.04732">
        <ele>452</ele>
        <time>2021-07-27T08:06:23Z</time>
      </trkpt>
      <trkpt lat="45.89528" lon="3.04732">
        <ele>452</ele>
        <time>2021-07-27T08:06:24Z</time>
      </trkpt>
      <trkpt lat="45.89529" lon="3.04733">
        <ele>452</ele>
        <time>2021-07-27T08:06:25Z</time>
      </trkpt>
      <trkpt lat="45.89532" lon="3.04733">
        <ele>452</ele>
        <time>2021-07-27T08:06:26Z</time>
      </trkpt>
      <trkpt lat="45.89533" lon="3.04734">
        <ele>452</ele>
        <time>2021-07-27T08:06:27Z</time>
      </trkpt>
      <trkpt lat="45.89535" lon="3.04734">
        <ele>452</ele>
        <time>2021-07-27T08:06:28Z</time>
      </trkpt>
      <trkpt lat="45.89537" lon="3.04735">
        <ele>452</ele>
        <time>2021-07-27T08:06:30Z</time>
      </trkpt>
      <trkpt lat="45.89542" lon="3.04737">
        <ele>452</ele>
        <time>2021-07-27T08:06:32Z</time>
      </trkpt>
      <trkpt lat="45.89544" lon="3.04737">
        <ele>452</ele>
        <time>2021-07-27T08:06:33Z</time>
      </trkpt>
      <trkpt lat="45.89545" lon="3.04737">
        <ele>452</ele>
        <time>2021-07-27T08:06:34Z</time>
      </trkpt>
      <trkpt lat="45.89545" lon="3.04737">
        <ele>452</ele>
        <time>2021-07-27T08:06:35Z</time>
      </trkpt>
      <trkpt lat="45.89547" lon="3.04737">
        <ele>452</ele>
        <time>2021-07-27T08:06:36Z</time>
      </trkpt>
      <trkpt lat="45.89547" lon="3.04737">
        <ele>452</ele>
        <time>2021-07-27T08:06:37Z</time>
      </trkpt>
      <trkpt lat="45.89549" lon="3.04737">
        <ele>452</ele>
        <time>2021-07-27T08:06:38Z</time>
      </trkpt>
      <trkpt lat="45.8955" lon="3.04738">
        <ele>452</ele>
        <time>2021-07-27T08:06:39Z</time>
      </trkpt>
      <trkpt lat="45.89552" lon="3.04738">
        <ele>452</ele>
        <time>2021-07-27T08:06:40Z</time>
      </trkpt>
      <trkpt lat="45.89554" lon="3.04739">
        <ele>452</ele>
        <time>2021-07-27T08:06:41Z</time>
      </trkpt>
      <trkpt lat="45.89555" lon="3.0474">
        <ele>452</ele>
        <time>2021-07-27T08:06:42Z</time>
      </trkpt>
      <trkpt lat="45.89557" lon="3.0474">
        <ele>452</ele>
        <time>2021-07-27T08:06:43Z</time>
      </trkpt>
      <trkpt lat="45.89558" lon="3.04741">
        <ele>452</ele>
        <time>2021-07-27T08:06:44Z</time>
      </trkpt>
      <trkpt lat="45.8956" lon="3.04742">
        <ele>452</ele>
        <time>2021-07-27T08:06:45Z</time>
      </trkpt>
      <trkpt lat="45.89562" lon="3.04742">
        <ele>452</ele>
        <time>2021-07-27T08:06:46Z</time>
      </trkpt>
      <trkpt lat="45.89562" lon="3.04743">
        <ele>452</ele>
        <time>2021-07-27T08:06:47Z</time>
      </trkpt>
      <trkpt lat="45.89564" lon="3.04744">
        <ele>452</ele>
        <time>2021-07-27T08:06:48Z</time>
      </trkpt>
      <trkpt lat="45.89565" lon="3.04744">
        <ele>452</ele>
        <time>2021-07-27T08:06:49Z</time>
      </trkpt>
      <trkpt lat="45.89566" lon="3.04745">
        <ele>452</ele>
        <time>2021-07-27T08:06:50Z</time>
      </trkpt>
      <trkpt lat="45.89568" lon="3.04746">
        <ele>452</ele>
        <time>2021-07-27T08:06:51Z</time>
      </trkpt>
      <trkpt lat="45.89568" lon="3.04747">
        <ele>452</ele>
        <time>2021-07-27T08:06:52Z</time>
      </trkpt>
      <trkpt lat="45.8957" lon="3.04748">
        <ele>452</ele>
        <time>2021-07-27T08:06:53Z</time>
      </trkpt>
      <trkpt lat="45.89572" lon="3.04749">
        <ele>452</ele>
        <time>2021-07-27T08:06:54Z</time>
      </trkpt>
      <trkpt lat="45.89573" lon="3.0475">
        <ele>452</ele>
        <time>2021-07-27T08:06:55Z</time>
      </trkpt>
      <trkpt lat="45.89574" lon="3.04751">
        <ele>452</ele>
        <time>2021-07-27T08:06:56Z</time>
      </trkpt>
      <trkpt lat="45.89575" lon="3.04753">
        <ele>452</ele>
        <time>2021-07-27T08:06:57Z</time>
      </trkpt>
      <trkpt lat="45.89577" lon="3.04755">
        <ele>452</ele>
        <time>2021-07-27T08:06:58Z</time>
      </trkpt>
      <trkpt lat="45.89578" lon="3.04756">
        <ele>452</ele>
        <time>2021-07-27T08:06:59Z</time>
      </trkpt>
      <trkpt lat="45.89579" lon="3.04758">
        <ele>452</ele>
        <time>2021-07-27T08:07:00Z</time>
      </trkpt>
      <trkpt lat="45.89581" lon="3.04759">
        <ele>452</ele>
        <time>2021-07-27T08:07:01Z</time>
      </trkpt>
      <trkpt lat="45.89582" lon="3.04761">
        <ele>452</ele>
        <time>2021-07-27T08:07:02Z</time>
      </trkpt>
      <trkpt lat="45.89583" lon="3.04762">
        <ele>452</ele>
        <time>2021-07-27T08:07:03Z</time>
      </trkpt>
      <trkpt lat="45.89585" lon="3.04763">
        <ele>452</ele>
        <time>2021-07-27T08:07:04Z</time>
      </trkpt>
      <trkpt lat="45.89586" lon="3.04764">
        <ele>452</ele>
        <time>2021-07-27T08:07:05Z</time>
      </trkpt>
      <trkpt lat="45.89587" lon="3.04765">
        <ele>452</ele>
        <time>2021-07-27T08:07:06Z</time>
      </trkpt>
      <trkpt lat="45.89588" lon="3.04766">
        <ele>452</ele>
        <time>2021-07-27T08:07:07Z</time>
      </trkpt>
      <trkpt lat="45.89589" lon="3.04767">
        <ele>452</ele>
        <time>2021-07-27T08:07:08Z</time>
      </trkpt>
      <trkpt lat="45.8959" lon="3.04768">
        <ele>452</ele>
        <time>2021-07-27T08:07:09Z</time>
      </trkpt>
      <trkpt lat="45.89591" lon="3.0477">
        <ele>452</ele>
        <time>2021-07-27T08:07:10Z</time>
      </trkpt>
      <trkpt lat="45.89591" lon="3.04771">
        <ele>452</ele>
        <time>2021-07-27T08:07:11Z</time>
      </trkpt>
      <trkpt lat="45.89592" lon="3.04773">
        <ele>452</ele>
        <time>2021-07-27T08:07:12Z</time>
      </trkpt>
      <trkpt lat="45.89594" lon="3.04774">
        <ele>452</ele>
        <time>2021-07-27T08:07:13Z</time>
      </trkpt>
      <trkpt lat="45.89595" lon="3.04775">
        <ele>452</ele>
        <time>2021-07-27T08:07:14Z</time>
      </trkpt>
      <trkpt lat="45.89596" lon="3.04777">
        <ele>452</ele>
        <time>2021-07-27T08:07:15Z</time>
      </trkpt>
      <trkpt lat="45.89598" lon="3.04778">
        <ele>452</ele>
        <time>2021-07-27T08:07:16Z</time>
      </trkpt>
      <trkpt lat="45.89599" lon="3.04779">
        <ele>452</ele>
        <time>2021-07-27T08:07:17Z</time>
      </trkpt>
      <trkpt lat="45.89601" lon="3.04779">
        <ele>452</ele>
        <time>2021-07-27T08:07:18Z</time>
      </trkpt>
      <trkpt lat="45.89602" lon="3.0478">
        <ele>452</ele>
        <time>2021-07-27T08:07:19Z</time>
      </trkpt>
      <trkpt lat="45.89604" lon="3.04781">
        <ele>452</ele>
        <time>2021-07-27T08:07:20Z</time>
      </trkpt>
      <trkpt lat="45.89605" lon="3.04782">
        <ele>452</ele>
        <time>2021-07-27T08:07:21Z</time>
      </trkpt>
      <trkpt lat="45.89607" lon="3.04783">
        <ele>452</ele>
        <time>2021-07-27T08:07:22Z</time>
      </trkpt>
      <trkpt lat="45.89609" lon="3.04784">
        <ele>452</ele>
        <time>2021-07-27T08:07:23Z</time>
      </trkpt>
      <trkpt lat="45.89611" lon="3.04785">
        <ele>452</ele>
        <time>2021-07-27T08:07:24Z</time>
      </trkpt>
      <trkpt lat="45.89612" lon="3.04786">
        <ele>452</ele>
        <time>2021-07-27T08:07:25Z</time>
      </trkpt>
      <trkpt lat="45.89614" lon="3.04787">
        <ele>452</ele>
        <time>2021-07-27T08:07:26Z</time>
      </trkpt>
      <trkpt lat="45.89615" lon="3.04788">
        <ele>452</ele>
        <time>2021-07-27T08:07:27Z</time>
      </trkpt>
      <trkpt lat="45.89616" lon="3.04788">
        <ele>452</ele>
        <time>2021-07-27T08:07:28Z</time>
      </trkpt>
      <trkpt lat="45.89618" lon="3.04789">
        <ele>452</ele>
        <time>2021-07-27T08:07:29Z</time>
      </trkpt>
      <trkpt lat="45.89619" lon="3.04789">
        <ele>452</ele>
        <time>2021-07-27T08:07:31Z</time>
      </trkpt>
      <trkpt lat="45.89624" lon="3.04791">
        <ele>452</ele>
        <time>2021-07-27T08:07:32Z</time>
      </trkpt>
      <trkpt lat="45.89624" lon="3.04791">
        <ele>452</ele>
        <time>2021-07-27T08:07:33Z</time>
      </trkpt>
      <trkpt lat="45.89625" lon="3.04791">
        <ele>452</ele>
        <time>2021-07-27T08:07:34Z</time>
      </trkpt>
      <trkpt lat="45.89626" lon="3.04791">
        <ele>452</ele>
        <time>2021-07-27T08:07:35Z</time>
      </trkpt>
      <trkpt lat="45.89627" lon="3.04792">
        <ele>452</ele>
        <time>2021-07-27T08:07:36Z</time>
      </trkpt>
      <trkpt lat="45.89628" lon="3.04792">
        <ele>452</ele>
        <time>2021-07-27T08:07:37Z</time>
      </trkpt>
      <trkpt lat="45.89629" lon="3.04793">
        <ele>452</ele>
        <time>2021-07-27T08:07:38Z</time>
      </trkpt>
      <trkpt lat="45.89631" lon="3.04794">
        <ele>452</ele>
        <time>2021-07-27T08:07:39Z</time>
      </trkpt>
      <trkpt lat="45.89632" lon="3.04795">
        <ele>452</ele>
        <time>2021-07-27T08:07:40Z</time>
      </trkpt>
      <trkpt lat="45.89634" lon="3.04796">
        <ele>452</ele>
        <time>2021-07-27T08:07:41Z</time>
      </trkpt>
      <trkpt lat="45.89635" lon="3.04797">
        <ele>452</ele>
        <time>2021-07-27T08:07:42Z</time>
      </trkpt>
      <trkpt lat="45.89637" lon="3.04798">
        <ele>452</ele>
        <time>2021-07-27T08:07:43Z</time>
      </trkpt>
      <trkpt lat="45.89638" lon="3.04799">
        <ele>452</ele>
        <time>2021-07-27T08:07:44Z</time>
      </trkpt>
      <trkpt lat="45.89639" lon="3.048">
        <ele>452</ele>
        <time>2021-07-27T08:07:45Z</time>
      </trkpt>
      <trkpt lat="45.8964" lon="3.04801">
        <ele>452</ele>
        <time>2021-07-27T08:07:46Z</time>
      </trkpt>
      <trkpt lat="45.89642" lon="3.04802">
        <ele>452</ele>
        <time>2021-07-27T08:07:47Z</time>
      </trkpt>
      <trkpt lat="45.89643" lon="3.04803">
        <ele>452</ele>
        <time>2021-07-27T08:07:48Z</time>
      </trkpt>
      <trkpt lat="45.89645" lon="3.04805">
        <ele>452</ele>
        <time>2021-07-27T08:07:49Z</time>
      </trkpt>
      <trkpt lat="45.89646" lon="3.04806">
        <ele>452</ele>
        <time>2021-07-27T08:07:50Z</time>
      </trkpt>
      <trkpt lat="45.89648" lon="3.04807">
        <ele>452</ele>
        <time>2021-07-27T08:07:51Z</time>
      </trkpt>
      <trkpt lat="45.8965" lon="3.04808">
        <ele>452</ele>
        <time>2021-07-27T08:07:52Z</time>
      </trkpt>
      <trkpt lat="45.89652" lon="3.04809">
        <ele>452</ele>
        <time>2021-07-27T08:07:53Z</time>
      </trkpt>
      <trkpt lat="45.89654" lon="3.0481">
        <ele>452</ele>
        <time>2021-07-27T08:07:54Z</time>
      </trkpt>
      <trkpt lat="45.89656" lon="3.04811">
        <ele>452</ele>
        <time>2021-07-27T08:07:55Z</time>
      </trkpt>
      <trkpt lat="45.89657" lon="3.04811">
        <ele>452</ele>
        <time>2021-07-27T08:07:56Z</time>
      </trkpt>
      <trkpt lat="45.89659" lon="3.04812">
        <ele>452</ele>
        <time>2021-07-27T08:07:57Z</time>
      </trkpt>
      <trkpt lat="45.8966" lon="3.04813">
        <ele>452</ele>
        <time>2021-07-27T08:07:58Z</time>
      </trkpt>
      <trkpt lat="45.89661" lon="3.04814">
        <ele>452</ele>
        <time>2021-07-27T08:07:59Z</time>
      </trkpt>
      <trkpt lat="45.89662" lon="3.04814">
        <ele>452</ele>
        <time>2021-07-27T08:08:00Z</time>
      </trkpt>
      <trkpt lat="45.89663" lon="3.04814">
        <ele>452</ele>
        <time>2021-07-27T08:08:01Z</time>
      </trkpt>
      <trkpt lat="45.89664" lon="3.04814">
        <ele>452</ele>
        <time>2021-07-27T08:08:02Z</time>
      </trkpt>
      <trkpt lat="45.89665" lon="3.04814">
        <ele>452</ele>
        <time>2021-07-27T08:08:03Z</time>
      </trkpt>
      <trkpt lat="45.89666" lon="3.04814">
        <ele>452</ele>
        <time>2021-07-27T08:08:04Z</time>
      </trkpt>
      <trkpt lat="45.89668" lon="3.04813">
        <ele>452</ele>
        <time>2021-07-27T08:08:05Z</time>
      </trkpt>
      <trkpt lat="45.89668" lon="3.04813">
        <ele>452</ele>
        <time>2021-07-27T08:08:06Z</time>
      </trkpt>
      <trkpt lat="45.8967" lon="3.04812">
        <ele>452</ele>
        <time>2021-07-27T08:08:07Z</time>
      </trkpt>
      <trkpt lat="45.89671" lon="3.04812">
        <ele>452</ele>
        <time>2021-07-27T08:08:08Z</time>
      </trkpt>
      <trkpt lat="45.89673" lon="3.04812">
        <ele>452</ele>
        <time>2021-07-27T08:08:09Z</time>
      </trkpt>
      <trkpt lat="45.89674" lon="3.04811">
        <ele>452</ele>
        <time>2021-07-27T08:08:10Z</time>
      </trkpt>
      <trkpt lat="45.89676" lon="3.04811">
        <ele>452</ele>
        <time>2021-07-27T08:08:11Z</time>
      </trkpt>
      <trkpt lat="45.89677" lon="3.04811">
        <ele>452</ele>
        <time>2021-07-27T08:08:12Z</time>
      </trkpt>
      <trkpt lat="45.89679" lon="3.04811">
        <ele>452</ele>
        <time>2021-07-27T08:08:13Z</time>
      </trkpt>
      <trkpt lat="45.8968" lon="3.04811">
        <ele>452</ele>
        <time>2021-07-27T08:08:14Z</time>
      </trkpt>
      <trkpt lat="45.89682" lon="3.04811">
        <ele>452</ele>
        <time>2021-07-27T08:08:15Z</time>
      </trkpt>
      <trkpt lat="45.89683" lon="3.0481">
        <ele>452</ele>
        <time>2021-07-27T08:08:16Z</time>
      </trkpt>
      <trkpt lat="45.89684" lon="3.0481">
        <ele>452</ele>
        <time>2021-07-27T08:08:17Z</time>
      </trkpt>
      <trkpt lat="45.89686" lon="3.0481">
        <ele>452</ele>
        <time>2021-07-27T08:08:18Z</time>
      </trkpt>
      <trkpt lat="45.89687" lon="3.04809">
        <ele>452</ele>
        <time>2021-07-27T08:08:19Z</time>
      </trkpt>
      <trkpt lat="45.89689" lon="3.04808">
        <ele>452</ele>
        <time>2021-07-27T08:08:20Z</time>
      </trkpt>
      <trkpt lat="45.8969" lon="3.04808">
        <ele>452</ele>
        <time>2021-07-27T08:08:21Z</time>
      </trkpt>
      <trkpt lat="45.89692" lon="3.04807">
        <ele>452</ele>
        <time>2021-07-27T08:08:22Z</time>
      </trkpt>
      <trkpt lat="45.89694" lon="3.04807">
        <ele>452</ele>
        <time>2021-07-27T08:08:23Z</time>
      </trkpt>
      <trkpt lat="45.89695" lon="3.04807">
        <ele>452</ele>
        <time>2021-07-27T08:08:24Z</time>
      </trkpt>
      <trkpt lat="45.89697" lon="3.04806">
        <ele>452</ele>
        <time>2021-07-27T08:08:25Z</time>
      </trkpt>
      <trkpt lat="45.89698" lon="3.04806">
        <ele>452</ele>
        <time>2021-07-27T08:08:26Z</time>
      </trkpt>
      <trkpt lat="45.897" lon="3.04806">
        <ele>452</ele>
        <time>2021-07-27T08:08:27Z</time>
      </trkpt>
      <trkpt lat="45.89701" lon="3.04806">
        <ele>452</ele>
        <time>2021-07-27T08:08:28Z</time>
      </trkpt>
      <trkpt lat="45.89702" lon="3.04806">
        <ele>452</ele>
        <time>2021-07-27T08:08:31Z</time>
      </trkpt>
      <trkpt lat="45.89709" lon="3.04806">
        <ele>452</ele>
        <time>2021-07-27T08:08:32Z</time>
      </trkpt>
      <trkpt lat="45.8971" lon="3.04806">
        <ele>452</ele>
        <time>2021-07-27T08:08:33Z</time>
      </trkpt>
      <trkpt lat="45.8971" lon="3.04805">
        <ele>452</ele>
        <time>2021-07-27T08:08:34Z</time>
      </trkpt>
      <trkpt lat="45.8971" lon="3.04805">
        <ele>452</ele>
        <time>2021-07-27T08:08:35Z</time>
      </trkpt>
      <trkpt lat="45.89711" lon="3.04805">
        <ele>452</ele>
        <time>2021-07-27T08:08:36Z</time>
      </trkpt>
      <trkpt lat="45.89713" lon="3.04805">
        <ele>452</ele>
        <time>2021-07-27T08:08:37Z</time>
      </trkpt>
      <trkpt lat="45.89714" lon="3.04804">
        <ele>452</ele>
        <time>2021-07-27T08:08:38Z</time>
      </trkpt>
      <trkpt lat="45.89716" lon="3.04804">
        <ele>452</ele>
        <time>2021-07-27T08:08:39Z</time>
      </trkpt>
      <trkpt lat="45.89717" lon="3.04804">
        <ele>452</ele>
        <time>2021-07-27T08:08:40Z</time>
      </trkpt>
      <trkpt lat="45.89719" lon="3.04803">
        <ele>452</ele>
        <time>2021-07-27T08:08:41Z</time>
      </trkpt>
      <trkpt lat="45.8972" lon="3.04803">
        <ele>452</ele>
        <time>2021-07-27T08:08:42Z</time>
      </trkpt>
      <trkpt lat="45.89722" lon="3.04803">
        <ele>452</ele>
        <time>2021-07-27T08:08:43Z</time>
      </trkpt>
      <trkpt lat="45.89724" lon="3.04802">
        <ele>452</ele>
        <time>2021-07-27T08:08:44Z</time>
      </trkpt>
      <trkpt lat="45.89726" lon="3.04801">
        <ele>452</ele>
        <time>2021-07-27T08:08:45Z</time>
      </trkpt>
      <trkpt lat="45.89727" lon="3.04801">
        <ele>452</ele>
        <time>2021-07-27T08:08:46Z</time>
      </trkpt>
      <trkpt lat="45.89728" lon="3.048">
        <ele>452</ele>
        <time>2021-07-27T08:08:47Z</time>
      </trkpt>
      <trkpt lat="45.8973" lon="3.048">
        <ele>452</ele>
        <time>2021-07-27T08:08:48Z</time>
      </trkpt>
      <trkpt lat="45.89731" lon="3.04799">
        <ele>452</ele>
        <time>2021-07-27T08:08:49Z</time>
      </trkpt>
      <trkpt lat="45.89732" lon="3.04799">
        <ele>452</ele>
        <time>2021-07-27T08:08:50Z</time>
      </trkpt>
      <trkpt lat="45.89732" lon="3.04798">
        <ele>452</ele>
        <time>2021-07-27T08:08:51Z</time>
      </trkpt>
      <trkpt lat="45.89734" lon="3.04797">
        <ele>452</ele>
        <time>2021-07-27T08:08:52Z</time>
      </trkpt>
      <trkpt lat="45.89734" lon="3.04795">
        <ele>452</ele>
        <time>2021-07-27T08:08:53Z</time>
      </trkpt>
      <trkpt lat="45.89735" lon="3.04794">
        <ele>452</ele>
        <time>2021-07-27T08:08:54Z</time>
      </trkpt>
      <trkpt lat="45.89737" lon="3.04793">
        <ele>452</ele>
        <time>2021-07-27T08:08:55Z</time>
      </trkpt>
      <trkpt lat="45.89738" lon="3.04791">
        <ele>452</ele>
        <time>2021-07-27T08:08:56Z</time>
      </trkpt>
      <trkpt lat="45.8974" lon="3.04791">
        <ele>452</ele>
        <time>2021-07-27T08:08:57Z</time>
      </trkpt>
      <trkpt lat="45.89741" lon="3.0479">
        <ele>452</ele>
        <time>2021-07-27T08:08:58Z</time>
      </trkpt>
      <trkpt lat="45.89743" lon="3.04789">
        <ele>452</ele>
        <time>2021-07-27T08:08:59Z</time>
      </trkpt>
      <trkpt lat="45.89744" lon="3.04788">
        <ele>452</ele>
        <time>2021-07-27T08:09:00Z</time>
      </trkpt>
      <trkpt lat="45.89745" lon="3.04787">
        <ele>452</ele>
        <time>2021-07-27T08:09:01Z</time>
      </trkpt>
      <trkpt lat="45.89747" lon="3.04786">
        <ele>452</ele>
        <time>2021-07-27T08:09:02Z</time>
      </trkpt>
      <trkpt lat="45.89748" lon="3.04785">
        <ele>452</ele>
        <time>2021-07-27T08:09:03Z</time>
      </trkpt>
      <trkpt lat="45.89749" lon="3.04784">
        <ele>452</ele>
        <time>2021-07-27T08:09:04Z</time>
      </trkpt>
      <trkpt lat="45.89751" lon="3.04784">
        <ele>452</ele>
        <time>2021-07-27T08:09:05Z</time>
      </trkpt>
      <trkpt lat="45.89752" lon="3.04783">
        <ele>452</ele>
        <time>2021-07-27T08:09:06Z</time>
      </trkpt>
      <trkpt lat="45.89753" lon="3.04783">
        <ele>452</ele>
        <time>2021-07-27T08:09:07Z</time>
      </trkpt>
      <trkpt lat="45.89755" lon="3.04782">
        <ele>452</ele>
        <time>2021-07-27T08:09:08Z</time>
      </trkpt>
      <trkpt lat="45.89756" lon="3.04781">
        <ele>452</ele>
        <time>2021-07-27T08:09:09Z</time>
      </trkpt>
      <trkpt lat="45.89758" lon="3.0478">
        <ele>452</ele>
        <time>2021-07-27T08:09:10Z</time>
      </trkpt>
      <trkpt lat="45.89759" lon="3.04779">
        <ele>452</ele>
        <time>2021-07-27T08:09:11Z</time>
      </trkpt>
      <trkpt lat="45.89761" lon="3.04778">
        <ele>452</ele>
        <time>2021-07-27T08:09:12Z</time>
      </trkpt>
      <trkpt lat="45.89761" lon="3.04777">
        <ele>452</ele>
        <time>2021-07-27T08:09:13Z</time>
      </trkpt>
      <trkpt lat="45.89763" lon="3.04775">
        <ele>452</ele>
        <time>2021-07-27T08:09:14Z</time>
      </trkpt>
      <trkpt lat="45.89764" lon="3.04774">
        <ele>452</ele>
        <time>2021-07-27T08:09:15Z</time>
      </trkpt>
      <trkpt lat="45.89765" lon="3.04773">
        <ele>452</ele>
        <time>2021-07-27T08:09:16Z</time>
      </trkpt>
      <trkpt lat="45.89767" lon="3.04772">
        <ele>452</ele>
        <time>2021-07-27T08:09:17Z</time>
      </trkpt>
      <trkpt lat="45.89768" lon="3.04771">
        <ele>452</ele>
        <time>2021-07-27T08:09:18Z</time>
      </trkpt>
      <trkpt lat="45.89769" lon="3.04771">
        <ele>452</ele>
        <time>2021-07-27T08:09:19Z</time>
      </trkpt>
      <trkpt lat="45.8977" lon="3.0477">
        <ele>452</ele>
        <time>2021-07-27T08:09:20Z</time>
      </trkpt>
      <trkpt lat="45.89772" lon="3.0477">
        <ele>452</ele>
        <time>2021-07-27T08:09:21Z</time>
      </trkpt>
      <trkpt lat="45.89773" lon="3.0477">
        <ele>452</ele>
        <time>2021-07-27T08:09:22Z</time>
      </trkpt>
      <trkpt lat="45.89774" lon="3.04769">
        <ele>452</ele>
        <time>2021-07-27T08:09:23Z</time>
      </trkpt>
      <trkpt lat="45.89776" lon="3.04769">
        <ele>452</ele>
        <time>2021-07-27T08:09:24Z</time>
      </trkpt>
      <trkpt lat="45.89777" lon="3.04769">
        <ele>452</ele>
        <time>2021-07-27T08:09:25Z</time>
      </trkpt>
      <trkpt lat="45.89778" lon="3.04769">
        <ele>452</ele>
        <time>2021-07-27T08:09:26Z</time>
      </trkpt>
      <trkpt lat="45.89779" lon="3.04768">
        <ele>452</ele>
        <time>2021-07-27T08:09:27Z</time>
      </trkpt>
      <trkpt lat="45.89779" lon="3.04768">
        <ele>452</ele>
        <time>2021-07-27T08:09:28Z</time>
      </trkpt>
      <trkpt lat="45.8978" lon="3.04767">
        <ele>452</ele>
        <time>2021-07-27T08:09:29Z</time>
      </trkpt>
      <trkpt lat="45.89782" lon="3.04767">
        <ele>452</ele>
        <time>2021-07-27T08:09:30Z</time>
      </trkpt>
      <trkpt lat="45.89783" lon="3.04766">
        <ele>452</ele>
        <time>2021-07-27T08:09:32Z</time>
      </trkpt>
      <trkpt lat="45.89788" lon="3.04764">
        <ele>452</ele>
        <time>2021-07-27T08:09:33Z</time>
      </trkpt>
      <trkpt lat="45.89788" lon="3.04764">
        <ele>452</ele>
        <time>2021-07-27T08:09:34Z</time>
      </trkpt>
      <trkpt lat="45.89789" lon="3.04764">
        <ele>452</ele>
        <time>2021-07-27T08:09:35Z</time>
      </trkpt>
      <trkpt lat="45.8979" lon="3.04763">
        <ele>452</ele>
        <time>2021-07-27T08:09:36Z</time>
      </trkpt>
      <trkpt lat="45.89791" lon="3.04763">
        <ele>452</ele>
        <time>2021-07-27T08:09:37Z</time>
      </trkpt>
      <trkpt lat="45.89792" lon="3.04762">
        <ele>452</ele>
        <time>2021-07-27T08:09:38Z</time>
      </trkpt>
      <trkpt lat="45.89793" lon="3.04761">
        <ele>452</ele>
        <time>2021-07-27T08:09:39Z</time>
      </trkpt>
      <trkpt lat="45.89795" lon="3.0476">
        <ele>452</ele>
        <time>2021-07-27T08:09:40Z</time>
      </trkpt>
      <trkpt lat="45.89796" lon="3.04759">
        <ele>452</ele>
        <time>2021-07-27T08:09:41Z</time>
      </trkpt>
      <trkpt lat="45.89797" lon="3.04758">
        <ele>452</ele>
        <time>2021-07-27T08:09:42Z</time>
      </trkpt>
      <trkpt lat="45.89799" lon="3.04757">
        <ele>452</ele>
        <time>2021-07-27T08:09:43Z</time>
      </trkpt>
      <trkpt lat="45.898" lon="3.04756">
        <ele>452</ele>
        <time>2021-07-27T08:09:44Z</time>
      </trkpt>
      <trkpt lat="45.89801" lon="3.04755">
        <ele>452</ele>
        <time>2021-07-27T08:09:45Z</time>
      </trkpt>
      <trkpt lat="45.89803" lon="3.04755">
        <ele>452</ele>
        <time>2021-07-27T08:09:46Z</time>
      </trkpt>
      <trkpt lat="45.89804" lon="3.04755">
        <ele>452</ele>
        <time>2021-07-27T08:09:47Z</time>
      </trkpt>
      <trkpt lat="45.89806" lon="3.04755">
        <ele>452</ele>
        <time>2021-07-27T08:09:48Z</time>
      </trkpt>
      <trkpt lat="45.89807" lon="3.04754">
        <ele>452</ele>
        <time>2021-07-27T08:09:49Z</time>
      </trkpt>
      <trkpt lat="45.89809" lon="3.04754">
        <ele>452</ele>
        <time>2021-07-27T08:09:50Z</time>
      </trkpt>
      <trkpt lat="45.89811" lon="3.04753">
        <ele>452</ele>
        <time>2021-07-27T08:09:51Z</time>
      </trkpt>
      <trkpt lat="45.89812" lon="3.04753">
        <ele>452</ele>
        <time>2021-07-27T08:09:52Z</time>
      </trkpt>
      <trkpt lat="45.89813" lon="3.04752">
        <ele>452</ele>
        <time>2021-07-27T08:09:53Z</time>
      </trkpt>
      <trkpt lat="45.89815" lon="3.04752">
        <ele>452</ele>
        <time>2021-07-27T08:09:54Z</time>
      </trkpt>
      <trkpt lat="45.89816" lon="3.04751">
        <ele>452</ele>
        <time>2021-07-27T08:09:55Z</time>
      </trkpt>
      <trkpt lat="45.89818" lon="3.04751">
        <ele>452</ele>
        <time>2021-07-27T08:09:56Z</time>
      </trkpt>
      <trkpt lat="45.89819" lon="3.0475">
        <ele>452</ele>
        <time>2021-07-27T08:09:57Z</time>
      </trkpt>
      <trkpt lat="45.89821" lon="3.0475">
        <ele>452</ele>
        <time>2021-07-27T08:09:58Z</time>
      </trkpt>
      <trkpt lat="45.89822" lon="3.04749">
        <ele>452</ele>
        <time>2021-07-27T08:09:59Z</time>
      </trkpt>
      <trkpt lat="45.89825" lon="3.04748">
        <ele>452</ele>
        <time>2021-07-27T08:10:00Z</time>
      </trkpt>
      <trkpt lat="45.89827" lon="3.04747">
        <ele>452</ele>
        <time>2021-07-27T08:10:01Z</time>
      </trkpt>
      <trkpt lat="45.89829" lon="3.04746">
        <ele>452</ele>
        <time>2021-07-27T08:10:02Z</time>
      </trkpt>
      <trkpt lat="45.8983" lon="3.04745">
        <ele>452</ele>
        <time>2021-07-27T08:10:03Z</time>
      </trkpt>
      <trkpt lat="45.89831" lon="3.04744">
        <ele>452</ele>
        <time>2021-07-27T08:10:04Z</time>
      </trkpt>
      <trkpt lat="45.89832" lon="3.04744">
        <ele>452</ele>
        <time>2021-07-27T08:10:05Z</time>
      </trkpt>
      <trkpt lat="45.89833" lon="3.04744">
        <ele>452</ele>
        <time>2021-07-27T08:10:06Z</time>
      </trkpt>
      <trkpt lat="45.89834" lon="3.04743">
        <ele>452</ele>
        <time>2021-07-27T08:10:07Z</time>
      </trkpt>
      <trkpt lat="45.89835" lon="3.04743">
        <ele>452</ele>
        <time>2021-07-27T08:10:08Z</time>
      </trkpt>
      <trkpt lat="45.89835" lon="3.04742">
        <ele>452</ele>
        <time>2021-07-27T08:10:09Z</time>
      </trkpt>
      <trkpt lat="45.89836" lon="3.04742">
        <ele>452</ele>
        <time>2021-07-27T08:10:10Z</time>
      </trkpt>
      <trkpt lat="45.89837" lon="3.04741">
        <ele>452</ele>
        <time>2021-07-27T08:10:11Z</time>
      </trkpt>
      <trkpt lat="45.89838" lon="3.0474">
        <ele>452</ele>
        <time>2021-07-27T08:10:12Z</time>
      </trkpt>
      <trkpt lat="45.89839" lon="3.0474">
        <ele>452</ele>
        <time>2021-07-27T08:10:13Z</time>
      </trkpt>
      <trkpt lat="45.8984" lon="3.04739">
        <ele>452</ele>
        <time>2021-07-27T08:10:14Z</time>
      </trkpt>
      <trkpt lat="45.89842" lon="3.04738">
        <ele>452</ele>
        <time>2021-07-27T08:10:15Z</time>
      </trkpt>
      <trkpt lat="45.89843" lon="3.04737">
        <ele>452</ele>
        <time>2021-07-27T08:10:16Z</time>
      </trkpt>
      <trkpt lat="45.89844" lon="3.04736">
        <ele>452</ele>
        <time>2021-07-27T08:10:17Z</time>
      </trkpt>
      <trkpt lat="45.89845" lon="3.04735">
        <ele>452</ele>
        <time>2021-07-27T08:10:18Z</time>
      </trkpt>
      <trkpt lat="45.89846" lon="3.04734">
        <ele>452</ele>
        <time>2021-07-27T08:10:19Z</time>
      </trkpt>
      <trkpt lat="45.89846" lon="3.04732">
        <ele>452</ele>
        <time>2021-07-27T08:10:20Z</time>
      </trkpt>
      <trkpt lat="45.89847" lon="3.04731">
        <ele>452</ele>
        <time>2021-07-27T08:10:21Z</time>
      </trkpt>
      <trkpt lat="45.89848" lon="3.04729">
        <ele>452</ele>
        <time>2021-07-27T08:10:22Z</time>
      </trkpt>
      <trkpt lat="45.89849" lon="3.04727">
        <ele>452</ele>
        <time>2021-07-27T08:10:23Z</time>
      </trkpt>
      <trkpt lat="45.8985" lon="3.04726">
        <ele>452</ele>
        <time>2021-07-27T08:10:24Z</time>
      </trkpt>
      <trkpt lat="45.8985" lon="3.04724">
        <ele>452</ele>
        <time>2021-07-27T08:10:25Z</time>
      </trkpt>
      <trkpt lat="45.89851" lon="3.04722">
        <ele>452</ele>
        <time>2021-07-27T08:10:26Z</time>
      </trkpt>
      <trkpt lat="45.89852" lon="3.0472">
        <ele>452</ele>
        <time>2021-07-27T08:10:27Z</time>
      </trkpt>
      <trkpt lat="45.89853" lon="3.04718">
        <ele>452</ele>
        <time>2021-07-27T08:10:28Z</time>
      </trkpt>
      <trkpt lat="45.89854" lon="3.04716">
        <ele>452</ele>
        <time>2021-07-27T08:10:29Z</time>
      </trkpt>
      <trkpt lat="45.89855" lon="3.04714">
        <ele>452</ele>
        <time>2021-07-27T08:10:31Z</time>
      </trkpt>
      <trkpt lat="45.8986" lon="3.04707">
        <ele>452</ele>
        <time>2021-07-27T08:10:32Z</time>
      </trkpt>
      <trkpt lat="45.8986" lon="3.04706">
        <ele>452</ele>
        <time>2021-07-27T08:10:32Z</time>
      </trkpt>
      <trkpt lat="45.8986" lon="3.04705">
        <ele>452</ele>
        <time>2021-07-27T08:10:33Z</time>
      </trkpt>
      <trkpt lat="45.8986" lon="3.04704">
        <ele>452</ele>
        <time>2021-07-27T08:10:34Z</time>
      </trkpt>
      <trkpt lat="45.8986" lon="3.04702">
        <ele>452</ele>
        <time>2021-07-27T08:10:35Z</time>
      </trkpt>
      <trkpt lat="45.89859" lon="3.04701">
        <ele>452</ele>
        <time>2021-07-27T08:10:36Z</time>
      </trkpt>
      <trkpt lat="45.89859" lon="3.04699">
        <ele>452</ele>
        <time>2021-07-27T08:10:37Z</time>
      </trkpt>
      <trkpt lat="45.89859" lon="3.04697">
        <ele>452</ele>
        <time>2021-07-27T08:10:38Z</time>
      </trkpt>
      <trkpt lat="45.89859" lon="3.04695">
        <ele>452</ele>
        <time>2021-07-27T08:10:39Z</time>
      </trkpt>
      <trkpt lat="45.89858" lon="3.04693">
        <ele>452</ele>
        <time>2021-07-27T08:10:40Z</time>
      </trkpt>
      <trkpt lat="45.89858" lon="3.04691">
        <ele>452</ele>
        <time>2021-07-27T08:10:41Z</time>
      </trkpt>
      <trkpt lat="45.89857" lon="3.04689">
        <ele>452</ele>
        <time>2021-07-27T08:10:42Z</time>
      </trkpt>
      <trkpt lat="45.89856" lon="3.04687">
        <ele>452</ele>
        <time>2021-07-27T08:10:43Z</time>
      </trkpt>
      <trkpt lat="45.89856" lon="3.04685">
        <ele>452</ele>
        <time>2021-07-27T08:10:44Z</time>
      </trkpt>
      <trkpt lat="45.89855" lon="3.04683">
        <ele>452</ele>
        <time>2021-07-27T08:10:45Z</time>
      </trkpt>
      <trkpt lat="45.89854" lon="3.04681">
        <ele>452</ele>
        <time>2021-07-27T08:10:46Z</time>
      </trkpt>
      <trkpt lat="45.89853" lon="3.04679">
        <ele>452</ele>
        <time>2021-07-27T08:10:47Z</time>
      </trkpt>
      <trkpt lat="45.89853" lon="3.04678">
        <ele>452</ele>
        <time>2021-07-27T08:10:48Z</time>
      </trkpt>
      <trkpt lat="45.89852" lon="3.04676">
        <ele>452</ele>
        <time>2021-07-27T08:10:49Z</time>
      </trkpt>
      <trkpt lat="45.89852" lon="3.04674">
        <ele>452</ele>
        <time>2021-07-27T08:10:50Z</time>
      </trkpt>
      <trkpt lat="45.89851" lon="3.04673">
        <ele>452</ele>
        <time>2021-07-27T08:10:51Z</time>
      </trkpt>
      <trkpt lat="45.89851" lon="3.04671">
        <ele>452</ele>
        <time>2021-07-27T08:10:52Z</time>
      </trkpt>
      <trkpt lat="45.89851" lon="3.0467">
        <ele>452</ele>
        <time>2021-07-27T08:10:53Z</time>
      </trkpt>
      <trkpt lat="45.8985" lon="3.04668">
        <ele>452</ele>
        <time>2021-07-27T08:10:54Z</time>
      </trkpt>
      <trkpt lat="45.8985" lon="3.04667">
        <ele>452</ele>
        <time>2021-07-27T08:10:55Z</time>
      </trkpt>
      <trkpt lat="45.89849" lon="3.04665">
        <ele>452</ele>
        <time>2021-07-27T08:10:56Z</time>
      </trkpt>
      <trkpt lat="45.89849" lon="3.04663">
        <ele>452</ele>
        <time>2021-07-27T08:10:57Z</time>
      </trkpt>
      <trkpt lat="45.89848" lon="3.04661">
        <ele>452</ele>
        <time>2021-07-27T08:10:58Z</time>
      </trkpt>
      <trkpt lat="45.89848" lon="3.04659">
        <ele>452</ele>
        <time>2021-07-27T08:10:59Z</time>
      </trkpt>
      <trkpt lat="45.89848" lon="3.04657">
        <ele>452</ele>
        <time>2021-07-27T08:11:00Z</time>
      </trkpt>
      <trkpt lat="45.89848" lon="3.04655">
        <ele>452</ele>
        <time>2021-07-27T08:11:01Z</time>
      </trkpt>
      <trkpt lat="45.89847" lon="3.04653">
        <ele>452</ele>
        <time>2021-07-27T08:11:02Z</time>
      </trkpt>
      <trkpt lat="45.89847" lon="3.04651">
        <ele>452</ele>
        <time>2021-07-27T08:11:03Z</time>
      </trkpt>
      <trkpt lat="45.89846" lon="3.04649">
        <ele>452</ele>
        <time>2021-07-27T08:11:04Z</time>
      </trkpt>
      <trkpt lat="45.89846" lon="3.04647">
        <ele>452</ele>
        <time>2021-07-27T08:11:05Z</time>
      </trkpt>
      <trkpt lat="45.89846" lon="3.04645">
        <ele>452</ele>
        <time>2021-07-27T08:11:06Z</time>
      </trkpt>
      <trkpt lat="45.89846" lon="3.04643">
        <ele>452</ele>
        <time>2021-07-27T08:11:07Z</time>
      </trkpt>
      <trkpt lat="45.89846" lon="3.04642">
        <ele>452</ele>
        <time>2021-07-27T08:11:08Z</time>
      </trkpt>
      <trkpt lat="45.89847" lon="3.04641">
        <ele>452</ele>
        <time>2021-07-27T08:11:09Z</time>
      </trkpt>
      <trkpt lat="45.89847" lon="3.04639">
        <ele>452</ele>
        <time>2021-07-27T08:11:11Z</time>
      </trkpt>
      <trkpt lat="45.89847" lon="3.04639">
        <ele>452</ele>
        <time>2021-07-27T08:11:12Z</time>
      </trkpt>
      <trkpt lat="45.89848" lon="3.04638">
        <ele>452</ele>
        <time>2021-07-27T08:11:13Z</time>
      </trkpt>
      <trkpt lat="45.89848" lon="3.04638">
        <ele>452</ele>
        <time>2021-07-27T08:11:14Z</time>
      </trkpt>
      <trkpt lat="45.89848" lon="3.04637">
        <ele>452</ele>
        <time>2021-07-27T08:11:15Z</time>
      </trkpt>
      <trkpt lat="45.89847" lon="3.04636">
        <ele>452</ele>
        <time>2021-07-27T08:11:16Z</time>
      </trkpt>
      <trkpt lat="45.89847" lon="3.04635">
        <ele>452</ele>
        <time>2021-07-27T08:11:17Z</time>
      </trkpt>
      <trkpt lat="45.89847" lon="3.04633">
        <ele>452</ele>
        <time>2021-07-27T08:11:18Z</time>
      </trkpt>
      <trkpt lat="45.89847" lon="3.04632">
        <ele>452</ele>
        <time>2021-07-27T08:11:19Z</time>
      </trkpt>
      <trkpt lat="45.89847" lon="3.0463">
        <ele>452</ele>
        <time>2021-07-27T08:11:20Z</time>
      </trkpt>
      <trkpt lat="45.89847" lon="3.04628">
        <ele>452</ele>
        <time>2021-07-27T08:11:21Z</time>
      </trkpt>
      <trkpt lat="45.89848" lon="3.04627">
        <ele>452</ele>
        <time>2021-07-27T08:11:22Z</time>
      </trkpt>
      <trkpt lat="45.89848" lon="3.04625">
        <ele>452</ele>
        <time>2021-07-27T08:11:23Z</time>
      </trkpt>
      <trkpt lat="45.89848" lon="3.04623">
        <ele>452</ele>
        <time>2021-07-27T08:11:24Z</time>
      </trkpt>
      <trkpt lat="45.89848" lon="3.04622">
        <ele>452</ele>
        <time>2021-07-27T08:11:25Z</time>
      </trkpt>
      <trkpt lat="45.89848" lon="3.0462">
        <ele>452</ele>
        <time>2021-07-27T08:11:26Z</time>
      </trkpt>
      <trkpt lat="45.89848" lon="3.04618">
        <ele>452</ele>
        <time>2021-07-27T08:11:27Z</time>
      </trkpt>
      <trkpt lat="45.89848" lon="3.04616">
        <ele>452</ele>
        <time>2021-07-27T08:11:28Z</time>
      </trkpt>
      <trkpt lat="45.89848" lon="3.04614">
        <ele>452</ele>
        <time>2021-07-27T08:11:30Z</time>
      </trkpt>
      <trkpt lat="45.89848" lon="3.04611">
        <ele>452</ele>
        <time>2021-07-27T08:11:31Z</time>
      </trkpt>
      <trkpt lat="45.89848" lon="3.04611">
        <ele>452</ele>
        <time>2021-07-27T08:11:32Z</time>
      </trkpt>
      <trkpt lat="45.89848" lon="3.04612">
        <ele>452</ele>
        <time>2021-07-27T08:11:33Z</time>
      </trkpt>
      <trkpt lat="45.89848" lon="3.04612">
        <ele>452</ele>
        <time>2021-07-27T08:11:34Z</time>
      </trkpt>
      <trkpt lat="45.89848" lon="3.04612">
        <ele>452</ele>
        <time>2021-07-27T08:11:35Z</time>
      </trkpt>
      <trkpt lat="45.89848" lon="3.04613">
        <ele>452</ele>
        <time>2021-07-27T08:11:36Z</time>
      </trkpt>
      <trkpt lat="45.89848" lon="3.04614">
        <ele>452</ele>
        <time>2021-07-27T08:11:37Z</time>
      </trkpt>
      <trkpt lat="45.89848" lon="3.04616">
        <ele>452</ele>
        <time>2021-07-27T08:11:38Z</time>
      </trkpt>
      <trkpt lat="45.89848" lon="3.04617">
        <ele>452</ele>
        <time>2021-07-27T08:11:39Z</time>
      </trkpt>
      <trkpt lat="45.89848" lon="3.04618">
        <ele>452</ele>
        <time>2021-07-27T08:11:40Z</time>
      </trkpt>
      <trkpt lat="45.89849" lon="3.04619">
        <ele>452</ele>
        <time>2021-07-27T08:11:41Z</time>
      </trkpt>
      <trkpt lat="45.89849" lon="3.0462">
        <ele>452</ele>
        <time>2021-07-27T08:11:42Z</time>
      </trkpt>
      <trkpt lat="45.89849" lon="3.04621">
        <ele>452</ele>
        <time>2021-07-27T08:11:43Z</time>
      </trkpt>
      <trkpt lat="45.89849" lon="3.04621">
        <ele>452</ele>
        <time>2021-07-27T08:11:44Z</time>
      </trkpt>
      <trkpt lat="45.89849" lon="3.04621">
        <ele>452</ele>
        <time>2021-07-27T08:11:50Z</time>
      </trkpt>
      <trkpt lat="45.89848" lon="3.04623">
        <ele>452</ele>
        <time>2021-07-27T08:11:51Z</time>
      </trkpt>
      <trkpt lat="45.89848" lon="3.04624">
        <ele>452</ele>
        <time>2021-07-27T08:11:52Z</time>
      </trkpt>
      <trkpt lat="45.89848" lon="3.04625">
        <ele>452</ele>
        <time>2021-07-27T08:11:53Z</time>
      </trkpt>
      <trkpt lat="45.89847" lon="3.04626">
        <ele>452</ele>
        <time>2021-07-27T08:11:54Z</time>
      </trkpt>
      <trkpt lat="45.89847" lon="3.04628">
        <ele>452</ele>
        <time>2021-07-27T08:11:55Z</time>
      </trkpt>
      <trkpt lat="45.89846" lon="3.04629">
        <ele>452</ele>
        <time>2021-07-27T08:11:56Z</time>
      </trkpt>
      <trkpt lat="45.89846" lon="3.0463">
        <ele>452</ele>
        <time>2021-07-27T08:11:57Z</time>
      </trkpt>
      <trkpt lat="45.89846" lon="3.04631">
        <ele>452</ele>
        <time>2021-07-27T08:11:58Z</time>
      </trkpt>
      <trkpt lat="45.89846" lon="3.04632">
        <ele>452</ele>
        <time>2021-07-27T08:11:59Z</time>
      </trkpt>
      <trkpt lat="45.89847" lon="3.04632">
        <ele>452</ele>
        <time>2021-07-27T08:12:00Z</time>
      </trkpt>
      <trkpt lat="45.89848" lon="3.04632">
        <ele>452</ele>
        <time>2021-07-27T08:12:01Z</time>
      </trkpt>
      <trkpt lat="45.89848" lon="3.04632">
        <ele>452</ele>
        <time>2021-07-27T08:12:02Z</time>
      </trkpt>
      <trkpt lat="45.89848" lon="3.04632">
        <ele>452</ele>
        <time>2021-07-27T08:12:03Z</time>
      </trkpt>
      <trkpt lat="45.89848" lon="3.04631">
        <ele>452</ele>
        <time>2021-07-27T08:12:07Z</time>
      </trkpt>
      <trkpt lat="45.89848" lon="3.04631">
        <ele>452</ele>
        <time>2021-07-27T08:12:08Z</time>
      </trkpt>
      <trkpt lat="45.89848" lon="3.04631">
        <ele>452</ele>
        <time>2021-07-27T08:12:09Z</time>
      </trkpt>
      <trkpt lat="45.89847" lon="3.04632">
        <ele>452</ele>
        <time>2021-07-27T08:12:46Z</time>
      </trkpt>
      <trkpt lat="45.89848" lon="3.04633">
        <ele>452</ele>
        <time>2021-07-27T08:12:47Z</time>
      </trkpt>
      <trkpt lat="45.89848" lon="3.04634">
        <ele>452</ele>
        <time>2021-07-27T08:12:48Z</time>
      </trkpt>
      <trkpt lat="45.89848" lon="3.04636">
        <ele>452</ele>
        <time>2021-07-27T08:12:49Z</time>
      </trkpt>
      <trkpt lat="45.89849" lon="3.04637">
        <ele>452</ele>
        <time>2021-07-27T08:12:50Z</time>
      </trkpt>
      <trkpt lat="45.8985" lon="3.04639">
        <ele>452</ele>
        <time>2021-07-27T08:12:51Z</time>
      </trkpt>
      <trkpt lat="45.89851" lon="3.04641">
        <ele>452</ele>
        <time>2021-07-27T08:12:52Z</time>
      </trkpt>
      <trkpt lat="45.89852" lon="3.04643">
        <ele>452</ele>
        <time>2021-07-27T08:12:53Z</time>
      </trkpt>
      <trkpt lat="45.89853" lon="3.04645">
        <ele>452</ele>
        <time>2021-07-27T08:12:54Z</time>
      </trkpt>
      <trkpt lat="45.89853" lon="3.04647">
        <ele>452</ele>
        <time>2021-07-27T08:12:55Z</time>
      </trkpt>
      <trkpt lat="45.89854" lon="3.04649">
        <ele>452</ele>
        <time>2021-07-27T08:12:56Z</time>
      </trkpt>
      <trkpt lat="45.89855" lon="3.04651">
        <ele>452</ele>
        <time>2021-07-27T08:12:57Z</time>
      </trkpt>
      <trkpt lat="45.89856" lon="3.04653">
        <ele>452</ele>
        <time>2021-07-27T08:12:58Z</time>
      </trkpt>
      <trkpt lat="45.89857" lon="3.04654">
        <ele>452</ele>
        <time>2021-07-27T08:12:59Z</time>
      </trkpt>
      <trkpt lat="45.89858" lon="3.04656">
        <ele>452</ele>
        <time>2021-07-27T08:13:00Z</time>
      </trkpt>
      <trkpt lat="45.89859" lon="3.04658">
        <ele>452</ele>
        <time>2021-07-27T08:13:01Z</time>
      </trkpt>
      <trkpt lat="45.8986" lon="3.0466">
        <ele>452</ele>
        <time>2021-07-27T08:13:02Z</time>
      </trkpt>
      <trkpt lat="45.89861" lon="3.04662">
        <ele>452</ele>
        <time>2021-07-27T08:13:03Z</time>
      </trkpt>
      <trkpt lat="45.89862" lon="3.04664">
        <ele>452</ele>
        <time>2021-07-27T08:13:04Z</time>
      </trkpt>
      <trkpt lat="45.89862" lon="3.04666">
        <ele>452</ele>
        <time>2021-07-27T08:13:05Z</time>
      </trkpt>
      <trkpt lat="45.89864" lon="3.04668">
        <ele>452</ele>
        <time>2021-07-27T08:13:06Z</time>
      </trkpt>
      <trkpt lat="45.89864" lon="3.0467">
        <ele>452</ele>
        <time>2021-07-27T08:13:07Z</time>
      </trkpt>
      <trkpt lat="45.89866" lon="3.04672">
        <ele>452</ele>
        <time>2021-07-27T08:13:08Z</time>
      </trkpt>
      <trkpt lat="45.89867" lon="3.04674">
        <ele>452</ele>
        <time>2021-07-27T08:13:09Z</time>
      </trkpt>
      <trkpt lat="45.89867" lon="3.04675">
        <ele>452</ele>
        <time>2021-07-27T08:13:10Z</time>
      </trkpt>
      <trkpt lat="45.89868" lon="3.04677">
        <ele>452</ele>
        <time>2021-07-27T08:13:11Z</time>
      </trkpt>
      <trkpt lat="45.89869" lon="3.04678">
        <ele>452</ele>
        <time>2021-07-27T08:13:12Z</time>
      </trkpt>
      <trkpt lat="45.89869" lon="3.0468">
        <ele>452</ele>
        <time>2021-07-27T08:13:13Z</time>
      </trkpt>
      <trkpt lat="45.8987" lon="3.04681">
        <ele>452</ele>
        <time>2021-07-27T08:13:14Z</time>
      </trkpt>
      <trkpt lat="45.8987" lon="3.04683">
        <ele>452</ele>
        <time>2021-07-27T08:13:15Z</time>
      </trkpt>
      <trkpt lat="45.89871" lon="3.04684">
        <ele>452</ele>
        <time>2021-07-27T08:13:16Z</time>
      </trkpt>
      <trkpt lat="45.89871" lon="3.04686">
        <ele>452</ele>
        <time>2021-07-27T08:13:17Z</time>
      </trkpt>
      <trkpt lat="45.89871" lon="3.04687">
        <ele>452</ele>
        <time>2021-07-27T08:13:18Z</time>
      </trkpt>
      <trkpt lat="45.89871" lon="3.04689">
        <ele>452</ele>
        <time>2021-07-27T08:13:19Z</time>
      </trkpt>
      <trkpt lat="45.89872" lon="3.04691">
        <ele>452</ele>
        <time>2021-07-27T08:13:20Z</time>
      </trkpt>
      <trkpt lat="45.89872" lon="3.04693">
        <ele>452</ele>
        <time>2021-07-27T08:13:21Z</time>
      </trkpt>
      <trkpt lat="45.89872" lon="3.04696">
        <ele>452</ele>
        <time>2021-07-27T08:13:22Z</time>
      </trkpt>
      <trkpt lat="45.89872" lon="3.04698">
        <ele>452</ele>
        <time>2021-07-27T08:13:23Z</time>
      </trkpt>
      <trkpt lat="45.89872" lon="3.047">
        <ele>452</ele>
        <time>2021-07-27T08:13:24Z</time>
      </trkpt>
      <trkpt lat="45.89871" lon="3.04703">
        <ele>452</ele>
        <time>2021-07-27T08:13:25Z</time>
      </trkpt>
      <trkpt lat="45.89871" lon="3.04705">
        <ele>452</ele>
        <time>2021-07-27T08:13:26Z</time>
      </trkpt>
      <trkpt lat="45.8987" lon="3.04708">
        <ele>452</ele>
        <time>2021-07-27T08:13:27Z</time>
      </trkpt>
      <trkpt lat="45.8987" lon="3.0471">
        <ele>452</ele>
        <time>2021-07-27T08:13:28Z</time>
      </trkpt>
      <trkpt lat="45.89869" lon="3.04713">
        <ele>452</ele>
        <time>2021-07-27T08:13:30Z</time>
      </trkpt>
      <trkpt lat="45.89865" lon="3.04723">
        <ele>452</ele>
        <time>2021-07-27T08:13:31Z</time>
      </trkpt>
      <trkpt lat="45.89865" lon="3.04723">
        <ele>452</ele>
        <time>2021-07-27T08:13:32Z</time>
      </trkpt>
      <trkpt lat="45.89864" lon="3.04724">
        <ele>452</ele>
        <time>2021-07-27T08:13:33Z</time>
      </trkpt>
      <trkpt lat="45.89864" lon="3.04725">
        <ele>452</ele>
        <time>2021-07-27T08:13:34Z</time>
      </trkpt>
      <trkpt lat="45.89863" lon="3.04726">
        <ele>452</ele>
        <time>2021-07-27T08:13:35Z</time>
      </trkpt>
      <trkpt lat="45.89862" lon="3.04728">
        <ele>452</ele>
        <time>2021-07-27T08:13:36Z</time>
      </trkpt>
      <trkpt lat="45.89861" lon="3.04729">
        <ele>452</ele>
        <time>2021-07-27T08:13:37Z</time>
      </trkpt>
      <trkpt lat="45.89861" lon="3.0473">
        <ele>452</ele>
        <time>2021-07-27T08:13:38Z</time>
      </trkpt>
      <trkpt lat="45.89859" lon="3.04732">
        <ele>452</ele>
        <time>2021-07-27T08:13:39Z</time>
      </trkpt>
      <trkpt lat="45.89858" lon="3.04733">
        <ele>452</ele>
        <time>2021-07-27T08:13:40Z</time>
      </trkpt>
      <trkpt lat="45.89857" lon="3.04734">
        <ele>452</ele>
        <time>2021-07-27T08:13:41Z</time>
      </trkpt>
      <trkpt lat="45.89856" lon="3.04736">
        <ele>452</ele>
        <time>2021-07-27T08:13:42Z</time>
      </trkpt>
      <trkpt lat="45.89855" lon="3.04737">
        <ele>452</ele>
        <time>2021-07-27T08:13:43Z</time>
      </trkpt>
      <trkpt lat="45.89854" lon="3.04738">
        <ele>452</ele>
        <time>2021-07-27T08:13:44Z</time>
      </trkpt>
      <trkpt lat="45.89854" lon="3.04739">
        <ele>452</ele>
        <time>2021-07-27T08:13:45Z</time>
      </trkpt>
      <trkpt lat="45.89853" lon="3.0474">
        <ele>452</ele>
        <time>2021-07-27T08:13:46Z</time>
      </trkpt>
      <trkpt lat="45.89852" lon="3.04742">
        <ele>452</ele>
        <time>2021-07-27T08:13:47Z</time>
      </trkpt>
      <trkpt lat="45.89851" lon="3.04743">
        <ele>452</ele>
        <time>2021-07-27T08:13:48Z</time>
      </trkpt>
      <trkpt lat="45.8985" lon="3.04744">
        <ele>452</ele>
        <time>2021-07-27T08:13:49Z</time>
      </trkpt>
      <trkpt lat="45.8985" lon="3.04744">
        <ele>452</ele>
        <time>2021-07-27T08:14:06Z</time>
      </trkpt>
      <trkpt lat="45.89851" lon="3.04743">
        <ele>452</ele>
        <time>2021-07-27T08:14:07Z</time>
      </trkpt>
      <trkpt lat="45.89851" lon="3.04743">
        <ele>452</ele>
        <time>2021-07-27T08:14:08Z</time>
      </trkpt>
      <trkpt lat="45.89851" lon="3.04742">
        <ele>452</ele>
        <time>2021-07-27T08:14:09Z</time>
      </trkpt>
      <trkpt lat="45.89852" lon="3.04742">
        <ele>452</ele>
        <time>2021-07-27T08:14:10Z</time>
      </trkpt>
      <trkpt lat="45.89852" lon="3.04741">
        <ele>452</ele>
        <time>2021-07-27T08:14:11Z</time>
      </trkpt>
      <trkpt lat="45.89853" lon="3.0474">
        <ele>452</ele>
        <time>2021-07-27T08:14:12Z</time>
      </trkpt>
      <trkpt lat="45.89854" lon="3.04739">
        <ele>452</ele>
        <time>2021-07-27T08:14:13Z</time>
      </trkpt>
      <trkpt lat="45.89855" lon="3.04738">
        <ele>452</ele>
        <time>2021-07-27T08:14:14Z</time>
      </trkpt>
      <trkpt lat="45.89856" lon="3.04737">
        <ele>452</ele>
        <time>2021-07-27T08:14:15Z</time>
      </trkpt>
      <trkpt lat="45.89857" lon="3.04736">
        <ele>452</ele>
        <time>2021-07-27T08:14:16Z</time>
      </trkpt>
      <trkpt lat="45.89858" lon="3.04734">
        <ele>452</ele>
        <time>2021-07-27T08:14:17Z</time>
      </trkpt>
      <trkpt lat="45.89859" lon="3.04733">
        <ele>452</ele>
        <time>2021-07-27T08:14:18Z</time>
      </trkpt>
      <trkpt lat="45.8986" lon="3.04731">
        <ele>452</ele>
        <time>2021-07-27T08:14:19Z</time>
      </trkpt>
      <trkpt lat="45.89861" lon="3.0473">
        <ele>452</ele>
        <time>2021-07-27T08:14:20Z</time>
      </trkpt>
      <trkpt lat="45.89862" lon="3.04728">
        <ele>452</ele>
        <time>2021-07-27T08:14:21Z</time>
      </trkpt>
      <trkpt lat="45.89864" lon="3.04727">
        <ele>452</ele>
        <time>2021-07-27T08:14:22Z</time>
      </trkpt>
      <trkpt lat="45.89865" lon="3.04726">
        <ele>452</ele>
        <time>2021-07-27T08:14:23Z</time>
      </trkpt>
      <trkpt lat="45.89866" lon="3.04724">
        <ele>452</ele>
        <time>2021-07-27T08:14:24Z</time>
      </trkpt>
      <trkpt lat="45.89867" lon="3.04723">
        <ele>452</ele>
        <time>2021-07-27T08:14:25Z</time>
      </trkpt>
      <trkpt lat="45.89868" lon="3.04722">
        <ele>452</ele>
        <time>2021-07-27T08:14:26Z</time>
      </trkpt>
      <trkpt lat="45.89869" lon="3.04721">
        <ele>452</ele>
        <time>2021-07-27T08:14:27Z</time>
      </trkpt>
      <trkpt lat="45.8987" lon="3.0472">
        <ele>452</ele>
        <time>2021-07-27T08:14:28Z</time>
      </trkpt>
      <trkpt lat="45.89871" lon="3.04719">
        <ele>452</ele>
        <time>2021-07-27T08:14:29Z</time>
      </trkpt>
      <trkpt lat="45.89872" lon="3.04719">
        <ele>452</ele>
        <time>2021-07-27T08:14:31Z</time>
      </trkpt>
      <trkpt lat="45.89875" lon="3.04718">
        <ele>452</ele>
        <time>2021-07-27T08:14:32Z</time>
      </trkpt>
      <trkpt lat="45.89876" lon="3.04717">
        <ele>452</ele>
        <time>2021-07-27T08:14:33Z</time>
      </trkpt>
      <trkpt lat="45.89876" lon="3.04717">
        <ele>452</ele>
        <time>2021-07-27T08:14:34Z</time>
      </trkpt>
      <trkpt lat="45.89877" lon="3.04717">
        <ele>452</ele>
        <time>2021-07-27T08:14:35Z</time>
      </trkpt>
      <trkpt lat="45.89878" lon="3.04716">
        <ele>452</ele>
        <time>2021-07-27T08:14:36Z</time>
      </trkpt>
      <trkpt lat="45.89879" lon="3.04716">
        <ele>452</ele>
        <time>2021-07-27T08:14:37Z</time>
      </trkpt>
      <trkpt lat="45.8988" lon="3.04717">
        <ele>452</ele>
        <time>2021-07-27T08:14:38Z</time>
      </trkpt>
      <trkpt lat="45.89881" lon="3.04717">
        <ele>452</ele>
        <time>2021-07-27T08:14:39Z</time>
      </trkpt>
      <trkpt lat="45.89882" lon="3.04718">
        <ele>452</ele>
        <time>2021-07-27T08:14:40Z</time>
      </trkpt>
      <trkpt lat="45.89882" lon="3.0472">
        <ele>452</ele>
        <time>2021-07-27T08:14:41Z</time>
      </trkpt>
      <trkpt lat="45.89883" lon="3.04721">
        <ele>452</ele>
        <time>2021-07-27T08:14:42Z</time>
      </trkpt>
      <trkpt lat="45.89884" lon="3.04723">
        <ele>452</ele>
        <time>2021-07-27T08:14:43Z</time>
      </trkpt>
      <trkpt lat="45.89885" lon="3.04725">
        <ele>452</ele>
        <time>2021-07-27T08:14:44Z</time>
      </trkpt>
      <trkpt lat="45.89885" lon="3.04726">
        <ele>452</ele>
        <time>2021-07-27T08:14:45Z</time>
      </trkpt>
      <trkpt lat="45.89887" lon="3.04728">
        <ele>452</ele>
        <time>2021-07-27T08:14:46Z</time>
      </trkpt>
      <trkpt lat="45.89888" lon="3.04729">
        <ele>452</ele>
        <time>2021-07-27T08:14:47Z</time>
      </trkpt>
      <trkpt lat="45.89888" lon="3.04731">
        <ele>452</ele>
        <time>2021-07-27T08:14:47Z</time>
      </trkpt>
      <trkpt lat="45.89889" lon="3.04733">
        <ele>452</ele>
        <time>2021-07-27T08:14:48Z</time>
      </trkpt>
      <trkpt lat="45.8989" lon="3.04735">
        <ele>452</ele>
        <time>2021-07-27T08:14:49Z</time>
      </trkpt>
      <trkpt lat="45.8989" lon="3.04737">
        <ele>452</ele>
        <time>2021-07-27T08:14:50Z</time>
      </trkpt>
      <trkpt lat="45.8989" lon="3.04739">
        <ele>452</ele>
        <time>2021-07-27T08:14:51Z</time>
      </trkpt>
      <trkpt lat="45.89891" lon="3.04741">
        <ele>452</ele>
        <time>2021-07-27T08:14:52Z</time>
      </trkpt>
      <trkpt lat="45.89891" lon="3.04743">
        <ele>452</ele>
        <time>2021-07-27T08:14:53Z</time>
      </trkpt>
      <trkpt lat="45.89891" lon="3.04745">
        <ele>452</ele>
        <time>2021-07-27T08:14:54Z</time>
      </trkpt>
      <trkpt lat="45.89891" lon="3.04747">
        <ele>452</ele>
        <time>2021-07-27T08:14:55Z</time>
      </trkpt>
      <trkpt lat="45.89891" lon="3.04749">
        <ele>452</ele>
        <time>2021-07-27T08:14:56Z</time>
      </trkpt>
      <trkpt lat="45.89891" lon="3.04751">
        <ele>452</ele>
        <time>2021-07-27T08:14:57Z</time>
      </trkpt>
      <trkpt lat="45.89892" lon="3.04752">
        <ele>452</ele>
        <time>2021-07-27T08:14:58Z</time>
      </trkpt>
      <trkpt lat="45.89892" lon="3.04754">
        <ele>452</ele>
        <time>2021-07-27T08:14:59Z</time>
      </trkpt>
      <trkpt lat="45.89893" lon="3.04756">
        <ele>452</ele>
        <time>2021-07-27T08:15:00Z</time>
      </trkpt>
      <trkpt lat="45.89893" lon="3.04758">
        <ele>452</ele>
        <time>2021-07-27T08:15:01Z</time>
      </trkpt>
      <trkpt lat="45.89893" lon="3.0476">
        <ele>452</ele>
        <time>2021-07-27T08:15:02Z</time>
      </trkpt>
      <trkpt lat="45.89893" lon="3.04761">
        <ele>452</ele>
        <time>2021-07-27T08:15:03Z</time>
      </trkpt>
      <trkpt lat="45.89893" lon="3.04763">
        <ele>452</ele>
        <time>2021-07-27T08:15:04Z</time>
      </trkpt>
      <trkpt lat="45.89893" lon="3.04765">
        <ele>452</ele>
        <time>2021-07-27T08:15:05Z</time>
      </trkpt>
      <trkpt lat="45.89893" lon="3.04767">
        <ele>452</ele>
        <time>2021-07-27T08:15:06Z</time>
      </trkpt>
      <trkpt lat="45.89893" lon="3.04768">
        <ele>452</ele>
        <time>2021-07-27T08:15:07Z</time>
      </trkpt>
      <trkpt lat="45.89893" lon="3.0477">
        <ele>452</ele>
        <time>2021-07-27T08:15:08Z</time>
      </trkpt>
      <trkpt lat="45.89893" lon="3.04772">
        <ele>452</ele>
        <time>2021-07-27T08:15:09Z</time>
      </trkpt>
      <trkpt lat="45.89894" lon="3.04774">
        <ele>452</ele>
        <time>2021-07-27T08:15:10Z</time>
      </trkpt>
      <trkpt lat="45.89894" lon="3.04776">
        <ele>452</ele>
        <time>2021-07-27T08:15:11Z</time>
      </trkpt>
      <trkpt lat="45.89894" lon="3.04779">
        <ele>452</ele>
        <time>2021-07-27T08:15:12Z</time>
      </trkpt>
      <trkpt lat="45.89894" lon="3.04781">
        <ele>452</ele>
        <time>2021-07-27T08:15:13Z</time>
      </trkpt>
      <trkpt lat="45.89895" lon="3.04783">
        <ele>452</ele>
        <time>2021-07-27T08:15:14Z</time>
      </trkpt>
      <trkpt lat="45.89895" lon="3.04785">
        <ele>452</ele>
        <time>2021-07-27T08:15:15Z</time>
      </trkpt>
      <trkpt lat="45.89895" lon="3.04787">
        <ele>452</ele>
        <time>2021-07-27T08:15:16Z</time>
      </trkpt>
      <trkpt lat="45.89895" lon="3.04789">
        <ele>452</ele>
        <time>2021-07-27T08:15:17Z</time>
      </trkpt>
      <trkpt lat="45.89895" lon="3.04791">
        <ele>452</ele>
        <time>2021-07-27T08:15:18Z</time>
      </trkpt>
      <trkpt lat="45.89895" lon="3.04793">
        <ele>452</ele>
        <time>2021-07-27T08:15:19Z</time>
      </trkpt>
      <trkpt lat="45.89896" lon="3.04795">
        <ele>452</ele>
        <time>2021-07-27T08:15:20Z</time>
      </trkpt>
      <trkpt lat="45.89896" lon="3.04797">
        <ele>452</ele>
        <time>2021-07-27T08:15:21Z</time>
      </trkpt>
      <trkpt lat="45.89896" lon="3.04799">
        <ele>452</ele>
        <time>2021-07-27T08:15:22Z</time>
      </trkpt>
      <trkpt lat="45.89897" lon="3.04801">
        <ele>452</ele>
        <time>2021-07-27T08:15:23Z</time>
      </trkpt>
      <trkpt lat="45.89898" lon="3.04803">
        <ele>452</ele>
        <time>2021-07-27T08:15:24Z</time>
      </trkpt>
      <trkpt lat="45.89899" lon="3.04804">
        <ele>452</ele>
        <time>2021-07-27T08:15:25Z</time>
      </trkpt>
      <trkpt lat="45.899" lon="3.04806">
        <ele>452</ele>
        <time>2021-07-27T08:15:26Z</time>
      </trkpt>
      <trkpt lat="45.89901" lon="3.04807">
        <ele>452</ele>
        <time>2021-07-27T08:15:27Z</time>
      </trkpt>
      <trkpt lat="45.89902" lon="3.04808">
        <ele>452</ele>
        <time>2021-07-27T08:15:29Z</time>
      </trkpt>
      <trkpt lat="45.89904" lon="3.04814">
        <ele>452</ele>
        <time>2021-07-27T08:15:30Z</time>
      </trkpt>
      <trkpt lat="45.89904" lon="3.04814">
        <ele>452</ele>
        <time>2021-07-27T08:15:31Z</time>
      </trkpt>
      <trkpt lat="45.89905" lon="3.04815">
        <ele>452</ele>
        <time>2021-07-27T08:15:32Z</time>
      </trkpt>
      <trkpt lat="45.89906" lon="3.04815">
        <ele>452</ele>
        <time>2021-07-27T08:15:33Z</time>
      </trkpt>
      <trkpt lat="45.89906" lon="3.04816">
        <ele>452</ele>
        <time>2021-07-27T08:15:34Z</time>
      </trkpt>
      <trkpt lat="45.89906" lon="3.04818">
        <ele>452</ele>
        <time>2021-07-27T08:15:35Z</time>
      </trkpt>
      <trkpt lat="45.89907" lon="3.04819">
        <ele>452</ele>
        <time>2021-07-27T08:15:36Z</time>
      </trkpt>
      <trkpt lat="45.89907" lon="3.0482">
        <ele>452</ele>
        <time>2021-07-27T08:15:37Z</time>
      </trkpt>
      <trkpt lat="45.89907" lon="3.04822">
        <ele>452</ele>
        <time>2021-07-27T08:15:38Z</time>
      </trkpt>
      <trkpt lat="45.89907" lon="3.04824">
        <ele>452</ele>
        <time>2021-07-27T08:15:39Z</time>
      </trkpt>
      <trkpt lat="45.89908" lon="3.04825">
        <ele>452</ele>
        <time>2021-07-27T08:15:40Z</time>
      </trkpt>
      <trkpt lat="45.89908" lon="3.04827">
        <ele>452</ele>
        <time>2021-07-27T08:15:41Z</time>
      </trkpt>
      <trkpt lat="45.89908" lon="3.04829">
        <ele>452</ele>
        <time>2021-07-27T08:15:42Z</time>
      </trkpt>
      <trkpt lat="45.89908" lon="3.04831">
        <ele>452</ele>
        <time>2021-07-27T08:15:43Z</time>
      </trkpt>
      <trkpt lat="45.89908" lon="3.04832">
        <ele>452</ele>
        <time>2021-07-27T08:15:44Z</time>
      </trkpt>
      <trkpt lat="45.89908" lon="3.04834">
        <ele>452</ele>
        <time>2021-07-27T08:15:45Z</time>
      </trkpt>
      <trkpt lat="45.89908" lon="3.04836">
        <ele>452</ele>
        <time>2021-07-27T08:15:46Z</time>
      </trkpt>
      <trkpt lat="45.89908" lon="3.04838">
        <ele>452</ele>
        <time>2021-07-27T08:15:47Z</time>
      </trkpt>
      <trkpt lat="45.89908" lon="3.0484">
        <ele>452</ele>
        <time>2021-07-27T08:15:48Z</time>
      </trkpt>
      <trkpt lat="45.89907" lon="3.04842">
        <ele>452</ele>
        <time>2021-07-27T08:15:49Z</time>
      </trkpt>
      <trkpt lat="45.89906" lon="3.04844">
        <ele>452</ele>
        <time>2021-07-27T08:15:50Z</time>
      </trkpt>
      <trkpt lat="45.89905" lon="3.04845">
        <ele>452</ele>
        <time>2021-07-27T08:15:51Z</time>
      </trkpt>
      <trkpt lat="45.89904" lon="3.04847">
        <ele>452</ele>
        <time>2021-07-27T08:15:52Z</time>
      </trkpt>
      <trkpt lat="45.89902" lon="3.04849">
        <ele>452</ele>
        <time>2021-07-27T08:15:53Z</time>
      </trkpt>
      <trkpt lat="45.899" lon="3.0485">
        <ele>452</ele>
        <time>2021-07-27T08:15:54Z</time>
      </trkpt>
      <trkpt lat="45.89899" lon="3.04851">
        <ele>452</ele>
        <time>2021-07-27T08:15:55Z</time>
      </trkpt>
      <trkpt lat="45.89897" lon="3.04852">
        <ele>452</ele>
        <time>2021-07-27T08:15:56Z</time>
      </trkpt>
      <trkpt lat="45.89896" lon="3.04854">
        <ele>452</ele>
        <time>2021-07-27T08:15:57Z</time>
      </trkpt>
      <trkpt lat="45.89895" lon="3.04855">
        <ele>452</ele>
        <time>2021-07-27T08:15:58Z</time>
      </trkpt>
      <trkpt lat="45.89893" lon="3.04856">
        <ele>452</ele>
        <time>2021-07-27T08:15:59Z</time>
      </trkpt>
      <trkpt lat="45.89892" lon="3.04857">
        <ele>452</ele>
        <time>2021-07-27T08:16:00Z</time>
      </trkpt>
      <trkpt lat="45.89891" lon="3.04858">
        <ele>452</ele>
        <time>2021-07-27T08:16:01Z</time>
      </trkpt>
      <trkpt lat="45.8989" lon="3.04859">
        <ele>452</ele>
        <time>2021-07-27T08:16:02Z</time>
      </trkpt>
      <trkpt lat="45.89889" lon="3.0486">
        <ele>452</ele>
        <time>2021-07-27T08:16:03Z</time>
      </trkpt>
      <trkpt lat="45.89888" lon="3.04862">
        <ele>452</ele>
        <time>2021-07-27T08:16:04Z</time>
      </trkpt>
      <trkpt lat="45.89888" lon="3.04864">
        <ele>452</ele>
        <time>2021-07-27T08:16:05Z</time>
      </trkpt>
      <trkpt lat="45.89888" lon="3.04866">
        <ele>452</ele>
        <time>2021-07-27T08:16:06Z</time>
      </trkpt>
      <trkpt lat="45.89888" lon="3.04868">
        <ele>452</ele>
        <time>2021-07-27T08:16:07Z</time>
      </trkpt>
      <trkpt lat="45.89888" lon="3.0487">
        <ele>452</ele>
        <time>2021-07-27T08:16:08Z</time>
      </trkpt>
      <trkpt lat="45.89888" lon="3.04872">
        <ele>452</ele>
        <time>2021-07-27T08:16:09Z</time>
      </trkpt>
      <trkpt lat="45.89888" lon="3.04874">
        <ele>452</ele>
        <time>2021-07-27T08:16:10Z</time>
      </trkpt>
      <trkpt lat="45.89888" lon="3.04876">
        <ele>452</ele>
        <time>2021-07-27T08:16:11Z</time>
      </trkpt>
      <trkpt lat="45.89888" lon="3.04878">
        <ele>452</ele>
        <time>2021-07-27T08:16:12Z</time>
      </trkpt>
      <trkpt lat="45.89888" lon="3.0488">
        <ele>452</ele>
        <time>2021-07-27T08:16:13Z</time>
      </trkpt>
      <trkpt lat="45.89888" lon="3.04882">
        <ele>452</ele>
        <time>2021-07-27T08:16:14Z</time>
      </trkpt>
      <trkpt lat="45.89888" lon="3.04884">
        <ele>452</ele>
        <time>2021-07-27T08:16:15Z</time>
      </trkpt>
      <trkpt lat="45.89888" lon="3.04886">
        <ele>452</ele>
        <time>2021-07-27T08:16:16Z</time>
      </trkpt>
      <trkpt lat="45.89889" lon="3.04888">
        <ele>452</ele>
        <time>2021-07-27T08:16:17Z</time>
      </trkpt>
      <trkpt lat="45.89889" lon="3.04889">
        <ele>452</ele>
        <time>2021-07-27T08:16:18Z</time>
      </trkpt>
      <trkpt lat="45.89888" lon="3.04891">
        <ele>452</ele>
        <time>2021-07-27T08:16:19Z</time>
      </trkpt>
      <trkpt lat="45.89888" lon="3.04893">
        <ele>452</ele>
        <time>2021-07-27T08:16:20Z</time>
      </trkpt>
      <trkpt lat="45.89888" lon="3.04895">
        <ele>452</ele>
        <time>2021-07-27T08:16:21Z</time>
      </trkpt>
      <trkpt lat="45.89888" lon="3.04897">
        <ele>452</ele>
        <time>2021-07-27T08:16:22Z</time>
      </trkpt>
      <trkpt lat="45.89888" lon="3.04899">
        <ele>452</ele>
        <time>2021-07-27T08:16:23Z</time>
      </trkpt>
      <trkpt lat="45.89888" lon="3.04901">
        <ele>452</ele>
        <time>2021-07-27T08:16:24Z</time>
      </trkpt>
      <trkpt lat="45.89887" lon="3.04903">
        <ele>452</ele>
        <time>2021-07-27T08:16:25Z</time>
      </trkpt>
      <trkpt lat="45.89887" lon="3.04905">
        <ele>452</ele>
        <time>2021-07-27T08:16:26Z</time>
      </trkpt>
      <trkpt lat="45.89885" lon="3.04907">
        <ele>452</ele>
        <time>2021-07-27T08:16:27Z</time>
      </trkpt>
      <trkpt lat="45.89885" lon="3.04909">
        <ele>452</ele>
        <time>2021-07-27T08:16:29Z</time>
      </trkpt>
      <trkpt lat="45.89883" lon="3.04918">
        <ele>452</ele>
        <time>2021-07-27T08:16:30Z</time>
      </trkpt>
      <trkpt lat="45.89883" lon="3.04919">
        <ele>452</ele>
        <time>2021-07-27T08:16:31Z</time>
      </trkpt>
      <trkpt lat="45.89883" lon="3.0492">
        <ele>452</ele>
        <time>2021-07-27T08:16:32Z</time>
      </trkpt>
      <trkpt lat="45.89884" lon="3.04921">
        <ele>452</ele>
        <time>2021-07-27T08:16:33Z</time>
      </trkpt>
      <trkpt lat="45.89884" lon="3.04923">
        <ele>452</ele>
        <time>2021-07-27T08:16:34Z</time>
      </trkpt>
      <trkpt lat="45.89885" lon="3.04925">
        <ele>452</ele>
        <time>2021-07-27T08:16:35Z</time>
      </trkpt>
      <trkpt lat="45.89885" lon="3.04927">
        <ele>452</ele>
        <time>2021-07-27T08:16:36Z</time>
      </trkpt>
      <trkpt lat="45.89885" lon="3.04929">
        <ele>452</ele>
        <time>2021-07-27T08:16:37Z</time>
      </trkpt>
      <trkpt lat="45.89886" lon="3.04931">
        <ele>452</ele>
        <time>2021-07-27T08:16:38Z</time>
      </trkpt>
      <trkpt lat="45.89887" lon="3.04933">
        <ele>452</ele>
        <time>2021-07-27T08:16:39Z</time>
      </trkpt>
      <trkpt lat="45.89888" lon="3.04935">
        <ele>452</ele>
        <time>2021-07-27T08:16:40Z</time>
      </trkpt>
      <trkpt lat="45.89888" lon="3.04938">
        <ele>452</ele>
        <time>2021-07-27T08:16:41Z</time>
      </trkpt>
      <trkpt lat="45.89888" lon="3.0494">
        <ele>452</ele>
        <time>2021-07-27T08:16:42Z</time>
      </trkpt>
      <trkpt lat="45.89889" lon="3.04942">
        <ele>452</ele>
        <time>2021-07-27T08:16:43Z</time>
      </trkpt>
      <trkpt lat="45.8989" lon="3.04944">
        <ele>452</ele>
        <time>2021-07-27T08:16:44Z</time>
      </trkpt>
      <trkpt lat="45.8989" lon="3.04946">
        <ele>452</ele>
        <time>2021-07-27T08:16:45Z</time>
      </trkpt>
      <trkpt lat="45.89891" lon="3.04947">
        <ele>452</ele>
        <time>2021-07-27T08:16:46Z</time>
      </trkpt>
      <trkpt lat="45.89891" lon="3.04949">
        <ele>452</ele>
        <time>2021-07-27T08:16:47Z</time>
      </trkpt>
      <trkpt lat="45.89893" lon="3.04951">
        <ele>452</ele>
        <time>2021-07-27T08:16:48Z</time>
      </trkpt>
      <trkpt lat="45.89893" lon="3.04952">
        <ele>452</ele>
        <time>2021-07-27T08:16:49Z</time>
      </trkpt>
      <trkpt lat="45.89894" lon="3.04953">
        <ele>452</ele>
        <time>2021-07-27T08:16:50Z</time>
      </trkpt>
      <trkpt lat="45.89895" lon="3.04954">
        <ele>452</ele>
        <time>2021-07-27T08:16:51Z</time>
      </trkpt>
      <trkpt lat="45.89896" lon="3.04955">
        <ele>452</ele>
        <time>2021-07-27T08:16:52Z</time>
      </trkpt>
      <trkpt lat="45.89896" lon="3.04956">
        <ele>452</ele>
        <time>2021-07-27T08:16:53Z</time>
      </trkpt>
      <trkpt lat="45.89897" lon="3.04958">
        <ele>452</ele>
        <time>2021-07-27T08:16:54Z</time>
      </trkpt>
      <trkpt lat="45.89898" lon="3.04959">
        <ele>452</ele>
        <time>2021-07-27T08:16:55Z</time>
      </trkpt>
      <trkpt lat="45.89899" lon="3.0496">
        <ele>452</ele>
        <time>2021-07-27T08:16:56Z</time>
      </trkpt>
      <trkpt lat="45.899" lon="3.04962">
        <ele>452</ele>
        <time>2021-07-27T08:16:57Z</time>
      </trkpt>
      <trkpt lat="45.89901" lon="3.04963">
        <ele>452</ele>
        <time>2021-07-27T08:16:58Z</time>
      </trkpt>
      <trkpt lat="45.89903" lon="3.04964">
        <ele>452</ele>
        <time>2021-07-27T08:16:59Z</time>
      </trkpt>
      <trkpt lat="45.89904" lon="3.04965">
        <ele>452</ele>
        <time>2021-07-27T08:17:00Z</time>
      </trkpt>
      <trkpt lat="45.89906" lon="3.04966">
        <ele>452</ele>
        <time>2021-07-27T08:17:01Z</time>
      </trkpt>
      <trkpt lat="45.89907" lon="3.04967">
        <ele>452</ele>
        <time>2021-07-27T08:17:02Z</time>
      </trkpt>
      <trkpt lat="45.89909" lon="3.04967">
        <ele>452</ele>
        <time>2021-07-27T08:17:03Z</time>
      </trkpt>
      <trkpt lat="45.8991" lon="3.04967">
        <ele>452</ele>
        <time>2021-07-27T08:17:04Z</time>
      </trkpt>
      <trkpt lat="45.89912" lon="3.04967">
        <ele>452</ele>
        <time>2021-07-27T08:17:05Z</time>
      </trkpt>
      <trkpt lat="45.89912" lon="3.04967">
        <ele>452</ele>
        <time>2021-07-27T08:17:06Z</time>
      </trkpt>
      <trkpt lat="45.89914" lon="3.04967">
        <ele>452</ele>
        <time>2021-07-27T08:17:07Z</time>
      </trkpt>
      <trkpt lat="45.89916" lon="3.04967">
        <ele>452</ele>
        <time>2021-07-27T08:17:08Z</time>
      </trkpt>
      <trkpt lat="45.89918" lon="3.04967">
        <ele>452</ele>
        <time>2021-07-27T08:17:09Z</time>
      </trkpt>
      <trkpt lat="45.8992" lon="3.04966">
        <ele>452</ele>
        <time>2021-07-27T08:17:10Z</time>
      </trkpt>
      <trkpt lat="45.89921" lon="3.04966">
        <ele>452</ele>
        <time>2021-07-27T08:17:11Z</time>
      </trkpt>
      <trkpt lat="45.89923" lon="3.04967">
        <ele>452</ele>
        <time>2021-07-27T08:17:12Z</time>
      </trkpt>
      <trkpt lat="45.89924" lon="3.04967">
        <ele>452</ele>
        <time>2021-07-27T08:17:13Z</time>
      </trkpt>
      <trkpt lat="45.89926" lon="3.04967">
        <ele>452</ele>
        <time>2021-07-27T08:17:14Z</time>
      </trkpt>
      <trkpt lat="45.89927" lon="3.04967">
        <ele>452</ele>
        <time>2021-07-27T08:17:15Z</time>
      </trkpt>
      <trkpt lat="45.89928" lon="3.04967">
        <ele>452</ele>
        <time>2021-07-27T08:17:16Z</time>
      </trkpt>
      <trkpt lat="45.8993" lon="3.04967">
        <ele>452</ele>
        <time>2021-07-27T08:17:17Z</time>
      </trkpt>
      <trkpt lat="45.8993" lon="3.04967">
        <ele>452</ele>
        <time>2021-07-27T08:17:18Z</time>
      </trkpt>
      <trkpt lat="45.89932" lon="3.04967">
        <ele>452</ele>
        <time>2021-07-27T08:17:19Z</time>
      </trkpt>
      <trkpt lat="45.89933" lon="3.04968">
        <ele>452</ele>
        <time>2021-07-27T08:17:20Z</time>
      </trkpt>
      <trkpt lat="45.89934" lon="3.04968">
        <ele>452</ele>
        <time>2021-07-27T08:17:21Z</time>
      </trkpt>
      <trkpt lat="45.89935" lon="3.04968">
        <ele>452</ele>
        <time>2021-07-27T08:17:22Z</time>
      </trkpt>
      <trkpt lat="45.89937" lon="3.04969">
        <ele>452</ele>
        <time>2021-07-27T08:17:23Z</time>
      </trkpt>
      <trkpt lat="45.89938" lon="3.04969">
        <ele>452</ele>
        <time>2021-07-27T08:17:24Z</time>
      </trkpt>
      <trkpt lat="45.89939" lon="3.04969">
        <ele>452</ele>
        <time>2021-07-27T08:17:25Z</time>
      </trkpt>
      <trkpt lat="45.89941" lon="3.0497">
        <ele>452</ele>
        <time>2021-07-27T08:17:26Z</time>
      </trkpt>
      <trkpt lat="45.89942" lon="3.04971">
        <ele>452</ele>
        <time>2021-07-27T08:17:27Z</time>
      </trkpt>
      <trkpt lat="45.89943" lon="3.04972">
        <ele>452</ele>
        <time>2021-07-27T08:17:28Z</time>
      </trkpt>
      <trkpt lat="45.89945" lon="3.04973">
        <ele>452</ele>
        <time>2021-07-27T08:17:30Z</time>
      </trkpt>
      <trkpt lat="45.8995" lon="3.04978">
        <ele>452</ele>
        <time>2021-07-27T08:17:31Z</time>
      </trkpt>
      <trkpt lat="45.89951" lon="3.04978">
        <ele>452</ele>
        <time>2021-07-27T08:17:32Z</time>
      </trkpt>
      <trkpt lat="45.89951" lon="3.04979">
        <ele>452</ele>
        <time>2021-07-27T08:17:33Z</time>
      </trkpt>
      <trkpt lat="45.89953" lon="3.04979">
        <ele>452</ele>
        <time>2021-07-27T08:17:34Z</time>
      </trkpt>
      <trkpt lat="45.89954" lon="3.0498">
        <ele>452</ele>
        <time>2021-07-27T08:17:35Z</time>
      </trkpt>
      <trkpt lat="45.89956" lon="3.04982">
        <ele>452</ele>
        <time>2021-07-27T08:17:36Z</time>
      </trkpt>
      <trkpt lat="45.89957" lon="3.04983">
        <ele>452</ele>
        <time>2021-07-27T08:17:37Z</time>
      </trkpt>
      <trkpt lat="45.89959" lon="3.04984">
        <ele>452</ele>
        <time>2021-07-27T08:17:38Z</time>
      </trkpt>
      <trkpt lat="45.89961" lon="3.04985">
        <ele>452</ele>
        <time>2021-07-27T08:17:39Z</time>
      </trkpt>
      <trkpt lat="45.89962" lon="3.04985">
        <ele>452</ele>
        <time>2021-07-27T08:17:40Z</time>
      </trkpt>
      <trkpt lat="45.89964" lon="3.04986">
        <ele>452</ele>
        <time>2021-07-27T08:17:41Z</time>
      </trkpt>
      <trkpt lat="45.89966" lon="3.04986">
        <ele>452</ele>
        <time>2021-07-27T08:17:42Z</time>
      </trkpt>
      <trkpt lat="45.89967" lon="3.04986">
        <ele>452</ele>
        <time>2021-07-27T08:17:43Z</time>
      </trkpt>
      <trkpt lat="45.89969" lon="3.04987">
        <ele>452</ele>
        <time>2021-07-27T08:17:44Z</time>
      </trkpt>
      <trkpt lat="45.8997" lon="3.04988">
        <ele>452</ele>
        <time>2021-07-27T08:17:45Z</time>
      </trkpt>
      <trkpt lat="45.89971" lon="3.04988">
        <ele>452</ele>
        <time>2021-07-27T08:17:46Z</time>
      </trkpt>
      <trkpt lat="45.89972" lon="3.04988">
        <ele>452</ele>
        <time>2021-07-27T08:17:47Z</time>
      </trkpt>
      <trkpt lat="45.89973" lon="3.04988">
        <ele>452</ele>
        <time>2021-07-27T08:17:48Z</time>
      </trkpt>
      <trkpt lat="45.89975" lon="3.04988">
        <ele>452</ele>
        <time>2021-07-27T08:17:49Z</time>
      </trkpt>
      <trkpt lat="45.89976" lon="3.04988">
        <ele>452</ele>
        <time>2021-07-27T08:17:50Z</time>
      </trkpt>
      <trkpt lat="45.89977" lon="3.04988">
        <ele>452</ele>
        <time>2021-07-27T08:17:51Z</time>
      </trkpt>
      <trkpt lat="45.8998" lon="3.04988">
        <ele>452</ele>
        <time>2021-07-27T08:17:53Z</time>
      </trkpt>
      <trkpt lat="45.8998" lon="3.04988">
        <ele>452</ele>
        <time>2021-07-27T08:17:54Z</time>
      </trkpt>
      <trkpt lat="45.89981" lon="3.04988">
        <ele>452</ele>
        <time>2021-07-27T08:17:55Z</time>
      </trkpt>
      <trkpt lat="45.89981" lon="3.04988">
        <ele>452</ele>
        <time>2021-07-27T08:17:56Z</time>
      </trkpt>
      <trkpt lat="45.89982" lon="3.04988">
        <ele>452</ele>
        <time>2021-07-27T08:17:57Z</time>
      </trkpt>
      <trkpt lat="45.89984" lon="3.04988">
        <ele>452</ele>
        <time>2021-07-27T08:17:58Z</time>
      </trkpt>
      <trkpt lat="45.89985" lon="3.04988">
        <ele>452</ele>
        <time>2021-07-27T08:17:59Z</time>
      </trkpt>
      <trkpt lat="45.89986" lon="3.04988">
        <ele>452</ele>
        <time>2021-07-27T08:18:00Z</time>
      </trkpt>
      <trkpt lat="45.89988" lon="3.04989">
        <ele>452</ele>
        <time>2021-07-27T08:18:01Z</time>
      </trkpt>
      <trkpt lat="45.8999" lon="3.0499">
        <ele>452</ele>
        <time>2021-07-27T08:18:02Z</time>
      </trkpt>
      <trkpt lat="45.89991" lon="3.0499">
        <ele>452</ele>
        <time>2021-07-27T08:18:03Z</time>
      </trkpt>
      <trkpt lat="45.89993" lon="3.04991">
        <ele>452</ele>
        <time>2021-07-27T08:18:04Z</time>
      </trkpt>
      <trkpt lat="45.89995" lon="3.04992">
        <ele>452</ele>
        <time>2021-07-27T08:18:05Z</time>
      </trkpt>
      <trkpt lat="45.89997" lon="3.04993">
        <ele>452</ele>
        <time>2021-07-27T08:18:06Z</time>
      </trkpt>
      <trkpt lat="45.89998" lon="3.04994">
        <ele>452</ele>
        <time>2021-07-27T08:18:07Z</time>
      </trkpt>
      <trkpt lat="45.9" lon="3.04994">
        <ele>452</ele>
        <time>2021-07-27T08:18:08Z</time>
      </trkpt>
      <trkpt lat="45.90001" lon="3.04995">
        <ele>452</ele>
        <time>2021-07-27T08:18:09Z</time>
      </trkpt>
      <trkpt lat="45.90003" lon="3.04995">
        <ele>452</ele>
        <time>2021-07-27T08:18:10Z</time>
      </trkpt>
      <trkpt lat="45.90004" lon="3.04995">
        <ele>452</ele>
        <time>2021-07-27T08:18:11Z</time>
      </trkpt>
      <trkpt lat="45.90005" lon="3.04996">
        <ele>452</ele>
        <time>2021-07-27T08:18:12Z</time>
      </trkpt>
      <trkpt lat="45.90006" lon="3.04996">
        <ele>452</ele>
        <time>2021-07-27T08:18:13Z</time>
      </trkpt>
      <trkpt lat="45.90007" lon="3.04997">
        <ele>452</ele>
        <time>2021-07-27T08:18:14Z</time>
      </trkpt>
      <trkpt lat="45.90008" lon="3.04997">
        <ele>452</ele>
        <time>2021-07-27T08:18:15Z</time>
      </trkpt>
      <trkpt lat="45.90009" lon="3.04998">
        <ele>452</ele>
        <time>2021-07-27T08:18:16Z</time>
      </trkpt>
      <trkpt lat="45.90011" lon="3.04999">
        <ele>452</ele>
        <time>2021-07-27T08:18:17Z</time>
      </trkpt>
      <trkpt lat="45.90011" lon="3.04999">
        <ele>452</ele>
        <time>2021-07-27T08:18:18Z</time>
      </trkpt>
      <trkpt lat="45.90012" lon="3.05">
        <ele>452</ele>
        <time>2021-07-27T08:18:19Z</time>
      </trkpt>
      <trkpt lat="45.90013" lon="3.05001">
        <ele>452</ele>
        <time>2021-07-27T08:18:20Z</time>
      </trkpt>
      <trkpt lat="45.90014" lon="3.05002">
        <ele>452</ele>
        <time>2021-07-27T08:18:21Z</time>
      </trkpt>
      <trkpt lat="45.90015" lon="3.05003">
        <ele>452</ele>
        <time>2021-07-27T08:18:22Z</time>
      </trkpt>
      <trkpt lat="45.90016" lon="3.05004">
        <ele>452</ele>
        <time>2021-07-27T08:18:23Z</time>
      </trkpt>
      <trkpt lat="45.90017" lon="3.05005">
        <ele>452</ele>
        <time>2021-07-27T08:18:24Z</time>
      </trkpt>
      <trkpt lat="45.90018" lon="3.05006">
        <ele>452</ele>
        <time>2021-07-27T08:18:25Z</time>
      </trkpt>
      <trkpt lat="45.90019" lon="3.05007">
        <ele>452</ele>
        <time>2021-07-27T08:18:26Z</time>
      </trkpt>
      <trkpt lat="45.9002" lon="3.05008">
        <ele>452</ele>
        <time>2021-07-27T08:18:27Z</time>
      </trkpt>
      <trkpt lat="45.90021" lon="3.0501">
        <ele>452</ele>
        <time>2021-07-27T08:18:29Z</time>
      </trkpt>
      <trkpt lat="45.90024" lon="3.05015">
        <ele>452</ele>
        <time>2021-07-27T08:18:30Z</time>
      </trkpt>
      <trkpt lat="45.90024" lon="3.05016">
        <ele>452</ele>
        <time>2021-07-27T08:18:31Z</time>
      </trkpt>
      <trkpt lat="45.90025" lon="3.05017">
        <ele>452</ele>
        <time>2021-07-27T08:18:32Z</time>
      </trkpt>
      <trkpt lat="45.90026" lon="3.05018">
        <ele>452</ele>
        <time>2021-07-27T08:18:33Z</time>
      </trkpt>
      <trkpt lat="45.90027" lon="3.05019">
        <ele>452</ele>
        <time>2021-07-27T08:18:34Z</time>
      </trkpt>
      <trkpt lat="45.90028" lon="3.0502">
        <ele>452</ele>
        <time>2021-07-27T08:18:35Z</time>
      </trkpt>
      <trkpt lat="45.9003" lon="3.05022">
        <ele>452</ele>
        <time>2021-07-27T08:18:36Z</time>
      </trkpt>
      <trkpt lat="45.90031" lon="3.05023">
        <ele>452</ele>
        <time>2021-07-27T08:18:37Z</time>
      </trkpt>
      <trkpt lat="45.90032" lon="3.05023">
        <ele>452</ele>
        <time>2021-07-27T08:18:38Z</time>
      </trkpt>
      <trkpt lat="45.90034" lon="3.05024">
        <ele>452</ele>
        <time>2021-07-27T08:18:39Z</time>
      </trkpt>
      <trkpt lat="45.90035" lon="3.05024">
        <ele>452</ele>
        <time>2021-07-27T08:18:40Z</time>
      </trkpt>
      <trkpt lat="45.90036" lon="3.05025">
        <ele>452</ele>
        <time>2021-07-27T08:18:41Z</time>
      </trkpt>
      <trkpt lat="45.90036" lon="3.05025">
        <ele>452</ele>
        <time>2021-07-27T08:18:42Z</time>
      </trkpt>
      <trkpt lat="45.90038" lon="3.05026">
        <ele>452</ele>
        <time>2021-07-27T08:18:43Z</time>
      </trkpt>
      <trkpt lat="45.90038" lon="3.05026">
        <ele>452</ele>
        <time>2021-07-27T08:18:44Z</time>
      </trkpt>
      <trkpt lat="45.90039" lon="3.05028">
        <ele>452</ele>
        <time>2021-07-27T08:18:45Z</time>
      </trkpt>
      <trkpt lat="45.90039" lon="3.05029">
        <ele>452</ele>
        <time>2021-07-27T08:18:46Z</time>
      </trkpt>
      <trkpt lat="45.90041" lon="3.05031">
        <ele>452</ele>
        <time>2021-07-27T08:18:47Z</time>
      </trkpt>
      <trkpt lat="45.90042" lon="3.05033">
        <ele>452</ele>
        <time>2021-07-27T08:18:48Z</time>
      </trkpt>
      <trkpt lat="45.90042" lon="3.05035">
        <ele>452</ele>
        <time>2021-07-27T08:18:49Z</time>
      </trkpt>
      <trkpt lat="45.90043" lon="3.05037">
        <ele>452</ele>
        <time>2021-07-27T08:18:50Z</time>
      </trkpt>
      <trkpt lat="45.90044" lon="3.05038">
        <ele>452</ele>
        <time>2021-07-27T08:18:51Z</time>
      </trkpt>
      <trkpt lat="45.90044" lon="3.0504">
        <ele>452</ele>
        <time>2021-07-27T08:18:52Z</time>
      </trkpt>
      <trkpt lat="45.90045" lon="3.05041">
        <ele>452</ele>
        <time>2021-07-27T08:18:53Z</time>
      </trkpt>
      <trkpt lat="45.90045" lon="3.05043">
        <ele>452</ele>
        <time>2021-07-27T08:18:54Z</time>
      </trkpt>
      <trkpt lat="45.90046" lon="3.05044">
        <ele>452</ele>
        <time>2021-07-27T08:18:55Z</time>
      </trkpt>
      <trkpt lat="45.90046" lon="3.05045">
        <ele>452</ele>
        <time>2021-07-27T08:18:56Z</time>
      </trkpt>
      <trkpt lat="45.90047" lon="3.05047">
        <ele>452</ele>
        <time>2021-07-27T08:18:57Z</time>
      </trkpt>
      <trkpt lat="45.90048" lon="3.05049">
        <ele>452</ele>
        <time>2021-07-27T08:18:58Z</time>
      </trkpt>
      <trkpt lat="45.90049" lon="3.05051">
        <ele>452</ele>
        <time>2021-07-27T08:18:59Z</time>
      </trkpt>
      <trkpt lat="45.9005" lon="3.05053">
        <ele>452</ele>
        <time>2021-07-27T08:19:00Z</time>
      </trkpt>
      <trkpt lat="45.90051" lon="3.05055">
        <ele>452</ele>
        <time>2021-07-27T08:19:01Z</time>
      </trkpt>
      <trkpt lat="45.90052" lon="3.05056">
        <ele>452</ele>
        <time>2021-07-27T08:19:02Z</time>
      </trkpt>
      <trkpt lat="45.90054" lon="3.05057">
        <ele>452</ele>
        <time>2021-07-27T08:19:02Z</time>
      </trkpt>
      <trkpt lat="45.90054" lon="3.05059">
        <ele>452</ele>
        <time>2021-07-27T08:19:03Z</time>
      </trkpt>
      <trkpt lat="45.90056" lon="3.0506">
        <ele>452</ele>
        <time>2021-07-27T08:19:04Z</time>
      </trkpt>
      <trkpt lat="45.90057" lon="3.05061">
        <ele>452</ele>
        <time>2021-07-27T08:19:05Z</time>
      </trkpt>
      <trkpt lat="45.90057" lon="3.05061">
        <ele>452</ele>
        <time>2021-07-27T08:19:06Z</time>
      </trkpt>
      <trkpt lat="45.90059" lon="3.05062">
        <ele>452</ele>
        <time>2021-07-27T08:19:07Z</time>
      </trkpt>
      <trkpt lat="45.9006" lon="3.05063">
        <ele>452</ele>
        <time>2021-07-27T08:19:08Z</time>
      </trkpt>
      <trkpt lat="45.9006" lon="3.05063">
        <ele>452</ele>
        <time>2021-07-27T08:19:09Z</time>
      </trkpt>
      <trkpt lat="45.90061" lon="3.05064">
        <ele>452</ele>
        <time>2021-07-27T08:19:10Z</time>
      </trkpt>
      <trkpt lat="45.90062" lon="3.05064">
        <ele>452</ele>
        <time>2021-07-27T08:19:11Z</time>
      </trkpt>
      <trkpt lat="45.90063" lon="3.05064">
        <ele>452</ele>
        <time>2021-07-27T08:19:12Z</time>
      </trkpt>
      <trkpt lat="45.90063" lon="3.05064">
        <ele>452</ele>
        <time>2021-07-27T08:19:13Z</time>
      </trkpt>
      <trkpt lat="45.90064" lon="3.05064">
        <ele>452</ele>
        <time>2021-07-27T08:19:14Z</time>
      </trkpt>
      <trkpt lat="45.90065" lon="3.05063">
        <ele>452</ele>
        <time>2021-07-27T08:19:15Z</time>
      </trkpt>
      <trkpt lat="45.90065" lon="3.05063">
        <ele>452</ele>
        <time>2021-07-27T08:19:16Z</time>
      </trkpt>
      <trkpt lat="45.90066" lon="3.05063">
        <ele>452</ele>
        <time>2021-07-27T08:19:17Z</time>
      </trkpt>
      <trkpt lat="45.90066" lon="3.05064">
        <ele>452</ele>
        <time>2021-07-27T08:19:18Z</time>
      </trkpt>
      <trkpt lat="45.90067" lon="3.05064">
        <ele>452</ele>
        <time>2021-07-27T08:19:19Z</time>
      </trkpt>
      <trkpt lat="45.90068" lon="3.05065">
        <ele>452</ele>
        <time>2021-07-27T08:19:20Z</time>
      </trkpt>
      <trkpt lat="45.90069" lon="3.05065">
        <ele>452</ele>
        <time>2021-07-27T08:19:21Z</time>
      </trkpt>
      <trkpt lat="45.90069" lon="3.05066">
        <ele>452</ele>
        <time>2021-07-27T08:19:22Z</time>
      </trkpt>
      <trkpt lat="45.9007" lon="3.05066">
        <ele>452</ele>
        <time>2021-07-27T08:19:23Z</time>
      </trkpt>
      <trkpt lat="45.90071" lon="3.05067">
        <ele>452</ele>
        <time>2021-07-27T08:19:24Z</time>
      </trkpt>
      <trkpt lat="45.90072" lon="3.05068">
        <ele>452</ele>
        <time>2021-07-27T08:19:25Z</time>
      </trkpt>
      <trkpt lat="45.90073" lon="3.05068">
        <ele>452</ele>
        <time>2021-07-27T08:19:26Z</time>
      </trkpt>
      <trkpt lat="45.90075" lon="3.05069">
        <ele>452</ele>
        <time>2021-07-27T08:19:28Z</time>
      </trkpt>
      <trkpt lat="45.90078" lon="3.05072">
        <ele>452</ele>
        <time>2021-07-27T08:19:29Z</time>
      </trkpt>
      <trkpt lat="45.90078" lon="3.05073">
        <ele>452</ele>
        <time>2021-07-27T08:19:30Z</time>
      </trkpt>
      <trkpt lat="45.90079" lon="3.05073">
        <ele>452</ele>
        <time>2021-07-27T08:19:31Z</time>
      </trkpt>
      <trkpt lat="45.90079" lon="3.05074">
        <ele>452</ele>
        <time>2021-07-27T08:19:32Z</time>
      </trkpt>
      <trkpt lat="45.9008" lon="3.05075">
        <ele>452</ele>
        <time>2021-07-27T08:19:33Z</time>
      </trkpt>
      <trkpt lat="45.90081" lon="3.05075">
        <ele>452</ele>
        <time>2021-07-27T08:19:34Z</time>
      </trkpt>
      <trkpt lat="45.90081" lon="3.05076">
        <ele>452</ele>
        <time>2021-07-27T08:19:35Z</time>
      </trkpt>
      <trkpt lat="45.90081" lon="3.05078">
        <ele>452</ele>
        <time>2021-07-27T08:19:36Z</time>
      </trkpt>
      <trkpt lat="45.90083" lon="3.05079">
        <ele>452</ele>
        <time>2021-07-27T08:19:37Z</time>
      </trkpt>
      <trkpt lat="45.90083" lon="3.05081">
        <ele>452</ele>
        <time>2021-07-27T08:19:38Z</time>
      </trkpt>
      <trkpt lat="45.90084" lon="3.05082">
        <ele>452</ele>
        <time>2021-07-27T08:19:39Z</time>
      </trkpt>
      <trkpt lat="45.90085" lon="3.05084">
        <ele>452</ele>
        <time>2021-07-27T08:19:40Z</time>
      </trkpt>
      <trkpt lat="45.90085" lon="3.05085">
        <ele>452</ele>
        <time>2021-07-27T08:19:41Z</time>
      </trkpt>
      <trkpt lat="45.90087" lon="3.05086">
        <ele>452</ele>
        <time>2021-07-27T08:19:42Z</time>
      </trkpt>
      <trkpt lat="45.90088" lon="3.05087">
        <ele>452</ele>
        <time>2021-07-27T08:19:43Z</time>
      </trkpt>
      <trkpt lat="45.90088" lon="3.05089">
        <ele>452</ele>
        <time>2021-07-27T08:19:44Z</time>
      </trkpt>
      <trkpt lat="45.90089" lon="3.0509">
        <ele>452</ele>
        <time>2021-07-27T08:19:45Z</time>
      </trkpt>
      <trkpt lat="45.9009" lon="3.05091">
        <ele>452</ele>
        <time>2021-07-27T08:19:46Z</time>
      </trkpt>
      <trkpt lat="45.90091" lon="3.05093">
        <ele>452</ele>
        <time>2021-07-27T08:19:47Z</time>
      </trkpt>
      <trkpt lat="45.90093" lon="3.05094">
        <ele>452</ele>
        <time>2021-07-27T08:19:48Z</time>
      </trkpt>
      <trkpt lat="45.90094" lon="3.05095">
        <ele>452</ele>
        <time>2021-07-27T08:19:49Z</time>
      </trkpt>
      <trkpt lat="45.90095" lon="3.05096">
        <ele>452</ele>
        <time>2021-07-27T08:19:50Z</time>
      </trkpt>
      <trkpt lat="45.90096" lon="3.05098">
        <ele>452</ele>
        <time>2021-07-27T08:19:51Z</time>
      </trkpt>
      <trkpt lat="45.90097" lon="3.05099">
        <ele>452</ele>
        <time>2021-07-27T08:19:52Z</time>
      </trkpt>
      <trkpt lat="45.90099" lon="3.051">
        <ele>452</ele>
        <time>2021-07-27T08:19:53Z</time>
      </trkpt>
      <trkpt lat="45.901" lon="3.05102">
        <ele>452</ele>
        <time>2021-07-27T08:19:54Z</time>
      </trkpt>
      <trkpt lat="45.90101" lon="3.05103">
        <ele>452</ele>
        <time>2021-07-27T08:19:55Z</time>
      </trkpt>
      <trkpt lat="45.90102" lon="3.05104">
        <ele>452</ele>
        <time>2021-07-27T08:19:56Z</time>
      </trkpt>
      <trkpt lat="45.90102" lon="3.05106">
        <ele>452</ele>
        <time>2021-07-27T08:19:57Z</time>
      </trkpt>
      <trkpt lat="45.90102" lon="3.05107">
        <ele>452</ele>
        <time>2021-07-27T08:19:58Z</time>
      </trkpt>
      <trkpt lat="45.90104" lon="3.05108">
        <ele>452</ele>
        <time>2021-07-27T08:19:59Z</time>
      </trkpt>
      <trkpt lat="45.90104" lon="3.05109">
        <ele>452</ele>
        <time>2021-07-27T08:20:00Z</time>
      </trkpt>
      <trkpt lat="45.90105" lon="3.0511">
        <ele>452</ele>
        <time>2021-07-27T08:20:01Z</time>
      </trkpt>
      <trkpt lat="45.90105" lon="3.05112">
        <ele>452</ele>
        <time>2021-07-27T08:20:02Z</time>
      </trkpt>
      <trkpt lat="45.90105" lon="3.05113">
        <ele>452</ele>
        <time>2021-07-27T08:20:03Z</time>
      </trkpt>
      <trkpt lat="45.90106" lon="3.05114">
        <ele>452</ele>
        <time>2021-07-27T08:20:04Z</time>
      </trkpt>
      <trkpt lat="45.90108" lon="3.05115">
        <ele>452</ele>
        <time>2021-07-27T08:20:05Z</time>
      </trkpt>
      <trkpt lat="45.90109" lon="3.05116">
        <ele>452</ele>
        <time>2021-07-27T08:20:06Z</time>
      </trkpt>
      <trkpt lat="45.9011" lon="3.05116">
        <ele>452</ele>
        <time>2021-07-27T08:20:07Z</time>
      </trkpt>
      <trkpt lat="45.90111" lon="3.05117">
        <ele>452</ele>
        <time>2021-07-27T08:20:08Z</time>
      </trkpt>
      <trkpt lat="45.90112" lon="3.05118">
        <ele>452</ele>
        <time>2021-07-27T08:20:09Z</time>
      </trkpt>
      <trkpt lat="45.90113" lon="3.05118">
        <ele>452</ele>
        <time>2021-07-27T08:20:10Z</time>
      </trkpt>
      <trkpt lat="45.90113" lon="3.05119">
        <ele>452</ele>
        <time>2021-07-27T08:20:11Z</time>
      </trkpt>
      <trkpt lat="45.90114" lon="3.0512">
        <ele>452</ele>
        <time>2021-07-27T08:20:12Z</time>
      </trkpt>
      <trkpt lat="45.90115" lon="3.05121">
        <ele>452</ele>
        <time>2021-07-27T08:20:13Z</time>
      </trkpt>
      <trkpt lat="45.90117" lon="3.05121">
        <ele>452</ele>
        <time>2021-07-27T08:20:14Z</time>
      </trkpt>
      <trkpt lat="45.90117" lon="3.05122">
        <ele>452</ele>
        <time>2021-07-27T08:20:15Z</time>
      </trkpt>
      <trkpt lat="45.90119" lon="3.05122">
        <ele>452</ele>
        <time>2021-07-27T08:20:16Z</time>
      </trkpt>
      <trkpt lat="45.9012" lon="3.05122">
        <ele>452</ele>
        <time>2021-07-27T08:20:17Z</time>
      </trkpt>
      <trkpt lat="45.90121" lon="3.05123">
        <ele>452</ele>
        <time>2021-07-27T08:20:18Z</time>
      </trkpt>
      <trkpt lat="45.90123" lon="3.05123">
        <ele>452</ele>
        <time>2021-07-27T08:20:19Z</time>
      </trkpt>
      <trkpt lat="45.90125" lon="3.05123">
        <ele>452</ele>
        <time>2021-07-27T08:20:20Z</time>
      </trkpt>
      <trkpt lat="45.90126" lon="3.05123">
        <ele>452</ele>
        <time>2021-07-27T08:20:21Z</time>
      </trkpt>
      <trkpt lat="45.90128" lon="3.05123">
        <ele>452</ele>
        <time>2021-07-27T08:20:22Z</time>
      </trkpt>
      <trkpt lat="45.9013" lon="3.05124">
        <ele>452</ele>
        <time>2021-07-27T08:20:23Z</time>
      </trkpt>
      <trkpt lat="45.90132" lon="3.05124">
        <ele>452</ele>
        <time>2021-07-27T08:20:24Z</time>
      </trkpt>
      <trkpt lat="45.90134" lon="3.05125">
        <ele>452</ele>
        <time>2021-07-27T08:20:25Z</time>
      </trkpt>
      <trkpt lat="45.90136" lon="3.05127">
        <ele>452</ele>
        <time>2021-07-27T08:20:27Z</time>
      </trkpt>
      <trkpt lat="45.90138" lon="3.05128">
        <ele>452</ele>
        <time>2021-07-27T08:20:28Z</time>
      </trkpt>
      <trkpt lat="45.90138" lon="3.0513">
        <ele>452</ele>
        <time>2021-07-27T08:20:29Z</time>
      </trkpt>
      <trkpt lat="45.90142" lon="3.05135">
        <ele>452</ele>
        <time>2021-07-27T08:20:30Z</time>
      </trkpt>
      <trkpt lat="45.90143" lon="3.05135">
        <ele>452</ele>
        <time>2021-07-27T08:20:31Z</time>
      </trkpt>
      <trkpt lat="45.90144" lon="3.05136">
        <ele>452</ele>
        <time>2021-07-27T08:20:32Z</time>
      </trkpt>
      <trkpt lat="45.90144" lon="3.05137">
        <ele>452</ele>
        <time>2021-07-27T08:20:33Z</time>
      </trkpt>
      <trkpt lat="45.90146" lon="3.05138">
        <ele>452</ele>
        <time>2021-07-27T08:20:34Z</time>
      </trkpt>
      <trkpt lat="45.90147" lon="3.0514">
        <ele>452</ele>
        <time>2021-07-27T08:20:35Z</time>
      </trkpt>
      <trkpt lat="45.90147" lon="3.05141">
        <ele>452</ele>
        <time>2021-07-27T08:20:36Z</time>
      </trkpt>
      <trkpt lat="45.90149" lon="3.05142">
        <ele>452</ele>
        <time>2021-07-27T08:20:37Z</time>
      </trkpt>
      <trkpt lat="45.9015" lon="3.05143">
        <ele>452</ele>
        <time>2021-07-27T08:20:38Z</time>
      </trkpt>
      <trkpt lat="45.90152" lon="3.05144">
        <ele>452</ele>
        <time>2021-07-27T08:20:39Z</time>
      </trkpt>
      <trkpt lat="45.90153" lon="3.05145">
        <ele>452</ele>
        <time>2021-07-27T08:20:40Z</time>
      </trkpt>
      <trkpt lat="45.90154" lon="3.05146">
        <ele>452</ele>
        <time>2021-07-27T08:20:41Z</time>
      </trkpt>
      <trkpt lat="45.90155" lon="3.05146">
        <ele>452</ele>
        <time>2021-07-27T08:20:42Z</time>
      </trkpt>
      <trkpt lat="45.90156" lon="3.05147">
        <ele>452</ele>
        <time>2021-07-27T08:20:43Z</time>
      </trkpt>
      <trkpt lat="45.90157" lon="3.05148">
        <ele>452</ele>
        <time>2021-07-27T08:20:44Z</time>
      </trkpt>
      <trkpt lat="45.90159" lon="3.05149">
        <ele>452</ele>
        <time>2021-07-27T08:20:45Z</time>
      </trkpt>
      <trkpt lat="45.9016" lon="3.05149">
        <ele>452</ele>
        <time>2021-07-27T08:20:46Z</time>
      </trkpt>
      <trkpt lat="45.90162" lon="3.0515">
        <ele>452</ele>
        <time>2021-07-27T08:20:47Z</time>
      </trkpt>
      <trkpt lat="45.90164" lon="3.05151">
        <ele>452</ele>
        <time>2021-07-27T08:20:48Z</time>
      </trkpt>
      <trkpt lat="45.90165" lon="3.05152">
        <ele>452</ele>
        <time>2021-07-27T08:20:49Z</time>
      </trkpt>
      <trkpt lat="45.90167" lon="3.05153">
        <ele>452</ele>
        <time>2021-07-27T08:20:50Z</time>
      </trkpt>
      <trkpt lat="45.90168" lon="3.05154">
        <ele>452</ele>
        <time>2021-07-27T08:20:51Z</time>
      </trkpt>
      <trkpt lat="45.90169" lon="3.05154">
        <ele>452</ele>
        <time>2021-07-27T08:20:52Z</time>
      </trkpt>
      <trkpt lat="45.90171" lon="3.05155">
        <ele>452</ele>
        <time>2021-07-27T08:20:53Z</time>
      </trkpt>
      <trkpt lat="45.90172" lon="3.05155">
        <ele>452</ele>
        <time>2021-07-27T08:20:54Z</time>
      </trkpt>
      <trkpt lat="45.90173" lon="3.05156">
        <ele>452</ele>
        <time>2021-07-27T08:20:55Z</time>
      </trkpt>
      <trkpt lat="45.90174" lon="3.05157">
        <ele>452</ele>
        <time>2021-07-27T08:20:56Z</time>
      </trkpt>
      <trkpt lat="45.90176" lon="3.05157">
        <ele>452</ele>
        <time>2021-07-27T08:20:57Z</time>
      </trkpt>
      <trkpt lat="45.90177" lon="3.05158">
        <ele>452</ele>
        <time>2021-07-27T08:20:58Z</time>
      </trkpt>
      <trkpt lat="45.90178" lon="3.05158">
        <ele>452</ele>
        <time>2021-07-27T08:20:59Z</time>
      </trkpt>
      <trkpt lat="45.9018" lon="3.05158">
        <ele>452</ele>
        <time>2021-07-27T08:21:00Z</time>
      </trkpt>
      <trkpt lat="45.90181" lon="3.05159">
        <ele>452</ele>
        <time>2021-07-27T08:21:01Z</time>
      </trkpt>
      <trkpt lat="45.90183" lon="3.0516">
        <ele>452</ele>
        <time>2021-07-27T08:21:02Z</time>
      </trkpt>
      <trkpt lat="45.90183" lon="3.0516">
        <ele>452</ele>
        <time>2021-07-27T08:21:03Z</time>
      </trkpt>
      <trkpt lat="45.90184" lon="3.05161">
        <ele>452</ele>
        <time>2021-07-27T08:21:04Z</time>
      </trkpt>
      <trkpt lat="45.90186" lon="3.05162">
        <ele>452</ele>
        <time>2021-07-27T08:21:05Z</time>
      </trkpt>
      <trkpt lat="45.90187" lon="3.05163">
        <ele>452</ele>
        <time>2021-07-27T08:21:06Z</time>
      </trkpt>
      <trkpt lat="45.90188" lon="3.05165">
        <ele>452</ele>
        <time>2021-07-27T08:21:07Z</time>
      </trkpt>
      <trkpt lat="45.90189" lon="3.05166">
        <ele>452</ele>
        <time>2021-07-27T08:21:08Z</time>
      </trkpt>
      <trkpt lat="45.9019" lon="3.05167">
        <ele>452</ele>
        <time>2021-07-27T08:21:09Z</time>
      </trkpt>
      <trkpt lat="45.90191" lon="3.05169">
        <ele>452</ele>
        <time>2021-07-27T08:21:10Z</time>
      </trkpt>
      <trkpt lat="45.90191" lon="3.0517">
        <ele>452</ele>
        <time>2021-07-27T08:21:11Z</time>
      </trkpt>
      <trkpt lat="45.90192" lon="3.05172">
        <ele>452</ele>
        <time>2021-07-27T08:21:12Z</time>
      </trkpt>
      <trkpt lat="45.90193" lon="3.05173">
        <ele>452</ele>
        <time>2021-07-27T08:21:13Z</time>
      </trkpt>
      <trkpt lat="45.90193" lon="3.05174">
        <ele>452</ele>
        <time>2021-07-27T08:21:14Z</time>
      </trkpt>
      <trkpt lat="45.90194" lon="3.05175">
        <ele>452</ele>
        <time>2021-07-27T08:21:15Z</time>
      </trkpt>
      <trkpt lat="45.90195" lon="3.05176">
        <ele>452</ele>
        <time>2021-07-27T08:21:16Z</time>
      </trkpt>
      <trkpt lat="45.90196" lon="3.05177">
        <ele>452</ele>
        <time>2021-07-27T08:21:17Z</time>
      </trkpt>
      <trkpt lat="45.90196" lon="3.05178">
        <ele>452</ele>
        <time>2021-07-27T08:21:18Z</time>
      </trkpt>
      <trkpt lat="45.90197" lon="3.05179">
        <ele>452</ele>
        <time>2021-07-27T08:21:19Z</time>
      </trkpt>
      <trkpt lat="45.90197" lon="3.05181">
        <ele>452</ele>
        <time>2021-07-27T08:21:20Z</time>
      </trkpt>
      <trkpt lat="45.90198" lon="3.05182">
        <ele>452</ele>
        <time>2021-07-27T08:21:21Z</time>
      </trkpt>
      <trkpt lat="45.90199" lon="3.05182">
        <ele>452</ele>
        <time>2021-07-27T08:21:22Z</time>
      </trkpt>
      <trkpt lat="45.902" lon="3.05183">
        <ele>452</ele>
        <time>2021-07-27T08:21:23Z</time>
      </trkpt>
      <trkpt lat="45.90201" lon="3.05184">
        <ele>452</ele>
        <time>2021-07-27T08:21:24Z</time>
      </trkpt>
      <trkpt lat="45.90202" lon="3.05185">
        <ele>452</ele>
        <time>2021-07-27T08:21:25Z</time>
      </trkpt>
      <trkpt lat="45.90204" lon="3.05187">
        <ele>452</ele>
        <time>2021-07-27T08:21:27Z</time>
      </trkpt>
      <trkpt lat="45.90204" lon="3.05188">
        <ele>452</ele>
        <time>2021-07-27T08:21:28Z</time>
      </trkpt>
      <trkpt lat="45.90205" lon="3.05189">
        <ele>452</ele>
        <time>2021-07-27T08:21:29Z</time>
      </trkpt>
      <trkpt lat="45.9021" lon="3.05195">
        <ele>452</ele>
        <time>2021-07-27T08:21:30Z</time>
      </trkpt>
      <trkpt lat="45.9021" lon="3.05195">
        <ele>452</ele>
        <time>2021-07-27T08:21:31Z</time>
      </trkpt>
      <trkpt lat="45.90211" lon="3.05195">
        <ele>452</ele>
        <time>2021-07-27T08:21:32Z</time>
      </trkpt>
      <trkpt lat="45.90211" lon="3.05196">
        <ele>452</ele>
        <time>2021-07-27T08:21:33Z</time>
      </trkpt>
      <trkpt lat="45.90212" lon="3.05196">
        <ele>452</ele>
        <time>2021-07-27T08:21:34Z</time>
      </trkpt>
      <trkpt lat="45.90213" lon="3.05197">
        <ele>452</ele>
        <time>2021-07-27T08:21:35Z</time>
      </trkpt>
      <trkpt lat="45.90214" lon="3.05197">
        <ele>452</ele>
        <time>2021-07-27T08:21:36Z</time>
      </trkpt>
      <trkpt lat="45.90215" lon="3.05198">
        <ele>452</ele>
        <time>2021-07-27T08:21:37Z</time>
      </trkpt>
      <trkpt lat="45.90217" lon="3.05199">
        <ele>452</ele>
        <time>2021-07-27T08:21:38Z</time>
      </trkpt>
      <trkpt lat="45.90218" lon="3.05199">
        <ele>452</ele>
        <time>2021-07-27T08:21:39Z</time>
      </trkpt>
      <trkpt lat="45.90219" lon="3.052">
        <ele>452</ele>
        <time>2021-07-27T08:21:40Z</time>
      </trkpt>
      <trkpt lat="45.9022" lon="3.05201">
        <ele>452</ele>
        <time>2021-07-27T08:21:41Z</time>
      </trkpt>
      <trkpt lat="45.90222" lon="3.05203">
        <ele>452</ele>
        <time>2021-07-27T08:21:42Z</time>
      </trkpt>
      <trkpt lat="45.90223" lon="3.05204">
        <ele>452</ele>
        <time>2021-07-27T08:21:43Z</time>
      </trkpt>
      <trkpt lat="45.90225" lon="3.05205">
        <ele>452</ele>
        <time>2021-07-27T08:21:44Z</time>
      </trkpt>
      <trkpt lat="45.90225" lon="3.05207">
        <ele>452</ele>
        <time>2021-07-27T08:21:45Z</time>
      </trkpt>
      <trkpt lat="45.90226" lon="3.05208">
        <ele>452</ele>
        <time>2021-07-27T08:21:46Z</time>
      </trkpt>
      <trkpt lat="45.90228" lon="3.05209">
        <ele>452</ele>
        <time>2021-07-27T08:21:47Z</time>
      </trkpt>
      <trkpt lat="45.90229" lon="3.05211">
        <ele>452</ele>
        <time>2021-07-27T08:21:48Z</time>
      </trkpt>
      <trkpt lat="45.90231" lon="3.05212">
        <ele>452</ele>
        <time>2021-07-27T08:21:49Z</time>
      </trkpt>
      <trkpt lat="45.90232" lon="3.05213">
        <ele>452</ele>
        <time>2021-07-27T08:21:50Z</time>
      </trkpt>
      <trkpt lat="45.90233" lon="3.05214">
        <ele>452</ele>
        <time>2021-07-27T08:21:51Z</time>
      </trkpt>
      <trkpt lat="45.90234" lon="3.05216">
        <ele>452</ele>
        <time>2021-07-27T08:21:52Z</time>
      </trkpt>
      <trkpt lat="45.90235" lon="3.05217">
        <ele>452</ele>
        <time>2021-07-27T08:21:53Z</time>
      </trkpt>
      <trkpt lat="45.90236" lon="3.05219">
        <ele>452</ele>
        <time>2021-07-27T08:21:54Z</time>
      </trkpt>
      <trkpt lat="45.90237" lon="3.0522">
        <ele>452</ele>
        <time>2021-07-27T08:21:55Z</time>
      </trkpt>
      <trkpt lat="45.90238" lon="3.05221">
        <ele>452</ele>
        <time>2021-07-27T08:21:56Z</time>
      </trkpt>
      <trkpt lat="45.90239" lon="3.05223">
        <ele>452</ele>
        <time>2021-07-27T08:21:57Z</time>
      </trkpt>
      <trkpt lat="45.9024" lon="3.05224">
        <ele>452</ele>
        <time>2021-07-27T08:21:58Z</time>
      </trkpt>
      <trkpt lat="45.90242" lon="3.05225">
        <ele>452</ele>
        <time>2021-07-27T08:21:59Z</time>
      </trkpt>
      <trkpt lat="45.90243" lon="3.05226">
        <ele>452</ele>
        <time>2021-07-27T08:22:00Z</time>
      </trkpt>
      <trkpt lat="45.90244" lon="3.05227">
        <ele>452</ele>
        <time>2021-07-27T08:22:01Z</time>
      </trkpt>
      <trkpt lat="45.90245" lon="3.05229">
        <ele>452</ele>
        <time>2021-07-27T08:22:02Z</time>
      </trkpt>
      <trkpt lat="45.90246" lon="3.0523">
        <ele>452</ele>
        <time>2021-07-27T08:22:03Z</time>
      </trkpt>
      <trkpt lat="45.90247" lon="3.05232">
        <ele>452</ele>
        <time>2021-07-27T08:22:04Z</time>
      </trkpt>
      <trkpt lat="45.90247" lon="3.05233">
        <ele>452</ele>
        <time>2021-07-27T08:22:05Z</time>
      </trkpt>
      <trkpt lat="45.90248" lon="3.05235">
        <ele>452</ele>
        <time>2021-07-27T08:22:06Z</time>
      </trkpt>
      <trkpt lat="45.90249" lon="3.05237">
        <ele>452</ele>
        <time>2021-07-27T08:22:07Z</time>
      </trkpt>
      <trkpt lat="45.9025" lon="3.05238">
        <ele>452</ele>
        <time>2021-07-27T08:22:08Z</time>
      </trkpt>
      <trkpt lat="45.9025" lon="3.05239">
        <ele>452</ele>
        <time>2021-07-27T08:22:09Z</time>
      </trkpt>
      <trkpt lat="45.90252" lon="3.0524">
        <ele>452</ele>
        <time>2021-07-27T08:22:10Z</time>
      </trkpt>
      <trkpt lat="45.90253" lon="3.05242">
        <ele>452</ele>
        <time>2021-07-27T08:22:11Z</time>
      </trkpt>
      <trkpt lat="45.90253" lon="3.05243">
        <ele>452</ele>
        <time>2021-07-27T08:22:12Z</time>
      </trkpt>
      <trkpt lat="45.90254" lon="3.05245">
        <ele>452</ele>
        <time>2021-07-27T08:22:13Z</time>
      </trkpt>
      <trkpt lat="45.90255" lon="3.05247">
        <ele>452</ele>
        <time>2021-07-27T08:22:14Z</time>
      </trkpt>
      <trkpt lat="45.90256" lon="3.05248">
        <ele>452</ele>
        <time>2021-07-27T08:22:15Z</time>
      </trkpt>
      <trkpt lat="45.90257" lon="3.0525">
        <ele>452</ele>
        <time>2021-07-27T08:22:16Z</time>
      </trkpt>
      <trkpt lat="45.90258" lon="3.05252">
        <ele>452</ele>
        <time>2021-07-27T08:22:17Z</time>
      </trkpt>
      <trkpt lat="45.90258" lon="3.05254">
        <ele>452</ele>
        <time>2021-07-27T08:22:18Z</time>
      </trkpt>
      <trkpt lat="45.90259" lon="3.05256">
        <ele>452</ele>
        <time>2021-07-27T08:22:19Z</time>
      </trkpt>
      <trkpt lat="45.90259" lon="3.05258">
        <ele>452</ele>
        <time>2021-07-27T08:22:20Z</time>
      </trkpt>
      <trkpt lat="45.90259" lon="3.0526">
        <ele>452</ele>
        <time>2021-07-27T08:22:21Z</time>
      </trkpt>
      <trkpt lat="45.9026" lon="3.05261">
        <ele>452</ele>
        <time>2021-07-27T08:22:22Z</time>
      </trkpt>
      <trkpt lat="45.9026" lon="3.05263">
        <ele>452</ele>
        <time>2021-07-27T08:22:23Z</time>
      </trkpt>
      <trkpt lat="45.9026" lon="3.05265">
        <ele>452</ele>
        <time>2021-07-27T08:22:24Z</time>
      </trkpt>
      <trkpt lat="45.90261" lon="3.05267">
        <ele>452</ele>
        <time>2021-07-27T08:22:25Z</time>
      </trkpt>
      <trkpt lat="45.90261" lon="3.05269">
        <ele>452</ele>
        <time>2021-07-27T08:22:26Z</time>
      </trkpt>
      <trkpt lat="45.90261" lon="3.0527">
        <ele>452</ele>
        <time>2021-07-27T08:22:27Z</time>
      </trkpt>
      <trkpt lat="45.90261" lon="3.05272">
        <ele>452</ele>
        <time>2021-07-27T08:22:29Z</time>
      </trkpt>
      <trkpt lat="45.90263" lon="3.05279">
        <ele>452</ele>
        <time>2021-07-27T08:22:30Z</time>
      </trkpt>
      <trkpt lat="45.90263" lon="3.05279">
        <ele>452</ele>
        <time>2021-07-27T08:22:31Z</time>
      </trkpt>
      <trkpt lat="45.90263" lon="3.0528">
        <ele>452</ele>
        <time>2021-07-27T08:22:32Z</time>
      </trkpt>
      <trkpt lat="45.90263" lon="3.05281">
        <ele>452</ele>
        <time>2021-07-27T08:22:33Z</time>
      </trkpt>
      <trkpt lat="45.90263" lon="3.05283">
        <ele>452</ele>
        <time>2021-07-27T08:22:34Z</time>
      </trkpt>
      <trkpt lat="45.90264" lon="3.05284">
        <ele>452</ele>
        <time>2021-07-27T08:22:35Z</time>
      </trkpt>
      <trkpt lat="45.90264" lon="3.05286">
        <ele>452</ele>
        <time>2021-07-27T08:22:36Z</time>
      </trkpt>
      <trkpt lat="45.90264" lon="3.05288">
        <ele>452</ele>
        <time>2021-07-27T08:22:37Z</time>
      </trkpt>
      <trkpt lat="45.90264" lon="3.0529">
        <ele>452</ele>
        <time>2021-07-27T08:22:38Z</time>
      </trkpt>
      <trkpt lat="45.90265" lon="3.05292">
        <ele>452</ele>
        <time>2021-07-27T08:22:39Z</time>
      </trkpt>
      <trkpt lat="45.90265" lon="3.05294">
        <ele>452</ele>
        <time>2021-07-27T08:22:40Z</time>
      </trkpt>
      <trkpt lat="45.90266" lon="3.05296">
        <ele>452</ele>
        <time>2021-07-27T08:22:41Z</time>
      </trkpt>
      <trkpt lat="45.90266" lon="3.05298">
        <ele>452</ele>
        <time>2021-07-27T08:22:42Z</time>
      </trkpt>
      <trkpt lat="45.90267" lon="3.053">
        <ele>452</ele>
        <time>2021-07-27T08:22:43Z</time>
      </trkpt>
      <trkpt lat="45.90268" lon="3.05302">
        <ele>452</ele>
        <time>2021-07-27T08:22:44Z</time>
      </trkpt>
      <trkpt lat="45.90268" lon="3.05304">
        <ele>452</ele>
        <time>2021-07-27T08:22:45Z</time>
      </trkpt>
      <trkpt lat="45.90268" lon="3.05306">
        <ele>452</ele>
        <time>2021-07-27T08:22:46Z</time>
      </trkpt>
      <trkpt lat="45.90269" lon="3.05308">
        <ele>452</ele>
        <time>2021-07-27T08:22:47Z</time>
      </trkpt>
      <trkpt lat="45.9027" lon="3.05309">
        <ele>452</ele>
        <time>2021-07-27T08:22:48Z</time>
      </trkpt>
      <trkpt lat="45.9027" lon="3.05311">
        <ele>452</ele>
        <time>2021-07-27T08:22:49Z</time>
      </trkpt>
      <trkpt lat="45.90271" lon="3.05313">
        <ele>452</ele>
        <time>2021-07-27T08:22:50Z</time>
      </trkpt>
      <trkpt lat="45.90271" lon="3.05315">
        <ele>452</ele>
        <time>2021-07-27T08:22:51Z</time>
      </trkpt>
      <trkpt lat="45.90271" lon="3.05317">
        <ele>452</ele>
        <time>2021-07-27T08:22:52Z</time>
      </trkpt>
      <trkpt lat="45.90271" lon="3.05319">
        <ele>452</ele>
        <time>2021-07-27T08:22:53Z</time>
      </trkpt>
      <trkpt lat="45.90272" lon="3.05321">
        <ele>452</ele>
        <time>2021-07-27T08:22:54Z</time>
      </trkpt>
      <trkpt lat="45.90273" lon="3.05323">
        <ele>452</ele>
        <time>2021-07-27T08:22:55Z</time>
      </trkpt>
      <trkpt lat="45.90273" lon="3.05324">
        <ele>452</ele>
        <time>2021-07-27T08:22:56Z</time>
      </trkpt>
      <trkpt lat="45.90273" lon="3.05326">
        <ele>452</ele>
        <time>2021-07-27T08:22:57Z</time>
      </trkpt>
      <trkpt lat="45.90274" lon="3.05328">
        <ele>452</ele>
        <time>2021-07-27T08:22:58Z</time>
      </trkpt>
      <trkpt lat="45.90274" lon="3.05329">
        <ele>452</ele>
        <time>2021-07-27T08:22:59Z</time>
      </trkpt>
      <trkpt lat="45.90275" lon="3.05331">
        <ele>452</ele>
        <time>2021-07-27T08:23:00Z</time>
      </trkpt>
      <trkpt lat="45.90276" lon="3.05333">
        <ele>452</ele>
        <time>2021-07-27T08:23:01Z</time>
      </trkpt>
      <trkpt lat="45.90276" lon="3.05335">
        <ele>452</ele>
        <time>2021-07-27T08:23:02Z</time>
      </trkpt>
      <trkpt lat="45.90277" lon="3.05338">
        <ele>452</ele>
        <time>2021-07-27T08:23:03Z</time>
      </trkpt>
      <trkpt lat="45.90277" lon="3.0534">
        <ele>452</ele>
        <time>2021-07-27T08:23:04Z</time>
      </trkpt>
      <trkpt lat="45.90278" lon="3.05342">
        <ele>452</ele>
        <time>2021-07-27T08:23:05Z</time>
      </trkpt>
      <trkpt lat="45.90279" lon="3.05344">
        <ele>452</ele>
        <time>2021-07-27T08:23:06Z</time>
      </trkpt>
      <trkpt lat="45.90279" lon="3.05346">
        <ele>452</ele>
        <time>2021-07-27T08:23:07Z</time>
      </trkpt>
      <trkpt lat="45.9028" lon="3.05349">
        <ele>452</ele>
        <time>2021-07-27T08:23:08Z</time>
      </trkpt>
      <trkpt lat="45.90281" lon="3.05351">
        <ele>452</ele>
        <time>2021-07-27T08:23:09Z</time>
      </trkpt>
      <trkpt lat="45.90281" lon="3.05354">
        <ele>452</ele>
        <time>2021-07-27T08:23:10Z</time>
      </trkpt>
      <trkpt lat="45.90282" lon="3.05356">
        <ele>452</ele>
        <time>2021-07-27T08:23:11Z</time>
      </trkpt>
      <trkpt lat="45.90282" lon="3.05358">
        <ele>452</ele>
        <time>2021-07-27T08:23:12Z</time>
      </trkpt>
      <trkpt lat="45.90283" lon="3.0536">
        <ele>452</ele>
        <time>2021-07-27T08:23:13Z</time>
      </trkpt>
      <trkpt lat="45.90283" lon="3.05362">
        <ele>452</ele>
        <time>2021-07-27T08:23:14Z</time>
      </trkpt>
      <trkpt lat="45.90283" lon="3.05364">
        <ele>452</ele>
        <time>2021-07-27T08:23:15Z</time>
      </trkpt>
      <trkpt lat="45.90284" lon="3.05366">
        <ele>452</ele>
        <time>2021-07-27T08:23:16Z</time>
      </trkpt>
      <trkpt lat="45.90285" lon="3.05368">
        <ele>452</ele>
        <time>2021-07-27T08:23:17Z</time>
      </trkpt>
      <trkpt lat="45.90286" lon="3.0537">
        <ele>452</ele>
        <time>2021-07-27T08:23:17Z</time>
      </trkpt>
      <trkpt lat="45.90286" lon="3.05372">
        <ele>452</ele>
        <time>2021-07-27T08:23:18Z</time>
      </trkpt>
      <trkpt lat="45.90287" lon="3.05374">
        <ele>452</ele>
        <time>2021-07-27T08:23:19Z</time>
      </trkpt>
      <trkpt lat="45.90287" lon="3.05376">
        <ele>452</ele>
        <time>2021-07-27T08:23:20Z</time>
      </trkpt>
      <trkpt lat="45.90288" lon="3.05378">
        <ele>452</ele>
        <time>2021-07-27T08:23:21Z</time>
      </trkpt>
      <trkpt lat="45.90289" lon="3.0538">
        <ele>452</ele>
        <time>2021-07-27T08:23:22Z</time>
      </trkpt>
      <trkpt lat="45.90289" lon="3.05382">
        <ele>452</ele>
        <time>2021-07-27T08:23:23Z</time>
      </trkpt>
      <trkpt lat="45.9029" lon="3.05384">
        <ele>452</ele>
        <time>2021-07-27T08:23:24Z</time>
      </trkpt>
      <trkpt lat="45.90291" lon="3.05386">
        <ele>452</ele>
        <time>2021-07-27T08:23:25Z</time>
      </trkpt>
      <trkpt lat="45.90292" lon="3.05388">
        <ele>452</ele>
        <time>2021-07-27T08:23:27Z</time>
      </trkpt>
      <trkpt lat="45.90295" lon="3.05396">
        <ele>452</ele>
        <time>2021-07-27T08:23:28Z</time>
      </trkpt>
      <trkpt lat="45.90295" lon="3.05396">
        <ele>452</ele>
        <time>2021-07-27T08:23:29Z</time>
      </trkpt>
      <trkpt lat="45.90295" lon="3.05397">
        <ele>452</ele>
        <time>2021-07-27T08:23:30Z</time>
      </trkpt>
      <trkpt lat="45.90295" lon="3.05399">
        <ele>452</ele>
        <time>2021-07-27T08:23:31Z</time>
      </trkpt>
      <trkpt lat="45.90297" lon="3.05401">
        <ele>452</ele>
        <time>2021-07-27T08:23:32Z</time>
      </trkpt>
      <trkpt lat="45.90297" lon="3.05402">
        <ele>452</ele>
        <time>2021-07-27T08:23:33Z</time>
      </trkpt>
      <trkpt lat="45.90298" lon="3.05404">
        <ele>452</ele>
        <time>2021-07-27T08:23:34Z</time>
      </trkpt>
      <trkpt lat="45.90299" lon="3.05406">
        <ele>452</ele>
        <time>2021-07-27T08:23:35Z</time>
      </trkpt>
      <trkpt lat="45.90299" lon="3.05407">
        <ele>452</ele>
        <time>2021-07-27T08:23:36Z</time>
      </trkpt>
      <trkpt lat="45.903" lon="3.05409">
        <ele>452</ele>
        <time>2021-07-27T08:23:37Z</time>
      </trkpt>
      <trkpt lat="45.903" lon="3.05411">
        <ele>452</ele>
        <time>2021-07-27T08:23:38Z</time>
      </trkpt>
      <trkpt lat="45.90301" lon="3.05413">
        <ele>452</ele>
        <time>2021-07-27T08:23:39Z</time>
      </trkpt>
      <trkpt lat="45.90301" lon="3.05415">
        <ele>452</ele>
        <time>2021-07-27T08:23:40Z</time>
      </trkpt>
      <trkpt lat="45.90302" lon="3.05416">
        <ele>452</ele>
        <time>2021-07-27T08:23:41Z</time>
      </trkpt>
      <trkpt lat="45.90302" lon="3.05418">
        <ele>452</ele>
        <time>2021-07-27T08:23:42Z</time>
      </trkpt>
      <trkpt lat="45.90303" lon="3.0542">
        <ele>452</ele>
        <time>2021-07-27T08:23:43Z</time>
      </trkpt>
      <trkpt lat="45.90303" lon="3.05422">
        <ele>452</ele>
        <time>2021-07-27T08:23:44Z</time>
      </trkpt>
      <trkpt lat="45.90304" lon="3.05424">
        <ele>452</ele>
        <time>2021-07-27T08:23:45Z</time>
      </trkpt>
      <trkpt lat="45.90305" lon="3.05426">
        <ele>452</ele>
        <time>2021-07-27T08:23:46Z</time>
      </trkpt>
      <trkpt lat="45.90305" lon="3.05428">
        <ele>452</ele>
        <time>2021-07-27T08:23:47Z</time>
      </trkpt>
      <trkpt lat="45.90307" lon="3.0543">
        <ele>452</ele>
        <time>2021-07-27T08:23:48Z</time>
      </trkpt>
      <trkpt lat="45.90307" lon="3.05432">
        <ele>452</ele>
        <time>2021-07-27T08:23:49Z</time>
      </trkpt>
      <trkpt lat="45.90307" lon="3.05434">
        <ele>452</ele>
        <time>2021-07-27T08:23:50Z</time>
      </trkpt>
      <trkpt lat="45.90307" lon="3.05436">
        <ele>452</ele>
        <time>2021-07-27T08:23:51Z</time>
      </trkpt>
      <trkpt lat="45.90308" lon="3.05438">
        <ele>452</ele>
        <time>2021-07-27T08:23:52Z</time>
      </trkpt>
      <trkpt lat="45.90308" lon="3.0544">
        <ele>452</ele>
        <time>2021-07-27T08:23:53Z</time>
      </trkpt>
      <trkpt lat="45.90308" lon="3.05442">
        <ele>452</ele>
        <time>2021-07-27T08:23:54Z</time>
      </trkpt>
      <trkpt lat="45.90307" lon="3.05444">
        <ele>452</ele>
        <time>2021-07-27T08:23:55Z</time>
      </trkpt>
      <trkpt lat="45.90307" lon="3.05445">
        <ele>452</ele>
        <time>2021-07-27T08:23:56Z</time>
      </trkpt>
      <trkpt lat="45.90307" lon="3.05446">
        <ele>452</ele>
        <time>2021-07-27T08:23:57Z</time>
      </trkpt>
      <trkpt lat="45.90306" lon="3.05448">
        <ele>452</ele>
        <time>2021-07-27T08:23:58Z</time>
      </trkpt>
      <trkpt lat="45.90305" lon="3.0545">
        <ele>452</ele>
        <time>2021-07-27T08:23:59Z</time>
      </trkpt>
      <trkpt lat="45.90304" lon="3.05451">
        <ele>452</ele>
        <time>2021-07-27T08:24:00Z</time>
      </trkpt>
      <trkpt lat="45.90303" lon="3.05453">
        <ele>452</ele>
        <time>2021-07-27T08:24:01Z</time>
      </trkpt>
      <trkpt lat="45.90302" lon="3.05455">
        <ele>452</ele>
        <time>2021-07-27T08:24:02Z</time>
      </trkpt>
      <trkpt lat="45.90301" lon="3.05456">
        <ele>452</ele>
        <time>2021-07-27T08:24:03Z</time>
      </trkpt>
      <trkpt lat="45.903" lon="3.05458">
        <ele>452</ele>
        <time>2021-07-27T08:24:04Z</time>
      </trkpt>
      <trkpt lat="45.90299" lon="3.05459">
        <ele>452</ele>
        <time>2021-07-27T08:24:05Z</time>
      </trkpt>
      <trkpt lat="45.90298" lon="3.05461">
        <ele>452</ele>
        <time>2021-07-27T08:24:06Z</time>
      </trkpt>
      <trkpt lat="45.90297" lon="3.05462">
        <ele>452</ele>
        <time>2021-07-27T08:24:07Z</time>
      </trkpt>
      <trkpt lat="45.90296" lon="3.05464">
        <ele>452</ele>
        <time>2021-07-27T08:24:08Z</time>
      </trkpt>
      <trkpt lat="45.90295" lon="3.05465">
        <ele>452</ele>
        <time>2021-07-27T08:24:09Z</time>
      </trkpt>
      <trkpt lat="45.90294" lon="3.05466">
        <ele>452</ele>
        <time>2021-07-27T08:24:10Z</time>
      </trkpt>
      <trkpt lat="45.90292" lon="3.05467">
        <ele>452</ele>
        <time>2021-07-27T08:24:11Z</time>
      </trkpt>
      <trkpt lat="45.90291" lon="3.05469">
        <ele>452</ele>
        <time>2021-07-27T08:24:12Z</time>
      </trkpt>
      <trkpt lat="45.9029" lon="3.0547">
        <ele>452</ele>
        <time>2021-07-27T08:24:13Z</time>
      </trkpt>
      <trkpt lat="45.90289" lon="3.05471">
        <ele>452</ele>
        <time>2021-07-27T08:24:14Z</time>
      </trkpt>
      <trkpt lat="45.90288" lon="3.05472">
        <ele>452</ele>
        <time>2021-07-27T08:24:15Z</time>
      </trkpt>
      <trkpt lat="45.90286" lon="3.05474">
        <ele>452</ele>
        <time>2021-07-27T08:24:16Z</time>
      </trkpt>
      <trkpt lat="45.90286" lon="3.05475">
        <ele>452</ele>
        <time>2021-07-27T08:24:17Z</time>
      </trkpt>
      <trkpt lat="45.90284" lon="3.05476">
        <ele>452</ele>
        <time>2021-07-27T08:24:18Z</time>
      </trkpt>
      <trkpt lat="45.90283" lon="3.05477">
        <ele>452</ele>
        <time>2021-07-27T08:24:19Z</time>
      </trkpt>
      <trkpt lat="45.90282" lon="3.05478">
        <ele>452</ele>
        <time>2021-07-27T08:24:20Z</time>
      </trkpt>
      <trkpt lat="45.90281" lon="3.05479">
        <ele>452</ele>
        <time>2021-07-27T08:24:21Z</time>
      </trkpt>
      <trkpt lat="45.90279" lon="3.0548">
        <ele>452</ele>
        <time>2021-07-27T08:24:22Z</time>
      </trkpt>
      <trkpt lat="45.90278" lon="3.05481">
        <ele>452</ele>
        <time>2021-07-27T08:24:23Z</time>
      </trkpt>
      <trkpt lat="45.90277" lon="3.05482">
        <ele>452</ele>
        <time>2021-07-27T08:24:24Z</time>
      </trkpt>
      <trkpt lat="45.90276" lon="3.05483">
        <ele>452</ele>
        <time>2021-07-27T08:24:25Z</time>
      </trkpt>
      <trkpt lat="45.90274" lon="3.05484">
        <ele>452</ele>
        <time>2021-07-27T08:24:27Z</time>
      </trkpt>
      <trkpt lat="45.90268" lon="3.05488">
        <ele>452</ele>
        <time>2021-07-27T08:24:28Z</time>
      </trkpt>
      <trkpt lat="45.90268" lon="3.05489">
        <ele>452</ele>
        <time>2021-07-27T08:24:29Z</time>
      </trkpt>
      <trkpt lat="45.90267" lon="3.05489">
        <ele>452</ele>
        <time>2021-07-27T08:24:30Z</time>
      </trkpt>
      <trkpt lat="45.90266" lon="3.0549">
        <ele>452</ele>
        <time>2021-07-27T08:24:31Z</time>
      </trkpt>
      <trkpt lat="45.90265" lon="3.0549">
        <ele>452</ele>
        <time>2021-07-27T08:24:32Z</time>
      </trkpt>
      <trkpt lat="45.90263" lon="3.05491">
        <ele>452</ele>
        <time>2021-07-27T08:24:33Z</time>
      </trkpt>
      <trkpt lat="45.90262" lon="3.05492">
        <ele>452</ele>
        <time>2021-07-27T08:24:34Z</time>
      </trkpt>
      <trkpt lat="45.9026" lon="3.05493">
        <ele>452</ele>
        <time>2021-07-27T08:24:35Z</time>
      </trkpt>
      <trkpt lat="45.90259" lon="3.05494">
        <ele>452</ele>
        <time>2021-07-27T08:24:36Z</time>
      </trkpt>
      <trkpt lat="45.90258" lon="3.05494">
        <ele>452</ele>
        <time>2021-07-27T08:24:37Z</time>
      </trkpt>
      <trkpt lat="45.90256" lon="3.05495">
        <ele>452</ele>
        <time>2021-07-27T08:24:38Z</time>
      </trkpt>
      <trkpt lat="45.90255" lon="3.05496">
        <ele>452</ele>
        <time>2021-07-27T08:24:39Z</time>
      </trkpt>
      <trkpt lat="45.90253" lon="3.05497">
        <ele>452</ele>
        <time>2021-07-27T08:24:40Z</time>
      </trkpt>
      <trkpt lat="45.90253" lon="3.05498">
        <ele>452</ele>
        <time>2021-07-27T08:24:41Z</time>
      </trkpt>
      <trkpt lat="45.90251" lon="3.05499">
        <ele>452</ele>
        <time>2021-07-27T08:24:42Z</time>
      </trkpt>
      <trkpt lat="45.9025" lon="3.055">
        <ele>452</ele>
        <time>2021-07-27T08:24:43Z</time>
      </trkpt>
      <trkpt lat="45.90249" lon="3.05501">
        <ele>452</ele>
        <time>2021-07-27T08:24:44Z</time>
      </trkpt>
      <trkpt lat="45.90247" lon="3.05501">
        <ele>452</ele>
        <time>2021-07-27T08:24:45Z</time>
      </trkpt>
      <trkpt lat="45.90247" lon="3.05502">
        <ele>452</ele>
        <time>2021-07-27T08:24:46Z</time>
      </trkpt>
      <trkpt lat="45.90246" lon="3.05502">
        <ele>452</ele>
        <time>2021-07-27T08:24:47Z</time>
      </trkpt>
      <trkpt lat="45.90245" lon="3.05503">
        <ele>452</ele>
        <time>2021-07-27T08:24:48Z</time>
      </trkpt>
      <trkpt lat="45.90244" lon="3.05504">
        <ele>452</ele>
        <time>2021-07-27T08:24:49Z</time>
      </trkpt>
      <trkpt lat="45.90243" lon="3.05504">
        <ele>452</ele>
        <time>2021-07-27T08:24:50Z</time>
      </trkpt>
      <trkpt lat="45.90242" lon="3.05505">
        <ele>452</ele>
        <time>2021-07-27T08:24:51Z</time>
      </trkpt>
      <trkpt lat="45.90241" lon="3.05506">
        <ele>452</ele>
        <time>2021-07-27T08:24:52Z</time>
      </trkpt>
      <trkpt lat="45.9024" lon="3.05507">
        <ele>452</ele>
        <time>2021-07-27T08:24:53Z</time>
      </trkpt>
      <trkpt lat="45.90239" lon="3.05508">
        <ele>452</ele>
        <time>2021-07-27T08:24:54Z</time>
      </trkpt>
      <trkpt lat="45.90238" lon="3.05509">
        <ele>452</ele>
        <time>2021-07-27T08:24:55Z</time>
      </trkpt>
      <trkpt lat="45.90237" lon="3.05511">
        <ele>452</ele>
        <time>2021-07-27T08:24:56Z</time>
      </trkpt>
      <trkpt lat="45.90237" lon="3.05512">
        <ele>452</ele>
        <time>2021-07-27T08:24:57Z</time>
      </trkpt>
      <trkpt lat="45.90236" lon="3.05513">
        <ele>452</ele>
        <time>2021-07-27T08:24:58Z</time>
      </trkpt>
      <trkpt lat="45.90235" lon="3.05514">
        <ele>452</ele>
        <time>2021-07-27T08:24:59Z</time>
      </trkpt>
      <trkpt lat="45.90234" lon="3.05515">
        <ele>452</ele>
        <time>2021-07-27T08:25:00Z</time>
      </trkpt>
      <trkpt lat="45.90233" lon="3.05516">
        <ele>452</ele>
        <time>2021-07-27T08:25:01Z</time>
      </trkpt>
      <trkpt lat="45.90232" lon="3.05518">
        <ele>452</ele>
        <time>2021-07-27T08:25:02Z</time>
      </trkpt>
      <trkpt lat="45.90231" lon="3.05519">
        <ele>452</ele>
        <time>2021-07-27T08:25:03Z</time>
      </trkpt>
      <trkpt lat="45.9023" lon="3.05521">
        <ele>452</ele>
        <time>2021-07-27T08:25:04Z</time>
      </trkpt>
      <trkpt lat="45.90229" lon="3.05522">
        <ele>452</ele>
        <time>2021-07-27T08:25:05Z</time>
      </trkpt>
      <trkpt lat="45.90229" lon="3.05524">
        <ele>452</ele>
        <time>2021-07-27T08:25:06Z</time>
      </trkpt>
      <trkpt lat="45.90228" lon="3.05526">
        <ele>452</ele>
        <time>2021-07-27T08:25:07Z</time>
      </trkpt>
      <trkpt lat="45.90226" lon="3.05527">
        <ele>452</ele>
        <time>2021-07-27T08:25:08Z</time>
      </trkpt>
      <trkpt lat="45.90226" lon="3.05529">
        <ele>452</ele>
        <time>2021-07-27T08:25:09Z</time>
      </trkpt>
      <trkpt lat="45.90225" lon="3.05531">
        <ele>452</ele>
        <time>2021-07-27T08:25:10Z</time>
      </trkpt>
      <trkpt lat="45.90224" lon="3.05533">
        <ele>452</ele>
        <time>2021-07-27T08:25:11Z</time>
      </trkpt>
      <trkpt lat="45.90223" lon="3.05535">
        <ele>452</ele>
        <time>2021-07-27T08:25:12Z</time>
      </trkpt>
      <trkpt lat="45.90222" lon="3.05537">
        <ele>452</ele>
        <time>2021-07-27T08:25:13Z</time>
      </trkpt>
      <trkpt lat="45.90221" lon="3.05539">
        <ele>452</ele>
        <time>2021-07-27T08:25:14Z</time>
      </trkpt>
      <trkpt lat="45.9022" lon="3.0554">
        <ele>452</ele>
        <time>2021-07-27T08:25:15Z</time>
      </trkpt>
      <trkpt lat="45.90219" lon="3.05542">
        <ele>452</ele>
        <time>2021-07-27T08:25:16Z</time>
      </trkpt>
      <trkpt lat="45.90218" lon="3.05544">
        <ele>452</ele>
        <time>2021-07-27T08:25:17Z</time>
      </trkpt>
      <trkpt lat="45.90217" lon="3.05546">
        <ele>452</ele>
        <time>2021-07-27T08:25:18Z</time>
      </trkpt>
      <trkpt lat="45.90217" lon="3.05548">
        <ele>452</ele>
        <time>2021-07-27T08:25:19Z</time>
      </trkpt>
      <trkpt lat="45.90216" lon="3.0555">
        <ele>452</ele>
        <time>2021-07-27T08:25:20Z</time>
      </trkpt>
      <trkpt lat="45.90216" lon="3.05552">
        <ele>452</ele>
        <time>2021-07-27T08:25:21Z</time>
      </trkpt>
      <trkpt lat="45.90215" lon="3.05553">
        <ele>452</ele>
        <time>2021-07-27T08:25:22Z</time>
      </trkpt>
      <trkpt lat="45.90214" lon="3.05555">
        <ele>452</ele>
        <time>2021-07-27T08:25:23Z</time>
      </trkpt>
      <trkpt lat="45.90214" lon="3.05557">
        <ele>452</ele>
        <time>2021-07-27T08:25:24Z</time>
      </trkpt>
      <trkpt lat="45.90213" lon="3.05559">
        <ele>452</ele>
        <time>2021-07-27T08:25:26Z</time>
      </trkpt>
      <trkpt lat="45.90212" lon="3.0556">
        <ele>452</ele>
        <time>2021-07-27T08:25:27Z</time>
      </trkpt>
      <trkpt lat="45.90212" lon="3.05562">
        <ele>452</ele>
        <time>2021-07-27T08:25:28Z</time>
      </trkpt>
      <trkpt lat="45.90208" lon="3.05569">
        <ele>452</ele>
        <time>2021-07-27T08:25:29Z</time>
      </trkpt>
      <trkpt lat="45.90208" lon="3.05569">
        <ele>452</ele>
        <time>2021-07-27T08:25:30Z</time>
      </trkpt>
      <trkpt lat="45.90208" lon="3.0557">
        <ele>452</ele>
        <time>2021-07-27T08:25:31Z</time>
      </trkpt>
      <trkpt lat="45.90207" lon="3.05572">
        <ele>452</ele>
        <time>2021-07-27T08:25:32Z</time>
      </trkpt>
      <trkpt lat="45.90206" lon="3.05573">
        <ele>452</ele>
        <time>2021-07-27T08:25:33Z</time>
      </trkpt>
      <trkpt lat="45.90205" lon="3.05575">
        <ele>452</ele>
        <time>2021-07-27T08:25:34Z</time>
      </trkpt>
      <trkpt lat="45.90204" lon="3.05576">
        <ele>452</ele>
        <time>2021-07-27T08:25:35Z</time>
      </trkpt>
      <trkpt lat="45.90204" lon="3.05578">
        <ele>452</ele>
        <time>2021-07-27T08:25:36Z</time>
      </trkpt>
      <trkpt lat="45.90202" lon="3.05579">
        <ele>452</ele>
        <time>2021-07-27T08:25:37Z</time>
      </trkpt>
      <trkpt lat="45.90202" lon="3.05581">
        <ele>452</ele>
        <time>2021-07-27T08:25:38Z</time>
      </trkpt>
      <trkpt lat="45.90201" lon="3.05582">
        <ele>452</ele>
        <time>2021-07-27T08:25:39Z</time>
      </trkpt>
      <trkpt lat="45.902" lon="3.05584">
        <ele>452</ele>
        <time>2021-07-27T08:25:40Z</time>
      </trkpt>
      <trkpt lat="45.90199" lon="3.05585">
        <ele>452</ele>
        <time>2021-07-27T08:25:41Z</time>
      </trkpt>
      <trkpt lat="45.90198" lon="3.05587">
        <ele>452</ele>
        <time>2021-07-27T08:25:42Z</time>
      </trkpt>
      <trkpt lat="45.90197" lon="3.05588">
        <ele>452</ele>
        <time>2021-07-27T08:25:43Z</time>
      </trkpt>
      <trkpt lat="45.90196" lon="3.0559">
        <ele>452</ele>
        <time>2021-07-27T08:25:44Z</time>
      </trkpt>
      <trkpt lat="45.90195" lon="3.05592">
        <ele>452</ele>
        <time>2021-07-27T08:25:45Z</time>
      </trkpt>
      <trkpt lat="45.90194" lon="3.05593">
        <ele>452</ele>
        <time>2021-07-27T08:25:46Z</time>
      </trkpt>
      <trkpt lat="45.90193" lon="3.05595">
        <ele>452</ele>
        <time>2021-07-27T08:25:47Z</time>
      </trkpt>
      <trkpt lat="45.90192" lon="3.05596">
        <ele>452</ele>
        <time>2021-07-27T08:25:48Z</time>
      </trkpt>
      <trkpt lat="45.90192" lon="3.05598">
        <ele>452</ele>
        <time>2021-07-27T08:25:49Z</time>
      </trkpt>
      <trkpt lat="45.90191" lon="3.05599">
        <ele>452</ele>
        <time>2021-07-27T08:25:50Z</time>
      </trkpt>
      <trkpt lat="45.9019" lon="3.056">
        <ele>452</ele>
        <time>2021-07-27T08:25:51Z</time>
      </trkpt>
      <trkpt lat="45.90189" lon="3.05602">
        <ele>452</ele>
        <time>2021-07-27T08:25:52Z</time>
      </trkpt>
      <trkpt lat="45.90188" lon="3.05603">
        <ele>452</ele>
        <time>2021-07-27T08:25:53Z</time>
      </trkpt>
      <trkpt lat="45.90187" lon="3.05604">
        <ele>452</ele>
        <time>2021-07-27T08:25:54Z</time>
      </trkpt>
      <trkpt lat="45.90186" lon="3.05606">
        <ele>452</ele>
        <time>2021-07-27T08:25:55Z</time>
      </trkpt>
      <trkpt lat="45.90184" lon="3.05608">
        <ele>452</ele>
        <time>2021-07-27T08:25:56Z</time>
      </trkpt>
      <trkpt lat="45.90183" lon="3.05609">
        <ele>452</ele>
        <time>2021-07-27T08:25:57Z</time>
      </trkpt>
      <trkpt lat="45.90182" lon="3.05611">
        <ele>452</ele>
        <time>2021-07-27T08:25:58Z</time>
      </trkpt>
      <trkpt lat="45.90181" lon="3.05613">
        <ele>452</ele>
        <time>2021-07-27T08:25:59Z</time>
      </trkpt>
      <trkpt lat="45.90179" lon="3.05614">
        <ele>452</ele>
        <time>2021-07-27T08:26:00Z</time>
      </trkpt>
      <trkpt lat="45.90178" lon="3.05616">
        <ele>452</ele>
        <time>2021-07-27T08:26:01Z</time>
      </trkpt>
      <trkpt lat="45.90177" lon="3.05617">
        <ele>452</ele>
        <time>2021-07-27T08:26:02Z</time>
      </trkpt>
      <trkpt lat="45.90176" lon="3.05618">
        <ele>452</ele>
        <time>2021-07-27T08:26:03Z</time>
      </trkpt>
      <trkpt lat="45.90175" lon="3.0562">
        <ele>452</ele>
        <time>2021-07-27T08:26:04Z</time>
      </trkpt>
      <trkpt lat="45.90175" lon="3.05621">
        <ele>452</ele>
        <time>2021-07-27T08:26:05Z</time>
      </trkpt>
      <trkpt lat="45.90174" lon="3.05623">
        <ele>452</ele>
        <time>2021-07-27T08:26:06Z</time>
      </trkpt>
      <trkpt lat="45.90173" lon="3.05625">
        <ele>452</ele>
        <time>2021-07-27T08:26:07Z</time>
      </trkpt>
      <trkpt lat="45.90172" lon="3.05626">
        <ele>452</ele>
        <time>2021-07-27T08:26:08Z</time>
      </trkpt>
      <trkpt lat="45.90171" lon="3.05628">
        <ele>452</ele>
        <time>2021-07-27T08:26:09Z</time>
      </trkpt>
      <trkpt lat="45.9017" lon="3.05629">
        <ele>452</ele>
        <time>2021-07-27T08:26:10Z</time>
      </trkpt>
      <trkpt lat="45.90169" lon="3.05631">
        <ele>452</ele>
        <time>2021-07-27T08:26:11Z</time>
      </trkpt>
      <trkpt lat="45.90168" lon="3.05632">
        <ele>452</ele>
        <time>2021-07-27T08:26:12Z</time>
      </trkpt>
      <trkpt lat="45.90166" lon="3.05634">
        <ele>452</ele>
        <time>2021-07-27T08:26:13Z</time>
      </trkpt>
      <trkpt lat="45.90165" lon="3.05635">
        <ele>452</ele>
        <time>2021-07-27T08:26:14Z</time>
      </trkpt>
      <trkpt lat="45.90164" lon="3.05637">
        <ele>452</ele>
        <time>2021-07-27T08:26:15Z</time>
      </trkpt>
      <trkpt lat="45.90162" lon="3.05639">
        <ele>452</ele>
        <time>2021-07-27T08:26:16Z</time>
      </trkpt>
      <trkpt lat="45.90162" lon="3.0564">
        <ele>452</ele>
        <time>2021-07-27T08:26:17Z</time>
      </trkpt>
      <trkpt lat="45.9016" lon="3.05642">
        <ele>452</ele>
        <time>2021-07-27T08:26:18Z</time>
      </trkpt>
      <trkpt lat="45.90159" lon="3.05644">
        <ele>452</ele>
        <time>2021-07-27T08:26:19Z</time>
      </trkpt>
      <trkpt lat="45.90159" lon="3.05646">
        <ele>452</ele>
        <time>2021-07-27T08:26:20Z</time>
      </trkpt>
      <trkpt lat="45.90157" lon="3.05647">
        <ele>452</ele>
        <time>2021-07-27T08:26:21Z</time>
      </trkpt>
      <trkpt lat="45.90156" lon="3.05649">
        <ele>452</ele>
        <time>2021-07-27T08:26:22Z</time>
      </trkpt>
      <trkpt lat="45.90155" lon="3.0565">
        <ele>452</ele>
        <time>2021-07-27T08:26:23Z</time>
      </trkpt>
      <trkpt lat="45.90154" lon="3.05652">
        <ele>452</ele>
        <time>2021-07-27T08:26:24Z</time>
      </trkpt>
      <trkpt lat="45.90153" lon="3.05653">
        <ele>452</ele>
        <time>2021-07-27T08:26:25Z</time>
      </trkpt>
      <trkpt lat="45.90152" lon="3.05654">
        <ele>452</ele>
        <time>2021-07-27T08:26:27Z</time>
      </trkpt>
      <trkpt lat="45.90149" lon="3.0566">
        <ele>452</ele>
        <time>2021-07-27T08:26:28Z</time>
      </trkpt>
      <trkpt lat="45.90149" lon="3.0566">
        <ele>452</ele>
        <time>2021-07-27T08:26:29Z</time>
      </trkpt>
      <trkpt lat="45.90148" lon="3.05661">
        <ele>452</ele>
        <time>2021-07-27T08:26:30Z</time>
      </trkpt>
      <trkpt lat="45.90147" lon="3.05662">
        <ele>452</ele>
        <time>2021-07-27T08:26:31Z</time>
      </trkpt>
      <trkpt lat="45.90146" lon="3.05663">
        <ele>452</ele>
        <time>2021-07-27T08:26:32Z</time>
      </trkpt>
      <trkpt lat="45.90146" lon="3.05664">
        <ele>452</ele>
        <time>2021-07-27T08:26:33Z</time>
      </trkpt>
      <trkpt lat="45.90144" lon="3.05666">
        <ele>452</ele>
        <time>2021-07-27T08:26:34Z</time>
      </trkpt>
      <trkpt lat="45.90144" lon="3.05668">
        <ele>452</ele>
        <time>2021-07-27T08:26:35Z</time>
      </trkpt>
      <trkpt lat="45.90142" lon="3.05669">
        <ele>452</ele>
        <time>2021-07-27T08:26:36Z</time>
      </trkpt>
      <trkpt lat="45.90141" lon="3.05671">
        <ele>452</ele>
        <time>2021-07-27T08:26:37Z</time>
      </trkpt>
      <trkpt lat="45.90141" lon="3.05672">
        <ele>452</ele>
        <time>2021-07-27T08:26:38Z</time>
      </trkpt>
      <trkpt lat="45.90139" lon="3.05674">
        <ele>452</ele>
        <time>2021-07-27T08:26:39Z</time>
      </trkpt>
      <trkpt lat="45.90139" lon="3.05676">
        <ele>452</ele>
        <time>2021-07-27T08:26:40Z</time>
      </trkpt>
      <trkpt lat="45.90138" lon="3.05678">
        <ele>452</ele>
        <time>2021-07-27T08:26:41Z</time>
      </trkpt>
      <trkpt lat="45.90137" lon="3.05679">
        <ele>452</ele>
        <time>2021-07-27T08:26:42Z</time>
      </trkpt>
      <trkpt lat="45.90136" lon="3.05681">
        <ele>452</ele>
        <time>2021-07-27T08:26:43Z</time>
      </trkpt>
      <trkpt lat="45.90135" lon="3.05683">
        <ele>452</ele>
        <time>2021-07-27T08:26:44Z</time>
      </trkpt>
      <trkpt lat="45.90135" lon="3.05685">
        <ele>452</ele>
        <time>2021-07-27T08:26:45Z</time>
      </trkpt>
      <trkpt lat="45.90134" lon="3.05687">
        <ele>452</ele>
        <time>2021-07-27T08:26:46Z</time>
      </trkpt>
      <trkpt lat="45.90133" lon="3.05689">
        <ele>452</ele>
        <time>2021-07-27T08:26:47Z</time>
      </trkpt>
      <trkpt lat="45.90133" lon="3.0569">
        <ele>452</ele>
        <time>2021-07-27T08:26:48Z</time>
      </trkpt>
      <trkpt lat="45.90132" lon="3.05692">
        <ele>452</ele>
        <time>2021-07-27T08:26:49Z</time>
      </trkpt>
      <trkpt lat="45.90132" lon="3.05694">
        <ele>452</ele>
        <time>2021-07-27T08:26:50Z</time>
      </trkpt>
      <trkpt lat="45.90131" lon="3.05696">
        <ele>452</ele>
        <time>2021-07-27T08:26:51Z</time>
      </trkpt>
      <trkpt lat="45.90131" lon="3.05699">
        <ele>452</ele>
        <time>2021-07-27T08:26:52Z</time>
      </trkpt>
      <trkpt lat="45.9013" lon="3.05701">
        <ele>452</ele>
        <time>2021-07-27T08:26:53Z</time>
      </trkpt>
      <trkpt lat="45.9013" lon="3.05703">
        <ele>452</ele>
        <time>2021-07-27T08:26:54Z</time>
      </trkpt>
      <trkpt lat="45.90129" lon="3.05705">
        <ele>452</ele>
        <time>2021-07-27T08:26:55Z</time>
      </trkpt>
      <trkpt lat="45.90129" lon="3.05708">
        <ele>452</ele>
        <time>2021-07-27T08:26:56Z</time>
      </trkpt>
      <trkpt lat="45.90129" lon="3.0571">
        <ele>452</ele>
        <time>2021-07-27T08:26:57Z</time>
      </trkpt>
      <trkpt lat="45.90128" lon="3.05712">
        <ele>452</ele>
        <time>2021-07-27T08:26:58Z</time>
      </trkpt>
      <trkpt lat="45.90128" lon="3.05715">
        <ele>452</ele>
        <time>2021-07-27T08:26:59Z</time>
      </trkpt>
      <trkpt lat="45.90127" lon="3.05717">
        <ele>452</ele>
        <time>2021-07-27T08:27:00Z</time>
      </trkpt>
      <trkpt lat="45.90126" lon="3.05719">
        <ele>452</ele>
        <time>2021-07-27T08:27:01Z</time>
      </trkpt>
      <trkpt lat="45.90126" lon="3.05721">
        <ele>452</ele>
        <time>2021-07-27T08:27:02Z</time>
      </trkpt>
      <trkpt lat="45.90126" lon="3.05723">
        <ele>452</ele>
        <time>2021-07-27T08:27:03Z</time>
      </trkpt>
      <trkpt lat="45.90125" lon="3.05725">
        <ele>452</ele>
        <time>2021-07-27T08:27:04Z</time>
      </trkpt>
      <trkpt lat="45.90125" lon="3.05726">
        <ele>452</ele>
        <time>2021-07-27T08:27:05Z</time>
      </trkpt>
      <trkpt lat="45.90124" lon="3.05728">
        <ele>452</ele>
        <time>2021-07-27T08:27:06Z</time>
      </trkpt>
      <trkpt lat="45.90123" lon="3.0573">
        <ele>452</ele>
        <time>2021-07-27T08:27:07Z</time>
      </trkpt>
      <trkpt lat="45.90123" lon="3.05732">
        <ele>452</ele>
        <time>2021-07-27T08:27:08Z</time>
      </trkpt>
      <trkpt lat="45.90123" lon="3.05734">
        <ele>452</ele>
        <time>2021-07-27T08:27:09Z</time>
      </trkpt>
      <trkpt lat="45.90123" lon="3.05735">
        <ele>452</ele>
        <time>2021-07-27T08:27:10Z</time>
      </trkpt>
      <trkpt lat="45.90122" lon="3.05737">
        <ele>452</ele>
        <time>2021-07-27T08:27:11Z</time>
      </trkpt>
      <trkpt lat="45.90122" lon="3.05739">
        <ele>452</ele>
        <time>2021-07-27T08:27:12Z</time>
      </trkpt>
      <trkpt lat="45.90122" lon="3.05741">
        <ele>452</ele>
        <time>2021-07-27T08:27:13Z</time>
      </trkpt>
      <trkpt lat="45.90122" lon="3.05744">
        <ele>452</ele>
        <time>2021-07-27T08:27:14Z</time>
      </trkpt>
      <trkpt lat="45.90121" lon="3.05746">
        <ele>452</ele>
        <time>2021-07-27T08:27:15Z</time>
      </trkpt>
      <trkpt lat="45.90121" lon="3.05748">
        <ele>452</ele>
        <time>2021-07-27T08:27:16Z</time>
      </trkpt>
      <trkpt lat="45.90121" lon="3.0575">
        <ele>452</ele>
        <time>2021-07-27T08:27:17Z</time>
      </trkpt>
      <trkpt lat="45.9012" lon="3.05752">
        <ele>452</ele>
        <time>2021-07-27T08:27:18Z</time>
      </trkpt>
      <trkpt lat="45.9012" lon="3.05754">
        <ele>452</ele>
        <time>2021-07-27T08:27:19Z</time>
      </trkpt>
      <trkpt lat="45.9012" lon="3.05756">
        <ele>452</ele>
        <time>2021-07-27T08:27:20Z</time>
      </trkpt>
      <trkpt lat="45.90119" lon="3.05757">
        <ele>452</ele>
        <time>2021-07-27T08:27:21Z</time>
      </trkpt>
      <trkpt lat="45.90118" lon="3.05759">
        <ele>452</ele>
        <time>2021-07-27T08:27:22Z</time>
      </trkpt>
      <trkpt lat="45.90118" lon="3.05762">
        <ele>452</ele>
        <time>2021-07-27T08:27:23Z</time>
      </trkpt>
      <trkpt lat="45.90117" lon="3.05764">
        <ele>452</ele>
        <time>2021-07-27T08:27:24Z</time>
      </trkpt>
      <trkpt lat="45.90117" lon="3.05767">
        <ele>452</ele>
        <time>2021-07-27T08:27:25Z</time>
      </trkpt>
      <trkpt lat="45.90117" lon="3.05769">
        <ele>452</ele>
        <time>2021-07-27T08:27:27Z</time>
      </trkpt>
      <trkpt lat="45.90116" lon="3.05771">
        <ele>452</ele>
        <time>2021-07-27T08:27:28Z</time>
      </trkpt>
      <trkpt lat="45.90113" lon="3.05781">
        <ele>452</ele>
        <time>2021-07-27T08:27:29Z</time>
      </trkpt>
      <trkpt lat="45.90113" lon="3.05781">
        <ele>452</ele>
        <time>2021-07-27T08:27:30Z</time>
      </trkpt>
      <trkpt lat="45.90113" lon="3.05782">
        <ele>452</ele>
        <time>2021-07-27T08:27:31Z</time>
      </trkpt>
      <trkpt lat="45.90113" lon="3.05783">
        <ele>452</ele>
        <time>2021-07-27T08:27:32Z</time>
      </trkpt>
      <trkpt lat="45.90113" lon="3.05784">
        <ele>452</ele>
        <time>2021-07-27T08:27:32Z</time>
      </trkpt>
      <trkpt lat="45.90113" lon="3.05785">
        <ele>452</ele>
        <time>2021-07-27T08:27:33Z</time>
      </trkpt>
      <trkpt lat="45.90113" lon="3.05787">
        <ele>452</ele>
        <time>2021-07-27T08:27:34Z</time>
      </trkpt>
      <trkpt lat="45.90113" lon="3.05788">
        <ele>452</ele>
        <time>2021-07-27T08:27:35Z</time>
      </trkpt>
      <trkpt lat="45.90112" lon="3.0579">
        <ele>452</ele>
        <time>2021-07-27T08:27:36Z</time>
      </trkpt>
      <trkpt lat="45.90112" lon="3.05792">
        <ele>452</ele>
        <time>2021-07-27T08:27:37Z</time>
      </trkpt>
      <trkpt lat="45.90112" lon="3.05793">
        <ele>452</ele>
        <time>2021-07-27T08:27:38Z</time>
      </trkpt>
      <trkpt lat="45.90112" lon="3.05795">
        <ele>452</ele>
        <time>2021-07-27T08:27:39Z</time>
      </trkpt>
      <trkpt lat="45.90112" lon="3.05797">
        <ele>452</ele>
        <time>2021-07-27T08:27:40Z</time>
      </trkpt>
      <trkpt lat="45.90111" lon="3.05799">
        <ele>452</ele>
        <time>2021-07-27T08:27:41Z</time>
      </trkpt>
      <trkpt lat="45.90111" lon="3.05801">
        <ele>452</ele>
        <time>2021-07-27T08:27:42Z</time>
      </trkpt>
      <trkpt lat="45.90111" lon="3.05803">
        <ele>452</ele>
        <time>2021-07-27T08:27:43Z</time>
      </trkpt>
      <trkpt lat="45.9011" lon="3.05805">
        <ele>452</ele>
        <time>2021-07-27T08:27:44Z</time>
      </trkpt>
      <trkpt lat="45.9011" lon="3.05807">
        <ele>452</ele>
        <time>2021-07-27T08:27:45Z</time>
      </trkpt>
      <trkpt lat="45.9011" lon="3.05809">
        <ele>452</ele>
        <time>2021-07-27T08:27:46Z</time>
      </trkpt>
      <trkpt lat="45.9011" lon="3.05811">
        <ele>452</ele>
        <time>2021-07-27T08:27:47Z</time>
      </trkpt>
      <trkpt lat="45.9011" lon="3.05813">
        <ele>452</ele>
        <time>2021-07-27T08:27:48Z</time>
      </trkpt>
      <trkpt lat="45.9011" lon="3.05815">
        <ele>452</ele>
        <time>2021-07-27T08:27:49Z</time>
      </trkpt>
      <trkpt lat="45.9011" lon="3.05817">
        <ele>452</ele>
        <time>2021-07-27T08:27:50Z</time>
      </trkpt>
      <trkpt lat="45.90109" lon="3.05819">
        <ele>452</ele>
        <time>2021-07-27T08:27:51Z</time>
      </trkpt>
      <trkpt lat="45.90109" lon="3.05821">
        <ele>452</ele>
        <time>2021-07-27T08:27:52Z</time>
      </trkpt>
      <trkpt lat="45.90109" lon="3.05823">
        <ele>452</ele>
        <time>2021-07-27T08:27:53Z</time>
      </trkpt>
      <trkpt lat="45.90109" lon="3.05825">
        <ele>452</ele>
        <time>2021-07-27T08:27:54Z</time>
      </trkpt>
      <trkpt lat="45.90109" lon="3.05826">
        <ele>452</ele>
        <time>2021-07-27T08:27:55Z</time>
      </trkpt>
      <trkpt lat="45.90109" lon="3.05827">
        <ele>452</ele>
        <time>2021-07-27T08:27:56Z</time>
      </trkpt>
      <trkpt lat="45.9011" lon="3.05827">
        <ele>452</ele>
        <time>2021-07-27T08:27:57Z</time>
      </trkpt>
      <trkpt lat="45.90111" lon="3.05827">
        <ele>452</ele>
        <time>2021-07-27T08:27:58Z</time>
      </trkpt>
      <trkpt lat="45.90111" lon="3.05827">
        <ele>452</ele>
        <time>2021-07-27T08:27:59Z</time>
      </trkpt>
      <trkpt lat="45.90112" lon="3.05827">
        <ele>452</ele>
        <time>2021-07-27T08:28:00Z</time>
      </trkpt>
      <trkpt lat="45.90113" lon="3.05826">
        <ele>452</ele>
        <time>2021-07-27T08:28:01Z</time>
      </trkpt>
      <trkpt lat="45.90114" lon="3.05825">
        <ele>452</ele>
        <time>2021-07-27T08:28:02Z</time>
      </trkpt>
      <trkpt lat="45.90115" lon="3.05824">
        <ele>452</ele>
        <time>2021-07-27T08:28:03Z</time>
      </trkpt>
      <trkpt lat="45.90116" lon="3.05823">
        <ele>452</ele>
        <time>2021-07-27T08:28:04Z</time>
      </trkpt>
      <trkpt lat="45.90117" lon="3.05822">
        <ele>452</ele>
        <time>2021-07-27T08:28:05Z</time>
      </trkpt>
      <trkpt lat="45.90118" lon="3.0582">
        <ele>452</ele>
        <time>2021-07-27T08:28:06Z</time>
      </trkpt>
      <trkpt lat="45.9012" lon="3.05819">
        <ele>452</ele>
        <time>2021-07-27T08:28:07Z</time>
      </trkpt>
      <trkpt lat="45.9012" lon="3.05818">
        <ele>452</ele>
        <time>2021-07-27T08:28:08Z</time>
      </trkpt>
      <trkpt lat="45.90122" lon="3.05817">
        <ele>452</ele>
        <time>2021-07-27T08:28:09Z</time>
      </trkpt>
      <trkpt lat="45.90123" lon="3.05816">
        <ele>452</ele>
        <time>2021-07-27T08:28:10Z</time>
      </trkpt>
      <trkpt lat="45.90123" lon="3.05816">
        <ele>452</ele>
        <time>2021-07-27T08:28:11Z</time>
      </trkpt>
      <trkpt lat="45.90125" lon="3.05815">
        <ele>452</ele>
        <time>2021-07-27T08:28:12Z</time>
      </trkpt>
      <trkpt lat="45.90126" lon="3.05814">
        <ele>452</ele>
        <time>2021-07-27T08:28:13Z</time>
      </trkpt>
      <trkpt lat="45.90126" lon="3.05813">
        <ele>452</ele>
        <time>2021-07-27T08:28:14Z</time>
      </trkpt>
      <trkpt lat="45.90128" lon="3.05813">
        <ele>452</ele>
        <time>2021-07-27T08:28:15Z</time>
      </trkpt>
      <trkpt lat="45.90129" lon="3.05812">
        <ele>452</ele>
        <time>2021-07-27T08:28:16Z</time>
      </trkpt>
      <trkpt lat="45.9013" lon="3.05811">
        <ele>452</ele>
        <time>2021-07-27T08:28:17Z</time>
      </trkpt>
      <trkpt lat="45.90131" lon="3.05811">
        <ele>452</ele>
        <time>2021-07-27T08:28:18Z</time>
      </trkpt>
      <trkpt lat="45.90133" lon="3.05811">
        <ele>452</ele>
        <time>2021-07-27T08:28:19Z</time>
      </trkpt>
      <trkpt lat="45.90134" lon="3.05811">
        <ele>452</ele>
        <time>2021-07-27T08:28:20Z</time>
      </trkpt>
      <trkpt lat="45.90135" lon="3.05812">
        <ele>452</ele>
        <time>2021-07-27T08:28:21Z</time>
      </trkpt>
      <trkpt lat="45.90136" lon="3.05812">
        <ele>452</ele>
        <time>2021-07-27T08:28:22Z</time>
      </trkpt>
      <trkpt lat="45.90138" lon="3.05813">
        <ele>452</ele>
        <time>2021-07-27T08:28:23Z</time>
      </trkpt>
      <trkpt lat="45.90138" lon="3.05813">
        <ele>452</ele>
        <time>2021-07-27T08:28:24Z</time>
      </trkpt>
      <trkpt lat="45.9014" lon="3.05814">
        <ele>452</ele>
        <time>2021-07-27T08:28:26Z</time>
      </trkpt>
      <trkpt lat="45.90146" lon="3.05816">
        <ele>452</ele>
        <time>2021-07-27T08:28:27Z</time>
      </trkpt>
      <trkpt lat="45.90146" lon="3.05816">
        <ele>452</ele>
        <time>2021-07-27T08:28:28Z</time>
      </trkpt>
      <trkpt lat="45.90147" lon="3.05816">
        <ele>452</ele>
        <time>2021-07-27T08:28:29Z</time>
      </trkpt>
      <trkpt lat="45.90148" lon="3.05817">
        <ele>452</ele>
        <time>2021-07-27T08:28:30Z</time>
      </trkpt>
      <trkpt lat="45.90149" lon="3.05817">
        <ele>452</ele>
        <time>2021-07-27T08:28:31Z</time>
      </trkpt>
      <trkpt lat="45.90151" lon="3.05818">
        <ele>452</ele>
        <time>2021-07-27T08:28:32Z</time>
      </trkpt>
      <trkpt lat="45.90152" lon="3.05819">
        <ele>452</ele>
        <time>2021-07-27T08:28:33Z</time>
      </trkpt>
      <trkpt lat="45.90153" lon="3.05819">
        <ele>452</ele>
        <time>2021-07-27T08:28:34Z</time>
      </trkpt>
      <trkpt lat="45.90154" lon="3.0582">
        <ele>452</ele>
        <time>2021-07-27T08:28:35Z</time>
      </trkpt>
      <trkpt lat="45.90156" lon="3.05821">
        <ele>452</ele>
        <time>2021-07-27T08:28:36Z</time>
      </trkpt>
      <trkpt lat="45.90157" lon="3.05822">
        <ele>452</ele>
        <time>2021-07-27T08:28:37Z</time>
      </trkpt>
      <trkpt lat="45.90159" lon="3.05822">
        <ele>452</ele>
        <time>2021-07-27T08:28:38Z</time>
      </trkpt>
      <trkpt lat="45.9016" lon="3.05823">
        <ele>452</ele>
        <time>2021-07-27T08:28:39Z</time>
      </trkpt>
      <trkpt lat="45.90162" lon="3.05823">
        <ele>452</ele>
        <time>2021-07-27T08:28:40Z</time>
      </trkpt>
      <trkpt lat="45.90164" lon="3.05823">
        <ele>452</ele>
        <time>2021-07-27T08:28:41Z</time>
      </trkpt>
      <trkpt lat="45.90165" lon="3.05824">
        <ele>452</ele>
        <time>2021-07-27T08:28:42Z</time>
      </trkpt>
      <trkpt lat="45.90168" lon="3.05824">
        <ele>452</ele>
        <time>2021-07-27T08:28:43Z</time>
      </trkpt>
      <trkpt lat="45.90169" lon="3.05825">
        <ele>452</ele>
        <time>2021-07-27T08:28:44Z</time>
      </trkpt>
      <trkpt lat="45.90171" lon="3.05825">
        <ele>452</ele>
        <time>2021-07-27T08:28:45Z</time>
      </trkpt>
      <trkpt lat="45.90172" lon="3.05826">
        <ele>452</ele>
        <time>2021-07-27T08:28:46Z</time>
      </trkpt>
      <trkpt lat="45.90174" lon="3.05827">
        <ele>452</ele>
        <time>2021-07-27T08:28:47Z</time>
      </trkpt>
      <trkpt lat="45.90175" lon="3.05827">
        <ele>452</ele>
        <time>2021-07-27T08:28:48Z</time>
      </trkpt>
      <trkpt lat="45.90177" lon="3.05828">
        <ele>452</ele>
        <time>2021-07-27T08:28:49Z</time>
      </trkpt>
      <trkpt lat="45.90178" lon="3.05828">
        <ele>452</ele>
        <time>2021-07-27T08:28:50Z</time>
      </trkpt>
      <trkpt lat="45.9018" lon="3.05829">
        <ele>452</ele>
        <time>2021-07-27T08:28:51Z</time>
      </trkpt>
      <trkpt lat="45.9018" lon="3.05829">
        <ele>452</ele>
        <time>2021-07-27T08:28:52Z</time>
      </trkpt>
      <trkpt lat="45.90181" lon="3.0583">
        <ele>452</ele>
        <time>2021-07-27T08:28:53Z</time>
      </trkpt>
      <trkpt lat="45.90182" lon="3.0583">
        <ele>452</ele>
        <time>2021-07-27T08:28:54Z</time>
      </trkpt>
      <trkpt lat="45.90183" lon="3.05831">
        <ele>452</ele>
        <time>2021-07-27T08:28:55Z</time>
      </trkpt>
      <trkpt lat="45.90183" lon="3.05831">
        <ele>452</ele>
        <time>2021-07-27T08:28:56Z</time>
      </trkpt>
      <trkpt lat="45.90184" lon="3.05831">
        <ele>452</ele>
        <time>2021-07-27T08:28:57Z</time>
      </trkpt>
      <trkpt lat="45.90184" lon="3.05831">
        <ele>452</ele>
        <time>2021-07-27T08:28:58Z</time>
      </trkpt>
      <trkpt lat="45.90185" lon="3.05831">
        <ele>452</ele>
        <time>2021-07-27T08:28:59Z</time>
      </trkpt>
      <trkpt lat="45.90186" lon="3.05832">
        <ele>452</ele>
        <time>2021-07-27T08:29:00Z</time>
      </trkpt>
      <trkpt lat="45.90186" lon="3.05832">
        <ele>452</ele>
        <time>2021-07-27T08:29:01Z</time>
      </trkpt>
      <trkpt lat="45.90187" lon="3.05832">
        <ele>452</ele>
        <time>2021-07-27T08:29:02Z</time>
      </trkpt>
      <trkpt lat="45.90188" lon="3.05832">
        <ele>452</ele>
        <time>2021-07-27T08:29:03Z</time>
      </trkpt>
      <trkpt lat="45.90189" lon="3.05832">
        <ele>452</ele>
        <time>2021-07-27T08:29:04Z</time>
      </trkpt>
      <trkpt lat="45.9019" lon="3.05832">
        <ele>452</ele>
        <time>2021-07-27T08:29:05Z</time>
      </trkpt>
      <trkpt lat="45.90191" lon="3.05832">
        <ele>452</ele>
        <time>2021-07-27T08:29:06Z</time>
      </trkpt>
      <trkpt lat="45.90193" lon="3.05832">
        <ele>452</ele>
        <time>2021-07-27T08:29:07Z</time>
      </trkpt>
      <trkpt lat="45.90194" lon="3.05833">
        <ele>452</ele>
        <time>2021-07-27T08:29:08Z</time>
      </trkpt>
      <trkpt lat="45.90195" lon="3.05833">
        <ele>452</ele>
        <time>2021-07-27T08:29:09Z</time>
      </trkpt>
      <trkpt lat="45.90196" lon="3.05833">
        <ele>452</ele>
        <time>2021-07-27T08:29:10Z</time>
      </trkpt>
      <trkpt lat="45.90198" lon="3.05833">
        <ele>452</ele>
        <time>2021-07-27T08:29:11Z</time>
      </trkpt>
      <trkpt lat="45.90199" lon="3.05833">
        <ele>452</ele>
        <time>2021-07-27T08:29:12Z</time>
      </trkpt>
      <trkpt lat="45.90201" lon="3.05833">
        <ele>452</ele>
        <time>2021-07-27T08:29:13Z</time>
      </trkpt>
      <trkpt lat="45.90203" lon="3.05833">
        <ele>452</ele>
        <time>2021-07-27T08:29:14Z</time>
      </trkpt>
      <trkpt lat="45.90204" lon="3.05833">
        <ele>452</ele>
        <time>2021-07-27T08:29:15Z</time>
      </trkpt>
      <trkpt lat="45.90206" lon="3.05833">
        <ele>452</ele>
        <time>2021-07-27T08:29:16Z</time>
      </trkpt>
      <trkpt lat="45.90208" lon="3.05833">
        <ele>452</ele>
        <time>2021-07-27T08:29:17Z</time>
      </trkpt>
      <trkpt lat="45.9021" lon="3.05833">
        <ele>452</ele>
        <time>2021-07-27T08:29:18Z</time>
      </trkpt>
      <trkpt lat="45.90212" lon="3.05832">
        <ele>452</ele>
        <time>2021-07-27T08:29:19Z</time>
      </trkpt>
      <trkpt lat="45.90213" lon="3.05832">
        <ele>452</ele>
        <time>2021-07-27T08:29:20Z</time>
      </trkpt>
      <trkpt lat="45.90215" lon="3.05832">
        <ele>452</ele>
        <time>2021-07-27T08:29:21Z</time>
      </trkpt>
      <trkpt lat="45.90217" lon="3.05832">
        <ele>452</ele>
        <time>2021-07-27T08:29:22Z</time>
      </trkpt>
      <trkpt lat="45.90218" lon="3.05832">
        <ele>452</ele>
        <time>2021-07-27T08:29:23Z</time>
      </trkpt>
      <trkpt lat="45.90219" lon="3.05832">
        <ele>452</ele>
        <time>2021-07-27T08:29:24Z</time>
      </trkpt>
      <trkpt lat="45.9022" lon="3.05831">
        <ele>452</ele>
        <time>2021-07-27T08:29:25Z</time>
      </trkpt>
      <trkpt lat="45.90222" lon="3.05831">
        <ele>452</ele>
        <time>2021-07-27T08:29:26Z</time>
      </trkpt>
      <trkpt lat="45.90223" lon="3.0583">
        <ele>452</ele>
        <time>2021-07-27T08:29:27Z</time>
      </trkpt>
      <trkpt lat="45.90225" lon="3.0583">
        <ele>452</ele>
        <time>2021-07-27T08:29:28Z</time>
      </trkpt>
      <trkpt lat="45.90225" lon="3.05829">
        <ele>452</ele>
        <time>2021-07-27T08:29:29Z</time>
      </trkpt>
      <trkpt lat="45.90227" lon="3.05829">
        <ele>452</ele>
        <time>2021-07-27T08:29:30Z</time>
      </trkpt>
      <trkpt lat="45.90228" lon="3.05828">
        <ele>452</ele>
        <time>2021-07-27T08:29:31Z</time>
      </trkpt>
      <trkpt lat="45.90229" lon="3.05828">
        <ele>452</ele>
        <time>2021-07-27T08:29:32Z</time>
      </trkpt>
      <trkpt lat="45.90231" lon="3.05828">
        <ele>452</ele>
        <time>2021-07-27T08:29:33Z</time>
      </trkpt>
      <trkpt lat="45.90232" lon="3.05827">
        <ele>452</ele>
        <time>2021-07-27T08:29:34Z</time>
      </trkpt>
      <trkpt lat="45.90234" lon="3.05827">
        <ele>452</ele>
        <time>2021-07-27T08:29:35Z</time>
      </trkpt>
      <trkpt lat="45.90235" lon="3.05826">
        <ele>452</ele>
        <time>2021-07-27T08:29:36Z</time>
      </trkpt>
      <trkpt lat="45.90237" lon="3.05826">
        <ele>452</ele>
        <time>2021-07-27T08:29:37Z</time>
      </trkpt>
      <trkpt lat="45.90238" lon="3.05825">
        <ele>452</ele>
        <time>2021-07-27T08:29:38Z</time>
      </trkpt>
      <trkpt lat="45.90239" lon="3.05825">
        <ele>452</ele>
        <time>2021-07-27T08:29:39Z</time>
      </trkpt>
      <trkpt lat="45.90241" lon="3.05824">
        <ele>452</ele>
        <time>2021-07-27T08:29:40Z</time>
      </trkpt>
      <trkpt lat="45.90242" lon="3.05823">
        <ele>452</ele>
        <time>2021-07-27T08:29:41Z</time>
      </trkpt>
      <trkpt lat="45.90243" lon="3.05823">
        <ele>452</ele>
        <time>2021-07-27T08:29:42Z</time>
      </trkpt>
      <trkpt lat="45.90244" lon="3.05822">
        <ele>452</ele>
        <time>2021-07-27T08:29:43Z</time>
      </trkpt>
      <trkpt lat="45.90246" lon="3.05822">
        <ele>452</ele>
        <time>2021-07-27T08:29:44Z</time>
      </trkpt>
      <trkpt lat="45.90247" lon="3.05822">
        <ele>452</ele>
        <time>2021-07-27T08:29:45Z</time>
      </trkpt>
      <trkpt lat="45.90249" lon="3.05822">
        <ele>452</ele>
        <time>2021-07-27T08:29:46Z</time>
      </trkpt>
      <trkpt lat="45.9025" lon="3.05821">
        <ele>452</ele>
        <time>2021-07-27T08:29:47Z</time>
      </trkpt>
      <trkpt lat="45.90252" lon="3.05821">
        <ele>452</ele>
        <time>2021-07-27T08:29:48Z</time>
      </trkpt>
      <trkpt lat="45.90253" lon="3.05821">
        <ele>452</ele>
        <time>2021-07-27T08:29:49Z</time>
      </trkpt>
      <trkpt lat="45.90254" lon="3.0582">
        <ele>452</ele>
        <time>2021-07-27T08:29:50Z</time>
      </trkpt>
      <trkpt lat="45.90256" lon="3.0582">
        <ele>452</ele>
        <time>2021-07-27T08:29:51Z</time>
      </trkpt>
      <trkpt lat="45.90257" lon="3.05819">
        <ele>452</ele>
        <time>2021-07-27T08:29:52Z</time>
      </trkpt>
      <trkpt lat="45.90259" lon="3.05819">
        <ele>452</ele>
        <time>2021-07-27T08:29:53Z</time>
      </trkpt>
      <trkpt lat="45.9026" lon="3.05818">
        <ele>452</ele>
        <time>2021-07-27T08:29:54Z</time>
      </trkpt>
      <trkpt lat="45.90261" lon="3.05818">
        <ele>452</ele>
        <time>2021-07-27T08:29:55Z</time>
      </trkpt>
      <trkpt lat="45.90263" lon="3.05817">
        <ele>452</ele>
        <time>2021-07-27T08:29:56Z</time>
      </trkpt>
      <trkpt lat="45.90265" lon="3.05817">
        <ele>452</ele>
        <time>2021-07-27T08:29:57Z</time>
      </trkpt>
      <trkpt lat="45.90266" lon="3.05816">
        <ele>452</ele>
        <time>2021-07-27T08:29:58Z</time>
      </trkpt>
      <trkpt lat="45.90268" lon="3.05816">
        <ele>452</ele>
        <time>2021-07-27T08:29:59Z</time>
      </trkpt>
      <trkpt lat="45.9027" lon="3.05815">
        <ele>452</ele>
        <time>2021-07-27T08:30:00Z</time>
      </trkpt>
      <trkpt lat="45.90271" lon="3.05815">
        <ele>452</ele>
        <time>2021-07-27T08:30:01Z</time>
      </trkpt>
      <trkpt lat="45.90273" lon="3.05815">
        <ele>452</ele>
        <time>2021-07-27T08:30:02Z</time>
      </trkpt>
      <trkpt lat="45.90274" lon="3.05814">
        <ele>452</ele>
        <time>2021-07-27T08:30:03Z</time>
      </trkpt>
      <trkpt lat="45.90277" lon="3.05814">
        <ele>452</ele>
        <time>2021-07-27T08:30:04Z</time>
      </trkpt>
      <trkpt lat="45.90278" lon="3.05814">
        <ele>452</ele>
        <time>2021-07-27T08:30:05Z</time>
      </trkpt>
      <trkpt lat="45.90279" lon="3.05814">
        <ele>452</ele>
        <time>2021-07-27T08:30:06Z</time>
      </trkpt>
      <trkpt lat="45.90281" lon="3.05813">
        <ele>452</ele>
        <time>2021-07-27T08:30:07Z</time>
      </trkpt>
      <trkpt lat="45.90282" lon="3.05813">
        <ele>452</ele>
        <time>2021-07-27T08:30:08Z</time>
      </trkpt>
      <trkpt lat="45.90283" lon="3.05813">
        <ele>452</ele>
        <time>2021-07-27T08:30:09Z</time>
      </trkpt>
      <trkpt lat="45.90284" lon="3.05813">
        <ele>452</ele>
        <time>2021-07-27T08:30:10Z</time>
      </trkpt>
      <trkpt lat="45.90286" lon="3.05813">
        <ele>452</ele>
        <time>2021-07-27T08:30:11Z</time>
      </trkpt>
      <trkpt lat="45.90287" lon="3.05812">
        <ele>452</ele>
        <time>2021-07-27T08:30:12Z</time>
      </trkpt>
      <trkpt lat="45.90289" lon="3.05812">
        <ele>452</ele>
        <time>2021-07-27T08:30:13Z</time>
      </trkpt>
      <trkpt lat="45.9029" lon="3.05812">
        <ele>452</ele>
        <time>2021-07-27T08:30:14Z</time>
      </trkpt>
      <trkpt lat="45.90292" lon="3.05812">
        <ele>452</ele>
        <time>2021-07-27T08:30:15Z</time>
      </trkpt>
      <trkpt lat="45.90293" lon="3.05811">
        <ele>452</ele>
        <time>2021-07-27T08:30:16Z</time>
      </trkpt>
      <trkpt lat="45.90295" lon="3.05811">
        <ele>452</ele>
        <time>2021-07-27T08:30:17Z</time>
      </trkpt>
      <trkpt lat="45.90297" lon="3.05811">
        <ele>452</ele>
        <time>2021-07-27T08:30:18Z</time>
      </trkpt>
      <trkpt lat="45.90299" lon="3.05811">
        <ele>452</ele>
        <time>2021-07-27T08:30:19Z</time>
      </trkpt>
      <trkpt lat="45.903" lon="3.05811">
        <ele>452</ele>
        <time>2021-07-27T08:30:20Z</time>
      </trkpt>
      <trkpt lat="45.90302" lon="3.0581">
        <ele>452</ele>
        <time>2021-07-27T08:30:21Z</time>
      </trkpt>
      <trkpt lat="45.90303" lon="3.0581">
        <ele>452</ele>
        <time>2021-07-27T08:30:22Z</time>
      </trkpt>
      <trkpt lat="45.90305" lon="3.0581">
        <ele>452</ele>
        <time>2021-07-27T08:30:23Z</time>
      </trkpt>
      <trkpt lat="45.90307" lon="3.0581">
        <ele>452</ele>
        <time>2021-07-27T08:30:24Z</time>
      </trkpt>
      <trkpt lat="45.90308" lon="3.05809">
        <ele>452</ele>
        <time>2021-07-27T08:30:25Z</time>
      </trkpt>
      <trkpt lat="45.9031" lon="3.05809">
        <ele>452</ele>
        <time>2021-07-27T08:30:27Z</time>
      </trkpt>
      <trkpt lat="45.90316" lon="3.05808">
        <ele>452</ele>
        <time>2021-07-27T08:30:28Z</time>
      </trkpt>
      <trkpt lat="45.90316" lon="3.05808">
        <ele>452</ele>
        <time>2021-07-27T08:30:29Z</time>
      </trkpt>
      <trkpt lat="45.90317" lon="3.05808">
        <ele>452</ele>
        <time>2021-07-27T08:30:30Z</time>
      </trkpt>
      <trkpt lat="45.90318" lon="3.05808">
        <ele>452</ele>
        <time>2021-07-27T08:30:31Z</time>
      </trkpt>
      <trkpt lat="45.90319" lon="3.05808">
        <ele>452</ele>
        <time>2021-07-27T08:30:32Z</time>
      </trkpt>
      <trkpt lat="45.90321" lon="3.05808">
        <ele>452</ele>
        <time>2021-07-27T08:30:33Z</time>
      </trkpt>
      <trkpt lat="45.90322" lon="3.05808">
        <ele>452</ele>
        <time>2021-07-27T08:30:34Z</time>
      </trkpt>
      <trkpt lat="45.90323" lon="3.05808">
        <ele>452</ele>
        <time>2021-07-27T08:30:35Z</time>
      </trkpt>
      <trkpt lat="45.90325" lon="3.05807">
        <ele>452</ele>
        <time>2021-07-27T08:30:36Z</time>
      </trkpt>
      <trkpt lat="45.90326" lon="3.05807">
        <ele>452</ele>
        <time>2021-07-27T08:30:37Z</time>
      </trkpt>
      <trkpt lat="45.90328" lon="3.05807">
        <ele>452</ele>
        <time>2021-07-27T08:30:38Z</time>
      </trkpt>
      <trkpt lat="45.90329" lon="3.05807">
        <ele>452</ele>
        <time>2021-07-27T08:30:39Z</time>
      </trkpt>
      <trkpt lat="45.90331" lon="3.05807">
        <ele>452</ele>
        <time>2021-07-27T08:30:40Z</time>
      </trkpt>
      <trkpt lat="45.90332" lon="3.05806">
        <ele>452</ele>
        <time>2021-07-27T08:30:41Z</time>
      </trkpt>
      <trkpt lat="45.90334" lon="3.05806">
        <ele>452</ele>
        <time>2021-07-27T08:30:42Z</time>
      </trkpt>
      <trkpt lat="45.90336" lon="3.05805">
        <ele>452</ele>
        <time>2021-07-27T08:30:43Z</time>
      </trkpt>
      <trkpt lat="45.90337" lon="3.05805">
        <ele>452</ele>
        <time>2021-07-27T08:30:44Z</time>
      </trkpt>
      <trkpt lat="45.90339" lon="3.05805">
        <ele>452</ele>
        <time>2021-07-27T08:30:45Z</time>
      </trkpt>
      <trkpt lat="45.9034" lon="3.05805">
        <ele>452</ele>
        <time>2021-07-27T08:30:46Z</time>
      </trkpt>
      <trkpt lat="45.90342" lon="3.05805">
        <ele>452</ele>
        <time>2021-07-27T08:30:47Z</time>
      </trkpt>
      <trkpt lat="45.90344" lon="3.05806">
        <ele>452</ele>
        <time>2021-07-27T08:30:48Z</time>
      </trkpt>
      <trkpt lat="45.90345" lon="3.05806">
        <ele>452</ele>
        <time>2021-07-27T08:30:49Z</time>
      </trkpt>
      <trkpt lat="45.90346" lon="3.05806">
        <ele>452</ele>
        <time>2021-07-27T08:30:50Z</time>
      </trkpt>
      <trkpt lat="45.90348" lon="3.05806">
        <ele>452</ele>
        <time>2021-07-27T08:30:51Z</time>
      </trkpt>
      <trkpt lat="45.90349" lon="3.05807">
        <ele>452</ele>
        <time>2021-07-27T08:30:52Z</time>
      </trkpt>
      <trkpt lat="45.9035" lon="3.05807">
        <ele>452</ele>
        <time>2021-07-27T08:30:53Z</time>
      </trkpt>
      <trkpt lat="45.90352" lon="3.05808">
        <ele>452</ele>
        <time>2021-07-27T08:30:54Z</time>
      </trkpt>
      <trkpt lat="45.90353" lon="3.05809">
        <ele>452</ele>
        <time>2021-07-27T08:30:55Z</time>
      </trkpt>
      <trkpt lat="45.90355" lon="3.05809">
        <ele>452</ele>
        <time>2021-07-27T08:30:56Z</time>
      </trkpt>
      <trkpt lat="45.90356" lon="3.0581">
        <ele>452</ele>
        <time>2021-07-27T08:30:57Z</time>
      </trkpt>
      <trkpt lat="45.90357" lon="3.05811">
        <ele>452</ele>
        <time>2021-07-27T08:30:58Z</time>
      </trkpt>
      <trkpt lat="45.90358" lon="3.05811">
        <ele>452</ele>
        <time>2021-07-27T08:30:59Z</time>
      </trkpt>
      <trkpt lat="45.90359" lon="3.05812">
        <ele>452</ele>
        <time>2021-07-27T08:31:00Z</time>
      </trkpt>
      <trkpt lat="45.9036" lon="3.05812">
        <ele>452</ele>
        <time>2021-07-27T08:31:01Z</time>
      </trkpt>
      <trkpt lat="45.90362" lon="3.05812">
        <ele>452</ele>
        <time>2021-07-27T08:31:02Z</time>
      </trkpt>
      <trkpt lat="45.90363" lon="3.05812">
        <ele>452</ele>
        <time>2021-07-27T08:31:03Z</time>
      </trkpt>
      <trkpt lat="45.90364" lon="3.05812">
        <ele>452</ele>
        <time>2021-07-27T08:31:04Z</time>
      </trkpt>
      <trkpt lat="45.90365" lon="3.05813">
        <ele>452</ele>
        <time>2021-07-27T08:31:05Z</time>
      </trkpt>
      <trkpt lat="45.90367" lon="3.05813">
        <ele>452</ele>
        <time>2021-07-27T08:31:06Z</time>
      </trkpt>
      <trkpt lat="45.90368" lon="3.05814">
        <ele>452</ele>
        <time>2021-07-27T08:31:07Z</time>
      </trkpt>
      <trkpt lat="45.9037" lon="3.05814">
        <ele>452</ele>
        <time>2021-07-27T08:31:08Z</time>
      </trkpt>
      <trkpt lat="45.90372" lon="3.05815">
        <ele>452</ele>
        <time>2021-07-27T08:31:09Z</time>
      </trkpt>
      <trkpt lat="45.90373" lon="3.05815">
        <ele>452</ele>
        <time>2021-07-27T08:31:10Z</time>
      </trkpt>
      <trkpt lat="45.90374" lon="3.05816">
        <ele>452</ele>
        <time>2021-07-27T08:31:11Z</time>
      </trkpt>
      <trkpt lat="45.90376" lon="3.05816">
        <ele>452</ele>
        <time>2021-07-27T08:31:12Z</time>
      </trkpt>
      <trkpt lat="45.90377" lon="3.05816">
        <ele>452</ele>
        <time>2021-07-27T08:31:13Z</time>
      </trkpt>
      <trkpt lat="45.90379" lon="3.05816">
        <ele>452</ele>
        <time>2021-07-27T08:31:14Z</time>
      </trkpt>
      <trkpt lat="45.90381" lon="3.05815">
        <ele>452</ele>
        <time>2021-07-27T08:31:15Z</time>
      </trkpt>
      <trkpt lat="45.90382" lon="3.05815">
        <ele>452</ele>
        <time>2021-07-27T08:31:16Z</time>
      </trkpt>
      <trkpt lat="45.90384" lon="3.05814">
        <ele>452</ele>
        <time>2021-07-27T08:31:17Z</time>
      </trkpt>
      <trkpt lat="45.90385" lon="3.05814">
        <ele>452</ele>
        <time>2021-07-27T08:31:18Z</time>
      </trkpt>
      <trkpt lat="45.90387" lon="3.05813">
        <ele>452</ele>
        <time>2021-07-27T08:31:19Z</time>
      </trkpt>
      <trkpt lat="45.90388" lon="3.05813">
        <ele>452</ele>
        <time>2021-07-27T08:31:20Z</time>
      </trkpt>
      <trkpt lat="45.9039" lon="3.05813">
        <ele>452</ele>
        <time>2021-07-27T08:31:21Z</time>
      </trkpt>
      <trkpt lat="45.90391" lon="3.05813">
        <ele>452</ele>
        <time>2021-07-27T08:31:22Z</time>
      </trkpt>
      <trkpt lat="45.90392" lon="3.05813">
        <ele>452</ele>
        <time>2021-07-27T08:31:23Z</time>
      </trkpt>
      <trkpt lat="45.90394" lon="3.05814">
        <ele>452</ele>
        <time>2021-07-27T08:31:24Z</time>
      </trkpt>
      <trkpt lat="45.90395" lon="3.05813">
        <ele>452</ele>
        <time>2021-07-27T08:31:26Z</time>
      </trkpt>
      <trkpt lat="45.904" lon="3.05813">
        <ele>452</ele>
        <time>2021-07-27T08:31:27Z</time>
      </trkpt>
      <trkpt lat="45.904" lon="3.05813">
        <ele>452</ele>
        <time>2021-07-27T08:31:28Z</time>
      </trkpt>
      <trkpt lat="45.90401" lon="3.05813">
        <ele>452</ele>
        <time>2021-07-27T08:31:29Z</time>
      </trkpt>
      <trkpt lat="45.90402" lon="3.05814">
        <ele>452</ele>
        <time>2021-07-27T08:31:30Z</time>
      </trkpt>
      <trkpt lat="45.90402" lon="3.05814">
        <ele>452</ele>
        <time>2021-07-27T08:31:31Z</time>
      </trkpt>
      <trkpt lat="45.90403" lon="3.05814">
        <ele>452</ele>
        <time>2021-07-27T08:31:32Z</time>
      </trkpt>
      <trkpt lat="45.90405" lon="3.05815">
        <ele>452</ele>
        <time>2021-07-27T08:31:33Z</time>
      </trkpt>
      <trkpt lat="45.90406" lon="3.05816">
        <ele>452</ele>
        <time>2021-07-27T08:31:34Z</time>
      </trkpt>
      <trkpt lat="45.90408" lon="3.05817">
        <ele>452</ele>
        <time>2021-07-27T08:31:35Z</time>
      </trkpt>
      <trkpt lat="45.9041" lon="3.05818">
        <ele>452</ele>
        <time>2021-07-27T08:31:36Z</time>
      </trkpt>
      <trkpt lat="45.90411" lon="3.05819">
        <ele>452</ele>
        <time>2021-07-27T08:31:37Z</time>
      </trkpt>
      <trkpt lat="45.90413" lon="3.05819">
        <ele>452</ele>
        <time>2021-07-27T08:31:38Z</time>
      </trkpt>
      <trkpt lat="45.90415" lon="3.0582">
        <ele>452</ele>
        <time>2021-07-27T08:31:39Z</time>
      </trkpt>
      <trkpt lat="45.90416" lon="3.0582">
        <ele>452</ele>
        <time>2021-07-27T08:31:40Z</time>
      </trkpt>
      <trkpt lat="45.90418" lon="3.05821">
        <ele>452</ele>
        <time>2021-07-27T08:31:41Z</time>
      </trkpt>
      <trkpt lat="45.9042" lon="3.05822">
        <ele>452</ele>
        <time>2021-07-27T08:31:42Z</time>
      </trkpt>
      <trkpt lat="45.90422" lon="3.05823">
        <ele>452</ele>
        <time>2021-07-27T08:31:43Z</time>
      </trkpt>
      <trkpt lat="45.90423" lon="3.05823">
        <ele>452</ele>
        <time>2021-07-27T08:31:44Z</time>
      </trkpt>
      <trkpt lat="45.90425" lon="3.05824">
        <ele>452</ele>
        <time>2021-07-27T08:31:45Z</time>
      </trkpt>
      <trkpt lat="45.90426" lon="3.05825">
        <ele>452</ele>
        <time>2021-07-27T08:31:46Z</time>
      </trkpt>
      <trkpt lat="45.90427" lon="3.05825">
        <ele>452</ele>
        <time>2021-07-27T08:31:47Z</time>
      </trkpt>
      <trkpt lat="45.90428" lon="3.05826">
        <ele>452</ele>
        <time>2021-07-27T08:31:47Z</time>
      </trkpt>
      <trkpt lat="45.9043" lon="3.05827">
        <ele>452</ele>
        <time>2021-07-27T08:31:48Z</time>
      </trkpt>
      <trkpt lat="45.90431" lon="3.05827">
        <ele>452</ele>
        <time>2021-07-27T08:31:49Z</time>
      </trkpt>
      <trkpt lat="45.90432" lon="3.05828">
        <ele>452</ele>
        <time>2021-07-27T08:31:50Z</time>
      </trkpt>
      <trkpt lat="45.90433" lon="3.05828">
        <ele>452</ele>
        <time>2021-07-27T08:31:51Z</time>
      </trkpt>
      <trkpt lat="45.90434" lon="3.05828">
        <ele>452</ele>
        <time>2021-07-27T08:31:52Z</time>
      </trkpt>
      <trkpt lat="45.90435" lon="3.05828">
        <ele>452</ele>
        <time>2021-07-27T08:31:53Z</time>
      </trkpt>
      <trkpt lat="45.90436" lon="3.05829">
        <ele>452</ele>
        <time>2021-07-27T08:31:54Z</time>
      </trkpt>
      <trkpt lat="45.90438" lon="3.05829">
        <ele>452</ele>
        <time>2021-07-27T08:31:55Z</time>
      </trkpt>
      <trkpt lat="45.90439" lon="3.05829">
        <ele>452</ele>
        <time>2021-07-27T08:31:56Z</time>
      </trkpt>
      <trkpt lat="45.9044" lon="3.0583">
        <ele>452</ele>
        <time>2021-07-27T08:31:57Z</time>
      </trkpt>
      <trkpt lat="45.90441" lon="3.0583">
        <ele>452</ele>
        <time>2021-07-27T08:31:58Z</time>
      </trkpt>
      <trkpt lat="45.90442" lon="3.05831">
        <ele>452</ele>
        <time>2021-07-27T08:31:59Z</time>
      </trkpt>
      <trkpt lat="45.90443" lon="3.05831">
        <ele>452</ele>
        <time>2021-07-27T08:32:00Z</time>
      </trkpt>
      <trkpt lat="45.90444" lon="3.05832">
        <ele>452</ele>
        <time>2021-07-27T08:32:01Z</time>
      </trkpt>
      <trkpt lat="45.90446" lon="3.05832">
        <ele>452</ele>
        <time>2021-07-27T08:32:02Z</time>
      </trkpt>
      <trkpt lat="45.90447" lon="3.05833">
        <ele>452</ele>
        <time>2021-07-27T08:32:03Z</time>
      </trkpt>
      <trkpt lat="45.90448" lon="3.05833">
        <ele>452</ele>
        <time>2021-07-27T08:32:04Z</time>
      </trkpt>
      <trkpt lat="45.90449" lon="3.05834">
        <ele>452</ele>
        <time>2021-07-27T08:32:05Z</time>
      </trkpt>
      <trkpt lat="45.90451" lon="3.05834">
        <ele>452</ele>
        <time>2021-07-27T08:32:06Z</time>
      </trkpt>
      <trkpt lat="45.90452" lon="3.05835">
        <ele>452</ele>
        <time>2021-07-27T08:32:07Z</time>
      </trkpt>
      <trkpt lat="45.90453" lon="3.05835">
        <ele>452</ele>
        <time>2021-07-27T08:32:08Z</time>
      </trkpt>
      <trkpt lat="45.90455" lon="3.05836">
        <ele>452</ele>
        <time>2021-07-27T08:32:09Z</time>
      </trkpt>
      <trkpt lat="45.90456" lon="3.05836">
        <ele>452</ele>
        <time>2021-07-27T08:32:10Z</time>
      </trkpt>
      <trkpt lat="45.90458" lon="3.05837">
        <ele>452</ele>
        <time>2021-07-27T08:32:11Z</time>
      </trkpt>
      <trkpt lat="45.9046" lon="3.05838">
        <ele>452</ele>
        <time>2021-07-27T08:32:12Z</time>
      </trkpt>
      <trkpt lat="45.90461" lon="3.05839">
        <ele>452</ele>
        <time>2021-07-27T08:32:13Z</time>
      </trkpt>
      <trkpt lat="45.90463" lon="3.0584">
        <ele>452</ele>
        <time>2021-07-27T08:32:14Z</time>
      </trkpt>
      <trkpt lat="45.90464" lon="3.05841">
        <ele>452</ele>
        <time>2021-07-27T08:32:15Z</time>
      </trkpt>
      <trkpt lat="45.90465" lon="3.05842">
        <ele>452</ele>
        <time>2021-07-27T08:32:16Z</time>
      </trkpt>
      <trkpt lat="45.90466" lon="3.05843">
        <ele>452</ele>
        <time>2021-07-27T08:32:17Z</time>
      </trkpt>
      <trkpt lat="45.90468" lon="3.05844">
        <ele>452</ele>
        <time>2021-07-27T08:32:18Z</time>
      </trkpt>
      <trkpt lat="45.90468" lon="3.05845">
        <ele>452</ele>
        <time>2021-07-27T08:32:19Z</time>
      </trkpt>
      <trkpt lat="45.90469" lon="3.05847">
        <ele>452</ele>
        <time>2021-07-27T08:32:20Z</time>
      </trkpt>
      <trkpt lat="45.9047" lon="3.05848">
        <ele>452</ele>
        <time>2021-07-27T08:32:21Z</time>
      </trkpt>
      <trkpt lat="45.90471" lon="3.05849">
        <ele>452</ele>
        <time>2021-07-27T08:32:22Z</time>
      </trkpt>
      <trkpt lat="45.90472" lon="3.0585">
        <ele>452</ele>
        <time>2021-07-27T08:32:23Z</time>
      </trkpt>
      <trkpt lat="45.90473" lon="3.05851">
        <ele>452</ele>
        <time>2021-07-27T08:32:24Z</time>
      </trkpt>
      <trkpt lat="45.90474" lon="3.05852">
        <ele>452</ele>
        <time>2021-07-27T08:32:25Z</time>
      </trkpt>
      <trkpt lat="45.90475" lon="3.05853">
        <ele>452</ele>
        <time>2021-07-27T08:32:26Z</time>
      </trkpt>
      <trkpt lat="45.90476" lon="3.05854">
        <ele>452</ele>
        <time>2021-07-27T08:32:27Z</time>
      </trkpt>
      <trkpt lat="45.90476" lon="3.05855">
        <ele>452</ele>
        <time>2021-07-27T08:32:28Z</time>
      </trkpt>
      <trkpt lat="45.90477" lon="3.05856">
        <ele>452</ele>
        <time>2021-07-27T08:32:29Z</time>
      </trkpt>
      <trkpt lat="45.90477" lon="3.05857">
        <ele>452</ele>
        <time>2021-07-27T08:32:30Z</time>
      </trkpt>
      <trkpt lat="45.90479" lon="3.05858">
        <ele>452</ele>
        <time>2021-07-27T08:32:31Z</time>
      </trkpt>
      <trkpt lat="45.90479" lon="3.05859">
        <ele>452</ele>
        <time>2021-07-27T08:32:32Z</time>
      </trkpt>
      <trkpt lat="45.9048" lon="3.0586">
        <ele>452</ele>
        <time>2021-07-27T08:32:33Z</time>
      </trkpt>
      <trkpt lat="45.90482" lon="3.0586">
        <ele>452</ele>
        <time>2021-07-27T08:32:34Z</time>
      </trkpt>
      <trkpt lat="45.90483" lon="3.05861">
        <ele>452</ele>
        <time>2021-07-27T08:32:35Z</time>
      </trkpt>
      <trkpt lat="45.90484" lon="3.05862">
        <ele>452</ele>
        <time>2021-07-27T08:32:36Z</time>
      </trkpt>
      <trkpt lat="45.90485" lon="3.05863">
        <ele>452</ele>
        <time>2021-07-27T08:32:37Z</time>
      </trkpt>
      <trkpt lat="45.90487" lon="3.05864">
        <ele>452</ele>
        <time>2021-07-27T08:32:38Z</time>
      </trkpt>
      <trkpt lat="45.90488" lon="3.05864">
        <ele>452</ele>
        <time>2021-07-27T08:32:39Z</time>
      </trkpt>
      <trkpt lat="45.9049" lon="3.05865">
        <ele>452</ele>
        <time>2021-07-27T08:32:40Z</time>
      </trkpt>
      <trkpt lat="45.90492" lon="3.05866">
        <ele>452</ele>
        <time>2021-07-27T08:32:41Z</time>
      </trkpt>
      <trkpt lat="45.90493" lon="3.05867">
        <ele>452</ele>
        <time>2021-07-27T08:32:42Z</time>
      </trkpt>
      <trkpt lat="45.90495" lon="3.05868">
        <ele>452</ele>
        <time>2021-07-27T08:32:43Z</time>
      </trkpt>
      <trkpt lat="45.90496" lon="3.05869">
        <ele>452</ele>
        <time>2021-07-27T08:32:44Z</time>
      </trkpt>
      <trkpt lat="45.90497" lon="3.0587">
        <ele>452</ele>
        <time>2021-07-27T08:32:45Z</time>
      </trkpt>
      <trkpt lat="45.90499" lon="3.05871">
        <ele>452</ele>
        <time>2021-07-27T08:32:46Z</time>
      </trkpt>
      <trkpt lat="45.905" lon="3.05872">
        <ele>452</ele>
        <time>2021-07-27T08:32:47Z</time>
      </trkpt>
      <trkpt lat="45.90503" lon="3.05872">
        <ele>452</ele>
        <time>2021-07-27T08:32:48Z</time>
      </trkpt>
      <trkpt lat="45.90504" lon="3.05873">
        <ele>452</ele>
        <time>2021-07-27T08:32:49Z</time>
      </trkpt>
      <trkpt lat="45.90506" lon="3.05874">
        <ele>452</ele>
        <time>2021-07-27T08:32:50Z</time>
      </trkpt>
      <trkpt lat="45.90507" lon="3.05875">
        <ele>452</ele>
        <time>2021-07-27T08:32:51Z</time>
      </trkpt>
      <trkpt lat="45.90508" lon="3.05876">
        <ele>452</ele>
        <time>2021-07-27T08:32:52Z</time>
      </trkpt>
      <trkpt lat="45.90508" lon="3.05877">
        <ele>452</ele>
        <time>2021-07-27T08:32:53Z</time>
      </trkpt>
      <trkpt lat="45.90508" lon="3.05877">
        <ele>452</ele>
        <time>2021-07-27T08:32:54Z</time>
      </trkpt>
      <trkpt lat="45.90508" lon="3.05877">
        <ele>452</ele>
        <time>2021-07-27T08:32:55Z</time>
      </trkpt>
      <trkpt lat="45.90508" lon="3.05877">
        <ele>452</ele>
        <time>2021-07-27T08:32:56Z</time>
      </trkpt>
      <trkpt lat="45.90508" lon="3.05877">
        <ele>452</ele>
        <time>2021-07-27T08:32:57Z</time>
      </trkpt>
      <trkpt lat="45.90509" lon="3.05879">
        <ele>452</ele>
        <time>2021-07-27T08:32:59Z</time>
      </trkpt>
      <trkpt lat="45.90509" lon="3.05879">
        <ele>452</ele>
        <time>2021-07-27T08:33:00Z</time>
      </trkpt>
      <trkpt lat="45.90509" lon="3.05879">
        <ele>452</ele>
        <time>2021-07-27T08:33:01Z</time>
      </trkpt>
      <trkpt lat="45.90509" lon="3.05879">
        <ele>452</ele>
        <time>2021-07-27T08:33:02Z</time>
      </trkpt>
      <trkpt lat="45.9051" lon="3.05879">
        <ele>452</ele>
        <time>2021-07-27T08:33:03Z</time>
      </trkpt>
      <trkpt lat="45.90511" lon="3.0588">
        <ele>452</ele>
        <time>2021-07-27T08:33:04Z</time>
      </trkpt>
      <trkpt lat="45.90512" lon="3.0588">
        <ele>452</ele>
        <time>2021-07-27T08:33:05Z</time>
      </trkpt>
      <trkpt lat="45.90513" lon="3.0588">
        <ele>452</ele>
        <time>2021-07-27T08:33:06Z</time>
      </trkpt>
      <trkpt lat="45.90514" lon="3.05881">
        <ele>452</ele>
        <time>2021-07-27T08:33:07Z</time>
      </trkpt>
      <trkpt lat="45.90515" lon="3.05882">
        <ele>452</ele>
        <time>2021-07-27T08:33:08Z</time>
      </trkpt>
      <trkpt lat="45.90516" lon="3.05883">
        <ele>452</ele>
        <time>2021-07-27T08:33:09Z</time>
      </trkpt>
      <trkpt lat="45.90517" lon="3.05883">
        <ele>452</ele>
        <time>2021-07-27T08:33:10Z</time>
      </trkpt>
      <trkpt lat="45.90519" lon="3.05884">
        <ele>452</ele>
        <time>2021-07-27T08:33:11Z</time>
      </trkpt>
      <trkpt lat="45.9052" lon="3.05885">
        <ele>452</ele>
        <time>2021-07-27T08:33:12Z</time>
      </trkpt>
      <trkpt lat="45.90521" lon="3.05886">
        <ele>452</ele>
        <time>2021-07-27T08:33:13Z</time>
      </trkpt>
      <trkpt lat="45.90522" lon="3.05887">
        <ele>452</ele>
        <time>2021-07-27T08:33:14Z</time>
      </trkpt>
      <trkpt lat="45.90524" lon="3.05887">
        <ele>452</ele>
        <time>2021-07-27T08:33:15Z</time>
      </trkpt>
      <trkpt lat="45.90525" lon="3.05888">
        <ele>452</ele>
        <time>2021-07-27T08:33:16Z</time>
      </trkpt>
      <trkpt lat="45.90527" lon="3.05889">
        <ele>452</ele>
        <time>2021-07-27T08:33:17Z</time>
      </trkpt>
      <trkpt lat="45.90529" lon="3.05889">
        <ele>452</ele>
        <time>2021-07-27T08:33:18Z</time>
      </trkpt>
      <trkpt lat="45.9053" lon="3.0589">
        <ele>452</ele>
        <time>2021-07-27T08:33:19Z</time>
      </trkpt>
      <trkpt lat="45.90532" lon="3.0589">
        <ele>452</ele>
        <time>2021-07-27T08:33:20Z</time>
      </trkpt>
      <trkpt lat="45.90533" lon="3.0589">
        <ele>452</ele>
        <time>2021-07-27T08:33:21Z</time>
      </trkpt>
      <trkpt lat="45.90535" lon="3.05891">
        <ele>452</ele>
        <time>2021-07-27T08:33:22Z</time>
      </trkpt>
      <trkpt lat="45.90537" lon="3.05892">
        <ele>452</ele>
        <time>2021-07-27T08:33:23Z</time>
      </trkpt>
      <trkpt lat="45.90538" lon="3.05892">
        <ele>452</ele>
        <time>2021-07-27T08:33:26Z</time>
      </trkpt>
      <trkpt lat="45.90545" lon="3.05894">
        <ele>452</ele>
        <time>2021-07-27T08:33:27Z</time>
      </trkpt>
      <trkpt lat="45.90545" lon="3.05894">
        <ele>452</ele>
        <time>2021-07-27T08:33:28Z</time>
      </trkpt>
      <trkpt lat="45.90545" lon="3.05894">
        <ele>452</ele>
        <time>2021-07-27T08:33:29Z</time>
      </trkpt>
      <trkpt lat="45.90546" lon="3.05894">
        <ele>452</ele>
        <time>2021-07-27T08:33:30Z</time>
      </trkpt>
      <trkpt lat="45.90546" lon="3.05894">
        <ele>452</ele>
        <time>2021-07-27T08:33:31Z</time>
      </trkpt>
      <trkpt lat="45.90547" lon="3.05895">
        <ele>452</ele>
        <time>2021-07-27T08:33:32Z</time>
      </trkpt>
      <trkpt lat="45.90548" lon="3.05895">
        <ele>452</ele>
        <time>2021-07-27T08:33:33Z</time>
      </trkpt>
      <trkpt lat="45.90548" lon="3.05896">
        <ele>452</ele>
        <time>2021-07-27T08:33:34Z</time>
      </trkpt>
      <trkpt lat="45.9055" lon="3.05897">
        <ele>452</ele>
        <time>2021-07-27T08:33:35Z</time>
      </trkpt>
      <trkpt lat="45.90551" lon="3.05897">
        <ele>452</ele>
        <time>2021-07-27T08:33:36Z</time>
      </trkpt>
      <trkpt lat="45.90551" lon="3.05898">
        <ele>452</ele>
        <time>2021-07-27T08:33:37Z</time>
      </trkpt>
      <trkpt lat="45.90551" lon="3.05899">
        <ele>452</ele>
        <time>2021-07-27T08:33:38Z</time>
      </trkpt>
      <trkpt lat="45.90553" lon="3.059">
        <ele>452</ele>
        <time>2021-07-27T08:33:39Z</time>
      </trkpt>
      <trkpt lat="45.90554" lon="3.05901">
        <ele>452</ele>
        <time>2021-07-27T08:33:40Z</time>
      </trkpt>
      <trkpt lat="45.90555" lon="3.05902">
        <ele>452</ele>
        <time>2021-07-27T08:33:41Z</time>
      </trkpt>
      <trkpt lat="45.90556" lon="3.05903">
        <ele>452</ele>
        <time>2021-07-27T08:33:42Z</time>
      </trkpt>
      <trkpt lat="45.90557" lon="3.05904">
        <ele>452</ele>
        <time>2021-07-27T08:33:43Z</time>
      </trkpt>
      <trkpt lat="45.90558" lon="3.05905">
        <ele>452</ele>
        <time>2021-07-27T08:33:44Z</time>
      </trkpt>
      <trkpt lat="45.90559" lon="3.05905">
        <ele>452</ele>
        <time>2021-07-27T08:33:45Z</time>
      </trkpt>
      <trkpt lat="45.90559" lon="3.05906">
        <ele>452</ele>
        <time>2021-07-27T08:33:46Z</time>
      </trkpt>
      <trkpt lat="45.90559" lon="3.05907">
        <ele>452</ele>
        <time>2021-07-27T08:33:47Z</time>
      </trkpt>
      <trkpt lat="45.90559" lon="3.05908">
        <ele>452</ele>
        <time>2021-07-27T08:33:48Z</time>
      </trkpt>
      <trkpt lat="45.90559" lon="3.05909">
        <ele>452</ele>
        <time>2021-07-27T08:33:49Z</time>
      </trkpt>
      <trkpt lat="45.90559" lon="3.05911">
        <ele>452</ele>
        <time>2021-07-27T08:33:50Z</time>
      </trkpt>
      <trkpt lat="45.90558" lon="3.05912">
        <ele>452</ele>
        <time>2021-07-27T08:33:51Z</time>
      </trkpt>
      <trkpt lat="45.90557" lon="3.05912">
        <ele>452</ele>
        <time>2021-07-27T08:33:52Z</time>
      </trkpt>
      <trkpt lat="45.90557" lon="3.05913">
        <ele>452</ele>
        <time>2021-07-27T08:33:53Z</time>
      </trkpt>
      <trkpt lat="45.90557" lon="3.05914">
        <ele>452</ele>
        <time>2021-07-27T08:33:54Z</time>
      </trkpt>
      <trkpt lat="45.90556" lon="3.05916">
        <ele>452</ele>
        <time>2021-07-27T08:33:55Z</time>
      </trkpt>
      <trkpt lat="45.90556" lon="3.05917">
        <ele>452</ele>
        <time>2021-07-27T08:33:56Z</time>
      </trkpt>
      <trkpt lat="45.90556" lon="3.05919">
        <ele>452</ele>
        <time>2021-07-27T08:33:57Z</time>
      </trkpt>
      <trkpt lat="45.90556" lon="3.05921">
        <ele>452</ele>
        <time>2021-07-27T08:33:58Z</time>
      </trkpt>
      <trkpt lat="45.90557" lon="3.05923">
        <ele>452</ele>
        <time>2021-07-27T08:33:59Z</time>
      </trkpt>
      <trkpt lat="45.90557" lon="3.05925">
        <ele>452</ele>
        <time>2021-07-27T08:34:00Z</time>
      </trkpt>
      <trkpt lat="45.90557" lon="3.05927">
        <ele>452</ele>
        <time>2021-07-27T08:34:01Z</time>
      </trkpt>
      <trkpt lat="45.90557" lon="3.05928">
        <ele>452</ele>
        <time>2021-07-27T08:34:02Z</time>
      </trkpt>
      <trkpt lat="45.90557" lon="3.0593">
        <ele>452</ele>
        <time>2021-07-27T08:34:03Z</time>
      </trkpt>
      <trkpt lat="45.90558" lon="3.05931">
        <ele>452</ele>
        <time>2021-07-27T08:34:04Z</time>
      </trkpt>
      <trkpt lat="45.90557" lon="3.05932">
        <ele>452</ele>
        <time>2021-07-27T08:34:05Z</time>
      </trkpt>
      <trkpt lat="45.90557" lon="3.05933">
        <ele>452</ele>
        <time>2021-07-27T08:34:06Z</time>
      </trkpt>
      <trkpt lat="45.90557" lon="3.05933">
        <ele>452</ele>
        <time>2021-07-27T08:34:07Z</time>
      </trkpt>
      <trkpt lat="45.90556" lon="3.05934">
        <ele>452</ele>
        <time>2021-07-27T08:34:08Z</time>
      </trkpt>
      <trkpt lat="45.90556" lon="3.05934">
        <ele>452</ele>
        <time>2021-07-27T08:34:09Z</time>
      </trkpt>
      <trkpt lat="45.90555" lon="3.05934">
        <ele>452</ele>
        <time>2021-07-27T08:34:10Z</time>
      </trkpt>
    </trkseg>
  </trk>
</gpx>